<?xml version='1.0' encoding='UTF-8'?><gpx version="1.1" creator="JPX - https://github.com/jenetics/jpx" xmlns="http://www.topografix.com/GPX/1/1"><trk><trkseg><trkpt lat="42.6421673" lon="-7.135763"><ele>587.0</ele><time>2026-04-15T07:20:19.834Z</time></trkpt><trkpt lat="42.6422119" lon="-7.1356964"><ele>587.0</ele><time>2026-04-15T07:20:25.834Z</time></trkpt><trkpt lat="42.642165" lon="-7.1357564"><ele>587.0</ele><time>2026-04-15T07:21:41.833Z</time></trkpt><trkpt lat="42.6421097" lon="-7.1358691"><ele>587.0</ele><time>2026-04-15T07:25:46.835Z</time></trkpt><trkpt lat="42.6421565" lon="-7.1358107"><ele>587.0</ele><time>2026-04-15T07:36:41.835Z</time></trkpt><trkpt lat="42.6421763" lon="-7.1357235"><ele>587.0</ele><time>2026-04-15T07:40:38.837Z</time></trkpt><trkpt lat="42.6421978" lon="-7.1356345"><ele>587.0</ele><time>2026-04-15T07:42:06.836Z</time></trkpt><trkpt lat="42.6422684" lon="-7.1356029"><ele>587.0</ele><time>2026-04-15T07:42:34.838Z</time></trkpt><trkpt lat="42.6423304" lon="-7.1357064"><ele>587.0</ele><time>2026-04-15T07:42:36.838Z</time></trkpt><trkpt lat="42.6423975" lon="-7.135804"><ele>587.0</ele><time>2026-04-15T07:42:38.838Z</time></trkpt><trkpt lat="42.6424639" lon="-7.1358662"><ele>587.0</ele><time>2026-04-15T07:42:40.838Z</time></trkpt><trkpt lat="42.6425371" lon="-7.1359068"><ele>587.0</ele><time>2026-04-15T07:42:42.837Z</time></trkpt><trkpt lat="42.6425975" lon="-7.1359405"><ele>587.0</ele><time>2026-04-15T07:42:44.838Z</time></trkpt><trkpt lat="42.6426287" lon="-7.136045"><ele>587.0</ele><time>2026-04-15T07:42:47.838Z</time></trkpt><trkpt lat="42.6426498" lon="-7.1362094"><ele>587.0</ele><time>2026-04-15T07:42:49.838Z</time></trkpt><trkpt lat="42.6426622" lon="-7.1363067"><ele>587.0</ele><time>2026-04-15T07:42:50.837Z</time></trkpt><trkpt lat="42.6426681" lon="-7.1364074"><ele>587.0</ele><time>2026-04-15T07:42:51.838Z</time></trkpt><trkpt lat="42.6426594" lon="-7.1365065"><ele>587.0</ele><time>2026-04-15T07:42:52.837Z</time></trkpt><trkpt lat="42.6426424" lon="-7.1366009"><ele>587.0</ele><time>2026-04-15T07:42:53.838Z</time></trkpt><trkpt lat="42.6426175" lon="-7.1367013"><ele>587.6666666666666</ele><time>2026-04-15T07:42:54.837Z</time></trkpt><trkpt lat="42.6425934" lon="-7.1368099"><ele>588.3333333333333</ele><time>2026-04-15T07:42:55.838Z</time></trkpt><trkpt lat="42.6425694" lon="-7.1369208"><ele>589.0</ele><time>2026-04-15T07:42:56.837Z</time></trkpt><trkpt lat="42.6425447" lon="-7.1370397"><ele>589.6666666666666</ele><time>2026-04-15T07:42:57.837Z</time></trkpt><trkpt lat="42.6425205" lon="-7.1371632"><ele>590.3333333333334</ele><time>2026-04-15T07:42:58.837Z</time></trkpt><trkpt lat="42.6424969" lon="-7.1372866"><ele>591.0</ele><time>2026-04-15T07:42:59.838Z</time></trkpt><trkpt lat="42.6424706" lon="-7.1374091"><ele>593.4</ele><time>2026-04-15T07:43:00.838Z</time></trkpt><trkpt lat="42.6424384" lon="-7.1375235"><ele>595.8</ele><time>2026-04-15T07:43:01.838Z</time></trkpt><trkpt lat="42.6423963" lon="-7.1376353"><ele>598.1999999999999</ele><time>2026-04-15T07:43:02.837Z</time></trkpt><trkpt lat="42.6423541" lon="-7.1377529"><ele>600.6</ele><time>2026-04-15T07:43:03.838Z</time></trkpt><trkpt lat="42.6423118" lon="-7.1378744"><ele>603.0</ele><time>2026-04-15T07:43:04.837Z</time></trkpt><trkpt lat="42.6422667" lon="-7.1379998"><ele>603.0</ele><time>2026-04-15T07:43:05.838Z</time></trkpt><trkpt lat="42.6422254" lon="-7.1381331"><ele>603.0</ele><time>2026-04-15T07:43:06.837Z</time></trkpt><trkpt lat="42.6421817" lon="-7.1382589"><ele>603.0</ele><time>2026-04-15T07:43:07.838Z</time></trkpt><trkpt lat="42.6421279" lon="-7.138373"><ele>603.0</ele><time>2026-04-15T07:43:08.838Z</time></trkpt><trkpt lat="42.6420676" lon="-7.1384717"><ele>603.0</ele><time>2026-04-15T07:43:09.838Z</time></trkpt><trkpt lat="42.6420014" lon="-7.1385637"><ele>601.6</ele><time>2026-04-15T07:43:10.837Z</time></trkpt><trkpt lat="42.6419287" lon="-7.1386345"><ele>600.1999999999999</ele><time>2026-04-15T07:43:11.837Z</time></trkpt><trkpt lat="42.6418442" lon="-7.1386831"><ele>598.8</ele><time>2026-04-15T07:43:12.837Z</time></trkpt><trkpt lat="42.6417502" lon="-7.1387125"><ele>597.4</ele><time>2026-04-15T07:43:13.838Z</time></trkpt><trkpt lat="42.6416502" lon="-7.1387331"><ele>596.0</ele><time>2026-04-15T07:43:14.838Z</time></trkpt><trkpt lat="42.6415433" lon="-7.1387582"><ele>596.0</ele><time>2026-04-15T07:43:15.838Z</time></trkpt><trkpt lat="42.6414356" lon="-7.1387802"><ele>596.0</ele><time>2026-04-15T07:43:16.838Z</time></trkpt><trkpt lat="42.6413267" lon="-7.1387929"><ele>596.0</ele><time>2026-04-15T07:43:17.837Z</time></trkpt><trkpt lat="42.6412172" lon="-7.1387978"><ele>596.0</ele><time>2026-04-15T07:43:18.838Z</time></trkpt><trkpt lat="42.6411066" lon="-7.1387965"><ele>596.0</ele><time>2026-04-15T07:43:19.838Z</time></trkpt><trkpt lat="42.6409984" lon="-7.1387958"><ele>596.75</ele><time>2026-04-15T07:43:20.838Z</time></trkpt><trkpt lat="42.6408872" lon="-7.1388063"><ele>597.5</ele><time>2026-04-15T07:43:21.838Z</time></trkpt><trkpt lat="42.6407739" lon="-7.1388347"><ele>598.25</ele><time>2026-04-15T07:43:22.837Z</time></trkpt><trkpt lat="42.6406617" lon="-7.138882"><ele>599.0</ele><time>2026-04-15T07:43:23.837Z</time></trkpt><trkpt lat="42.6405488" lon="-7.1389432"><ele>599.0</ele><time>2026-04-15T07:43:24.837Z</time></trkpt><trkpt lat="42.6404382" lon="-7.1390234"><ele>599.0</ele><time>2026-04-15T07:43:25.838Z</time></trkpt><trkpt lat="42.6403242" lon="-7.1391127"><ele>599.0</ele><time>2026-04-15T07:43:26.838Z</time></trkpt><trkpt lat="42.640203" lon="-7.1392063"><ele>599.0</ele><time>2026-04-15T07:43:27.838Z</time></trkpt><trkpt lat="42.6400807" lon="-7.1392981"><ele>603.0</ele><time>2026-04-15T07:43:28.837Z</time></trkpt><trkpt lat="42.6399571" lon="-7.1393853"><ele>607.0</ele><time>2026-04-15T07:43:29.837Z</time></trkpt><trkpt lat="42.6398335" lon="-7.139476"><ele>611.0</ele><time>2026-04-15T07:43:30.838Z</time></trkpt><trkpt lat="42.6397086" lon="-7.1395633"><ele>615.0</ele><time>2026-04-15T07:43:31.837Z</time></trkpt><trkpt lat="42.639585" lon="-7.1396536"><ele>615.0</ele><time>2026-04-15T07:43:32.838Z</time></trkpt><trkpt lat="42.6394678" lon="-7.1397596"><ele>615.0</ele><time>2026-04-15T07:43:33.838Z</time></trkpt><trkpt lat="42.6393635" lon="-7.1398906"><ele>615.0</ele><time>2026-04-15T07:43:34.837Z</time></trkpt><trkpt lat="42.6392764" lon="-7.1400403"><ele>615.0</ele><time>2026-04-15T07:43:35.838Z</time></trkpt><trkpt lat="42.6392007" lon="-7.1401983"><ele>615.5</ele><time>2026-04-15T07:43:36.837Z</time></trkpt><trkpt lat="42.639134" lon="-7.140359"><ele>616.0</ele><time>2026-04-15T07:43:37.837Z</time></trkpt><trkpt lat="42.6390838" lon="-7.1405286"><ele>616.5</ele><time>2026-04-15T07:43:38.837Z</time></trkpt><trkpt lat="42.6390527" lon="-7.1407057"><ele>617.0</ele><time>2026-04-15T07:43:39.837Z</time></trkpt><trkpt lat="42.6390373" lon="-7.1408932"><ele>621.0</ele><time>2026-04-15T07:43:40.838Z</time></trkpt><trkpt lat="42.6390269" lon="-7.1410865"><ele>625.0</ele><time>2026-04-15T07:43:41.837Z</time></trkpt><trkpt lat="42.6390059" lon="-7.1412839"><ele>629.0</ele><time>2026-04-15T07:43:42.837Z</time></trkpt><trkpt lat="42.6389666" lon="-7.1414709"><ele>633.0</ele><time>2026-04-15T07:43:43.838Z</time></trkpt><trkpt lat="42.6389114" lon="-7.1416522"><ele>636.5</ele><time>2026-04-15T07:43:44.837Z</time></trkpt><trkpt lat="42.6388498" lon="-7.1418194"><ele>640.0</ele><time>2026-04-15T07:43:45.838Z</time></trkpt><trkpt lat="42.6387817" lon="-7.1419817"><ele>643.5</ele><time>2026-04-15T07:43:46.838Z</time></trkpt><trkpt lat="42.638715" lon="-7.1421483"><ele>647.0</ele><time>2026-04-15T07:43:47.838Z</time></trkpt><trkpt lat="42.6386433" lon="-7.142315"><ele>634.3333333333333</ele><time>2026-04-15T07:43:48.837Z</time></trkpt><trkpt lat="42.6385667" lon="-7.1425017"><ele>621.6666666666666</ele><time>2026-04-15T07:43:49.837Z</time></trkpt><trkpt lat="42.6384967" lon="-7.1426917"><ele>609.0</ele><time>2026-04-15T07:43:50.837Z</time></trkpt><trkpt lat="42.6384317" lon="-7.1428833"><ele>609.0</ele><time>2026-04-15T07:43:51.838Z</time></trkpt><trkpt lat="42.63837" lon="-7.143075"><ele>609.0</ele><time>2026-04-15T07:43:52.838Z</time></trkpt><trkpt lat="42.6383183" lon="-7.1432633"><ele>609.0</ele><time>2026-04-15T07:43:53.837Z</time></trkpt><trkpt lat="42.63826" lon="-7.1434383"><ele>609.0</ele><time>2026-04-15T07:43:54.838Z</time></trkpt><trkpt lat="42.6381983" lon="-7.1436067"><ele>613.25</ele><time>2026-04-15T07:43:55.837Z</time></trkpt><trkpt lat="42.63813" lon="-7.14377"><ele>617.5</ele><time>2026-04-15T07:43:56.837Z</time></trkpt><trkpt lat="42.6380483" lon="-7.143925"><ele>621.75</ele><time>2026-04-15T07:43:57.837Z</time></trkpt><trkpt lat="42.637965" lon="-7.1440783"><ele>626.0</ele><time>2026-04-15T07:43:58.837Z</time></trkpt><trkpt lat="42.6378833" lon="-7.14424"><ele>628.5</ele><time>2026-04-15T07:43:59.838Z</time></trkpt><trkpt lat="42.6378233" lon="-7.1444283"><ele>631.0</ele><time>2026-04-15T07:44:00.837Z</time></trkpt><trkpt lat="42.63778" lon="-7.14461"><ele>633.5</ele><time>2026-04-15T07:44:01.837Z</time></trkpt><trkpt lat="42.63776" lon="-7.1448"><ele>636.0</ele><time>2026-04-15T07:44:02.837Z</time></trkpt><trkpt lat="42.6377517" lon="-7.145015"><ele>624.3333333333334</ele><time>2026-04-15T07:44:03.838Z</time></trkpt><trkpt lat="42.6377567" lon="-7.14523"><ele>612.6666666666667</ele><time>2026-04-15T07:44:04.837Z</time></trkpt><trkpt lat="42.6377783" lon="-7.14544"><ele>601.0</ele><time>2026-04-15T07:44:05.838Z</time></trkpt><trkpt lat="42.6377967" lon="-7.1456367"><ele>609.25</ele><time>2026-04-15T07:44:06.837Z</time></trkpt><trkpt lat="42.63783" lon="-7.1458283"><ele>617.5</ele><time>2026-04-15T07:44:07.837Z</time></trkpt><trkpt lat="42.6378633" lon="-7.145995"><ele>625.75</ele><time>2026-04-15T07:44:08.838Z</time></trkpt><trkpt lat="42.6379" lon="-7.1461717"><ele>634.0</ele><time>2026-04-15T07:44:09.838Z</time></trkpt><trkpt lat="42.63794" lon="-7.1463517"><ele>634.0</ele><time>2026-04-15T07:44:10.838Z</time></trkpt><trkpt lat="42.6379717" lon="-7.1465317"><ele>634.0</ele><time>2026-04-15T07:44:11.838Z</time></trkpt><trkpt lat="42.6380033" lon="-7.1467117"><ele>634.0</ele><time>2026-04-15T07:44:12.838Z</time></trkpt><trkpt lat="42.638035" lon="-7.1468917"><ele>634.0</ele><time>2026-04-15T07:44:13.838Z</time></trkpt><trkpt lat="42.6380717" lon="-7.1470783"><ele>633.75</ele><time>2026-04-15T07:44:14.837Z</time></trkpt><trkpt lat="42.63811" lon="-7.1472733"><ele>633.5</ele><time>2026-04-15T07:44:15.838Z</time></trkpt><trkpt lat="42.63815" lon="-7.1474533"><ele>633.25</ele><time>2026-04-15T07:44:16.837Z</time></trkpt><trkpt lat="42.6381883" lon="-7.1476267"><ele>633.0</ele><time>2026-04-15T07:44:17.838Z</time></trkpt><trkpt lat="42.6382183" lon="-7.1478"><ele>631.75</ele><time>2026-04-15T07:44:18.838Z</time></trkpt><trkpt lat="42.6382483" lon="-7.147985"><ele>630.5</ele><time>2026-04-15T07:44:19.838Z</time></trkpt><trkpt lat="42.6382783" lon="-7.148175"><ele>629.25</ele><time>2026-04-15T07:44:20.838Z</time></trkpt><trkpt lat="42.6383033" lon="-7.1483633"><ele>628.0</ele><time>2026-04-15T07:44:21.837Z</time></trkpt><trkpt lat="42.6383217" lon="-7.1485467"><ele>627.3333333333334</ele><time>2026-04-15T07:44:22.837Z</time></trkpt><trkpt lat="42.6383283" lon="-7.14876"><ele>626.6666666666666</ele><time>2026-04-15T07:44:23.837Z</time></trkpt><trkpt lat="42.638325" lon="-7.1489583"><ele>626.0</ele><time>2026-04-15T07:44:24.837Z</time></trkpt><trkpt lat="42.6382983" lon="-7.1491567"><ele>628.2</ele><time>2026-04-15T07:44:25.837Z</time></trkpt><trkpt lat="42.63825" lon="-7.1493133"><ele>630.4000000000001</ele><time>2026-04-15T07:44:26.837Z</time></trkpt><trkpt lat="42.6382283" lon="-7.1494483"><ele>632.6</ele><time>2026-04-15T07:44:27.837Z</time></trkpt><trkpt lat="42.638215" lon="-7.14958"><ele>634.8000000000001</ele><time>2026-04-15T07:44:28.837Z</time></trkpt><trkpt lat="42.6382267" lon="-7.1497217"><ele>637.0</ele><time>2026-04-15T07:44:29.838Z</time></trkpt><trkpt lat="42.638255" lon="-7.1498683"><ele>635.75</ele><time>2026-04-15T07:44:30.838Z</time></trkpt><trkpt lat="42.6382967" lon="-7.150005"><ele>634.5</ele><time>2026-04-15T07:44:31.837Z</time></trkpt><trkpt lat="42.6383617" lon="-7.150135"><ele>633.25</ele><time>2026-04-15T07:44:32.837Z</time></trkpt><trkpt lat="42.6384483" lon="-7.1502433"><ele>632.0</ele><time>2026-04-15T07:44:33.837Z</time></trkpt><trkpt lat="42.6385433" lon="-7.1503167"><ele>637.0</ele><time>2026-04-15T07:44:34.838Z</time></trkpt><trkpt lat="42.6386467" lon="-7.15037"><ele>642.0</ele><time>2026-04-15T07:44:35.837Z</time></trkpt><trkpt lat="42.6387517" lon="-7.1504133"><ele>647.0</ele><time>2026-04-15T07:44:36.837Z</time></trkpt><trkpt lat="42.638845" lon="-7.150445"><ele>652.0</ele><time>2026-04-15T07:44:37.838Z</time></trkpt><trkpt lat="42.6389283" lon="-7.150455"><ele>657.0</ele><time>2026-04-15T07:44:38.837Z</time></trkpt><trkpt lat="42.6389933" lon="-7.1504533"><ele>657.0</ele><time>2026-04-15T07:44:39.838Z</time></trkpt><trkpt lat="42.6390167" lon="-7.1503733"><ele>657.0</ele><time>2026-04-15T07:44:42.838Z</time></trkpt><trkpt lat="42.63895" lon="-7.1502967"><ele>657.0</ele><time>2026-04-15T07:44:44.837Z</time></trkpt><trkpt lat="42.638855" lon="-7.150185"><ele>657.0</ele><time>2026-04-15T07:44:46.838Z</time></trkpt><trkpt lat="42.6387983" lon="-7.1500683"><ele>657.0</ele><time>2026-04-15T07:44:47.838Z</time></trkpt><trkpt lat="42.6387267" lon="-7.1499533"><ele>661.75</ele><time>2026-04-15T07:44:48.837Z</time></trkpt><trkpt lat="42.6386683" lon="-7.1498067"><ele>666.5</ele><time>2026-04-15T07:44:49.838Z</time></trkpt><trkpt lat="42.6386267" lon="-7.149645"><ele>671.25</ele><time>2026-04-15T07:44:50.838Z</time></trkpt><trkpt lat="42.6386083" lon="-7.14948"><ele>676.0</ele><time>2026-04-15T07:44:51.838Z</time></trkpt><trkpt lat="42.638615" lon="-7.1493267"><ele>676.0</ele><time>2026-04-15T07:44:52.837Z</time></trkpt><trkpt lat="42.6386533" lon="-7.1491883"><ele>676.0</ele><time>2026-04-15T07:44:53.837Z</time></trkpt><trkpt lat="42.6387183" lon="-7.1490467"><ele>676.0</ele><time>2026-04-15T07:44:54.837Z</time></trkpt><trkpt lat="42.6387933" lon="-7.1489133"><ele>676.0</ele><time>2026-04-15T07:44:55.838Z</time></trkpt><trkpt lat="42.6388683" lon="-7.1487667"><ele>675.8</ele><time>2026-04-15T07:44:56.838Z</time></trkpt><trkpt lat="42.6389317" lon="-7.1486133"><ele>675.5999999999999</ele><time>2026-04-15T07:44:57.838Z</time></trkpt><trkpt lat="42.6389733" lon="-7.148465"><ele>675.4</ele><time>2026-04-15T07:44:58.837Z</time></trkpt><trkpt lat="42.6390017" lon="-7.1483333"><ele>675.2</ele><time>2026-04-15T07:44:59.837Z</time></trkpt><trkpt lat="42.6390133" lon="-7.1482067"><ele>675.0</ele><time>2026-04-15T07:45:00.838Z</time></trkpt><trkpt lat="42.6390117" lon="-7.1480817"><ele>675.0</ele><time>2026-04-15T07:45:01.837Z</time></trkpt><trkpt lat="42.6389933" lon="-7.147955"><ele>675.0</ele><time>2026-04-15T07:45:02.838Z</time></trkpt><trkpt lat="42.6389783" lon="-7.147815"><ele>675.0</ele><time>2026-04-15T07:45:03.837Z</time></trkpt><trkpt lat="42.6389717" lon="-7.1476583"><ele>675.0</ele><time>2026-04-15T07:45:04.838Z</time></trkpt><trkpt lat="42.6389917" lon="-7.1475017"><ele>675.0</ele><time>2026-04-15T07:45:05.838Z</time></trkpt><trkpt lat="42.639035" lon="-7.147345"><ele>674.75</ele><time>2026-04-15T07:45:06.838Z</time></trkpt><trkpt lat="42.63909" lon="-7.14718"><ele>674.5</ele><time>2026-04-15T07:45:07.838Z</time></trkpt><trkpt lat="42.6391483" lon="-7.147005"><ele>674.25</ele><time>2026-04-15T07:45:08.837Z</time></trkpt><trkpt lat="42.639195" lon="-7.1468433"><ele>674.0</ele><time>2026-04-15T07:45:09.838Z</time></trkpt><trkpt lat="42.639235" lon="-7.14667"><ele>673.25</ele><time>2026-04-15T07:45:10.837Z</time></trkpt><trkpt lat="42.6392817" lon="-7.1465017"><ele>672.5</ele><time>2026-04-15T07:45:11.838Z</time></trkpt><trkpt lat="42.6393267" lon="-7.146335"><ele>671.75</ele><time>2026-04-15T07:45:12.837Z</time></trkpt><trkpt lat="42.639385" lon="-7.1461667"><ele>671.0</ele><time>2026-04-15T07:45:13.838Z</time></trkpt><trkpt lat="42.6394417" lon="-7.1459967"><ele>681.75</ele><time>2026-04-15T07:45:14.838Z</time></trkpt><trkpt lat="42.6394817" lon="-7.1458333"><ele>692.5</ele><time>2026-04-15T07:45:15.838Z</time></trkpt><trkpt lat="42.6394883" lon="-7.1456617"><ele>703.25</ele><time>2026-04-15T07:45:16.837Z</time></trkpt><trkpt lat="42.6394933" lon="-7.1454933"><ele>714.0</ele><time>2026-04-15T07:45:17.837Z</time></trkpt><trkpt lat="42.6394783" lon="-7.145315"><ele>714.5</ele><time>2026-04-15T07:45:18.837Z</time></trkpt><trkpt lat="42.63947" lon="-7.1451533"><ele>715.0</ele><time>2026-04-15T07:45:19.837Z</time></trkpt><trkpt lat="42.6394717" lon="-7.1449867"><ele>715.5</ele><time>2026-04-15T07:45:20.837Z</time></trkpt><trkpt lat="42.63948" lon="-7.1448067"><ele>716.0</ele><time>2026-04-15T07:45:21.837Z</time></trkpt><trkpt lat="42.6394967" lon="-7.1446233"><ele>716.25</ele><time>2026-04-15T07:45:22.837Z</time></trkpt><trkpt lat="42.6395167" lon="-7.14446"><ele>716.5</ele><time>2026-04-15T07:45:23.838Z</time></trkpt><trkpt lat="42.6395417" lon="-7.14429"><ele>716.75</ele><time>2026-04-15T07:45:24.837Z</time></trkpt><trkpt lat="42.6395717" lon="-7.14412"><ele>717.0</ele><time>2026-04-15T07:45:25.838Z</time></trkpt><trkpt lat="42.6396033" lon="-7.143955"><ele>715.0</ele><time>2026-04-15T07:45:26.837Z</time></trkpt><trkpt lat="42.639635" lon="-7.1437867"><ele>713.0</ele><time>2026-04-15T07:45:27.837Z</time></trkpt><trkpt lat="42.63967" lon="-7.143615"><ele>711.0</ele><time>2026-04-15T07:45:28.837Z</time></trkpt><trkpt lat="42.6396883" lon="-7.1434517"><ele>709.0</ele><time>2026-04-15T07:45:29.838Z</time></trkpt><trkpt lat="42.6397" lon="-7.1433017"><ele>708.3333333333334</ele><time>2026-04-15T07:45:30.837Z</time></trkpt><trkpt lat="42.639705" lon="-7.1431683"><ele>707.6666666666667</ele><time>2026-04-15T07:45:31.837Z</time></trkpt><trkpt lat="42.6397167" lon="-7.1430467"><ele>707.0</ele><time>2026-04-15T07:45:32.838Z</time></trkpt><trkpt lat="42.6397283" lon="-7.1429317"><ele>706.3333333333334</ele><time>2026-04-15T07:45:33.837Z</time></trkpt><trkpt lat="42.63976" lon="-7.1428"><ele>705.6666666666666</ele><time>2026-04-15T07:45:35.837Z</time></trkpt><trkpt lat="42.639825" lon="-7.1427967"><ele>705.0</ele><time>2026-04-15T07:45:37.837Z</time></trkpt><trkpt lat="42.63985" lon="-7.14293"><ele>705.0</ele><time>2026-04-15T07:45:39.838Z</time></trkpt><trkpt lat="42.6398417" lon="-7.1430583"><ele>705.0</ele><time>2026-04-15T07:45:40.837Z</time></trkpt><trkpt lat="42.63982" lon="-7.1432383"><ele>705.0</ele><time>2026-04-15T07:45:41.838Z</time></trkpt><trkpt lat="42.6397983" lon="-7.1434433"><ele>705.0</ele><time>2026-04-15T07:45:42.837Z</time></trkpt><trkpt lat="42.63979" lon="-7.1436367"><ele>706.0</ele><time>2026-04-15T07:45:43.837Z</time></trkpt><trkpt lat="42.63978" lon="-7.1438217"><ele>707.0</ele><time>2026-04-15T07:45:44.838Z</time></trkpt><trkpt lat="42.6397733" lon="-7.144015"><ele>708.0</ele><time>2026-04-15T07:45:45.838Z</time></trkpt><trkpt lat="42.6397783" lon="-7.14421"><ele>709.0</ele><time>2026-04-15T07:45:46.838Z</time></trkpt><trkpt lat="42.6397917" lon="-7.1444033"><ele>710.75</ele><time>2026-04-15T07:45:47.837Z</time></trkpt><trkpt lat="42.6398083" lon="-7.1445967"><ele>712.5</ele><time>2026-04-15T07:45:48.838Z</time></trkpt><trkpt lat="42.6398283" lon="-7.1447967"><ele>714.25</ele><time>2026-04-15T07:45:49.838Z</time></trkpt><trkpt lat="42.6398367" lon="-7.1450017"><ele>716.0</ele><time>2026-04-15T07:45:50.837Z</time></trkpt><trkpt lat="42.6398533" lon="-7.145205"><ele>716.0</ele><time>2026-04-15T07:45:51.837Z</time></trkpt><trkpt lat="42.639885" lon="-7.1454133"><ele>716.0</ele><time>2026-04-15T07:45:52.838Z</time></trkpt><trkpt lat="42.639905" lon="-7.1456033"><ele>716.0</ele><time>2026-04-15T07:45:53.837Z</time></trkpt><trkpt lat="42.6399483" lon="-7.1457983"><ele>716.0</ele><time>2026-04-15T07:45:54.838Z</time></trkpt><trkpt lat="42.6399733" lon="-7.146005"><ele>715.6666666666666</ele><time>2026-04-15T07:45:55.837Z</time></trkpt><trkpt lat="42.6399983" lon="-7.14622"><ele>715.3333333333334</ele><time>2026-04-15T07:45:56.837Z</time></trkpt><trkpt lat="42.6400267" lon="-7.14643"><ele>715.0</ele><time>2026-04-15T07:45:57.838Z</time></trkpt><trkpt lat="42.64004" lon="-7.14663"><ele>715.0</ele><time>2026-04-15T07:45:58.838Z</time></trkpt><trkpt lat="42.6400433" lon="-7.1468267"><ele>715.0</ele><time>2026-04-15T07:45:59.837Z</time></trkpt><trkpt lat="42.6400533" lon="-7.14701"><ele>715.0</ele><time>2026-04-15T07:46:00.838Z</time></trkpt><trkpt lat="42.64007" lon="-7.1471983"><ele>715.0</ele><time>2026-04-15T07:46:01.837Z</time></trkpt><trkpt lat="42.6400933" lon="-7.1473883"><ele>716.5</ele><time>2026-04-15T07:46:02.838Z</time></trkpt><trkpt lat="42.640135" lon="-7.1475783"><ele>718.0</ele><time>2026-04-15T07:46:03.837Z</time></trkpt><trkpt lat="42.64019" lon="-7.1477517"><ele>719.5</ele><time>2026-04-15T07:46:04.837Z</time></trkpt><trkpt lat="42.640265" lon="-7.1479017"><ele>721.0</ele><time>2026-04-15T07:46:05.838Z</time></trkpt><trkpt lat="42.64036" lon="-7.1480217"><ele>723.25</ele><time>2026-04-15T07:46:06.837Z</time></trkpt><trkpt lat="42.6404617" lon="-7.1481133"><ele>725.5</ele><time>2026-04-15T07:46:07.838Z</time></trkpt><trkpt lat="42.6405783" lon="-7.148175"><ele>727.75</ele><time>2026-04-15T07:46:08.838Z</time></trkpt><trkpt lat="42.6406967" lon="-7.1482083"><ele>730.0</ele><time>2026-04-15T07:46:09.838Z</time></trkpt><trkpt lat="42.6408333" lon="-7.1482333"><ele>730.0</ele><time>2026-04-15T07:46:10.837Z</time></trkpt><trkpt lat="42.6409533" lon="-7.1482517"><ele>730.0</ele><time>2026-04-15T07:46:11.837Z</time></trkpt><trkpt lat="42.64109" lon="-7.1483033"><ele>730.0</ele><time>2026-04-15T07:46:12.837Z</time></trkpt><trkpt lat="42.6412383" lon="-7.14836"><ele>730.0</ele><time>2026-04-15T07:46:13.837Z</time></trkpt><trkpt lat="42.6413733" lon="-7.1484233"><ele>734.75</ele><time>2026-04-15T07:46:14.838Z</time></trkpt><trkpt lat="42.6414833" lon="-7.1485033"><ele>739.5</ele><time>2026-04-15T07:46:15.838Z</time></trkpt><trkpt lat="42.6415883" lon="-7.1485967"><ele>744.25</ele><time>2026-04-15T07:46:16.838Z</time></trkpt><trkpt lat="42.641675" lon="-7.1487233"><ele>749.0</ele><time>2026-04-15T07:46:17.838Z</time></trkpt><trkpt lat="42.6417483" lon="-7.148865"><ele>749.0</ele><time>2026-04-15T07:46:18.838Z</time></trkpt><trkpt lat="42.641825" lon="-7.1490133"><ele>749.0</ele><time>2026-04-15T07:46:19.838Z</time></trkpt><trkpt lat="42.6419133" lon="-7.1491483"><ele>749.0</ele><time>2026-04-15T07:46:20.838Z</time></trkpt><trkpt lat="42.64202" lon="-7.1492483"><ele>749.0</ele><time>2026-04-15T07:46:21.838Z</time></trkpt><trkpt lat="42.642135" lon="-7.1493267"><ele>750.0</ele><time>2026-04-15T07:46:22.837Z</time></trkpt><trkpt lat="42.6422583" lon="-7.1493767"><ele>751.0</ele><time>2026-04-15T07:46:23.837Z</time></trkpt><trkpt lat="42.642385" lon="-7.1493967"><ele>752.0</ele><time>2026-04-15T07:46:24.838Z</time></trkpt><trkpt lat="42.642515" lon="-7.1493917"><ele>753.0</ele><time>2026-04-15T07:46:25.837Z</time></trkpt><trkpt lat="42.642635" lon="-7.1493383"><ele>753.0</ele><time>2026-04-15T07:46:26.837Z</time></trkpt><trkpt lat="42.6427617" lon="-7.1492867"><ele>753.0</ele><time>2026-04-15T07:46:27.838Z</time></trkpt><trkpt lat="42.6428883" lon="-7.1492467"><ele>753.0</ele><time>2026-04-15T07:46:28.838Z</time></trkpt><trkpt lat="42.6430133" lon="-7.1492"><ele>753.0</ele><time>2026-04-15T07:46:29.837Z</time></trkpt><trkpt lat="42.643135" lon="-7.1491483"><ele>754.5</ele><time>2026-04-15T07:46:30.837Z</time></trkpt><trkpt lat="42.6432667" lon="-7.1491083"><ele>756.0</ele><time>2026-04-15T07:46:31.838Z</time></trkpt><trkpt lat="42.6433917" lon="-7.1490717"><ele>757.5</ele><time>2026-04-15T07:46:32.838Z</time></trkpt><trkpt lat="42.6435083" lon="-7.14903"><ele>759.0</ele><time>2026-04-15T07:46:33.838Z</time></trkpt><trkpt lat="42.6436217" lon="-7.1490133"><ele>763.25</ele><time>2026-04-15T07:46:34.837Z</time></trkpt><trkpt lat="42.6437217" lon="-7.1490317"><ele>767.5</ele><time>2026-04-15T07:46:35.838Z</time></trkpt><trkpt lat="42.6438183" lon="-7.14909"><ele>771.75</ele><time>2026-04-15T07:46:36.837Z</time></trkpt><trkpt lat="42.6439017" lon="-7.1492117"><ele>776.0</ele><time>2026-04-15T07:46:37.837Z</time></trkpt><trkpt lat="42.6439933" lon="-7.1493583"><ele>776.0</ele><time>2026-04-15T07:46:38.838Z</time></trkpt><trkpt lat="42.6440917" lon="-7.149495"><ele>776.0</ele><time>2026-04-15T07:46:39.838Z</time></trkpt><trkpt lat="42.6442" lon="-7.149605"><ele>776.0</ele><time>2026-04-15T07:46:40.837Z</time></trkpt><trkpt lat="42.6443133" lon="-7.14971"><ele>776.0</ele><time>2026-04-15T07:46:41.837Z</time></trkpt><trkpt lat="42.6444367" lon="-7.14982"><ele>778.25</ele><time>2026-04-15T07:46:42.837Z</time></trkpt><trkpt lat="42.6445517" lon="-7.1499167"><ele>780.5</ele><time>2026-04-15T07:46:43.837Z</time></trkpt><trkpt lat="42.6446467" lon="-7.1500167"><ele>782.75</ele><time>2026-04-15T07:46:44.838Z</time></trkpt><trkpt lat="42.6447117" lon="-7.150125"><ele>785.0</ele><time>2026-04-15T07:46:45.838Z</time></trkpt><trkpt lat="42.6447517" lon="-7.1502383"><ele>785.0</ele><time>2026-04-15T07:46:46.838Z</time></trkpt><trkpt lat="42.6447733" lon="-7.1503617"><ele>785.0</ele><time>2026-04-15T07:46:47.837Z</time></trkpt><trkpt lat="42.6448017" lon="-7.150485"><ele>785.0</ele><time>2026-04-15T07:46:48.838Z</time></trkpt><trkpt lat="42.6448333" lon="-7.1506483"><ele>785.0</ele><time>2026-04-15T07:46:49.837Z</time></trkpt><trkpt lat="42.644885" lon="-7.150835"><ele>783.6</ele><time>2026-04-15T07:46:50.838Z</time></trkpt><trkpt lat="42.644925" lon="-7.15099"><ele>782.2</ele><time>2026-04-15T07:46:51.838Z</time></trkpt><trkpt lat="42.644985" lon="-7.1511083"><ele>780.8</ele><time>2026-04-15T07:46:52.837Z</time></trkpt><trkpt lat="42.645065" lon="-7.1511867"><ele>779.4</ele><time>2026-04-15T07:46:53.838Z</time></trkpt><trkpt lat="42.6451617" lon="-7.1512367"><ele>778.0</ele><time>2026-04-15T07:46:54.837Z</time></trkpt><trkpt lat="42.6452733" lon="-7.1512683"><ele>781.25</ele><time>2026-04-15T07:46:55.837Z</time></trkpt><trkpt lat="42.645405" lon="-7.1512717"><ele>784.5</ele><time>2026-04-15T07:46:56.837Z</time></trkpt><trkpt lat="42.64554" lon="-7.151245"><ele>787.75</ele><time>2026-04-15T07:46:57.837Z</time></trkpt><trkpt lat="42.6456467" lon="-7.1512167"><ele>791.0</ele><time>2026-04-15T07:46:58.838Z</time></trkpt><trkpt lat="42.6457367" lon="-7.15118"><ele>791.0</ele><time>2026-04-15T07:46:59.837Z</time></trkpt><trkpt lat="42.6458133" lon="-7.1511433"><ele>791.0</ele><time>2026-04-15T07:47:00.838Z</time></trkpt><trkpt lat="42.64587" lon="-7.15106"><ele>791.0</ele><time>2026-04-15T07:47:02.838Z</time></trkpt><trkpt lat="42.6458167" lon="-7.1509417"><ele>791.0</ele><time>2026-04-15T07:47:04.838Z</time></trkpt><trkpt lat="42.6456933" lon="-7.1508767"><ele>791.0</ele><time>2026-04-15T07:47:06.838Z</time></trkpt><trkpt lat="42.64559" lon="-7.1508717"><ele>791.0</ele><time>2026-04-15T07:47:07.837Z</time></trkpt><trkpt lat="42.645475" lon="-7.1508583"><ele>791.0</ele><time>2026-04-15T07:47:08.838Z</time></trkpt><trkpt lat="42.6453667" lon="-7.1508083"><ele>791.0</ele><time>2026-04-15T07:47:09.837Z</time></trkpt><trkpt lat="42.64528" lon="-7.1507183"><ele>791.0</ele><time>2026-04-15T07:47:10.837Z</time></trkpt><trkpt lat="42.6452283" lon="-7.1506117"><ele>791.0</ele><time>2026-04-15T07:47:11.837Z</time></trkpt><trkpt lat="42.6451867" lon="-7.1504717"><ele>792.0</ele><time>2026-04-15T07:47:12.838Z</time></trkpt><trkpt lat="42.6451783" lon="-7.1503217"><ele>793.0</ele><time>2026-04-15T07:47:13.837Z</time></trkpt><trkpt lat="42.64518" lon="-7.1501867"><ele>794.0</ele><time>2026-04-15T07:47:14.838Z</time></trkpt><trkpt lat="42.64518" lon="-7.150045"><ele>795.0</ele><time>2026-04-15T07:47:15.837Z</time></trkpt><trkpt lat="42.6451683" lon="-7.1499067"><ele>796.0</ele><time>2026-04-15T07:47:16.837Z</time></trkpt><trkpt lat="42.6451483" lon="-7.1497667"><ele>796.0</ele><time>2026-04-15T07:47:17.837Z</time></trkpt><trkpt lat="42.6451217" lon="-7.1496283"><ele>796.0</ele><time>2026-04-15T07:47:18.838Z</time></trkpt><trkpt lat="42.6450767" lon="-7.1495033"><ele>796.0</ele><time>2026-04-15T07:47:19.838Z</time></trkpt><trkpt lat="42.6450167" lon="-7.1493933"><ele>796.0</ele><time>2026-04-15T07:47:20.838Z</time></trkpt><trkpt lat="42.644945" lon="-7.1492817"><ele>796.0</ele><time>2026-04-15T07:47:21.838Z</time></trkpt><trkpt lat="42.6448767" lon="-7.1491617"><ele>799.75</ele><time>2026-04-15T07:47:22.838Z</time></trkpt><trkpt lat="42.644815" lon="-7.1490333"><ele>803.5</ele><time>2026-04-15T07:47:23.838Z</time></trkpt><trkpt lat="42.64474" lon="-7.1489033"><ele>807.25</ele><time>2026-04-15T07:47:24.837Z</time></trkpt><trkpt lat="42.6446867" lon="-7.1487533"><ele>811.0</ele><time>2026-04-15T07:47:25.838Z</time></trkpt><trkpt lat="42.644645" lon="-7.1485817"><ele>811.0</ele><time>2026-04-15T07:47:26.838Z</time></trkpt><trkpt lat="42.6446183" lon="-7.1483817"><ele>811.0</ele><time>2026-04-15T07:47:27.838Z</time></trkpt><trkpt lat="42.6445933" lon="-7.1481483"><ele>811.0</ele><time>2026-04-15T07:47:28.838Z</time></trkpt><trkpt lat="42.64455" lon="-7.1479267"><ele>812.0</ele><time>2026-04-15T07:47:29.837Z</time></trkpt><trkpt lat="42.644515" lon="-7.14773"><ele>813.0</ele><time>2026-04-15T07:47:30.837Z</time></trkpt><trkpt lat="42.6444667" lon="-7.1475167"><ele>814.0</ele><time>2026-04-15T07:47:31.837Z</time></trkpt><trkpt lat="42.644425" lon="-7.14733"><ele>814.0</ele><time>2026-04-15T07:47:32.838Z</time></trkpt><trkpt lat="42.6443733" lon="-7.14715"><ele>814.0</ele><time>2026-04-15T07:47:33.838Z</time></trkpt><trkpt lat="42.6443083" lon="-7.146985"><ele>814.0</ele><time>2026-04-15T07:47:34.838Z</time></trkpt><trkpt lat="42.644255" lon="-7.146815"><ele>814.0</ele><time>2026-04-15T07:47:35.837Z</time></trkpt><trkpt lat="42.6441967" lon="-7.1466283"><ele>817.25</ele><time>2026-04-15T07:47:36.838Z</time></trkpt><trkpt lat="42.6441317" lon="-7.1464433"><ele>820.5</ele><time>2026-04-15T07:47:37.837Z</time></trkpt><trkpt lat="42.6440567" lon="-7.14627"><ele>823.75</ele><time>2026-04-15T07:47:38.837Z</time></trkpt><trkpt lat="42.64398" lon="-7.146105"><ele>827.0</ele><time>2026-04-15T07:47:39.837Z</time></trkpt><trkpt lat="42.6439067" lon="-7.1459567"><ele>827.0</ele><time>2026-04-15T07:47:40.837Z</time></trkpt><trkpt lat="42.6438417" lon="-7.14581"><ele>827.0</ele><time>2026-04-15T07:47:41.838Z</time></trkpt><trkpt lat="42.643775" lon="-7.1456617"><ele>827.0</ele><time>2026-04-15T07:47:42.837Z</time></trkpt><trkpt lat="42.643705" lon="-7.1455167"><ele>827.0</ele><time>2026-04-15T07:47:43.838Z</time></trkpt><trkpt lat="42.64366" lon="-7.1453517"><ele>830.25</ele><time>2026-04-15T07:47:44.838Z</time></trkpt><trkpt lat="42.64364" lon="-7.1451767"><ele>833.5</ele><time>2026-04-15T07:47:45.838Z</time></trkpt><trkpt lat="42.6436417" lon="-7.1450017"><ele>836.75</ele><time>2026-04-15T07:47:46.838Z</time></trkpt><trkpt lat="42.64366" lon="-7.1448217"><ele>840.0</ele><time>2026-04-15T07:47:47.837Z</time></trkpt><trkpt lat="42.6437083" lon="-7.1446567"><ele>840.75</ele><time>2026-04-15T07:47:48.838Z</time></trkpt><trkpt lat="42.6437733" lon="-7.1444883"><ele>841.5</ele><time>2026-04-15T07:47:49.837Z</time></trkpt><trkpt lat="42.6438583" lon="-7.1443317"><ele>842.25</ele><time>2026-04-15T07:47:50.838Z</time></trkpt><trkpt lat="42.6439567" lon="-7.1441833"><ele>843.0</ele><time>2026-04-15T07:47:51.838Z</time></trkpt><trkpt lat="42.6440567" lon="-7.144025"><ele>843.0</ele><time>2026-04-15T07:47:52.837Z</time></trkpt><trkpt lat="42.6441567" lon="-7.1438633"><ele>843.0</ele><time>2026-04-15T07:47:53.838Z</time></trkpt><trkpt lat="42.6442383" lon="-7.143685"><ele>843.0</ele><time>2026-04-15T07:47:54.837Z</time></trkpt><trkpt lat="42.64431" lon="-7.143485"><ele>843.0</ele><time>2026-04-15T07:47:55.838Z</time></trkpt><trkpt lat="42.644365" lon="-7.1432817"><ele>843.0</ele><time>2026-04-15T07:47:56.837Z</time></trkpt><trkpt lat="42.64441" lon="-7.1430783"><ele>843.0</ele><time>2026-04-15T07:47:57.837Z</time></trkpt><trkpt lat="42.6444517" lon="-7.1428967"><ele>844.8</ele><time>2026-04-15T07:47:58.837Z</time></trkpt><trkpt lat="42.6445033" lon="-7.1427567"><ele>846.5999999999999</ele><time>2026-04-15T07:47:59.838Z</time></trkpt><trkpt lat="42.644565" lon="-7.142675"><ele>848.4000000000001</ele><time>2026-04-15T07:48:00.838Z</time></trkpt><trkpt lat="42.6446267" lon="-7.142655"><ele>850.2</ele><time>2026-04-15T07:48:01.837Z</time></trkpt><trkpt lat="42.6447183" lon="-7.1427433"><ele>852.0</ele><time>2026-04-15T07:48:03.837Z</time></trkpt><trkpt lat="42.6447433" lon="-7.1428467"><ele>852.0</ele><time>2026-04-15T07:48:04.838Z</time></trkpt><trkpt lat="42.6447333" lon="-7.1429933"><ele>852.0</ele><time>2026-04-15T07:48:05.838Z</time></trkpt><trkpt lat="42.64472" lon="-7.143145"><ele>852.0</ele><time>2026-04-15T07:48:06.837Z</time></trkpt><trkpt lat="42.6447067" lon="-7.14331"><ele>852.0</ele><time>2026-04-15T07:48:07.838Z</time></trkpt><trkpt lat="42.6447" lon="-7.1434867"><ele>856.25</ele><time>2026-04-15T07:48:08.837Z</time></trkpt><trkpt lat="42.6447117" lon="-7.143655"><ele>860.5</ele><time>2026-04-15T07:48:09.838Z</time></trkpt><trkpt lat="42.6447367" lon="-7.1438317"><ele>864.75</ele><time>2026-04-15T07:48:10.838Z</time></trkpt><trkpt lat="42.6447783" lon="-7.144"><ele>869.0</ele><time>2026-04-15T07:48:11.838Z</time></trkpt><trkpt lat="42.644835" lon="-7.1441617"><ele>869.0</ele><time>2026-04-15T07:48:12.838Z</time></trkpt><trkpt lat="42.6449083" lon="-7.1443183"><ele>869.0</ele><time>2026-04-15T07:48:13.837Z</time></trkpt><trkpt lat="42.64499" lon="-7.1444633"><ele>869.0</ele><time>2026-04-15T07:48:14.837Z</time></trkpt><trkpt lat="42.645085" lon="-7.14461"><ele>869.0</ele><time>2026-04-15T07:48:15.838Z</time></trkpt><trkpt lat="42.64518" lon="-7.1447583"><ele>866.6666666666667</ele><time>2026-04-15T07:48:16.838Z</time></trkpt><trkpt lat="42.6452817" lon="-7.1449083"><ele>864.3333333333333</ele><time>2026-04-15T07:48:17.838Z</time></trkpt><trkpt lat="42.6453883" lon="-7.1450667"><ele>862.0</ele><time>2026-04-15T07:48:18.838Z</time></trkpt><trkpt lat="42.6454883" lon="-7.145215"><ele>872.0</ele><time>2026-04-15T07:48:19.839Z</time></trkpt><trkpt lat="42.64559" lon="-7.145375"><ele>882.0</ele><time>2026-04-15T07:48:20.839Z</time></trkpt><trkpt lat="42.64569" lon="-7.14554"><ele>892.0</ele><time>2026-04-15T07:48:21.838Z</time></trkpt><trkpt lat="42.6457833" lon="-7.1456967"><ele>886.6666666666666</ele><time>2026-04-15T07:48:22.839Z</time></trkpt><trkpt lat="42.645885" lon="-7.1458533"><ele>881.3333333333333</ele><time>2026-04-15T07:48:23.838Z</time></trkpt><trkpt lat="42.64599" lon="-7.14601"><ele>876.0</ele><time>2026-04-15T07:48:24.839Z</time></trkpt><trkpt lat="42.646095" lon="-7.1461683"><ele>881.6666666666667</ele><time>2026-04-15T07:48:25.839Z</time></trkpt><trkpt lat="42.6461983" lon="-7.1463183"><ele>887.3333333333334</ele><time>2026-04-15T07:48:26.838Z</time></trkpt><trkpt lat="42.6463067" lon="-7.1464667"><ele>893.0</ele><time>2026-04-15T07:48:27.839Z</time></trkpt><trkpt lat="42.6464183" lon="-7.1466133"><ele>893.0</ele><time>2026-04-15T07:48:28.839Z</time></trkpt><trkpt lat="42.64654" lon="-7.1467467"><ele>893.0</ele><time>2026-04-15T07:48:29.838Z</time></trkpt><trkpt lat="42.646665" lon="-7.1468733"><ele>893.0</ele><time>2026-04-15T07:48:30.839Z</time></trkpt><trkpt lat="42.6467933" lon="-7.1470033"><ele>893.0</ele><time>2026-04-15T07:48:31.839Z</time></trkpt><trkpt lat="42.646925" lon="-7.1471317"><ele>893.0</ele><time>2026-04-15T07:48:32.838Z</time></trkpt><trkpt lat="42.64705" lon="-7.1472483"><ele>893.0</ele><time>2026-04-15T07:48:33.838Z</time></trkpt><trkpt lat="42.64718" lon="-7.1473817"><ele>896.6666666666667</ele><time>2026-04-15T07:48:34.839Z</time></trkpt><trkpt lat="42.6473033" lon="-7.1475083"><ele>900.3333333333333</ele><time>2026-04-15T07:48:35.838Z</time></trkpt><trkpt lat="42.64742" lon="-7.1476417"><ele>904.0</ele><time>2026-04-15T07:48:36.839Z</time></trkpt><trkpt lat="42.6475367" lon="-7.1477867"><ele>904.0</ele><time>2026-04-15T07:48:37.839Z</time></trkpt><trkpt lat="42.6476533" lon="-7.14793"><ele>904.0</ele><time>2026-04-15T07:48:38.838Z</time></trkpt><trkpt lat="42.6477667" lon="-7.148075"><ele>904.0</ele><time>2026-04-15T07:48:39.839Z</time></trkpt><trkpt lat="42.647885" lon="-7.1482067"><ele>906.5</ele><time>2026-04-15T07:48:40.839Z</time></trkpt><trkpt lat="42.6480067" lon="-7.1483367"><ele>909.0</ele><time>2026-04-15T07:48:41.838Z</time></trkpt><trkpt lat="42.6481133" lon="-7.1484517"><ele>911.5</ele><time>2026-04-15T07:48:42.839Z</time></trkpt><trkpt lat="42.648215" lon="-7.14852"><ele>914.0</ele><time>2026-04-15T07:48:43.839Z</time></trkpt><trkpt lat="42.6482983" lon="-7.1485533"><ele>914.0000000000001</ele><time>2026-04-15T07:48:44.839Z</time></trkpt><trkpt lat="42.6483617" lon="-7.1485533"><ele>914.0</ele><time>2026-04-15T07:48:45.838Z</time></trkpt><trkpt lat="42.6483967" lon="-7.1484283"><ele>914.0</ele><time>2026-04-15T07:48:47.838Z</time></trkpt><trkpt lat="42.6483683" lon="-7.148345"><ele>914.0</ele><time>2026-04-15T07:48:48.838Z</time></trkpt><trkpt lat="42.6482983" lon="-7.1482567"><ele>914.0000000000001</ele><time>2026-04-15T07:48:49.838Z</time></trkpt><trkpt lat="42.6482167" lon="-7.14816"><ele>914.0</ele><time>2026-04-15T07:48:50.838Z</time></trkpt><trkpt lat="42.6481417" lon="-7.1480567"><ele>918.25</ele><time>2026-04-15T07:48:51.838Z</time></trkpt><trkpt lat="42.6480633" lon="-7.1479267"><ele>922.5</ele><time>2026-04-15T07:48:52.838Z</time></trkpt><trkpt lat="42.6480033" lon="-7.1477833"><ele>926.75</ele><time>2026-04-15T07:48:53.839Z</time></trkpt><trkpt lat="42.64795" lon="-7.147625"><ele>931.0</ele><time>2026-04-15T07:48:54.839Z</time></trkpt><trkpt lat="42.6479" lon="-7.147465"><ele>928.25</ele><time>2026-04-15T07:48:55.838Z</time></trkpt><trkpt lat="42.64785" lon="-7.1473033"><ele>925.5</ele><time>2026-04-15T07:48:56.838Z</time></trkpt><trkpt lat="42.647805" lon="-7.1471367"><ele>922.75</ele><time>2026-04-15T07:48:57.838Z</time></trkpt><trkpt lat="42.6477633" lon="-7.1469667"><ele>920.0</ele><time>2026-04-15T07:48:58.838Z</time></trkpt><trkpt lat="42.64772" lon="-7.1467933"><ele>920.0</ele><time>2026-04-15T07:48:59.839Z</time></trkpt><trkpt lat="42.647675" lon="-7.146615"><ele>920.0</ele><time>2026-04-15T07:49:00.839Z</time></trkpt><trkpt lat="42.6476233" lon="-7.1464367"><ele>920.0</ele><time>2026-04-15T07:49:01.839Z</time></trkpt><trkpt lat="42.6475783" lon="-7.14626"><ele>920.0</ele><time>2026-04-15T07:49:02.838Z</time></trkpt><trkpt lat="42.64753" lon="-7.1460917"><ele>923.25</ele><time>2026-04-15T07:49:03.838Z</time></trkpt><trkpt lat="42.6474933" lon="-7.1459267"><ele>926.5</ele><time>2026-04-15T07:49:04.839Z</time></trkpt><trkpt lat="42.64745" lon="-7.1457617"><ele>929.75</ele><time>2026-04-15T07:49:05.839Z</time></trkpt><trkpt lat="42.647405" lon="-7.1456083"><ele>933.0</ele><time>2026-04-15T07:49:06.838Z</time></trkpt><trkpt lat="42.64736" lon="-7.1454483"><ele>931.75</ele><time>2026-04-15T07:49:07.839Z</time></trkpt><trkpt lat="42.6473183" lon="-7.14528"><ele>930.5</ele><time>2026-04-15T07:49:08.838Z</time></trkpt><trkpt lat="42.647295" lon="-7.1451083"><ele>929.25</ele><time>2026-04-15T07:49:09.838Z</time></trkpt><trkpt lat="42.6473017" lon="-7.1449367"><ele>928.0</ele><time>2026-04-15T07:49:10.838Z</time></trkpt><trkpt lat="42.6473383" lon="-7.1447967"><ele>928.0</ele><time>2026-04-15T07:49:11.839Z</time></trkpt><trkpt lat="42.6474017" lon="-7.14468"><ele>928.0</ele><time>2026-04-15T07:49:12.839Z</time></trkpt><trkpt lat="42.6474917" lon="-7.1445983"><ele>928.0</ele><time>2026-04-15T07:49:13.838Z</time></trkpt><trkpt lat="42.6476033" lon="-7.1445483"><ele>928.0</ele><time>2026-04-15T07:49:14.839Z</time></trkpt><trkpt lat="42.647715" lon="-7.144535"><ele>928.0</ele><time>2026-04-15T07:49:15.839Z</time></trkpt><trkpt lat="42.6478317" lon="-7.1445267"><ele>931.25</ele><time>2026-04-15T07:49:16.839Z</time></trkpt><trkpt lat="42.6479517" lon="-7.1445183"><ele>934.5</ele><time>2026-04-15T07:49:17.839Z</time></trkpt><trkpt lat="42.6480683" lon="-7.1445067"><ele>937.75</ele><time>2026-04-15T07:49:18.838Z</time></trkpt><trkpt lat="42.6481733" lon="-7.144535"><ele>941.0</ele><time>2026-04-15T07:49:19.838Z</time></trkpt><trkpt lat="42.6482717" lon="-7.1446117"><ele>941.0</ele><time>2026-04-15T07:49:20.838Z</time></trkpt><trkpt lat="42.6483433" lon="-7.1447233"><ele>941.0</ele><time>2026-04-15T07:49:21.839Z</time></trkpt><trkpt lat="42.648385" lon="-7.1448767"><ele>941.0</ele><time>2026-04-15T07:49:22.839Z</time></trkpt><trkpt lat="42.6484167" lon="-7.14504"><ele>941.0</ele><time>2026-04-15T07:49:23.838Z</time></trkpt><trkpt lat="42.648445" lon="-7.145215"><ele>944.25</ele><time>2026-04-15T07:49:24.839Z</time></trkpt><trkpt lat="42.6484767" lon="-7.1453917"><ele>947.5</ele><time>2026-04-15T07:49:25.838Z</time></trkpt><trkpt lat="42.648525" lon="-7.14556"><ele>950.75</ele><time>2026-04-15T07:49:26.838Z</time></trkpt><trkpt lat="42.6485883" lon="-7.1457167"><ele>954.0</ele><time>2026-04-15T07:49:27.838Z</time></trkpt><trkpt lat="42.6486667" lon="-7.1458567"><ele>959.0</ele><time>2026-04-15T07:49:28.838Z</time></trkpt><trkpt lat="42.64877" lon="-7.1459867"><ele>964.0</ele><time>2026-04-15T07:49:29.838Z</time></trkpt><trkpt lat="42.648875" lon="-7.1461033"><ele>969.0</ele><time>2026-04-15T07:49:30.838Z</time></trkpt><trkpt lat="42.6489917" lon="-7.1462033"><ele>974.0</ele><time>2026-04-15T07:49:31.838Z</time></trkpt><trkpt lat="42.6491133" lon="-7.1462933"><ele>974.0</ele><time>2026-04-15T07:49:32.838Z</time></trkpt><trkpt lat="42.64924" lon="-7.14638"><ele>974.0</ele><time>2026-04-15T07:49:33.839Z</time></trkpt><trkpt lat="42.6493683" lon="-7.1464683"><ele>974.0</ele><time>2026-04-15T07:49:34.838Z</time></trkpt><trkpt lat="42.6495067" lon="-7.1465483"><ele>974.0</ele><time>2026-04-15T07:49:35.839Z</time></trkpt><trkpt lat="42.6496533" lon="-7.1466317"><ele>975.6666666666667</ele><time>2026-04-15T07:49:36.838Z</time></trkpt><trkpt lat="42.649805" lon="-7.146715"><ele>977.3333333333333</ele><time>2026-04-15T07:49:37.839Z</time></trkpt><trkpt lat="42.649955" lon="-7.1468067"><ele>979.0</ele><time>2026-04-15T07:49:38.838Z</time></trkpt><trkpt lat="42.6501" lon="-7.146905"><ele>979.0</ele><time>2026-04-15T07:49:39.838Z</time></trkpt><trkpt lat="42.6502433" lon="-7.1470083"><ele>979.0</ele><time>2026-04-15T07:49:40.838Z</time></trkpt><trkpt lat="42.6503883" lon="-7.1471167"><ele>979.0</ele><time>2026-04-15T07:49:41.839Z</time></trkpt><trkpt lat="42.6505317" lon="-7.1472183"><ele>979.0</ele><time>2026-04-15T07:49:42.838Z</time></trkpt><trkpt lat="42.650675" lon="-7.1473167"><ele>979.0</ele><time>2026-04-15T07:49:43.839Z</time></trkpt><trkpt lat="42.6508183" lon="-7.1474167"><ele>979.0</ele><time>2026-04-15T07:49:44.839Z</time></trkpt><trkpt lat="42.6509583" lon="-7.1475083"><ele>979.0</ele><time>2026-04-15T07:49:45.838Z</time></trkpt><trkpt lat="42.6510983" lon="-7.147595"><ele>979.0</ele><time>2026-04-15T07:49:46.838Z</time></trkpt><trkpt lat="42.651235" lon="-7.1476583"><ele>979.0</ele><time>2026-04-15T07:49:47.838Z</time></trkpt><trkpt lat="42.6513783" lon="-7.147695"><ele>979.0</ele><time>2026-04-15T07:49:48.838Z</time></trkpt><trkpt lat="42.6515317" lon="-7.1477167"><ele>981.6666666666666</ele><time>2026-04-15T07:49:49.838Z</time></trkpt><trkpt lat="42.6516867" lon="-7.14772"><ele>984.3333333333333</ele><time>2026-04-15T07:49:50.839Z</time></trkpt><trkpt lat="42.6518383" lon="-7.1477167"><ele>987.0</ele><time>2026-04-15T07:49:51.839Z</time></trkpt><trkpt lat="42.6519817" lon="-7.1476983"><ele>988.2</ele><time>2026-04-15T07:49:52.838Z</time></trkpt><trkpt lat="42.6521033" lon="-7.1476617"><ele>989.4000000000001</ele><time>2026-04-15T07:49:53.838Z</time></trkpt><trkpt lat="42.6521867" lon="-7.1476333"><ele>990.5999999999999</ele><time>2026-04-15T07:49:54.838Z</time></trkpt><trkpt lat="42.6522483" lon="-7.14757"><ele>991.8</ele><time>2026-04-15T07:49:56.839Z</time></trkpt><trkpt lat="42.6521767" lon="-7.147495"><ele>993.0</ele><time>2026-04-15T07:49:58.839Z</time></trkpt><trkpt lat="42.6521017" lon="-7.1474483"><ele>993.0</ele><time>2026-04-15T07:49:59.838Z</time></trkpt><trkpt lat="42.6520183" lon="-7.1474117"><ele>993.0</ele><time>2026-04-15T07:50:00.838Z</time></trkpt><trkpt lat="42.65193" lon="-7.1473783"><ele>993.0</ele><time>2026-04-15T07:50:01.839Z</time></trkpt><trkpt lat="42.651845" lon="-7.1473417"><ele>993.0</ele><time>2026-04-15T07:50:02.839Z</time></trkpt><trkpt lat="42.651755" lon="-7.1472983"><ele>993.0</ele><time>2026-04-15T07:50:03.838Z</time></trkpt><trkpt lat="42.6516717" lon="-7.1472417"><ele>996.2</ele><time>2026-04-15T07:50:04.839Z</time></trkpt><trkpt lat="42.6515783" lon="-7.147175"><ele>999.4</ele><time>2026-04-15T07:50:05.838Z</time></trkpt><trkpt lat="42.651485" lon="-7.147095"><ele>1002.6000000000001</ele><time>2026-04-15T07:50:06.839Z</time></trkpt><trkpt lat="42.6513933" lon="-7.147005"><ele>1005.8000000000001</ele><time>2026-04-15T07:50:07.839Z</time></trkpt><trkpt lat="42.6513117" lon="-7.146925"><ele>1009.0</ele><time>2026-04-15T07:50:08.838Z</time></trkpt><trkpt lat="42.6512417" lon="-7.1468417"><ele>1009.0</ele><time>2026-04-15T07:50:09.839Z</time></trkpt><trkpt lat="42.651175" lon="-7.14675"><ele>1009.0000000000001</ele><time>2026-04-15T07:50:10.838Z</time></trkpt><trkpt lat="42.65111" lon="-7.146655"><ele>1009.0000000000001</ele><time>2026-04-15T07:50:11.838Z</time></trkpt><trkpt lat="42.65105" lon="-7.1465383"><ele>1009.0</ele><time>2026-04-15T07:50:12.839Z</time></trkpt><trkpt lat="42.6509967" lon="-7.1464067"><ele>1009.0</ele><time>2026-04-15T07:50:13.839Z</time></trkpt><trkpt lat="42.6509483" lon="-7.1462667"><ele>1008.4999999999999</ele><time>2026-04-15T07:50:14.838Z</time></trkpt><trkpt lat="42.6509017" lon="-7.1461433"><ele>1008.0</ele><time>2026-04-15T07:50:15.838Z</time></trkpt><trkpt lat="42.6508583" lon="-7.1460267"><ele>1007.5</ele><time>2026-04-15T07:50:16.838Z</time></trkpt><trkpt lat="42.650825" lon="-7.1459133"><ele>1007.0</ele><time>2026-04-15T07:50:17.838Z</time></trkpt><trkpt lat="42.6507933" lon="-7.1458117"><ele>1006.4999999999999</ele><time>2026-04-15T07:50:18.839Z</time></trkpt><trkpt lat="42.6507733" lon="-7.1457267"><ele>1006.0</ele><time>2026-04-15T07:50:19.838Z</time></trkpt><trkpt lat="42.6507433" lon="-7.1455533"><ele>1006.9999999999999</ele><time>2026-04-15T07:50:21.838Z</time></trkpt><trkpt lat="42.650725" lon="-7.14547"><ele>1008.0</ele><time>2026-04-15T07:50:22.839Z</time></trkpt><trkpt lat="42.6506933" lon="-7.145345"><ele>1009.0</ele><time>2026-04-15T07:50:24.839Z</time></trkpt><trkpt lat="42.650685" lon="-7.1452317"><ele>1010.0</ele><time>2026-04-15T07:52:53.839Z</time></trkpt><trkpt lat="42.6506933" lon="-7.1451083"><ele>1010.9999999999999</ele><time>2026-04-15T07:55:15.84Z</time></trkpt><trkpt lat="42.6507017" lon="-7.144975"><ele>1012.0</ele><time>2026-04-15T07:55:52.839Z</time></trkpt><trkpt lat="42.6507533" lon="-7.1448067"><ele>1012.9999999999999</ele><time>2026-04-15T07:55:54.84Z</time></trkpt><trkpt lat="42.6507983" lon="-7.1447067"><ele>1014.0</ele><time>2026-04-15T07:55:55.839Z</time></trkpt><trkpt lat="42.6508517" lon="-7.1446317"><ele>1015.0</ele><time>2026-04-15T07:55:56.839Z</time></trkpt><trkpt lat="42.650915" lon="-7.1445767"><ele>1016.0</ele><time>2026-04-15T07:55:57.84Z</time></trkpt><trkpt lat="42.6509867" lon="-7.1445317"><ele>1016.9999999999999</ele><time>2026-04-15T07:55:58.84Z</time></trkpt><trkpt lat="42.6510567" lon="-7.14449"><ele>1018.0</ele><time>2026-04-15T07:55:59.84Z</time></trkpt><trkpt lat="42.6511567" lon="-7.1444167"><ele>1018.0</ele><time>2026-04-15T07:56:01.839Z</time></trkpt><trkpt lat="42.6512367" lon="-7.14436"><ele>1018.0</ele><time>2026-04-15T07:57:01.839Z</time></trkpt><trkpt lat="42.6512917" lon="-7.1443133"><ele>1018.0</ele><time>2026-04-15T07:57:03.839Z</time></trkpt><trkpt lat="42.651365" lon="-7.1442517"><ele>1018.0</ele><time>2026-04-15T07:57:30.839Z</time></trkpt><trkpt lat="42.6514533" lon="-7.144195"><ele>1018.0</ele><time>2026-04-15T07:57:31.84Z</time></trkpt><trkpt lat="42.6515733" lon="-7.1441467"><ele>1018.0</ele><time>2026-04-15T07:57:32.839Z</time></trkpt><trkpt lat="42.65173" lon="-7.1441017"><ele>1018.0</ele><time>2026-04-15T07:57:33.839Z</time></trkpt><trkpt lat="42.651915" lon="-7.1440767"><ele>1018.0</ele><time>2026-04-15T07:57:34.839Z</time></trkpt><trkpt lat="42.652105" lon="-7.1440467"><ele>1016.0</ele><time>2026-04-15T07:57:35.839Z</time></trkpt><trkpt lat="42.6523067" lon="-7.14399"><ele>1014.0</ele><time>2026-04-15T07:57:36.84Z</time></trkpt><trkpt lat="42.6525033" lon="-7.143925"><ele>1012.0</ele><time>2026-04-15T07:57:37.84Z</time></trkpt><trkpt lat="42.652675" lon="-7.14387"><ele>1018.0</ele><time>2026-04-15T07:57:38.84Z</time></trkpt><trkpt lat="42.6528283" lon="-7.1438283"><ele>1024.0</ele><time>2026-04-15T07:57:39.839Z</time></trkpt><trkpt lat="42.6529683" lon="-7.1438233"><ele>1030.0</ele><time>2026-04-15T07:57:40.839Z</time></trkpt><trkpt lat="42.65309" lon="-7.1438067"><ele>1036.0</ele><time>2026-04-15T07:57:41.84Z</time></trkpt><trkpt lat="42.6531833" lon="-7.1437417"><ele>1036.0</ele><time>2026-04-15T07:57:42.839Z</time></trkpt><trkpt lat="42.653255" lon="-7.14363"><ele>1036.0</ele><time>2026-04-15T07:57:43.839Z</time></trkpt><trkpt lat="42.65335" lon="-7.1435017"><ele>1036.0</ele><time>2026-04-15T07:57:44.84Z</time></trkpt><trkpt lat="42.6534517" lon="-7.1433633"><ele>1036.0</ele><time>2026-04-15T07:57:45.84Z</time></trkpt><trkpt lat="42.653525" lon="-7.1432217"><ele>1035.25</ele><time>2026-04-15T07:57:46.84Z</time></trkpt><trkpt lat="42.65358" lon="-7.1430733"><ele>1034.5</ele><time>2026-04-15T07:57:47.84Z</time></trkpt><trkpt lat="42.6536117" lon="-7.14287"><ele>1033.75</ele><time>2026-04-15T07:57:48.84Z</time></trkpt><trkpt lat="42.6536233" lon="-7.1426417"><ele>1033.0</ele><time>2026-04-15T07:57:49.84Z</time></trkpt><trkpt lat="42.6536183" lon="-7.14237"><ele>1033.0</ele><time>2026-04-15T07:57:50.84Z</time></trkpt><trkpt lat="42.6536233" lon="-7.14208"><ele>1033.0</ele><time>2026-04-15T07:57:51.84Z</time></trkpt><trkpt lat="42.6536167" lon="-7.141775"><ele>1033.0</ele><time>2026-04-15T07:57:52.84Z</time></trkpt><trkpt lat="42.6536233" lon="-7.1414667"><ele>1044.6666666666665</ele><time>2026-04-15T07:57:53.84Z</time></trkpt><trkpt lat="42.6536333" lon="-7.1411917"><ele>1056.3333333333333</ele><time>2026-04-15T07:57:54.84Z</time></trkpt><trkpt lat="42.6536583" lon="-7.1409167"><ele>1068.0</ele><time>2026-04-15T07:57:55.84Z</time></trkpt><trkpt lat="42.6536833" lon="-7.1406417"><ele>1068.0</ele><time>2026-04-15T07:57:56.839Z</time></trkpt><trkpt lat="42.6537283" lon="-7.1403533"><ele>1068.0</ele><time>2026-04-15T07:57:57.839Z</time></trkpt><trkpt lat="42.6537917" lon="-7.1400683"><ele>1068.0</ele><time>2026-04-15T07:57:58.839Z</time></trkpt><trkpt lat="42.653865" lon="-7.1397783"><ele>1067.3333333333333</ele><time>2026-04-15T07:57:59.839Z</time></trkpt><trkpt lat="42.6539417" lon="-7.1394967"><ele>1066.6666666666665</ele><time>2026-04-15T07:58:00.84Z</time></trkpt><trkpt lat="42.6540183" lon="-7.13922"><ele>1066.0</ele><time>2026-04-15T07:58:01.84Z</time></trkpt><trkpt lat="42.654105" lon="-7.1389267"><ele>1062.0</ele><time>2026-04-15T07:58:02.839Z</time></trkpt><trkpt lat="42.6541817" lon="-7.1386383"><ele>1058.0</ele><time>2026-04-15T07:58:03.84Z</time></trkpt><trkpt lat="42.65427" lon="-7.138355"><ele>1055.3333333333335</ele><time>2026-04-15T07:58:04.84Z</time></trkpt><trkpt lat="42.6543617" lon="-7.1380767"><ele>1052.6666666666667</ele><time>2026-04-15T07:58:05.84Z</time></trkpt><trkpt lat="42.654465" lon="-7.1378233"><ele>1050.0</ele><time>2026-04-15T07:58:06.839Z</time></trkpt><trkpt lat="42.6545817" lon="-7.137605"><ele>1056.0</ele><time>2026-04-15T07:58:07.84Z</time></trkpt><trkpt lat="42.6547167" lon="-7.13741"><ele>1062.0</ele><time>2026-04-15T07:58:08.839Z</time></trkpt><trkpt lat="42.6548517" lon="-7.13723"><ele>1068.0</ele><time>2026-04-15T07:58:09.839Z</time></trkpt><trkpt lat="42.6549733" lon="-7.1371017"><ele>1068.0</ele><time>2026-04-15T07:58:10.839Z</time></trkpt><trkpt lat="42.6551033" lon="-7.137005"><ele>1068.0</ele><time>2026-04-15T07:58:11.839Z</time></trkpt><trkpt lat="42.6552417" lon="-7.1369383"><ele>1068.0</ele><time>2026-04-15T07:58:12.839Z</time></trkpt><trkpt lat="42.655385" lon="-7.136915"><ele>1068.0</ele><time>2026-04-15T07:58:13.84Z</time></trkpt><trkpt lat="42.6555017" lon="-7.1369167"><ele>1068.1666666666667</ele><time>2026-04-15T07:58:14.84Z</time></trkpt><trkpt lat="42.6555833" lon="-7.1369583"><ele>1068.3333333333333</ele><time>2026-04-15T07:58:15.839Z</time></trkpt><trkpt lat="42.65564" lon="-7.13702"><ele>1068.5</ele><time>2026-04-15T07:58:16.84Z</time></trkpt><trkpt lat="42.6557083" lon="-7.1370867"><ele>1068.6666666666665</ele><time>2026-04-15T07:58:17.84Z</time></trkpt><trkpt lat="42.655775" lon="-7.1371683"><ele>1068.8333333333333</ele><time>2026-04-15T07:58:18.84Z</time></trkpt><trkpt lat="42.655835" lon="-7.1372783"><ele>1069.0</ele><time>2026-04-15T07:58:19.839Z</time></trkpt><trkpt lat="42.65589" lon="-7.1374117"><ele>1067.0</ele><time>2026-04-15T07:58:20.839Z</time></trkpt><trkpt lat="42.6559617" lon="-7.1375767"><ele>1065.0</ele><time>2026-04-15T07:58:21.84Z</time></trkpt><trkpt lat="42.6560483" lon="-7.1377283"><ele>1063.0</ele><time>2026-04-15T07:58:22.839Z</time></trkpt><trkpt lat="42.65617" lon="-7.1378633"><ele>1061.0</ele><time>2026-04-15T07:58:23.839Z</time></trkpt><trkpt lat="42.6563" lon="-7.137965"><ele>1061.0</ele><time>2026-04-15T07:58:24.839Z</time></trkpt><trkpt lat="42.6564317" lon="-7.13804"><ele>1061.0</ele><time>2026-04-15T07:58:25.84Z</time></trkpt><trkpt lat="42.6565483" lon="-7.13812"><ele>1061.0</ele><time>2026-04-15T07:58:26.839Z</time></trkpt><trkpt lat="42.65664" lon="-7.1382267"><ele>1061.0</ele><time>2026-04-15T07:58:27.84Z</time></trkpt><trkpt lat="42.656715" lon="-7.1383583"><ele>1064.0</ele><time>2026-04-15T07:58:28.84Z</time></trkpt><trkpt lat="42.6567917" lon="-7.1385233"><ele>1067.0</ele><time>2026-04-15T07:58:29.839Z</time></trkpt><trkpt lat="42.6568483" lon="-7.138715"><ele>1070.0</ele><time>2026-04-15T07:58:30.839Z</time></trkpt><trkpt lat="42.6569017" lon="-7.1388767"><ele>1073.0</ele><time>2026-04-15T07:58:31.839Z</time></trkpt><trkpt lat="42.6569733" lon="-7.1390233"><ele>1081.0</ele><time>2026-04-15T07:58:32.84Z</time></trkpt><trkpt lat="42.6570717" lon="-7.1391483"><ele>1089.0</ele><time>2026-04-15T07:58:33.839Z</time></trkpt><trkpt lat="42.6571667" lon="-7.13925"><ele>1097.0</ele><time>2026-04-15T07:58:34.839Z</time></trkpt><trkpt lat="42.6572717" lon="-7.139295"><ele>1105.0</ele><time>2026-04-15T07:58:35.84Z</time></trkpt><trkpt lat="42.6573833" lon="-7.1392583"><ele>1105.0</ele><time>2026-04-15T07:58:36.84Z</time></trkpt><trkpt lat="42.6575017" lon="-7.1391767"><ele>1105.0</ele><time>2026-04-15T07:58:37.839Z</time></trkpt><trkpt lat="42.6576417" lon="-7.13907"><ele>1105.0</ele><time>2026-04-15T07:58:38.84Z</time></trkpt><trkpt lat="42.6577967" lon="-7.1389517"><ele>1100.6666666666665</ele><time>2026-04-15T07:58:39.839Z</time></trkpt><trkpt lat="42.6579567" lon="-7.1388217"><ele>1096.3333333333333</ele><time>2026-04-15T07:58:40.84Z</time></trkpt><trkpt lat="42.6581033" lon="-7.1386867"><ele>1092.0</ele><time>2026-04-15T07:58:41.839Z</time></trkpt><trkpt lat="42.658235" lon="-7.1385733"><ele>1092.0</ele><time>2026-04-15T07:58:42.84Z</time></trkpt><trkpt lat="42.6583533" lon="-7.1384833"><ele>1092.0</ele><time>2026-04-15T07:58:43.84Z</time></trkpt><trkpt lat="42.6584733" lon="-7.1384083"><ele>1092.0</ele><time>2026-04-15T07:58:44.84Z</time></trkpt><trkpt lat="42.658595" lon="-7.1383783"><ele>1092.0</ele><time>2026-04-15T07:58:45.84Z</time></trkpt><trkpt lat="42.6587183" lon="-7.1383967"><ele>1093.5</ele><time>2026-04-15T07:58:46.839Z</time></trkpt><trkpt lat="42.65883" lon="-7.1384617"><ele>1095.0</ele><time>2026-04-15T07:58:47.84Z</time></trkpt><trkpt lat="42.65893" lon="-7.1385583"><ele>1096.5</ele><time>2026-04-15T07:58:48.839Z</time></trkpt><trkpt lat="42.6590267" lon="-7.138685"><ele>1098.0</ele><time>2026-04-15T07:58:49.84Z</time></trkpt><trkpt lat="42.6590833" lon="-7.13883"><ele>1098.0</ele><time>2026-04-15T07:58:50.84Z</time></trkpt><trkpt lat="42.65913" lon="-7.138995"><ele>1098.0</ele><time>2026-04-15T07:58:51.839Z</time></trkpt><trkpt lat="42.6591583" lon="-7.13916"><ele>1098.0</ele><time>2026-04-15T07:58:52.84Z</time></trkpt><trkpt lat="42.6591583" lon="-7.1393533"><ele>1098.0</ele><time>2026-04-15T07:58:53.839Z</time></trkpt><trkpt lat="42.6591233" lon="-7.1395833"><ele>1103.0</ele><time>2026-04-15T07:58:54.84Z</time></trkpt><trkpt lat="42.659095" lon="-7.13982"><ele>1108.0</ele><time>2026-04-15T07:58:55.84Z</time></trkpt><trkpt lat="42.6590717" lon="-7.1400467"><ele>1113.0</ele><time>2026-04-15T07:58:56.839Z</time></trkpt><trkpt lat="42.65905" lon="-7.1402683"><ele>1113.25</ele><time>2026-04-15T07:58:57.84Z</time></trkpt><trkpt lat="42.659035" lon="-7.14047"><ele>1113.5</ele><time>2026-04-15T07:58:58.839Z</time></trkpt><trkpt lat="42.6590333" lon="-7.140645"><ele>1113.75</ele><time>2026-04-15T07:58:59.839Z</time></trkpt><trkpt lat="42.65906" lon="-7.1408183"><ele>1114.0</ele><time>2026-04-15T07:59:00.84Z</time></trkpt><trkpt lat="42.6591167" lon="-7.1409933"><ele>1117.0</ele><time>2026-04-15T07:59:01.839Z</time></trkpt><trkpt lat="42.6591917" lon="-7.1411833"><ele>1120.0</ele><time>2026-04-15T07:59:02.84Z</time></trkpt><trkpt lat="42.6592717" lon="-7.1413783"><ele>1123.0</ele><time>2026-04-15T07:59:03.839Z</time></trkpt><trkpt lat="42.65936" lon="-7.1415467"><ele>1118.0</ele><time>2026-04-15T07:59:04.839Z</time></trkpt><trkpt lat="42.6594533" lon="-7.1416783"><ele>1113.0</ele><time>2026-04-15T07:59:05.839Z</time></trkpt><trkpt lat="42.659555" lon="-7.1417567"><ele>1108.0</ele><time>2026-04-15T07:59:06.84Z</time></trkpt><trkpt lat="42.6596717" lon="-7.14183"><ele>1103.0</ele><time>2026-04-15T07:59:07.84Z</time></trkpt><trkpt lat="42.6597817" lon="-7.1419067"><ele>1103.0</ele><time>2026-04-15T07:59:08.84Z</time></trkpt><trkpt lat="42.6598817" lon="-7.142015"><ele>1103.0</ele><time>2026-04-15T07:59:09.84Z</time></trkpt><trkpt lat="42.6599633" lon="-7.1421667"><ele>1103.0</ele><time>2026-04-15T07:59:10.839Z</time></trkpt><trkpt lat="42.660035" lon="-7.1423517"><ele>1103.0</ele><time>2026-04-15T07:59:11.839Z</time></trkpt><trkpt lat="42.6601083" lon="-7.14258"><ele>1097.3333333333335</ele><time>2026-04-15T07:59:12.839Z</time></trkpt><trkpt lat="42.660195" lon="-7.1428017"><ele>1091.6666666666667</ele><time>2026-04-15T07:59:13.84Z</time></trkpt><trkpt lat="42.6603117" lon="-7.1430067"><ele>1086.0</ele><time>2026-04-15T07:59:14.839Z</time></trkpt><trkpt lat="42.6604383" lon="-7.1432"><ele>1095.0</ele><time>2026-04-15T07:59:15.839Z</time></trkpt><trkpt lat="42.6605783" lon="-7.1433567"><ele>1104.0</ele><time>2026-04-15T07:59:16.839Z</time></trkpt><trkpt lat="42.660695" lon="-7.143495"><ele>1113.0</ele><time>2026-04-15T07:59:17.839Z</time></trkpt><trkpt lat="42.660785" lon="-7.143635"><ele>1113.0</ele><time>2026-04-15T07:59:18.84Z</time></trkpt><trkpt lat="42.660865" lon="-7.1438033"><ele>1113.0</ele><time>2026-04-15T07:59:19.84Z</time></trkpt><trkpt lat="42.660935" lon="-7.1439817"><ele>1113.0</ele><time>2026-04-15T07:59:20.839Z</time></trkpt><trkpt lat="42.6609867" lon="-7.1441533"><ele>1113.0</ele><time>2026-04-15T07:59:21.84Z</time></trkpt><trkpt lat="42.6610167" lon="-7.144355"><ele>1118.75</ele><time>2026-04-15T07:59:22.84Z</time></trkpt><trkpt lat="42.66103" lon="-7.14456"><ele>1124.5</ele><time>2026-04-15T07:59:23.839Z</time></trkpt><trkpt lat="42.6610117" lon="-7.14477"><ele>1130.25</ele><time>2026-04-15T07:59:24.839Z</time></trkpt><trkpt lat="42.6609983" lon="-7.144945"><ele>1136.0</ele><time>2026-04-15T07:59:25.84Z</time></trkpt><trkpt lat="42.661015" lon="-7.145075"><ele>1137.5</ele><time>2026-04-15T07:59:26.84Z</time></trkpt><trkpt lat="42.6610767" lon="-7.1451767"><ele>1139.0</ele><time>2026-04-15T07:59:27.839Z</time></trkpt><trkpt lat="42.6611567" lon="-7.1452733"><ele>1140.5</ele><time>2026-04-15T07:59:28.839Z</time></trkpt><trkpt lat="42.661255" lon="-7.14539"><ele>1142.0</ele><time>2026-04-15T07:59:29.84Z</time></trkpt><trkpt lat="42.6613567" lon="-7.14552"><ele>1141.5</ele><time>2026-04-15T07:59:30.84Z</time></trkpt><trkpt lat="42.6614683" lon="-7.1456367"><ele>1141.0</ele><time>2026-04-15T07:59:31.84Z</time></trkpt><trkpt lat="42.6615783" lon="-7.1457133"><ele>1140.5</ele><time>2026-04-15T07:59:32.839Z</time></trkpt><trkpt lat="42.6617067" lon="-7.1457417"><ele>1140.0</ele><time>2026-04-15T07:59:33.84Z</time></trkpt><trkpt lat="42.6618483" lon="-7.1457467"><ele>1138.0</ele><time>2026-04-15T07:59:34.839Z</time></trkpt><trkpt lat="42.6620067" lon="-7.145715"><ele>1136.0</ele><time>2026-04-15T07:59:35.839Z</time></trkpt><trkpt lat="42.6621833" lon="-7.14566"><ele>1134.0</ele><time>2026-04-15T07:59:36.839Z</time></trkpt><trkpt lat="42.66237" lon="-7.1455967"><ele>1126.3333333333333</ele><time>2026-04-15T07:59:37.839Z</time></trkpt><trkpt lat="42.66254" lon="-7.1455283"><ele>1118.6666666666665</ele><time>2026-04-15T07:59:38.839Z</time></trkpt><trkpt lat="42.662705" lon="-7.1454717"><ele>1111.0</ele><time>2026-04-15T07:59:39.839Z</time></trkpt><trkpt lat="42.6628683" lon="-7.1454183"><ele>1109.3333333333333</ele><time>2026-04-15T07:59:40.839Z</time></trkpt><trkpt lat="42.6630383" lon="-7.1454183"><ele>1107.6666666666667</ele><time>2026-04-15T07:59:41.84Z</time></trkpt><trkpt lat="42.6631983" lon="-7.1454433"><ele>1106.0</ele><time>2026-04-15T07:59:42.839Z</time></trkpt><trkpt lat="42.6633433" lon="-7.1454867"><ele>1106.0</ele><time>2026-04-15T07:59:43.839Z</time></trkpt><trkpt lat="42.6635017" lon="-7.1455517"><ele>1106.0</ele><time>2026-04-15T07:59:44.839Z</time></trkpt><trkpt lat="42.6636633" lon="-7.1456083"><ele>1106.0</ele><time>2026-04-15T07:59:45.839Z</time></trkpt><trkpt lat="42.66382" lon="-7.14566"><ele>1104.3333333333335</ele><time>2026-04-15T07:59:46.84Z</time></trkpt><trkpt lat="42.6639717" lon="-7.14569"><ele>1102.6666666666667</ele><time>2026-04-15T07:59:47.839Z</time></trkpt><trkpt lat="42.6641183" lon="-7.145715"><ele>1101.0</ele><time>2026-04-15T07:59:48.84Z</time></trkpt><trkpt lat="42.6642717" lon="-7.1457633"><ele>1109.3333333333333</ele><time>2026-04-15T07:59:49.841Z</time></trkpt><trkpt lat="42.6644317" lon="-7.1458367"><ele>1117.6666666666665</ele><time>2026-04-15T07:59:50.84Z</time></trkpt><trkpt lat="42.6645983" lon="-7.1459183"><ele>1126.0</ele><time>2026-04-15T07:59:51.841Z</time></trkpt><trkpt lat="42.66477" lon="-7.1460083"><ele>1126.0</ele><time>2026-04-15T07:59:52.841Z</time></trkpt><trkpt lat="42.66493" lon="-7.1460783"><ele>1126.0</ele><time>2026-04-15T07:59:53.84Z</time></trkpt><trkpt lat="42.66509" lon="-7.1461083"><ele>1126.0</ele><time>2026-04-15T07:59:54.84Z</time></trkpt><trkpt lat="42.6652333" lon="-7.1460883"><ele>1129.25</ele><time>2026-04-15T07:59:55.84Z</time></trkpt><trkpt lat="42.66537" lon="-7.1460483"><ele>1132.5</ele><time>2026-04-15T07:59:56.84Z</time></trkpt><trkpt lat="42.6654833" lon="-7.145955"><ele>1135.75</ele><time>2026-04-15T07:59:57.84Z</time></trkpt><trkpt lat="42.66557" lon="-7.145855"><ele>1139.0</ele><time>2026-04-15T07:59:58.841Z</time></trkpt><trkpt lat="42.6655583" lon="-7.1456967"><ele>1139.0</ele><time>2026-04-15T07:59:59.841Z</time></trkpt><trkpt lat="42.6655817" lon="-7.14556"><ele>1139.0</ele><time>2026-04-15T08:00:01.84Z</time></trkpt><trkpt lat="42.6656483" lon="-7.1455567"><ele>1139.0</ele><time>2026-04-15T08:00:03.84Z</time></trkpt><trkpt lat="42.6656683" lon="-7.1456617"><ele>1139.0</ele><time>2026-04-15T08:00:05.84Z</time></trkpt><trkpt lat="42.6656633" lon="-7.14575"><ele>1139.0</ele><time>2026-04-15T08:00:06.841Z</time></trkpt><trkpt lat="42.66565" lon="-7.1458667"><ele>1139.0</ele><time>2026-04-15T08:00:07.841Z</time></trkpt><trkpt lat="42.6656433" lon="-7.146035"><ele>1139.6666666666667</ele><time>2026-04-15T08:00:08.84Z</time></trkpt><trkpt lat="42.66563" lon="-7.14624"><ele>1140.3333333333333</ele><time>2026-04-15T08:00:09.841Z</time></trkpt><trkpt lat="42.6656167" lon="-7.1464917"><ele>1141.0</ele><time>2026-04-15T08:00:10.84Z</time></trkpt><trkpt lat="42.6655933" lon="-7.146755"><ele>1141.3333333333333</ele><time>2026-04-15T08:00:11.841Z</time></trkpt><trkpt lat="42.6655783" lon="-7.1470483"><ele>1141.6666666666667</ele><time>2026-04-15T08:00:12.84Z</time></trkpt><trkpt lat="42.6655617" lon="-7.147325"><ele>1142.0</ele><time>2026-04-15T08:00:13.84Z</time></trkpt><trkpt lat="42.6655367" lon="-7.1476133"><ele>1142.6666666666667</ele><time>2026-04-15T08:00:14.84Z</time></trkpt><trkpt lat="42.66551" lon="-7.1478917"><ele>1143.3333333333333</ele><time>2026-04-15T08:00:15.841Z</time></trkpt><trkpt lat="42.6655017" lon="-7.1481767"><ele>1144.0</ele><time>2026-04-15T08:00:16.84Z</time></trkpt><trkpt lat="42.6655183" lon="-7.148455"><ele>1146.0</ele><time>2026-04-15T08:00:17.84Z</time></trkpt><trkpt lat="42.665555" lon="-7.1487167"><ele>1148.0</ele><time>2026-04-15T08:00:18.84Z</time></trkpt><trkpt lat="42.6656183" lon="-7.1489867"><ele>1150.0</ele><time>2026-04-15T08:00:19.841Z</time></trkpt><trkpt lat="42.6657067" lon="-7.149265"><ele>1153.6666666666665</ele><time>2026-04-15T08:00:20.841Z</time></trkpt><trkpt lat="42.6657983" lon="-7.149545"><ele>1157.3333333333333</ele><time>2026-04-15T08:00:21.84Z</time></trkpt><trkpt lat="42.6658983" lon="-7.149805"><ele>1161.0</ele><time>2026-04-15T08:00:22.84Z</time></trkpt><trkpt lat="42.666015" lon="-7.150015"><ele>1161.6666666666667</ele><time>2026-04-15T08:00:23.84Z</time></trkpt><trkpt lat="42.6661417" lon="-7.150205"><ele>1162.3333333333335</ele><time>2026-04-15T08:00:24.84Z</time></trkpt><trkpt lat="42.66628" lon="-7.1503767"><ele>1163.0</ele><time>2026-04-15T08:00:25.841Z</time></trkpt><trkpt lat="42.6664083" lon="-7.1505367"><ele>1163.0</ele><time>2026-04-15T08:00:26.84Z</time></trkpt><trkpt lat="42.6665433" lon="-7.1506683"><ele>1163.0</ele><time>2026-04-15T08:00:27.84Z</time></trkpt><trkpt lat="42.6666817" lon="-7.15075"><ele>1163.0</ele><time>2026-04-15T08:00:28.84Z</time></trkpt><trkpt lat="42.666795" lon="-7.150815"><ele>1163.0</ele><time>2026-04-15T08:00:29.84Z</time></trkpt><trkpt lat="42.6668983" lon="-7.1508833"><ele>1166.3333333333335</ele><time>2026-04-15T08:00:30.841Z</time></trkpt><trkpt lat="42.6669817" lon="-7.1509333"><ele>1169.6666666666667</ele><time>2026-04-15T08:00:31.84Z</time></trkpt><trkpt lat="42.6670483" lon="-7.1509633"><ele>1173.0</ele><time>2026-04-15T08:00:32.84Z</time></trkpt><trkpt lat="42.667135" lon="-7.15091"><ele>1176.3333333333333</ele><time>2026-04-15T08:00:34.84Z</time></trkpt><trkpt lat="42.6671683" lon="-7.150825"><ele>1179.6666666666665</ele><time>2026-04-15T08:00:35.84Z</time></trkpt><trkpt lat="42.6672033" lon="-7.1507483"><ele>1183.0</ele><time>2026-04-15T08:00:36.84Z</time></trkpt><trkpt lat="42.6672233" lon="-7.1506367"><ele>1183.0</ele><time>2026-04-15T08:00:37.84Z</time></trkpt><trkpt lat="42.6672517" lon="-7.1504967"><ele>1183.0</ele><time>2026-04-15T08:00:38.841Z</time></trkpt><trkpt lat="42.6672817" lon="-7.150305"><ele>1183.0</ele><time>2026-04-15T08:00:39.841Z</time></trkpt><trkpt lat="42.6673033" lon="-7.1501317"><ele>1183.0</ele><time>2026-04-15T08:00:40.84Z</time></trkpt><trkpt lat="42.667325" lon="-7.15"><ele>1183.0</ele><time>2026-04-15T08:00:41.841Z</time></trkpt><trkpt lat="42.6673567" lon="-7.1499133"><ele>1183.0</ele><time>2026-04-15T08:00:42.841Z</time></trkpt><trkpt lat="42.66742" lon="-7.1498883"><ele>1183.0</ele><time>2026-04-15T08:00:45.84Z</time></trkpt><trkpt lat="42.6673867" lon="-7.1500783"><ele>1183.0</ele><time>2026-04-15T08:00:48.84Z</time></trkpt><trkpt lat="42.6673583" lon="-7.1501783"><ele>1183.0</ele><time>2026-04-15T08:00:49.84Z</time></trkpt><trkpt lat="42.667335" lon="-7.150315"><ele>1183.0</ele><time>2026-04-15T08:00:50.84Z</time></trkpt><trkpt lat="42.6673167" lon="-7.1504283"><ele>1183.0</ele><time>2026-04-15T08:00:51.841Z</time></trkpt><trkpt lat="42.6673067" lon="-7.1505433"><ele>1183.0</ele><time>2026-04-15T08:00:52.841Z</time></trkpt><trkpt lat="42.66731" lon="-7.1506683"><ele>1183.0</ele><time>2026-04-15T08:00:53.84Z</time></trkpt><trkpt lat="42.6673233" lon="-7.1507917"><ele>1183.0</ele><time>2026-04-15T08:00:54.84Z</time></trkpt><trkpt lat="42.66735" lon="-7.1509433"><ele>1183.6</ele><time>2026-04-15T08:00:55.84Z</time></trkpt><trkpt lat="42.6673767" lon="-7.15106"><ele>1184.1999999999998</ele><time>2026-04-15T08:00:56.84Z</time></trkpt><trkpt lat="42.667375" lon="-7.1511733"><ele>1184.8</ele><time>2026-04-15T08:00:57.84Z</time></trkpt><trkpt lat="42.667365" lon="-7.1513133"><ele>1185.3999999999999</ele><time>2026-04-15T08:00:58.841Z</time></trkpt><trkpt lat="42.6673333" lon="-7.1514333"><ele>1186.0</ele><time>2026-04-15T08:00:59.841Z</time></trkpt><trkpt lat="42.6672933" lon="-7.151575"><ele>1186.0</ele><time>2026-04-15T08:01:00.84Z</time></trkpt><trkpt lat="42.6672283" lon="-7.1517133"><ele>1186.0</ele><time>2026-04-15T08:01:01.841Z</time></trkpt><trkpt lat="42.6671617" lon="-7.1518967"><ele>1186.0</ele><time>2026-04-15T08:01:02.841Z</time></trkpt><trkpt lat="42.6670733" lon="-7.1520967"><ele>1186.0</ele><time>2026-04-15T08:01:03.84Z</time></trkpt><trkpt lat="42.66702" lon="-7.1522767"><ele>1185.0</ele><time>2026-04-15T08:01:04.84Z</time></trkpt><trkpt lat="42.667035" lon="-7.152525"><ele>1184.0</ele><time>2026-04-15T08:01:05.84Z</time></trkpt><trkpt lat="42.6670917" lon="-7.1527967"><ele>1183.0</ele><time>2026-04-15T08:01:06.84Z</time></trkpt><trkpt lat="42.6672367" lon="-7.15323"><ele>1179.0</ele><time>2026-04-15T08:01:07.84Z</time></trkpt><trkpt lat="42.6673067" lon="-7.1534783"><ele>1175.0</ele><time>2026-04-15T08:01:08.84Z</time></trkpt><trkpt lat="42.66744" lon="-7.1538733"><ele>1174.6666666666667</ele><time>2026-04-15T08:01:09.841Z</time></trkpt><trkpt lat="42.6675033" lon="-7.154095"><ele>1174.3333333333333</ele><time>2026-04-15T08:01:10.841Z</time></trkpt><trkpt lat="42.66759" lon="-7.1542933"><ele>1174.0</ele><time>2026-04-15T08:01:11.841Z</time></trkpt><trkpt lat="42.6676767" lon="-7.154485"><ele>1174.0</ele><time>2026-04-15T08:01:12.841Z</time></trkpt><trkpt lat="42.6677733" lon="-7.1546917"><ele>1174.0</ele><time>2026-04-15T08:01:13.84Z</time></trkpt><trkpt lat="42.6678333" lon="-7.1548783"><ele>1174.0</ele><time>2026-04-15T08:01:14.841Z</time></trkpt><trkpt lat="42.6678867" lon="-7.1550667"><ele>1172.75</ele><time>2026-04-15T08:01:15.84Z</time></trkpt><trkpt lat="42.6679267" lon="-7.1552433"><ele>1171.5</ele><time>2026-04-15T08:01:16.84Z</time></trkpt><trkpt lat="42.66796" lon="-7.15542"><ele>1170.25</ele><time>2026-04-15T08:01:17.84Z</time></trkpt><trkpt lat="42.6680033" lon="-7.1555717"><ele>1169.0</ele><time>2026-04-15T08:01:18.841Z</time></trkpt><trkpt lat="42.6680617" lon="-7.1557217"><ele>1169.0</ele><time>2026-04-15T08:01:19.84Z</time></trkpt><trkpt lat="42.6681367" lon="-7.1558733"><ele>1169.0</ele><time>2026-04-15T08:01:20.84Z</time></trkpt><trkpt lat="42.6682233" lon="-7.156025"><ele>1169.0</ele><time>2026-04-15T08:01:21.841Z</time></trkpt><trkpt lat="42.6683083" lon="-7.1562117"><ele>1169.0</ele><time>2026-04-15T08:01:22.84Z</time></trkpt><trkpt lat="42.6683833" lon="-7.15643"><ele>1172.3333333333335</ele><time>2026-04-15T08:01:23.84Z</time></trkpt><trkpt lat="42.6684717" lon="-7.1566567"><ele>1175.6666666666667</ele><time>2026-04-15T08:01:24.841Z</time></trkpt><trkpt lat="42.6685483" lon="-7.156895"><ele>1179.0</ele><time>2026-04-15T08:01:25.841Z</time></trkpt><trkpt lat="42.6686167" lon="-7.157115"><ele>1179.2</ele><time>2026-04-15T08:01:26.84Z</time></trkpt><trkpt lat="42.668675" lon="-7.1572983"><ele>1179.4</ele><time>2026-04-15T08:01:27.84Z</time></trkpt><trkpt lat="42.6687083" lon="-7.157435"><ele>1179.6</ele><time>2026-04-15T08:01:28.841Z</time></trkpt><trkpt lat="42.6687583" lon="-7.1575217"><ele>1179.8</ele><time>2026-04-15T08:01:29.84Z</time></trkpt><trkpt lat="42.6688183" lon="-7.157585"><ele>1180.0</ele><time>2026-04-15T08:01:30.84Z</time></trkpt><trkpt lat="42.6689017" lon="-7.157645"><ele>1181.2</ele><time>2026-04-15T08:01:31.841Z</time></trkpt><trkpt lat="42.6689783" lon="-7.15773"><ele>1182.4</ele><time>2026-04-15T08:01:32.841Z</time></trkpt><trkpt lat="42.669055" lon="-7.1578383"><ele>1183.6</ele><time>2026-04-15T08:01:33.84Z</time></trkpt><trkpt lat="42.6691183" lon="-7.1579583"><ele>1184.8</ele><time>2026-04-15T08:01:34.841Z</time></trkpt><trkpt lat="42.669165" lon="-7.1580617"><ele>1186.0</ele><time>2026-04-15T08:01:35.841Z</time></trkpt><trkpt lat="42.66924" lon="-7.1581317"><ele>1186.0</ele><time>2026-04-15T08:01:37.841Z</time></trkpt><trkpt lat="42.669305" lon="-7.1580517"><ele>1186.0</ele><time>2026-04-15T08:01:39.84Z</time></trkpt><trkpt lat="42.669335" lon="-7.1579583"><ele>1186.0</ele><time>2026-04-15T08:01:40.84Z</time></trkpt><trkpt lat="42.6693633" lon="-7.1578517"><ele>1186.0</ele><time>2026-04-15T08:01:41.84Z</time></trkpt><trkpt lat="42.669405" lon="-7.157725"><ele>1186.0</ele><time>2026-04-15T08:01:42.84Z</time></trkpt><trkpt lat="42.6694417" lon="-7.1576017"><ele>1186.0</ele><time>2026-04-15T08:01:43.841Z</time></trkpt><trkpt lat="42.6694917" lon="-7.1574617"><ele>1191.0</ele><time>2026-04-15T08:01:44.84Z</time></trkpt><trkpt lat="42.66954" lon="-7.15733"><ele>1196.0</ele><time>2026-04-15T08:01:45.841Z</time></trkpt><trkpt lat="42.6695817" lon="-7.1571983"><ele>1201.0</ele><time>2026-04-15T08:01:46.84Z</time></trkpt><trkpt lat="42.6696183" lon="-7.1570617"><ele>1206.0</ele><time>2026-04-15T08:01:47.841Z</time></trkpt><trkpt lat="42.6696467" lon="-7.1569317"><ele>1211.0</ele><time>2026-04-15T08:01:48.84Z</time></trkpt><trkpt lat="42.6696717" lon="-7.1567883"><ele>1211.0</ele><time>2026-04-15T08:01:49.84Z</time></trkpt><trkpt lat="42.6697117" lon="-7.1566517"><ele>1211.0</ele><time>2026-04-15T08:01:50.841Z</time></trkpt><trkpt lat="42.66975" lon="-7.1565383"><ele>1211.0</ele><time>2026-04-15T08:01:51.84Z</time></trkpt><trkpt lat="42.669815" lon="-7.1564683"><ele>1211.0</ele><time>2026-04-15T08:01:53.84Z</time></trkpt><trkpt lat="42.6698433" lon="-7.1566033"><ele>1211.0</ele><time>2026-04-15T08:01:56.84Z</time></trkpt><trkpt lat="42.6698183" lon="-7.15671"><ele>1211.0</ele><time>2026-04-15T08:01:57.84Z</time></trkpt><trkpt lat="42.6697983" lon="-7.1568483"><ele>1211.0</ele><time>2026-04-15T08:01:58.841Z</time></trkpt><trkpt lat="42.6698017" lon="-7.1569883"><ele>1211.0</ele><time>2026-04-15T08:01:59.841Z</time></trkpt><trkpt lat="42.6698117" lon="-7.1571433"><ele>1211.0</ele><time>2026-04-15T08:02:00.841Z</time></trkpt><trkpt lat="42.66984" lon="-7.15731"><ele>1211.0</ele><time>2026-04-15T08:02:01.84Z</time></trkpt><trkpt lat="42.669885" lon="-7.1574667"><ele>1211.75</ele><time>2026-04-15T08:02:02.841Z</time></trkpt><trkpt lat="42.6699533" lon="-7.15763"><ele>1212.5</ele><time>2026-04-15T08:02:03.841Z</time></trkpt><trkpt lat="42.6700117" lon="-7.157805"><ele>1213.25</ele><time>2026-04-15T08:02:04.841Z</time></trkpt><trkpt lat="42.6700667" lon="-7.157985"><ele>1214.0</ele><time>2026-04-15T08:02:05.84Z</time></trkpt><trkpt lat="42.6701233" lon="-7.158175"><ele>1212.3333333333335</ele><time>2026-04-15T08:02:06.84Z</time></trkpt><trkpt lat="42.6701867" lon="-7.1583783"><ele>1210.6666666666667</ele><time>2026-04-15T08:02:07.841Z</time></trkpt><trkpt lat="42.670255" lon="-7.158575"><ele>1209.0</ele><time>2026-04-15T08:02:08.841Z</time></trkpt><trkpt lat="42.67033" lon="-7.1587367"><ele>1214.75</ele><time>2026-04-15T08:02:09.84Z</time></trkpt><trkpt lat="42.6703983" lon="-7.158865"><ele>1220.5</ele><time>2026-04-15T08:02:10.84Z</time></trkpt><trkpt lat="42.6704717" lon="-7.1589733"><ele>1226.25</ele><time>2026-04-15T08:02:11.84Z</time></trkpt><trkpt lat="42.6705567" lon="-7.159085"><ele>1232.0</ele><time>2026-04-15T08:02:12.841Z</time></trkpt><trkpt lat="42.6706283" lon="-7.1592417"><ele>1232.0</ele><time>2026-04-15T08:02:13.84Z</time></trkpt><trkpt lat="42.6706917" lon="-7.1593967"><ele>1232.0</ele><time>2026-04-15T08:02:14.841Z</time></trkpt><trkpt lat="42.67076" lon="-7.159545"><ele>1232.0</ele><time>2026-04-15T08:02:15.841Z</time></trkpt><trkpt lat="42.6708433" lon="-7.1596617"><ele>1232.0</ele><time>2026-04-15T08:02:16.841Z</time></trkpt><trkpt lat="42.670925" lon="-7.1597633"><ele>1232.0</ele><time>2026-04-15T08:02:17.84Z</time></trkpt><trkpt lat="42.6710233" lon="-7.159855"><ele>1232.0</ele><time>2026-04-15T08:02:18.84Z</time></trkpt><trkpt lat="42.671125" lon="-7.1599417"><ele>1232.0</ele><time>2026-04-15T08:02:19.841Z</time></trkpt><trkpt lat="42.6712417" lon="-7.160025"><ele>1232.0</ele><time>2026-04-15T08:02:20.841Z</time></trkpt><trkpt lat="42.6713683" lon="-7.1601033"><ele>1235.0</ele><time>2026-04-15T08:02:21.84Z</time></trkpt><trkpt lat="42.6714983" lon="-7.1601983"><ele>1238.0</ele><time>2026-04-15T08:02:22.84Z</time></trkpt><trkpt lat="42.6716183" lon="-7.1603067"><ele>1241.0</ele><time>2026-04-15T08:02:23.841Z</time></trkpt><trkpt lat="42.671725" lon="-7.16045"><ele>1244.0</ele><time>2026-04-15T08:02:24.841Z</time></trkpt><trkpt lat="42.671815" lon="-7.1606017"><ele>1240.3333333333335</ele><time>2026-04-15T08:02:25.841Z</time></trkpt><trkpt lat="42.671885" lon="-7.1607717"><ele>1236.6666666666667</ele><time>2026-04-15T08:02:26.84Z</time></trkpt><trkpt lat="42.67194" lon="-7.1609633"><ele>1233.0</ele><time>2026-04-15T08:02:27.841Z</time></trkpt><trkpt lat="42.67199" lon="-7.16117"><ele>1240.0</ele><time>2026-04-15T08:02:28.84Z</time></trkpt><trkpt lat="42.6720383" lon="-7.1613833"><ele>1247.0</ele><time>2026-04-15T08:02:29.84Z</time></trkpt><trkpt lat="42.6721017" lon="-7.161575"><ele>1254.0</ele><time>2026-04-15T08:02:30.84Z</time></trkpt><trkpt lat="42.6721883" lon="-7.1617667"><ele>1254.0</ele><time>2026-04-15T08:02:31.841Z</time></trkpt><trkpt lat="42.6722983" lon="-7.1619383"><ele>1254.0</ele><time>2026-04-15T08:02:32.841Z</time></trkpt><trkpt lat="42.6724167" lon="-7.1620883"><ele>1254.0</ele><time>2026-04-15T08:02:33.841Z</time></trkpt><trkpt lat="42.67254" lon="-7.162235"><ele>1254.0</ele><time>2026-04-15T08:02:34.841Z</time></trkpt><trkpt lat="42.672665" lon="-7.1623633"><ele>1254.0</ele><time>2026-04-15T08:02:35.84Z</time></trkpt><trkpt lat="42.672795" lon="-7.1624983"><ele>1254.0</ele><time>2026-04-15T08:02:36.841Z</time></trkpt><trkpt lat="42.67293" lon="-7.16264"><ele>1258.0</ele><time>2026-04-15T08:02:37.84Z</time></trkpt><trkpt lat="42.6730633" lon="-7.162795"><ele>1262.0</ele><time>2026-04-15T08:02:38.841Z</time></trkpt><trkpt lat="42.6731867" lon="-7.1629483"><ele>1266.0</ele><time>2026-04-15T08:02:39.841Z</time></trkpt><trkpt lat="42.67331" lon="-7.1631017"><ele>1269.3333333333333</ele><time>2026-04-15T08:02:40.84Z</time></trkpt><trkpt lat="42.673425" lon="-7.16326"><ele>1272.6666666666665</ele><time>2026-04-15T08:02:41.841Z</time></trkpt><trkpt lat="42.6735383" lon="-7.163415"><ele>1276.0</ele><time>2026-04-15T08:02:42.841Z</time></trkpt><trkpt lat="42.6736383" lon="-7.16355"><ele>1276.0</ele><time>2026-04-15T08:02:43.84Z</time></trkpt><trkpt lat="42.6737383" lon="-7.1636483"><ele>1276.0</ele><time>2026-04-15T08:02:44.84Z</time></trkpt><trkpt lat="42.6738483" lon="-7.1637283"><ele>1276.0</ele><time>2026-04-15T08:02:45.841Z</time></trkpt><trkpt lat="42.6739683" lon="-7.1638067"><ele>1276.0</ele><time>2026-04-15T08:02:46.84Z</time></trkpt><trkpt lat="42.6740867" lon="-7.1638983"><ele>1276.0</ele><time>2026-04-15T08:02:47.84Z</time></trkpt><trkpt lat="42.674215" lon="-7.1640017"><ele>1276.0</ele><time>2026-04-15T08:02:48.841Z</time></trkpt><trkpt lat="42.6743317" lon="-7.1641317"><ele>1276.0</ele><time>2026-04-15T08:02:49.841Z</time></trkpt><trkpt lat="42.6744383" lon="-7.164285"><ele>1280.3333333333333</ele><time>2026-04-15T08:02:50.841Z</time></trkpt><trkpt lat="42.6745467" lon="-7.1644567"><ele>1284.6666666666667</ele><time>2026-04-15T08:02:51.84Z</time></trkpt><trkpt lat="42.6746617" lon="-7.1646367"><ele>1289.0</ele><time>2026-04-15T08:02:52.841Z</time></trkpt><trkpt lat="42.6747817" lon="-7.1648067"><ele>1286.3333333333335</ele><time>2026-04-15T08:02:53.841Z</time></trkpt><trkpt lat="42.6749067" lon="-7.1649667"><ele>1283.6666666666667</ele><time>2026-04-15T08:02:54.841Z</time></trkpt><trkpt lat="42.67503" lon="-7.16512"><ele>1281.0</ele><time>2026-04-15T08:02:55.84Z</time></trkpt><trkpt lat="42.6751533" lon="-7.165275"><ele>1286.6666666666667</ele><time>2026-04-15T08:02:56.84Z</time></trkpt><trkpt lat="42.675275" lon="-7.1654283"><ele>1292.3333333333335</ele><time>2026-04-15T08:02:57.841Z</time></trkpt><trkpt lat="42.6754017" lon="-7.1655867"><ele>1298.0</ele><time>2026-04-15T08:02:58.841Z</time></trkpt><trkpt lat="42.6755" lon="-7.1657267"><ele>1298.0</ele><time>2026-04-15T08:02:59.841Z</time></trkpt><trkpt lat="42.6755833" lon="-7.1658833"><ele>1298.0</ele><time>2026-04-15T08:03:00.841Z</time></trkpt><trkpt lat="42.6756583" lon="-7.1660467"><ele>1298.0</ele><time>2026-04-15T08:03:01.84Z</time></trkpt><trkpt lat="42.67574" lon="-7.1662083"><ele>1298.0</ele><time>2026-04-15T08:03:02.841Z</time></trkpt><trkpt lat="42.6758333" lon="-7.16637"><ele>1294.3333333333335</ele><time>2026-04-15T08:03:03.841Z</time></trkpt><trkpt lat="42.6759333" lon="-7.1665317"><ele>1290.6666666666667</ele><time>2026-04-15T08:03:04.84Z</time></trkpt><trkpt lat="42.6760317" lon="-7.1666883"><ele>1287.0</ele><time>2026-04-15T08:03:05.841Z</time></trkpt><trkpt lat="42.6761417" lon="-7.16686"><ele>1292.0</ele><time>2026-04-15T08:03:06.84Z</time></trkpt><trkpt lat="42.676255" lon="-7.1670367"><ele>1297.0</ele><time>2026-04-15T08:03:07.841Z</time></trkpt><trkpt lat="42.6763617" lon="-7.1672283"><ele>1302.0</ele><time>2026-04-15T08:03:08.84Z</time></trkpt><trkpt lat="42.6764567" lon="-7.1674217"><ele>1302.0</ele><time>2026-04-15T08:03:09.841Z</time></trkpt><trkpt lat="42.67653" lon="-7.1676133"><ele>1302.0</ele><time>2026-04-15T08:03:10.841Z</time></trkpt><trkpt lat="42.6765983" lon="-7.16781"><ele>1302.0</ele><time>2026-04-15T08:03:11.84Z</time></trkpt><trkpt lat="42.6766517" lon="-7.168"><ele>1302.0</ele><time>2026-04-15T08:03:12.841Z</time></trkpt><trkpt lat="42.6767067" lon="-7.1681833"><ele>1302.0</ele><time>2026-04-15T08:03:13.841Z</time></trkpt><trkpt lat="42.67677" lon="-7.16835"><ele>1302.0</ele><time>2026-04-15T08:03:14.84Z</time></trkpt><trkpt lat="42.67684" lon="-7.1685083"><ele>1302.0</ele><time>2026-04-15T08:03:15.84Z</time></trkpt><trkpt lat="42.6769267" lon="-7.1686517"><ele>1304.25</ele><time>2026-04-15T08:03:16.841Z</time></trkpt><trkpt lat="42.677025" lon="-7.1687883"><ele>1306.5</ele><time>2026-04-15T08:03:17.841Z</time></trkpt><trkpt lat="42.67714" lon="-7.1689233"><ele>1308.75</ele><time>2026-04-15T08:03:18.841Z</time></trkpt><trkpt lat="42.67725" lon="-7.169075"><ele>1311.0</ele><time>2026-04-15T08:03:19.841Z</time></trkpt><trkpt lat="42.6773483" lon="-7.1692517"><ele>1311.0</ele><time>2026-04-15T08:03:20.84Z</time></trkpt><trkpt lat="42.6774483" lon="-7.1694417"><ele>1311.0</ele><time>2026-04-15T08:03:21.84Z</time></trkpt><trkpt lat="42.6775483" lon="-7.1696517"><ele>1311.0</ele><time>2026-04-15T08:03:22.84Z</time></trkpt><trkpt lat="42.67765" lon="-7.169855"><ele>1307.3333333333333</ele><time>2026-04-15T08:03:23.841Z</time></trkpt><trkpt lat="42.67775" lon="-7.1700333"><ele>1303.6666666666665</ele><time>2026-04-15T08:03:24.841Z</time></trkpt><trkpt lat="42.677855" lon="-7.1702233"><ele>1300.0</ele><time>2026-04-15T08:03:25.841Z</time></trkpt><trkpt lat="42.6779633" lon="-7.1704133"><ele>1307.6666666666665</ele><time>2026-04-15T08:03:26.84Z</time></trkpt><trkpt lat="42.67807" lon="-7.1706033"><ele>1315.3333333333333</ele><time>2026-04-15T08:03:27.84Z</time></trkpt><trkpt lat="42.67817" lon="-7.1707967"><ele>1323.0</ele><time>2026-04-15T08:03:28.841Z</time></trkpt><trkpt lat="42.6782583" lon="-7.1710017"><ele>1323.0</ele><time>2026-04-15T08:03:29.84Z</time></trkpt><trkpt lat="42.6783233" lon="-7.17122"><ele>1323.0</ele><time>2026-04-15T08:03:30.84Z</time></trkpt><trkpt lat="42.6783717" lon="-7.171455"><ele>1323.0</ele><time>2026-04-15T08:03:31.841Z</time></trkpt><trkpt lat="42.6784117" lon="-7.171685"><ele>1322.3333333333333</ele><time>2026-04-15T08:03:32.841Z</time></trkpt><trkpt lat="42.6784283" lon="-7.1719167"><ele>1321.6666666666665</ele><time>2026-04-15T08:03:33.84Z</time></trkpt><trkpt lat="42.6784383" lon="-7.17213"><ele>1321.0</ele><time>2026-04-15T08:03:34.841Z</time></trkpt><trkpt lat="42.6784333" lon="-7.1723267"><ele>1321.6</ele><time>2026-04-15T08:03:35.841Z</time></trkpt><trkpt lat="42.678435" lon="-7.1724983"><ele>1322.1999999999998</ele><time>2026-04-15T08:03:36.84Z</time></trkpt><trkpt lat="42.6784333" lon="-7.1726517"><ele>1322.8000000000002</ele><time>2026-04-15T08:03:37.841Z</time></trkpt><trkpt lat="42.67844" lon="-7.17278"><ele>1323.4</ele><time>2026-04-15T08:03:38.841Z</time></trkpt><trkpt lat="42.6784633" lon="-7.1728983"><ele>1324.0</ele><time>2026-04-15T08:03:39.841Z</time></trkpt><trkpt lat="42.6784883" lon="-7.173015"><ele>1324.0</ele><time>2026-04-15T08:03:40.84Z</time></trkpt><trkpt lat="42.67852" lon="-7.1731333"><ele>1324.0</ele><time>2026-04-15T08:03:41.84Z</time></trkpt><trkpt lat="42.6785567" lon="-7.1732483"><ele>1324.0</ele><time>2026-04-15T08:03:42.84Z</time></trkpt><trkpt lat="42.6786033" lon="-7.1733617"><ele>1324.0</ele><time>2026-04-15T08:03:43.841Z</time></trkpt><trkpt lat="42.6786517" lon="-7.1734633"><ele>1324.0</ele><time>2026-04-15T08:03:44.84Z</time></trkpt><trkpt lat="42.67871" lon="-7.173565"><ele>1327.5</ele><time>2026-04-15T08:03:45.84Z</time></trkpt><trkpt lat="42.6787783" lon="-7.1736783"><ele>1331.0</ele><time>2026-04-15T08:03:46.841Z</time></trkpt><trkpt lat="42.6788517" lon="-7.1737933"><ele>1334.5</ele><time>2026-04-15T08:03:47.84Z</time></trkpt><trkpt lat="42.678935" lon="-7.173915"><ele>1338.0</ele><time>2026-04-15T08:03:48.841Z</time></trkpt><trkpt lat="42.6790283" lon="-7.17404"><ele>1338.0</ele><time>2026-04-15T08:03:49.84Z</time></trkpt><trkpt lat="42.6791183" lon="-7.1741567"><ele>1338.0</ele><time>2026-04-15T08:03:50.84Z</time></trkpt><trkpt lat="42.6792083" lon="-7.1742617"><ele>1338.0</ele><time>2026-04-15T08:03:51.841Z</time></trkpt><trkpt lat="42.6793117" lon="-7.174385"><ele>1338.0</ele><time>2026-04-15T08:03:52.841Z</time></trkpt><trkpt lat="42.67942" lon="-7.17452"><ele>1341.5</ele><time>2026-04-15T08:03:53.841Z</time></trkpt><trkpt lat="42.679535" lon="-7.1746367"><ele>1345.0</ele><time>2026-04-15T08:03:54.841Z</time></trkpt><trkpt lat="42.67965" lon="-7.1747433"><ele>1348.5</ele><time>2026-04-15T08:03:55.841Z</time></trkpt><trkpt lat="42.67976" lon="-7.1748367"><ele>1352.0</ele><time>2026-04-15T08:03:56.84Z</time></trkpt><trkpt lat="42.67986" lon="-7.1749333"><ele>1352.0</ele><time>2026-04-15T08:03:57.84Z</time></trkpt><trkpt lat="42.67996" lon="-7.1750433"><ele>1352.0</ele><time>2026-04-15T08:03:58.84Z</time></trkpt><trkpt lat="42.6800567" lon="-7.1751617"><ele>1352.0</ele><time>2026-04-15T08:03:59.841Z</time></trkpt><trkpt lat="42.6801367" lon="-7.1753067"><ele>1352.0</ele><time>2026-04-15T08:04:00.84Z</time></trkpt><trkpt lat="42.6802167" lon="-7.1754683"><ele>1355.75</ele><time>2026-04-15T08:04:01.841Z</time></trkpt><trkpt lat="42.6803" lon="-7.1756283"><ele>1359.5</ele><time>2026-04-15T08:04:02.84Z</time></trkpt><trkpt lat="42.6803783" lon="-7.1757683"><ele>1363.25</ele><time>2026-04-15T08:04:03.84Z</time></trkpt><trkpt lat="42.6804433" lon="-7.175895"><ele>1367.0</ele><time>2026-04-15T08:04:04.841Z</time></trkpt><trkpt lat="42.6805117" lon="-7.1760133"><ele>1367.0</ele><time>2026-04-15T08:04:05.841Z</time></trkpt><trkpt lat="42.6805883" lon="-7.1761167"><ele>1367.0</ele><time>2026-04-15T08:04:06.841Z</time></trkpt><trkpt lat="42.6806583" lon="-7.176205"><ele>1367.0</ele><time>2026-04-15T08:04:07.841Z</time></trkpt><trkpt lat="42.6807067" lon="-7.1762667"><ele>1367.0</ele><time>2026-04-15T08:04:08.84Z</time></trkpt><trkpt lat="42.680735" lon="-7.1763517"><ele>1367.0</ele><time>2026-04-15T08:04:10.841Z</time></trkpt><trkpt lat="42.680775" lon="-7.1765183"><ele>1365.3999999999999</ele><time>2026-04-15T08:04:12.841Z</time></trkpt><trkpt lat="42.6808067" lon="-7.1766467"><ele>1363.8</ele><time>2026-04-15T08:04:13.841Z</time></trkpt><trkpt lat="42.6808283" lon="-7.176795"><ele>1362.2</ele><time>2026-04-15T08:04:14.84Z</time></trkpt><trkpt lat="42.6808433" lon="-7.1769367"><ele>1360.6</ele><time>2026-04-15T08:04:15.841Z</time></trkpt><trkpt lat="42.6808817" lon="-7.177085"><ele>1359.0</ele><time>2026-04-15T08:04:16.84Z</time></trkpt><trkpt lat="42.6809" lon="-7.1772233"><ele>1357.4</ele><time>2026-04-15T08:04:17.841Z</time></trkpt><trkpt lat="42.6809217" lon="-7.1773617"><ele>1355.8000000000002</ele><time>2026-04-15T08:04:18.84Z</time></trkpt><trkpt lat="42.6809483" lon="-7.177505"><ele>1354.1999999999998</ele><time>2026-04-15T08:04:19.84Z</time></trkpt><trkpt lat="42.6809767" lon="-7.1776517"><ele>1352.6</ele><time>2026-04-15T08:04:20.84Z</time></trkpt><trkpt lat="42.68101" lon="-7.177785"><ele>1351.0</ele><time>2026-04-15T08:04:21.84Z</time></trkpt><trkpt lat="42.681045" lon="-7.1779167"><ele>1351.0</ele><time>2026-04-15T08:04:22.841Z</time></trkpt><trkpt lat="42.6810767" lon="-7.1780317"><ele>1351.0</ele><time>2026-04-15T08:04:23.841Z</time></trkpt><trkpt lat="42.6811033" lon="-7.17813"><ele>1351.0</ele><time>2026-04-15T08:04:24.84Z</time></trkpt><trkpt lat="42.6811267" lon="-7.1782383"><ele>1351.0</ele><time>2026-04-15T08:04:25.841Z</time></trkpt><trkpt lat="42.68116" lon="-7.1783517"><ele>1351.0</ele><time>2026-04-15T08:04:26.84Z</time></trkpt><trkpt lat="42.6812033" lon="-7.1784783"><ele>1351.0</ele><time>2026-04-15T08:04:27.84Z</time></trkpt><trkpt lat="42.681255" lon="-7.17863"><ele>1351.75</ele><time>2026-04-15T08:04:28.841Z</time></trkpt><trkpt lat="42.681305" lon="-7.178795"><ele>1352.5</ele><time>2026-04-15T08:04:29.84Z</time></trkpt><trkpt lat="42.6813633" lon="-7.1789533"><ele>1353.25</ele><time>2026-04-15T08:04:30.84Z</time></trkpt><trkpt lat="42.6814183" lon="-7.17912"><ele>1354.0</ele><time>2026-04-15T08:04:31.841Z</time></trkpt><trkpt lat="42.6814733" lon="-7.17928"><ele>1351.75</ele><time>2026-04-15T08:04:32.84Z</time></trkpt><trkpt lat="42.6815283" lon="-7.1794383"><ele>1349.5</ele><time>2026-04-15T08:04:33.84Z</time></trkpt><trkpt lat="42.681575" lon="-7.1795867"><ele>1347.25</ele><time>2026-04-15T08:04:34.84Z</time></trkpt><trkpt lat="42.6816167" lon="-7.179715"><ele>1345.0</ele><time>2026-04-15T08:04:35.84Z</time></trkpt><trkpt lat="42.6816517" lon="-7.179845"><ele>1342.4</ele><time>2026-04-15T08:04:36.841Z</time></trkpt><trkpt lat="42.6816817" lon="-7.17998"><ele>1339.8</ele><time>2026-04-15T08:04:37.84Z</time></trkpt><trkpt lat="42.6816967" lon="-7.1801117"><ele>1337.1999999999998</ele><time>2026-04-15T08:04:38.841Z</time></trkpt><trkpt lat="42.6816967" lon="-7.1802583"><ele>1334.6</ele><time>2026-04-15T08:04:39.841Z</time></trkpt><trkpt lat="42.6816867" lon="-7.180415"><ele>1332.0</ele><time>2026-04-15T08:04:40.841Z</time></trkpt><trkpt lat="42.6816667" lon="-7.1805717"><ele>1330.8</ele><time>2026-04-15T08:04:41.84Z</time></trkpt><trkpt lat="42.6816383" lon="-7.180715"><ele>1329.6</ele><time>2026-04-15T08:04:42.841Z</time></trkpt><trkpt lat="42.6816067" lon="-7.1808483"><ele>1328.3999999999999</ele><time>2026-04-15T08:04:43.84Z</time></trkpt><trkpt lat="42.6815783" lon="-7.1809983"><ele>1327.1999999999998</ele><time>2026-04-15T08:04:44.841Z</time></trkpt><trkpt lat="42.68156" lon="-7.18116"><ele>1326.0</ele><time>2026-04-15T08:04:45.841Z</time></trkpt><trkpt lat="42.68155" lon="-7.1813233"><ele>1326.0</ele><time>2026-04-15T08:04:46.841Z</time></trkpt><trkpt lat="42.6815483" lon="-7.181485"><ele>1326.0</ele><time>2026-04-15T08:04:47.84Z</time></trkpt><trkpt lat="42.6815417" lon="-7.18164"><ele>1326.0</ele><time>2026-04-15T08:04:48.841Z</time></trkpt><trkpt lat="42.6815267" lon="-7.181795"><ele>1326.0</ele><time>2026-04-15T08:04:49.841Z</time></trkpt><trkpt lat="42.6815083" lon="-7.1819717"><ele>1324.5</ele><time>2026-04-15T08:04:50.84Z</time></trkpt><trkpt lat="42.681495" lon="-7.1821617"><ele>1323.0</ele><time>2026-04-15T08:04:51.84Z</time></trkpt><trkpt lat="42.6814733" lon="-7.1823533"><ele>1321.5</ele><time>2026-04-15T08:04:52.841Z</time></trkpt><trkpt lat="42.6814483" lon="-7.18254"><ele>1320.0</ele><time>2026-04-15T08:04:53.84Z</time></trkpt><trkpt lat="42.6814183" lon="-7.182705"><ele>1318.25</ele><time>2026-04-15T08:04:54.841Z</time></trkpt><trkpt lat="42.6813933" lon="-7.1828533"><ele>1316.5</ele><time>2026-04-15T08:04:55.84Z</time></trkpt><trkpt lat="42.6813683" lon="-7.183"><ele>1314.75</ele><time>2026-04-15T08:04:56.84Z</time></trkpt><trkpt lat="42.6813383" lon="-7.1831567"><ele>1313.0</ele><time>2026-04-15T08:04:57.84Z</time></trkpt><trkpt lat="42.6813083" lon="-7.1833133"><ele>1311.25</ele><time>2026-04-15T08:04:58.841Z</time></trkpt><trkpt lat="42.6812767" lon="-7.1834733"><ele>1309.5</ele><time>2026-04-15T08:04:59.84Z</time></trkpt><trkpt lat="42.6812367" lon="-7.1836267"><ele>1307.75</ele><time>2026-04-15T08:05:00.84Z</time></trkpt><trkpt lat="42.68119" lon="-7.1837767"><ele>1306.0</ele><time>2026-04-15T08:05:01.84Z</time></trkpt><trkpt lat="42.681145" lon="-7.1839333"><ele>1304.0</ele><time>2026-04-15T08:05:02.841Z</time></trkpt><trkpt lat="42.6811" lon="-7.1840933"><ele>1302.0</ele><time>2026-04-15T08:05:03.841Z</time></trkpt><trkpt lat="42.6810367" lon="-7.1842483"><ele>1300.0</ele><time>2026-04-15T08:05:04.84Z</time></trkpt><trkpt lat="42.68095" lon="-7.184385"><ele>1298.0</ele><time>2026-04-15T08:05:05.841Z</time></trkpt><trkpt lat="42.68084" lon="-7.1845233"><ele>1294.25</ele><time>2026-04-15T08:05:06.841Z</time></trkpt><trkpt lat="42.6807167" lon="-7.1846633"><ele>1290.5</ele><time>2026-04-15T08:05:07.841Z</time></trkpt><trkpt lat="42.6805967" lon="-7.1848017"><ele>1286.75</ele><time>2026-04-15T08:05:08.841Z</time></trkpt><trkpt lat="42.6805017" lon="-7.1849133"><ele>1283.0</ele><time>2026-04-15T08:05:09.84Z</time></trkpt><trkpt lat="42.68044" lon="-7.185"><ele>1282.8333333333335</ele><time>2026-04-15T08:05:10.841Z</time></trkpt><trkpt lat="42.6804083" lon="-7.185085"><ele>1282.6666666666667</ele><time>2026-04-15T08:05:11.84Z</time></trkpt><trkpt lat="42.680415" lon="-7.1851883"><ele>1282.5</ele><time>2026-04-15T08:05:12.84Z</time></trkpt><trkpt lat="42.6804333" lon="-7.1853"><ele>1282.3333333333333</ele><time>2026-04-15T08:05:13.84Z</time></trkpt><trkpt lat="42.680445" lon="-7.185405"><ele>1282.1666666666665</ele><time>2026-04-15T08:05:14.841Z</time></trkpt><trkpt lat="42.68044" lon="-7.1855117"><ele>1282.0</ele><time>2026-04-15T08:05:15.84Z</time></trkpt><trkpt lat="42.6804217" lon="-7.1856017"><ele>1282.0</ele><time>2026-04-15T08:05:16.84Z</time></trkpt><trkpt lat="42.68038" lon="-7.1856667"><ele>1282.0</ele><time>2026-04-15T08:05:17.84Z</time></trkpt><trkpt lat="42.6803017" lon="-7.185725"><ele>1282.0</ele><time>2026-04-15T08:05:18.84Z</time></trkpt><trkpt lat="42.6802117" lon="-7.18581"><ele>1282.0</ele><time>2026-04-15T08:05:19.84Z</time></trkpt><trkpt lat="42.6801283" lon="-7.1859467"><ele>1282.0</ele><time>2026-04-15T08:05:20.84Z</time></trkpt><trkpt lat="42.6800567" lon="-7.1861233"><ele>1279.6666666666665</ele><time>2026-04-15T08:05:21.84Z</time></trkpt><trkpt lat="42.6799883" lon="-7.186315"><ele>1277.3333333333333</ele><time>2026-04-15T08:05:22.841Z</time></trkpt><trkpt lat="42.6799317" lon="-7.1865167"><ele>1275.0</ele><time>2026-04-15T08:05:23.84Z</time></trkpt><trkpt lat="42.6799" lon="-7.1867117"><ele>1274.0</ele><time>2026-04-15T08:05:24.841Z</time></trkpt><trkpt lat="42.6798683" lon="-7.1868833"><ele>1273.0</ele><time>2026-04-15T08:05:25.841Z</time></trkpt><trkpt lat="42.6798217" lon="-7.1870417"><ele>1272.0</ele><time>2026-04-15T08:05:26.841Z</time></trkpt><trkpt lat="42.6797417" lon="-7.1871867"><ele>1271.0</ele><time>2026-04-15T08:05:27.841Z</time></trkpt><trkpt lat="42.6796433" lon="-7.1873133"><ele>1269.5</ele><time>2026-04-15T08:05:28.84Z</time></trkpt><trkpt lat="42.6795433" lon="-7.1874517"><ele>1268.0</ele><time>2026-04-15T08:05:29.84Z</time></trkpt><trkpt lat="42.679445" lon="-7.1875983"><ele>1266.5</ele><time>2026-04-15T08:05:30.841Z</time></trkpt><trkpt lat="42.67934" lon="-7.18775"><ele>1265.0</ele><time>2026-04-15T08:05:31.841Z</time></trkpt><trkpt lat="42.67924" lon="-7.1878833"><ele>1269.75</ele><time>2026-04-15T08:05:32.841Z</time></trkpt><trkpt lat="42.6791267" lon="-7.1879817"><ele>1274.5</ele><time>2026-04-15T08:05:33.842Z</time></trkpt><trkpt lat="42.6789983" lon="-7.18805"><ele>1279.25</ele><time>2026-04-15T08:05:34.842Z</time></trkpt><trkpt lat="42.6788717" lon="-7.1880983"><ele>1284.0</ele><time>2026-04-15T08:05:35.842Z</time></trkpt><trkpt lat="42.67878" lon="-7.1881367"><ele>1284.0</ele><time>2026-04-15T08:05:36.842Z</time></trkpt><trkpt lat="42.6787067" lon="-7.18815"><ele>1284.0</ele><time>2026-04-15T08:05:37.841Z</time></trkpt><trkpt lat="42.6786533" lon="-7.1881"><ele>1284.0</ele><time>2026-04-15T08:05:39.841Z</time></trkpt><trkpt lat="42.6786583" lon="-7.18796"><ele>1284.0</ele><time>2026-04-15T08:05:41.841Z</time></trkpt><trkpt lat="42.67867" lon="-7.1878517"><ele>1284.0</ele><time>2026-04-15T08:05:42.842Z</time></trkpt><trkpt lat="42.678665" lon="-7.1877433"><ele>1284.0</ele><time>2026-04-15T08:05:43.842Z</time></trkpt><trkpt lat="42.678625" lon="-7.1876383"><ele>1287.8000000000002</ele><time>2026-04-15T08:05:44.841Z</time></trkpt><trkpt lat="42.6785617" lon="-7.1875633"><ele>1291.6000000000001</ele><time>2026-04-15T08:05:45.842Z</time></trkpt><trkpt lat="42.6784917" lon="-7.1875367"><ele>1295.4</ele><time>2026-04-15T08:05:46.842Z</time></trkpt><trkpt lat="42.6784133" lon="-7.1875567"><ele>1299.2</ele><time>2026-04-15T08:05:47.841Z</time></trkpt><trkpt lat="42.67832" lon="-7.1876217"><ele>1303.0</ele><time>2026-04-15T08:05:48.842Z</time></trkpt><trkpt lat="42.67822" lon="-7.1877233"><ele>1303.0</ele><time>2026-04-15T08:05:49.842Z</time></trkpt><trkpt lat="42.6780933" lon="-7.1878483"><ele>1303.0</ele><time>2026-04-15T08:05:50.842Z</time></trkpt><trkpt lat="42.6779467" lon="-7.18797"><ele>1303.0</ele><time>2026-04-15T08:05:51.842Z</time></trkpt><trkpt lat="42.6777883" lon="-7.18807"><ele>1306.3333333333333</ele><time>2026-04-15T08:05:52.842Z</time></trkpt><trkpt lat="42.677635" lon="-7.1881767"><ele>1309.6666666666667</ele><time>2026-04-15T08:05:53.842Z</time></trkpt><trkpt lat="42.6775033" lon="-7.1882967"><ele>1313.0</ele><time>2026-04-15T08:05:54.841Z</time></trkpt><trkpt lat="42.67739" lon="-7.1884217"><ele>1313.0</ele><time>2026-04-15T08:05:55.842Z</time></trkpt><trkpt lat="42.6772783" lon="-7.18856"><ele>1313.0</ele><time>2026-04-15T08:05:56.841Z</time></trkpt><trkpt lat="42.677165" lon="-7.1887217"><ele>1313.0</ele><time>2026-04-15T08:05:57.841Z</time></trkpt><trkpt lat="42.677065" lon="-7.188905"><ele>1312.75</ele><time>2026-04-15T08:05:58.842Z</time></trkpt><trkpt lat="42.6769783" lon="-7.1890867"><ele>1312.5</ele><time>2026-04-15T08:05:59.841Z</time></trkpt><trkpt lat="42.676905" lon="-7.18925"><ele>1312.25</ele><time>2026-04-15T08:06:00.841Z</time></trkpt><trkpt lat="42.676865" lon="-7.1893883"><ele>1312.0</ele><time>2026-04-15T08:06:01.841Z</time></trkpt><trkpt lat="42.6768617" lon="-7.1895133"><ele>1314.0</ele><time>2026-04-15T08:06:02.841Z</time></trkpt><trkpt lat="42.6768683" lon="-7.1896317"><ele>1316.0</ele><time>2026-04-15T08:06:03.841Z</time></trkpt><trkpt lat="42.6768733" lon="-7.1897583"><ele>1318.0</ele><time>2026-04-15T08:06:04.841Z</time></trkpt><trkpt lat="42.676865" lon="-7.1899067"><ele>1320.0</ele><time>2026-04-15T08:06:05.842Z</time></trkpt><trkpt lat="42.6768617" lon="-7.1900617"><ele>1322.0</ele><time>2026-04-15T08:06:06.841Z</time></trkpt><trkpt lat="42.6768733" lon="-7.19021"><ele>1321.75</ele><time>2026-04-15T08:06:07.842Z</time></trkpt><trkpt lat="42.6769117" lon="-7.1903633"><ele>1321.5</ele><time>2026-04-15T08:06:08.841Z</time></trkpt><trkpt lat="42.67697" lon="-7.1905183"><ele>1321.25</ele><time>2026-04-15T08:06:09.842Z</time></trkpt><trkpt lat="42.6770467" lon="-7.1906733"><ele>1321.0</ele><time>2026-04-15T08:06:10.842Z</time></trkpt><trkpt lat="42.67714" lon="-7.1908317"><ele>1324.5</ele><time>2026-04-15T08:06:11.841Z</time></trkpt><trkpt lat="42.6772367" lon="-7.1909733"><ele>1328.0</ele><time>2026-04-15T08:06:12.842Z</time></trkpt><trkpt lat="42.67733" lon="-7.1910917"><ele>1331.5</ele><time>2026-04-15T08:06:13.841Z</time></trkpt><trkpt lat="42.6774067" lon="-7.19123"><ele>1335.0</ele><time>2026-04-15T08:06:14.841Z</time></trkpt><trkpt lat="42.6774817" lon="-7.191385"><ele>1334.0</ele><time>2026-04-15T08:06:15.842Z</time></trkpt><trkpt lat="42.677565" lon="-7.1915283"><ele>1333.0</ele><time>2026-04-15T08:06:16.842Z</time></trkpt><trkpt lat="42.6776433" lon="-7.1916433"><ele>1332.0</ele><time>2026-04-15T08:06:17.841Z</time></trkpt><trkpt lat="42.6777317" lon="-7.191745"><ele>1331.0</ele><time>2026-04-15T08:06:18.842Z</time></trkpt><trkpt lat="42.677795" lon="-7.1918417"><ele>1331.0</ele><time>2026-04-15T08:06:19.842Z</time></trkpt><trkpt lat="42.67782" lon="-7.191925"><ele>1331.0</ele><time>2026-04-15T08:06:20.842Z</time></trkpt><trkpt lat="42.67781" lon="-7.1920133"><ele>1331.0</ele><time>2026-04-15T08:06:21.841Z</time></trkpt><trkpt lat="42.6777883" lon="-7.1921083"><ele>1331.0</ele><time>2026-04-15T08:06:22.842Z</time></trkpt><trkpt lat="42.6777333" lon="-7.1922167"><ele>1331.0</ele><time>2026-04-15T08:06:23.842Z</time></trkpt><trkpt lat="42.6776533" lon="-7.1923317"><ele>1331.0</ele><time>2026-04-15T08:06:24.841Z</time></trkpt><trkpt lat="42.677555" lon="-7.1924667"><ele>1341.0</ele><time>2026-04-15T08:06:25.841Z</time></trkpt><trkpt lat="42.6774517" lon="-7.1926"><ele>1351.0</ele><time>2026-04-15T08:06:26.841Z</time></trkpt><trkpt lat="42.6773333" lon="-7.1927267"><ele>1361.0</ele><time>2026-04-15T08:06:27.842Z</time></trkpt><trkpt lat="42.6771967" lon="-7.1928567"><ele>1361.0</ele><time>2026-04-15T08:06:28.841Z</time></trkpt><trkpt lat="42.6770567" lon="-7.192995"><ele>1361.0</ele><time>2026-04-15T08:06:29.842Z</time></trkpt><trkpt lat="42.6769267" lon="-7.1931367"><ele>1361.0</ele><time>2026-04-15T08:06:30.842Z</time></trkpt><trkpt lat="42.6767933" lon="-7.1932667"><ele>1363.6</ele><time>2026-04-15T08:06:31.842Z</time></trkpt><trkpt lat="42.6766967" lon="-7.1933683"><ele>1366.1999999999998</ele><time>2026-04-15T08:06:32.842Z</time></trkpt><trkpt lat="42.6766183" lon="-7.1934533"><ele>1368.8000000000002</ele><time>2026-04-15T08:06:33.842Z</time></trkpt><trkpt lat="42.6765433" lon="-7.193535"><ele>1371.4</ele><time>2026-04-15T08:06:34.841Z</time></trkpt><trkpt lat="42.67648" lon="-7.1936133"><ele>1374.0</ele><time>2026-04-15T08:06:35.842Z</time></trkpt><trkpt lat="42.67644" lon="-7.1936933"><ele>1374.0</ele><time>2026-04-15T08:06:36.842Z</time></trkpt><trkpt lat="42.6764383" lon="-7.1938583"><ele>1374.0</ele><time>2026-04-15T08:06:38.842Z</time></trkpt><trkpt lat="42.6764467" lon="-7.19395"><ele>1374.0</ele><time>2026-04-15T08:06:39.841Z</time></trkpt><trkpt lat="42.6764433" lon="-7.1940433"><ele>1374.0</ele><time>2026-04-15T08:06:40.841Z</time></trkpt><trkpt lat="42.6764317" lon="-7.1941467"><ele>1374.0</ele><time>2026-04-15T08:06:41.842Z</time></trkpt><trkpt lat="42.6764117" lon="-7.194265"><ele>1374.0</ele><time>2026-04-15T08:06:42.841Z</time></trkpt><trkpt lat="42.676375" lon="-7.1943867"><ele>1372.6</ele><time>2026-04-15T08:06:43.841Z</time></trkpt><trkpt lat="42.676345" lon="-7.1945067"><ele>1371.2</ele><time>2026-04-15T08:06:44.841Z</time></trkpt><trkpt lat="42.6763283" lon="-7.1946367"><ele>1369.8</ele><time>2026-04-15T08:06:45.841Z</time></trkpt><trkpt lat="42.6763333" lon="-7.1947683"><ele>1368.3999999999999</ele><time>2026-04-15T08:06:46.841Z</time></trkpt><trkpt lat="42.6763483" lon="-7.1949067"><ele>1367.0</ele><time>2026-04-15T08:06:47.842Z</time></trkpt><trkpt lat="42.6763633" lon="-7.1950417"><ele>1366.8333333333335</ele><time>2026-04-15T08:06:48.841Z</time></trkpt><trkpt lat="42.6763933" lon="-7.195175"><ele>1366.6666666666667</ele><time>2026-04-15T08:06:49.841Z</time></trkpt><trkpt lat="42.6764283" lon="-7.195285"><ele>1366.5</ele><time>2026-04-15T08:06:50.842Z</time></trkpt><trkpt lat="42.6764733" lon="-7.1953717"><ele>1366.3333333333333</ele><time>2026-04-15T08:06:51.842Z</time></trkpt><trkpt lat="42.67652" lon="-7.1954617"><ele>1366.1666666666665</ele><time>2026-04-15T08:06:52.841Z</time></trkpt><trkpt lat="42.67657" lon="-7.1955567"><ele>1366.0</ele><time>2026-04-15T08:06:53.842Z</time></trkpt><trkpt lat="42.6766433" lon="-7.19565"><ele>1367.4</ele><time>2026-04-15T08:06:54.841Z</time></trkpt><trkpt lat="42.676715" lon="-7.195735"><ele>1368.8</ele><time>2026-04-15T08:06:55.842Z</time></trkpt><trkpt lat="42.6767967" lon="-7.195805"><ele>1370.2</ele><time>2026-04-15T08:06:56.842Z</time></trkpt><trkpt lat="42.6768967" lon="-7.1958733"><ele>1371.6000000000001</ele><time>2026-04-15T08:06:57.842Z</time></trkpt><trkpt lat="42.6770067" lon="-7.195935"><ele>1373.0</ele><time>2026-04-15T08:06:58.841Z</time></trkpt><trkpt lat="42.67712" lon="-7.1959867"><ele>1364.5</ele><time>2026-04-15T08:06:59.842Z</time></trkpt><trkpt lat="42.6772317" lon="-7.1960383"><ele>1356.0</ele><time>2026-04-15T08:07:00.841Z</time></trkpt><trkpt lat="42.6773367" lon="-7.1960967"><ele>1347.5</ele><time>2026-04-15T08:07:01.841Z</time></trkpt><trkpt lat="42.6774417" lon="-7.1961567"><ele>1339.0</ele><time>2026-04-15T08:07:02.841Z</time></trkpt><trkpt lat="42.6775517" lon="-7.19621"><ele>1339.0</ele><time>2026-04-15T08:07:03.841Z</time></trkpt><trkpt lat="42.6776583" lon="-7.1962483"><ele>1339.0</ele><time>2026-04-15T08:07:04.842Z</time></trkpt><trkpt lat="42.67777" lon="-7.1962767"><ele>1339.0</ele><time>2026-04-15T08:07:05.842Z</time></trkpt><trkpt lat="42.6778733" lon="-7.1962967"><ele>1339.0</ele><time>2026-04-15T08:07:06.841Z</time></trkpt><trkpt lat="42.677985" lon="-7.1963067"><ele>1339.0</ele><time>2026-04-15T08:07:07.841Z</time></trkpt><trkpt lat="42.6780967" lon="-7.1963233"><ele>1334.8333333333333</ele><time>2026-04-15T08:07:08.841Z</time></trkpt><trkpt lat="42.678205" lon="-7.1963367"><ele>1330.6666666666665</ele><time>2026-04-15T08:07:09.841Z</time></trkpt><trkpt lat="42.6783017" lon="-7.196345"><ele>1326.5</ele><time>2026-04-15T08:07:10.842Z</time></trkpt><trkpt lat="42.6783883" lon="-7.1963517"><ele>1322.3333333333333</ele><time>2026-04-15T08:07:11.842Z</time></trkpt><trkpt lat="42.6784533" lon="-7.196365"><ele>1318.1666666666667</ele><time>2026-04-15T08:07:12.841Z</time></trkpt><trkpt lat="42.678515" lon="-7.1963933"><ele>1314.0</ele><time>2026-04-15T08:07:14.841Z</time></trkpt><trkpt lat="42.6784317" lon="-7.1965017"><ele>1315.2</ele><time>2026-04-15T08:07:23.841Z</time></trkpt><trkpt lat="42.6783983" lon="-7.1965817"><ele>1316.4</ele><time>2026-04-15T08:07:24.842Z</time></trkpt><trkpt lat="42.678365" lon="-7.1966883"><ele>1317.6</ele><time>2026-04-15T08:07:25.841Z</time></trkpt><trkpt lat="42.6783183" lon="-7.196805"><ele>1318.8</ele><time>2026-04-15T08:07:26.842Z</time></trkpt><trkpt lat="42.678245" lon="-7.1969333"><ele>1320.0</ele><time>2026-04-15T08:07:27.841Z</time></trkpt><trkpt lat="42.6781617" lon="-7.19705"><ele>1320.0</ele><time>2026-04-15T08:07:28.841Z</time></trkpt><trkpt lat="42.6780517" lon="-7.19715"><ele>1320.0</ele><time>2026-04-15T08:07:29.841Z</time></trkpt><trkpt lat="42.677925" lon="-7.19725"><ele>1320.0</ele><time>2026-04-15T08:07:30.842Z</time></trkpt><trkpt lat="42.6777917" lon="-7.1973517"><ele>1320.0</ele><time>2026-04-15T08:07:31.841Z</time></trkpt><trkpt lat="42.67766" lon="-7.1974683"><ele>1321.3333333333333</ele><time>2026-04-15T08:07:32.842Z</time></trkpt><trkpt lat="42.67752" lon="-7.1975683"><ele>1322.6666666666665</ele><time>2026-04-15T08:07:33.841Z</time></trkpt><trkpt lat="42.67738" lon="-7.1976617"><ele>1324.0</ele><time>2026-04-15T08:07:34.842Z</time></trkpt><trkpt lat="42.6772433" lon="-7.1977467"><ele>1324.0</ele><time>2026-04-15T08:07:35.841Z</time></trkpt><trkpt lat="42.6771167" lon="-7.1978567"><ele>1324.0</ele><time>2026-04-15T08:07:36.842Z</time></trkpt><trkpt lat="42.6769917" lon="-7.1979733"><ele>1324.0</ele><time>2026-04-15T08:07:37.841Z</time></trkpt><trkpt lat="42.6768533" lon="-7.1980833"><ele>1323.0</ele><time>2026-04-15T08:07:38.842Z</time></trkpt><trkpt lat="42.6767167" lon="-7.1981867"><ele>1322.0</ele><time>2026-04-15T08:07:39.842Z</time></trkpt><trkpt lat="42.6765767" lon="-7.198285"><ele>1321.0</ele><time>2026-04-15T08:07:40.841Z</time></trkpt><trkpt lat="42.6764367" lon="-7.198365"><ele>1321.0</ele><time>2026-04-15T08:07:41.841Z</time></trkpt><trkpt lat="42.6762967" lon="-7.198415"><ele>1321.0</ele><time>2026-04-15T08:07:42.841Z</time></trkpt><trkpt lat="42.67615" lon="-7.1984683"><ele>1321.0</ele><time>2026-04-15T08:07:43.841Z</time></trkpt><trkpt lat="42.6760033" lon="-7.1985117"><ele>1321.0</ele><time>2026-04-15T08:07:44.841Z</time></trkpt><trkpt lat="42.67585" lon="-7.1985417"><ele>1325.0</ele><time>2026-04-15T08:07:45.841Z</time></trkpt><trkpt lat="42.675705" lon="-7.19856"><ele>1329.0</ele><time>2026-04-15T08:07:46.841Z</time></trkpt><trkpt lat="42.6755667" lon="-7.1985667"><ele>1333.0</ele><time>2026-04-15T08:07:47.841Z</time></trkpt><trkpt lat="42.6754417" lon="-7.1985783"><ele>1337.0</ele><time>2026-04-15T08:07:48.841Z</time></trkpt><trkpt lat="42.6753217" lon="-7.1986017"><ele>1341.0</ele><time>2026-04-15T08:07:49.842Z</time></trkpt><trkpt lat="42.6752017" lon="-7.1986333"><ele>1345.0</ele><time>2026-04-15T08:07:50.841Z</time></trkpt><trkpt lat="42.6751017" lon="-7.1987017"><ele>1349.0</ele><time>2026-04-15T08:07:51.842Z</time></trkpt><trkpt lat="42.6750167" lon="-7.1988017"><ele>1353.0</ele><time>2026-04-15T08:07:52.841Z</time></trkpt><trkpt lat="42.6749433" lon="-7.1989233"><ele>1349.25</ele><time>2026-04-15T08:07:53.841Z</time></trkpt><trkpt lat="42.674885" lon="-7.1990633"><ele>1345.5</ele><time>2026-04-15T08:07:54.841Z</time></trkpt><trkpt lat="42.6748317" lon="-7.1992217"><ele>1341.75</ele><time>2026-04-15T08:07:55.842Z</time></trkpt><trkpt lat="42.6747783" lon="-7.19938"><ele>1338.0</ele><time>2026-04-15T08:07:56.842Z</time></trkpt><trkpt lat="42.6747183" lon="-7.1995"><ele>1338.0</ele><time>2026-04-15T08:07:57.842Z</time></trkpt><trkpt lat="42.67465" lon="-7.1995767"><ele>1338.0</ele><time>2026-04-15T08:07:58.842Z</time></trkpt><trkpt lat="42.6745717" lon="-7.199625"><ele>1338.0</ele><time>2026-04-15T08:07:59.841Z</time></trkpt><trkpt lat="42.674475" lon="-7.1996617"><ele>1338.0</ele><time>2026-04-15T08:08:00.842Z</time></trkpt><trkpt lat="42.674375" lon="-7.1996917"><ele>1338.0</ele><time>2026-04-15T08:08:01.842Z</time></trkpt><trkpt lat="42.6742683" lon="-7.1997083"><ele>1339.4</ele><time>2026-04-15T08:08:02.842Z</time></trkpt><trkpt lat="42.674165" lon="-7.1997217"><ele>1340.8000000000002</ele><time>2026-04-15T08:08:03.841Z</time></trkpt><trkpt lat="42.6740733" lon="-7.19976"><ele>1342.2</ele><time>2026-04-15T08:08:04.841Z</time></trkpt><trkpt lat="42.6739967" lon="-7.1998433"><ele>1343.6</ele><time>2026-04-15T08:08:05.841Z</time></trkpt><trkpt lat="42.67394" lon="-7.1999783"><ele>1345.0</ele><time>2026-04-15T08:08:06.841Z</time></trkpt><trkpt lat="42.6738983" lon="-7.2001483"><ele>1345.0</ele><time>2026-04-15T08:08:07.842Z</time></trkpt><trkpt lat="42.6738667" lon="-7.2003383"><ele>1345.0</ele><time>2026-04-15T08:08:08.842Z</time></trkpt><trkpt lat="42.6738333" lon="-7.200555"><ele>1345.0</ele><time>2026-04-15T08:08:09.842Z</time></trkpt><trkpt lat="42.67381" lon="-7.200785"><ele>1342.3333333333333</ele><time>2026-04-15T08:08:10.841Z</time></trkpt><trkpt lat="42.6737717" lon="-7.2010217"><ele>1339.6666666666667</ele><time>2026-04-15T08:08:11.841Z</time></trkpt><trkpt lat="42.6737283" lon="-7.20126"><ele>1337.0</ele><time>2026-04-15T08:08:12.841Z</time></trkpt><trkpt lat="42.6736817" lon="-7.20149"><ele>1334.6666666666667</ele><time>2026-04-15T08:08:13.842Z</time></trkpt><trkpt lat="42.673645" lon="-7.20173"><ele>1332.3333333333333</ele><time>2026-04-15T08:08:14.841Z</time></trkpt><trkpt lat="42.6736183" lon="-7.2019683"><ele>1330.0</ele><time>2026-04-15T08:08:15.841Z</time></trkpt><trkpt lat="42.67359" lon="-7.2021933"><ele>1329.6666666666665</ele><time>2026-04-15T08:08:16.841Z</time></trkpt><trkpt lat="42.6735533" lon="-7.20241"><ele>1329.3333333333333</ele><time>2026-04-15T08:08:17.841Z</time></trkpt><trkpt lat="42.6734867" lon="-7.2026217"><ele>1329.0</ele><time>2026-04-15T08:08:18.842Z</time></trkpt><trkpt lat="42.673405" lon="-7.2028317"><ele>1329.0</ele><time>2026-04-15T08:08:19.841Z</time></trkpt><trkpt lat="42.6733183" lon="-7.2030467"><ele>1329.0</ele><time>2026-04-15T08:08:20.841Z</time></trkpt><trkpt lat="42.6732267" lon="-7.203285"><ele>1329.0</ele><time>2026-04-15T08:08:21.841Z</time></trkpt><trkpt lat="42.673145" lon="-7.20352"><ele>1328.3333333333333</ele><time>2026-04-15T08:08:22.842Z</time></trkpt><trkpt lat="42.6730733" lon="-7.20374"><ele>1327.6666666666665</ele><time>2026-04-15T08:08:23.841Z</time></trkpt><trkpt lat="42.6730067" lon="-7.2039383"><ele>1327.0</ele><time>2026-04-15T08:08:24.842Z</time></trkpt><trkpt lat="42.6729467" lon="-7.2041417"><ele>1326.0</ele><time>2026-04-15T08:08:25.841Z</time></trkpt><trkpt lat="42.6728833" lon="-7.2043367"><ele>1325.0</ele><time>2026-04-15T08:08:26.842Z</time></trkpt><trkpt lat="42.6728117" lon="-7.2045117"><ele>1324.0</ele><time>2026-04-15T08:08:27.842Z</time></trkpt><trkpt lat="42.6727467" lon="-7.20466"><ele>1323.0</ele><time>2026-04-15T08:08:28.842Z</time></trkpt><trkpt lat="42.67269" lon="-7.204785"><ele>1323.6000000000001</ele><time>2026-04-15T08:08:29.841Z</time></trkpt><trkpt lat="42.67265" lon="-7.2049133"><ele>1324.2</ele><time>2026-04-15T08:08:30.842Z</time></trkpt><trkpt lat="42.67264" lon="-7.2050583"><ele>1324.8</ele><time>2026-04-15T08:08:31.841Z</time></trkpt><trkpt lat="42.6726667" lon="-7.2052067"><ele>1325.4</ele><time>2026-04-15T08:08:32.841Z</time></trkpt><trkpt lat="42.6727033" lon="-7.205365"><ele>1326.0</ele><time>2026-04-15T08:08:33.841Z</time></trkpt><trkpt lat="42.67273" lon="-7.20555"><ele>1327.3333333333333</ele><time>2026-04-15T08:08:34.842Z</time></trkpt><trkpt lat="42.6727467" lon="-7.20576"><ele>1328.6666666666665</ele><time>2026-04-15T08:08:35.841Z</time></trkpt><trkpt lat="42.672755" lon="-7.2059817"><ele>1330.0</ele><time>2026-04-15T08:08:36.841Z</time></trkpt><trkpt lat="42.6727317" lon="-7.20622"><ele>1330.0</ele><time>2026-04-15T08:08:37.842Z</time></trkpt><trkpt lat="42.67269" lon="-7.2064633"><ele>1330.0</ele><time>2026-04-15T08:08:38.842Z</time></trkpt><trkpt lat="42.6726367" lon="-7.206685"><ele>1330.0</ele><time>2026-04-15T08:08:39.841Z</time></trkpt><trkpt lat="42.6725783" lon="-7.2068983"><ele>1328.25</ele><time>2026-04-15T08:08:40.841Z</time></trkpt><trkpt lat="42.6725117" lon="-7.2070683"><ele>1326.5</ele><time>2026-04-15T08:08:41.841Z</time></trkpt><trkpt lat="42.6724317" lon="-7.2072133"><ele>1324.75</ele><time>2026-04-15T08:08:42.842Z</time></trkpt><trkpt lat="42.6723367" lon="-7.20733"><ele>1323.0</ele><time>2026-04-15T08:08:43.841Z</time></trkpt><trkpt lat="42.6722417" lon="-7.2074483"><ele>1320.75</ele><time>2026-04-15T08:08:44.842Z</time></trkpt><trkpt lat="42.6721433" lon="-7.2075733"><ele>1318.5</ele><time>2026-04-15T08:08:45.841Z</time></trkpt><trkpt lat="42.6720433" lon="-7.20772"><ele>1316.25</ele><time>2026-04-15T08:08:46.841Z</time></trkpt><trkpt lat="42.671935" lon="-7.20786"><ele>1314.0</ele><time>2026-04-15T08:08:47.841Z</time></trkpt><trkpt lat="42.671815" lon="-7.2079867"><ele>1314.0</ele><time>2026-04-15T08:08:48.841Z</time></trkpt><trkpt lat="42.6716867" lon="-7.2081067"><ele>1314.0</ele><time>2026-04-15T08:08:49.841Z</time></trkpt><trkpt lat="42.671545" lon="-7.2082267"><ele>1314.0</ele><time>2026-04-15T08:08:50.842Z</time></trkpt><trkpt lat="42.6714033" lon="-7.2083517"><ele>1311.3333333333333</ele><time>2026-04-15T08:08:51.842Z</time></trkpt><trkpt lat="42.6712683" lon="-7.2084933"><ele>1308.6666666666665</ele><time>2026-04-15T08:08:52.841Z</time></trkpt><trkpt lat="42.6711367" lon="-7.2086617"><ele>1306.0</ele><time>2026-04-15T08:08:53.841Z</time></trkpt><trkpt lat="42.671" lon="-7.2088217"><ele>1303.6666666666665</ele><time>2026-04-15T08:08:54.842Z</time></trkpt><trkpt lat="42.6708617" lon="-7.208965"><ele>1301.3333333333333</ele><time>2026-04-15T08:08:55.841Z</time></trkpt><trkpt lat="42.6707167" lon="-7.2090967"><ele>1299.0</ele><time>2026-04-15T08:08:56.842Z</time></trkpt><trkpt lat="42.6705883" lon="-7.209245"><ele>1298.6666666666667</ele><time>2026-04-15T08:08:57.841Z</time></trkpt><trkpt lat="42.6704733" lon="-7.2094033"><ele>1298.3333333333335</ele><time>2026-04-15T08:08:58.842Z</time></trkpt><trkpt lat="42.6703783" lon="-7.20956"><ele>1298.0</ele><time>2026-04-15T08:08:59.842Z</time></trkpt><trkpt lat="42.6703" lon="-7.20972"><ele>1295.5</ele><time>2026-04-15T08:09:00.842Z</time></trkpt><trkpt lat="42.670225" lon="-7.209855"><ele>1293.0</ele><time>2026-04-15T08:09:01.842Z</time></trkpt><trkpt lat="42.670155" lon="-7.2099867"><ele>1290.5</ele><time>2026-04-15T08:09:02.842Z</time></trkpt><trkpt lat="42.67009" lon="-7.2101167"><ele>1288.0</ele><time>2026-04-15T08:09:03.841Z</time></trkpt><trkpt lat="42.6700267" lon="-7.210265"><ele>1288.0</ele><time>2026-04-15T08:09:04.842Z</time></trkpt><trkpt lat="42.66997" lon="-7.2104217"><ele>1288.0</ele><time>2026-04-15T08:09:05.841Z</time></trkpt><trkpt lat="42.6699083" lon="-7.2105817"><ele>1288.0</ele><time>2026-04-15T08:09:06.841Z</time></trkpt><trkpt lat="42.6698517" lon="-7.2107567"><ele>1288.0</ele><time>2026-04-15T08:09:07.841Z</time></trkpt><trkpt lat="42.6698033" lon="-7.2109233"><ele>1286.5</ele><time>2026-04-15T08:09:08.841Z</time></trkpt><trkpt lat="42.6697633" lon="-7.2110917"><ele>1285.0</ele><time>2026-04-15T08:09:09.841Z</time></trkpt><trkpt lat="42.6697333" lon="-7.21126"><ele>1283.5</ele><time>2026-04-15T08:09:10.842Z</time></trkpt><trkpt lat="42.6697017" lon="-7.2114167"><ele>1282.0</ele><time>2026-04-15T08:09:11.842Z</time></trkpt><trkpt lat="42.6696617" lon="-7.21158"><ele>1279.25</ele><time>2026-04-15T08:09:12.841Z</time></trkpt><trkpt lat="42.669625" lon="-7.211755"><ele>1276.5</ele><time>2026-04-15T08:09:13.841Z</time></trkpt><trkpt lat="42.66959" lon="-7.2119183"><ele>1273.75</ele><time>2026-04-15T08:09:14.841Z</time></trkpt><trkpt lat="42.669575" lon="-7.212065"><ele>1271.0</ele><time>2026-04-15T08:09:15.842Z</time></trkpt><trkpt lat="42.66959" lon="-7.212205"><ele>1267.5</ele><time>2026-04-15T08:09:16.842Z</time></trkpt><trkpt lat="42.6696" lon="-7.212355"><ele>1264.0</ele><time>2026-04-15T08:09:17.841Z</time></trkpt><trkpt lat="42.66959" lon="-7.2125083"><ele>1260.5</ele><time>2026-04-15T08:09:18.842Z</time></trkpt><trkpt lat="42.6695533" lon="-7.21267"><ele>1257.0</ele><time>2026-04-15T08:09:19.841Z</time></trkpt><trkpt lat="42.6695133" lon="-7.2128217"><ele>1257.0</ele><time>2026-04-15T08:09:20.842Z</time></trkpt><trkpt lat="42.6694817" lon="-7.2129683"><ele>1257.0</ele><time>2026-04-15T08:09:21.841Z</time></trkpt><trkpt lat="42.6694583" lon="-7.213095"><ele>1257.0</ele><time>2026-04-15T08:09:22.841Z</time></trkpt><trkpt lat="42.6694433" lon="-7.2132117"><ele>1257.0</ele><time>2026-04-15T08:09:23.841Z</time></trkpt><trkpt lat="42.669435" lon="-7.2133233"><ele>1257.0</ele><time>2026-04-15T08:09:24.841Z</time></trkpt><trkpt lat="42.6694217" lon="-7.2134483"><ele>1251.75</ele><time>2026-04-15T08:09:25.841Z</time></trkpt><trkpt lat="42.6694033" lon="-7.21361"><ele>1246.5</ele><time>2026-04-15T08:09:26.841Z</time></trkpt><trkpt lat="42.6693783" lon="-7.2137783"><ele>1241.25</ele><time>2026-04-15T08:09:27.841Z</time></trkpt><trkpt lat="42.66934" lon="-7.2139483"><ele>1236.0</ele><time>2026-04-15T08:09:28.841Z</time></trkpt><trkpt lat="42.6692967" lon="-7.2141033"><ele>1233.3999999999999</ele><time>2026-04-15T08:09:29.842Z</time></trkpt><trkpt lat="42.669245" lon="-7.2142533"><ele>1230.8</ele><time>2026-04-15T08:09:30.842Z</time></trkpt><trkpt lat="42.6691883" lon="-7.2143883"><ele>1228.1999999999998</ele><time>2026-04-15T08:09:31.841Z</time></trkpt><trkpt lat="42.66913" lon="-7.21452"><ele>1225.6</ele><time>2026-04-15T08:09:32.842Z</time></trkpt><trkpt lat="42.6690733" lon="-7.21463"><ele>1223.0</ele><time>2026-04-15T08:09:33.842Z</time></trkpt><trkpt lat="42.6690233" lon="-7.2147333"><ele>1220.0</ele><time>2026-04-15T08:09:34.841Z</time></trkpt><trkpt lat="42.66898" lon="-7.21484"><ele>1217.0</ele><time>2026-04-15T08:09:35.842Z</time></trkpt><trkpt lat="42.66894" lon="-7.2149617"><ele>1214.0</ele><time>2026-04-15T08:09:36.841Z</time></trkpt><trkpt lat="42.6688917" lon="-7.2150967"><ele>1211.0</ele><time>2026-04-15T08:09:37.841Z</time></trkpt><trkpt lat="42.66884" lon="-7.2152433"><ele>1208.0</ele><time>2026-04-15T08:09:38.842Z</time></trkpt><trkpt lat="42.6687917" lon="-7.21538"><ele>1208.0</ele><time>2026-04-15T08:09:39.841Z</time></trkpt><trkpt lat="42.66874" lon="-7.2155217"><ele>1208.0</ele><time>2026-04-15T08:09:40.841Z</time></trkpt><trkpt lat="42.6687017" lon="-7.215665"><ele>1208.0</ele><time>2026-04-15T08:09:41.841Z</time></trkpt><trkpt lat="42.6686633" lon="-7.2158017"><ele>1208.0</ele><time>2026-04-15T08:09:42.841Z</time></trkpt><trkpt lat="42.6686267" lon="-7.2159417"><ele>1208.0</ele><time>2026-04-15T08:09:43.841Z</time></trkpt><trkpt lat="42.668575" lon="-7.216085"><ele>1201.5</ele><time>2026-04-15T08:09:44.841Z</time></trkpt><trkpt lat="42.668525" lon="-7.21624"><ele>1195.0</ele><time>2026-04-15T08:09:45.842Z</time></trkpt><trkpt lat="42.6684683" lon="-7.2164067"><ele>1188.5</ele><time>2026-04-15T08:09:46.841Z</time></trkpt><trkpt lat="42.668425" lon="-7.2165633"><ele>1182.0</ele><time>2026-04-15T08:09:47.842Z</time></trkpt><trkpt lat="42.668375" lon="-7.2167217"><ele>1178.0</ele><time>2026-04-15T08:09:48.842Z</time></trkpt><trkpt lat="42.6683267" lon="-7.2168617"><ele>1174.0</ele><time>2026-04-15T08:09:49.842Z</time></trkpt><trkpt lat="42.6682783" lon="-7.217"><ele>1170.0</ele><time>2026-04-15T08:09:50.842Z</time></trkpt><trkpt lat="42.6682217" lon="-7.2171483"><ele>1166.0</ele><time>2026-04-15T08:09:51.842Z</time></trkpt><trkpt lat="42.6681633" lon="-7.2173117"><ele>1162.5</ele><time>2026-04-15T08:09:52.842Z</time></trkpt><trkpt lat="42.6681" lon="-7.2174717"><ele>1159.0</ele><time>2026-04-15T08:09:53.841Z</time></trkpt><trkpt lat="42.668035" lon="-7.2176033"><ele>1155.5</ele><time>2026-04-15T08:09:54.842Z</time></trkpt><trkpt lat="42.667965" lon="-7.2177133"><ele>1152.0</ele><time>2026-04-15T08:09:55.842Z</time></trkpt><trkpt lat="42.667885" lon="-7.217795"><ele>1152.0</ele><time>2026-04-15T08:09:56.842Z</time></trkpt><trkpt lat="42.6677867" lon="-7.2178567"><ele>1152.0</ele><time>2026-04-15T08:09:57.842Z</time></trkpt><trkpt lat="42.66768" lon="-7.2179217"><ele>1152.0</ele><time>2026-04-15T08:09:58.841Z</time></trkpt><trkpt lat="42.6675817" lon="-7.2179933"><ele>1152.0</ele><time>2026-04-15T08:09:59.842Z</time></trkpt><trkpt lat="42.6675033" lon="-7.2180733"><ele>1152.0</ele><time>2026-04-15T08:10:00.841Z</time></trkpt><trkpt lat="42.6674567" lon="-7.2181583"><ele>1149.4</ele><time>2026-04-15T08:10:01.842Z</time></trkpt><trkpt lat="42.6674383" lon="-7.21825"><ele>1146.8000000000002</ele><time>2026-04-15T08:10:02.841Z</time></trkpt><trkpt lat="42.66745" lon="-7.2183533"><ele>1144.2</ele><time>2026-04-15T08:10:03.841Z</time></trkpt><trkpt lat="42.6674783" lon="-7.21848"><ele>1141.6000000000001</ele><time>2026-04-15T08:10:04.841Z</time></trkpt><trkpt lat="42.667495" lon="-7.2186267"><ele>1139.0</ele><time>2026-04-15T08:10:05.842Z</time></trkpt><trkpt lat="42.66749" lon="-7.21879"><ele>1139.0</ele><time>2026-04-15T08:10:06.841Z</time></trkpt><trkpt lat="42.66746" lon="-7.21894"><ele>1139.0</ele><time>2026-04-15T08:10:07.842Z</time></trkpt><trkpt lat="42.6674017" lon="-7.2190967"><ele>1139.0</ele><time>2026-04-15T08:10:08.842Z</time></trkpt><trkpt lat="42.6673067" lon="-7.21926"><ele>1139.0</ele><time>2026-04-15T08:10:09.841Z</time></trkpt><trkpt lat="42.66718" lon="-7.2194217"><ele>1139.0</ele><time>2026-04-15T08:10:10.841Z</time></trkpt><trkpt lat="42.6670567" lon="-7.2195883"><ele>1139.0</ele><time>2026-04-15T08:10:11.842Z</time></trkpt><trkpt lat="42.6669433" lon="-7.2197433"><ele>1139.0</ele><time>2026-04-15T08:10:12.842Z</time></trkpt><trkpt lat="42.666835" lon="-7.2198667"><ele>1139.0</ele><time>2026-04-15T08:10:13.841Z</time></trkpt><trkpt lat="42.66672" lon="-7.21997"><ele>1139.0</ele><time>2026-04-15T08:10:14.841Z</time></trkpt><trkpt lat="42.666585" lon="-7.2200433"><ele>1139.0</ele><time>2026-04-15T08:10:15.842Z</time></trkpt><trkpt lat="42.66645" lon="-7.2201267"><ele>1139.0</ele><time>2026-04-15T08:10:16.841Z</time></trkpt><trkpt lat="42.666335" lon="-7.2202217"><ele>1139.0</ele><time>2026-04-15T08:10:17.841Z</time></trkpt><trkpt lat="42.6662417" lon="-7.2203467"><ele>1139.0</ele><time>2026-04-15T08:10:18.842Z</time></trkpt><trkpt lat="42.66617" lon="-7.2205183"><ele>1139.0</ele><time>2026-04-15T08:10:19.842Z</time></trkpt><trkpt lat="42.66613" lon="-7.2207367"><ele>1139.0</ele><time>2026-04-15T08:10:20.841Z</time></trkpt><trkpt lat="42.6661017" lon="-7.2209633"><ele>1143.25</ele><time>2026-04-15T08:10:21.842Z</time></trkpt><trkpt lat="42.6661033" lon="-7.2211833"><ele>1147.5</ele><time>2026-04-15T08:10:22.842Z</time></trkpt><trkpt lat="42.6661183" lon="-7.22136"><ele>1151.75</ele><time>2026-04-15T08:10:23.841Z</time></trkpt><trkpt lat="42.6661567" lon="-7.2214917"><ele>1156.0</ele><time>2026-04-15T08:10:24.842Z</time></trkpt><trkpt lat="42.66617" lon="-7.2215867"><ele>1154.5</ele><time>2026-04-15T08:10:25.842Z</time></trkpt><trkpt lat="42.6661117" lon="-7.22174"><ele>1153.0</ele><time>2026-04-15T08:10:27.841Z</time></trkpt><trkpt lat="42.6660217" lon="-7.2218083"><ele>1151.5</ele><time>2026-04-15T08:10:28.841Z</time></trkpt><trkpt lat="42.6659067" lon="-7.2218933"><ele>1150.0</ele><time>2026-04-15T08:10:29.841Z</time></trkpt><trkpt lat="42.6657683" lon="-7.2219833"><ele>1150.0</ele><time>2026-04-15T08:10:30.841Z</time></trkpt><trkpt lat="42.6656167" lon="-7.2220767"><ele>1150.0</ele><time>2026-04-15T08:10:31.842Z</time></trkpt><trkpt lat="42.665445" lon="-7.22215"><ele>1150.0</ele><time>2026-04-15T08:10:32.842Z</time></trkpt><trkpt lat="42.665265" lon="-7.2222367"><ele>1150.0</ele><time>2026-04-15T08:10:33.841Z</time></trkpt><trkpt lat="42.66508" lon="-7.22236"><ele>1150.0</ele><time>2026-04-15T08:10:34.841Z</time></trkpt><trkpt lat="42.6648983" lon="-7.2225067"><ele>1150.0</ele><time>2026-04-15T08:10:35.842Z</time></trkpt><trkpt lat="42.66472" lon="-7.2226733"><ele>1150.0</ele><time>2026-04-15T08:10:36.842Z</time></trkpt><trkpt lat="42.66454" lon="-7.2228383"><ele>1150.0</ele><time>2026-04-15T08:10:37.842Z</time></trkpt><trkpt lat="42.66437" lon="-7.2229867"><ele>1150.0</ele><time>2026-04-15T08:10:38.842Z</time></trkpt><trkpt lat="42.6642033" lon="-7.2231383"><ele>1148.6666666666665</ele><time>2026-04-15T08:10:39.841Z</time></trkpt><trkpt lat="42.6640517" lon="-7.22328"><ele>1147.3333333333333</ele><time>2026-04-15T08:10:40.842Z</time></trkpt><trkpt lat="42.6639033" lon="-7.2234133"><ele>1146.0</ele><time>2026-04-15T08:10:41.841Z</time></trkpt><trkpt lat="42.6637583" lon="-7.2235367"><ele>1146.0</ele><time>2026-04-15T08:10:42.841Z</time></trkpt><trkpt lat="42.663635" lon="-7.2236483"><ele>1146.0</ele><time>2026-04-15T08:10:43.841Z</time></trkpt><trkpt lat="42.6635133" lon="-7.2237433"><ele>1146.0</ele><time>2026-04-15T08:10:44.841Z</time></trkpt><trkpt lat="42.6633783" lon="-7.2238033"><ele>1146.0</ele><time>2026-04-15T08:10:45.842Z</time></trkpt><trkpt lat="42.663235" lon="-7.2238533"><ele>1145.6666666666667</ele><time>2026-04-15T08:10:46.841Z</time></trkpt><trkpt lat="42.6630933" lon="-7.2239033"><ele>1145.3333333333335</ele><time>2026-04-15T08:10:47.841Z</time></trkpt><trkpt lat="42.6629517" lon="-7.2239817"><ele>1145.0</ele><time>2026-04-15T08:10:48.841Z</time></trkpt><trkpt lat="42.66282" lon="-7.2240867"><ele>1154.0</ele><time>2026-04-15T08:10:49.842Z</time></trkpt><trkpt lat="42.662685" lon="-7.2242033"><ele>1163.0</ele><time>2026-04-15T08:10:50.842Z</time></trkpt><trkpt lat="42.662555" lon="-7.2243317"><ele>1172.0</ele><time>2026-04-15T08:10:51.842Z</time></trkpt><trkpt lat="42.662405" lon="-7.2244533"><ele>1172.0</ele><time>2026-04-15T08:10:52.842Z</time></trkpt><trkpt lat="42.6622467" lon="-7.2245567"><ele>1172.0</ele><time>2026-04-15T08:10:53.842Z</time></trkpt><trkpt lat="42.66207" lon="-7.2246417"><ele>1172.0</ele><time>2026-04-15T08:10:54.841Z</time></trkpt><trkpt lat="42.6619" lon="-7.2247167"><ele>1172.75</ele><time>2026-04-15T08:10:55.841Z</time></trkpt><trkpt lat="42.6617417" lon="-7.2247883"><ele>1173.5</ele><time>2026-04-15T08:10:56.841Z</time></trkpt><trkpt lat="42.6616083" lon="-7.2248667"><ele>1174.25</ele><time>2026-04-15T08:10:57.841Z</time></trkpt><trkpt lat="42.6615217" lon="-7.2249333"><ele>1175.0</ele><time>2026-04-15T08:10:58.841Z</time></trkpt><trkpt lat="42.6614833" lon="-7.2250167"><ele>1175.0</ele><time>2026-04-15T08:10:59.841Z</time></trkpt><trkpt lat="42.661455" lon="-7.2251183"><ele>1175.0</ele><time>2026-04-15T08:11:00.841Z</time></trkpt><trkpt lat="42.661465" lon="-7.2252683"><ele>1175.0</ele><time>2026-04-15T08:11:01.841Z</time></trkpt><trkpt lat="42.6614933" lon="-7.225465"><ele>1175.0</ele><time>2026-04-15T08:11:02.841Z</time></trkpt><trkpt lat="42.6615283" lon="-7.225685"><ele>1176.25</ele><time>2026-04-15T08:11:03.842Z</time></trkpt><trkpt lat="42.661565" lon="-7.2258717"><ele>1177.5</ele><time>2026-04-15T08:11:04.842Z</time></trkpt><trkpt lat="42.66164" lon="-7.2260183"><ele>1178.75</ele><time>2026-04-15T08:11:05.842Z</time></trkpt><trkpt lat="42.661755" lon="-7.22616"><ele>1180.0</ele><time>2026-04-15T08:11:06.842Z</time></trkpt><trkpt lat="42.6618767" lon="-7.226295"><ele>1177.0</ele><time>2026-04-15T08:11:07.842Z</time></trkpt><trkpt lat="42.661965" lon="-7.2264033"><ele>1174.0</ele><time>2026-04-15T08:11:08.841Z</time></trkpt><trkpt lat="42.6620283" lon="-7.2264783"><ele>1171.0</ele><time>2026-04-15T08:11:09.841Z</time></trkpt><trkpt lat="42.6620633" lon="-7.22656"><ele>1168.0</ele><time>2026-04-15T08:11:10.842Z</time></trkpt><trkpt lat="42.6620367" lon="-7.2266617"><ele>1165.0</ele><time>2026-04-15T08:11:12.841Z</time></trkpt><trkpt lat="42.66194" lon="-7.2266067"><ele>1168.75</ele><time>2026-04-15T08:11:14.842Z</time></trkpt><trkpt lat="42.6618833" lon="-7.2265283"><ele>1172.5</ele><time>2026-04-15T08:11:15.841Z</time></trkpt><trkpt lat="42.6618033" lon="-7.22644"><ele>1176.25</ele><time>2026-04-15T08:11:16.842Z</time></trkpt><trkpt lat="42.66169" lon="-7.2263467"><ele>1180.0</ele><time>2026-04-15T08:11:17.842Z</time></trkpt><trkpt lat="42.661555" lon="-7.2262483"><ele>1180.0</ele><time>2026-04-15T08:11:18.842Z</time></trkpt><trkpt lat="42.661395" lon="-7.2261333"><ele>1180.0</ele><time>2026-04-15T08:11:19.841Z</time></trkpt><trkpt lat="42.6612483" lon="-7.22599"><ele>1180.0</ele><time>2026-04-15T08:11:20.842Z</time></trkpt><trkpt lat="42.6611217" lon="-7.225825"><ele>1189.0</ele><time>2026-04-15T08:11:21.842Z</time></trkpt><trkpt lat="42.6609967" lon="-7.225625"><ele>1198.0</ele><time>2026-04-15T08:11:22.843Z</time></trkpt><trkpt lat="42.6608867" lon="-7.2254167"><ele>1207.0</ele><time>2026-04-15T08:11:23.843Z</time></trkpt><trkpt lat="42.6608" lon="-7.225235"><ele>1207.0</ele><time>2026-04-15T08:11:24.842Z</time></trkpt><trkpt lat="42.66075" lon="-7.2250583"><ele>1207.0</ele><time>2026-04-15T08:11:25.842Z</time></trkpt><trkpt lat="42.6607383" lon="-7.2248733"><ele>1207.0</ele><time>2026-04-15T08:11:26.842Z</time></trkpt><trkpt lat="42.6607617" lon="-7.22468"><ele>1207.0</ele><time>2026-04-15T08:11:27.842Z</time></trkpt><trkpt lat="42.660825" lon="-7.224495"><ele>1205.0</ele><time>2026-04-15T08:11:28.842Z</time></trkpt><trkpt lat="42.6609333" lon="-7.2243367"><ele>1203.0</ele><time>2026-04-15T08:11:29.842Z</time></trkpt><trkpt lat="42.66107" lon="-7.22421"><ele>1201.0</ele><time>2026-04-15T08:11:30.842Z</time></trkpt><trkpt lat="42.6612367" lon="-7.2240967"><ele>1201.0</ele><time>2026-04-15T08:11:31.843Z</time></trkpt><trkpt lat="42.6614133" lon="-7.2239933"><ele>1201.0</ele><time>2026-04-15T08:11:32.843Z</time></trkpt><trkpt lat="42.6615933" lon="-7.223885"><ele>1201.0</ele><time>2026-04-15T08:11:33.843Z</time></trkpt><trkpt lat="42.6617717" lon="-7.2237433"><ele>1202.3333333333333</ele><time>2026-04-15T08:11:34.843Z</time></trkpt><trkpt lat="42.6619283" lon="-7.2235817"><ele>1203.6666666666667</ele><time>2026-04-15T08:11:35.843Z</time></trkpt><trkpt lat="42.6620833" lon="-7.2233917"><ele>1205.0</ele><time>2026-04-15T08:11:36.842Z</time></trkpt><trkpt lat="42.6622367" lon="-7.2231767"><ele>1212.3333333333335</ele><time>2026-04-15T08:11:37.842Z</time></trkpt><trkpt lat="42.6623683" lon="-7.222955"><ele>1219.6666666666667</ele><time>2026-04-15T08:11:38.843Z</time></trkpt><trkpt lat="42.6624717" lon="-7.22274"><ele>1227.0</ele><time>2026-04-15T08:11:39.843Z</time></trkpt><trkpt lat="42.6625517" lon="-7.2225483"><ele>1227.0</ele><time>2026-04-15T08:11:40.842Z</time></trkpt><trkpt lat="42.6625967" lon="-7.2223867"><ele>1227.0</ele><time>2026-04-15T08:11:41.843Z</time></trkpt><trkpt lat="42.66261" lon="-7.2222717"><ele>1227.0</ele><time>2026-04-15T08:11:42.842Z</time></trkpt><trkpt lat="42.66259" lon="-7.222175"><ele>1227.0</ele><time>2026-04-15T08:11:43.842Z</time></trkpt><trkpt lat="42.6625333" lon="-7.2220817"><ele>1227.0</ele><time>2026-04-15T08:11:44.842Z</time></trkpt><trkpt lat="42.6624517" lon="-7.222015"><ele>1222.6666666666667</ele><time>2026-04-15T08:11:45.843Z</time></trkpt><trkpt lat="42.662335" lon="-7.2219683"><ele>1218.3333333333335</ele><time>2026-04-15T08:11:46.843Z</time></trkpt><trkpt lat="42.6621717" lon="-7.2219217"><ele>1214.0</ele><time>2026-04-15T08:11:47.843Z</time></trkpt><trkpt lat="42.6619683" lon="-7.2218567"><ele>1219.0</ele><time>2026-04-15T08:11:48.843Z</time></trkpt><trkpt lat="42.6617617" lon="-7.221785"><ele>1224.0</ele><time>2026-04-15T08:11:49.842Z</time></trkpt><trkpt lat="42.661555" lon="-7.2216983"><ele>1229.0</ele><time>2026-04-15T08:11:50.843Z</time></trkpt><trkpt lat="42.6613317" lon="-7.22164"><ele>1237.5</ele><time>2026-04-15T08:11:51.843Z</time></trkpt><trkpt lat="42.6610933" lon="-7.2215883"><ele>1246.0</ele><time>2026-04-15T08:11:52.842Z</time></trkpt><trkpt lat="42.6608783" lon="-7.2215433"><ele>1246.0</ele><time>2026-04-15T08:11:53.843Z</time></trkpt><trkpt lat="42.6607133" lon="-7.2215133"><ele>1246.0</ele><time>2026-04-15T08:11:54.842Z</time></trkpt><trkpt lat="42.660595" lon="-7.22145"><ele>1246.0</ele><time>2026-04-15T08:11:55.843Z</time></trkpt><trkpt lat="42.660515" lon="-7.2213533"><ele>1246.0</ele><time>2026-04-15T08:11:56.842Z</time></trkpt><trkpt lat="42.66045" lon="-7.2212083"><ele>1250.0</ele><time>2026-04-15T08:11:57.843Z</time></trkpt><trkpt lat="42.6603817" lon="-7.2210383"><ele>1254.0</ele><time>2026-04-15T08:11:58.843Z</time></trkpt><trkpt lat="42.6602833" lon="-7.22086"><ele>1258.0</ele><time>2026-04-15T08:11:59.843Z</time></trkpt><trkpt lat="42.660175" lon="-7.2206567"><ele>1253.0</ele><time>2026-04-15T08:12:00.842Z</time></trkpt><trkpt lat="42.660075" lon="-7.2204333"><ele>1248.0</ele><time>2026-04-15T08:12:01.842Z</time></trkpt><trkpt lat="42.6599983" lon="-7.22017"><ele>1243.0</ele><time>2026-04-15T08:12:02.842Z</time></trkpt><trkpt lat="42.659935" lon="-7.2198867"><ele>1241.3333333333333</ele><time>2026-04-15T08:12:03.842Z</time></trkpt><trkpt lat="42.6598767" lon="-7.2196133"><ele>1239.6666666666667</ele><time>2026-04-15T08:12:04.843Z</time></trkpt><trkpt lat="42.6598217" lon="-7.2193717"><ele>1238.0</ele><time>2026-04-15T08:12:05.842Z</time></trkpt><trkpt lat="42.6597967" lon="-7.21917"><ele>1238.0</ele><time>2026-04-15T08:12:06.842Z</time></trkpt><trkpt lat="42.6597783" lon="-7.2190367"><ele>1238.0</ele><time>2026-04-15T08:12:07.842Z</time></trkpt><trkpt lat="42.6597183" lon="-7.21896"><ele>1238.0</ele><time>2026-04-15T08:12:09.843Z</time></trkpt><trkpt lat="42.6596617" lon="-7.2190467"><ele>1238.0</ele><time>2026-04-15T08:12:11.842Z</time></trkpt><trkpt lat="42.659655" lon="-7.21916"><ele>1238.0</ele><time>2026-04-15T08:12:12.842Z</time></trkpt><trkpt lat="42.6596567" lon="-7.2193183"><ele>1238.0</ele><time>2026-04-15T08:12:13.842Z</time></trkpt><trkpt lat="42.65966" lon="-7.21951"><ele>1238.0</ele><time>2026-04-15T08:12:14.843Z</time></trkpt><trkpt lat="42.65966" lon="-7.2197217"><ele>1238.0</ele><time>2026-04-15T08:12:15.843Z</time></trkpt><trkpt lat="42.6596633" lon="-7.219945"><ele>1239.6666666666667</ele><time>2026-04-15T08:12:16.842Z</time></trkpt><trkpt lat="42.659675" lon="-7.2201933"><ele>1241.3333333333333</ele><time>2026-04-15T08:12:17.843Z</time></trkpt><trkpt lat="42.6596833" lon="-7.2204483"><ele>1243.0</ele><time>2026-04-15T08:12:18.843Z</time></trkpt><trkpt lat="42.6597033" lon="-7.2207183"><ele>1248.0</ele><time>2026-04-15T08:12:19.842Z</time></trkpt><trkpt lat="42.6597383" lon="-7.220995"><ele>1253.0</ele><time>2026-04-15T08:12:20.842Z</time></trkpt><trkpt lat="42.659775" lon="-7.2212717"><ele>1258.0</ele><time>2026-04-15T08:12:21.842Z</time></trkpt><trkpt lat="42.6598133" lon="-7.2215283"><ele>1261.5</ele><time>2026-04-15T08:12:22.843Z</time></trkpt><trkpt lat="42.6598633" lon="-7.2217367"><ele>1265.0</ele><time>2026-04-15T08:12:23.843Z</time></trkpt><trkpt lat="42.6599183" lon="-7.2218933"><ele>1268.5</ele><time>2026-04-15T08:12:24.842Z</time></trkpt><trkpt lat="42.65999" lon="-7.2220117"><ele>1272.0</ele><time>2026-04-15T08:12:25.842Z</time></trkpt><trkpt lat="42.6600833" lon="-7.22211"><ele>1272.0</ele><time>2026-04-15T08:12:26.842Z</time></trkpt><trkpt lat="42.6601717" lon="-7.2222083"><ele>1272.0</ele><time>2026-04-15T08:12:27.842Z</time></trkpt><trkpt lat="42.6602467" lon="-7.22233"><ele>1272.0</ele><time>2026-04-15T08:12:28.842Z</time></trkpt><trkpt lat="42.6603067" lon="-7.2224767"><ele>1272.0</ele><time>2026-04-15T08:12:29.843Z</time></trkpt><trkpt lat="42.6603317" lon="-7.2226117"><ele>1271.8333333333333</ele><time>2026-04-15T08:12:30.842Z</time></trkpt><trkpt lat="42.6603217" lon="-7.2227267"><ele>1271.6666666666667</ele><time>2026-04-15T08:12:31.843Z</time></trkpt><trkpt lat="42.6602783" lon="-7.2228167"><ele>1271.5</ele><time>2026-04-15T08:12:32.842Z</time></trkpt><trkpt lat="42.66022" lon="-7.2229033"><ele>1271.3333333333335</ele><time>2026-04-15T08:12:33.842Z</time></trkpt><trkpt lat="42.6601633" lon="-7.2229867"><ele>1271.1666666666667</ele><time>2026-04-15T08:12:34.843Z</time></trkpt><trkpt lat="42.6601117" lon="-7.22305"><ele>1271.0</ele><time>2026-04-15T08:12:35.842Z</time></trkpt><trkpt lat="42.6600333" lon="-7.2231567"><ele>1273.4</ele><time>2026-04-15T08:12:37.843Z</time></trkpt><trkpt lat="42.6599667" lon="-7.22323"><ele>1275.8</ele><time>2026-04-15T08:12:39.843Z</time></trkpt><trkpt lat="42.6599017" lon="-7.2233183"><ele>1278.2</ele><time>2026-04-15T08:12:41.842Z</time></trkpt><trkpt lat="42.65983" lon="-7.2234017"><ele>1280.6000000000001</ele><time>2026-04-15T08:12:43.843Z</time></trkpt><trkpt lat="42.65975" lon="-7.223485"><ele>1283.0</ele><time>2026-04-15T08:12:45.843Z</time></trkpt><trkpt lat="42.6596717" lon="-7.2235633"><ele>1283.0</ele><time>2026-04-15T08:12:47.842Z</time></trkpt><trkpt lat="42.6595983" lon="-7.223645"><ele>1283.0</ele><time>2026-04-15T08:12:49.843Z</time></trkpt><trkpt lat="42.659525" lon="-7.22372"><ele>1283.0</ele><time>2026-04-15T08:12:51.843Z</time></trkpt><trkpt lat="42.659455" lon="-7.2237817"><ele>1283.0</ele><time>2026-04-15T08:12:53.843Z</time></trkpt><trkpt lat="42.65938" lon="-7.223845"><ele>1283.0</ele><time>2026-04-15T08:12:55.842Z</time></trkpt><trkpt lat="42.6593033" lon="-7.2239017"><ele>1283.0</ele><time>2026-04-15T08:12:57.843Z</time></trkpt><trkpt lat="42.659215" lon="-7.2239417"><ele>1285.5</ele><time>2026-04-15T08:12:59.842Z</time></trkpt><trkpt lat="42.659115" lon="-7.22393"><ele>1288.0</ele><time>2026-04-15T08:13:01.843Z</time></trkpt><trkpt lat="42.6590117" lon="-7.2239017"><ele>1290.5</ele><time>2026-04-15T08:13:03.842Z</time></trkpt><trkpt lat="42.6589483" lon="-7.2238883"><ele>1293.0</ele><time>2026-04-15T08:13:04.843Z</time></trkpt><trkpt lat="42.65888" lon="-7.2238817"><ele>1295.5</ele><time>2026-04-15T08:13:05.843Z</time></trkpt><trkpt lat="42.658805" lon="-7.2238917"><ele>1298.0</ele><time>2026-04-15T08:13:06.843Z</time></trkpt><trkpt lat="42.6587117" lon="-7.2238983"><ele>1298.0</ele><time>2026-04-15T08:13:07.843Z</time></trkpt><trkpt lat="42.6585883" lon="-7.223905"><ele>1298.0</ele><time>2026-04-15T08:13:08.843Z</time></trkpt><trkpt lat="42.6584383" lon="-7.2239267"><ele>1298.0</ele><time>2026-04-15T08:13:09.842Z</time></trkpt><trkpt lat="42.6582617" lon="-7.2239533"><ele>1298.0</ele><time>2026-04-15T08:13:10.842Z</time></trkpt><trkpt lat="42.6580767" lon="-7.2239783"><ele>1298.0</ele><time>2026-04-15T08:13:11.843Z</time></trkpt><trkpt lat="42.6578917" lon="-7.22399"><ele>1298.0</ele><time>2026-04-15T08:13:12.842Z</time></trkpt><trkpt lat="42.6576867" lon="-7.224"><ele>1290.5</ele><time>2026-04-15T08:13:13.842Z</time></trkpt><trkpt lat="42.657465" lon="-7.22401"><ele>1283.0</ele><time>2026-04-15T08:13:14.842Z</time></trkpt><trkpt lat="42.6572217" lon="-7.2240183"><ele>1283.0</ele><time>2026-04-15T08:13:15.842Z</time></trkpt><trkpt lat="42.6569933" lon="-7.2240217"><ele>1283.0</ele><time>2026-04-15T08:13:16.842Z</time></trkpt><trkpt lat="42.6567733" lon="-7.2240333"><ele>1283.0</ele><time>2026-04-15T08:13:17.842Z</time></trkpt><trkpt lat="42.6565683" lon="-7.2240567"><ele>1283.0</ele><time>2026-04-15T08:13:18.842Z</time></trkpt><trkpt lat="42.6563733" lon="-7.2241033"><ele>1283.0</ele><time>2026-04-15T08:13:19.843Z</time></trkpt><trkpt lat="42.65617" lon="-7.2241633"><ele>1283.0</ele><time>2026-04-15T08:13:20.843Z</time></trkpt><trkpt lat="42.6559633" lon="-7.2242067"><ele>1283.0</ele><time>2026-04-15T08:13:21.842Z</time></trkpt><trkpt lat="42.6557567" lon="-7.224245"><ele>1283.0</ele><time>2026-04-15T08:13:22.842Z</time></trkpt><trkpt lat="42.655545" lon="-7.2242733"><ele>1283.0</ele><time>2026-04-15T08:13:23.842Z</time></trkpt><trkpt lat="42.6553317" lon="-7.2242883"><ele>1282.0</ele><time>2026-04-15T08:13:24.843Z</time></trkpt><trkpt lat="42.6551183" lon="-7.2242767"><ele>1281.0</ele><time>2026-04-15T08:13:25.842Z</time></trkpt><trkpt lat="42.654915" lon="-7.2242517"><ele>1280.0</ele><time>2026-04-15T08:13:26.843Z</time></trkpt><trkpt lat="42.65471" lon="-7.2241833"><ele>1280.0</ele><time>2026-04-15T08:13:27.842Z</time></trkpt><trkpt lat="42.6545083" lon="-7.2240917"><ele>1280.0</ele><time>2026-04-15T08:13:28.842Z</time></trkpt><trkpt lat="42.65431" lon="-7.2239667"><ele>1280.0</ele><time>2026-04-15T08:13:29.843Z</time></trkpt><trkpt lat="42.6541267" lon="-7.2238417"><ele>1285.0</ele><time>2026-04-15T08:13:30.843Z</time></trkpt><trkpt lat="42.6539567" lon="-7.223725"><ele>1290.0</ele><time>2026-04-15T08:13:31.842Z</time></trkpt><trkpt lat="42.65381" lon="-7.2236017"><ele>1295.0</ele><time>2026-04-15T08:13:32.842Z</time></trkpt><trkpt lat="42.6536783" lon="-7.2234583"><ele>1296.3333333333335</ele><time>2026-04-15T08:13:33.842Z</time></trkpt><trkpt lat="42.6535533" lon="-7.2233033"><ele>1297.6666666666667</ele><time>2026-04-15T08:13:34.842Z</time></trkpt><trkpt lat="42.65343" lon="-7.2231283"><ele>1299.0</ele><time>2026-04-15T08:13:35.843Z</time></trkpt><trkpt lat="42.6533" lon="-7.2229433"><ele>1299.0</ele><time>2026-04-15T08:13:36.842Z</time></trkpt><trkpt lat="42.653165" lon="-7.2227367"><ele>1299.0</ele><time>2026-04-15T08:13:37.842Z</time></trkpt><trkpt lat="42.6530233" lon="-7.2225267"><ele>1299.0</ele><time>2026-04-15T08:13:38.842Z</time></trkpt><trkpt lat="42.652875" lon="-7.2223267"><ele>1299.0</ele><time>2026-04-15T08:13:39.843Z</time></trkpt><trkpt lat="42.6527267" lon="-7.222145"><ele>1299.0</ele><time>2026-04-15T08:13:40.843Z</time></trkpt><trkpt lat="42.6525783" lon="-7.221975"><ele>1299.0</ele><time>2026-04-15T08:13:41.843Z</time></trkpt><trkpt lat="42.6524383" lon="-7.2218333"><ele>1299.0</ele><time>2026-04-15T08:13:42.843Z</time></trkpt><trkpt lat="42.652315" lon="-7.2217167"><ele>1299.0</ele><time>2026-04-15T08:13:43.842Z</time></trkpt><trkpt lat="42.6521733" lon="-7.2216133"><ele>1299.0</ele><time>2026-04-15T08:13:44.843Z</time></trkpt><trkpt lat="42.652025" lon="-7.2215183"><ele>1296.75</ele><time>2026-04-15T08:13:45.842Z</time></trkpt><trkpt lat="42.6518767" lon="-7.2214433"><ele>1294.5</ele><time>2026-04-15T08:13:46.842Z</time></trkpt><trkpt lat="42.6517483" lon="-7.221415"><ele>1292.25</ele><time>2026-04-15T08:13:47.843Z</time></trkpt><trkpt lat="42.6516433" lon="-7.22142"><ele>1290.0</ele><time>2026-04-15T08:13:48.842Z</time></trkpt><trkpt lat="42.651555" lon="-7.22149"><ele>1290.0</ele><time>2026-04-15T08:13:49.843Z</time></trkpt><trkpt lat="42.6514767" lon="-7.2216"><ele>1290.0</ele><time>2026-04-15T08:13:50.842Z</time></trkpt><trkpt lat="42.65139" lon="-7.2217767"><ele>1290.0</ele><time>2026-04-15T08:13:51.842Z</time></trkpt><trkpt lat="42.6513133" lon="-7.221995"><ele>1290.0</ele><time>2026-04-15T08:13:52.842Z</time></trkpt><trkpt lat="42.6512533" lon="-7.2222383"><ele>1290.25</ele><time>2026-04-15T08:13:53.842Z</time></trkpt><trkpt lat="42.6512033" lon="-7.22247"><ele>1290.5</ele><time>2026-04-15T08:13:54.842Z</time></trkpt><trkpt lat="42.651155" lon="-7.222645"><ele>1290.75</ele><time>2026-04-15T08:13:55.842Z</time></trkpt><trkpt lat="42.6510933" lon="-7.22279"><ele>1291.0</ele><time>2026-04-15T08:13:56.842Z</time></trkpt><trkpt lat="42.6510217" lon="-7.2228817"><ele>1291.0</ele><time>2026-04-15T08:13:57.842Z</time></trkpt><trkpt lat="42.6509367" lon="-7.2229467"><ele>1291.0</ele><time>2026-04-15T08:13:58.842Z</time></trkpt><trkpt lat="42.6508367" lon="-7.223"><ele>1291.0</ele><time>2026-04-15T08:13:59.842Z</time></trkpt><trkpt lat="42.6507267" lon="-7.2230367"><ele>1291.0</ele><time>2026-04-15T08:14:00.843Z</time></trkpt><trkpt lat="42.6506" lon="-7.2230317"><ele>1291.0</ele><time>2026-04-15T08:14:01.842Z</time></trkpt><trkpt lat="42.6504733" lon="-7.22298"><ele>1291.0</ele><time>2026-04-15T08:14:02.842Z</time></trkpt><trkpt lat="42.6503417" lon="-7.2228817"><ele>1291.0</ele><time>2026-04-15T08:14:03.842Z</time></trkpt><trkpt lat="42.6502067" lon="-7.2227667"><ele>1291.0</ele><time>2026-04-15T08:14:04.843Z</time></trkpt><trkpt lat="42.6500733" lon="-7.2226367"><ele>1291.6666666666665</ele><time>2026-04-15T08:14:05.843Z</time></trkpt><trkpt lat="42.6499583" lon="-7.22248"><ele>1292.3333333333333</ele><time>2026-04-15T08:14:06.842Z</time></trkpt><trkpt lat="42.6498383" lon="-7.22229"><ele>1293.0</ele><time>2026-04-15T08:14:07.842Z</time></trkpt><trkpt lat="42.6497217" lon="-7.222075"><ele>1293.0</ele><time>2026-04-15T08:14:08.843Z</time></trkpt><trkpt lat="42.649585" lon="-7.22184"><ele>1293.0</ele><time>2026-04-15T08:14:09.843Z</time></trkpt><trkpt lat="42.6494383" lon="-7.2216183"><ele>1293.0</ele><time>2026-04-15T08:14:10.843Z</time></trkpt><trkpt lat="42.6493" lon="-7.2214167"><ele>1292.0</ele><time>2026-04-15T08:14:11.843Z</time></trkpt><trkpt lat="42.6491633" lon="-7.2212467"><ele>1291.0</ele><time>2026-04-15T08:14:12.843Z</time></trkpt><trkpt lat="42.649035" lon="-7.2211233"><ele>1290.0</ele><time>2026-04-15T08:14:13.842Z</time></trkpt><trkpt lat="42.6488783" lon="-7.2210267"><ele>1290.0</ele><time>2026-04-15T08:14:14.843Z</time></trkpt><trkpt lat="42.6487183" lon="-7.2209483"><ele>1290.0</ele><time>2026-04-15T08:14:15.842Z</time></trkpt><trkpt lat="42.64854" lon="-7.220885"><ele>1290.0</ele><time>2026-04-15T08:14:16.842Z</time></trkpt><trkpt lat="42.64835" lon="-7.2208283"><ele>1291.0</ele><time>2026-04-15T08:14:17.842Z</time></trkpt><trkpt lat="42.6481533" lon="-7.220765"><ele>1292.0</ele><time>2026-04-15T08:14:18.842Z</time></trkpt><trkpt lat="42.6479517" lon="-7.220675"><ele>1293.0</ele><time>2026-04-15T08:14:19.842Z</time></trkpt><trkpt lat="42.6477583" lon="-7.2205783"><ele>1293.0</ele><time>2026-04-15T08:14:20.842Z</time></trkpt><trkpt lat="42.647595" lon="-7.2204817"><ele>1293.0</ele><time>2026-04-15T08:14:21.842Z</time></trkpt><trkpt lat="42.6474317" lon="-7.2203633"><ele>1293.0</ele><time>2026-04-15T08:14:22.843Z</time></trkpt><trkpt lat="42.6473017" lon="-7.22022"><ele>1293.0</ele><time>2026-04-15T08:14:23.843Z</time></trkpt><trkpt lat="42.6472033" lon="-7.220065"><ele>1293.0</ele><time>2026-04-15T08:14:24.843Z</time></trkpt><trkpt lat="42.6471083" lon="-7.2198917"><ele>1293.0</ele><time>2026-04-15T08:14:25.843Z</time></trkpt><trkpt lat="42.6470167" lon="-7.219705"><ele>1293.0</ele><time>2026-04-15T08:14:26.843Z</time></trkpt><trkpt lat="42.6469333" lon="-7.21952"><ele>1293.0</ele><time>2026-04-15T08:14:27.843Z</time></trkpt><trkpt lat="42.6468533" lon="-7.2193583"><ele>1293.0</ele><time>2026-04-15T08:14:28.842Z</time></trkpt><trkpt lat="42.6467783" lon="-7.2192133"><ele>1293.0</ele><time>2026-04-15T08:14:29.842Z</time></trkpt><trkpt lat="42.6467117" lon="-7.2190533"><ele>1297.3333333333333</ele><time>2026-04-15T08:14:30.842Z</time></trkpt><trkpt lat="42.6466517" lon="-7.2188717"><ele>1301.6666666666665</ele><time>2026-04-15T08:14:31.843Z</time></trkpt><trkpt lat="42.6465917" lon="-7.2186783"><ele>1306.0</ele><time>2026-04-15T08:14:32.843Z</time></trkpt><trkpt lat="42.64653" lon="-7.2184783"><ele>1306.0</ele><time>2026-04-15T08:14:33.842Z</time></trkpt><trkpt lat="42.646485" lon="-7.2182533"><ele>1306.0</ele><time>2026-04-15T08:14:34.842Z</time></trkpt><trkpt lat="42.6464483" lon="-7.2180067"><ele>1306.0</ele><time>2026-04-15T08:14:35.842Z</time></trkpt><trkpt lat="42.646435" lon="-7.2177583"><ele>1308.6666666666665</ele><time>2026-04-15T08:14:36.842Z</time></trkpt><trkpt lat="42.6464283" lon="-7.2175333"><ele>1311.3333333333333</ele><time>2026-04-15T08:14:37.842Z</time></trkpt><trkpt lat="42.6464167" lon="-7.2173283"><ele>1314.0</ele><time>2026-04-15T08:14:38.842Z</time></trkpt><trkpt lat="42.6464267" lon="-7.21714"><ele>1314.0</ele><time>2026-04-15T08:14:39.842Z</time></trkpt><trkpt lat="42.64646" lon="-7.216945"><ele>1314.0</ele><time>2026-04-15T08:14:40.843Z</time></trkpt><trkpt lat="42.6465067" lon="-7.216755"><ele>1314.0</ele><time>2026-04-15T08:14:41.842Z</time></trkpt><trkpt lat="42.6465733" lon="-7.2165633"><ele>1313.3333333333333</ele><time>2026-04-15T08:14:42.842Z</time></trkpt><trkpt lat="42.64665" lon="-7.216365"><ele>1312.6666666666665</ele><time>2026-04-15T08:14:43.843Z</time></trkpt><trkpt lat="42.6467317" lon="-7.2161533"><ele>1312.0</ele><time>2026-04-15T08:14:44.842Z</time></trkpt><trkpt lat="42.6468067" lon="-7.2159233"><ele>1312.0</ele><time>2026-04-15T08:14:45.843Z</time></trkpt><trkpt lat="42.6468817" lon="-7.2156933"><ele>1312.0</ele><time>2026-04-15T08:14:46.842Z</time></trkpt><trkpt lat="42.64697" lon="-7.21549"><ele>1312.0</ele><time>2026-04-15T08:14:47.842Z</time></trkpt><trkpt lat="42.647065" lon="-7.215295"><ele>1315.5</ele><time>2026-04-15T08:14:48.842Z</time></trkpt><trkpt lat="42.6471483" lon="-7.2151167"><ele>1319.0</ele><time>2026-04-15T08:14:49.843Z</time></trkpt><trkpt lat="42.64721" lon="-7.2149467"><ele>1322.5</ele><time>2026-04-15T08:14:50.843Z</time></trkpt><trkpt lat="42.6472617" lon="-7.21477"><ele>1326.0</ele><time>2026-04-15T08:14:51.843Z</time></trkpt><trkpt lat="42.64729" lon="-7.214575"><ele>1326.0</ele><time>2026-04-15T08:14:52.843Z</time></trkpt><trkpt lat="42.647295" lon="-7.2143633"><ele>1326.0</ele><time>2026-04-15T08:14:53.842Z</time></trkpt><trkpt lat="42.6472867" lon="-7.2141433"><ele>1326.0</ele><time>2026-04-15T08:14:54.842Z</time></trkpt><trkpt lat="42.6472917" lon="-7.213945"><ele>1323.75</ele><time>2026-04-15T08:14:55.843Z</time></trkpt><trkpt lat="42.64731" lon="-7.213765"><ele>1321.5</ele><time>2026-04-15T08:14:56.843Z</time></trkpt><trkpt lat="42.6473467" lon="-7.2136133"><ele>1319.25</ele><time>2026-04-15T08:14:57.843Z</time></trkpt><trkpt lat="42.6474083" lon="-7.213495"><ele>1317.0</ele><time>2026-04-15T08:14:58.842Z</time></trkpt><trkpt lat="42.6475033" lon="-7.2133967"><ele>1317.0</ele><time>2026-04-15T08:14:59.842Z</time></trkpt><trkpt lat="42.64762" lon="-7.2133"><ele>1317.0</ele><time>2026-04-15T08:15:00.842Z</time></trkpt><trkpt lat="42.64774" lon="-7.2131867"><ele>1317.0</ele><time>2026-04-15T08:15:01.843Z</time></trkpt><trkpt lat="42.647855" lon="-7.213045"><ele>1317.0</ele><time>2026-04-15T08:15:02.843Z</time></trkpt><trkpt lat="42.6479683" lon="-7.2128817"><ele>1321.0</ele><time>2026-04-15T08:15:03.843Z</time></trkpt><trkpt lat="42.6480667" lon="-7.2127067"><ele>1325.0</ele><time>2026-04-15T08:15:04.843Z</time></trkpt><trkpt lat="42.648165" lon="-7.212555"><ele>1329.0</ele><time>2026-04-15T08:15:05.842Z</time></trkpt><trkpt lat="42.6482683" lon="-7.212415"><ele>1330.25</ele><time>2026-04-15T08:15:06.842Z</time></trkpt><trkpt lat="42.6483783" lon="-7.2122983"><ele>1331.5</ele><time>2026-04-15T08:15:07.842Z</time></trkpt><trkpt lat="42.6484883" lon="-7.2121917"><ele>1332.75</ele><time>2026-04-15T08:15:08.842Z</time></trkpt><trkpt lat="42.648605" lon="-7.2120783"><ele>1334.0</ele><time>2026-04-15T08:15:09.842Z</time></trkpt><trkpt lat="42.6487167" lon="-7.2119883"><ele>1334.0</ele><time>2026-04-15T08:15:10.842Z</time></trkpt><trkpt lat="42.648795" lon="-7.211915"><ele>1334.0</ele><time>2026-04-15T08:15:11.842Z</time></trkpt><trkpt lat="42.6488317" lon="-7.2118233"><ele>1334.0</ele><time>2026-04-15T08:15:13.843Z</time></trkpt><trkpt lat="42.648735" lon="-7.21173"><ele>1334.0</ele><time>2026-04-15T08:15:15.843Z</time></trkpt><trkpt lat="42.6486417" lon="-7.211685"><ele>1334.0</ele><time>2026-04-15T08:15:16.842Z</time></trkpt><trkpt lat="42.648535" lon="-7.2116383"><ele>1334.0</ele><time>2026-04-15T08:15:17.843Z</time></trkpt><trkpt lat="42.64841" lon="-7.2115867"><ele>1334.0</ele><time>2026-04-15T08:15:18.842Z</time></trkpt><trkpt lat="42.6482733" lon="-7.2115367"><ele>1334.0</ele><time>2026-04-15T08:15:19.842Z</time></trkpt><trkpt lat="42.64814" lon="-7.2114967"><ele>1334.0</ele><time>2026-04-15T08:15:20.842Z</time></trkpt><trkpt lat="42.6480083" lon="-7.2114433"><ele>1336.3333333333335</ele><time>2026-04-15T08:15:21.843Z</time></trkpt><trkpt lat="42.647865" lon="-7.2113833"><ele>1338.6666666666667</ele><time>2026-04-15T08:15:22.843Z</time></trkpt><trkpt lat="42.6477183" lon="-7.2113033"><ele>1341.0</ele><time>2026-04-15T08:15:23.842Z</time></trkpt><trkpt lat="42.6475867" lon="-7.2112017"><ele>1341.0</ele><time>2026-04-15T08:15:24.842Z</time></trkpt><trkpt lat="42.6474583" lon="-7.2110717"><ele>1341.0</ele><time>2026-04-15T08:15:25.842Z</time></trkpt><trkpt lat="42.6473183" lon="-7.21092"><ele>1341.0</ele><time>2026-04-15T08:15:26.843Z</time></trkpt><trkpt lat="42.64718" lon="-7.210765"><ele>1342.6666666666667</ele><time>2026-04-15T08:15:27.842Z</time></trkpt><trkpt lat="42.6470233" lon="-7.21061"><ele>1344.3333333333335</ele><time>2026-04-15T08:15:28.842Z</time></trkpt><trkpt lat="42.6468567" lon="-7.2104617"><ele>1346.0</ele><time>2026-04-15T08:15:29.842Z</time></trkpt><trkpt lat="42.6466933" lon="-7.21031"><ele>1346.0</ele><time>2026-04-15T08:15:30.842Z</time></trkpt><trkpt lat="42.64655" lon="-7.2101733"><ele>1346.0</ele><time>2026-04-15T08:15:31.842Z</time></trkpt><trkpt lat="42.6464167" lon="-7.210035"><ele>1346.0</ele><time>2026-04-15T08:15:32.842Z</time></trkpt><trkpt lat="42.6463083" lon="-7.2099"><ele>1343.75</ele><time>2026-04-15T08:15:33.842Z</time></trkpt><trkpt lat="42.646215" lon="-7.209775"><ele>1341.5</ele><time>2026-04-15T08:15:34.842Z</time></trkpt><trkpt lat="42.64613" lon="-7.209635"><ele>1339.25</ele><time>2026-04-15T08:15:35.843Z</time></trkpt><trkpt lat="42.6460517" lon="-7.2094917"><ele>1337.0</ele><time>2026-04-15T08:15:36.842Z</time></trkpt><trkpt lat="42.64599" lon="-7.209325"><ele>1337.0</ele><time>2026-04-15T08:15:37.842Z</time></trkpt><trkpt lat="42.6459433" lon="-7.2091317"><ele>1337.0</ele><time>2026-04-15T08:15:38.843Z</time></trkpt><trkpt lat="42.6459067" lon="-7.20892"><ele>1337.0</ele><time>2026-04-15T08:15:39.842Z</time></trkpt><trkpt lat="42.6458667" lon="-7.2087167"><ele>1338.3333333333335</ele><time>2026-04-15T08:15:40.843Z</time></trkpt><trkpt lat="42.645815" lon="-7.208525"><ele>1339.6666666666667</ele><time>2026-04-15T08:15:41.843Z</time></trkpt><trkpt lat="42.6457483" lon="-7.2083383"><ele>1341.0</ele><time>2026-04-15T08:15:42.842Z</time></trkpt><trkpt lat="42.645665" lon="-7.20817"><ele>1343.3333333333333</ele><time>2026-04-15T08:15:43.843Z</time></trkpt><trkpt lat="42.645565" lon="-7.2080167"><ele>1345.6666666666665</ele><time>2026-04-15T08:15:44.842Z</time></trkpt><trkpt lat="42.6454617" lon="-7.207865"><ele>1348.0</ele><time>2026-04-15T08:15:45.842Z</time></trkpt><trkpt lat="42.6453433" lon="-7.2077083"><ele>1343.0</ele><time>2026-04-15T08:15:46.842Z</time></trkpt><trkpt lat="42.6452167" lon="-7.2075583"><ele>1338.0</ele><time>2026-04-15T08:15:47.842Z</time></trkpt><trkpt lat="42.6450917" lon="-7.2074017"><ele>1333.0</ele><time>2026-04-15T08:15:48.842Z</time></trkpt><trkpt lat="42.6449483" lon="-7.2072483"><ele>1333.0</ele><time>2026-04-15T08:15:49.843Z</time></trkpt><trkpt lat="42.6448117" lon="-7.2071017"><ele>1333.0</ele><time>2026-04-15T08:15:50.842Z</time></trkpt><trkpt lat="42.6446733" lon="-7.2069783"><ele>1333.0</ele><time>2026-04-15T08:15:51.843Z</time></trkpt><trkpt lat="42.6445483" lon="-7.2068717"><ele>1329.8000000000002</ele><time>2026-04-15T08:15:52.843Z</time></trkpt><trkpt lat="42.6444517" lon="-7.2067717"><ele>1326.6</ele><time>2026-04-15T08:15:53.842Z</time></trkpt><trkpt lat="42.6443867" lon="-7.2066767"><ele>1323.4</ele><time>2026-04-15T08:15:54.842Z</time></trkpt><trkpt lat="42.64436" lon="-7.2065917"><ele>1320.1999999999998</ele><time>2026-04-15T08:15:55.843Z</time></trkpt><trkpt lat="42.6444017" lon="-7.2064333"><ele>1317.0</ele><time>2026-04-15T08:15:57.843Z</time></trkpt><trkpt lat="42.6444567" lon="-7.2063333"><ele>1320.75</ele><time>2026-04-15T08:15:58.843Z</time></trkpt><trkpt lat="42.6445283" lon="-7.2062167"><ele>1324.5</ele><time>2026-04-15T08:15:59.843Z</time></trkpt><trkpt lat="42.6445967" lon="-7.2060617"><ele>1328.25</ele><time>2026-04-15T08:16:00.843Z</time></trkpt><trkpt lat="42.6446283" lon="-7.2058833"><ele>1332.0</ele><time>2026-04-15T08:16:01.843Z</time></trkpt><trkpt lat="42.644615" lon="-7.2056767"><ele>1331.6666666666667</ele><time>2026-04-15T08:16:02.842Z</time></trkpt><trkpt lat="42.6445767" lon="-7.20547"><ele>1331.3333333333335</ele><time>2026-04-15T08:16:03.842Z</time></trkpt><trkpt lat="42.6445183" lon="-7.2052483"><ele>1331.0</ele><time>2026-04-15T08:16:04.842Z</time></trkpt><trkpt lat="42.64445" lon="-7.2050183"><ele>1323.6666666666667</ele><time>2026-04-15T08:16:05.842Z</time></trkpt><trkpt lat="42.644365" lon="-7.2047933"><ele>1316.3333333333333</ele><time>2026-04-15T08:16:06.843Z</time></trkpt><trkpt lat="42.6442567" lon="-7.2045667"><ele>1309.0</ele><time>2026-04-15T08:16:07.842Z</time></trkpt><trkpt lat="42.6441483" lon="-7.2043333"><ele>1309.0</ele><time>2026-04-15T08:16:08.843Z</time></trkpt><trkpt lat="42.6440367" lon="-7.2040933"><ele>1309.0</ele><time>2026-04-15T08:16:09.843Z</time></trkpt><trkpt lat="42.643935" lon="-7.2038517"><ele>1309.0</ele><time>2026-04-15T08:16:10.842Z</time></trkpt><trkpt lat="42.6438317" lon="-7.2036117"><ele>1311.3333333333333</ele><time>2026-04-15T08:16:11.843Z</time></trkpt><trkpt lat="42.643735" lon="-7.2033817"><ele>1313.6666666666667</ele><time>2026-04-15T08:16:12.842Z</time></trkpt><trkpt lat="42.6436367" lon="-7.2031583"><ele>1316.0</ele><time>2026-04-15T08:16:13.843Z</time></trkpt><trkpt lat="42.6435333" lon="-7.2029183"><ele>1312.6666666666667</ele><time>2026-04-15T08:16:14.843Z</time></trkpt><trkpt lat="42.6434217" lon="-7.2026817"><ele>1309.3333333333333</ele><time>2026-04-15T08:16:15.842Z</time></trkpt><trkpt lat="42.643305" lon="-7.20246"><ele>1306.0</ele><time>2026-04-15T08:16:16.843Z</time></trkpt><trkpt lat="42.6431867" lon="-7.2022367"><ele>1306.0</ele><time>2026-04-15T08:16:17.843Z</time></trkpt><trkpt lat="42.643085" lon="-7.2020117"><ele>1306.0</ele><time>2026-04-15T08:16:18.842Z</time></trkpt><trkpt lat="42.6430067" lon="-7.20178"><ele>1306.0</ele><time>2026-04-15T08:16:19.843Z</time></trkpt><trkpt lat="42.6429417" lon="-7.2015617"><ele>1306.0</ele><time>2026-04-15T08:16:20.842Z</time></trkpt><trkpt lat="42.6428917" lon="-7.2013433"><ele>1306.0</ele><time>2026-04-15T08:16:21.843Z</time></trkpt><trkpt lat="42.642855" lon="-7.2011117"><ele>1306.0</ele><time>2026-04-15T08:16:22.843Z</time></trkpt><trkpt lat="42.6428317" lon="-7.2008817"><ele>1306.0</ele><time>2026-04-15T08:16:23.843Z</time></trkpt><trkpt lat="42.6428183" lon="-7.2006833"><ele>1306.0</ele><time>2026-04-15T08:16:24.842Z</time></trkpt><trkpt lat="42.6428183" lon="-7.200505"><ele>1306.0</ele><time>2026-04-15T08:16:25.842Z</time></trkpt><trkpt lat="42.6428267" lon="-7.2003267"><ele>1306.0</ele><time>2026-04-15T08:16:26.843Z</time></trkpt><trkpt lat="42.6428417" lon="-7.2001667"><ele>1304.4</ele><time>2026-04-15T08:16:27.842Z</time></trkpt><trkpt lat="42.6428633" lon="-7.20001"><ele>1302.8</ele><time>2026-04-15T08:16:28.842Z</time></trkpt><trkpt lat="42.6428967" lon="-7.1998583"><ele>1301.2</ele><time>2026-04-15T08:16:29.842Z</time></trkpt><trkpt lat="42.642945" lon="-7.19973"><ele>1299.6000000000001</ele><time>2026-04-15T08:16:30.843Z</time></trkpt><trkpt lat="42.64301" lon="-7.1996183"><ele>1298.0</ele><time>2026-04-15T08:16:31.842Z</time></trkpt><trkpt lat="42.6430983" lon="-7.1995117"><ele>1294.5</ele><time>2026-04-15T08:16:32.843Z</time></trkpt><trkpt lat="42.643205" lon="-7.1993967"><ele>1291.0</ele><time>2026-04-15T08:16:33.843Z</time></trkpt><trkpt lat="42.6433167" lon="-7.1992867"><ele>1287.5</ele><time>2026-04-15T08:16:34.843Z</time></trkpt><trkpt lat="42.643425" lon="-7.199175"><ele>1284.0</ele><time>2026-04-15T08:16:35.843Z</time></trkpt><trkpt lat="42.6435167" lon="-7.1990517"><ele>1281.5</ele><time>2026-04-15T08:16:36.843Z</time></trkpt><trkpt lat="42.64358" lon="-7.198915"><ele>1279.0</ele><time>2026-04-15T08:16:37.842Z</time></trkpt><trkpt lat="42.64362" lon="-7.1987567"><ele>1276.5</ele><time>2026-04-15T08:16:38.843Z</time></trkpt><trkpt lat="42.643655" lon="-7.1985883"><ele>1274.0</ele><time>2026-04-15T08:16:39.842Z</time></trkpt><trkpt lat="42.6436833" lon="-7.1984217"><ele>1277.0</ele><time>2026-04-15T08:16:40.843Z</time></trkpt><trkpt lat="42.6437117" lon="-7.1982683"><ele>1280.0</ele><time>2026-04-15T08:16:41.843Z</time></trkpt><trkpt lat="42.6437433" lon="-7.1981117"><ele>1283.0</ele><time>2026-04-15T08:16:42.843Z</time></trkpt><trkpt lat="42.6437733" lon="-7.19795"><ele>1286.0</ele><time>2026-04-15T08:16:43.843Z</time></trkpt><trkpt lat="42.6438" lon="-7.1977783"><ele>1286.0</ele><time>2026-04-15T08:16:44.843Z</time></trkpt><trkpt lat="42.6438317" lon="-7.1975933"><ele>1286.0</ele><time>2026-04-15T08:16:45.842Z</time></trkpt><trkpt lat="42.64386" lon="-7.1974083"><ele>1286.0</ele><time>2026-04-15T08:16:46.842Z</time></trkpt><trkpt lat="42.6438733" lon="-7.1972267"><ele>1286.0</ele><time>2026-04-15T08:16:47.842Z</time></trkpt><trkpt lat="42.6438733" lon="-7.1970783"><ele>1285.1666666666667</ele><time>2026-04-15T08:16:48.842Z</time></trkpt><trkpt lat="42.64385" lon="-7.196965"><ele>1284.3333333333335</ele><time>2026-04-15T08:16:49.842Z</time></trkpt><trkpt lat="42.643815" lon="-7.1968883"><ele>1283.5</ele><time>2026-04-15T08:16:50.842Z</time></trkpt><trkpt lat="42.643715" lon="-7.1968383"><ele>1282.6666666666667</ele><time>2026-04-15T08:16:52.843Z</time></trkpt><trkpt lat="42.643635" lon="-7.196855"><ele>1281.8333333333333</ele><time>2026-04-15T08:16:53.843Z</time></trkpt><trkpt lat="42.643545" lon="-7.1968667"><ele>1281.0</ele><time>2026-04-15T08:16:54.842Z</time></trkpt><trkpt lat="42.643455" lon="-7.1968767"><ele>1279.3999999999999</ele><time>2026-04-15T08:16:55.842Z</time></trkpt><trkpt lat="42.6433667" lon="-7.1968833"><ele>1277.8</ele><time>2026-04-15T08:16:56.842Z</time></trkpt><trkpt lat="42.6432683" lon="-7.196905"><ele>1276.1999999999998</ele><time>2026-04-15T08:16:57.843Z</time></trkpt><trkpt lat="42.6431667" lon="-7.1969067"><ele>1274.6</ele><time>2026-04-15T08:16:58.843Z</time></trkpt><trkpt lat="42.6430533" lon="-7.1969017"><ele>1273.0</ele><time>2026-04-15T08:16:59.843Z</time></trkpt><trkpt lat="42.6429417" lon="-7.1968917"><ele>1273.0</ele><time>2026-04-15T08:17:00.843Z</time></trkpt><trkpt lat="42.64284" lon="-7.1968783"><ele>1273.0</ele><time>2026-04-15T08:17:01.842Z</time></trkpt><trkpt lat="42.6427333" lon="-7.1968667"><ele>1273.0</ele><time>2026-04-15T08:17:02.842Z</time></trkpt><trkpt lat="42.64262" lon="-7.1968633"><ele>1273.0</ele><time>2026-04-15T08:17:03.843Z</time></trkpt><trkpt lat="42.6425017" lon="-7.1968583"><ele>1273.0</ele><time>2026-04-15T08:17:04.843Z</time></trkpt><trkpt lat="42.642385" lon="-7.1968467"><ele>1271.25</ele><time>2026-04-15T08:17:05.843Z</time></trkpt><trkpt lat="42.6422633" lon="-7.1968217"><ele>1269.5</ele><time>2026-04-15T08:17:06.842Z</time></trkpt><trkpt lat="42.6421467" lon="-7.196795"><ele>1267.75</ele><time>2026-04-15T08:17:07.843Z</time></trkpt><trkpt lat="42.64203" lon="-7.1967617"><ele>1266.0</ele><time>2026-04-15T08:17:08.843Z</time></trkpt><trkpt lat="42.6419217" lon="-7.1967267"><ele>1263.5</ele><time>2026-04-15T08:17:09.844Z</time></trkpt><trkpt lat="42.6418167" lon="-7.1966817"><ele>1261.0</ele><time>2026-04-15T08:17:10.844Z</time></trkpt><trkpt lat="42.6416983" lon="-7.1966317"><ele>1258.5</ele><time>2026-04-15T08:17:11.844Z</time></trkpt><trkpt lat="42.6415883" lon="-7.1965733"><ele>1256.0</ele><time>2026-04-15T08:17:12.843Z</time></trkpt><trkpt lat="42.6414817" lon="-7.1965183"><ele>1259.0</ele><time>2026-04-15T08:17:13.843Z</time></trkpt><trkpt lat="42.6413717" lon="-7.1964617"><ele>1262.0</ele><time>2026-04-15T08:17:14.844Z</time></trkpt><trkpt lat="42.6412583" lon="-7.1964"><ele>1265.0</ele><time>2026-04-15T08:17:15.844Z</time></trkpt><trkpt lat="42.641155" lon="-7.19635"><ele>1268.0</ele><time>2026-04-15T08:17:16.844Z</time></trkpt><trkpt lat="42.6410583" lon="-7.1963433"><ele>1271.0</ele><time>2026-04-15T08:17:17.844Z</time></trkpt><trkpt lat="42.6409617" lon="-7.1963833"><ele>1271.0</ele><time>2026-04-15T08:17:18.843Z</time></trkpt><trkpt lat="42.640865" lon="-7.19644"><ele>1271.0</ele><time>2026-04-15T08:17:19.843Z</time></trkpt><trkpt lat="42.640775" lon="-7.1965117"><ele>1271.0</ele><time>2026-04-15T08:17:20.844Z</time></trkpt><trkpt lat="42.6406883" lon="-7.196585"><ele>1271.0</ele><time>2026-04-15T08:17:21.844Z</time></trkpt><trkpt lat="42.6405983" lon="-7.196655"><ele>1271.0</ele><time>2026-04-15T08:17:22.843Z</time></trkpt><trkpt lat="42.6404883" lon="-7.1967167"><ele>1265.25</ele><time>2026-04-15T08:17:23.844Z</time></trkpt><trkpt lat="42.6403583" lon="-7.1967617"><ele>1259.5</ele><time>2026-04-15T08:17:24.843Z</time></trkpt><trkpt lat="42.6402117" lon="-7.1967817"><ele>1253.75</ele><time>2026-04-15T08:17:25.843Z</time></trkpt><trkpt lat="42.6400467" lon="-7.19679"><ele>1248.0</ele><time>2026-04-15T08:17:26.844Z</time></trkpt><trkpt lat="42.63989" lon="-7.1968"><ele>1248.0</ele><time>2026-04-15T08:17:27.844Z</time></trkpt><trkpt lat="42.639735" lon="-7.1968"><ele>1248.0</ele><time>2026-04-15T08:17:28.844Z</time></trkpt><trkpt lat="42.63959" lon="-7.1967717"><ele>1248.0</ele><time>2026-04-15T08:17:29.844Z</time></trkpt><trkpt lat="42.6394517" lon="-7.19674"><ele>1248.0</ele><time>2026-04-15T08:17:30.844Z</time></trkpt><trkpt lat="42.6393" lon="-7.196685"><ele>1245.3333333333333</ele><time>2026-04-15T08:17:31.844Z</time></trkpt><trkpt lat="42.639135" lon="-7.1966183"><ele>1242.6666666666665</ele><time>2026-04-15T08:17:32.843Z</time></trkpt><trkpt lat="42.63898" lon="-7.1965417"><ele>1240.0</ele><time>2026-04-15T08:17:33.843Z</time></trkpt><trkpt lat="42.6388217" lon="-7.1964683"><ele>1239.3333333333333</ele><time>2026-04-15T08:17:34.844Z</time></trkpt><trkpt lat="42.638655" lon="-7.1963833"><ele>1238.6666666666667</ele><time>2026-04-15T08:17:35.844Z</time></trkpt><trkpt lat="42.6384717" lon="-7.1963033"><ele>1238.0</ele><time>2026-04-15T08:17:36.843Z</time></trkpt><trkpt lat="42.6382867" lon="-7.1962067"><ele>1238.0</ele><time>2026-04-15T08:17:37.843Z</time></trkpt><trkpt lat="42.6381067" lon="-7.1961233"><ele>1238.0</ele><time>2026-04-15T08:17:38.844Z</time></trkpt><trkpt lat="42.6379367" lon="-7.196045"><ele>1238.0</ele><time>2026-04-15T08:17:39.844Z</time></trkpt><trkpt lat="42.6377833" lon="-7.1959733"><ele>1236.0</ele><time>2026-04-15T08:17:40.843Z</time></trkpt><trkpt lat="42.6376417" lon="-7.1958983"><ele>1234.0</ele><time>2026-04-15T08:17:41.844Z</time></trkpt><trkpt lat="42.63751" lon="-7.19582"><ele>1232.0</ele><time>2026-04-15T08:17:42.844Z</time></trkpt><trkpt lat="42.6373983" lon="-7.1957417"><ele>1230.0</ele><time>2026-04-15T08:17:43.843Z</time></trkpt><trkpt lat="42.6373067" lon="-7.1956583"><ele>1230.0</ele><time>2026-04-15T08:17:44.844Z</time></trkpt><trkpt lat="42.6372333" lon="-7.1956033"><ele>1230.0</ele><time>2026-04-15T08:17:45.844Z</time></trkpt><trkpt lat="42.63716" lon="-7.1955817"><ele>1230.0</ele><time>2026-04-15T08:17:46.843Z</time></trkpt><trkpt lat="42.6370967" lon="-7.1955967"><ele>1230.0</ele><time>2026-04-15T08:17:47.844Z</time></trkpt><trkpt lat="42.6370433" lon="-7.1956533"><ele>1230.0</ele><time>2026-04-15T08:17:48.844Z</time></trkpt><trkpt lat="42.6370017" lon="-7.1957567"><ele>1230.0</ele><time>2026-04-15T08:17:49.844Z</time></trkpt><trkpt lat="42.636965" lon="-7.1959017"><ele>1226.75</ele><time>2026-04-15T08:17:50.844Z</time></trkpt><trkpt lat="42.6369367" lon="-7.196075"><ele>1223.5</ele><time>2026-04-15T08:17:51.843Z</time></trkpt><trkpt lat="42.6368967" lon="-7.1962683"><ele>1220.25</ele><time>2026-04-15T08:17:52.843Z</time></trkpt><trkpt lat="42.63685" lon="-7.1964733"><ele>1217.0</ele><time>2026-04-15T08:17:53.844Z</time></trkpt><trkpt lat="42.6368017" lon="-7.1966967"><ele>1217.0</ele><time>2026-04-15T08:17:54.844Z</time></trkpt><trkpt lat="42.6367483" lon="-7.1969283"><ele>1217.0</ele><time>2026-04-15T08:17:55.843Z</time></trkpt><trkpt lat="42.6367" lon="-7.19718"><ele>1217.0</ele><time>2026-04-15T08:17:56.843Z</time></trkpt><trkpt lat="42.636645" lon="-7.19743"><ele>1214.3333333333335</ele><time>2026-04-15T08:17:57.844Z</time></trkpt><trkpt lat="42.6365967" lon="-7.197655"><ele>1211.6666666666667</ele><time>2026-04-15T08:17:58.843Z</time></trkpt><trkpt lat="42.6365367" lon="-7.1978867"><ele>1209.0</ele><time>2026-04-15T08:17:59.844Z</time></trkpt><trkpt lat="42.6364717" lon="-7.1981"><ele>1210.0</ele><time>2026-04-15T08:18:00.843Z</time></trkpt><trkpt lat="42.636395" lon="-7.1982867"><ele>1211.0</ele><time>2026-04-15T08:18:01.843Z</time></trkpt><trkpt lat="42.636305" lon="-7.1984383"><ele>1212.0</ele><time>2026-04-15T08:18:02.844Z</time></trkpt><trkpt lat="42.63621" lon="-7.1985567"><ele>1213.0</ele><time>2026-04-15T08:18:03.843Z</time></trkpt><trkpt lat="42.6360883" lon="-7.19865"><ele>1213.0</ele><time>2026-04-15T08:18:04.843Z</time></trkpt><trkpt lat="42.6359667" lon="-7.198725"><ele>1213.0</ele><time>2026-04-15T08:18:05.844Z</time></trkpt><trkpt lat="42.6358467" lon="-7.1987917"><ele>1213.0</ele><time>2026-04-15T08:18:06.843Z</time></trkpt><trkpt lat="42.635715" lon="-7.1988317"><ele>1213.0</ele><time>2026-04-15T08:18:07.844Z</time></trkpt><trkpt lat="42.6355733" lon="-7.1988533"><ele>1213.0</ele><time>2026-04-15T08:18:08.843Z</time></trkpt><trkpt lat="42.635425" lon="-7.1988817"><ele>1213.0</ele><time>2026-04-15T08:18:09.843Z</time></trkpt><trkpt lat="42.6352733" lon="-7.19892"><ele>1213.0</ele><time>2026-04-15T08:18:10.843Z</time></trkpt><trkpt lat="42.63513" lon="-7.1989733"><ele>1209.5</ele><time>2026-04-15T08:18:11.844Z</time></trkpt><trkpt lat="42.635" lon="-7.19905"><ele>1206.0</ele><time>2026-04-15T08:18:12.843Z</time></trkpt><trkpt lat="42.6348867" lon="-7.1991683"><ele>1202.5</ele><time>2026-04-15T08:18:13.843Z</time></trkpt><trkpt lat="42.6347817" lon="-7.1992967"><ele>1199.0</ele><time>2026-04-15T08:18:14.843Z</time></trkpt><trkpt lat="42.6346767" lon="-7.19938"><ele>1199.0</ele><time>2026-04-15T08:18:15.843Z</time></trkpt><trkpt lat="42.6345583" lon="-7.1994333"><ele>1199.0</ele><time>2026-04-15T08:18:16.844Z</time></trkpt><trkpt lat="42.634425" lon="-7.1994783"><ele>1199.0</ele><time>2026-04-15T08:18:17.844Z</time></trkpt><trkpt lat="42.6342967" lon="-7.1995117"><ele>1199.0</ele><time>2026-04-15T08:18:18.844Z</time></trkpt><trkpt lat="42.6341617" lon="-7.1995383"><ele>1199.25</ele><time>2026-04-15T08:18:19.844Z</time></trkpt><trkpt lat="42.6340317" lon="-7.199545"><ele>1199.5</ele><time>2026-04-15T08:18:20.843Z</time></trkpt><trkpt lat="42.633905" lon="-7.1995533"><ele>1199.75</ele><time>2026-04-15T08:18:21.843Z</time></trkpt><trkpt lat="42.63379" lon="-7.1995783"><ele>1200.0</ele><time>2026-04-15T08:18:22.843Z</time></trkpt><trkpt lat="42.63367" lon="-7.19964"><ele>1198.4</ele><time>2026-04-15T08:18:23.843Z</time></trkpt><trkpt lat="42.63356" lon="-7.199695"><ele>1196.8</ele><time>2026-04-15T08:18:24.843Z</time></trkpt><trkpt lat="42.6334683" lon="-7.1997183"><ele>1195.2</ele><time>2026-04-15T08:18:25.844Z</time></trkpt><trkpt lat="42.6333817" lon="-7.1997033"><ele>1193.6</ele><time>2026-04-15T08:18:26.844Z</time></trkpt><trkpt lat="42.6333083" lon="-7.1996467"><ele>1192.0</ele><time>2026-04-15T08:18:27.844Z</time></trkpt><trkpt lat="42.63323" lon="-7.1995633"><ele>1192.0</ele><time>2026-04-15T08:18:28.843Z</time></trkpt><trkpt lat="42.6331467" lon="-7.1994433"><ele>1192.0</ele><time>2026-04-15T08:18:29.844Z</time></trkpt><trkpt lat="42.6330533" lon="-7.1992983"><ele>1192.0</ele><time>2026-04-15T08:18:30.843Z</time></trkpt><trkpt lat="42.6329583" lon="-7.199135"><ele>1192.0</ele><time>2026-04-15T08:18:31.843Z</time></trkpt><trkpt lat="42.6328617" lon="-7.1989683"><ele>1188.75</ele><time>2026-04-15T08:18:32.844Z</time></trkpt><trkpt lat="42.6327617" lon="-7.1987983"><ele>1185.5</ele><time>2026-04-15T08:18:33.844Z</time></trkpt><trkpt lat="42.6326667" lon="-7.19865"><ele>1182.25</ele><time>2026-04-15T08:18:34.843Z</time></trkpt><trkpt lat="42.6325783" lon="-7.198505"><ele>1179.0</ele><time>2026-04-15T08:18:35.843Z</time></trkpt><trkpt lat="42.6324833" lon="-7.198365"><ele>1179.0</ele><time>2026-04-15T08:18:36.843Z</time></trkpt><trkpt lat="42.632395" lon="-7.1982317"><ele>1179.0</ele><time>2026-04-15T08:18:37.844Z</time></trkpt><trkpt lat="42.6323067" lon="-7.1980967"><ele>1179.0</ele><time>2026-04-15T08:18:38.844Z</time></trkpt><trkpt lat="42.6322167" lon="-7.19796"><ele>1179.0</ele><time>2026-04-15T08:18:39.843Z</time></trkpt><trkpt lat="42.6321167" lon="-7.1978033"><ele>1176.6666666666667</ele><time>2026-04-15T08:18:40.843Z</time></trkpt><trkpt lat="42.6320083" lon="-7.197625"><ele>1174.3333333333335</ele><time>2026-04-15T08:18:41.843Z</time></trkpt><trkpt lat="42.6319" lon="-7.1974433"><ele>1172.0</ele><time>2026-04-15T08:18:42.843Z</time></trkpt><trkpt lat="42.6318" lon="-7.1972717"><ele>1172.0</ele><time>2026-04-15T08:18:43.843Z</time></trkpt><trkpt lat="42.6317067" lon="-7.197115"><ele>1172.0</ele><time>2026-04-15T08:18:44.843Z</time></trkpt><trkpt lat="42.63163" lon="-7.1969483"><ele>1172.0</ele><time>2026-04-15T08:18:45.844Z</time></trkpt><trkpt lat="42.6315617" lon="-7.1967883"><ele>1172.0</ele><time>2026-04-15T08:18:46.843Z</time></trkpt><trkpt lat="42.6314967" lon="-7.196605"><ele>1173.0</ele><time>2026-04-15T08:18:47.844Z</time></trkpt><trkpt lat="42.6314317" lon="-7.196425"><ele>1174.0</ele><time>2026-04-15T08:18:48.843Z</time></trkpt><trkpt lat="42.63137" lon="-7.1962467"><ele>1175.0</ele><time>2026-04-15T08:18:49.843Z</time></trkpt><trkpt lat="42.631305" lon="-7.19606"><ele>1176.0</ele><time>2026-04-15T08:18:50.844Z</time></trkpt><trkpt lat="42.6312383" lon="-7.1958717"><ele>1176.0</ele><time>2026-04-15T08:18:51.844Z</time></trkpt><trkpt lat="42.631175" lon="-7.195695"><ele>1176.0</ele><time>2026-04-15T08:18:52.844Z</time></trkpt><trkpt lat="42.631115" lon="-7.1955167"><ele>1176.0</ele><time>2026-04-15T08:18:53.843Z</time></trkpt><trkpt lat="42.6310583" lon="-7.1953517"><ele>1176.0</ele><time>2026-04-15T08:18:54.843Z</time></trkpt><trkpt lat="42.6309867" lon="-7.1951733"><ele>1170.3333333333333</ele><time>2026-04-15T08:18:55.843Z</time></trkpt><trkpt lat="42.63091" lon="-7.19499"><ele>1164.6666666666665</ele><time>2026-04-15T08:18:56.844Z</time></trkpt><trkpt lat="42.630845" lon="-7.1948083"><ele>1159.0</ele><time>2026-04-15T08:18:57.843Z</time></trkpt><trkpt lat="42.63078" lon="-7.1946233"><ele>1159.0</ele><time>2026-04-15T08:18:58.843Z</time></trkpt><trkpt lat="42.6307217" lon="-7.1944417"><ele>1159.0</ele><time>2026-04-15T08:18:59.843Z</time></trkpt><trkpt lat="42.6306683" lon="-7.19426"><ele>1159.0</ele><time>2026-04-15T08:19:00.844Z</time></trkpt><trkpt lat="42.6306167" lon="-7.1940717"><ele>1159.0</ele><time>2026-04-15T08:19:01.843Z</time></trkpt><trkpt lat="42.6305667" lon="-7.1938833"><ele>1159.5</ele><time>2026-04-15T08:19:02.844Z</time></trkpt><trkpt lat="42.6305233" lon="-7.1937083"><ele>1160.0</ele><time>2026-04-15T08:19:03.843Z</time></trkpt><trkpt lat="42.6304817" lon="-7.1935367"><ele>1160.5</ele><time>2026-04-15T08:19:04.843Z</time></trkpt><trkpt lat="42.6304367" lon="-7.1933683"><ele>1161.0</ele><time>2026-04-15T08:19:05.843Z</time></trkpt><trkpt lat="42.6303917" lon="-7.1931967"><ele>1159.75</ele><time>2026-04-15T08:19:06.844Z</time></trkpt><trkpt lat="42.6303483" lon="-7.1930083"><ele>1158.5</ele><time>2026-04-15T08:19:07.844Z</time></trkpt><trkpt lat="42.6303" lon="-7.19283"><ele>1157.25</ele><time>2026-04-15T08:19:08.844Z</time></trkpt><trkpt lat="42.63026" lon="-7.192675"><ele>1156.0</ele><time>2026-04-15T08:19:09.843Z</time></trkpt><trkpt lat="42.6302233" lon="-7.1925383"><ele>1151.8</ele><time>2026-04-15T08:19:10.844Z</time></trkpt><trkpt lat="42.6301867" lon="-7.1924"><ele>1147.6</ele><time>2026-04-15T08:19:11.844Z</time></trkpt><trkpt lat="42.6301617" lon="-7.1922567"><ele>1143.4</ele><time>2026-04-15T08:19:12.843Z</time></trkpt><trkpt lat="42.630145" lon="-7.1921083"><ele>1139.2</ele><time>2026-04-15T08:19:13.843Z</time></trkpt><trkpt lat="42.6301267" lon="-7.1919733"><ele>1135.0</ele><time>2026-04-15T08:19:14.844Z</time></trkpt><trkpt lat="42.6301033" lon="-7.191855"><ele>1134.6</ele><time>2026-04-15T08:19:15.843Z</time></trkpt><trkpt lat="42.6300367" lon="-7.1917567"><ele>1134.2</ele><time>2026-04-15T08:19:17.844Z</time></trkpt><trkpt lat="42.6299717" lon="-7.191835"><ele>1133.8</ele><time>2026-04-15T08:19:19.843Z</time></trkpt><trkpt lat="42.629955" lon="-7.1919217"><ele>1133.4</ele><time>2026-04-15T08:19:20.843Z</time></trkpt><trkpt lat="42.6299533" lon="-7.1920483"><ele>1133.0</ele><time>2026-04-15T08:19:21.844Z</time></trkpt><trkpt lat="42.62995" lon="-7.1921933"><ele>1133.5</ele><time>2026-04-15T08:19:22.844Z</time></trkpt><trkpt lat="42.62993" lon="-7.192355"><ele>1134.0</ele><time>2026-04-15T08:19:23.844Z</time></trkpt><trkpt lat="42.6299133" lon="-7.19253"><ele>1134.5</ele><time>2026-04-15T08:19:24.843Z</time></trkpt><trkpt lat="42.629895" lon="-7.1926933"><ele>1135.0</ele><time>2026-04-15T08:19:25.844Z</time></trkpt><trkpt lat="42.629875" lon="-7.1928533"><ele>1135.0</ele><time>2026-04-15T08:19:26.844Z</time></trkpt><trkpt lat="42.629855" lon="-7.1930317"><ele>1135.0</ele><time>2026-04-15T08:19:27.844Z</time></trkpt><trkpt lat="42.6298317" lon="-7.1932283"><ele>1135.0</ele><time>2026-04-15T08:19:28.844Z</time></trkpt><trkpt lat="42.6298067" lon="-7.1934433"><ele>1135.0</ele><time>2026-04-15T08:19:29.843Z</time></trkpt><trkpt lat="42.6297733" lon="-7.1936567"><ele>1134.0</ele><time>2026-04-15T08:19:30.843Z</time></trkpt><trkpt lat="42.6297333" lon="-7.1938933"><ele>1133.0</ele><time>2026-04-15T08:19:31.843Z</time></trkpt><trkpt lat="42.6296967" lon="-7.194135"><ele>1132.0</ele><time>2026-04-15T08:19:32.843Z</time></trkpt><trkpt lat="42.6296617" lon="-7.194375"><ele>1131.3333333333333</ele><time>2026-04-15T08:19:33.844Z</time></trkpt><trkpt lat="42.6296267" lon="-7.19461"><ele>1130.6666666666667</ele><time>2026-04-15T08:19:34.844Z</time></trkpt><trkpt lat="42.6295933" lon="-7.1948633"><ele>1130.0</ele><time>2026-04-15T08:19:35.844Z</time></trkpt><trkpt lat="42.6295633" lon="-7.1951267"><ele>1128.6666666666667</ele><time>2026-04-15T08:19:36.844Z</time></trkpt><trkpt lat="42.62953" lon="-7.1953883"><ele>1127.3333333333333</ele><time>2026-04-15T08:19:37.844Z</time></trkpt><trkpt lat="42.6294933" lon="-7.1956633"><ele>1126.0</ele><time>2026-04-15T08:19:38.843Z</time></trkpt><trkpt lat="42.629455" lon="-7.195935"><ele>1117.0</ele><time>2026-04-15T08:19:39.843Z</time></trkpt><trkpt lat="42.6294083" lon="-7.1961917"><ele>1108.0</ele><time>2026-04-15T08:19:40.843Z</time></trkpt><trkpt lat="42.629365" lon="-7.1964283"><ele>1099.0</ele><time>2026-04-15T08:19:41.843Z</time></trkpt><trkpt lat="42.6293233" lon="-7.196655"><ele>1098.3333333333333</ele><time>2026-04-15T08:19:42.843Z</time></trkpt><trkpt lat="42.6292767" lon="-7.1968683"><ele>1097.6666666666667</ele><time>2026-04-15T08:19:43.843Z</time></trkpt><trkpt lat="42.6292233" lon="-7.1970667"><ele>1097.0</ele><time>2026-04-15T08:19:44.843Z</time></trkpt><trkpt lat="42.6291583" lon="-7.1972517"><ele>1097.3333333333335</ele><time>2026-04-15T08:19:45.843Z</time></trkpt><trkpt lat="42.6290817" lon="-7.19744"><ele>1097.6666666666667</ele><time>2026-04-15T08:19:46.843Z</time></trkpt><trkpt lat="42.6289917" lon="-7.1976183"><ele>1098.0</ele><time>2026-04-15T08:19:47.843Z</time></trkpt><trkpt lat="42.6289017" lon="-7.1977817"><ele>1098.0</ele><time>2026-04-15T08:19:48.844Z</time></trkpt><trkpt lat="42.6288133" lon="-7.1979317"><ele>1098.0</ele><time>2026-04-15T08:19:49.844Z</time></trkpt><trkpt lat="42.628755" lon="-7.1980433"><ele>1098.0</ele><time>2026-04-15T08:19:50.844Z</time></trkpt><trkpt lat="42.6287283" lon="-7.1981267"><ele>1098.0</ele><time>2026-04-15T08:19:51.843Z</time></trkpt><trkpt lat="42.6287433" lon="-7.19826"><ele>1098.0</ele><time>2026-04-15T08:19:53.843Z</time></trkpt><trkpt lat="42.6287883" lon="-7.1983333"><ele>1097.4</ele><time>2026-04-15T08:19:54.843Z</time></trkpt><trkpt lat="42.6288533" lon="-7.1984283"><ele>1096.8</ele><time>2026-04-15T08:19:55.844Z</time></trkpt><trkpt lat="42.62891" lon="-7.1985433"><ele>1096.2</ele><time>2026-04-15T08:19:56.843Z</time></trkpt><trkpt lat="42.628945" lon="-7.1986783"><ele>1095.6</ele><time>2026-04-15T08:19:57.844Z</time></trkpt><trkpt lat="42.62896" lon="-7.1988233"><ele>1095.0</ele><time>2026-04-15T08:19:58.843Z</time></trkpt><trkpt lat="42.6289583" lon="-7.1989717"><ele>1092.75</ele><time>2026-04-15T08:19:59.843Z</time></trkpt><trkpt lat="42.6289383" lon="-7.1991467"><ele>1090.5</ele><time>2026-04-15T08:20:00.843Z</time></trkpt><trkpt lat="42.6289167" lon="-7.199345"><ele>1088.25</ele><time>2026-04-15T08:20:01.843Z</time></trkpt><trkpt lat="42.6288917" lon="-7.1995717"><ele>1086.0</ele><time>2026-04-15T08:20:02.843Z</time></trkpt><trkpt lat="42.6288667" lon="-7.1998117"><ele>1082.6666666666667</ele><time>2026-04-15T08:20:03.843Z</time></trkpt><trkpt lat="42.62884" lon="-7.2000633"><ele>1079.3333333333335</ele><time>2026-04-15T08:20:04.843Z</time></trkpt><trkpt lat="42.62881" lon="-7.2003283"><ele>1076.0</ele><time>2026-04-15T08:20:05.844Z</time></trkpt><trkpt lat="42.6287717" lon="-7.2006017"><ele>1075.6666666666667</ele><time>2026-04-15T08:20:06.843Z</time></trkpt><trkpt lat="42.6287233" lon="-7.2008783"><ele>1075.3333333333333</ele><time>2026-04-15T08:20:07.843Z</time></trkpt><trkpt lat="42.62867" lon="-7.2011467"><ele>1075.0</ele><time>2026-04-15T08:20:08.844Z</time></trkpt><trkpt lat="42.62862" lon="-7.2014067"><ele>1071.0</ele><time>2026-04-15T08:20:09.843Z</time></trkpt><trkpt lat="42.6285783" lon="-7.2016583"><ele>1067.0</ele><time>2026-04-15T08:20:10.844Z</time></trkpt><trkpt lat="42.62856" lon="-7.201885"><ele>1063.0</ele><time>2026-04-15T08:20:11.843Z</time></trkpt><trkpt lat="42.6285517" lon="-7.202075"><ele>1063.0</ele><time>2026-04-15T08:20:12.844Z</time></trkpt><trkpt lat="42.6285533" lon="-7.202235"><ele>1063.0</ele><time>2026-04-15T08:20:13.843Z</time></trkpt><trkpt lat="42.628525" lon="-7.2023683"><ele>1063.0</ele><time>2026-04-15T08:20:14.844Z</time></trkpt><trkpt lat="42.6284667" lon="-7.2024933"><ele>1063.0</ele><time>2026-04-15T08:20:15.843Z</time></trkpt><trkpt lat="42.62838" lon="-7.2026233"><ele>1059.8</ele><time>2026-04-15T08:20:16.843Z</time></trkpt><trkpt lat="42.6282767" lon="-7.2027417"><ele>1056.6</ele><time>2026-04-15T08:20:17.844Z</time></trkpt><trkpt lat="42.628175" lon="-7.20283"><ele>1053.4</ele><time>2026-04-15T08:20:18.844Z</time></trkpt><trkpt lat="42.62811" lon="-7.2028833"><ele>1050.2</ele><time>2026-04-15T08:20:19.843Z</time></trkpt><trkpt lat="42.62802" lon="-7.2028933"><ele>1047.0</ele><time>2026-04-15T08:20:22.843Z</time></trkpt><trkpt lat="42.6278917" lon="-7.2028733"><ele>1048.8</ele><time>2026-04-15T08:20:24.843Z</time></trkpt><trkpt lat="42.627795" lon="-7.202885"><ele>1050.6</ele><time>2026-04-15T08:20:25.843Z</time></trkpt><trkpt lat="42.6276833" lon="-7.2029067"><ele>1052.3999999999999</ele><time>2026-04-15T08:20:26.844Z</time></trkpt><trkpt lat="42.6275717" lon="-7.20294"><ele>1054.2</ele><time>2026-04-15T08:20:27.843Z</time></trkpt><trkpt lat="42.6274767" lon="-7.20302"><ele>1056.0</ele><time>2026-04-15T08:20:28.843Z</time></trkpt><trkpt lat="42.6274117" lon="-7.2031267"><ele>1050.5</ele><time>2026-04-15T08:20:29.843Z</time></trkpt><trkpt lat="42.6273733" lon="-7.2032533"><ele>1045.0</ele><time>2026-04-15T08:20:30.843Z</time></trkpt><trkpt lat="42.6273567" lon="-7.2034017"><ele>1039.5</ele><time>2026-04-15T08:20:31.844Z</time></trkpt><trkpt lat="42.62735" lon="-7.2035733"><ele>1034.0</ele><time>2026-04-15T08:20:32.844Z</time></trkpt><trkpt lat="42.6273417" lon="-7.2037667"><ele>1034.0</ele><time>2026-04-15T08:20:33.844Z</time></trkpt><trkpt lat="42.62733" lon="-7.2039833"><ele>1034.0</ele><time>2026-04-15T08:20:34.844Z</time></trkpt><trkpt lat="42.627315" lon="-7.2042183"><ele>1034.0</ele><time>2026-04-15T08:20:35.843Z</time></trkpt><trkpt lat="42.627305" lon="-7.2044667"><ele>1029.6666666666667</ele><time>2026-04-15T08:20:36.843Z</time></trkpt><trkpt lat="42.6272883" lon="-7.2047167"><ele>1025.3333333333333</ele><time>2026-04-15T08:20:37.844Z</time></trkpt><trkpt lat="42.6272867" lon="-7.204955"><ele>1021.0</ele><time>2026-04-15T08:20:38.844Z</time></trkpt><trkpt lat="42.6272733" lon="-7.20516"><ele>1019.4</ele><time>2026-04-15T08:20:39.844Z</time></trkpt><trkpt lat="42.6272583" lon="-7.2053317"><ele>1017.8</ele><time>2026-04-15T08:20:40.843Z</time></trkpt><trkpt lat="42.6272583" lon="-7.2054733"><ele>1016.1999999999999</ele><time>2026-04-15T08:20:41.844Z</time></trkpt><trkpt lat="42.62729" lon="-7.2056083"><ele>1014.5999999999999</ele><time>2026-04-15T08:20:42.843Z</time></trkpt><trkpt lat="42.6273467" lon="-7.20573"><ele>1013.0</ele><time>2026-04-15T08:20:43.843Z</time></trkpt><trkpt lat="42.62743" lon="-7.2058367"><ele>1012.5</ele><time>2026-04-15T08:20:44.843Z</time></trkpt><trkpt lat="42.6275067" lon="-7.205955"><ele>1012.0</ele><time>2026-04-15T08:20:45.844Z</time></trkpt><trkpt lat="42.62756" lon="-7.2060867"><ele>1011.5</ele><time>2026-04-15T08:20:46.843Z</time></trkpt><trkpt lat="42.6276" lon="-7.2062467"><ele>1011.0</ele><time>2026-04-15T08:20:47.843Z</time></trkpt><trkpt lat="42.6276133" lon="-7.2064367"><ele>1009.6666666666667</ele><time>2026-04-15T08:20:48.844Z</time></trkpt><trkpt lat="42.627605" lon="-7.20665"><ele>1008.3333333333334</ele><time>2026-04-15T08:20:49.844Z</time></trkpt><trkpt lat="42.6275817" lon="-7.2068683"><ele>1007.0</ele><time>2026-04-15T08:20:50.844Z</time></trkpt><trkpt lat="42.6275433" lon="-7.207095"><ele>1007.0</ele><time>2026-04-15T08:20:51.844Z</time></trkpt><trkpt lat="42.6274917" lon="-7.2073233"><ele>1007.0</ele><time>2026-04-15T08:20:52.843Z</time></trkpt><trkpt lat="42.627425" lon="-7.2075467"><ele>1007.0</ele><time>2026-04-15T08:20:53.843Z</time></trkpt><trkpt lat="42.6273633" lon="-7.2077433"><ele>1002.0</ele><time>2026-04-15T08:20:54.844Z</time></trkpt><trkpt lat="42.6273283" lon="-7.20793"><ele>997.0</ele><time>2026-04-15T08:20:55.844Z</time></trkpt><trkpt lat="42.62733" lon="-7.2081267"><ele>992.0</ele><time>2026-04-15T08:20:56.844Z</time></trkpt><trkpt lat="42.6273617" lon="-7.208345"><ele>988.6666666666667</ele><time>2026-04-15T08:20:57.843Z</time></trkpt><trkpt lat="42.6274" lon="-7.208585"><ele>985.3333333333333</ele><time>2026-04-15T08:20:58.844Z</time></trkpt><trkpt lat="42.6274283" lon="-7.20882"><ele>982.0</ele><time>2026-04-15T08:20:59.844Z</time></trkpt><trkpt lat="42.6274633" lon="-7.2090517"><ele>981.3333333333333</ele><time>2026-04-15T08:21:00.843Z</time></trkpt><trkpt lat="42.6275067" lon="-7.2092583"><ele>980.6666666666667</ele><time>2026-04-15T08:21:01.844Z</time></trkpt><trkpt lat="42.6275717" lon="-7.209455"><ele>980.0</ele><time>2026-04-15T08:21:02.843Z</time></trkpt><trkpt lat="42.6276567" lon="-7.2096233"><ele>980.0</ele><time>2026-04-15T08:21:03.843Z</time></trkpt><trkpt lat="42.6277183" lon="-7.209775"><ele>980.0</ele><time>2026-04-15T08:21:04.844Z</time></trkpt><trkpt lat="42.6277467" lon="-7.2099117"><ele>980.0</ele><time>2026-04-15T08:21:05.843Z</time></trkpt><trkpt lat="42.627745" lon="-7.2100383"><ele>980.0</ele><time>2026-04-15T08:21:06.844Z</time></trkpt><trkpt lat="42.6277283" lon="-7.2101633"><ele>980.0</ele><time>2026-04-15T08:21:07.844Z</time></trkpt><trkpt lat="42.6276817" lon="-7.2102883"><ele>978.25</ele><time>2026-04-15T08:21:08.844Z</time></trkpt><trkpt lat="42.6276033" lon="-7.210415"><ele>976.5</ele><time>2026-04-15T08:21:09.844Z</time></trkpt><trkpt lat="42.627505" lon="-7.2105583"><ele>974.75</ele><time>2026-04-15T08:21:10.843Z</time></trkpt><trkpt lat="42.6274017" lon="-7.21071"><ele>973.0</ele><time>2026-04-15T08:21:11.844Z</time></trkpt><trkpt lat="42.6273067" lon="-7.2108683"><ele>971.25</ele><time>2026-04-15T08:21:12.843Z</time></trkpt><trkpt lat="42.6272233" lon="-7.21104"><ele>969.5</ele><time>2026-04-15T08:21:13.843Z</time></trkpt><trkpt lat="42.6271483" lon="-7.21119"><ele>967.75</ele><time>2026-04-15T08:21:14.844Z</time></trkpt><trkpt lat="42.6270733" lon="-7.2112867"><ele>966.0</ele><time>2026-04-15T08:21:15.843Z</time></trkpt><trkpt lat="42.6269717" lon="-7.2113567"><ele>966.0</ele><time>2026-04-15T08:21:16.843Z</time></trkpt><trkpt lat="42.6268467" lon="-7.2114033"><ele>966.0</ele><time>2026-04-15T08:21:17.843Z</time></trkpt><trkpt lat="42.626705" lon="-7.21145"><ele>966.0</ele><time>2026-04-15T08:21:18.843Z</time></trkpt><trkpt lat="42.6265583" lon="-7.2114967"><ele>966.0</ele><time>2026-04-15T08:21:19.843Z</time></trkpt><trkpt lat="42.6264133" lon="-7.2115283"><ele>966.5</ele><time>2026-04-15T08:21:20.844Z</time></trkpt><trkpt lat="42.62628" lon="-7.2115367"><ele>967.0</ele><time>2026-04-15T08:21:21.843Z</time></trkpt><trkpt lat="42.62616" lon="-7.2115283"><ele>967.5</ele><time>2026-04-15T08:21:22.843Z</time></trkpt><trkpt lat="42.626035" lon="-7.2114933"><ele>968.0</ele><time>2026-04-15T08:21:23.843Z</time></trkpt><trkpt lat="42.6259167" lon="-7.2114567"><ele>968.0</ele><time>2026-04-15T08:21:24.843Z</time></trkpt><trkpt lat="42.6257967" lon="-7.21147"><ele>968.0</ele><time>2026-04-15T08:21:25.843Z</time></trkpt><trkpt lat="42.62567" lon="-7.2115267"><ele>968.0</ele><time>2026-04-15T08:21:26.843Z</time></trkpt><trkpt lat="42.6255083" lon="-7.211635"><ele>968.0</ele><time>2026-04-15T08:21:27.843Z</time></trkpt><trkpt lat="42.6253417" lon="-7.2117583"><ele>957.6666666666667</ele><time>2026-04-15T08:21:28.843Z</time></trkpt><trkpt lat="42.6251717" lon="-7.2118717"><ele>947.3333333333333</ele><time>2026-04-15T08:21:29.844Z</time></trkpt><trkpt lat="42.6250117" lon="-7.211955"><ele>937.0</ele><time>2026-04-15T08:21:30.843Z</time></trkpt><trkpt lat="42.62486" lon="-7.2120067"><ele>937.0</ele><time>2026-04-15T08:21:31.843Z</time></trkpt><trkpt lat="42.624725" lon="-7.2120283"><ele>937.0</ele><time>2026-04-15T08:21:32.843Z</time></trkpt><trkpt lat="42.6245917" lon="-7.2120217"><ele>937.0</ele><time>2026-04-15T08:21:33.844Z</time></trkpt><trkpt lat="42.6244667" lon="-7.211995"><ele>937.0</ele><time>2026-04-15T08:21:34.844Z</time></trkpt><trkpt lat="42.6243517" lon="-7.211985"><ele>937.5</ele><time>2026-04-15T08:21:35.843Z</time></trkpt><trkpt lat="42.6242433" lon="-7.211985"><ele>938.0</ele><time>2026-04-15T08:21:36.844Z</time></trkpt><trkpt lat="42.62414" lon="-7.212035"><ele>938.5</ele><time>2026-04-15T08:21:37.843Z</time></trkpt><trkpt lat="42.62403" lon="-7.2121483"><ele>939.0</ele><time>2026-04-15T08:21:38.844Z</time></trkpt><trkpt lat="42.6239117" lon="-7.212285"><ele>933.6666666666667</ele><time>2026-04-15T08:21:39.843Z</time></trkpt><trkpt lat="42.6237783" lon="-7.212445"><ele>928.3333333333334</ele><time>2026-04-15T08:21:40.843Z</time></trkpt><trkpt lat="42.6236617" lon="-7.21261"><ele>923.0</ele><time>2026-04-15T08:21:41.844Z</time></trkpt><trkpt lat="42.6235533" lon="-7.2127683"><ele>923.0</ele><time>2026-04-15T08:21:42.843Z</time></trkpt><trkpt lat="42.6234567" lon="-7.2129167"><ele>923.0</ele><time>2026-04-15T08:21:43.843Z</time></trkpt><trkpt lat="42.6233583" lon="-7.2130333"><ele>923.0</ele><time>2026-04-15T08:21:44.843Z</time></trkpt><trkpt lat="42.6232733" lon="-7.2131133"><ele>923.0</ele><time>2026-04-15T08:21:45.844Z</time></trkpt><trkpt lat="42.6231983" lon="-7.2131533"><ele>923.0000000000001</ele><time>2026-04-15T08:21:46.843Z</time></trkpt><trkpt lat="42.623135" lon="-7.2131567"><ele>923.0</ele><time>2026-04-15T08:21:48.843Z</time></trkpt><trkpt lat="42.6230667" lon="-7.213085"><ele>923.0</ele><time>2026-04-15T08:21:50.844Z</time></trkpt><trkpt lat="42.6229483" lon="-7.2130233"><ele>923.0</ele><time>2026-04-15T08:21:52.844Z</time></trkpt><trkpt lat="42.6228733" lon="-7.2130217"><ele>923.0000000000001</ele><time>2026-04-15T08:21:53.844Z</time></trkpt><trkpt lat="42.622805" lon="-7.2130583"><ele>923.0</ele><time>2026-04-15T08:21:54.844Z</time></trkpt><trkpt lat="42.6259167" lon="-7.2114567"><ele>926.25</ele><time>2026-04-15T08:21:24.843Z</time></trkpt><trkpt lat="42.6257967" lon="-7.21147"><ele>929.5</ele><time>2026-04-15T08:21:25.843Z</time></trkpt><trkpt lat="42.62567" lon="-7.2115267"><ele>932.75</ele><time>2026-04-15T08:21:26.843Z</time></trkpt><trkpt lat="42.6255083" lon="-7.211635"><ele>936.0</ele><time>2026-04-15T08:21:27.843Z</time></trkpt><trkpt lat="42.6253417" lon="-7.2117583"><ele>936.3333333333333</ele><time>2026-04-15T08:21:28.843Z</time></trkpt><trkpt lat="42.6251717" lon="-7.2118717"><ele>936.6666666666666</ele><time>2026-04-15T08:21:29.844Z</time></trkpt><trkpt lat="42.6250117" lon="-7.211955"><ele>937.0</ele><time>2026-04-15T08:21:30.843Z</time></trkpt><trkpt lat="42.62486" lon="-7.2120067"><ele>937.0</ele><time>2026-04-15T08:21:31.843Z</time></trkpt><trkpt lat="42.624725" lon="-7.2120283"><ele>937.0</ele><time>2026-04-15T08:21:32.843Z</time></trkpt><trkpt lat="42.6245917" lon="-7.2120217"><ele>937.0</ele><time>2026-04-15T08:21:33.844Z</time></trkpt><trkpt lat="42.6244667" lon="-7.211995"><ele>937.0</ele><time>2026-04-15T08:21:34.844Z</time></trkpt><trkpt lat="42.6243517" lon="-7.211985"><ele>937.5</ele><time>2026-04-15T08:21:35.843Z</time></trkpt><trkpt lat="42.6242433" lon="-7.211985"><ele>938.0</ele><time>2026-04-15T08:21:36.844Z</time></trkpt><trkpt lat="42.62414" lon="-7.212035"><ele>938.5</ele><time>2026-04-15T08:21:37.843Z</time></trkpt><trkpt lat="42.62403" lon="-7.2121483"><ele>939.0</ele><time>2026-04-15T08:21:38.844Z</time></trkpt><trkpt lat="42.6239117" lon="-7.212285"><ele>933.6666666666667</ele><time>2026-04-15T08:21:39.843Z</time></trkpt><trkpt lat="42.6237783" lon="-7.212445"><ele>928.3333333333334</ele><time>2026-04-15T08:21:40.843Z</time></trkpt><trkpt lat="42.6236617" lon="-7.21261"><ele>923.0</ele><time>2026-04-15T08:21:41.844Z</time></trkpt><trkpt lat="42.6235533" lon="-7.2127683"><ele>923.0</ele><time>2026-04-15T08:21:42.843Z</time></trkpt><trkpt lat="42.6234567" lon="-7.2129167"><ele>923.0</ele><time>2026-04-15T08:21:43.843Z</time></trkpt><trkpt lat="42.6233583" lon="-7.2130333"><ele>923.0</ele><time>2026-04-15T08:21:44.843Z</time></trkpt><trkpt lat="42.6232733" lon="-7.2131133"><ele>923.0</ele><time>2026-04-15T08:21:45.844Z</time></trkpt><trkpt lat="42.6231983" lon="-7.2131533"><ele>923.0000000000001</ele><time>2026-04-15T08:21:46.843Z</time></trkpt><trkpt lat="42.623135" lon="-7.2131567"><ele>923.0</ele><time>2026-04-15T08:21:48.843Z</time></trkpt><trkpt lat="42.6230667" lon="-7.213085"><ele>923.0</ele><time>2026-04-15T08:21:50.844Z</time></trkpt><trkpt lat="42.6229483" lon="-7.2130233"><ele>923.0</ele><time>2026-04-15T08:21:52.844Z</time></trkpt><trkpt lat="42.6228733" lon="-7.2130217"><ele>923.0000000000001</ele><time>2026-04-15T08:21:53.844Z</time></trkpt><trkpt lat="42.622805" lon="-7.2130583"><ele>923.0</ele><time>2026-04-15T08:21:54.844Z</time></trkpt><trkpt lat="42.6227617" lon="-7.213135"><ele>920.2</ele><time>2026-04-15T08:21:55.844Z</time></trkpt><trkpt lat="42.6227283" lon="-7.213245"><ele>917.4</ele><time>2026-04-15T08:21:56.843Z</time></trkpt><trkpt lat="42.62272" lon="-7.2133767"><ele>914.6000000000001</ele><time>2026-04-15T08:21:57.843Z</time></trkpt><trkpt lat="42.6227233" lon="-7.2135517"><ele>911.8000000000001</ele><time>2026-04-15T08:21:58.844Z</time></trkpt><trkpt lat="42.6227383" lon="-7.2137317"><ele>909.0</ele><time>2026-04-15T08:21:59.844Z</time></trkpt><trkpt lat="42.622755" lon="-7.2139217"><ele>908.25</ele><time>2026-04-15T08:22:00.843Z</time></trkpt><trkpt lat="42.6227867" lon="-7.2141083"><ele>907.5</ele><time>2026-04-15T08:22:01.844Z</time></trkpt><trkpt lat="42.6228383" lon="-7.2142933"><ele>906.75</ele><time>2026-04-15T08:22:02.843Z</time></trkpt><trkpt lat="42.6228817" lon="-7.2144783"><ele>906.0</ele><time>2026-04-15T08:22:03.843Z</time></trkpt><trkpt lat="42.622895" lon="-7.214675"><ele>893.5</ele><time>2026-04-15T08:22:04.843Z</time></trkpt><trkpt lat="42.6228733" lon="-7.21486"><ele>881.0</ele><time>2026-04-15T08:22:05.843Z</time></trkpt><trkpt lat="42.6228567" lon="-7.2150483"><ele>868.5</ele><time>2026-04-15T08:22:06.844Z</time></trkpt><trkpt lat="42.6228483" lon="-7.21522"><ele>856.0</ele><time>2026-04-15T08:22:07.843Z</time></trkpt><trkpt lat="42.6228733" lon="-7.2153633"><ele>856.0</ele><time>2026-04-15T08:22:08.844Z</time></trkpt><trkpt lat="42.62292" lon="-7.2154983"><ele>855.9999999999999</ele><time>2026-04-15T08:22:09.844Z</time></trkpt><trkpt lat="42.6229817" lon="-7.2156317"><ele>855.9999999999999</ele><time>2026-04-15T08:22:10.843Z</time></trkpt><trkpt lat="42.6230267" lon="-7.21576"><ele>856.0</ele><time>2026-04-15T08:22:11.844Z</time></trkpt><trkpt lat="42.6230567" lon="-7.2159"><ele>856.0</ele><time>2026-04-15T08:22:12.843Z</time></trkpt><trkpt lat="42.6230683" lon="-7.2160467"><ele>855.0</ele><time>2026-04-15T08:22:13.843Z</time></trkpt><trkpt lat="42.623065" lon="-7.216215"><ele>854.0</ele><time>2026-04-15T08:22:14.844Z</time></trkpt><trkpt lat="42.6230517" lon="-7.2163783"><ele>853.0</ele><time>2026-04-15T08:22:15.843Z</time></trkpt><trkpt lat="42.6230467" lon="-7.21657"><ele>852.0</ele><time>2026-04-15T08:22:16.844Z</time></trkpt><trkpt lat="42.623035" lon="-7.216765"><ele>849.5</ele><time>2026-04-15T08:22:17.844Z</time></trkpt><trkpt lat="42.62302" lon="-7.2169583"><ele>847.0</ele><time>2026-04-15T08:22:18.843Z</time></trkpt><trkpt lat="42.622995" lon="-7.2171533"><ele>844.5</ele><time>2026-04-15T08:22:19.843Z</time></trkpt><trkpt lat="42.622975" lon="-7.21733"><ele>842.0</ele><time>2026-04-15T08:22:20.843Z</time></trkpt><trkpt lat="42.62295" lon="-7.2174983"><ele>836.3333333333334</ele><time>2026-04-15T08:22:21.843Z</time></trkpt><trkpt lat="42.622915" lon="-7.217675"><ele>830.6666666666667</ele><time>2026-04-15T08:22:22.843Z</time></trkpt><trkpt lat="42.6228667" lon="-7.2178733"><ele>825.0</ele><time>2026-04-15T08:22:23.844Z</time></trkpt><trkpt lat="42.6228067" lon="-7.218085"><ele>833.0</ele><time>2026-04-15T08:22:24.844Z</time></trkpt><trkpt lat="42.6227517" lon="-7.218295"><ele>841.0</ele><time>2026-04-15T08:22:25.843Z</time></trkpt><trkpt lat="42.6227083" lon="-7.2185117"><ele>849.0</ele><time>2026-04-15T08:22:26.843Z</time></trkpt><trkpt lat="42.6226683" lon="-7.21875"><ele>841.6666666666667</ele><time>2026-04-15T08:22:27.843Z</time></trkpt><trkpt lat="42.6226317" lon="-7.2189867"><ele>834.3333333333334</ele><time>2026-04-15T08:22:28.843Z</time></trkpt><trkpt lat="42.6225917" lon="-7.219205"><ele>827.0</ele><time>2026-04-15T08:22:29.844Z</time></trkpt><trkpt lat="42.6225583" lon="-7.2193983"><ele>827.0</ele><time>2026-04-15T08:22:30.843Z</time></trkpt><trkpt lat="42.62253" lon="-7.2195567"><ele>827.0</ele><time>2026-04-15T08:22:31.843Z</time></trkpt><trkpt lat="42.6224933" lon="-7.219685"><ele>827.0</ele><time>2026-04-15T08:22:32.844Z</time></trkpt><trkpt lat="42.6224367" lon="-7.219805"><ele>827.0</ele><time>2026-04-15T08:22:33.844Z</time></trkpt><trkpt lat="42.6223517" lon="-7.219915"><ele>827.0</ele><time>2026-04-15T08:22:34.843Z</time></trkpt><trkpt lat="42.622255" lon="-7.2200133"><ele>824.0</ele><time>2026-04-15T08:22:35.844Z</time></trkpt><trkpt lat="42.6221433" lon="-7.2200983"><ele>821.0</ele><time>2026-04-15T08:22:36.843Z</time></trkpt><trkpt lat="42.6220133" lon="-7.220165"><ele>818.0</ele><time>2026-04-15T08:22:37.843Z</time></trkpt><trkpt lat="42.6218767" lon="-7.2202283"><ele>815.0</ele><time>2026-04-15T08:22:38.844Z</time></trkpt><trkpt lat="42.6217367" lon="-7.220305"><ele>815.0</ele><time>2026-04-15T08:22:39.843Z</time></trkpt><trkpt lat="42.621605" lon="-7.2203717"><ele>815.0</ele><time>2026-04-15T08:22:40.843Z</time></trkpt><trkpt lat="42.621485" lon="-7.220425"><ele>815.0</ele><time>2026-04-15T08:22:41.844Z</time></trkpt><trkpt lat="42.6213633" lon="-7.2204717"><ele>815.0</ele><time>2026-04-15T08:22:42.844Z</time></trkpt><trkpt lat="42.6212167" lon="-7.220505"><ele>810.6666666666667</ele><time>2026-04-15T08:22:43.843Z</time></trkpt><trkpt lat="42.62104" lon="-7.220535"><ele>806.3333333333333</ele><time>2026-04-15T08:22:44.844Z</time></trkpt><trkpt lat="42.620875" lon="-7.2205767"><ele>802.0</ele><time>2026-04-15T08:22:45.843Z</time></trkpt><trkpt lat="42.620735" lon="-7.2206167"><ele>796.6</ele><time>2026-04-15T08:22:46.844Z</time></trkpt><trkpt lat="42.6206167" lon="-7.2206617"><ele>791.2</ele><time>2026-04-15T08:22:47.843Z</time></trkpt><trkpt lat="42.6205233" lon="-7.2206883"><ele>785.8</ele><time>2026-04-15T08:22:48.844Z</time></trkpt><trkpt lat="42.620445" lon="-7.2207"><ele>780.4</ele><time>2026-04-15T08:22:49.843Z</time></trkpt><trkpt lat="42.6203317" lon="-7.220655"><ele>775.0</ele><time>2026-04-15T08:22:51.843Z</time></trkpt><trkpt lat="42.62028" lon="-7.2205917"><ele>774.9999999999999</ele><time>2026-04-15T08:22:52.843Z</time></trkpt><trkpt lat="42.6202267" lon="-7.2205183"><ele>775.0</ele><time>2026-04-15T08:22:53.843Z</time></trkpt><trkpt lat="42.620175" lon="-7.2204267"><ele>775.0</ele><time>2026-04-15T08:22:54.845Z</time></trkpt><trkpt lat="42.62012" lon="-7.2203317"><ele>775.0</ele><time>2026-04-15T08:22:55.845Z</time></trkpt><trkpt lat="42.6200617" lon="-7.2202467"><ele>774.9999999999999</ele><time>2026-04-15T08:22:56.844Z</time></trkpt><trkpt lat="42.6200133" lon="-7.2201583"><ele>775.0</ele><time>2026-04-15T08:22:57.844Z</time></trkpt><trkpt lat="42.619915" lon="-7.2200817"><ele>775.0</ele><time>2026-04-15T08:22:59.845Z</time></trkpt><trkpt lat="42.6198283" lon="-7.2201717"><ele>775.0</ele><time>2026-04-15T08:23:01.845Z</time></trkpt><trkpt lat="42.61978" lon="-7.22027"><ele>775.0</ele><time>2026-04-15T08:23:02.845Z</time></trkpt><trkpt lat="42.61972" lon="-7.22038"><ele>775.0</ele><time>2026-04-15T08:23:03.845Z</time></trkpt><trkpt lat="42.6196617" lon="-7.2204867"><ele>775.0</ele><time>2026-04-15T08:23:04.844Z</time></trkpt><trkpt lat="42.61961" lon="-7.220565"><ele>771.4</ele><time>2026-04-15T08:23:05.845Z</time></trkpt><trkpt lat="42.6195783" lon="-7.22066"><ele>767.8</ele><time>2026-04-15T08:23:07.845Z</time></trkpt><trkpt lat="42.6196867" lon="-7.220715"><ele>764.2</ele><time>2026-04-15T08:23:10.845Z</time></trkpt><trkpt lat="42.6197783" lon="-7.22074"><ele>760.6</ele><time>2026-04-15T08:23:11.844Z</time></trkpt><trkpt lat="42.6198633" lon="-7.2208017"><ele>757.0</ele><time>2026-04-15T08:23:12.844Z</time></trkpt><trkpt lat="42.61993" lon="-7.2209"><ele>757.0</ele><time>2026-04-15T08:23:13.844Z</time></trkpt><trkpt lat="42.6199817" lon="-7.2210333"><ele>757.0</ele><time>2026-04-15T08:23:14.845Z</time></trkpt><trkpt lat="42.6200183" lon="-7.22118"><ele>757.0</ele><time>2026-04-15T08:23:15.844Z</time></trkpt><trkpt lat="42.6200617" lon="-7.221325"><ele>757.0</ele><time>2026-04-15T08:23:16.845Z</time></trkpt><trkpt lat="42.6201283" lon="-7.2214217"><ele>757.0</ele><time>2026-04-15T08:23:17.845Z</time></trkpt><trkpt lat="42.6202133" lon="-7.22148"><ele>753.75</ele><time>2026-04-15T08:23:18.845Z</time></trkpt><trkpt lat="42.6203133" lon="-7.2214983"><ele>750.5</ele><time>2026-04-15T08:23:19.845Z</time></trkpt><trkpt lat="42.62043" lon="-7.2214833"><ele>747.25</ele><time>2026-04-15T08:23:20.844Z</time></trkpt><trkpt lat="42.620545" lon="-7.2214567"><ele>744.0</ele><time>2026-04-15T08:23:21.845Z</time></trkpt><trkpt lat="42.6203317" lon="-7.220655"><ele>749.1666666666666</ele><time>2026-04-15T08:22:51.843Z</time></trkpt><trkpt lat="42.62028" lon="-7.2205917"><ele>754.3333333333333</ele><time>2026-04-15T08:22:52.843Z</time></trkpt><trkpt lat="42.6202267" lon="-7.2205183"><ele>759.5</ele><time>2026-04-15T08:22:53.843Z</time></trkpt><trkpt lat="42.620175" lon="-7.2204267"><ele>764.6666666666666</ele><time>2026-04-15T08:22:54.845Z</time></trkpt><trkpt lat="42.62012" lon="-7.2203317"><ele>769.8333333333333</ele><time>2026-04-15T08:22:55.845Z</time></trkpt><trkpt lat="42.6200617" lon="-7.2202467"><ele>775.0</ele><time>2026-04-15T08:22:56.844Z</time></trkpt><trkpt lat="42.6200133" lon="-7.2201583"><ele>775.0</ele><time>2026-04-15T08:22:57.844Z</time></trkpt><trkpt lat="42.619915" lon="-7.2200817"><ele>775.0</ele><time>2026-04-15T08:22:59.845Z</time></trkpt><trkpt lat="42.6198283" lon="-7.2201717"><ele>775.0</ele><time>2026-04-15T08:23:01.845Z</time></trkpt><trkpt lat="42.61978" lon="-7.22027"><ele>775.0</ele><time>2026-04-15T08:23:02.845Z</time></trkpt><trkpt lat="42.61972" lon="-7.22038"><ele>775.0</ele><time>2026-04-15T08:23:03.845Z</time></trkpt><trkpt lat="42.6196617" lon="-7.2204867"><ele>775.0</ele><time>2026-04-15T08:23:04.844Z</time></trkpt><trkpt lat="42.61961" lon="-7.220565"><ele>775.0</ele><time>2026-04-15T08:23:05.845Z</time></trkpt><trkpt lat="42.6195783" lon="-7.22066"><ele>775.0</ele><time>2026-04-15T08:23:07.845Z</time></trkpt><trkpt lat="42.6196867" lon="-7.220715"><ele>775.0</ele><time>2026-04-15T08:23:10.845Z</time></trkpt><trkpt lat="42.6197783" lon="-7.22074"><ele>775.0</ele><time>2026-04-15T08:23:11.844Z</time></trkpt><trkpt lat="42.6198633" lon="-7.2208017"><ele>771.4</ele><time>2026-04-15T08:23:12.844Z</time></trkpt><trkpt lat="42.61993" lon="-7.2209"><ele>767.8</ele><time>2026-04-15T08:23:13.844Z</time></trkpt><trkpt lat="42.6199817" lon="-7.2210333"><ele>764.2</ele><time>2026-04-15T08:23:14.845Z</time></trkpt><trkpt lat="42.6200183" lon="-7.22118"><ele>760.6</ele><time>2026-04-15T08:23:15.844Z</time></trkpt><trkpt lat="42.6200617" lon="-7.221325"><ele>757.0</ele><time>2026-04-15T08:23:16.845Z</time></trkpt><trkpt lat="42.6201283" lon="-7.2214217"><ele>757.0</ele><time>2026-04-15T08:23:17.845Z</time></trkpt><trkpt lat="42.6202133" lon="-7.22148"><ele>757.0</ele><time>2026-04-15T08:23:18.845Z</time></trkpt><trkpt lat="42.6203133" lon="-7.2214983"><ele>757.0</ele><time>2026-04-15T08:23:19.845Z</time></trkpt><trkpt lat="42.62043" lon="-7.2214833"><ele>757.0</ele><time>2026-04-15T08:23:20.844Z</time></trkpt><trkpt lat="42.620545" lon="-7.2214567"><ele>757.0</ele><time>2026-04-15T08:23:21.845Z</time></trkpt><trkpt lat="42.62066" lon="-7.2214483"><ele>761.5</ele><time>2026-04-15T08:23:22.844Z</time></trkpt><trkpt lat="42.620775" lon="-7.2214483"><ele>766.0</ele><time>2026-04-15T08:23:23.845Z</time></trkpt><trkpt lat="42.6208867" lon="-7.221445"><ele>770.5</ele><time>2026-04-15T08:23:24.845Z</time></trkpt><trkpt lat="42.6209983" lon="-7.22145"><ele>775.0</ele><time>2026-04-15T08:23:25.844Z</time></trkpt><trkpt lat="42.62111" lon="-7.2214517"><ele>776.75</ele><time>2026-04-15T08:23:26.844Z</time></trkpt><trkpt lat="42.6212233" lon="-7.2214567"><ele>778.5</ele><time>2026-04-15T08:23:27.844Z</time></trkpt><trkpt lat="42.6213383" lon="-7.221475"><ele>780.25</ele><time>2026-04-15T08:23:28.845Z</time></trkpt><trkpt lat="42.6214517" lon="-7.2214867"><ele>782.0</ele><time>2026-04-15T08:23:29.844Z</time></trkpt><trkpt lat="42.6215633" lon="-7.2214967"><ele>782.0</ele><time>2026-04-15T08:23:30.845Z</time></trkpt><trkpt lat="42.6216717" lon="-7.2214917"><ele>782.0</ele><time>2026-04-15T08:23:31.844Z</time></trkpt><trkpt lat="42.62178" lon="-7.2214683"><ele>782.0</ele><time>2026-04-15T08:23:32.844Z</time></trkpt><trkpt lat="42.6218883" lon="-7.2214183"><ele>782.0</ele><time>2026-04-15T08:23:33.845Z</time></trkpt><trkpt lat="42.6219967" lon="-7.2213617"><ele>782.0</ele><time>2026-04-15T08:23:34.844Z</time></trkpt><trkpt lat="42.6221017" lon="-7.22132"><ele>780.25</ele><time>2026-04-15T08:23:35.844Z</time></trkpt><trkpt lat="42.622215" lon="-7.2212933"><ele>778.5</ele><time>2026-04-15T08:23:36.844Z</time></trkpt><trkpt lat="42.622325" lon="-7.221265"><ele>776.75</ele><time>2026-04-15T08:23:37.844Z</time></trkpt><trkpt lat="42.6224383" lon="-7.2212383"><ele>775.0</ele><time>2026-04-15T08:23:38.845Z</time></trkpt><trkpt lat="42.6225567" lon="-7.2212117"><ele>775.0</ele><time>2026-04-15T08:23:39.844Z</time></trkpt><trkpt lat="42.6226717" lon="-7.2211783"><ele>775.0</ele><time>2026-04-15T08:23:40.845Z</time></trkpt><trkpt lat="42.6227883" lon="-7.22116"><ele>775.0</ele><time>2026-04-15T08:23:41.844Z</time></trkpt><trkpt lat="42.622895" lon="-7.2211533"><ele>775.0</ele><time>2026-04-15T08:23:42.845Z</time></trkpt><trkpt lat="42.622995" lon="-7.2211317"><ele>775.0</ele><time>2026-04-15T08:23:43.845Z</time></trkpt><trkpt lat="42.6230867" lon="-7.2211"><ele>773.4</ele><time>2026-04-15T08:23:44.844Z</time></trkpt><trkpt lat="42.6231633" lon="-7.2210467"><ele>771.8</ele><time>2026-04-15T08:23:45.845Z</time></trkpt><trkpt lat="42.6232133" lon="-7.2209567"><ele>770.2</ele><time>2026-04-15T08:23:46.844Z</time></trkpt><trkpt lat="42.6232367" lon="-7.2208367"><ele>768.6</ele><time>2026-04-15T08:23:47.845Z</time></trkpt><trkpt lat="42.6232267" lon="-7.220695"><ele>767.0</ele><time>2026-04-15T08:23:48.845Z</time></trkpt><trkpt lat="42.623215" lon="-7.2205533"><ele>767.0</ele><time>2026-04-15T08:23:49.845Z</time></trkpt><trkpt lat="42.6232167" lon="-7.2204367"><ele>767.0</ele><time>2026-04-15T08:23:50.845Z</time></trkpt><trkpt lat="42.6232583" lon="-7.2203183"><ele>767.0</ele><time>2026-04-15T08:23:51.844Z</time></trkpt><trkpt lat="42.62332" lon="-7.2202133"><ele>767.0</ele><time>2026-04-15T08:23:52.844Z</time></trkpt><trkpt lat="42.6234083" lon="-7.22011"><ele>767.0</ele><time>2026-04-15T08:23:53.845Z</time></trkpt><trkpt lat="42.6235117" lon="-7.2200017"><ele>767.0</ele><time>2026-04-15T08:23:54.845Z</time></trkpt><trkpt lat="42.623605" lon="-7.2198917"><ele>767.0</ele><time>2026-04-15T08:23:55.844Z</time></trkpt><trkpt lat="42.6236983" lon="-7.21979"><ele>767.0</ele><time>2026-04-15T08:23:56.845Z</time></trkpt><trkpt lat="42.6237883" lon="-7.2197033"><ele>767.0</ele><time>2026-04-15T08:23:57.844Z</time></trkpt><trkpt lat="42.6238683" lon="-7.21961"><ele>766.4000000000001</ele><time>2026-04-15T08:23:58.845Z</time></trkpt><trkpt lat="42.6239317" lon="-7.2194967"><ele>765.8000000000001</ele><time>2026-04-15T08:23:59.845Z</time></trkpt><trkpt lat="42.6239617" lon="-7.2193617"><ele>765.2</ele><time>2026-04-15T08:24:00.844Z</time></trkpt><trkpt lat="42.6239583" lon="-7.219215"><ele>764.6</ele><time>2026-04-15T08:24:01.845Z</time></trkpt><trkpt lat="42.623945" lon="-7.2190683"><ele>764.0</ele><time>2026-04-15T08:24:02.844Z</time></trkpt><trkpt lat="42.6239533" lon="-7.2189217"><ele>764.0</ele><time>2026-04-15T08:24:03.844Z</time></trkpt><trkpt lat="42.6239883" lon="-7.218785"><ele>764.0</ele><time>2026-04-15T08:24:04.844Z</time></trkpt><trkpt lat="42.6240533" lon="-7.2186583"><ele>764.0</ele><time>2026-04-15T08:24:05.845Z</time></trkpt><trkpt lat="42.62413" lon="-7.21854"><ele>764.0</ele><time>2026-04-15T08:24:06.844Z</time></trkpt><trkpt lat="42.6241967" lon="-7.218435"><ele>764.0</ele><time>2026-04-15T08:24:07.844Z</time></trkpt><trkpt lat="42.6242717" lon="-7.218335"><ele>764.0</ele><time>2026-04-15T08:24:08.844Z</time></trkpt><trkpt lat="42.6243533" lon="-7.2182433"><ele>764.0</ele><time>2026-04-15T08:24:09.844Z</time></trkpt><trkpt lat="42.6244317" lon="-7.2181917"><ele>764.0</ele><time>2026-04-15T08:24:10.844Z</time></trkpt><trkpt lat="42.6244933" lon="-7.21816"><ele>764.0</ele><time>2026-04-15T08:24:11.844Z</time></trkpt><trkpt lat="42.6245967" lon="-7.2182067"><ele>764.0</ele><time>2026-04-15T08:24:13.844Z</time></trkpt><trkpt lat="42.62462" lon="-7.2183067"><ele>764.0</ele><time>2026-04-15T08:24:14.845Z</time></trkpt><trkpt lat="42.6246217" lon="-7.2184567"><ele>765.8000000000001</ele><time>2026-04-15T08:24:15.844Z</time></trkpt><trkpt lat="42.6246033" lon="-7.2186333"><ele>767.6</ele><time>2026-04-15T08:24:16.844Z</time></trkpt><trkpt lat="42.6246133" lon="-7.218785"><ele>769.4</ele><time>2026-04-15T08:24:17.845Z</time></trkpt><trkpt lat="42.6246467" lon="-7.21891"><ele>771.2</ele><time>2026-04-15T08:24:18.845Z</time></trkpt><trkpt lat="42.62471" lon="-7.219"><ele>773.0</ele><time>2026-04-15T08:24:19.844Z</time></trkpt><trkpt lat="42.6247883" lon="-7.219065"><ele>767.2</ele><time>2026-04-15T08:24:20.844Z</time></trkpt><trkpt lat="42.6248733" lon="-7.2191"><ele>761.4</ele><time>2026-04-15T08:24:21.844Z</time></trkpt><trkpt lat="42.62497" lon="-7.2191283"><ele>755.6</ele><time>2026-04-15T08:24:22.845Z</time></trkpt><trkpt lat="42.6250767" lon="-7.219145"><ele>749.8000000000001</ele><time>2026-04-15T08:24:23.845Z</time></trkpt><trkpt lat="42.6251783" lon="-7.2191567"><ele>744.0</ele><time>2026-04-15T08:24:24.845Z</time></trkpt><trkpt lat="42.6252933" lon="-7.2191617"><ele>747.5</ele><time>2026-04-15T08:24:25.845Z</time></trkpt><trkpt lat="42.6254" lon="-7.219175"><ele>751.0</ele><time>2026-04-15T08:24:26.845Z</time></trkpt><trkpt lat="42.6255133" lon="-7.2191867"><ele>754.5</ele><time>2026-04-15T08:24:27.845Z</time></trkpt><trkpt lat="42.6256333" lon="-7.2192133"><ele>758.0</ele><time>2026-04-15T08:24:28.844Z</time></trkpt><trkpt lat="42.62575" lon="-7.219235"><ele>758.0</ele><time>2026-04-15T08:24:29.844Z</time></trkpt><trkpt lat="42.62586" lon="-7.2192467"><ele>758.0</ele><time>2026-04-15T08:24:30.845Z</time></trkpt><trkpt lat="42.625955" lon="-7.21927"><ele>758.0</ele><time>2026-04-15T08:24:31.845Z</time></trkpt><trkpt lat="42.6260383" lon="-7.2193117"><ele>758.0</ele><time>2026-04-15T08:24:32.845Z</time></trkpt><trkpt lat="42.6260983" lon="-7.2193717"><ele>758.0</ele><time>2026-04-15T08:24:33.845Z</time></trkpt><trkpt lat="42.6261383" lon="-7.2194433"><ele>758.0</ele><time>2026-04-15T08:24:34.844Z</time></trkpt><trkpt lat="42.6261317" lon="-7.2196083"><ele>758.0</ele><time>2026-04-15T08:24:36.845Z</time></trkpt><trkpt lat="42.6260667" lon="-7.2196983"><ele>758.0</ele><time>2026-04-15T08:24:37.845Z</time></trkpt><trkpt lat="42.6259717" lon="-7.219775"><ele>758.0</ele><time>2026-04-15T08:24:38.844Z</time></trkpt><trkpt lat="42.6258583" lon="-7.2198283"><ele>758.0</ele><time>2026-04-15T08:24:39.845Z</time></trkpt><trkpt lat="42.6257467" lon="-7.21986"><ele>758.0</ele><time>2026-04-15T08:24:40.844Z</time></trkpt><trkpt lat="42.62563" lon="-7.2198617"><ele>754.4</ele><time>2026-04-15T08:24:41.844Z</time></trkpt><trkpt lat="42.625525" lon="-7.2198667"><ele>750.8</ele><time>2026-04-15T08:24:42.845Z</time></trkpt><trkpt lat="42.6254283" lon="-7.2198833"><ele>747.2</ele><time>2026-04-15T08:24:43.845Z</time></trkpt><trkpt lat="42.6253283" lon="-7.2199017"><ele>743.6</ele><time>2026-04-15T08:24:44.845Z</time></trkpt><trkpt lat="42.6252183" lon="-7.21991"><ele>740.0</ele><time>2026-04-15T08:24:45.845Z</time></trkpt><trkpt lat="42.6251017" lon="-7.2199133"><ele>740.0</ele><time>2026-04-15T08:24:46.844Z</time></trkpt><trkpt lat="42.6249983" lon="-7.2199333"><ele>740.0</ele><time>2026-04-15T08:24:47.844Z</time></trkpt><trkpt lat="42.624905" lon="-7.2199633"><ele>740.0</ele><time>2026-04-15T08:24:48.844Z</time></trkpt><trkpt lat="42.6246467" lon="-7.21891"><ele>740.8</ele><time>2026-04-15T08:24:18.845Z</time></trkpt><trkpt lat="42.62471" lon="-7.219"><ele>741.6</ele><time>2026-04-15T08:24:19.844Z</time></trkpt><trkpt lat="42.6247883" lon="-7.219065"><ele>742.4000000000001</ele><time>2026-04-15T08:24:20.844Z</time></trkpt><trkpt lat="42.6248733" lon="-7.2191"><ele>743.2</ele><time>2026-04-15T08:24:21.844Z</time></trkpt><trkpt lat="42.62497" lon="-7.2191283"><ele>744.0</ele><time>2026-04-15T08:24:22.845Z</time></trkpt><trkpt lat="42.6250767" lon="-7.219145"><ele>744.0</ele><time>2026-04-15T08:24:23.845Z</time></trkpt><trkpt lat="42.6251783" lon="-7.2191567"><ele>744.0</ele><time>2026-04-15T08:24:24.845Z</time></trkpt><trkpt lat="42.6252933" lon="-7.2191617"><ele>744.0</ele><time>2026-04-15T08:24:25.845Z</time></trkpt><trkpt lat="42.6254" lon="-7.219175"><ele>744.0</ele><time>2026-04-15T08:24:26.845Z</time></trkpt><trkpt lat="42.6255133" lon="-7.2191867"><ele>744.0</ele><time>2026-04-15T08:24:27.845Z</time></trkpt><trkpt lat="42.6256333" lon="-7.2192133"><ele>746.8000000000001</ele><time>2026-04-15T08:24:28.844Z</time></trkpt><trkpt lat="42.62575" lon="-7.219235"><ele>749.6</ele><time>2026-04-15T08:24:29.844Z</time></trkpt><trkpt lat="42.62586" lon="-7.2192467"><ele>752.4</ele><time>2026-04-15T08:24:30.845Z</time></trkpt><trkpt lat="42.625955" lon="-7.21927"><ele>755.2</ele><time>2026-04-15T08:24:31.845Z</time></trkpt><trkpt lat="42.6260383" lon="-7.2193117"><ele>758.0</ele><time>2026-04-15T08:24:32.845Z</time></trkpt><trkpt lat="42.6260983" lon="-7.2193717"><ele>758.0</ele><time>2026-04-15T08:24:33.845Z</time></trkpt><trkpt lat="42.6261383" lon="-7.2194433"><ele>758.0</ele><time>2026-04-15T08:24:34.844Z</time></trkpt><trkpt lat="42.6261317" lon="-7.2196083"><ele>758.0</ele><time>2026-04-15T08:24:36.845Z</time></trkpt><trkpt lat="42.6260667" lon="-7.2196983"><ele>758.0</ele><time>2026-04-15T08:24:37.845Z</time></trkpt><trkpt lat="42.6259717" lon="-7.219775"><ele>758.0</ele><time>2026-04-15T08:24:38.844Z</time></trkpt><trkpt lat="42.6258583" lon="-7.2198283"><ele>765.4</ele><time>2026-04-15T08:24:39.845Z</time></trkpt><trkpt lat="42.6257467" lon="-7.21986"><ele>772.8</ele><time>2026-04-15T08:24:40.844Z</time></trkpt><trkpt lat="42.62563" lon="-7.2198617"><ele>780.2</ele><time>2026-04-15T08:24:41.844Z</time></trkpt><trkpt lat="42.625525" lon="-7.2198667"><ele>787.6</ele><time>2026-04-15T08:24:42.845Z</time></trkpt><trkpt lat="42.6254283" lon="-7.2198833"><ele>795.0</ele><time>2026-04-15T08:24:43.845Z</time></trkpt><trkpt lat="42.6253283" lon="-7.2199017"><ele>784.0</ele><time>2026-04-15T08:24:44.845Z</time></trkpt><trkpt lat="42.6252183" lon="-7.21991"><ele>773.0</ele><time>2026-04-15T08:24:45.845Z</time></trkpt><trkpt lat="42.6251017" lon="-7.2199133"><ele>762.0</ele><time>2026-04-15T08:24:46.844Z</time></trkpt><trkpt lat="42.6249983" lon="-7.2199333"><ele>751.0</ele><time>2026-04-15T08:24:47.844Z</time></trkpt><trkpt lat="42.624905" lon="-7.2199633"><ele>740.0</ele><time>2026-04-15T08:24:48.844Z</time></trkpt><trkpt lat="42.6248283" lon="-7.22001"><ele>740.0</ele><time>2026-04-15T08:24:49.844Z</time></trkpt><trkpt lat="42.624775" lon="-7.2200933"><ele>740.0</ele><time>2026-04-15T08:24:50.845Z</time></trkpt><trkpt lat="42.6247417" lon="-7.2201817"><ele>740.0</ele><time>2026-04-15T08:24:51.845Z</time></trkpt><trkpt lat="42.62473" lon="-7.2203033"><ele>740.0</ele><time>2026-04-15T08:24:52.844Z</time></trkpt><trkpt lat="42.6247383" lon="-7.220445"><ele>740.0</ele><time>2026-04-15T08:24:53.844Z</time></trkpt><trkpt lat="42.62476" lon="-7.2206117"><ele>746.0</ele><time>2026-04-15T08:24:54.845Z</time></trkpt><trkpt lat="42.6247683" lon="-7.2207467"><ele>752.0</ele><time>2026-04-15T08:24:55.845Z</time></trkpt><trkpt lat="42.6247783" lon="-7.2208817"><ele>758.0</ele><time>2026-04-15T08:24:56.844Z</time></trkpt><trkpt lat="42.6247783" lon="-7.22102"><ele>764.0</ele><time>2026-04-15T08:24:57.844Z</time></trkpt><trkpt lat="42.6247683" lon="-7.221155"><ele>770.0</ele><time>2026-04-15T08:24:58.844Z</time></trkpt><trkpt lat="42.6247467" lon="-7.2212933"><ele>770.0</ele><time>2026-04-15T08:24:59.845Z</time></trkpt><trkpt lat="42.6247233" lon="-7.221435"><ele>770.0</ele><time>2026-04-15T08:25:00.845Z</time></trkpt><trkpt lat="42.6246733" lon="-7.2215717"><ele>770.0</ele><time>2026-04-15T08:25:01.845Z</time></trkpt><trkpt lat="42.624605" lon="-7.22169"><ele>770.0</ele><time>2026-04-15T08:25:02.844Z</time></trkpt><trkpt lat="42.6245367" lon="-7.2217917"><ele>770.0</ele><time>2026-04-15T08:25:03.844Z</time></trkpt><trkpt lat="42.6244667" lon="-7.2218867"><ele>765.6</ele><time>2026-04-15T08:25:04.845Z</time></trkpt><trkpt lat="42.624405" lon="-7.2219767"><ele>761.2</ele><time>2026-04-15T08:25:05.845Z</time></trkpt><trkpt lat="42.6243317" lon="-7.22208"><ele>756.8</ele><time>2026-04-15T08:25:06.845Z</time></trkpt><trkpt lat="42.6242783" lon="-7.2221983"><ele>752.4</ele><time>2026-04-15T08:25:07.844Z</time></trkpt><trkpt lat="42.6242383" lon="-7.2223133"><ele>748.0</ele><time>2026-04-15T08:25:08.844Z</time></trkpt><trkpt lat="42.6242017" lon="-7.2224383"><ele>748.0</ele><time>2026-04-15T08:25:09.845Z</time></trkpt><trkpt lat="42.624165" lon="-7.222555"><ele>748.0</ele><time>2026-04-15T08:25:10.845Z</time></trkpt><trkpt lat="42.6241283" lon="-7.222675"><ele>748.0</ele><time>2026-04-15T08:25:11.845Z</time></trkpt><trkpt lat="42.62411" lon="-7.2227933"><ele>748.0</ele><time>2026-04-15T08:25:12.845Z</time></trkpt><trkpt lat="42.6240983" lon="-7.2229217"><ele>748.0</ele><time>2026-04-15T08:25:13.844Z</time></trkpt><trkpt lat="42.62409" lon="-7.2230367"><ele>748.0</ele><time>2026-04-15T08:25:14.844Z</time></trkpt><trkpt lat="42.624105" lon="-7.2231383"><ele>748.0</ele><time>2026-04-15T08:25:15.844Z</time></trkpt><trkpt lat="42.6241367" lon="-7.2232367"><ele>748.0</ele><time>2026-04-15T08:25:16.844Z</time></trkpt><trkpt lat="42.62418" lon="-7.2233267"><ele>748.0</ele><time>2026-04-15T08:25:17.844Z</time></trkpt><trkpt lat="42.6242283" lon="-7.2233983"><ele>748.0</ele><time>2026-04-15T08:25:18.844Z</time></trkpt><trkpt lat="42.6242767" lon="-7.2234683"><ele>748.0</ele><time>2026-04-15T08:25:19.845Z</time></trkpt><trkpt lat="42.6243233" lon="-7.223545"><ele>749.5999999999999</ele><time>2026-04-15T08:25:20.845Z</time></trkpt><trkpt lat="42.6243683" lon="-7.2236167"><ele>751.1999999999999</ele><time>2026-04-15T08:25:21.844Z</time></trkpt><trkpt lat="42.6244083" lon="-7.22369"><ele>752.8</ele><time>2026-04-15T08:25:22.844Z</time></trkpt><trkpt lat="42.6244583" lon="-7.22383"><ele>754.4</ele><time>2026-04-15T08:25:24.845Z</time></trkpt><trkpt lat="42.6244183" lon="-7.2239467"><ele>756.0</ele><time>2026-04-15T08:25:26.845Z</time></trkpt><trkpt lat="42.6243167" lon="-7.22398"><ele>756.0</ele><time>2026-04-15T08:25:28.844Z</time></trkpt><trkpt lat="42.6241933" lon="-7.2239033"><ele>756.0</ele><time>2026-04-15T08:25:30.845Z</time></trkpt><trkpt lat="42.6241317" lon="-7.22385"><ele>756.0</ele><time>2026-04-15T08:25:31.844Z</time></trkpt><trkpt lat="42.6240617" lon="-7.2238017"><ele>756.0</ele><time>2026-04-15T08:25:32.844Z</time></trkpt><trkpt lat="42.6239983" lon="-7.2237733"><ele>756.0</ele><time>2026-04-15T08:25:33.844Z</time></trkpt><trkpt lat="42.6239367" lon="-7.22375"><ele>756.0</ele><time>2026-04-15T08:25:34.845Z</time></trkpt><trkpt lat="42.6238383" lon="-7.22373"><ele>756.0</ele><time>2026-04-15T08:25:36.845Z</time></trkpt><trkpt lat="42.6237483" lon="-7.22371"><ele>756.0</ele><time>2026-04-15T08:25:38.844Z</time></trkpt><trkpt lat="42.6236567" lon="-7.2237133"><ele>756.0</ele><time>2026-04-15T08:25:40.845Z</time></trkpt><trkpt lat="42.6235683" lon="-7.2237533"><ele>756.0</ele><time>2026-04-15T08:25:42.844Z</time></trkpt><trkpt lat="42.6235" lon="-7.2238283"><ele>756.0</ele><time>2026-04-15T08:25:44.844Z</time></trkpt><trkpt lat="42.6234433" lon="-7.2239283"><ele>755.0</ele><time>2026-04-15T08:25:46.845Z</time></trkpt><trkpt lat="42.623405" lon="-7.2240817"><ele>754.0</ele><time>2026-04-15T08:25:48.844Z</time></trkpt><trkpt lat="42.6233833" lon="-7.224215"><ele>753.0</ele><time>2026-04-15T08:25:50.844Z</time></trkpt><trkpt lat="42.62335" lon="-7.22434"><ele>752.0</ele><time>2026-04-15T08:25:52.845Z</time></trkpt><trkpt lat="42.6233033" lon="-7.22448"><ele>751.0</ele><time>2026-04-15T08:25:54.845Z</time></trkpt><trkpt lat="42.6232583" lon="-7.224595"><ele>751.0</ele><time>2026-04-15T08:25:56.845Z</time></trkpt><trkpt lat="42.6232083" lon="-7.224715"><ele>751.0</ele><time>2026-04-15T08:25:58.845Z</time></trkpt><trkpt lat="42.6231817" lon="-7.2248733"><ele>751.0</ele><time>2026-04-15T08:26:00.845Z</time></trkpt><trkpt lat="42.6231367" lon="-7.2250233"><ele>751.0</ele><time>2026-04-15T08:26:02.844Z</time></trkpt><trkpt lat="42.623105" lon="-7.2251317"><ele>751.0</ele><time>2026-04-15T08:26:04.844Z</time></trkpt><trkpt lat="42.623075" lon="-7.2252217"><ele>753.8</ele><time>2026-04-15T08:26:06.844Z</time></trkpt><trkpt lat="42.62304" lon="-7.22533"><ele>756.5999999999999</ele><time>2026-04-15T08:26:08.845Z</time></trkpt><trkpt lat="42.623015" lon="-7.2254417"><ele>759.4</ele><time>2026-04-15T08:26:10.844Z</time></trkpt><trkpt lat="42.6229917" lon="-7.22556"><ele>762.2</ele><time>2026-04-15T08:26:12.844Z</time></trkpt><trkpt lat="42.6230167" lon="-7.2256633"><ele>765.0</ele><time>2026-04-15T08:26:14.844Z</time></trkpt><trkpt lat="42.6234433" lon="-7.2239283"><ele>762.2</ele><time>2026-04-15T08:25:46.845Z</time></trkpt><trkpt lat="42.623405" lon="-7.2240817"><ele>759.4</ele><time>2026-04-15T08:25:48.844Z</time></trkpt><trkpt lat="42.6233833" lon="-7.224215"><ele>756.5999999999999</ele><time>2026-04-15T08:25:50.844Z</time></trkpt><trkpt lat="42.62335" lon="-7.22434"><ele>753.8</ele><time>2026-04-15T08:25:52.845Z</time></trkpt><trkpt lat="42.6233033" lon="-7.22448"><ele>751.0</ele><time>2026-04-15T08:25:54.845Z</time></trkpt><trkpt lat="42.6232583" lon="-7.224595"><ele>751.0</ele><time>2026-04-15T08:25:56.845Z</time></trkpt><trkpt lat="42.6232083" lon="-7.224715"><ele>751.0</ele><time>2026-04-15T08:25:58.845Z</time></trkpt><trkpt lat="42.6231817" lon="-7.2248733"><ele>751.0</ele><time>2026-04-15T08:26:00.845Z</time></trkpt><trkpt lat="42.6231367" lon="-7.2250233"><ele>751.0</ele><time>2026-04-15T08:26:02.844Z</time></trkpt><trkpt lat="42.623105" lon="-7.2251317"><ele>751.0</ele><time>2026-04-15T08:26:04.844Z</time></trkpt><trkpt lat="42.623075" lon="-7.2252217"><ele>753.3333333333334</ele><time>2026-04-15T08:26:06.844Z</time></trkpt><trkpt lat="42.62304" lon="-7.22533"><ele>755.6666666666667</ele><time>2026-04-15T08:26:08.845Z</time></trkpt><trkpt lat="42.623015" lon="-7.2254417"><ele>758.0</ele><time>2026-04-15T08:26:10.844Z</time></trkpt><trkpt lat="42.6229917" lon="-7.22556"><ele>760.3333333333334</ele><time>2026-04-15T08:26:12.844Z</time></trkpt><trkpt lat="42.6230167" lon="-7.2256633"><ele>762.6666666666666</ele><time>2026-04-15T08:26:14.844Z</time></trkpt><trkpt lat="42.6230833" lon="-7.22566"><ele>765.0</ele><time>2026-04-15T08:26:16.845Z</time></trkpt><trkpt lat="42.6231583" lon="-7.225595"><ele>765.0</ele><time>2026-04-15T08:26:18.845Z</time></trkpt><trkpt lat="42.6232383" lon="-7.2255267"><ele>765.0</ele><time>2026-04-15T08:26:20.844Z</time></trkpt><trkpt lat="42.623325" lon="-7.2254567"><ele>765.0</ele><time>2026-04-15T08:26:22.845Z</time></trkpt><trkpt lat="42.62342" lon="-7.2254"><ele>765.0</ele><time>2026-04-15T08:26:24.844Z</time></trkpt><trkpt lat="42.62351" lon="-7.2253817"><ele>765.0</ele><time>2026-04-15T08:26:26.845Z</time></trkpt><trkpt lat="42.6235667" lon="-7.2254367"><ele>765.0</ele><time>2026-04-15T08:26:28.844Z</time></trkpt><trkpt lat="42.6236067" lon="-7.22554"><ele>765.0</ele><time>2026-04-15T08:26:30.845Z</time></trkpt><trkpt lat="42.623595" lon="-7.2256433"><ele>765.0</ele><time>2026-04-15T08:26:32.845Z</time></trkpt><trkpt lat="42.6235333" lon="-7.2257333"><ele>765.0</ele><time>2026-04-15T08:26:34.844Z</time></trkpt><trkpt lat="42.6234583" lon="-7.225805"><ele>765.0</ele><time>2026-04-15T08:26:36.844Z</time></trkpt><trkpt lat="42.6233767" lon="-7.2258817"><ele>765.0</ele><time>2026-04-15T08:26:38.844Z</time></trkpt><trkpt lat="42.6232717" lon="-7.2259517"><ele>770.6</ele><time>2026-04-15T08:26:40.844Z</time></trkpt><trkpt lat="42.6231733" lon="-7.2260317"><ele>776.2</ele><time>2026-04-15T08:26:42.844Z</time></trkpt><trkpt lat="42.6230967" lon="-7.2260883"><ele>781.8</ele><time>2026-04-15T08:26:44.845Z</time></trkpt><trkpt lat="42.623035" lon="-7.2261533"><ele>787.4</ele><time>2026-04-15T08:26:46.844Z</time></trkpt><trkpt lat="42.6229583" lon="-7.2262183"><ele>793.0</ele><time>2026-04-15T08:26:48.845Z</time></trkpt><trkpt lat="42.622875" lon="-7.2262933"><ele>790.2</ele><time>2026-04-15T08:26:50.844Z</time></trkpt><trkpt lat="42.6227867" lon="-7.2263633"><ele>787.4</ele><time>2026-04-15T08:26:52.844Z</time></trkpt><trkpt lat="42.6227033" lon="-7.226415"><ele>784.6</ele><time>2026-04-15T08:26:54.845Z</time></trkpt><trkpt lat="42.6226067" lon="-7.22647"><ele>781.8000000000001</ele><time>2026-04-15T08:26:56.845Z</time></trkpt><trkpt lat="42.6225067" lon="-7.2265333"><ele>779.0</ele><time>2026-04-15T08:26:58.844Z</time></trkpt><trkpt lat="42.622425" lon="-7.2265883"><ele>782.3333333333334</ele><time>2026-04-15T08:27:00.845Z</time></trkpt><trkpt lat="42.6223467" lon="-7.2266433"><ele>785.6666666666667</ele><time>2026-04-15T08:27:02.845Z</time></trkpt><trkpt lat="42.6222767" lon="-7.226725"><ele>789.0</ele><time>2026-04-15T08:27:04.844Z</time></trkpt><trkpt lat="42.6222117" lon="-7.226795"><ele>792.3333333333333</ele><time>2026-04-15T08:27:06.844Z</time></trkpt><trkpt lat="42.622135" lon="-7.2268567"><ele>795.6666666666666</ele><time>2026-04-15T08:27:08.844Z</time></trkpt><trkpt lat="42.622055" lon="-7.226915"><ele>799.0</ele><time>2026-04-15T08:27:10.844Z</time></trkpt><trkpt lat="42.6219717" lon="-7.2270017"><ele>798.9999999999999</ele><time>2026-04-15T08:27:12.844Z</time></trkpt><trkpt lat="42.6219017" lon="-7.2270683"><ele>799.0</ele><time>2026-04-15T08:27:14.844Z</time></trkpt><trkpt lat="42.6218233" lon="-7.2271317"><ele>799.0</ele><time>2026-04-15T08:27:16.845Z</time></trkpt><trkpt lat="42.62174" lon="-7.2272033"><ele>799.0</ele><time>2026-04-15T08:27:18.844Z</time></trkpt><trkpt lat="42.621655" lon="-7.2272533"><ele>798.9999999999999</ele><time>2026-04-15T08:27:20.844Z</time></trkpt><trkpt lat="42.6215783" lon="-7.22729"><ele>799.0</ele><time>2026-04-15T08:27:22.844Z</time></trkpt><trkpt lat="42.621505" lon="-7.227325"><ele>800.2</ele><time>2026-04-15T08:27:24.844Z</time></trkpt><trkpt lat="42.6213983" lon="-7.2273683"><ele>801.4000000000001</ele><time>2026-04-15T08:27:26.845Z</time></trkpt><trkpt lat="42.6213" lon="-7.2274183"><ele>802.6</ele><time>2026-04-15T08:27:28.844Z</time></trkpt><trkpt lat="42.62121" lon="-7.2274983"><ele>803.8</ele><time>2026-04-15T08:27:30.844Z</time></trkpt><trkpt lat="42.6211133" lon="-7.2275733"><ele>805.0</ele><time>2026-04-15T08:27:32.845Z</time></trkpt><trkpt lat="42.6210333" lon="-7.2276533"><ele>805.0</ele><time>2026-04-15T08:27:34.844Z</time></trkpt><trkpt lat="42.6209583" lon="-7.2277383"><ele>805.0</ele><time>2026-04-15T08:27:36.844Z</time></trkpt><trkpt lat="42.6208767" lon="-7.2278317"><ele>805.0</ele><time>2026-04-15T08:27:38.844Z</time></trkpt><trkpt lat="42.62081" lon="-7.2279267"><ele>805.0</ele><time>2026-04-15T08:27:40.844Z</time></trkpt><trkpt lat="42.6207367" lon="-7.2280283"><ele>805.0</ele><time>2026-04-15T08:27:42.844Z</time></trkpt><trkpt lat="42.6206633" lon="-7.2281267"><ele>810.2</ele><time>2026-04-15T08:27:44.845Z</time></trkpt><trkpt lat="42.6205767" lon="-7.2282133"><ele>815.4</ele><time>2026-04-15T08:27:46.845Z</time></trkpt><trkpt lat="42.6204983" lon="-7.2283"><ele>820.5999999999999</ele><time>2026-04-15T08:27:48.844Z</time></trkpt><trkpt lat="42.6204267" lon="-7.22842"><ele>825.8</ele><time>2026-04-15T08:27:50.845Z</time></trkpt><trkpt lat="42.6203717" lon="-7.2285083"><ele>831.0</ele><time>2026-04-15T08:27:52.844Z</time></trkpt><trkpt lat="42.6203317" lon="-7.22861"><ele>828.1999999999999</ele><time>2026-04-15T08:27:54.845Z</time></trkpt><trkpt lat="42.6202967" lon="-7.2287217"><ele>825.4</ele><time>2026-04-15T08:27:56.845Z</time></trkpt><trkpt lat="42.62026" lon="-7.228845"><ele>822.6</ele><time>2026-04-15T08:27:58.845Z</time></trkpt><trkpt lat="42.6202183" lon="-7.2289733"><ele>819.8</ele><time>2026-04-15T08:28:00.844Z</time></trkpt><trkpt lat="42.620185" lon="-7.2290933"><ele>817.0</ele><time>2026-04-15T08:28:02.844Z</time></trkpt><trkpt lat="42.6201583" lon="-7.229225"><ele>817.0</ele><time>2026-04-15T08:28:04.844Z</time></trkpt><trkpt lat="42.62014" lon="-7.2293467"><ele>817.0</ele><time>2026-04-15T08:28:06.845Z</time></trkpt><trkpt lat="42.6201117" lon="-7.22945"><ele>817.0</ele><time>2026-04-15T08:28:08.845Z</time></trkpt><trkpt lat="42.62008" lon="-7.2295583"><ele>817.0</ele><time>2026-04-15T08:28:10.844Z</time></trkpt><trkpt lat="42.62005" lon="-7.2296683"><ele>817.0</ele><time>2026-04-15T08:28:12.845Z</time></trkpt><trkpt lat="42.6206633" lon="-7.2281267"><ele>819.8</ele><time>2026-04-15T08:27:44.845Z</time></trkpt><trkpt lat="42.6205767" lon="-7.2282133"><ele>822.6</ele><time>2026-04-15T08:27:46.845Z</time></trkpt><trkpt lat="42.6204983" lon="-7.2283"><ele>825.4</ele><time>2026-04-15T08:27:48.844Z</time></trkpt><trkpt lat="42.6204267" lon="-7.22842"><ele>828.1999999999999</ele><time>2026-04-15T08:27:50.845Z</time></trkpt><trkpt lat="42.6203717" lon="-7.2285083"><ele>831.0</ele><time>2026-04-15T08:27:52.844Z</time></trkpt><trkpt lat="42.6203317" lon="-7.22861"><ele>828.1999999999999</ele><time>2026-04-15T08:27:54.845Z</time></trkpt><trkpt lat="42.6202967" lon="-7.2287217"><ele>825.4</ele><time>2026-04-15T08:27:56.845Z</time></trkpt><trkpt lat="42.62026" lon="-7.228845"><ele>822.6</ele><time>2026-04-15T08:27:58.845Z</time></trkpt><trkpt lat="42.6202183" lon="-7.2289733"><ele>819.8</ele><time>2026-04-15T08:28:00.844Z</time></trkpt><trkpt lat="42.620185" lon="-7.2290933"><ele>817.0</ele><time>2026-04-15T08:28:02.844Z</time></trkpt><trkpt lat="42.6201583" lon="-7.229225"><ele>816.9999999999999</ele><time>2026-04-15T08:28:04.844Z</time></trkpt><trkpt lat="42.62014" lon="-7.2293467"><ele>817.0</ele><time>2026-04-15T08:28:06.845Z</time></trkpt><trkpt lat="42.6201117" lon="-7.22945"><ele>817.0</ele><time>2026-04-15T08:28:08.845Z</time></trkpt><trkpt lat="42.62008" lon="-7.2295583"><ele>817.0</ele><time>2026-04-15T08:28:10.844Z</time></trkpt><trkpt lat="42.62005" lon="-7.2296683"><ele>816.9999999999999</ele><time>2026-04-15T08:28:12.845Z</time></trkpt><trkpt lat="42.62001" lon="-7.229785"><ele>817.0</ele><time>2026-04-15T08:28:14.844Z</time></trkpt><trkpt lat="42.6199683" lon="-7.2299033"><ele>819.6666666666666</ele><time>2026-04-15T08:28:16.845Z</time></trkpt><trkpt lat="42.6199183" lon="-7.2300183"><ele>822.3333333333333</ele><time>2026-04-15T08:28:18.844Z</time></trkpt><trkpt lat="42.61987" lon="-7.2301017"><ele>825.0</ele><time>2026-04-15T08:28:20.844Z</time></trkpt><trkpt lat="42.6198117" lon="-7.2301767"><ele>827.6666666666667</ele><time>2026-04-15T08:28:22.845Z</time></trkpt><trkpt lat="42.619745" lon="-7.2302717"><ele>830.3333333333334</ele><time>2026-04-15T08:28:24.844Z</time></trkpt><trkpt lat="42.6197033" lon="-7.2303367"><ele>833.0</ele><time>2026-04-15T08:28:25.844Z</time></trkpt><trkpt lat="42.6196633" lon="-7.2304033"><ele>833.0000000000001</ele><time>2026-04-15T08:28:26.844Z</time></trkpt><trkpt lat="42.619615" lon="-7.230465"><ele>833.0</ele><time>2026-04-15T08:28:27.845Z</time></trkpt><trkpt lat="42.6195633" lon="-7.2305283"><ele>833.0</ele><time>2026-04-15T08:28:28.844Z</time></trkpt><trkpt lat="42.6194717" lon="-7.23065"><ele>833.0</ele><time>2026-04-15T08:28:30.845Z</time></trkpt><trkpt lat="42.6194333" lon="-7.2307183"><ele>833.0000000000001</ele><time>2026-04-15T08:28:31.845Z</time></trkpt><trkpt lat="42.6193867" lon="-7.2308667"><ele>833.0</ele><time>2026-04-15T08:28:33.845Z</time></trkpt><trkpt lat="42.6193767" lon="-7.2310033"><ele>834.2</ele><time>2026-04-15T08:28:35.845Z</time></trkpt><trkpt lat="42.6194183" lon="-7.2311167"><ele>835.4</ele><time>2026-04-15T08:28:37.846Z</time></trkpt><trkpt lat="42.6195333" lon="-7.2312167"><ele>836.6</ele><time>2026-04-15T08:28:39.846Z</time></trkpt><trkpt lat="42.61961" lon="-7.231225"><ele>837.8000000000001</ele><time>2026-04-15T08:28:40.846Z</time></trkpt><trkpt lat="42.6196983" lon="-7.2312167"><ele>839.0</ele><time>2026-04-15T08:28:41.845Z</time></trkpt><trkpt lat="42.61981" lon="-7.2311933"><ele>839.0</ele><time>2026-04-15T08:28:42.846Z</time></trkpt><trkpt lat="42.6199267" lon="-7.2311667"><ele>839.0</ele><time>2026-04-15T08:28:43.846Z</time></trkpt><trkpt lat="42.62005" lon="-7.2311517"><ele>839.0</ele><time>2026-04-15T08:28:44.846Z</time></trkpt><trkpt lat="42.6201533" lon="-7.2311233"><ele>839.0</ele><time>2026-04-15T08:28:45.845Z</time></trkpt><trkpt lat="42.6202117" lon="-7.2310883"><ele>839.0</ele><time>2026-04-15T08:28:46.845Z</time></trkpt><trkpt lat="42.62024" lon="-7.230995"><ele>839.0</ele><time>2026-04-15T08:28:48.845Z</time></trkpt><trkpt lat="42.6201533" lon="-7.2308933"><ele>839.0</ele><time>2026-04-15T08:28:50.845Z</time></trkpt><trkpt lat="42.6201033" lon="-7.2308333"><ele>839.0</ele><time>2026-04-15T08:28:51.846Z</time></trkpt><trkpt lat="42.6201067" lon="-7.2307083"><ele>839.0</ele><time>2026-04-15T08:28:53.845Z</time></trkpt><trkpt lat="42.6201683" lon="-7.2306317"><ele>839.0</ele><time>2026-04-15T08:28:54.846Z</time></trkpt><trkpt lat="42.6202517" lon="-7.2305417"><ele>845.25</ele><time>2026-04-15T08:28:55.845Z</time></trkpt><trkpt lat="42.6203533" lon="-7.2304383"><ele>851.5</ele><time>2026-04-15T08:28:56.846Z</time></trkpt><trkpt lat="42.62046" lon="-7.2303067"><ele>857.75</ele><time>2026-04-15T08:28:57.845Z</time></trkpt><trkpt lat="42.620575" lon="-7.2301517"><ele>864.0</ele><time>2026-04-15T08:28:58.845Z</time></trkpt><trkpt lat="42.6206967" lon="-7.230005"><ele>864.0</ele><time>2026-04-15T08:28:59.845Z</time></trkpt><trkpt lat="42.6208267" lon="-7.22988"><ele>864.0</ele><time>2026-04-15T08:29:00.846Z</time></trkpt><trkpt lat="42.6209667" lon="-7.2297583"><ele>864.0</ele><time>2026-04-15T08:29:01.846Z</time></trkpt><trkpt lat="42.62112" lon="-7.2296283"><ele>866.3333333333333</ele><time>2026-04-15T08:29:02.845Z</time></trkpt><trkpt lat="42.6212833" lon="-7.2295167"><ele>868.6666666666666</ele><time>2026-04-15T08:29:03.845Z</time></trkpt><trkpt lat="42.621455" lon="-7.2294333"><ele>871.0</ele><time>2026-04-15T08:29:04.846Z</time></trkpt><trkpt lat="42.6216333" lon="-7.229375"><ele>871.0</ele><time>2026-04-15T08:29:05.846Z</time></trkpt><trkpt lat="42.6218283" lon="-7.22932"><ele>871.0</ele><time>2026-04-15T08:29:06.845Z</time></trkpt><trkpt lat="42.6220133" lon="-7.2292567"><ele>871.0</ele><time>2026-04-15T08:29:07.845Z</time></trkpt><trkpt lat="42.6221867" lon="-7.2292017"><ele>872.3333333333333</ele><time>2026-04-15T08:29:08.845Z</time></trkpt><trkpt lat="42.6223533" lon="-7.229175"><ele>873.6666666666667</ele><time>2026-04-15T08:29:09.845Z</time></trkpt><trkpt lat="42.6225333" lon="-7.2291883"><ele>875.0</ele><time>2026-04-15T08:29:10.846Z</time></trkpt><trkpt lat="42.62272" lon="-7.229225"><ele>876.0</ele><time>2026-04-15T08:29:11.846Z</time></trkpt><trkpt lat="42.6229" lon="-7.2292717"><ele>877.0</ele><time>2026-04-15T08:29:12.845Z</time></trkpt><trkpt lat="42.6230767" lon="-7.229345"><ele>878.0</ele><time>2026-04-15T08:29:13.846Z</time></trkpt><trkpt lat="42.6232467" lon="-7.2294183"><ele>878.0</ele><time>2026-04-15T08:29:14.845Z</time></trkpt><trkpt lat="42.6234033" lon="-7.229515"><ele>878.0</ele><time>2026-04-15T08:29:15.845Z</time></trkpt><trkpt lat="42.6235483" lon="-7.2296433"><ele>878.0</ele><time>2026-04-15T08:29:16.846Z</time></trkpt><trkpt lat="42.623675" lon="-7.22976"><ele>878.25</ele><time>2026-04-15T08:29:17.846Z</time></trkpt><trkpt lat="42.6237883" lon="-7.229825"><ele>878.5</ele><time>2026-04-15T08:29:18.845Z</time></trkpt><trkpt lat="42.6238867" lon="-7.229845"><ele>878.75</ele><time>2026-04-15T08:29:19.845Z</time></trkpt><trkpt lat="42.6240033" lon="-7.2298233"><ele>879.0</ele><time>2026-04-15T08:29:20.845Z</time></trkpt><trkpt lat="42.624125" lon="-7.2297933"><ele>882.0</ele><time>2026-04-15T08:29:21.846Z</time></trkpt><trkpt lat="42.624265" lon="-7.2297717"><ele>885.0</ele><time>2026-04-15T08:29:22.845Z</time></trkpt><trkpt lat="42.6244167" lon="-7.2297333"><ele>888.0</ele><time>2026-04-15T08:29:23.846Z</time></trkpt><trkpt lat="42.6245633" lon="-7.2296833"><ele>891.0</ele><time>2026-04-15T08:29:24.846Z</time></trkpt><trkpt lat="42.6247133" lon="-7.2296233"><ele>895.6666666666667</ele><time>2026-04-15T08:29:25.846Z</time></trkpt><trkpt lat="42.6248733" lon="-7.2295567"><ele>900.3333333333334</ele><time>2026-04-15T08:29:26.845Z</time></trkpt><trkpt lat="42.625045" lon="-7.22949"><ele>905.0</ele><time>2026-04-15T08:29:27.845Z</time></trkpt><trkpt lat="42.6252167" lon="-7.2294383"><ele>907.3333333333334</ele><time>2026-04-15T08:29:28.846Z</time></trkpt><trkpt lat="42.62539" lon="-7.2293983"><ele>909.6666666666667</ele><time>2026-04-15T08:29:29.846Z</time></trkpt><trkpt lat="42.62557" lon="-7.2293583"><ele>912.0</ele><time>2026-04-15T08:29:30.845Z</time></trkpt><trkpt lat="42.625755" lon="-7.2293333"><ele>912.0</ele><time>2026-04-15T08:29:31.845Z</time></trkpt><trkpt lat="42.6259233" lon="-7.22931"><ele>912.0</ele><time>2026-04-15T08:29:32.845Z</time></trkpt><trkpt lat="42.626075" lon="-7.2293033"><ele>912.0</ele><time>2026-04-15T08:29:33.846Z</time></trkpt><trkpt lat="42.62622" lon="-7.2292767"><ele>912.5</ele><time>2026-04-15T08:29:34.845Z</time></trkpt><trkpt lat="42.6263467" lon="-7.229225"><ele>913.0</ele><time>2026-04-15T08:29:35.845Z</time></trkpt><trkpt lat="42.6264683" lon="-7.22914"><ele>913.5</ele><time>2026-04-15T08:29:36.846Z</time></trkpt><trkpt lat="42.6265767" lon="-7.2290217"><ele>914.0</ele><time>2026-04-15T08:29:37.845Z</time></trkpt><trkpt lat="42.6266883" lon="-7.2288933"><ele>918.3333333333334</ele><time>2026-04-15T08:29:38.845Z</time></trkpt><trkpt lat="42.6268117" lon="-7.228785"><ele>922.6666666666667</ele><time>2026-04-15T08:29:39.845Z</time></trkpt><trkpt lat="42.62694" lon="-7.2286917"><ele>927.0</ele><time>2026-04-15T08:29:40.845Z</time></trkpt><trkpt lat="42.6225333" lon="-7.2291883"><ele>910.6666666666667</ele><time>2026-04-15T08:29:10.846Z</time></trkpt><trkpt lat="42.62272" lon="-7.229225"><ele>894.3333333333334</ele><time>2026-04-15T08:29:11.846Z</time></trkpt><trkpt lat="42.6229" lon="-7.2292717"><ele>878.0</ele><time>2026-04-15T08:29:12.845Z</time></trkpt><trkpt lat="42.6230767" lon="-7.229345"><ele>878.0</ele><time>2026-04-15T08:29:13.846Z</time></trkpt><trkpt lat="42.6232467" lon="-7.2294183"><ele>878.0</ele><time>2026-04-15T08:29:14.845Z</time></trkpt><trkpt lat="42.6234033" lon="-7.229515"><ele>878.0</ele><time>2026-04-15T08:29:15.845Z</time></trkpt><trkpt lat="42.6235483" lon="-7.2296433"><ele>878.25</ele><time>2026-04-15T08:29:16.846Z</time></trkpt><trkpt lat="42.623675" lon="-7.22976"><ele>878.5</ele><time>2026-04-15T08:29:17.846Z</time></trkpt><trkpt lat="42.6237883" lon="-7.229825"><ele>878.75</ele><time>2026-04-15T08:29:18.845Z</time></trkpt><trkpt lat="42.6238867" lon="-7.229845"><ele>879.0</ele><time>2026-04-15T08:29:19.845Z</time></trkpt><trkpt lat="42.6240033" lon="-7.2298233"><ele>882.0</ele><time>2026-04-15T08:29:20.845Z</time></trkpt><trkpt lat="42.624125" lon="-7.2297933"><ele>885.0</ele><time>2026-04-15T08:29:21.846Z</time></trkpt><trkpt lat="42.624265" lon="-7.2297717"><ele>888.0</ele><time>2026-04-15T08:29:22.845Z</time></trkpt><trkpt lat="42.6244167" lon="-7.2297333"><ele>891.0</ele><time>2026-04-15T08:29:23.846Z</time></trkpt><trkpt lat="42.6245633" lon="-7.2296833"><ele>895.6666666666667</ele><time>2026-04-15T08:29:24.846Z</time></trkpt><trkpt lat="42.6247133" lon="-7.2296233"><ele>900.3333333333334</ele><time>2026-04-15T08:29:25.846Z</time></trkpt><trkpt lat="42.6248733" lon="-7.2295567"><ele>905.0</ele><time>2026-04-15T08:29:26.845Z</time></trkpt><trkpt lat="42.625045" lon="-7.22949"><ele>905.0</ele><time>2026-04-15T08:29:27.845Z</time></trkpt><trkpt lat="42.6252167" lon="-7.2294383"><ele>905.0</ele><time>2026-04-15T08:29:28.846Z</time></trkpt><trkpt lat="42.62539" lon="-7.2293983"><ele>905.0</ele><time>2026-04-15T08:29:29.846Z</time></trkpt><trkpt lat="42.62557" lon="-7.2293583"><ele>907.3333333333334</ele><time>2026-04-15T08:29:30.845Z</time></trkpt><trkpt lat="42.625755" lon="-7.2293333"><ele>909.6666666666667</ele><time>2026-04-15T08:29:31.845Z</time></trkpt><trkpt lat="42.6259233" lon="-7.22931"><ele>912.0</ele><time>2026-04-15T08:29:32.845Z</time></trkpt><trkpt lat="42.626075" lon="-7.2293033"><ele>912.5</ele><time>2026-04-15T08:29:33.846Z</time></trkpt><trkpt lat="42.62622" lon="-7.2292767"><ele>913.0</ele><time>2026-04-15T08:29:34.845Z</time></trkpt><trkpt lat="42.6263467" lon="-7.229225"><ele>913.5</ele><time>2026-04-15T08:29:35.845Z</time></trkpt><trkpt lat="42.6264683" lon="-7.22914"><ele>914.0</ele><time>2026-04-15T08:29:36.846Z</time></trkpt><trkpt lat="42.6265767" lon="-7.2290217"><ele>917.25</ele><time>2026-04-15T08:29:37.845Z</time></trkpt><trkpt lat="42.6266883" lon="-7.2288933"><ele>920.5</ele><time>2026-04-15T08:29:38.845Z</time></trkpt><trkpt lat="42.6268117" lon="-7.228785"><ele>923.75</ele><time>2026-04-15T08:29:39.845Z</time></trkpt><trkpt lat="42.62694" lon="-7.2286917"><ele>927.0</ele><time>2026-04-15T08:29:40.845Z</time></trkpt><trkpt lat="42.6270683" lon="-7.22862"><ele>928.0</ele><time>2026-04-15T08:29:41.845Z</time></trkpt><trkpt lat="42.6271833" lon="-7.228535"><ele>929.0</ele><time>2026-04-15T08:29:42.845Z</time></trkpt><trkpt lat="42.6272983" lon="-7.2284367"><ele>930.0</ele><time>2026-04-15T08:29:43.846Z</time></trkpt><trkpt lat="42.6274167" lon="-7.2283317"><ele>931.0</ele><time>2026-04-15T08:29:44.846Z</time></trkpt><trkpt lat="42.6275417" lon="-7.228245"><ele>931.0</ele><time>2026-04-15T08:29:45.845Z</time></trkpt><trkpt lat="42.6276733" lon="-7.2281617"><ele>931.0</ele><time>2026-04-15T08:29:46.846Z</time></trkpt><trkpt lat="42.6278017" lon="-7.2280717"><ele>931.0</ele><time>2026-04-15T08:29:47.846Z</time></trkpt><trkpt lat="42.6279317" lon="-7.2279817"><ele>931.0</ele><time>2026-04-15T08:29:48.846Z</time></trkpt><trkpt lat="42.6280633" lon="-7.2278983"><ele>933.75</ele><time>2026-04-15T08:29:49.845Z</time></trkpt><trkpt lat="42.62818" lon="-7.2278067"><ele>936.5</ele><time>2026-04-15T08:29:50.845Z</time></trkpt><trkpt lat="42.6282967" lon="-7.227705"><ele>939.25</ele><time>2026-04-15T08:29:51.846Z</time></trkpt><trkpt lat="42.6284033" lon="-7.227615"><ele>942.0</ele><time>2026-04-15T08:29:52.845Z</time></trkpt><trkpt lat="42.6285167" lon="-7.22753"><ele>942.0</ele><time>2026-04-15T08:29:53.846Z</time></trkpt><trkpt lat="42.6286383" lon="-7.2274633"><ele>942.0</ele><time>2026-04-15T08:29:54.845Z</time></trkpt><trkpt lat="42.628755" lon="-7.2274"><ele>942.0</ele><time>2026-04-15T08:29:55.845Z</time></trkpt><trkpt lat="42.62887" lon="-7.2273417"><ele>942.0</ele><time>2026-04-15T08:29:56.846Z</time></trkpt><trkpt lat="42.6289833" lon="-7.2272783"><ele>947.0</ele><time>2026-04-15T08:29:57.846Z</time></trkpt><trkpt lat="42.6291033" lon="-7.2272133"><ele>952.0</ele><time>2026-04-15T08:29:58.846Z</time></trkpt><trkpt lat="42.62923" lon="-7.2271667"><ele>957.0</ele><time>2026-04-15T08:29:59.845Z</time></trkpt><trkpt lat="42.6293717" lon="-7.22712"><ele>962.0</ele><time>2026-04-15T08:30:00.845Z</time></trkpt><trkpt lat="42.62951" lon="-7.2270583"><ele>969.0</ele><time>2026-04-15T08:30:01.846Z</time></trkpt><trkpt lat="42.6296483" lon="-7.2269667"><ele>976.0</ele><time>2026-04-15T08:30:02.846Z</time></trkpt><trkpt lat="42.6297933" lon="-7.2268567"><ele>983.0</ele><time>2026-04-15T08:30:03.846Z</time></trkpt><trkpt lat="42.6299267" lon="-7.2267517"><ele>983.0</ele><time>2026-04-15T08:30:04.845Z</time></trkpt><trkpt lat="42.6300683" lon="-7.2266833"><ele>983.0</ele><time>2026-04-15T08:30:05.846Z</time></trkpt><trkpt lat="42.6302117" lon="-7.2266267"><ele>983.0</ele><time>2026-04-15T08:30:06.845Z</time></trkpt><trkpt lat="42.6303517" lon="-7.2265717"><ele>983.0</ele><time>2026-04-15T08:30:07.845Z</time></trkpt><trkpt lat="42.6304817" lon="-7.226525"><ele>988.5999999999999</ele><time>2026-04-15T08:30:08.846Z</time></trkpt><trkpt lat="42.630595" lon="-7.2264767"><ele>994.1999999999999</ele><time>2026-04-15T08:30:09.846Z</time></trkpt><trkpt lat="42.6306883" lon="-7.2264167"><ele>999.8</ele><time>2026-04-15T08:30:10.846Z</time></trkpt><trkpt lat="42.6307833" lon="-7.2263717"><ele>1005.4</ele><time>2026-04-15T08:30:11.845Z</time></trkpt><trkpt lat="42.6308933" lon="-7.226335"><ele>1011.0</ele><time>2026-04-15T08:30:12.846Z</time></trkpt><trkpt lat="42.6310117" lon="-7.2263017"><ele>1011.0</ele><time>2026-04-15T08:30:13.846Z</time></trkpt><trkpt lat="42.631135" lon="-7.2262667"><ele>1010.9999999999999</ele><time>2026-04-15T08:30:14.846Z</time></trkpt><trkpt lat="42.63124" lon="-7.2262583"><ele>1010.9999999999999</ele><time>2026-04-15T08:30:15.846Z</time></trkpt><trkpt lat="42.6313367" lon="-7.2262917"><ele>1011.0</ele><time>2026-04-15T08:30:16.846Z</time></trkpt><trkpt lat="42.6314283" lon="-7.2263633"><ele>1011.0</ele><time>2026-04-15T08:30:17.846Z</time></trkpt><trkpt lat="42.6315133" lon="-7.2264483"><ele>1013.8</ele><time>2026-04-15T08:30:18.846Z</time></trkpt><trkpt lat="42.6316033" lon="-7.2265383"><ele>1016.5999999999999</ele><time>2026-04-15T08:30:19.845Z</time></trkpt><trkpt lat="42.6316783" lon="-7.2266367"><ele>1019.4</ele><time>2026-04-15T08:30:20.845Z</time></trkpt><trkpt lat="42.6317383" lon="-7.2267017"><ele>1022.2</ele><time>2026-04-15T08:30:21.845Z</time></trkpt><trkpt lat="42.63185" lon="-7.226665"><ele>1025.0</ele><time>2026-04-15T08:30:23.845Z</time></trkpt><trkpt lat="42.6318917" lon="-7.2265783"><ele>1025.6</ele><time>2026-04-15T08:30:24.846Z</time></trkpt><trkpt lat="42.631925" lon="-7.226465"><ele>1026.2</ele><time>2026-04-15T08:30:25.846Z</time></trkpt><trkpt lat="42.6319717" lon="-7.2263667"><ele>1026.8</ele><time>2026-04-15T08:30:26.846Z</time></trkpt><trkpt lat="42.632045" lon="-7.2262867"><ele>1027.4</ele><time>2026-04-15T08:30:27.846Z</time></trkpt><trkpt lat="42.63214" lon="-7.22622"><ele>1028.0</ele><time>2026-04-15T08:30:28.846Z</time></trkpt><trkpt lat="42.6322617" lon="-7.226165"><ele>1033.25</ele><time>2026-04-15T08:30:29.845Z</time></trkpt><trkpt lat="42.6324033" lon="-7.2261167"><ele>1038.5</ele><time>2026-04-15T08:30:30.846Z</time></trkpt><trkpt lat="42.6325483" lon="-7.2260717"><ele>1043.75</ele><time>2026-04-15T08:30:31.846Z</time></trkpt><trkpt lat="42.6326917" lon="-7.2260383"><ele>1049.0</ele><time>2026-04-15T08:30:32.846Z</time></trkpt><trkpt lat="42.6328167" lon="-7.2259917"><ele>1050.5</ele><time>2026-04-15T08:30:33.845Z</time></trkpt><trkpt lat="42.63294" lon="-7.2259233"><ele>1052.0</ele><time>2026-04-15T08:30:34.846Z</time></trkpt><trkpt lat="42.63306" lon="-7.22583"><ele>1053.5</ele><time>2026-04-15T08:30:35.846Z</time></trkpt><trkpt lat="42.6331867" lon="-7.2257367"><ele>1055.0</ele><time>2026-04-15T08:30:36.846Z</time></trkpt><trkpt lat="42.6333217" lon="-7.2256383"><ele>1056.3333333333335</ele><time>2026-04-15T08:30:37.845Z</time></trkpt><trkpt lat="42.633465" lon="-7.2255717"><ele>1057.6666666666667</ele><time>2026-04-15T08:30:38.845Z</time></trkpt><trkpt lat="42.6336183" lon="-7.2255083"><ele>1059.0</ele><time>2026-04-15T08:30:39.845Z</time></trkpt><trkpt lat="42.6337817" lon="-7.22544"><ele>1061.6666666666667</ele><time>2026-04-15T08:30:40.845Z</time></trkpt><trkpt lat="42.6339517" lon="-7.2253683"><ele>1064.3333333333335</ele><time>2026-04-15T08:30:41.846Z</time></trkpt><trkpt lat="42.6341117" lon="-7.2252967"><ele>1067.0</ele><time>2026-04-15T08:30:42.846Z</time></trkpt><trkpt lat="42.63426" lon="-7.2252367"><ele>1067.0</ele><time>2026-04-15T08:30:43.846Z</time></trkpt><trkpt lat="42.6343967" lon="-7.2251683"><ele>1067.0</ele><time>2026-04-15T08:30:44.845Z</time></trkpt><trkpt lat="42.6345233" lon="-7.2251"><ele>1067.0</ele><time>2026-04-15T08:30:45.846Z</time></trkpt><trkpt lat="42.63464" lon="-7.2250133"><ele>1067.0</ele><time>2026-04-15T08:30:46.846Z</time></trkpt><trkpt lat="42.6347483" lon="-7.224915"><ele>1070.5</ele><time>2026-04-15T08:30:47.846Z</time></trkpt><trkpt lat="42.6348567" lon="-7.2248083"><ele>1074.0</ele><time>2026-04-15T08:30:48.845Z</time></trkpt><trkpt lat="42.634965" lon="-7.224695"><ele>1077.5</ele><time>2026-04-15T08:30:49.845Z</time></trkpt><trkpt lat="42.635065" lon="-7.2245733"><ele>1081.0</ele><time>2026-04-15T08:30:50.845Z</time></trkpt><trkpt lat="42.6351667" lon="-7.2244583"><ele>1081.0</ele><time>2026-04-15T08:30:51.846Z</time></trkpt><trkpt lat="42.63526" lon="-7.2243433"><ele>1081.0</ele><time>2026-04-15T08:30:52.846Z</time></trkpt><trkpt lat="42.63534" lon="-7.2242283"><ele>1081.0</ele><time>2026-04-15T08:30:53.846Z</time></trkpt><trkpt lat="42.6354117" lon="-7.2241233"><ele>1081.0</ele><time>2026-04-15T08:30:54.846Z</time></trkpt><trkpt lat="42.6355" lon="-7.2240317"><ele>1081.5</ele><time>2026-04-15T08:30:55.846Z</time></trkpt><trkpt lat="42.6355883" lon="-7.2239533"><ele>1082.0</ele><time>2026-04-15T08:30:56.846Z</time></trkpt><trkpt lat="42.6356817" lon="-7.2238767"><ele>1082.5</ele><time>2026-04-15T08:30:57.845Z</time></trkpt><trkpt lat="42.6357767" lon="-7.2237867"><ele>1083.0</ele><time>2026-04-15T08:30:58.845Z</time></trkpt><trkpt lat="42.635865" lon="-7.2236717"><ele>1083.0</ele><time>2026-04-15T08:30:59.846Z</time></trkpt><trkpt lat="42.6359467" lon="-7.2235367"><ele>1083.0</ele><time>2026-04-15T08:31:00.846Z</time></trkpt><trkpt lat="42.6360367" lon="-7.2233883"><ele>1083.0</ele><time>2026-04-15T08:31:01.845Z</time></trkpt><trkpt lat="42.6361283" lon="-7.22324"><ele>1083.0</ele><time>2026-04-15T08:31:02.845Z</time></trkpt><trkpt lat="42.636225" lon="-7.22308"><ele>1081.25</ele><time>2026-04-15T08:31:03.846Z</time></trkpt><trkpt lat="42.6363267" lon="-7.2229233"><ele>1079.5</ele><time>2026-04-15T08:31:04.846Z</time></trkpt><trkpt lat="42.6364267" lon="-7.2227883"><ele>1077.75</ele><time>2026-04-15T08:31:05.846Z</time></trkpt><trkpt lat="42.6365317" lon="-7.2226533"><ele>1076.0</ele><time>2026-04-15T08:31:06.845Z</time></trkpt><trkpt lat="42.6366467" lon="-7.22253"><ele>1059.0</ele><time>2026-04-15T08:31:07.845Z</time></trkpt><trkpt lat="42.6333217" lon="-7.2256383"><ele>1059.0</ele><time>2026-04-15T08:30:37.845Z</time></trkpt><trkpt lat="42.633465" lon="-7.2255717"><ele>1059.0</ele><time>2026-04-15T08:30:38.845Z</time></trkpt><trkpt lat="42.6336183" lon="-7.2255083"><ele>1059.0</ele><time>2026-04-15T08:30:39.845Z</time></trkpt><trkpt lat="42.6337817" lon="-7.22544"><ele>1061.6666666666667</ele><time>2026-04-15T08:30:40.845Z</time></trkpt><trkpt lat="42.6339517" lon="-7.2253683"><ele>1064.3333333333335</ele><time>2026-04-15T08:30:41.846Z</time></trkpt><trkpt lat="42.6341117" lon="-7.2252967"><ele>1067.0</ele><time>2026-04-15T08:30:42.846Z</time></trkpt><trkpt lat="42.63426" lon="-7.2252367"><ele>1067.0</ele><time>2026-04-15T08:30:43.846Z</time></trkpt><trkpt lat="42.6343967" lon="-7.2251683"><ele>1067.0</ele><time>2026-04-15T08:30:44.845Z</time></trkpt><trkpt lat="42.6345233" lon="-7.2251"><ele>1067.0</ele><time>2026-04-15T08:30:45.846Z</time></trkpt><trkpt lat="42.63464" lon="-7.2250133"><ele>1067.0</ele><time>2026-04-15T08:30:46.846Z</time></trkpt><trkpt lat="42.6347483" lon="-7.224915"><ele>1070.5</ele><time>2026-04-15T08:30:47.846Z</time></trkpt><trkpt lat="42.6348567" lon="-7.2248083"><ele>1074.0</ele><time>2026-04-15T08:30:48.845Z</time></trkpt><trkpt lat="42.634965" lon="-7.224695"><ele>1077.5</ele><time>2026-04-15T08:30:49.845Z</time></trkpt><trkpt lat="42.635065" lon="-7.2245733"><ele>1081.0</ele><time>2026-04-15T08:30:50.845Z</time></trkpt><trkpt lat="42.6351667" lon="-7.2244583"><ele>1081.0</ele><time>2026-04-15T08:30:51.846Z</time></trkpt><trkpt lat="42.63526" lon="-7.2243433"><ele>1081.0</ele><time>2026-04-15T08:30:52.846Z</time></trkpt><trkpt lat="42.63534" lon="-7.2242283"><ele>1081.0</ele><time>2026-04-15T08:30:53.846Z</time></trkpt><trkpt lat="42.6354117" lon="-7.2241233"><ele>1081.0</ele><time>2026-04-15T08:30:54.846Z</time></trkpt><trkpt lat="42.6355" lon="-7.2240317"><ele>1081.5</ele><time>2026-04-15T08:30:55.846Z</time></trkpt><trkpt lat="42.6355883" lon="-7.2239533"><ele>1082.0</ele><time>2026-04-15T08:30:56.846Z</time></trkpt><trkpt lat="42.6356817" lon="-7.2238767"><ele>1082.5</ele><time>2026-04-15T08:30:57.845Z</time></trkpt><trkpt lat="42.6357767" lon="-7.2237867"><ele>1083.0</ele><time>2026-04-15T08:30:58.845Z</time></trkpt><trkpt lat="42.635865" lon="-7.2236717"><ele>1083.0</ele><time>2026-04-15T08:30:59.846Z</time></trkpt><trkpt lat="42.6359467" lon="-7.2235367"><ele>1083.0</ele><time>2026-04-15T08:31:00.846Z</time></trkpt><trkpt lat="42.6360367" lon="-7.2233883"><ele>1083.0</ele><time>2026-04-15T08:31:01.845Z</time></trkpt><trkpt lat="42.6361283" lon="-7.22324"><ele>1083.0</ele><time>2026-04-15T08:31:02.845Z</time></trkpt><trkpt lat="42.636225" lon="-7.22308"><ele>1081.25</ele><time>2026-04-15T08:31:03.846Z</time></trkpt><trkpt lat="42.6363267" lon="-7.2229233"><ele>1079.5</ele><time>2026-04-15T08:31:04.846Z</time></trkpt><trkpt lat="42.6364267" lon="-7.2227883"><ele>1077.75</ele><time>2026-04-15T08:31:05.846Z</time></trkpt><trkpt lat="42.6365317" lon="-7.2226533"><ele>1076.0</ele><time>2026-04-15T08:31:06.845Z</time></trkpt><trkpt lat="42.6366467" lon="-7.22253"><ele>1076.0</ele><time>2026-04-15T08:31:07.845Z</time></trkpt><trkpt lat="42.6367883" lon="-7.22241"><ele>1076.0</ele><time>2026-04-15T08:31:08.846Z</time></trkpt><trkpt lat="42.6369367" lon="-7.2222867"><ele>1076.0</ele><time>2026-04-15T08:31:09.845Z</time></trkpt><trkpt lat="42.637065" lon="-7.2221517"><ele>1074.6666666666667</ele><time>2026-04-15T08:31:10.846Z</time></trkpt><trkpt lat="42.6371883" lon="-7.222015"><ele>1073.3333333333333</ele><time>2026-04-15T08:31:11.846Z</time></trkpt><trkpt lat="42.637325" lon="-7.2218767"><ele>1072.0</ele><time>2026-04-15T08:31:12.846Z</time></trkpt><trkpt lat="42.63747" lon="-7.2217333"><ele>1072.0</ele><time>2026-04-15T08:31:13.846Z</time></trkpt><trkpt lat="42.6376033" lon="-7.221605"><ele>1072.0</ele><time>2026-04-15T08:31:14.846Z</time></trkpt><trkpt lat="42.637735" lon="-7.2215067"><ele>1072.0</ele><time>2026-04-15T08:31:15.845Z</time></trkpt><trkpt lat="42.6378733" lon="-7.22145"><ele>1071.5</ele><time>2026-04-15T08:31:16.845Z</time></trkpt><trkpt lat="42.6380117" lon="-7.2214383"><ele>1071.0</ele><time>2026-04-15T08:31:17.845Z</time></trkpt><trkpt lat="42.6381517" lon="-7.2214467"><ele>1070.5</ele><time>2026-04-15T08:31:18.846Z</time></trkpt><trkpt lat="42.6382833" lon="-7.22146"><ele>1070.0</ele><time>2026-04-15T08:31:19.845Z</time></trkpt><trkpt lat="42.6384" lon="-7.2214683"><ele>1070.0</ele><time>2026-04-15T08:31:20.846Z</time></trkpt><trkpt lat="42.6384983" lon="-7.2214733"><ele>1070.0</ele><time>2026-04-15T08:31:21.845Z</time></trkpt><trkpt lat="42.6385883" lon="-7.2214967"><ele>1070.0</ele><time>2026-04-15T08:31:22.845Z</time></trkpt><trkpt lat="42.6386767" lon="-7.2215567"><ele>1070.0</ele><time>2026-04-15T08:31:23.846Z</time></trkpt><trkpt lat="42.6387633" lon="-7.2216383"><ele>1070.0</ele><time>2026-04-15T08:31:24.846Z</time></trkpt><trkpt lat="42.6388517" lon="-7.2217167"><ele>1074.5</ele><time>2026-04-15T08:31:25.846Z</time></trkpt><trkpt lat="42.6389333" lon="-7.2218217"><ele>1079.0</ele><time>2026-04-15T08:31:26.846Z</time></trkpt><trkpt lat="42.6390033" lon="-7.221945"><ele>1083.5</ele><time>2026-04-15T08:31:27.846Z</time></trkpt><trkpt lat="42.6390917" lon="-7.2220633"><ele>1088.0</ele><time>2026-04-15T08:31:28.845Z</time></trkpt><trkpt lat="42.6391967" lon="-7.222165"><ele>1088.0</ele><time>2026-04-15T08:31:29.846Z</time></trkpt><trkpt lat="42.6393167" lon="-7.2222217"><ele>1088.0</ele><time>2026-04-15T08:31:30.845Z</time></trkpt><trkpt lat="42.6394417" lon="-7.22224"><ele>1088.0</ele><time>2026-04-15T08:31:31.845Z</time></trkpt><trkpt lat="42.63958" lon="-7.2222217"><ele>1088.0</ele><time>2026-04-15T08:31:32.846Z</time></trkpt><trkpt lat="42.6397283" lon="-7.2221817"><ele>1091.5</ele><time>2026-04-15T08:31:33.845Z</time></trkpt><trkpt lat="42.6398817" lon="-7.2221417"><ele>1095.0</ele><time>2026-04-15T08:31:34.845Z</time></trkpt><trkpt lat="42.6400283" lon="-7.2221233"><ele>1098.5</ele><time>2026-04-15T08:31:35.845Z</time></trkpt><trkpt lat="42.640165" lon="-7.22213"><ele>1102.0</ele><time>2026-04-15T08:31:36.845Z</time></trkpt><trkpt lat="42.6403" lon="-7.22217"><ele>1103.6666666666665</ele><time>2026-04-15T08:31:37.845Z</time></trkpt><trkpt lat="42.6404217" lon="-7.2222417"><ele>1105.3333333333333</ele><time>2026-04-15T08:31:38.845Z</time></trkpt><trkpt lat="42.640545" lon="-7.222355"><ele>1107.0</ele><time>2026-04-15T08:31:39.846Z</time></trkpt><trkpt lat="42.6406783" lon="-7.2225017"><ele>1107.0</ele><time>2026-04-15T08:31:40.846Z</time></trkpt><trkpt lat="42.64082" lon="-7.2226817"><ele>1107.0</ele><time>2026-04-15T08:31:41.846Z</time></trkpt><trkpt lat="42.6409667" lon="-7.2228733"><ele>1107.0</ele><time>2026-04-15T08:31:42.846Z</time></trkpt><trkpt lat="42.6411083" lon="-7.223065"><ele>1107.75</ele><time>2026-04-15T08:31:43.845Z</time></trkpt><trkpt lat="42.641225" lon="-7.22322"><ele>1108.5</ele><time>2026-04-15T08:31:44.846Z</time></trkpt><trkpt lat="42.6413267" lon="-7.2233183"><ele>1109.25</ele><time>2026-04-15T08:31:45.845Z</time></trkpt><trkpt lat="42.6414217" lon="-7.2233917"><ele>1110.0</ele><time>2026-04-15T08:31:46.845Z</time></trkpt><trkpt lat="42.6415333" lon="-7.223445"><ele>1110.0</ele><time>2026-04-15T08:31:47.846Z</time></trkpt><trkpt lat="42.641655" lon="-7.22348"><ele>1110.0</ele><time>2026-04-15T08:31:48.845Z</time></trkpt><trkpt lat="42.6417933" lon="-7.2235067"><ele>1110.0</ele><time>2026-04-15T08:31:49.845Z</time></trkpt><trkpt lat="42.64193" lon="-7.2235267"><ele>1110.0</ele><time>2026-04-15T08:31:50.845Z</time></trkpt><trkpt lat="42.6420667" lon="-7.2235367"><ele>1112.75</ele><time>2026-04-15T08:31:51.845Z</time></trkpt><trkpt lat="42.6422017" lon="-7.2235317"><ele>1115.5</ele><time>2026-04-15T08:31:52.845Z</time></trkpt><trkpt lat="42.642335" lon="-7.223525"><ele>1118.25</ele><time>2026-04-15T08:31:53.845Z</time></trkpt><trkpt lat="42.6424733" lon="-7.2234917"><ele>1121.0</ele><time>2026-04-15T08:31:54.845Z</time></trkpt><trkpt lat="42.6426117" lon="-7.2234367"><ele>1121.0</ele><time>2026-04-15T08:31:55.845Z</time></trkpt><trkpt lat="42.6427483" lon="-7.2233567"><ele>1121.0</ele><time>2026-04-15T08:31:56.846Z</time></trkpt><trkpt lat="42.6428667" lon="-7.2232783"><ele>1121.0</ele><time>2026-04-15T08:31:57.845Z</time></trkpt><trkpt lat="42.6429667" lon="-7.2231983"><ele>1121.0</ele><time>2026-04-15T08:31:58.846Z</time></trkpt><trkpt lat="42.643065" lon="-7.2231017"><ele>1130.3333333333335</ele><time>2026-04-15T08:31:59.846Z</time></trkpt><trkpt lat="42.6431833" lon="-7.2229917"><ele>1139.6666666666667</ele><time>2026-04-15T08:32:00.845Z</time></trkpt><trkpt lat="42.6433183" lon="-7.22288"><ele>1149.0</ele><time>2026-04-15T08:32:01.846Z</time></trkpt><trkpt lat="42.6434733" lon="-7.22278"><ele>1149.0</ele><time>2026-04-15T08:32:02.846Z</time></trkpt><trkpt lat="42.6436217" lon="-7.2226933"><ele>1149.0</ele><time>2026-04-15T08:32:03.846Z</time></trkpt><trkpt lat="42.643775" lon="-7.2226283"><ele>1149.0</ele><time>2026-04-15T08:32:04.845Z</time></trkpt><trkpt lat="42.64392" lon="-7.2225833"><ele>1149.6000000000001</ele><time>2026-04-15T08:32:05.845Z</time></trkpt><trkpt lat="42.6440417" lon="-7.2225517"><ele>1150.2</ele><time>2026-04-15T08:32:06.846Z</time></trkpt><trkpt lat="42.6441333" lon="-7.2225283"><ele>1150.8000000000002</ele><time>2026-04-15T08:32:07.846Z</time></trkpt><trkpt lat="42.6442" lon="-7.2225283"><ele>1151.4</ele><time>2026-04-15T08:32:08.845Z</time></trkpt><trkpt lat="42.644305" lon="-7.2226033"><ele>1152.0</ele><time>2026-04-15T08:32:10.846Z</time></trkpt><trkpt lat="42.644365" lon="-7.2226967"><ele>1152.0</ele><time>2026-04-15T08:32:11.846Z</time></trkpt><trkpt lat="42.6444333" lon="-7.22281"><ele>1152.0</ele><time>2026-04-15T08:32:12.845Z</time></trkpt><trkpt lat="42.6445217" lon="-7.2229483"><ele>1152.0</ele><time>2026-04-15T08:32:13.846Z</time></trkpt><trkpt lat="42.6446267" lon="-7.2231017"><ele>1152.0</ele><time>2026-04-15T08:32:14.845Z</time></trkpt><trkpt lat="42.6447467" lon="-7.223275"><ele>1155.3333333333333</ele><time>2026-04-15T08:32:15.845Z</time></trkpt><trkpt lat="42.6448617" lon="-7.22346"><ele>1158.6666666666665</ele><time>2026-04-15T08:32:16.845Z</time></trkpt><trkpt lat="42.6449767" lon="-7.223625"><ele>1162.0</ele><time>2026-04-15T08:32:17.845Z</time></trkpt><trkpt lat="42.6450867" lon="-7.2237833"><ele>1162.0</ele><time>2026-04-15T08:32:18.846Z</time></trkpt><trkpt lat="42.6451933" lon="-7.2239033"><ele>1162.0</ele><time>2026-04-15T08:32:19.846Z</time></trkpt><trkpt lat="42.6453133" lon="-7.223985"><ele>1162.0</ele><time>2026-04-15T08:32:20.845Z</time></trkpt><trkpt lat="42.645445" lon="-7.22404"><ele>1162.0</ele><time>2026-04-15T08:32:21.845Z</time></trkpt><trkpt lat="42.6455767" lon="-7.2240683"><ele>1160.75</ele><time>2026-04-15T08:32:22.846Z</time></trkpt><trkpt lat="42.6457083" lon="-7.2240733"><ele>1159.5</ele><time>2026-04-15T08:32:23.846Z</time></trkpt><trkpt lat="42.6458433" lon="-7.2240533"><ele>1158.25</ele><time>2026-04-15T08:32:24.845Z</time></trkpt><trkpt lat="42.6459817" lon="-7.2240183"><ele>1157.0</ele><time>2026-04-15T08:32:25.845Z</time></trkpt><trkpt lat="42.6461117" lon="-7.22397"><ele>1164.0</ele><time>2026-04-15T08:32:26.846Z</time></trkpt><trkpt lat="42.6462483" lon="-7.2239133"><ele>1171.0</ele><time>2026-04-15T08:32:27.845Z</time></trkpt><trkpt lat="42.64639" lon="-7.2238467"><ele>1178.0</ele><time>2026-04-15T08:32:28.846Z</time></trkpt><trkpt lat="42.6465233" lon="-7.2237583"><ele>1185.0</ele><time>2026-04-15T08:32:29.846Z</time></trkpt><trkpt lat="42.6466533" lon="-7.2236567"><ele>1185.0</ele><time>2026-04-15T08:32:30.846Z</time></trkpt><trkpt lat="42.6467883" lon="-7.2235467"><ele>1185.0</ele><time>2026-04-15T08:32:31.846Z</time></trkpt><trkpt lat="42.6469017" lon="-7.22344"><ele>1185.0</ele><time>2026-04-15T08:32:32.845Z</time></trkpt><trkpt lat="42.6470217" lon="-7.2233467"><ele>1185.0</ele><time>2026-04-15T08:32:33.846Z</time></trkpt><trkpt lat="42.6471433" lon="-7.22327"><ele>1152.0</ele><time>2026-04-15T08:32:34.846Z</time></trkpt><trkpt lat="42.643775" lon="-7.2226283"><ele>1152.0</ele><time>2026-04-15T08:32:04.845Z</time></trkpt><trkpt lat="42.64392" lon="-7.2225833"><ele>1152.0</ele><time>2026-04-15T08:32:05.845Z</time></trkpt><trkpt lat="42.6440417" lon="-7.2225517"><ele>1152.0</ele><time>2026-04-15T08:32:06.846Z</time></trkpt><trkpt lat="42.6441333" lon="-7.2225283"><ele>1152.0</ele><time>2026-04-15T08:32:07.846Z</time></trkpt><trkpt lat="42.6442" lon="-7.2225283"><ele>1152.0</ele><time>2026-04-15T08:32:08.845Z</time></trkpt><trkpt lat="42.644305" lon="-7.2226033"><ele>1152.0</ele><time>2026-04-15T08:32:10.846Z</time></trkpt><trkpt lat="42.644365" lon="-7.2226967"><ele>1152.0</ele><time>2026-04-15T08:32:11.846Z</time></trkpt><trkpt lat="42.6444333" lon="-7.22281"><ele>1152.0</ele><time>2026-04-15T08:32:12.845Z</time></trkpt><trkpt lat="42.6445217" lon="-7.2229483"><ele>1152.0</ele><time>2026-04-15T08:32:13.846Z</time></trkpt><trkpt lat="42.6446267" lon="-7.2231017"><ele>1155.3333333333333</ele><time>2026-04-15T08:32:14.845Z</time></trkpt><trkpt lat="42.6447467" lon="-7.223275"><ele>1158.6666666666665</ele><time>2026-04-15T08:32:15.845Z</time></trkpt><trkpt lat="42.6448617" lon="-7.22346"><ele>1162.0</ele><time>2026-04-15T08:32:16.845Z</time></trkpt><trkpt lat="42.6449767" lon="-7.223625"><ele>1162.0</ele><time>2026-04-15T08:32:17.845Z</time></trkpt><trkpt lat="42.6450867" lon="-7.2237833"><ele>1162.0</ele><time>2026-04-15T08:32:18.846Z</time></trkpt><trkpt lat="42.6451933" lon="-7.2239033"><ele>1162.0</ele><time>2026-04-15T08:32:19.846Z</time></trkpt><trkpt lat="42.6453133" lon="-7.223985"><ele>1162.0</ele><time>2026-04-15T08:32:20.845Z</time></trkpt><trkpt lat="42.645445" lon="-7.22404"><ele>1160.75</ele><time>2026-04-15T08:32:21.845Z</time></trkpt><trkpt lat="42.6455767" lon="-7.2240683"><ele>1159.5</ele><time>2026-04-15T08:32:22.846Z</time></trkpt><trkpt lat="42.6457083" lon="-7.2240733"><ele>1158.25</ele><time>2026-04-15T08:32:23.846Z</time></trkpt><trkpt lat="42.6458433" lon="-7.2240533"><ele>1157.0</ele><time>2026-04-15T08:32:24.845Z</time></trkpt><trkpt lat="42.6459817" lon="-7.2240183"><ele>1164.0</ele><time>2026-04-15T08:32:25.845Z</time></trkpt><trkpt lat="42.6461117" lon="-7.22397"><ele>1171.0</ele><time>2026-04-15T08:32:26.846Z</time></trkpt><trkpt lat="42.6462483" lon="-7.2239133"><ele>1178.0</ele><time>2026-04-15T08:32:27.845Z</time></trkpt><trkpt lat="42.64639" lon="-7.2238467"><ele>1185.0</ele><time>2026-04-15T08:32:28.846Z</time></trkpt><trkpt lat="42.6465233" lon="-7.2237583"><ele>1185.0</ele><time>2026-04-15T08:32:29.846Z</time></trkpt><trkpt lat="42.6466533" lon="-7.2236567"><ele>1185.0</ele><time>2026-04-15T08:32:30.846Z</time></trkpt><trkpt lat="42.6467883" lon="-7.2235467"><ele>1185.0</ele><time>2026-04-15T08:32:31.846Z</time></trkpt><trkpt lat="42.6469017" lon="-7.22344"><ele>1185.0</ele><time>2026-04-15T08:32:32.845Z</time></trkpt><trkpt lat="42.6470217" lon="-7.2233467"><ele>1184.75</ele><time>2026-04-15T08:32:33.846Z</time></trkpt><trkpt lat="42.6471433" lon="-7.22327"><ele>1184.5</ele><time>2026-04-15T08:32:34.846Z</time></trkpt><trkpt lat="42.6472633" lon="-7.2232117"><ele>1184.25</ele><time>2026-04-15T08:32:35.845Z</time></trkpt><trkpt lat="42.64736" lon="-7.223175"><ele>1184.0</ele><time>2026-04-15T08:32:36.846Z</time></trkpt><trkpt lat="42.6474567" lon="-7.2231417"><ele>1192.25</ele><time>2026-04-15T08:32:37.846Z</time></trkpt><trkpt lat="42.6475583" lon="-7.2231117"><ele>1200.5</ele><time>2026-04-15T08:32:38.845Z</time></trkpt><trkpt lat="42.64767" lon="-7.2230867"><ele>1208.75</ele><time>2026-04-15T08:32:39.846Z</time></trkpt><trkpt lat="42.6477867" lon="-7.2230683"><ele>1217.0</ele><time>2026-04-15T08:32:40.846Z</time></trkpt><trkpt lat="42.6479083" lon="-7.2230617"><ele>1215.2</ele><time>2026-04-15T08:32:41.845Z</time></trkpt><trkpt lat="42.6480283" lon="-7.2230767"><ele>1213.4</ele><time>2026-04-15T08:32:42.846Z</time></trkpt><trkpt lat="42.6481433" lon="-7.2230967"><ele>1211.6</ele><time>2026-04-15T08:32:43.845Z</time></trkpt><trkpt lat="42.6482467" lon="-7.2231183"><ele>1209.8</ele><time>2026-04-15T08:32:44.846Z</time></trkpt><trkpt lat="42.6483367" lon="-7.2231533"><ele>1208.0</ele><time>2026-04-15T08:32:45.845Z</time></trkpt><trkpt lat="42.6484" lon="-7.2231967"><ele>1208.0</ele><time>2026-04-15T08:32:46.845Z</time></trkpt><trkpt lat="42.6484533" lon="-7.223275"><ele>1208.0</ele><time>2026-04-15T08:32:47.845Z</time></trkpt><trkpt lat="42.6484933" lon="-7.2233867"><ele>1208.0</ele><time>2026-04-15T08:32:48.845Z</time></trkpt><trkpt lat="42.648535" lon="-7.22353"><ele>1208.0</ele><time>2026-04-15T08:32:49.845Z</time></trkpt><trkpt lat="42.6485917" lon="-7.2236717"><ele>1208.0</ele><time>2026-04-15T08:32:50.846Z</time></trkpt><trkpt lat="42.648665" lon="-7.223785"><ele>1211.75</ele><time>2026-04-15T08:32:51.846Z</time></trkpt><trkpt lat="42.6487583" lon="-7.2238933"><ele>1215.5</ele><time>2026-04-15T08:32:52.846Z</time></trkpt><trkpt lat="42.6488717" lon="-7.2240033"><ele>1219.25</ele><time>2026-04-15T08:32:53.845Z</time></trkpt><trkpt lat="42.6490117" lon="-7.2241217"><ele>1223.0</ele><time>2026-04-15T08:32:54.845Z</time></trkpt><trkpt lat="42.64916" lon="-7.2242267"><ele>1223.0</ele><time>2026-04-15T08:32:55.846Z</time></trkpt><trkpt lat="42.6493133" lon="-7.2243117"><ele>1223.0</ele><time>2026-04-15T08:32:56.846Z</time></trkpt><trkpt lat="42.649485" lon="-7.22438"><ele>1223.0</ele><time>2026-04-15T08:32:57.845Z</time></trkpt><trkpt lat="42.64967" lon="-7.2244317"><ele>1228.0</ele><time>2026-04-15T08:32:58.845Z</time></trkpt><trkpt lat="42.64986" lon="-7.2244767"><ele>1233.0</ele><time>2026-04-15T08:32:59.846Z</time></trkpt><trkpt lat="42.6500467" lon="-7.2245033"><ele>1238.0</ele><time>2026-04-15T08:33:00.846Z</time></trkpt><trkpt lat="42.6502267" lon="-7.2245283"><ele>1240.3333333333335</ele><time>2026-04-15T08:33:01.845Z</time></trkpt><trkpt lat="42.6503933" lon="-7.224555"><ele>1242.6666666666667</ele><time>2026-04-15T08:33:02.846Z</time></trkpt><trkpt lat="42.6505567" lon="-7.22458"><ele>1245.0</ele><time>2026-04-15T08:33:03.846Z</time></trkpt><trkpt lat="42.65071" lon="-7.2246067"><ele>1245.0</ele><time>2026-04-15T08:33:04.846Z</time></trkpt><trkpt lat="42.6508567" lon="-7.224635"><ele>1245.0</ele><time>2026-04-15T08:33:05.845Z</time></trkpt><trkpt lat="42.651" lon="-7.2246517"><ele>1245.0</ele><time>2026-04-15T08:33:06.845Z</time></trkpt><trkpt lat="42.6511383" lon="-7.224655"><ele>1245.0</ele><time>2026-04-15T08:33:07.846Z</time></trkpt><trkpt lat="42.6512817" lon="-7.224645"><ele>1241.0</ele><time>2026-04-15T08:33:08.846Z</time></trkpt><trkpt lat="42.65142" lon="-7.2246067"><ele>1237.0</ele><time>2026-04-15T08:33:09.845Z</time></trkpt><trkpt lat="42.6515267" lon="-7.2245733"><ele>1233.0</ele><time>2026-04-15T08:33:10.845Z</time></trkpt><trkpt lat="42.6516" lon="-7.2245317"><ele>1229.0</ele><time>2026-04-15T08:33:11.845Z</time></trkpt><trkpt lat="42.651665" lon="-7.22447"><ele>1225.0</ele><time>2026-04-15T08:33:12.846Z</time></trkpt><trkpt lat="42.65172" lon="-7.2243617"><ele>1225.0</ele><time>2026-04-15T08:33:13.846Z</time></trkpt><trkpt lat="42.651775" lon="-7.224195"><ele>1225.0</ele><time>2026-04-15T08:33:14.846Z</time></trkpt><trkpt lat="42.6518267" lon="-7.2239967"><ele>1225.0</ele><time>2026-04-15T08:33:15.846Z</time></trkpt><trkpt lat="42.651885" lon="-7.2238167"><ele>1225.0</ele><time>2026-04-15T08:33:16.846Z</time></trkpt><trkpt lat="42.65195" lon="-7.223685"><ele>1228.6</ele><time>2026-04-15T08:33:17.846Z</time></trkpt><trkpt lat="42.652" lon="-7.2235867"><ele>1232.2</ele><time>2026-04-15T08:33:18.845Z</time></trkpt><trkpt lat="42.652045" lon="-7.2235267"><ele>1235.8</ele><time>2026-04-15T08:33:19.845Z</time></trkpt><trkpt lat="42.6521433" lon="-7.2235217"><ele>1239.4</ele><time>2026-04-15T08:33:21.845Z</time></trkpt><trkpt lat="42.6522067" lon="-7.2235933"><ele>1243.0</ele><time>2026-04-15T08:33:22.845Z</time></trkpt><trkpt lat="42.6522967" lon="-7.2237117"><ele>1243.0</ele><time>2026-04-15T08:33:23.845Z</time></trkpt><trkpt lat="42.6524133" lon="-7.22386"><ele>1243.0</ele><time>2026-04-15T08:33:24.846Z</time></trkpt><trkpt lat="42.652535" lon="-7.2240217"><ele>1243.0</ele><time>2026-04-15T08:33:25.846Z</time></trkpt><trkpt lat="42.6526483" lon="-7.2242033"><ele>1246.0</ele><time>2026-04-15T08:33:26.846Z</time></trkpt><trkpt lat="42.65275" lon="-7.22438"><ele>1249.0</ele><time>2026-04-15T08:33:27.846Z</time></trkpt><trkpt lat="42.652855" lon="-7.2245483"><ele>1252.0</ele><time>2026-04-15T08:33:28.845Z</time></trkpt><trkpt lat="42.6529533" lon="-7.2246683"><ele>1252.0</ele><time>2026-04-15T08:33:29.845Z</time></trkpt><trkpt lat="42.6530567" lon="-7.224785"><ele>1252.0</ele><time>2026-04-15T08:33:30.845Z</time></trkpt><trkpt lat="42.6531683" lon="-7.224895"><ele>1252.0</ele><time>2026-04-15T08:33:31.846Z</time></trkpt><trkpt lat="42.6532883" lon="-7.2250067"><ele>1252.0</ele><time>2026-04-15T08:33:32.845Z</time></trkpt><trkpt lat="42.6534067" lon="-7.2250983"><ele>1251.2</ele><time>2026-04-15T08:33:33.845Z</time></trkpt><trkpt lat="42.6535033" lon="-7.2251483"><ele>1250.4</ele><time>2026-04-15T08:33:34.846Z</time></trkpt><trkpt lat="42.6535983" lon="-7.2251817"><ele>1249.6</ele><time>2026-04-15T08:33:35.846Z</time></trkpt><trkpt lat="42.6537033" lon="-7.2252067"><ele>1248.8</ele><time>2026-04-15T08:33:36.845Z</time></trkpt><trkpt lat="42.6538233" lon="-7.2252267"><ele>1248.0</ele><time>2026-04-15T08:33:37.846Z</time></trkpt><trkpt lat="42.653955" lon="-7.225235"><ele>1248.0</ele><time>2026-04-15T08:33:38.846Z</time></trkpt><trkpt lat="42.6540933" lon="-7.2252333"><ele>1248.0</ele><time>2026-04-15T08:33:39.845Z</time></trkpt><trkpt lat="42.6542517" lon="-7.22523"><ele>1248.0</ele><time>2026-04-15T08:33:40.846Z</time></trkpt><trkpt lat="42.654415" lon="-7.22523"><ele>1250.5</ele><time>2026-04-15T08:33:41.846Z</time></trkpt><trkpt lat="42.6545633" lon="-7.2252417"><ele>1253.0</ele><time>2026-04-15T08:33:42.846Z</time></trkpt><trkpt lat="42.654715" lon="-7.2252567"><ele>1255.5</ele><time>2026-04-15T08:33:43.845Z</time></trkpt><trkpt lat="42.6548617" lon="-7.2252683"><ele>1258.0</ele><time>2026-04-15T08:33:44.846Z</time></trkpt><trkpt lat="42.6550367" lon="-7.2252567"><ele>1258.0</ele><time>2026-04-15T08:33:45.845Z</time></trkpt><trkpt lat="42.6552033" lon="-7.225235"><ele>1258.0</ele><time>2026-04-15T08:33:46.845Z</time></trkpt><trkpt lat="42.6553583" lon="-7.22521"><ele>1258.0</ele><time>2026-04-15T08:33:47.846Z</time></trkpt><trkpt lat="42.6555067" lon="-7.22519"><ele>1259.0</ele><time>2026-04-15T08:33:48.846Z</time></trkpt><trkpt lat="42.6556617" lon="-7.2252"><ele>1260.0</ele><time>2026-04-15T08:33:49.845Z</time></trkpt><trkpt lat="42.65582" lon="-7.2251917"><ele>1261.0</ele><time>2026-04-15T08:33:50.846Z</time></trkpt><trkpt lat="42.6559817" lon="-7.2251583"><ele>1261.6666666666665</ele><time>2026-04-15T08:33:51.845Z</time></trkpt><trkpt lat="42.6561467" lon="-7.225105"><ele>1262.3333333333333</ele><time>2026-04-15T08:33:52.846Z</time></trkpt><trkpt lat="42.6563133" lon="-7.2250367"><ele>1263.0</ele><time>2026-04-15T08:33:53.845Z</time></trkpt><trkpt lat="42.6564833" lon="-7.2249767"><ele>1263.0</ele><time>2026-04-15T08:33:54.846Z</time></trkpt><trkpt lat="42.656625" lon="-7.22493"><ele>1263.0</ele><time>2026-04-15T08:33:55.846Z</time></trkpt><trkpt lat="42.6567583" lon="-7.2248833"><ele>1263.0</ele><time>2026-04-15T08:33:56.845Z</time></trkpt><trkpt lat="42.6568783" lon="-7.224845"><ele>1263.0</ele><time>2026-04-15T08:33:57.845Z</time></trkpt><trkpt lat="42.656995" lon="-7.224785"><ele>1268.0</ele><time>2026-04-15T08:33:58.846Z</time></trkpt><trkpt lat="42.6571033" lon="-7.2247383"><ele>1273.0</ele><time>2026-04-15T08:33:59.845Z</time></trkpt><trkpt lat="42.6572083" lon="-7.2247067"><ele>1278.0</ele><time>2026-04-15T08:34:00.846Z</time></trkpt><trkpt lat="42.657305" lon="-7.224675"><ele>1283.0</ele><time>2026-04-15T08:34:01.846Z</time></trkpt><trkpt lat="42.6531683" lon="-7.224895"><ele>1268.75</ele><time>2026-04-15T08:33:31.846Z</time></trkpt><trkpt lat="42.6532883" lon="-7.2250067"><ele>1254.5</ele><time>2026-04-15T08:33:32.845Z</time></trkpt><trkpt lat="42.6534067" lon="-7.2250983"><ele>1240.25</ele><time>2026-04-15T08:33:33.845Z</time></trkpt><trkpt lat="42.6535033" lon="-7.2251483"><ele>1226.0</ele><time>2026-04-15T08:33:34.846Z</time></trkpt><trkpt lat="42.6535983" lon="-7.2251817"><ele>1231.5</ele><time>2026-04-15T08:33:35.846Z</time></trkpt><trkpt lat="42.6537033" lon="-7.2252067"><ele>1237.0</ele><time>2026-04-15T08:33:36.845Z</time></trkpt><trkpt lat="42.6538233" lon="-7.2252267"><ele>1242.5</ele><time>2026-04-15T08:33:37.846Z</time></trkpt><trkpt lat="42.653955" lon="-7.225235"><ele>1248.0</ele><time>2026-04-15T08:33:38.846Z</time></trkpt><trkpt lat="42.6540933" lon="-7.2252333"><ele>1248.0</ele><time>2026-04-15T08:33:39.845Z</time></trkpt><trkpt lat="42.6542517" lon="-7.22523"><ele>1248.0</ele><time>2026-04-15T08:33:40.846Z</time></trkpt><trkpt lat="42.654415" lon="-7.22523"><ele>1248.0</ele><time>2026-04-15T08:33:41.846Z</time></trkpt><trkpt lat="42.6545633" lon="-7.2252417"><ele>1251.3333333333333</ele><time>2026-04-15T08:33:42.846Z</time></trkpt><trkpt lat="42.654715" lon="-7.2252567"><ele>1254.6666666666665</ele><time>2026-04-15T08:33:43.845Z</time></trkpt><trkpt lat="42.6548617" lon="-7.2252683"><ele>1258.0</ele><time>2026-04-15T08:33:44.846Z</time></trkpt><trkpt lat="42.6550367" lon="-7.2252567"><ele>1258.0</ele><time>2026-04-15T08:33:45.845Z</time></trkpt><trkpt lat="42.6552033" lon="-7.225235"><ele>1258.0</ele><time>2026-04-15T08:33:46.845Z</time></trkpt><trkpt lat="42.6553583" lon="-7.22521"><ele>1258.0</ele><time>2026-04-15T08:33:47.846Z</time></trkpt><trkpt lat="42.6555067" lon="-7.22519"><ele>1259.0</ele><time>2026-04-15T08:33:48.846Z</time></trkpt><trkpt lat="42.6556617" lon="-7.2252"><ele>1260.0</ele><time>2026-04-15T08:33:49.845Z</time></trkpt><trkpt lat="42.65582" lon="-7.2251917"><ele>1261.0</ele><time>2026-04-15T08:33:50.846Z</time></trkpt><trkpt lat="42.6559817" lon="-7.2251583"><ele>1261.6666666666665</ele><time>2026-04-15T08:33:51.845Z</time></trkpt><trkpt lat="42.6561467" lon="-7.225105"><ele>1262.3333333333333</ele><time>2026-04-15T08:33:52.846Z</time></trkpt><trkpt lat="42.6563133" lon="-7.2250367"><ele>1263.0</ele><time>2026-04-15T08:33:53.845Z</time></trkpt><trkpt lat="42.6564833" lon="-7.2249767"><ele>1263.0</ele><time>2026-04-15T08:33:54.846Z</time></trkpt><trkpt lat="42.656625" lon="-7.22493"><ele>1263.0</ele><time>2026-04-15T08:33:55.846Z</time></trkpt><trkpt lat="42.6567583" lon="-7.2248833"><ele>1263.0</ele><time>2026-04-15T08:33:56.845Z</time></trkpt><trkpt lat="42.6568783" lon="-7.224845"><ele>1263.0</ele><time>2026-04-15T08:33:57.845Z</time></trkpt><trkpt lat="42.656995" lon="-7.224785"><ele>1267.0</ele><time>2026-04-15T08:33:58.846Z</time></trkpt><trkpt lat="42.6571033" lon="-7.2247383"><ele>1271.0</ele><time>2026-04-15T08:33:59.845Z</time></trkpt><trkpt lat="42.6572083" lon="-7.2247067"><ele>1275.0</ele><time>2026-04-15T08:34:00.846Z</time></trkpt><trkpt lat="42.657305" lon="-7.224675"><ele>1279.0</ele><time>2026-04-15T08:34:01.846Z</time></trkpt><trkpt lat="42.6573833" lon="-7.2246583"><ele>1283.0</ele><time>2026-04-15T08:34:02.845Z</time></trkpt><trkpt lat="42.6574817" lon="-7.2246283"><ele>1283.0</ele><time>2026-04-15T08:34:04.845Z</time></trkpt><trkpt lat="42.6575583" lon="-7.2246"><ele>1283.0</ele><time>2026-04-15T08:34:06.845Z</time></trkpt><trkpt lat="42.6576417" lon="-7.2245717"><ele>1283.0</ele><time>2026-04-15T08:34:09.846Z</time></trkpt><trkpt lat="42.65772" lon="-7.224545"><ele>1283.0</ele><time>2026-04-15T08:34:11.847Z</time></trkpt><trkpt lat="42.657815" lon="-7.2245133"><ele>1283.0</ele><time>2026-04-15T08:34:13.847Z</time></trkpt><trkpt lat="42.6579217" lon="-7.2244783"><ele>1284.4</ele><time>2026-04-15T08:34:15.846Z</time></trkpt><trkpt lat="42.658025" lon="-7.2244467"><ele>1285.8000000000002</ele><time>2026-04-15T08:34:17.847Z</time></trkpt><trkpt lat="42.6581117" lon="-7.2244267"><ele>1287.2</ele><time>2026-04-15T08:34:19.846Z</time></trkpt><trkpt lat="42.6581983" lon="-7.2244117"><ele>1288.6</ele><time>2026-04-15T08:34:21.846Z</time></trkpt><trkpt lat="42.658285" lon="-7.2243883"><ele>1290.0</ele><time>2026-04-15T08:34:23.846Z</time></trkpt><trkpt lat="42.6583667" lon="-7.224365"><ele>1290.0</ele><time>2026-04-15T08:34:25.847Z</time></trkpt><trkpt lat="42.658465" lon="-7.224345"><ele>1290.0</ele><time>2026-04-15T08:34:27.847Z</time></trkpt><trkpt lat="42.6585583" lon="-7.224315"><ele>1290.0</ele><time>2026-04-15T08:34:29.847Z</time></trkpt><trkpt lat="42.65863" lon="-7.2242833"><ele>1290.0</ele><time>2026-04-15T08:34:31.846Z</time></trkpt><trkpt lat="42.658695" lon="-7.22422"><ele>1290.0</ele><time>2026-04-15T08:34:33.847Z</time></trkpt><trkpt lat="42.6587567" lon="-7.2241417"><ele>1290.0</ele><time>2026-04-15T08:34:35.846Z</time></trkpt><trkpt lat="42.6588" lon="-7.2240533"><ele>1290.4</ele><time>2026-04-15T08:34:37.846Z</time></trkpt><trkpt lat="42.6588617" lon="-7.2239717"><ele>1290.8</ele><time>2026-04-15T08:34:39.846Z</time></trkpt><trkpt lat="42.6589483" lon="-7.2239367"><ele>1291.1999999999998</ele><time>2026-04-15T08:34:41.847Z</time></trkpt><trkpt lat="42.659045" lon="-7.2239833"><ele>1291.6</ele><time>2026-04-15T08:34:43.847Z</time></trkpt><trkpt lat="42.65913" lon="-7.2240717"><ele>1292.0</ele><time>2026-04-15T08:34:45.846Z</time></trkpt><trkpt lat="42.6591867" lon="-7.2241617"><ele>1292.0</ele><time>2026-04-15T08:34:47.847Z</time></trkpt><trkpt lat="42.65922" lon="-7.224305"><ele>1292.0</ele><time>2026-04-15T08:34:49.846Z</time></trkpt><trkpt lat="42.65922" lon="-7.2243983"><ele>1292.0</ele><time>2026-04-15T08:34:50.846Z</time></trkpt><trkpt lat="42.6592067" lon="-7.2245067"><ele>1292.0</ele><time>2026-04-15T08:34:51.846Z</time></trkpt><trkpt lat="42.6591733" lon="-7.224635"><ele>1292.0</ele><time>2026-04-15T08:34:52.846Z</time></trkpt><trkpt lat="42.6591167" lon="-7.224765"><ele>1292.25</ele><time>2026-04-15T08:34:53.847Z</time></trkpt><trkpt lat="42.65905" lon="-7.2249083"><ele>1292.5</ele><time>2026-04-15T08:34:54.847Z</time></trkpt><trkpt lat="42.6589733" lon="-7.2250517"><ele>1292.75</ele><time>2026-04-15T08:34:55.846Z</time></trkpt><trkpt lat="42.6588883" lon="-7.2252"><ele>1293.0</ele><time>2026-04-15T08:34:56.847Z</time></trkpt><trkpt lat="42.65878" lon="-7.2253483"><ele>1293.0</ele><time>2026-04-15T08:34:57.846Z</time></trkpt><trkpt lat="42.65867" lon="-7.2255083"><ele>1293.0</ele><time>2026-04-15T08:34:58.847Z</time></trkpt><trkpt lat="42.658565" lon="-7.22569"><ele>1293.0</ele><time>2026-04-15T08:34:59.846Z</time></trkpt><trkpt lat="42.6584617" lon="-7.2258767"><ele>1292.3333333333333</ele><time>2026-04-15T08:35:00.847Z</time></trkpt><trkpt lat="42.65835" lon="-7.2260883"><ele>1291.6666666666665</ele><time>2026-04-15T08:35:01.846Z</time></trkpt><trkpt lat="42.6582283" lon="-7.2263217"><ele>1291.0</ele><time>2026-04-15T08:35:02.846Z</time></trkpt><trkpt lat="42.658105" lon="-7.226565"><ele>1293.6666666666665</ele><time>2026-04-15T08:35:03.846Z</time></trkpt><trkpt lat="42.6579783" lon="-7.2268083"><ele>1296.3333333333333</ele><time>2026-04-15T08:35:04.846Z</time></trkpt><trkpt lat="42.6578717" lon="-7.2270683"><ele>1299.0</ele><time>2026-04-15T08:35:05.846Z</time></trkpt><trkpt lat="42.6577633" lon="-7.2273517"><ele>1293.0</ele><time>2026-04-15T08:35:06.847Z</time></trkpt><trkpt lat="42.6576567" lon="-7.22763"><ele>1287.0</ele><time>2026-04-15T08:35:07.846Z</time></trkpt><trkpt lat="42.657565" lon="-7.2278733"><ele>1281.0</ele><time>2026-04-15T08:35:08.846Z</time></trkpt><trkpt lat="42.6574917" lon="-7.2280583"><ele>1283.8</ele><time>2026-04-15T08:35:09.847Z</time></trkpt><trkpt lat="42.6574167" lon="-7.22819"><ele>1286.6</ele><time>2026-04-15T08:35:10.847Z</time></trkpt><trkpt lat="42.6573383" lon="-7.2282833"><ele>1289.4</ele><time>2026-04-15T08:35:11.846Z</time></trkpt><trkpt lat="42.6572667" lon="-7.2283367"><ele>1292.2</ele><time>2026-04-15T08:35:12.847Z</time></trkpt><trkpt lat="42.657175" lon="-7.2283383"><ele>1295.0</ele><time>2026-04-15T08:35:13.846Z</time></trkpt><trkpt lat="42.657065" lon="-7.22831"><ele>1292.75</ele><time>2026-04-15T08:35:14.846Z</time></trkpt><trkpt lat="42.65693" lon="-7.2282833"><ele>1290.5</ele><time>2026-04-15T08:35:15.846Z</time></trkpt><trkpt lat="42.6567767" lon="-7.2282533"><ele>1288.25</ele><time>2026-04-15T08:35:16.847Z</time></trkpt><trkpt lat="42.6566317" lon="-7.2282283"><ele>1286.0</ele><time>2026-04-15T08:35:17.847Z</time></trkpt><trkpt lat="42.6564967" lon="-7.228225"><ele>1286.0</ele><time>2026-04-15T08:35:18.847Z</time></trkpt><trkpt lat="42.65636" lon="-7.2282283"><ele>1286.0</ele><time>2026-04-15T08:35:19.846Z</time></trkpt><trkpt lat="42.6562183" lon="-7.22824"><ele>1286.0</ele><time>2026-04-15T08:35:20.846Z</time></trkpt><trkpt lat="42.656085" lon="-7.22829"><ele>1286.0</ele><time>2026-04-15T08:35:21.847Z</time></trkpt><trkpt lat="42.655955" lon="-7.2283683"><ele>1281.6666666666667</ele><time>2026-04-15T08:35:22.847Z</time></trkpt><trkpt lat="42.6558383" lon="-7.2284783"><ele>1277.3333333333333</ele><time>2026-04-15T08:35:23.846Z</time></trkpt><trkpt lat="42.65573" lon="-7.2286367"><ele>1273.0</ele><time>2026-04-15T08:35:24.846Z</time></trkpt><trkpt lat="42.655625" lon="-7.22883"><ele>1278.0</ele><time>2026-04-15T08:35:25.847Z</time></trkpt><trkpt lat="42.6555267" lon="-7.2290667"><ele>1283.0</ele><time>2026-04-15T08:35:26.846Z</time></trkpt><trkpt lat="42.6554433" lon="-7.2292933"><ele>1288.0</ele><time>2026-04-15T08:35:27.846Z</time></trkpt><trkpt lat="42.655365" lon="-7.2294967"><ele>1293.0</ele><time>2026-04-15T08:35:28.846Z</time></trkpt><trkpt lat="42.65867" lon="-7.2255083"><ele>1292.3333333333333</ele><time>2026-04-15T08:34:58.847Z</time></trkpt><trkpt lat="42.658565" lon="-7.22569"><ele>1291.6666666666665</ele><time>2026-04-15T08:34:59.846Z</time></trkpt><trkpt lat="42.6584617" lon="-7.2258767"><ele>1291.0</ele><time>2026-04-15T08:35:00.847Z</time></trkpt><trkpt lat="42.65835" lon="-7.2260883"><ele>1291.0</ele><time>2026-04-15T08:35:01.846Z</time></trkpt><trkpt lat="42.6582283" lon="-7.2263217"><ele>1291.0</ele><time>2026-04-15T08:35:02.846Z</time></trkpt><trkpt lat="42.658105" lon="-7.226565"><ele>1291.0</ele><time>2026-04-15T08:35:03.846Z</time></trkpt><trkpt lat="42.6579783" lon="-7.2268083"><ele>1295.0</ele><time>2026-04-15T08:35:04.846Z</time></trkpt><trkpt lat="42.6578717" lon="-7.2270683"><ele>1299.0</ele><time>2026-04-15T08:35:05.846Z</time></trkpt><trkpt lat="42.6577633" lon="-7.2273517"><ele>1293.0</ele><time>2026-04-15T08:35:06.847Z</time></trkpt><trkpt lat="42.6576567" lon="-7.22763"><ele>1287.0</ele><time>2026-04-15T08:35:07.846Z</time></trkpt><trkpt lat="42.657565" lon="-7.2278733"><ele>1281.0</ele><time>2026-04-15T08:35:08.846Z</time></trkpt><trkpt lat="42.6574917" lon="-7.2280583"><ele>1283.8</ele><time>2026-04-15T08:35:09.847Z</time></trkpt><trkpt lat="42.6574167" lon="-7.22819"><ele>1286.6</ele><time>2026-04-15T08:35:10.847Z</time></trkpt><trkpt lat="42.6573383" lon="-7.2282833"><ele>1289.4</ele><time>2026-04-15T08:35:11.846Z</time></trkpt><trkpt lat="42.6572667" lon="-7.2283367"><ele>1292.2</ele><time>2026-04-15T08:35:12.847Z</time></trkpt><trkpt lat="42.657175" lon="-7.2283383"><ele>1295.0</ele><time>2026-04-15T08:35:13.846Z</time></trkpt><trkpt lat="42.657065" lon="-7.22831"><ele>1292.75</ele><time>2026-04-15T08:35:14.846Z</time></trkpt><trkpt lat="42.65693" lon="-7.2282833"><ele>1290.5</ele><time>2026-04-15T08:35:15.846Z</time></trkpt><trkpt lat="42.6567767" lon="-7.2282533"><ele>1288.25</ele><time>2026-04-15T08:35:16.847Z</time></trkpt><trkpt lat="42.6566317" lon="-7.2282283"><ele>1286.0</ele><time>2026-04-15T08:35:17.847Z</time></trkpt><trkpt lat="42.6564967" lon="-7.228225"><ele>1286.0</ele><time>2026-04-15T08:35:18.847Z</time></trkpt><trkpt lat="42.65636" lon="-7.2282283"><ele>1286.0</ele><time>2026-04-15T08:35:19.846Z</time></trkpt><trkpt lat="42.6562183" lon="-7.22824"><ele>1286.0</ele><time>2026-04-15T08:35:20.846Z</time></trkpt><trkpt lat="42.656085" lon="-7.22829"><ele>1286.0</ele><time>2026-04-15T08:35:21.847Z</time></trkpt><trkpt lat="42.655955" lon="-7.2283683"><ele>1281.6666666666667</ele><time>2026-04-15T08:35:22.847Z</time></trkpt><trkpt lat="42.6558383" lon="-7.2284783"><ele>1277.3333333333333</ele><time>2026-04-15T08:35:23.846Z</time></trkpt><trkpt lat="42.65573" lon="-7.2286367"><ele>1273.0</ele><time>2026-04-15T08:35:24.846Z</time></trkpt><trkpt lat="42.655625" lon="-7.22883"><ele>1278.0</ele><time>2026-04-15T08:35:25.847Z</time></trkpt><trkpt lat="42.6555267" lon="-7.2290667"><ele>1283.0</ele><time>2026-04-15T08:35:26.846Z</time></trkpt><trkpt lat="42.6554433" lon="-7.2292933"><ele>1288.0</ele><time>2026-04-15T08:35:27.846Z</time></trkpt><trkpt lat="42.655365" lon="-7.2294967"><ele>1288.0</ele><time>2026-04-15T08:35:28.846Z</time></trkpt><trkpt lat="42.655295" lon="-7.2296583"><ele>1288.0</ele><time>2026-04-15T08:35:29.847Z</time></trkpt><trkpt lat="42.6552233" lon="-7.22978"><ele>1288.0</ele><time>2026-04-15T08:35:30.847Z</time></trkpt><trkpt lat="42.6551517" lon="-7.2298417"><ele>1288.0</ele><time>2026-04-15T08:35:31.847Z</time></trkpt><trkpt lat="42.6550733" lon="-7.2298567"><ele>1288.0</ele><time>2026-04-15T08:35:32.847Z</time></trkpt><trkpt lat="42.6550033" lon="-7.2298217"><ele>1281.25</ele><time>2026-04-15T08:35:33.847Z</time></trkpt><trkpt lat="42.654925" lon="-7.2297367"><ele>1274.5</ele><time>2026-04-15T08:35:34.846Z</time></trkpt><trkpt lat="42.6548283" lon="-7.2296283"><ele>1267.75</ele><time>2026-04-15T08:35:35.847Z</time></trkpt><trkpt lat="42.6547083" lon="-7.2295167"><ele>1261.0</ele><time>2026-04-15T08:35:36.847Z</time></trkpt><trkpt lat="42.6545683" lon="-7.2294167"><ele>1260.0</ele><time>2026-04-15T08:35:37.847Z</time></trkpt><trkpt lat="42.6544067" lon="-7.229335"><ele>1259.0</ele><time>2026-04-15T08:35:38.847Z</time></trkpt><trkpt lat="42.6542317" lon="-7.2292533"><ele>1258.0</ele><time>2026-04-15T08:35:39.846Z</time></trkpt><trkpt lat="42.65404" lon="-7.2291683"><ele>1258.0</ele><time>2026-04-15T08:35:40.846Z</time></trkpt><trkpt lat="42.6538633" lon="-7.229075"><ele>1258.0</ele><time>2026-04-15T08:35:41.847Z</time></trkpt><trkpt lat="42.6537033" lon="-7.2289883"><ele>1258.0</ele><time>2026-04-15T08:35:42.846Z</time></trkpt><trkpt lat="42.6535467" lon="-7.2289467"><ele>1260.0</ele><time>2026-04-15T08:35:43.846Z</time></trkpt><trkpt lat="42.653385" lon="-7.22894"><ele>1262.0</ele><time>2026-04-15T08:35:44.847Z</time></trkpt><trkpt lat="42.65322" lon="-7.22896"><ele>1264.0</ele><time>2026-04-15T08:35:45.846Z</time></trkpt><trkpt lat="42.6530467" lon="-7.22899"><ele>1264.0</ele><time>2026-04-15T08:35:46.846Z</time></trkpt><trkpt lat="42.65286" lon="-7.2290267"><ele>1264.0</ele><time>2026-04-15T08:35:47.847Z</time></trkpt><trkpt lat="42.6526617" lon="-7.22908"><ele>1264.0</ele><time>2026-04-15T08:35:48.847Z</time></trkpt><trkpt lat="42.65247" lon="-7.2291433"><ele>1259.3333333333333</ele><time>2026-04-15T08:35:49.846Z</time></trkpt><trkpt lat="42.65229" lon="-7.229225"><ele>1254.6666666666667</ele><time>2026-04-15T08:35:50.847Z</time></trkpt><trkpt lat="42.652135" lon="-7.2292933"><ele>1250.0</ele><time>2026-04-15T08:35:51.847Z</time></trkpt><trkpt lat="42.652005" lon="-7.2293283"><ele>1248.3333333333335</ele><time>2026-04-15T08:35:52.847Z</time></trkpt><trkpt lat="42.6519017" lon="-7.2293367"><ele>1246.6666666666667</ele><time>2026-04-15T08:35:53.847Z</time></trkpt><trkpt lat="42.651825" lon="-7.2293367"><ele>1245.0</ele><time>2026-04-15T08:35:54.846Z</time></trkpt><trkpt lat="42.6517633" lon="-7.2293183"><ele>1243.3333333333333</ele><time>2026-04-15T08:35:55.846Z</time></trkpt><trkpt lat="42.6516433" lon="-7.2292883"><ele>1241.6666666666665</ele><time>2026-04-15T08:35:57.846Z</time></trkpt><trkpt lat="42.6515683" lon="-7.2292917"><ele>1240.0</ele><time>2026-04-15T08:35:58.846Z</time></trkpt><trkpt lat="42.6514717" lon="-7.2293117"><ele>1240.0</ele><time>2026-04-15T08:35:59.847Z</time></trkpt><trkpt lat="42.65136" lon="-7.2293467"><ele>1240.0</ele><time>2026-04-15T08:36:00.847Z</time></trkpt><trkpt lat="42.6512417" lon="-7.2294033"><ele>1240.0</ele><time>2026-04-15T08:36:01.846Z</time></trkpt><trkpt lat="42.6511083" lon="-7.2294717"><ele>1240.0</ele><time>2026-04-15T08:36:02.846Z</time></trkpt><trkpt lat="42.6509567" lon="-7.22955"><ele>1235.0</ele><time>2026-04-15T08:36:03.846Z</time></trkpt><trkpt lat="42.650795" lon="-7.2296417"><ele>1230.0</ele><time>2026-04-15T08:36:04.846Z</time></trkpt><trkpt lat="42.6506267" lon="-7.229735"><ele>1225.0</ele><time>2026-04-15T08:36:05.846Z</time></trkpt><trkpt lat="42.6504467" lon="-7.22984"><ele>1227.3333333333333</ele><time>2026-04-15T08:36:06.847Z</time></trkpt><trkpt lat="42.6502733" lon="-7.2299667"><ele>1229.6666666666667</ele><time>2026-04-15T08:36:07.846Z</time></trkpt><trkpt lat="42.6501" lon="-7.2301"><ele>1232.0</ele><time>2026-04-15T08:36:08.847Z</time></trkpt><trkpt lat="42.649935" lon="-7.2302067"><ele>1232.0</ele><time>2026-04-15T08:36:09.846Z</time></trkpt><trkpt lat="42.649785" lon="-7.2303233"><ele>1232.0</ele><time>2026-04-15T08:36:10.847Z</time></trkpt><trkpt lat="42.64964" lon="-7.2304267"><ele>1232.0</ele><time>2026-04-15T08:36:11.846Z</time></trkpt><trkpt lat="42.64948" lon="-7.2305383"><ele>1231.0</ele><time>2026-04-15T08:36:12.846Z</time></trkpt><trkpt lat="42.649315" lon="-7.230665"><ele>1230.0</ele><time>2026-04-15T08:36:13.847Z</time></trkpt><trkpt lat="42.649155" lon="-7.2307933"><ele>1229.0</ele><time>2026-04-15T08:36:14.846Z</time></trkpt><trkpt lat="42.6489933" lon="-7.2308983"><ele>1229.0</ele><time>2026-04-15T08:36:15.847Z</time></trkpt><trkpt lat="42.6488233" lon="-7.230975"><ele>1229.0</ele><time>2026-04-15T08:36:16.847Z</time></trkpt><trkpt lat="42.6486367" lon="-7.2310233"><ele>1229.0</ele><time>2026-04-15T08:36:17.846Z</time></trkpt><trkpt lat="42.6484433" lon="-7.2310517"><ele>1222.0</ele><time>2026-04-15T08:36:18.847Z</time></trkpt><trkpt lat="42.6482533" lon="-7.2310767"><ele>1215.0</ele><time>2026-04-15T08:36:19.846Z</time></trkpt><trkpt lat="42.648085" lon="-7.231105"><ele>1208.0</ele><time>2026-04-15T08:36:20.846Z</time></trkpt><trkpt lat="42.6479383" lon="-7.2311283"><ele>1203.6666666666667</ele><time>2026-04-15T08:36:21.846Z</time></trkpt><trkpt lat="42.6477867" lon="-7.2311067"><ele>1199.3333333333333</ele><time>2026-04-15T08:36:22.847Z</time></trkpt><trkpt lat="42.64763" lon="-7.2310783"><ele>1195.0</ele><time>2026-04-15T08:36:23.847Z</time></trkpt><trkpt lat="42.64745" lon="-7.2310533"><ele>1195.0</ele><time>2026-04-15T08:36:24.847Z</time></trkpt><trkpt lat="42.6472617" lon="-7.231025"><ele>1195.0</ele><time>2026-04-15T08:36:25.846Z</time></trkpt><trkpt lat="42.6470817" lon="-7.2310133"><ele>1195.0</ele><time>2026-04-15T08:36:26.846Z</time></trkpt><trkpt lat="42.6469" lon="-7.23101"><ele>1194.3333333333333</ele><time>2026-04-15T08:36:27.847Z</time></trkpt><trkpt lat="42.646735" lon="-7.2310233"><ele>1193.6666666666667</ele><time>2026-04-15T08:36:28.847Z</time></trkpt><trkpt lat="42.6465833" lon="-7.2310633"><ele>1193.0</ele><time>2026-04-15T08:36:29.847Z</time></trkpt><trkpt lat="42.646425" lon="-7.2311267"><ele>1193.0</ele><time>2026-04-15T08:36:30.847Z</time></trkpt><trkpt lat="42.6462667" lon="-7.2312083"><ele>1193.0</ele><time>2026-04-15T08:36:31.847Z</time></trkpt><trkpt lat="42.646115" lon="-7.231315"><ele>1193.0</ele><time>2026-04-15T08:36:32.847Z</time></trkpt><trkpt lat="42.6459783" lon="-7.2314283"><ele>1192.0</ele><time>2026-04-15T08:36:33.847Z</time></trkpt><trkpt lat="42.6458683" lon="-7.23155"><ele>1191.0</ele><time>2026-04-15T08:36:34.847Z</time></trkpt><trkpt lat="42.6457783" lon="-7.2317017"><ele>1190.0</ele><time>2026-04-15T08:36:35.847Z</time></trkpt><trkpt lat="42.6457033" lon="-7.2318817"><ele>1189.0</ele><time>2026-04-15T08:36:36.847Z</time></trkpt><trkpt lat="42.6456483" lon="-7.2320867"><ele>1188.0</ele><time>2026-04-15T08:36:37.846Z</time></trkpt><trkpt lat="42.6456033" lon="-7.2323067"><ele>1187.0</ele><time>2026-04-15T08:36:38.846Z</time></trkpt><trkpt lat="42.6455683" lon="-7.2325333"><ele>1186.0</ele><time>2026-04-15T08:36:39.846Z</time></trkpt><trkpt lat="42.6455483" lon="-7.2327533"><ele>1186.0</ele><time>2026-04-15T08:36:40.847Z</time></trkpt><trkpt lat="42.6455333" lon="-7.2329733"><ele>1186.0</ele><time>2026-04-15T08:36:41.846Z</time></trkpt><trkpt lat="42.64553" lon="-7.2331867"><ele>1186.0</ele><time>2026-04-15T08:36:42.846Z</time></trkpt><trkpt lat="42.6455333" lon="-7.23338"><ele>1184.6</ele><time>2026-04-15T08:36:43.846Z</time></trkpt><trkpt lat="42.6455483" lon="-7.23356"><ele>1183.1999999999998</ele><time>2026-04-15T08:36:44.846Z</time></trkpt><trkpt lat="42.6455733" lon="-7.2337033"><ele>1181.8000000000002</ele><time>2026-04-15T08:36:45.847Z</time></trkpt><trkpt lat="42.645615" lon="-7.2338117"><ele>1180.4</ele><time>2026-04-15T08:36:46.846Z</time></trkpt><trkpt lat="42.6456717" lon="-7.2338783"><ele>1179.0</ele><time>2026-04-15T08:36:47.847Z</time></trkpt><trkpt lat="42.64574" lon="-7.23391"><ele>1179.0</ele><time>2026-04-15T08:36:48.847Z</time></trkpt><trkpt lat="42.645825" lon="-7.2339117"><ele>1179.0</ele><time>2026-04-15T08:36:49.846Z</time></trkpt><trkpt lat="42.6459383" lon="-7.23389"><ele>1179.0</ele><time>2026-04-15T08:36:50.847Z</time></trkpt><trkpt lat="42.6460733" lon="-7.23386"><ele>1179.0</ele><time>2026-04-15T08:36:51.847Z</time></trkpt><trkpt lat="42.6462217" lon="-7.2338317"><ele>1179.0</ele><time>2026-04-15T08:36:52.847Z</time></trkpt><trkpt lat="42.646375" lon="-7.233815"><ele>1179.0</ele><time>2026-04-15T08:36:53.846Z</time></trkpt><trkpt lat="42.64654" lon="-7.2338017"><ele>1179.0</ele><time>2026-04-15T08:36:54.846Z</time></trkpt><trkpt lat="42.6467183" lon="-7.2338083"><ele>1195.0</ele><time>2026-04-15T08:36:55.847Z</time></trkpt><trkpt lat="42.6472617" lon="-7.231025"><ele>1195.0</ele><time>2026-04-15T08:36:25.846Z</time></trkpt><trkpt lat="42.6470817" lon="-7.2310133"><ele>1195.0</ele><time>2026-04-15T08:36:26.846Z</time></trkpt><trkpt lat="42.6469" lon="-7.23101"><ele>1195.0</ele><time>2026-04-15T08:36:27.847Z</time></trkpt><trkpt lat="42.646735" lon="-7.2310233"><ele>1194.3333333333333</ele><time>2026-04-15T08:36:28.847Z</time></trkpt><trkpt lat="42.6465833" lon="-7.2310633"><ele>1193.6666666666667</ele><time>2026-04-15T08:36:29.847Z</time></trkpt><trkpt lat="42.646425" lon="-7.2311267"><ele>1193.0</ele><time>2026-04-15T08:36:30.847Z</time></trkpt><trkpt lat="42.6462667" lon="-7.2312083"><ele>1191.6666666666667</ele><time>2026-04-15T08:36:31.847Z</time></trkpt><trkpt lat="42.646115" lon="-7.231315"><ele>1190.3333333333333</ele><time>2026-04-15T08:36:32.847Z</time></trkpt><trkpt lat="42.6459783" lon="-7.2314283"><ele>1189.0</ele><time>2026-04-15T08:36:33.847Z</time></trkpt><trkpt lat="42.6458683" lon="-7.23155"><ele>1189.0</ele><time>2026-04-15T08:36:34.847Z</time></trkpt><trkpt lat="42.6457783" lon="-7.2317017"><ele>1189.0</ele><time>2026-04-15T08:36:35.847Z</time></trkpt><trkpt lat="42.6457033" lon="-7.2318817"><ele>1189.0</ele><time>2026-04-15T08:36:36.847Z</time></trkpt><trkpt lat="42.6456483" lon="-7.2320867"><ele>1188.0</ele><time>2026-04-15T08:36:37.846Z</time></trkpt><trkpt lat="42.6456033" lon="-7.2323067"><ele>1187.0</ele><time>2026-04-15T08:36:38.846Z</time></trkpt><trkpt lat="42.6455683" lon="-7.2325333"><ele>1186.0</ele><time>2026-04-15T08:36:39.846Z</time></trkpt><trkpt lat="42.6455483" lon="-7.2327533"><ele>1186.0</ele><time>2026-04-15T08:36:40.847Z</time></trkpt><trkpt lat="42.6455333" lon="-7.2329733"><ele>1186.0</ele><time>2026-04-15T08:36:41.846Z</time></trkpt><trkpt lat="42.64553" lon="-7.2331867"><ele>1186.0</ele><time>2026-04-15T08:36:42.846Z</time></trkpt><trkpt lat="42.6455333" lon="-7.23338"><ele>1184.6</ele><time>2026-04-15T08:36:43.846Z</time></trkpt><trkpt lat="42.6455483" lon="-7.23356"><ele>1183.1999999999998</ele><time>2026-04-15T08:36:44.846Z</time></trkpt><trkpt lat="42.6455733" lon="-7.2337033"><ele>1181.8000000000002</ele><time>2026-04-15T08:36:45.847Z</time></trkpt><trkpt lat="42.645615" lon="-7.2338117"><ele>1180.4</ele><time>2026-04-15T08:36:46.846Z</time></trkpt><trkpt lat="42.6456717" lon="-7.2338783"><ele>1179.0</ele><time>2026-04-15T08:36:47.847Z</time></trkpt><trkpt lat="42.64574" lon="-7.23391"><ele>1179.0</ele><time>2026-04-15T08:36:48.847Z</time></trkpt><trkpt lat="42.645825" lon="-7.2339117"><ele>1179.0</ele><time>2026-04-15T08:36:49.846Z</time></trkpt><trkpt lat="42.6459383" lon="-7.23389"><ele>1179.0</ele><time>2026-04-15T08:36:50.847Z</time></trkpt><trkpt lat="42.6460733" lon="-7.23386"><ele>1179.0</ele><time>2026-04-15T08:36:51.847Z</time></trkpt><trkpt lat="42.6462217" lon="-7.2338317"><ele>1179.0</ele><time>2026-04-15T08:36:52.847Z</time></trkpt><trkpt lat="42.646375" lon="-7.233815"><ele>1179.0</ele><time>2026-04-15T08:36:53.846Z</time></trkpt><trkpt lat="42.64654" lon="-7.2338017"><ele>1179.0</ele><time>2026-04-15T08:36:54.846Z</time></trkpt><trkpt lat="42.6467183" lon="-7.2338083"><ele>1179.0</ele><time>2026-04-15T08:36:55.847Z</time></trkpt><trkpt lat="42.64691" lon="-7.2338333"><ele>1179.0</ele><time>2026-04-15T08:36:56.847Z</time></trkpt><trkpt lat="42.6471083" lon="-7.23388"><ele>1179.0</ele><time>2026-04-15T08:36:57.847Z</time></trkpt><trkpt lat="42.647325" lon="-7.2339367"><ele>1171.6666666666667</ele><time>2026-04-15T08:36:58.847Z</time></trkpt><trkpt lat="42.6475267" lon="-7.2339867"><ele>1164.3333333333335</ele><time>2026-04-15T08:36:59.847Z</time></trkpt><trkpt lat="42.6477133" lon="-7.2340367"><ele>1157.0</ele><time>2026-04-15T08:37:00.846Z</time></trkpt><trkpt lat="42.6478817" lon="-7.234095"><ele>1157.0</ele><time>2026-04-15T08:37:01.846Z</time></trkpt><trkpt lat="42.6480333" lon="-7.2341433"><ele>1157.0</ele><time>2026-04-15T08:37:02.846Z</time></trkpt><trkpt lat="42.648165" lon="-7.234185"><ele>1157.0</ele><time>2026-04-15T08:37:03.846Z</time></trkpt><trkpt lat="42.6482783" lon="-7.2342217"><ele>1157.0</ele><time>2026-04-15T08:37:04.847Z</time></trkpt><trkpt lat="42.6483783" lon="-7.234255"><ele>1157.0</ele><time>2026-04-15T08:37:05.846Z</time></trkpt><trkpt lat="42.648465" lon="-7.23428"><ele>1157.0</ele><time>2026-04-15T08:37:06.846Z</time></trkpt><trkpt lat="42.6485317" lon="-7.2343083"><ele>1157.0</ele><time>2026-04-15T08:37:07.847Z</time></trkpt><trkpt lat="42.648595" lon="-7.234385"><ele>1157.0</ele><time>2026-04-15T08:37:09.846Z</time></trkpt><trkpt lat="42.6485633" lon="-7.23446"><ele>1157.0</ele><time>2026-04-15T08:37:11.846Z</time></trkpt><trkpt lat="42.6484433" lon="-7.2344467"><ele>1157.0</ele><time>2026-04-15T08:37:13.846Z</time></trkpt><trkpt lat="42.648355" lon="-7.2344267"><ele>1157.0</ele><time>2026-04-15T08:37:14.846Z</time></trkpt><trkpt lat="42.64824" lon="-7.2344083"><ele>1157.0</ele><time>2026-04-15T08:37:15.846Z</time></trkpt><trkpt lat="42.6480983" lon="-7.2344083"><ele>1157.0</ele><time>2026-04-15T08:37:16.846Z</time></trkpt><trkpt lat="42.6479317" lon="-7.2344117"><ele>1157.0</ele><time>2026-04-15T08:37:17.846Z</time></trkpt><trkpt lat="42.6477533" lon="-7.2344133"><ele>1155.3333333333335</ele><time>2026-04-15T08:37:18.847Z</time></trkpt><trkpt lat="42.647545" lon="-7.2344167"><ele>1153.6666666666667</ele><time>2026-04-15T08:37:19.846Z</time></trkpt><trkpt lat="42.6473367" lon="-7.2344217"><ele>1152.0</ele><time>2026-04-15T08:37:20.847Z</time></trkpt><trkpt lat="42.6471267" lon="-7.2344317"><ele>1152.0</ele><time>2026-04-15T08:37:21.847Z</time></trkpt><trkpt lat="42.6469283" lon="-7.2344517"><ele>1152.0</ele><time>2026-04-15T08:37:22.847Z</time></trkpt><trkpt lat="42.6467367" lon="-7.2344983"><ele>1152.0</ele><time>2026-04-15T08:37:23.846Z</time></trkpt><trkpt lat="42.64655" lon="-7.2345917"><ele>1152.0</ele><time>2026-04-15T08:37:24.846Z</time></trkpt><trkpt lat="42.646365" lon="-7.23471"><ele>1152.0</ele><time>2026-04-15T08:37:25.846Z</time></trkpt><trkpt lat="42.64617" lon="-7.2348367"><ele>1152.0</ele><time>2026-04-15T08:37:26.847Z</time></trkpt><trkpt lat="42.64597" lon="-7.2349917"><ele>1146.0</ele><time>2026-04-15T08:37:27.847Z</time></trkpt><trkpt lat="42.6457733" lon="-7.2351517"><ele>1140.0</ele><time>2026-04-15T08:37:28.846Z</time></trkpt><trkpt lat="42.6456017" lon="-7.2353083"><ele>1134.0</ele><time>2026-04-15T08:37:29.846Z</time></trkpt><trkpt lat="42.6454517" lon="-7.2354567"><ele>1134.0</ele><time>2026-04-15T08:37:30.847Z</time></trkpt><trkpt lat="42.6453033" lon="-7.235585"><ele>1134.0</ele><time>2026-04-15T08:37:31.847Z</time></trkpt><trkpt lat="42.645145" lon="-7.2357017"><ele>1134.0</ele><time>2026-04-15T08:37:32.847Z</time></trkpt><trkpt lat="42.6449817" lon="-7.2357883"><ele>1128.3333333333333</ele><time>2026-04-15T08:37:33.847Z</time></trkpt><trkpt lat="42.6448067" lon="-7.23586"><ele>1122.6666666666665</ele><time>2026-04-15T08:37:34.847Z</time></trkpt><trkpt lat="42.6446167" lon="-7.2359283"><ele>1117.0</ele><time>2026-04-15T08:37:35.846Z</time></trkpt><trkpt lat="42.644425" lon="-7.23599"><ele>1116.6666666666665</ele><time>2026-04-15T08:37:36.846Z</time></trkpt><trkpt lat="42.6442383" lon="-7.2360283"><ele>1116.3333333333333</ele><time>2026-04-15T08:37:37.846Z</time></trkpt><trkpt lat="42.6440567" lon="-7.23604"><ele>1116.0</ele><time>2026-04-15T08:37:38.847Z</time></trkpt><trkpt lat="42.643875" lon="-7.2360417"><ele>1116.0</ele><time>2026-04-15T08:37:39.846Z</time></trkpt><trkpt lat="42.643695" lon="-7.23603"><ele>1116.0</ele><time>2026-04-15T08:37:40.846Z</time></trkpt><trkpt lat="42.6435383" lon="-7.2360117"><ele>1116.0</ele><time>2026-04-15T08:37:41.847Z</time></trkpt><trkpt lat="42.6434117" lon="-7.2359867"><ele>1116.0</ele><time>2026-04-15T08:37:42.846Z</time></trkpt><trkpt lat="42.6432917" lon="-7.2359233"><ele>1116.0</ele><time>2026-04-15T08:37:43.847Z</time></trkpt><trkpt lat="42.6431717" lon="-7.2358367"><ele>1116.0</ele><time>2026-04-15T08:37:44.847Z</time></trkpt><trkpt lat="42.6430567" lon="-7.235725"><ele>1116.0</ele><time>2026-04-15T08:37:45.847Z</time></trkpt><trkpt lat="42.642945" lon="-7.2356"><ele>1116.0</ele><time>2026-04-15T08:37:46.847Z</time></trkpt><trkpt lat="42.6428267" lon="-7.2354717"><ele>1116.0</ele><time>2026-04-15T08:37:47.846Z</time></trkpt><trkpt lat="42.6427083" lon="-7.2353233"><ele>1116.0</ele><time>2026-04-15T08:37:48.846Z</time></trkpt><trkpt lat="42.642605" lon="-7.235165"><ele>1112.6</ele><time>2026-04-15T08:37:49.847Z</time></trkpt><trkpt lat="42.6425233" lon="-7.2350133"><ele>1109.1999999999998</ele><time>2026-04-15T08:37:50.847Z</time></trkpt><trkpt lat="42.642465" lon="-7.2348733"><ele>1105.8000000000002</ele><time>2026-04-15T08:37:51.847Z</time></trkpt><trkpt lat="42.64243" lon="-7.23477"><ele>1102.4</ele><time>2026-04-15T08:37:52.847Z</time></trkpt><trkpt lat="42.6424" lon="-7.2346933"><ele>1099.0</ele><time>2026-04-15T08:37:53.846Z</time></trkpt><trkpt lat="42.6423383" lon="-7.2346483"><ele>1099.0</ele><time>2026-04-15T08:37:55.847Z</time></trkpt><trkpt lat="42.64228" lon="-7.2347517"><ele>1099.0</ele><time>2026-04-15T08:37:57.846Z</time></trkpt><trkpt lat="42.642265" lon="-7.2348817"><ele>1099.0</ele><time>2026-04-15T08:37:58.847Z</time></trkpt><trkpt lat="42.6422533" lon="-7.2350633"><ele>1099.0</ele><time>2026-04-15T08:37:59.846Z</time></trkpt><trkpt lat="42.642235" lon="-7.235225"><ele>1099.0</ele><time>2026-04-15T08:38:00.847Z</time></trkpt><trkpt lat="42.642195" lon="-7.2353517"><ele>1098.5</ele><time>2026-04-15T08:38:01.846Z</time></trkpt><trkpt lat="42.6421433" lon="-7.2354583"><ele>1098.0</ele><time>2026-04-15T08:38:02.847Z</time></trkpt><trkpt lat="42.6420867" lon="-7.23556"><ele>1097.5</ele><time>2026-04-15T08:38:03.846Z</time></trkpt><trkpt lat="42.6420383" lon="-7.2356517"><ele>1097.0</ele><time>2026-04-15T08:38:04.847Z</time></trkpt><trkpt lat="42.64202" lon="-7.2357417"><ele>1096.5</ele><time>2026-04-15T08:38:05.847Z</time></trkpt><trkpt lat="42.6420267" lon="-7.2358433"><ele>1096.0</ele><time>2026-04-15T08:38:06.847Z</time></trkpt><trkpt lat="42.6420617" lon="-7.235945"><ele>1094.8</ele><time>2026-04-15T08:38:07.847Z</time></trkpt><trkpt lat="42.6421117" lon="-7.2360583"><ele>1093.6</ele><time>2026-04-15T08:38:08.847Z</time></trkpt><trkpt lat="42.6421667" lon="-7.2361817"><ele>1092.4</ele><time>2026-04-15T08:38:09.846Z</time></trkpt><trkpt lat="42.6422183" lon="-7.236305"><ele>1091.2</ele><time>2026-04-15T08:38:10.847Z</time></trkpt><trkpt lat="42.64226" lon="-7.236415"><ele>1090.0</ele><time>2026-04-15T08:38:11.847Z</time></trkpt><trkpt lat="42.64229" lon="-7.2365317"><ele>1087.2</ele><time>2026-04-15T08:38:12.846Z</time></trkpt><trkpt lat="42.6423117" lon="-7.23664"><ele>1084.4</ele><time>2026-04-15T08:38:13.847Z</time></trkpt><trkpt lat="42.6423583" lon="-7.2367567"><ele>1081.6</ele><time>2026-04-15T08:38:14.846Z</time></trkpt><trkpt lat="42.6424233" lon="-7.2368967"><ele>1078.8</ele><time>2026-04-15T08:38:15.847Z</time></trkpt><trkpt lat="42.6425033" lon="-7.2370417"><ele>1076.0</ele><time>2026-04-15T08:38:16.846Z</time></trkpt><trkpt lat="42.642585" lon="-7.23719"><ele>1072.3999999999999</ele><time>2026-04-15T08:38:17.846Z</time></trkpt><trkpt lat="42.6426517" lon="-7.237315"><ele>1068.8</ele><time>2026-04-15T08:38:18.847Z</time></trkpt><trkpt lat="42.6427033" lon="-7.2374317"><ele>1065.1999999999998</ele><time>2026-04-15T08:38:19.847Z</time></trkpt><trkpt lat="42.6427433" lon="-7.2375333"><ele>1061.6</ele><time>2026-04-15T08:38:20.846Z</time></trkpt><trkpt lat="42.6427617" lon="-7.2376217"><ele>1058.0</ele><time>2026-04-15T08:38:21.846Z</time></trkpt><trkpt lat="42.642725" lon="-7.2377783"><ele>1099.0</ele><time>2026-04-15T08:38:23.847Z</time></trkpt><trkpt lat="42.64243" lon="-7.23477"><ele>1099.0</ele><time>2026-04-15T08:37:52.847Z</time></trkpt><trkpt lat="42.6424" lon="-7.2346933"><ele>1099.0</ele><time>2026-04-15T08:37:53.846Z</time></trkpt><trkpt lat="42.6423383" lon="-7.2346483"><ele>1099.0</ele><time>2026-04-15T08:37:55.847Z</time></trkpt><trkpt lat="42.64228" lon="-7.2347517"><ele>1099.0</ele><time>2026-04-15T08:37:57.846Z</time></trkpt><trkpt lat="42.642265" lon="-7.2348817"><ele>1099.0</ele><time>2026-04-15T08:37:58.847Z</time></trkpt><trkpt lat="42.6422533" lon="-7.2350633"><ele>1098.4</ele><time>2026-04-15T08:37:59.846Z</time></trkpt><trkpt lat="42.642235" lon="-7.235225"><ele>1097.8000000000002</ele><time>2026-04-15T08:38:00.847Z</time></trkpt><trkpt lat="42.642195" lon="-7.2353517"><ele>1097.1999999999998</ele><time>2026-04-15T08:38:01.846Z</time></trkpt><trkpt lat="42.6421433" lon="-7.2354583"><ele>1096.6</ele><time>2026-04-15T08:38:02.847Z</time></trkpt><trkpt lat="42.6420867" lon="-7.23556"><ele>1096.0</ele><time>2026-04-15T08:38:03.846Z</time></trkpt><trkpt lat="42.6420383" lon="-7.2356517"><ele>1095.0</ele><time>2026-04-15T08:38:04.847Z</time></trkpt><trkpt lat="42.64202" lon="-7.2357417"><ele>1094.0</ele><time>2026-04-15T08:38:05.847Z</time></trkpt><trkpt lat="42.6420267" lon="-7.2358433"><ele>1093.0</ele><time>2026-04-15T08:38:06.847Z</time></trkpt><trkpt lat="42.6420617" lon="-7.235945"><ele>1092.0</ele><time>2026-04-15T08:38:07.847Z</time></trkpt><trkpt lat="42.6421117" lon="-7.2360583"><ele>1091.0</ele><time>2026-04-15T08:38:08.847Z</time></trkpt><trkpt lat="42.6421667" lon="-7.2361817"><ele>1090.0</ele><time>2026-04-15T08:38:09.846Z</time></trkpt><trkpt lat="42.6422183" lon="-7.236305"><ele>1090.0</ele><time>2026-04-15T08:38:10.847Z</time></trkpt><trkpt lat="42.64226" lon="-7.236415"><ele>1090.0</ele><time>2026-04-15T08:38:11.847Z</time></trkpt><trkpt lat="42.64229" lon="-7.2365317"><ele>1090.0</ele><time>2026-04-15T08:38:12.846Z</time></trkpt><trkpt lat="42.6423117" lon="-7.23664"><ele>1090.0</ele><time>2026-04-15T08:38:13.847Z</time></trkpt><trkpt lat="42.6423583" lon="-7.2367567"><ele>1090.0</ele><time>2026-04-15T08:38:14.846Z</time></trkpt><trkpt lat="42.6424233" lon="-7.2368967"><ele>1086.5</ele><time>2026-04-15T08:38:15.847Z</time></trkpt><trkpt lat="42.6425033" lon="-7.2370417"><ele>1083.0</ele><time>2026-04-15T08:38:16.846Z</time></trkpt><trkpt lat="42.642585" lon="-7.23719"><ele>1079.5</ele><time>2026-04-15T08:38:17.846Z</time></trkpt><trkpt lat="42.6426517" lon="-7.237315"><ele>1076.0</ele><time>2026-04-15T08:38:18.847Z</time></trkpt><trkpt lat="42.6427033" lon="-7.2374317"><ele>1072.3999999999999</ele><time>2026-04-15T08:38:19.847Z</time></trkpt><trkpt lat="42.6427433" lon="-7.2375333"><ele>1068.8</ele><time>2026-04-15T08:38:20.846Z</time></trkpt><trkpt lat="42.6427617" lon="-7.2376217"><ele>1065.1999999999998</ele><time>2026-04-15T08:38:21.846Z</time></trkpt><trkpt lat="42.642725" lon="-7.2377783"><ele>1061.6</ele><time>2026-04-15T08:38:23.847Z</time></trkpt><trkpt lat="42.642645" lon="-7.237825"><ele>1058.0</ele><time>2026-04-15T08:38:25.847Z</time></trkpt><trkpt lat="42.64251" lon="-7.2377767"><ele>1058.0</ele><time>2026-04-15T08:38:27.847Z</time></trkpt><trkpt lat="42.642425" lon="-7.2377433"><ele>1058.0</ele><time>2026-04-15T08:38:28.847Z</time></trkpt><trkpt lat="42.642335" lon="-7.2377117"><ele>1058.0</ele><time>2026-04-15T08:38:29.847Z</time></trkpt><trkpt lat="42.6422483" lon="-7.2376817"><ele>1058.0</ele><time>2026-04-15T08:38:30.847Z</time></trkpt><trkpt lat="42.6421717" lon="-7.237675"><ele>1058.0</ele><time>2026-04-15T08:38:31.846Z</time></trkpt><trkpt lat="42.6421083" lon="-7.23768"><ele>1058.0</ele><time>2026-04-15T08:38:32.847Z</time></trkpt><trkpt lat="42.6420317" lon="-7.2377433"><ele>1058.0</ele><time>2026-04-15T08:38:34.847Z</time></trkpt><trkpt lat="42.6420583" lon="-7.237845"><ele>1058.0</ele><time>2026-04-15T08:38:36.847Z</time></trkpt><trkpt lat="42.64212" lon="-7.2379117"><ele>1058.0</ele><time>2026-04-15T08:38:37.846Z</time></trkpt><trkpt lat="42.6421967" lon="-7.2380017"><ele>1058.0</ele><time>2026-04-15T08:38:38.846Z</time></trkpt><trkpt lat="42.64228" lon="-7.2381017"><ele>1058.0</ele><time>2026-04-15T08:38:39.846Z</time></trkpt><trkpt lat="42.6423667" lon="-7.23821"><ele>1053.5</ele><time>2026-04-15T08:38:40.846Z</time></trkpt><trkpt lat="42.6424533" lon="-7.2383133"><ele>1049.0</ele><time>2026-04-15T08:38:41.847Z</time></trkpt><trkpt lat="42.6425283" lon="-7.2384133"><ele>1044.5</ele><time>2026-04-15T08:38:42.846Z</time></trkpt><trkpt lat="42.642595" lon="-7.238485"><ele>1040.0</ele><time>2026-04-15T08:38:43.847Z</time></trkpt><trkpt lat="42.6426567" lon="-7.2385083"><ele>1035.5</ele><time>2026-04-15T08:38:44.847Z</time></trkpt><trkpt lat="42.64273" lon="-7.2385067"><ele>1031.0</ele><time>2026-04-15T08:38:45.846Z</time></trkpt><trkpt lat="42.6428133" lon="-7.2384717"><ele>1028.0</ele><time>2026-04-15T08:38:46.846Z</time></trkpt><trkpt lat="42.6429033" lon="-7.2384117"><ele>1025.0</ele><time>2026-04-15T08:38:47.847Z</time></trkpt><trkpt lat="42.642995" lon="-7.238335"><ele>1021.9999999999999</ele><time>2026-04-15T08:38:48.847Z</time></trkpt><trkpt lat="42.6430817" lon="-7.2382617"><ele>1019.0</ele><time>2026-04-15T08:38:49.846Z</time></trkpt><trkpt lat="42.6431667" lon="-7.2382"><ele>1016.0</ele><time>2026-04-15T08:38:50.846Z</time></trkpt><trkpt lat="42.64325" lon="-7.23815"><ele>1023.5</ele><time>2026-04-15T08:38:51.847Z</time></trkpt><trkpt lat="42.6433283" lon="-7.238115"><ele>1031.0</ele><time>2026-04-15T08:38:52.847Z</time></trkpt><trkpt lat="42.6434317" lon="-7.2380967"><ele>1038.5</ele><time>2026-04-15T08:38:53.847Z</time></trkpt><trkpt lat="42.6435583" lon="-7.2380867"><ele>1046.0</ele><time>2026-04-15T08:38:54.846Z</time></trkpt><trkpt lat="42.6437017" lon="-7.238085"><ele>1046.0</ele><time>2026-04-15T08:38:55.847Z</time></trkpt><trkpt lat="42.6438467" lon="-7.23808"><ele>1046.0</ele><time>2026-04-15T08:38:56.846Z</time></trkpt><trkpt lat="42.6439917" lon="-7.2380817"><ele>1046.0</ele><time>2026-04-15T08:38:57.847Z</time></trkpt><trkpt lat="42.6441333" lon="-7.2380833"><ele>1046.0</ele><time>2026-04-15T08:38:58.846Z</time></trkpt><trkpt lat="42.6442667" lon="-7.2380833"><ele>1046.0</ele><time>2026-04-15T08:38:59.846Z</time></trkpt><trkpt lat="42.644385" lon="-7.238075"><ele>1046.0</ele><time>2026-04-15T08:39:00.847Z</time></trkpt><trkpt lat="42.6444967" lon="-7.2380617"><ele>1046.0</ele><time>2026-04-15T08:39:01.847Z</time></trkpt><trkpt lat="42.6446167" lon="-7.2380217"><ele>1046.0</ele><time>2026-04-15T08:39:02.846Z</time></trkpt><trkpt lat="42.64474" lon="-7.2379683"><ele>1042.5</ele><time>2026-04-15T08:39:03.847Z</time></trkpt><trkpt lat="42.64486" lon="-7.2379067"><ele>1039.0</ele><time>2026-04-15T08:39:04.847Z</time></trkpt><trkpt lat="42.6449817" lon="-7.2378333"><ele>1035.5</ele><time>2026-04-15T08:39:05.847Z</time></trkpt><trkpt lat="42.6451033" lon="-7.2377683"><ele>1032.0</ele><time>2026-04-15T08:39:06.847Z</time></trkpt><trkpt lat="42.645225" lon="-7.2377183"><ele>1026.25</ele><time>2026-04-15T08:39:07.847Z</time></trkpt><trkpt lat="42.645345" lon="-7.2376633"><ele>1020.5</ele><time>2026-04-15T08:39:08.847Z</time></trkpt><trkpt lat="42.6454517" lon="-7.2376067"><ele>1014.75</ele><time>2026-04-15T08:39:09.847Z</time></trkpt><trkpt lat="42.645555" lon="-7.23754"><ele>1009.0</ele><time>2026-04-15T08:39:10.847Z</time></trkpt><trkpt lat="42.645655" lon="-7.2374633"><ele>1009.0</ele><time>2026-04-15T08:39:11.847Z</time></trkpt><trkpt lat="42.6457433" lon="-7.2373817"><ele>1009.0</ele><time>2026-04-15T08:39:12.847Z</time></trkpt><trkpt lat="42.6458367" lon="-7.237295"><ele>1009.0</ele><time>2026-04-15T08:39:13.847Z</time></trkpt><trkpt lat="42.6459367" lon="-7.23722"><ele>1009.0</ele><time>2026-04-15T08:39:14.847Z</time></trkpt><trkpt lat="42.64605" lon="-7.2371717"><ele>1015.5</ele><time>2026-04-15T08:39:15.846Z</time></trkpt><trkpt lat="42.646175" lon="-7.2371317"><ele>1022.0</ele><time>2026-04-15T08:39:16.846Z</time></trkpt><trkpt lat="42.6462917" lon="-7.237105"><ele>1028.5</ele><time>2026-04-15T08:39:17.846Z</time></trkpt><trkpt lat="42.646405" lon="-7.2371"><ele>1035.0</ele><time>2026-04-15T08:39:18.847Z</time></trkpt><trkpt lat="42.6465017" lon="-7.2371017"><ele>1035.0</ele><time>2026-04-15T08:39:19.847Z</time></trkpt><trkpt lat="42.6465833" lon="-7.2371067"><ele>1035.0</ele><time>2026-04-15T08:39:20.846Z</time></trkpt><trkpt lat="42.64668" lon="-7.2371567"><ele>1035.0</ele><time>2026-04-15T08:39:22.847Z</time></trkpt><trkpt lat="42.646675" lon="-7.2373017"><ele>1035.0</ele><time>2026-04-15T08:39:24.847Z</time></trkpt><trkpt lat="42.6466383" lon="-7.237435"><ele>1035.0</ele><time>2026-04-15T08:39:25.846Z</time></trkpt><trkpt lat="42.64659" lon="-7.23761"><ele>1031.25</ele><time>2026-04-15T08:39:26.846Z</time></trkpt><trkpt lat="42.64654" lon="-7.2378183"><ele>1027.5</ele><time>2026-04-15T08:39:27.847Z</time></trkpt><trkpt lat="42.6465017" lon="-7.23801"><ele>1023.75</ele><time>2026-04-15T08:39:28.847Z</time></trkpt><trkpt lat="42.646475" lon="-7.2381783"><ele>1020.0</ele><time>2026-04-15T08:39:29.846Z</time></trkpt><trkpt lat="42.6464617" lon="-7.2383417"><ele>1020.0</ele><time>2026-04-15T08:39:30.846Z</time></trkpt><trkpt lat="42.6464483" lon="-7.2385133"><ele>1020.0</ele><time>2026-04-15T08:39:31.846Z</time></trkpt><trkpt lat="42.64644" lon="-7.2386917"><ele>1020.0</ele><time>2026-04-15T08:39:32.846Z</time></trkpt><trkpt lat="42.6464333" lon="-7.2388667"><ele>1020.0</ele><time>2026-04-15T08:39:33.847Z</time></trkpt><trkpt lat="42.6464267" lon="-7.23901"><ele>1021.4</ele><time>2026-04-15T08:39:34.846Z</time></trkpt><trkpt lat="42.646395" lon="-7.239115"><ele>1022.8</ele><time>2026-04-15T08:39:35.847Z</time></trkpt><trkpt lat="42.6463483" lon="-7.2392"><ele>1024.2</ele><time>2026-04-15T08:39:36.846Z</time></trkpt><trkpt lat="42.6462917" lon="-7.2392917"><ele>1025.6</ele><time>2026-04-15T08:39:37.846Z</time></trkpt><trkpt lat="42.64623" lon="-7.23943"><ele>1027.0</ele><time>2026-04-15T08:39:38.846Z</time></trkpt><trkpt lat="42.64616" lon="-7.2396017"><ele>1018.25</ele><time>2026-04-15T08:39:39.847Z</time></trkpt><trkpt lat="42.646095" lon="-7.2397683"><ele>1009.5</ele><time>2026-04-15T08:39:40.847Z</time></trkpt><trkpt lat="42.64604" lon="-7.2399383"><ele>1000.75</ele><time>2026-04-15T08:39:41.846Z</time></trkpt><trkpt lat="42.6459817" lon="-7.240095"><ele>992.0</ele><time>2026-04-15T08:39:42.846Z</time></trkpt><trkpt lat="42.6459117" lon="-7.24022"><ele>992.0</ele><time>2026-04-15T08:39:43.846Z</time></trkpt><trkpt lat="42.645835" lon="-7.2403383"><ele>992.0</ele><time>2026-04-15T08:39:44.847Z</time></trkpt><trkpt lat="42.645765" lon="-7.2404483"><ele>992.0</ele><time>2026-04-15T08:39:45.846Z</time></trkpt><trkpt lat="42.64571" lon="-7.2405567"><ele>992.0</ele><time>2026-04-15T08:39:46.846Z</time></trkpt><trkpt lat="42.6456583" lon="-7.2406867"><ele>992.0</ele><time>2026-04-15T08:39:47.847Z</time></trkpt><trkpt lat="42.645595" lon="-7.2408533"><ele>997.0</ele><time>2026-04-15T08:39:48.847Z</time></trkpt><trkpt lat="42.6455167" lon="-7.2410283"><ele>1002.0</ele><time>2026-04-15T08:39:49.848Z</time></trkpt><trkpt lat="42.645435" lon="-7.2411983"><ele>1007.0</ele><time>2026-04-15T08:39:50.848Z</time></trkpt><trkpt lat="42.6453717" lon="-7.24136"><ele>1012.0</ele><time>2026-04-15T08:39:51.847Z</time></trkpt><trkpt lat="42.6453167" lon="-7.2415033"><ele>1005.2</ele><time>2026-04-15T08:39:52.848Z</time></trkpt><trkpt lat="42.645285" lon="-7.2416333"><ele>998.4000000000001</ele><time>2026-04-15T08:39:53.848Z</time></trkpt><trkpt lat="42.6452617" lon="-7.2417717"><ele>991.5999999999999</ele><time>2026-04-15T08:39:54.847Z</time></trkpt><trkpt lat="42.6452533" lon="-7.2419183"><ele>984.8</ele><time>2026-04-15T08:39:55.847Z</time></trkpt><trkpt lat="42.6452433" lon="-7.2420767"><ele>978.0</ele><time>2026-04-15T08:39:56.847Z</time></trkpt><trkpt lat="42.64524" lon="-7.24223"><ele>979.75</ele><time>2026-04-15T08:39:57.847Z</time></trkpt><trkpt lat="42.6452417" lon="-7.2423933"><ele>981.5</ele><time>2026-04-15T08:39:58.847Z</time></trkpt><trkpt lat="42.6452383" lon="-7.2425633"><ele>983.25</ele><time>2026-04-15T08:39:59.847Z</time></trkpt><trkpt lat="42.645235" lon="-7.242715"><ele>985.0</ele><time>2026-04-15T08:40:00.847Z</time></trkpt><trkpt lat="42.6452183" lon="-7.2428583"><ele>985.0</ele><time>2026-04-15T08:40:01.848Z</time></trkpt><trkpt lat="42.64519" lon="-7.242995"><ele>985.0</ele><time>2026-04-15T08:40:02.848Z</time></trkpt><trkpt lat="42.6451583" lon="-7.243135"><ele>985.0</ele><time>2026-04-15T08:40:03.847Z</time></trkpt><trkpt lat="42.645115" lon="-7.24326"><ele>985.0</ele><time>2026-04-15T08:40:04.847Z</time></trkpt><trkpt lat="42.6450717" lon="-7.2433917"><ele>985.0</ele><time>2026-04-15T08:40:05.847Z</time></trkpt><trkpt lat="42.645025" lon="-7.2435133"><ele>984.75</ele><time>2026-04-15T08:40:06.848Z</time></trkpt><trkpt lat="42.6449733" lon="-7.24365"><ele>984.5</ele><time>2026-04-15T08:40:07.848Z</time></trkpt><trkpt lat="42.64492" lon="-7.2437933"><ele>984.25</ele><time>2026-04-15T08:40:08.847Z</time></trkpt><trkpt lat="42.64487" lon="-7.243955"><ele>984.0</ele><time>2026-04-15T08:40:09.848Z</time></trkpt><trkpt lat="42.6448233" lon="-7.2441267"><ele>984.0</ele><time>2026-04-15T08:40:10.847Z</time></trkpt><trkpt lat="42.64478" lon="-7.2442983"><ele>984.0</ele><time>2026-04-15T08:40:11.848Z</time></trkpt><trkpt lat="42.6447267" lon="-7.24449"><ele>984.0</ele><time>2026-04-15T08:40:12.847Z</time></trkpt><trkpt lat="42.644665" lon="-7.2446867"><ele>984.0</ele><time>2026-04-15T08:40:13.848Z</time></trkpt><trkpt lat="42.6446183" lon="-7.2448667"><ele>983.5</ele><time>2026-04-15T08:40:14.847Z</time></trkpt><trkpt lat="42.6445833" lon="-7.2450267"><ele>983.0</ele><time>2026-04-15T08:40:15.847Z</time></trkpt><trkpt lat="42.6445583" lon="-7.2451783"><ele>982.5</ele><time>2026-04-15T08:40:16.847Z</time></trkpt><trkpt lat="42.6445417" lon="-7.2453417"><ele>982.0</ele><time>2026-04-15T08:40:17.848Z</time></trkpt><trkpt lat="42.644535" lon="-7.245525"><ele>980.0</ele><time>2026-04-15T08:40:18.848Z</time></trkpt><trkpt lat="42.644525" lon="-7.2457367"><ele>978.0</ele><time>2026-04-15T08:40:19.847Z</time></trkpt><trkpt lat="42.6445167" lon="-7.24596"><ele>976.0</ele><time>2026-04-15T08:40:20.847Z</time></trkpt><trkpt lat="42.6445083" lon="-7.2461817"><ele>976.0</ele><time>2026-04-15T08:40:21.847Z</time></trkpt><trkpt lat="42.644505" lon="-7.2464017"><ele>976.0</ele><time>2026-04-15T08:40:22.847Z</time></trkpt><trkpt lat="42.644495" lon="-7.24661"><ele>976.0</ele><time>2026-04-15T08:40:23.848Z</time></trkpt><trkpt lat="42.6444717" lon="-7.24681"><ele>964.0</ele><time>2026-04-15T08:40:24.847Z</time></trkpt><trkpt lat="42.6444383" lon="-7.24701"><ele>952.0</ele><time>2026-04-15T08:40:25.848Z</time></trkpt><trkpt lat="42.644415" lon="-7.24722"><ele>940.0</ele><time>2026-04-15T08:40:26.847Z</time></trkpt><trkpt lat="42.64439" lon="-7.2474317"><ele>940.0</ele><time>2026-04-15T08:40:27.847Z</time></trkpt><trkpt lat="42.64437" lon="-7.247625"><ele>940.0</ele><time>2026-04-15T08:40:28.847Z</time></trkpt><trkpt lat="42.644365" lon="-7.2478067"><ele>940.0</ele><time>2026-04-15T08:40:29.847Z</time></trkpt><trkpt lat="42.6443767" lon="-7.2480133"><ele>940.0</ele><time>2026-04-15T08:40:30.848Z</time></trkpt><trkpt lat="42.644395" lon="-7.2482267"><ele>938.5</ele><time>2026-04-15T08:40:31.848Z</time></trkpt><trkpt lat="42.6444083" lon="-7.2484183"><ele>937.0</ele><time>2026-04-15T08:40:32.847Z</time></trkpt><trkpt lat="42.644405" lon="-7.2485783"><ele>935.5</ele><time>2026-04-15T08:40:33.848Z</time></trkpt><trkpt lat="42.644415" lon="-7.248725"><ele>934.0</ele><time>2026-04-15T08:40:34.847Z</time></trkpt><trkpt lat="42.6444467" lon="-7.2488483"><ele>934.6</ele><time>2026-04-15T08:40:35.848Z</time></trkpt><trkpt lat="42.644505" lon="-7.2489533"><ele>935.2</ele><time>2026-04-15T08:40:36.848Z</time></trkpt><trkpt lat="42.6445833" lon="-7.24906"><ele>935.8000000000001</ele><time>2026-04-15T08:40:37.847Z</time></trkpt><trkpt lat="42.6446733" lon="-7.2491833"><ele>936.4000000000001</ele><time>2026-04-15T08:40:38.848Z</time></trkpt><trkpt lat="42.6447467" lon="-7.2492967"><ele>937.0</ele><time>2026-04-15T08:40:39.847Z</time></trkpt><trkpt lat="42.64481" lon="-7.2494283"><ele>937.0</ele><time>2026-04-15T08:40:40.847Z</time></trkpt><trkpt lat="42.6448667" lon="-7.249545"><ele>937.0</ele><time>2026-04-15T08:40:41.848Z</time></trkpt><trkpt lat="42.6449267" lon="-7.24965"><ele>937.0</ele><time>2026-04-15T08:40:42.848Z</time></trkpt><trkpt lat="42.6449933" lon="-7.2497183"><ele>937.0</ele><time>2026-04-15T08:40:43.847Z</time></trkpt><trkpt lat="42.64508" lon="-7.2497667"><ele>937.0</ele><time>2026-04-15T08:40:44.847Z</time></trkpt><trkpt lat="42.6451983" lon="-7.2498017"><ele>929.6666666666666</ele><time>2026-04-15T08:40:45.847Z</time></trkpt><trkpt lat="42.6453283" lon="-7.2498467"><ele>922.3333333333333</ele><time>2026-04-15T08:40:46.848Z</time></trkpt><trkpt lat="42.6454467" lon="-7.2499017"><ele>915.0</ele><time>2026-04-15T08:40:47.848Z</time></trkpt><trkpt lat="42.6445583" lon="-7.2451783"><ele>930.25</ele><time>2026-04-15T08:40:16.847Z</time></trkpt><trkpt lat="42.6445417" lon="-7.2453417"><ele>945.5</ele><time>2026-04-15T08:40:17.848Z</time></trkpt><trkpt lat="42.644535" lon="-7.245525"><ele>960.75</ele><time>2026-04-15T08:40:18.848Z</time></trkpt><trkpt lat="42.644525" lon="-7.2457367"><ele>976.0</ele><time>2026-04-15T08:40:19.847Z</time></trkpt><trkpt lat="42.6445167" lon="-7.24596"><ele>976.0</ele><time>2026-04-15T08:40:20.847Z</time></trkpt><trkpt lat="42.6445083" lon="-7.2461817"><ele>976.0</ele><time>2026-04-15T08:40:21.847Z</time></trkpt><trkpt lat="42.644505" lon="-7.2464017"><ele>976.0</ele><time>2026-04-15T08:40:22.847Z</time></trkpt><trkpt lat="42.644495" lon="-7.24661"><ele>974.3333333333333</ele><time>2026-04-15T08:40:23.848Z</time></trkpt><trkpt lat="42.6444717" lon="-7.24681"><ele>972.6666666666667</ele><time>2026-04-15T08:40:24.847Z</time></trkpt><trkpt lat="42.6444383" lon="-7.24701"><ele>971.0</ele><time>2026-04-15T08:40:25.848Z</time></trkpt><trkpt lat="42.644415" lon="-7.24722"><ele>963.25</ele><time>2026-04-15T08:40:26.847Z</time></trkpt><trkpt lat="42.64439" lon="-7.2474317"><ele>955.5</ele><time>2026-04-15T08:40:27.847Z</time></trkpt><trkpt lat="42.64437" lon="-7.247625"><ele>947.75</ele><time>2026-04-15T08:40:28.847Z</time></trkpt><trkpt lat="42.644365" lon="-7.2478067"><ele>940.0</ele><time>2026-04-15T08:40:29.847Z</time></trkpt><trkpt lat="42.6443767" lon="-7.2480133"><ele>938.5</ele><time>2026-04-15T08:40:30.848Z</time></trkpt><trkpt lat="42.644395" lon="-7.2482267"><ele>937.0</ele><time>2026-04-15T08:40:31.848Z</time></trkpt><trkpt lat="42.6444083" lon="-7.2484183"><ele>935.5</ele><time>2026-04-15T08:40:32.847Z</time></trkpt><trkpt lat="42.644405" lon="-7.2485783"><ele>934.0</ele><time>2026-04-15T08:40:33.848Z</time></trkpt><trkpt lat="42.644415" lon="-7.248725"><ele>934.0</ele><time>2026-04-15T08:40:34.847Z</time></trkpt><trkpt lat="42.6444467" lon="-7.2488483"><ele>934.0000000000001</ele><time>2026-04-15T08:40:35.848Z</time></trkpt><trkpt lat="42.644505" lon="-7.2489533"><ele>934.0000000000001</ele><time>2026-04-15T08:40:36.848Z</time></trkpt><trkpt lat="42.6445833" lon="-7.24906"><ele>934.0</ele><time>2026-04-15T08:40:37.847Z</time></trkpt><trkpt lat="42.6446733" lon="-7.2491833"><ele>934.0</ele><time>2026-04-15T08:40:38.848Z</time></trkpt><trkpt lat="42.6447467" lon="-7.2492967"><ele>934.6</ele><time>2026-04-15T08:40:39.847Z</time></trkpt><trkpt lat="42.64481" lon="-7.2494283"><ele>935.2</ele><time>2026-04-15T08:40:40.847Z</time></trkpt><trkpt lat="42.6448667" lon="-7.249545"><ele>935.8000000000001</ele><time>2026-04-15T08:40:41.848Z</time></trkpt><trkpt lat="42.6449267" lon="-7.24965"><ele>936.4000000000001</ele><time>2026-04-15T08:40:42.848Z</time></trkpt><trkpt lat="42.6449933" lon="-7.2497183"><ele>937.0</ele><time>2026-04-15T08:40:43.847Z</time></trkpt><trkpt lat="42.64508" lon="-7.2497667"><ele>932.0</ele><time>2026-04-15T08:40:44.847Z</time></trkpt><trkpt lat="42.6451983" lon="-7.2498017"><ele>927.0</ele><time>2026-04-15T08:40:45.847Z</time></trkpt><trkpt lat="42.6453283" lon="-7.2498467"><ele>922.0</ele><time>2026-04-15T08:40:46.848Z</time></trkpt><trkpt lat="42.6454467" lon="-7.2499017"><ele>917.0</ele><time>2026-04-15T08:40:47.848Z</time></trkpt><trkpt lat="42.64556" lon="-7.2499433"><ele>916.5</ele><time>2026-04-15T08:40:48.848Z</time></trkpt><trkpt lat="42.6456633" lon="-7.249965"><ele>916.0</ele><time>2026-04-15T08:40:49.847Z</time></trkpt><trkpt lat="42.6457717" lon="-7.24995"><ele>915.5</ele><time>2026-04-15T08:40:50.847Z</time></trkpt><trkpt lat="42.64588" lon="-7.2499067"><ele>915.0</ele><time>2026-04-15T08:40:51.848Z</time></trkpt><trkpt lat="42.646" lon="-7.2498417"><ele>918.25</ele><time>2026-04-15T08:40:52.848Z</time></trkpt><trkpt lat="42.64613" lon="-7.249755"><ele>921.5</ele><time>2026-04-15T08:40:53.847Z</time></trkpt><trkpt lat="42.646275" lon="-7.2496617"><ele>924.75</ele><time>2026-04-15T08:40:54.847Z</time></trkpt><trkpt lat="42.646405" lon="-7.2495767"><ele>928.0</ele><time>2026-04-15T08:40:55.848Z</time></trkpt><trkpt lat="42.6465167" lon="-7.249525"><ele>927.9999999999999</ele><time>2026-04-15T08:40:56.847Z</time></trkpt><trkpt lat="42.6466183" lon="-7.2494767"><ele>928.0</ele><time>2026-04-15T08:40:57.848Z</time></trkpt><trkpt lat="42.6467083" lon="-7.249445"><ele>928.0</ele><time>2026-04-15T08:40:58.847Z</time></trkpt><trkpt lat="42.6467883" lon="-7.2494183"><ele>928.0</ele><time>2026-04-15T08:40:59.848Z</time></trkpt><trkpt lat="42.64685" lon="-7.249385"><ele>927.9999999999999</ele><time>2026-04-15T08:41:00.848Z</time></trkpt><trkpt lat="42.6469217" lon="-7.249315"><ele>928.0</ele><time>2026-04-15T08:41:01.847Z</time></trkpt><trkpt lat="42.6469983" lon="-7.2492233"><ele>925.2</ele><time>2026-04-15T08:41:02.847Z</time></trkpt><trkpt lat="42.6470717" lon="-7.2491067"><ele>922.4</ele><time>2026-04-15T08:41:03.848Z</time></trkpt><trkpt lat="42.647155" lon="-7.2490133"><ele>919.6000000000001</ele><time>2026-04-15T08:41:04.847Z</time></trkpt><trkpt lat="42.6472433" lon="-7.24893"><ele>916.8000000000001</ele><time>2026-04-15T08:41:05.847Z</time></trkpt><trkpt lat="42.6473317" lon="-7.24885"><ele>914.0</ele><time>2026-04-15T08:41:06.848Z</time></trkpt><trkpt lat="42.6474217" lon="-7.2487633"><ele>916.25</ele><time>2026-04-15T08:41:07.847Z</time></trkpt><trkpt lat="42.6475183" lon="-7.2486733"><ele>918.5</ele><time>2026-04-15T08:41:08.847Z</time></trkpt><trkpt lat="42.6476217" lon="-7.2485667"><ele>920.75</ele><time>2026-04-15T08:41:09.848Z</time></trkpt><trkpt lat="42.6477183" lon="-7.2484467"><ele>923.0</ele><time>2026-04-15T08:41:10.848Z</time></trkpt><trkpt lat="42.6478067" lon="-7.2483283"><ele>923.0</ele><time>2026-04-15T08:41:11.848Z</time></trkpt><trkpt lat="42.6479017" lon="-7.2482117"><ele>923.0</ele><time>2026-04-15T08:41:12.847Z</time></trkpt><trkpt lat="42.6479983" lon="-7.2480983"><ele>923.0</ele><time>2026-04-15T08:41:13.848Z</time></trkpt><trkpt lat="42.6480867" lon="-7.2479767"><ele>923.0</ele><time>2026-04-15T08:41:14.848Z</time></trkpt><trkpt lat="42.648165" lon="-7.2478467"><ele>929.25</ele><time>2026-04-15T08:41:15.847Z</time></trkpt><trkpt lat="42.6482317" lon="-7.24771"><ele>935.5</ele><time>2026-04-15T08:41:16.847Z</time></trkpt><trkpt lat="42.6482933" lon="-7.2475617"><ele>941.75</ele><time>2026-04-15T08:41:17.847Z</time></trkpt><trkpt lat="42.6483483" lon="-7.247415"><ele>948.0</ele><time>2026-04-15T08:41:18.848Z</time></trkpt><trkpt lat="42.648405" lon="-7.24727"><ele>949.25</ele><time>2026-04-15T08:41:19.848Z</time></trkpt><trkpt lat="42.6484683" lon="-7.2471517"><ele>950.5</ele><time>2026-04-15T08:41:20.847Z</time></trkpt><trkpt lat="42.6485383" lon="-7.2470367"><ele>951.75</ele><time>2026-04-15T08:41:21.848Z</time></trkpt><trkpt lat="42.6486133" lon="-7.246915"><ele>953.0</ele><time>2026-04-15T08:41:22.847Z</time></trkpt><trkpt lat="42.648685" lon="-7.246775"><ele>953.0</ele><time>2026-04-15T08:41:23.848Z</time></trkpt><trkpt lat="42.648755" lon="-7.2466467"><ele>953.0</ele><time>2026-04-15T08:41:24.847Z</time></trkpt><trkpt lat="42.6488333" lon="-7.2465433"><ele>953.0</ele><time>2026-04-15T08:41:25.848Z</time></trkpt><trkpt lat="42.6489283" lon="-7.2464567"><ele>953.0</ele><time>2026-04-15T08:41:26.847Z</time></trkpt><trkpt lat="42.64904" lon="-7.24637"><ele>956.0</ele><time>2026-04-15T08:41:27.848Z</time></trkpt><trkpt lat="42.6491517" lon="-7.2462833"><ele>959.0</ele><time>2026-04-15T08:41:28.847Z</time></trkpt><trkpt lat="42.6492783" lon="-7.2462"><ele>962.0</ele><time>2026-04-15T08:41:29.847Z</time></trkpt><trkpt lat="42.64942" lon="-7.2461183"><ele>965.0</ele><time>2026-04-15T08:41:30.847Z</time></trkpt><trkpt lat="42.649555" lon="-7.24603"><ele>965.0</ele><time>2026-04-15T08:41:31.848Z</time></trkpt><trkpt lat="42.64969" lon="-7.2459317"><ele>965.0</ele><time>2026-04-15T08:41:32.848Z</time></trkpt><trkpt lat="42.6498183" lon="-7.2458267"><ele>965.0</ele><time>2026-04-15T08:41:33.847Z</time></trkpt><trkpt lat="42.64991" lon="-7.2457383"><ele>965.0</ele><time>2026-04-15T08:41:34.848Z</time></trkpt><trkpt lat="42.6499833" lon="-7.245655"><ele>969.2</ele><time>2026-04-15T08:41:35.847Z</time></trkpt><trkpt lat="42.650055" lon="-7.245575"><ele>973.4</ele><time>2026-04-15T08:41:36.848Z</time></trkpt><trkpt lat="42.65014" lon="-7.24551"><ele>977.5999999999999</ele><time>2026-04-15T08:41:37.847Z</time></trkpt><trkpt lat="42.6502417" lon="-7.2454583"><ele>981.8</ele><time>2026-04-15T08:41:38.847Z</time></trkpt><trkpt lat="42.6503583" lon="-7.2454033"><ele>986.0</ele><time>2026-04-15T08:41:39.847Z</time></trkpt><trkpt lat="42.65048" lon="-7.2453417"><ele>986.0</ele><time>2026-04-15T08:41:40.848Z</time></trkpt><trkpt lat="42.6505917" lon="-7.2452817"><ele>986.0</ele><time>2026-04-15T08:41:41.847Z</time></trkpt><trkpt lat="42.650695" lon="-7.2452317"><ele>986.0</ele><time>2026-04-15T08:41:42.847Z</time></trkpt><trkpt lat="42.6507917" lon="-7.2451717"><ele>986.0</ele><time>2026-04-15T08:41:43.847Z</time></trkpt><trkpt lat="42.6509067" lon="-7.2451017"><ele>986.0</ele><time>2026-04-15T08:41:44.848Z</time></trkpt><trkpt lat="42.65103" lon="-7.2450433"><ele>986.0</ele><time>2026-04-15T08:41:45.847Z</time></trkpt><trkpt lat="42.6511433" lon="-7.2450117"><ele>986.0</ele><time>2026-04-15T08:41:46.847Z</time></trkpt><trkpt lat="42.65126" lon="-7.245005"><ele>986.0</ele><time>2026-04-15T08:41:47.848Z</time></trkpt><trkpt lat="42.651375" lon="-7.2450017"><ele>987.4</ele><time>2026-04-15T08:41:48.847Z</time></trkpt><trkpt lat="42.6514883" lon="-7.2450133"><ele>988.8</ele><time>2026-04-15T08:41:49.847Z</time></trkpt><trkpt lat="42.65159" lon="-7.2450483"><ele>990.1999999999999</ele><time>2026-04-15T08:41:50.847Z</time></trkpt><trkpt lat="42.6516917" lon="-7.2451017"><ele>991.5999999999999</ele><time>2026-04-15T08:41:51.847Z</time></trkpt><trkpt lat="42.6517917" lon="-7.24515"><ele>993.0</ele><time>2026-04-15T08:41:52.847Z</time></trkpt><trkpt lat="42.6518883" lon="-7.2451967"><ele>996.4</ele><time>2026-04-15T08:41:53.847Z</time></trkpt><trkpt lat="42.65199" lon="-7.2452383"><ele>999.8</ele><time>2026-04-15T08:41:54.847Z</time></trkpt><trkpt lat="42.6520883" lon="-7.2452617"><ele>1003.2</ele><time>2026-04-15T08:41:55.848Z</time></trkpt><trkpt lat="42.6521867" lon="-7.245265"><ele>1006.6</ele><time>2026-04-15T08:41:56.848Z</time></trkpt><trkpt lat="42.6522867" lon="-7.24527"><ele>1010.0</ele><time>2026-04-15T08:41:57.848Z</time></trkpt><trkpt lat="42.6524" lon="-7.2452633"><ele>1010.0</ele><time>2026-04-15T08:41:58.848Z</time></trkpt><trkpt lat="42.6525233" lon="-7.2452467"><ele>1010.0</ele><time>2026-04-15T08:41:59.848Z</time></trkpt><trkpt lat="42.6526483" lon="-7.245225"><ele>1010.0</ele><time>2026-04-15T08:42:00.847Z</time></trkpt><trkpt lat="42.65278" lon="-7.2451983"><ele>1010.0</ele><time>2026-04-15T08:42:01.847Z</time></trkpt><trkpt lat="42.65291" lon="-7.2451733"><ele>1011.8</ele><time>2026-04-15T08:42:02.847Z</time></trkpt><trkpt lat="42.6530333" lon="-7.245135"><ele>1013.6</ele><time>2026-04-15T08:42:03.848Z</time></trkpt><trkpt lat="42.6531267" lon="-7.2450917"><ele>1015.4000000000001</ele><time>2026-04-15T08:42:04.848Z</time></trkpt><trkpt lat="42.6531983" lon="-7.245055"><ele>1017.2</ele><time>2026-04-15T08:42:05.848Z</time></trkpt><trkpt lat="42.6532667" lon="-7.24502"><ele>1019.0</ele><time>2026-04-15T08:42:06.847Z</time></trkpt><trkpt lat="42.6533533" lon="-7.2449867"><ele>1019.0</ele><time>2026-04-15T08:42:07.848Z</time></trkpt><trkpt lat="42.6534467" lon="-7.2449533"><ele>1019.0000000000001</ele><time>2026-04-15T08:42:08.847Z</time></trkpt><trkpt lat="42.653545" lon="-7.2449133"><ele>1019.0000000000001</ele><time>2026-04-15T08:42:09.848Z</time></trkpt><trkpt lat="42.6536333" lon="-7.2448867"><ele>1019.0</ele><time>2026-04-15T08:42:10.848Z</time></trkpt><trkpt lat="42.6537217" lon="-7.244875"><ele>1019.0</ele><time>2026-04-15T08:42:11.847Z</time></trkpt><trkpt lat="42.6538083" lon="-7.2448567"><ele>1020.0</ele><time>2026-04-15T08:42:12.847Z</time></trkpt><trkpt lat="42.6539067" lon="-7.2448267"><ele>1021.0</ele><time>2026-04-15T08:42:13.848Z</time></trkpt><trkpt lat="42.654015" lon="-7.2447883"><ele>1022.0</ele><time>2026-04-15T08:42:14.847Z</time></trkpt><trkpt lat="42.6509067" lon="-7.2451017"><ele>1014.75</ele><time>2026-04-15T08:41:44.848Z</time></trkpt><trkpt lat="42.65103" lon="-7.2450433"><ele>1007.5</ele><time>2026-04-15T08:41:45.847Z</time></trkpt><trkpt lat="42.6511433" lon="-7.2450117"><ele>1000.25</ele><time>2026-04-15T08:41:46.847Z</time></trkpt><trkpt lat="42.65126" lon="-7.245005"><ele>993.0</ele><time>2026-04-15T08:41:47.848Z</time></trkpt><trkpt lat="42.651375" lon="-7.2450017"><ele>993.0</ele><time>2026-04-15T08:41:48.847Z</time></trkpt><trkpt lat="42.6514883" lon="-7.2450133"><ele>993.0</ele><time>2026-04-15T08:41:49.847Z</time></trkpt><trkpt lat="42.65159" lon="-7.2450483"><ele>993.0</ele><time>2026-04-15T08:41:50.847Z</time></trkpt><trkpt lat="42.6516917" lon="-7.2451017"><ele>993.0</ele><time>2026-04-15T08:41:51.847Z</time></trkpt><trkpt lat="42.6517917" lon="-7.24515"><ele>993.0</ele><time>2026-04-15T08:41:52.847Z</time></trkpt><trkpt lat="42.6518883" lon="-7.2451967"><ele>996.4</ele><time>2026-04-15T08:41:53.847Z</time></trkpt><trkpt lat="42.65199" lon="-7.2452383"><ele>999.8</ele><time>2026-04-15T08:41:54.847Z</time></trkpt><trkpt lat="42.6520883" lon="-7.2452617"><ele>1003.2</ele><time>2026-04-15T08:41:55.848Z</time></trkpt><trkpt lat="42.6521867" lon="-7.245265"><ele>1006.6</ele><time>2026-04-15T08:41:56.848Z</time></trkpt><trkpt lat="42.6522867" lon="-7.24527"><ele>1010.0</ele><time>2026-04-15T08:41:57.848Z</time></trkpt><trkpt lat="42.6524" lon="-7.2452633"><ele>1010.0</ele><time>2026-04-15T08:41:58.848Z</time></trkpt><trkpt lat="42.6525233" lon="-7.2452467"><ele>1010.0</ele><time>2026-04-15T08:41:59.848Z</time></trkpt><trkpt lat="42.6526483" lon="-7.245225"><ele>1010.0</ele><time>2026-04-15T08:42:00.847Z</time></trkpt><trkpt lat="42.65278" lon="-7.2451983"><ele>1010.0</ele><time>2026-04-15T08:42:01.847Z</time></trkpt><trkpt lat="42.65291" lon="-7.2451733"><ele>1011.8</ele><time>2026-04-15T08:42:02.847Z</time></trkpt><trkpt lat="42.6530333" lon="-7.245135"><ele>1013.6</ele><time>2026-04-15T08:42:03.848Z</time></trkpt><trkpt lat="42.6531267" lon="-7.2450917"><ele>1015.4000000000001</ele><time>2026-04-15T08:42:04.848Z</time></trkpt><trkpt lat="42.6531983" lon="-7.245055"><ele>1017.2</ele><time>2026-04-15T08:42:05.848Z</time></trkpt><trkpt lat="42.6532667" lon="-7.24502"><ele>1019.0</ele><time>2026-04-15T08:42:06.847Z</time></trkpt><trkpt lat="42.6533533" lon="-7.2449867"><ele>1019.0</ele><time>2026-04-15T08:42:07.848Z</time></trkpt><trkpt lat="42.6534467" lon="-7.2449533"><ele>1019.0000000000001</ele><time>2026-04-15T08:42:08.847Z</time></trkpt><trkpt lat="42.653545" lon="-7.2449133"><ele>1019.0000000000001</ele><time>2026-04-15T08:42:09.848Z</time></trkpt><trkpt lat="42.6536333" lon="-7.2448867"><ele>1019.0</ele><time>2026-04-15T08:42:10.848Z</time></trkpt><trkpt lat="42.6537217" lon="-7.244875"><ele>1019.0</ele><time>2026-04-15T08:42:11.847Z</time></trkpt><trkpt lat="42.6538083" lon="-7.2448567"><ele>1019.75</ele><time>2026-04-15T08:42:12.847Z</time></trkpt><trkpt lat="42.6539067" lon="-7.2448267"><ele>1020.5</ele><time>2026-04-15T08:42:13.848Z</time></trkpt><trkpt lat="42.654015" lon="-7.2447883"><ele>1021.25</ele><time>2026-04-15T08:42:14.847Z</time></trkpt><trkpt lat="42.6541333" lon="-7.24473"><ele>1022.0</ele><time>2026-04-15T08:42:15.847Z</time></trkpt><trkpt lat="42.654255" lon="-7.2446483"><ele>1031.0</ele><time>2026-04-15T08:42:16.847Z</time></trkpt><trkpt lat="42.6543883" lon="-7.2445517"><ele>1040.0</ele><time>2026-04-15T08:42:17.848Z</time></trkpt><trkpt lat="42.65454" lon="-7.2444433"><ele>1049.0</ele><time>2026-04-15T08:42:18.847Z</time></trkpt><trkpt lat="42.6546933" lon="-7.2443467"><ele>1049.0</ele><time>2026-04-15T08:42:19.847Z</time></trkpt><trkpt lat="42.654835" lon="-7.24425"><ele>1049.0</ele><time>2026-04-15T08:42:20.847Z</time></trkpt><trkpt lat="42.6549733" lon="-7.24415"><ele>1049.0</ele><time>2026-04-15T08:42:21.848Z</time></trkpt><trkpt lat="42.6551067" lon="-7.2440467"><ele>1057.0</ele><time>2026-04-15T08:42:22.848Z</time></trkpt><trkpt lat="42.6552433" lon="-7.2439517"><ele>1065.0</ele><time>2026-04-15T08:42:23.848Z</time></trkpt><trkpt lat="42.655385" lon="-7.2438483"><ele>1073.0</ele><time>2026-04-15T08:42:24.847Z</time></trkpt><trkpt lat="42.6555167" lon="-7.24375"><ele>1073.0</ele><time>2026-04-15T08:42:25.847Z</time></trkpt><trkpt lat="42.65565" lon="-7.2436433"><ele>1073.0</ele><time>2026-04-15T08:42:26.847Z</time></trkpt><trkpt lat="42.6557833" lon="-7.243525"><ele>1073.0</ele><time>2026-04-15T08:42:27.847Z</time></trkpt><trkpt lat="42.655915" lon="-7.2434117"><ele>1073.0</ele><time>2026-04-15T08:42:28.847Z</time></trkpt><trkpt lat="42.65605" lon="-7.2433133"><ele>1073.0</ele><time>2026-04-15T08:42:29.848Z</time></trkpt><trkpt lat="42.6561933" lon="-7.2432233"><ele>1073.0</ele><time>2026-04-15T08:42:30.848Z</time></trkpt><trkpt lat="42.656335" lon="-7.2431317"><ele>1082.0</ele><time>2026-04-15T08:42:31.848Z</time></trkpt><trkpt lat="42.6564717" lon="-7.2430317"><ele>1091.0</ele><time>2026-04-15T08:42:32.847Z</time></trkpt><trkpt lat="42.6565967" lon="-7.2429033"><ele>1100.0</ele><time>2026-04-15T08:42:33.848Z</time></trkpt><trkpt lat="42.6567183" lon="-7.24275"><ele>1100.0</ele><time>2026-04-15T08:42:34.847Z</time></trkpt><trkpt lat="42.65684" lon="-7.2426"><ele>1100.0</ele><time>2026-04-15T08:42:35.848Z</time></trkpt><trkpt lat="42.656965" lon="-7.2424633"><ele>1100.0</ele><time>2026-04-15T08:42:36.848Z</time></trkpt><trkpt lat="42.6571033" lon="-7.24232"><ele>1106.0</ele><time>2026-04-15T08:42:37.848Z</time></trkpt><trkpt lat="42.6572333" lon="-7.2421717"><ele>1112.0</ele><time>2026-04-15T08:42:38.847Z</time></trkpt><trkpt lat="42.65737" lon="-7.24201"><ele>1118.0</ele><time>2026-04-15T08:42:39.847Z</time></trkpt><trkpt lat="42.6574917" lon="-7.241855"><ele>1118.0</ele><time>2026-04-15T08:42:40.847Z</time></trkpt><trkpt lat="42.65759" lon="-7.2417317"><ele>1118.0</ele><time>2026-04-15T08:42:41.848Z</time></trkpt><trkpt lat="42.6576817" lon="-7.2416083"><ele>1118.0</ele><time>2026-04-15T08:42:42.848Z</time></trkpt><trkpt lat="42.6577633" lon="-7.24148"><ele>1118.0</ele><time>2026-04-15T08:42:43.848Z</time></trkpt><trkpt lat="42.6578367" lon="-7.24135"><ele>1114.6666666666667</ele><time>2026-04-15T08:42:44.847Z</time></trkpt><trkpt lat="42.657895" lon="-7.2412217"><ele>1111.3333333333335</ele><time>2026-04-15T08:42:45.847Z</time></trkpt><trkpt lat="42.6579283" lon="-7.2411033"><ele>1108.0</ele><time>2026-04-15T08:42:46.847Z</time></trkpt><trkpt lat="42.6579417" lon="-7.2409983"><ele>1104.6666666666667</ele><time>2026-04-15T08:42:47.848Z</time></trkpt><trkpt lat="42.65794" lon="-7.240895"><ele>1101.3333333333333</ele><time>2026-04-15T08:42:48.847Z</time></trkpt><trkpt lat="42.65792" lon="-7.24078"><ele>1098.0</ele><time>2026-04-15T08:42:49.848Z</time></trkpt><trkpt lat="42.65789" lon="-7.2406667"><ele>1096.2</ele><time>2026-04-15T08:42:50.848Z</time></trkpt><trkpt lat="42.6578483" lon="-7.2405467"><ele>1094.4</ele><time>2026-04-15T08:42:51.847Z</time></trkpt><trkpt lat="42.6578083" lon="-7.2404183"><ele>1092.6000000000001</ele><time>2026-04-15T08:42:52.847Z</time></trkpt><trkpt lat="42.6577667" lon="-7.2402833"><ele>1090.8</ele><time>2026-04-15T08:42:53.847Z</time></trkpt><trkpt lat="42.6577283" lon="-7.2401533"><ele>1089.0</ele><time>2026-04-15T08:42:54.847Z</time></trkpt><trkpt lat="42.6576867" lon="-7.2400083"><ele>1099.6000000000001</ele><time>2026-04-15T08:42:55.847Z</time></trkpt><trkpt lat="42.65764" lon="-7.23986"><ele>1110.2</ele><time>2026-04-15T08:42:56.847Z</time></trkpt><trkpt lat="42.6575983" lon="-7.2397233"><ele>1120.8000000000002</ele><time>2026-04-15T08:42:57.848Z</time></trkpt><trkpt lat="42.6575583" lon="-7.2396017"><ele>1131.4</ele><time>2026-04-15T08:42:58.847Z</time></trkpt><trkpt lat="42.6575183" lon="-7.239485"><ele>1142.0</ele><time>2026-04-15T08:42:59.847Z</time></trkpt><trkpt lat="42.65748" lon="-7.2393633"><ele>1142.0</ele><time>2026-04-15T08:43:00.847Z</time></trkpt><trkpt lat="42.6574433" lon="-7.2392483"><ele>1142.0</ele><time>2026-04-15T08:43:01.848Z</time></trkpt><trkpt lat="42.657415" lon="-7.2391483"><ele>1142.0</ele><time>2026-04-15T08:43:02.848Z</time></trkpt><trkpt lat="42.65741" lon="-7.2390517"><ele>1142.0</ele><time>2026-04-15T08:43:03.847Z</time></trkpt><trkpt lat="42.6574217" lon="-7.238955"><ele>1142.0</ele><time>2026-04-15T08:43:04.848Z</time></trkpt><trkpt lat="42.6574283" lon="-7.238855"><ele>1142.0</ele><time>2026-04-15T08:43:05.848Z</time></trkpt><trkpt lat="42.6574183" lon="-7.238755"><ele>1142.0</ele><time>2026-04-15T08:43:06.847Z</time></trkpt><trkpt lat="42.6574017" lon="-7.238635"><ele>1142.0</ele><time>2026-04-15T08:43:07.848Z</time></trkpt><trkpt lat="42.6573933" lon="-7.2385167"><ele>1142.0</ele><time>2026-04-15T08:43:08.847Z</time></trkpt><trkpt lat="42.6573883" lon="-7.238405"><ele>1142.0</ele><time>2026-04-15T08:43:09.847Z</time></trkpt><trkpt lat="42.6574017" lon="-7.2382883"><ele>1142.0</ele><time>2026-04-15T08:43:10.847Z</time></trkpt><trkpt lat="42.6574283" lon="-7.2381683"><ele>1142.0</ele><time>2026-04-15T08:43:11.848Z</time></trkpt><trkpt lat="42.6574533" lon="-7.23805"><ele>1143.4</ele><time>2026-04-15T08:43:12.848Z</time></trkpt><trkpt lat="42.657475" lon="-7.2379217"><ele>1144.8000000000002</ele><time>2026-04-15T08:43:13.847Z</time></trkpt><trkpt lat="42.6574867" lon="-7.2377933"><ele>1146.2</ele><time>2026-04-15T08:43:14.847Z</time></trkpt><trkpt lat="42.6574767" lon="-7.2376783"><ele>1147.6000000000001</ele><time>2026-04-15T08:43:15.847Z</time></trkpt><trkpt lat="42.6574417" lon="-7.23757"><ele>1149.0</ele><time>2026-04-15T08:43:16.847Z</time></trkpt><trkpt lat="42.6574" lon="-7.2374433"><ele>1149.0</ele><time>2026-04-15T08:43:17.847Z</time></trkpt><trkpt lat="42.657365" lon="-7.2373067"><ele>1149.0</ele><time>2026-04-15T08:43:18.847Z</time></trkpt><trkpt lat="42.65733" lon="-7.2371717"><ele>1149.0</ele><time>2026-04-15T08:43:19.848Z</time></trkpt><trkpt lat="42.6572933" lon="-7.2370417"><ele>1149.0</ele><time>2026-04-15T08:43:20.847Z</time></trkpt><trkpt lat="42.65727" lon="-7.2369283"><ele>1149.0</ele><time>2026-04-15T08:43:21.847Z</time></trkpt><trkpt lat="42.6572617" lon="-7.2368117"><ele>1151.1666666666667</ele><time>2026-04-15T08:43:22.847Z</time></trkpt><trkpt lat="42.6572817" lon="-7.2366917"><ele>1153.3333333333333</ele><time>2026-04-15T08:43:23.847Z</time></trkpt><trkpt lat="42.6573233" lon="-7.2365833"><ele>1155.5</ele><time>2026-04-15T08:43:24.848Z</time></trkpt><trkpt lat="42.65737" lon="-7.2365117"><ele>1157.6666666666665</ele><time>2026-04-15T08:43:25.847Z</time></trkpt><trkpt lat="42.65743" lon="-7.2364417"><ele>1159.8333333333333</ele><time>2026-04-15T08:43:26.848Z</time></trkpt><trkpt lat="42.6575" lon="-7.236365"><ele>1162.0</ele><time>2026-04-15T08:43:27.848Z</time></trkpt><trkpt lat="42.657585" lon="-7.2362717"><ele>1164.75</ele><time>2026-04-15T08:43:28.848Z</time></trkpt><trkpt lat="42.65768" lon="-7.2361683"><ele>1167.5</ele><time>2026-04-15T08:43:29.847Z</time></trkpt><trkpt lat="42.6577783" lon="-7.2360583"><ele>1170.25</ele><time>2026-04-15T08:43:30.847Z</time></trkpt><trkpt lat="42.6578767" lon="-7.2359567"><ele>1173.0</ele><time>2026-04-15T08:43:31.847Z</time></trkpt><trkpt lat="42.6579667" lon="-7.2358583"><ele>1173.0</ele><time>2026-04-15T08:43:32.847Z</time></trkpt><trkpt lat="42.6580517" lon="-7.2357783"><ele>1173.0</ele><time>2026-04-15T08:43:33.847Z</time></trkpt><trkpt lat="42.6581267" lon="-7.2357167"><ele>1173.0</ele><time>2026-04-15T08:43:34.847Z</time></trkpt><trkpt lat="42.6581917" lon="-7.2357033"><ele>1173.0</ele><time>2026-04-15T08:43:35.847Z</time></trkpt><trkpt lat="42.65832" lon="-7.23578"><ele>1173.0</ele><time>2026-04-15T08:43:37.847Z</time></trkpt><trkpt lat="42.6584183" lon="-7.2358417"><ele>1173.0</ele><time>2026-04-15T08:43:38.847Z</time></trkpt><trkpt lat="42.6585183" lon="-7.2358967"><ele>1173.0</ele><time>2026-04-15T08:43:39.847Z</time></trkpt><trkpt lat="42.6586117" lon="-7.23595"><ele>1173.0</ele><time>2026-04-15T08:43:40.848Z</time></trkpt><trkpt lat="42.6587" lon="-7.2359717"><ele>1173.0</ele><time>2026-04-15T08:43:41.847Z</time></trkpt><trkpt lat="42.6574283" lon="-7.2381683"><ele>1168.2</ele><time>2026-04-15T08:43:11.848Z</time></trkpt><trkpt lat="42.6574533" lon="-7.23805"><ele>1163.4</ele><time>2026-04-15T08:43:12.848Z</time></trkpt><trkpt lat="42.657475" lon="-7.2379217"><ele>1158.6000000000001</ele><time>2026-04-15T08:43:13.847Z</time></trkpt><trkpt lat="42.6574867" lon="-7.2377933"><ele>1153.8</ele><time>2026-04-15T08:43:14.847Z</time></trkpt><trkpt lat="42.6574767" lon="-7.2376783"><ele>1149.0</ele><time>2026-04-15T08:43:15.847Z</time></trkpt><trkpt lat="42.6574417" lon="-7.23757"><ele>1149.0</ele><time>2026-04-15T08:43:16.847Z</time></trkpt><trkpt lat="42.6574" lon="-7.2374433"><ele>1149.0</ele><time>2026-04-15T08:43:17.847Z</time></trkpt><trkpt lat="42.657365" lon="-7.2373067"><ele>1149.0</ele><time>2026-04-15T08:43:18.847Z</time></trkpt><trkpt lat="42.65733" lon="-7.2371717"><ele>1149.0</ele><time>2026-04-15T08:43:19.848Z</time></trkpt><trkpt lat="42.6572933" lon="-7.2370417"><ele>1149.0</ele><time>2026-04-15T08:43:20.847Z</time></trkpt><trkpt lat="42.65727" lon="-7.2369283"><ele>1151.1666666666667</ele><time>2026-04-15T08:43:21.847Z</time></trkpt><trkpt lat="42.6572617" lon="-7.2368117"><ele>1153.3333333333333</ele><time>2026-04-15T08:43:22.847Z</time></trkpt><trkpt lat="42.6572817" lon="-7.2366917"><ele>1155.5</ele><time>2026-04-15T08:43:23.847Z</time></trkpt><trkpt lat="42.6573233" lon="-7.2365833"><ele>1157.6666666666665</ele><time>2026-04-15T08:43:24.848Z</time></trkpt><trkpt lat="42.65737" lon="-7.2365117"><ele>1159.8333333333333</ele><time>2026-04-15T08:43:25.847Z</time></trkpt><trkpt lat="42.65743" lon="-7.2364417"><ele>1162.0</ele><time>2026-04-15T08:43:26.848Z</time></trkpt><trkpt lat="42.6575" lon="-7.236365"><ele>1164.75</ele><time>2026-04-15T08:43:27.848Z</time></trkpt><trkpt lat="42.657585" lon="-7.2362717"><ele>1167.5</ele><time>2026-04-15T08:43:28.848Z</time></trkpt><trkpt lat="42.65768" lon="-7.2361683"><ele>1170.25</ele><time>2026-04-15T08:43:29.847Z</time></trkpt><trkpt lat="42.6577783" lon="-7.2360583"><ele>1173.0</ele><time>2026-04-15T08:43:30.847Z</time></trkpt><trkpt lat="42.6578767" lon="-7.2359567"><ele>1173.0</ele><time>2026-04-15T08:43:31.847Z</time></trkpt><trkpt lat="42.6579667" lon="-7.2358583"><ele>1173.0</ele><time>2026-04-15T08:43:32.847Z</time></trkpt><trkpt lat="42.6580517" lon="-7.2357783"><ele>1173.0</ele><time>2026-04-15T08:43:33.847Z</time></trkpt><trkpt lat="42.6581267" lon="-7.2357167"><ele>1173.0</ele><time>2026-04-15T08:43:34.847Z</time></trkpt><trkpt lat="42.6581917" lon="-7.2357033"><ele>1173.0</ele><time>2026-04-15T08:43:35.847Z</time></trkpt><trkpt lat="42.65832" lon="-7.23578"><ele>1173.0</ele><time>2026-04-15T08:43:37.847Z</time></trkpt><trkpt lat="42.6584183" lon="-7.2358417"><ele>1173.0</ele><time>2026-04-15T08:43:38.847Z</time></trkpt><trkpt lat="42.6585183" lon="-7.2358967"><ele>1173.0</ele><time>2026-04-15T08:43:39.847Z</time></trkpt><trkpt lat="42.6586117" lon="-7.23595"><ele>1173.0</ele><time>2026-04-15T08:43:40.848Z</time></trkpt><trkpt lat="42.6587" lon="-7.2359717"><ele>1173.0</ele><time>2026-04-15T08:43:41.847Z</time></trkpt><trkpt lat="42.658775" lon="-7.2359633"><ele>1171.5</ele><time>2026-04-15T08:43:42.847Z</time></trkpt><trkpt lat="42.65886" lon="-7.2359267"><ele>1170.0</ele><time>2026-04-15T08:43:43.847Z</time></trkpt><trkpt lat="42.6589667" lon="-7.235865"><ele>1168.5</ele><time>2026-04-15T08:43:44.848Z</time></trkpt><trkpt lat="42.6590783" lon="-7.2357933"><ele>1167.0</ele><time>2026-04-15T08:43:45.847Z</time></trkpt><trkpt lat="42.6591933" lon="-7.23573"><ele>1167.0</ele><time>2026-04-15T08:43:46.847Z</time></trkpt><trkpt lat="42.6593167" lon="-7.2356633"><ele>1167.0</ele><time>2026-04-15T08:43:47.848Z</time></trkpt><trkpt lat="42.6594317" lon="-7.2356"><ele>1167.0</ele><time>2026-04-15T08:43:48.847Z</time></trkpt><trkpt lat="42.6595433" lon="-7.235535"><ele>1167.0</ele><time>2026-04-15T08:43:49.847Z</time></trkpt><trkpt lat="42.659655" lon="-7.2354717"><ele>1172.25</ele><time>2026-04-15T08:43:50.848Z</time></trkpt><trkpt lat="42.65978" lon="-7.2354067"><ele>1177.5</ele><time>2026-04-15T08:43:51.848Z</time></trkpt><trkpt lat="42.6599033" lon="-7.2353617"><ele>1182.75</ele><time>2026-04-15T08:43:52.847Z</time></trkpt><trkpt lat="42.6600117" lon="-7.235335"><ele>1188.0</ele><time>2026-04-15T08:43:53.847Z</time></trkpt><trkpt lat="42.660115" lon="-7.2353183"><ele>1188.0</ele><time>2026-04-15T08:43:54.847Z</time></trkpt><trkpt lat="42.660215" lon="-7.2352967"><ele>1188.0</ele><time>2026-04-15T08:43:55.848Z</time></trkpt><trkpt lat="42.66032" lon="-7.23526"><ele>1188.0</ele><time>2026-04-15T08:43:56.847Z</time></trkpt><trkpt lat="42.660425" lon="-7.235215"><ele>1188.0</ele><time>2026-04-15T08:43:57.847Z</time></trkpt><trkpt lat="42.6605383" lon="-7.2351583"><ele>1188.0</ele><time>2026-04-15T08:43:58.847Z</time></trkpt><trkpt lat="42.6606517" lon="-7.235085"><ele>1185.0</ele><time>2026-04-15T08:43:59.848Z</time></trkpt><trkpt lat="42.6607617" lon="-7.2350083"><ele>1182.0</ele><time>2026-04-15T08:44:00.847Z</time></trkpt><trkpt lat="42.660865" lon="-7.2349417"><ele>1179.0</ele><time>2026-04-15T08:44:01.847Z</time></trkpt><trkpt lat="42.6609633" lon="-7.2348867"><ele>1176.0</ele><time>2026-04-15T08:44:02.848Z</time></trkpt><trkpt lat="42.6610483" lon="-7.234825"><ele>1173.0</ele><time>2026-04-15T08:44:03.847Z</time></trkpt><trkpt lat="42.66113" lon="-7.2347417"><ele>1169.4</ele><time>2026-04-15T08:44:04.847Z</time></trkpt><trkpt lat="42.661215" lon="-7.23464"><ele>1165.8</ele><time>2026-04-15T08:44:05.848Z</time></trkpt><trkpt lat="42.66129" lon="-7.2345333"><ele>1162.2</ele><time>2026-04-15T08:44:06.847Z</time></trkpt><trkpt lat="42.6613567" lon="-7.2344117"><ele>1158.6</ele><time>2026-04-15T08:44:07.847Z</time></trkpt><trkpt lat="42.6614133" lon="-7.2342917"><ele>1155.0</ele><time>2026-04-15T08:44:08.847Z</time></trkpt><trkpt lat="42.6614667" lon="-7.2341467"><ele>1155.0</ele><time>2026-04-15T08:44:09.847Z</time></trkpt><trkpt lat="42.66152" lon="-7.234"><ele>1155.0</ele><time>2026-04-15T08:44:10.847Z</time></trkpt><trkpt lat="42.6615683" lon="-7.23384"><ele>1155.0</ele><time>2026-04-15T08:44:11.847Z</time></trkpt><trkpt lat="42.661615" lon="-7.233665"><ele>1155.0</ele><time>2026-04-15T08:44:12.847Z</time></trkpt><trkpt lat="42.6616633" lon="-7.2335083"><ele>1158.5</ele><time>2026-04-15T08:44:13.848Z</time></trkpt><trkpt lat="42.6617167" lon="-7.2333517"><ele>1162.0</ele><time>2026-04-15T08:44:14.848Z</time></trkpt><trkpt lat="42.6617833" lon="-7.2331867"><ele>1165.5</ele><time>2026-04-15T08:44:15.848Z</time></trkpt><trkpt lat="42.6618467" lon="-7.2330317"><ele>1169.0</ele><time>2026-04-15T08:44:16.847Z</time></trkpt><trkpt lat="42.6619183" lon="-7.2328883"><ele>1163.5</ele><time>2026-04-15T08:44:17.847Z</time></trkpt><trkpt lat="42.662005" lon="-7.23276"><ele>1158.0</ele><time>2026-04-15T08:44:18.847Z</time></trkpt><trkpt lat="42.66209" lon="-7.2326317"><ele>1152.5</ele><time>2026-04-15T08:44:19.848Z</time></trkpt><trkpt lat="42.6621833" lon="-7.2325133"><ele>1147.0</ele><time>2026-04-15T08:44:20.847Z</time></trkpt><trkpt lat="42.6623017" lon="-7.23239"><ele>1152.0</ele><time>2026-04-15T08:44:21.847Z</time></trkpt><trkpt lat="42.6624333" lon="-7.23228"><ele>1157.0</ele><time>2026-04-15T08:44:22.848Z</time></trkpt><trkpt lat="42.6625433" lon="-7.2321817"><ele>1162.0</ele><time>2026-04-15T08:44:23.847Z</time></trkpt><trkpt lat="42.6626133" lon="-7.2321217"><ele>1167.0</ele><time>2026-04-15T08:44:24.848Z</time></trkpt><trkpt lat="42.6626767" lon="-7.2320667"><ele>1172.0</ele><time>2026-04-15T08:44:26.847Z</time></trkpt><trkpt lat="42.662605" lon="-7.23213"><ele>1172.0</ele><time>2026-04-15T08:44:32.848Z</time></trkpt><trkpt lat="42.6625467" lon="-7.2321733"><ele>1172.0</ele><time>2026-04-15T08:44:33.848Z</time></trkpt><trkpt lat="42.66249" lon="-7.2322133"><ele>1172.0</ele><time>2026-04-15T08:44:34.848Z</time></trkpt><trkpt lat="42.66244" lon="-7.2322717"><ele>1172.0</ele><time>2026-04-15T08:44:36.847Z</time></trkpt><trkpt lat="42.6625567" lon="-7.2322867"><ele>1172.0</ele><time>2026-04-15T08:44:39.847Z</time></trkpt><trkpt lat="42.6626217" lon="-7.2322683"><ele>1172.0</ele><time>2026-04-15T08:44:40.847Z</time></trkpt><trkpt lat="42.6626983" lon="-7.2322567"><ele>1167.4</ele><time>2026-04-15T08:44:41.847Z</time></trkpt><trkpt lat="42.6627883" lon="-7.2322567"><ele>1162.8000000000002</ele><time>2026-04-15T08:44:42.848Z</time></trkpt><trkpt lat="42.6629" lon="-7.232265"><ele>1158.2</ele><time>2026-04-15T08:44:43.847Z</time></trkpt><trkpt lat="42.6630167" lon="-7.2322667"><ele>1153.6000000000001</ele><time>2026-04-15T08:44:44.848Z</time></trkpt><trkpt lat="42.6631267" lon="-7.2322667"><ele>1149.0</ele><time>2026-04-15T08:44:45.848Z</time></trkpt><trkpt lat="42.6632383" lon="-7.232255"><ele>1149.0</ele><time>2026-04-15T08:44:46.847Z</time></trkpt><trkpt lat="42.6633383" lon="-7.2322583"><ele>1149.0</ele><time>2026-04-15T08:44:47.848Z</time></trkpt><trkpt lat="42.6634433" lon="-7.2322583"><ele>1149.0</ele><time>2026-04-15T08:44:48.847Z</time></trkpt><trkpt lat="42.6635317" lon="-7.2322567"><ele>1149.0</ele><time>2026-04-15T08:44:49.848Z</time></trkpt><trkpt lat="42.663625" lon="-7.2322633"><ele>1149.0</ele><time>2026-04-15T08:44:50.847Z</time></trkpt><trkpt lat="42.6637167" lon="-7.2322783"><ele>1144.4</ele><time>2026-04-15T08:44:51.847Z</time></trkpt><trkpt lat="42.6638067" lon="-7.2322967"><ele>1139.8000000000002</ele><time>2026-04-15T08:44:52.847Z</time></trkpt><trkpt lat="42.6639033" lon="-7.23232"><ele>1135.1999999999998</ele><time>2026-04-15T08:44:53.847Z</time></trkpt><trkpt lat="42.664" lon="-7.2323333"><ele>1130.6</ele><time>2026-04-15T08:44:54.848Z</time></trkpt><trkpt lat="42.6641" lon="-7.2323417"><ele>1126.0</ele><time>2026-04-15T08:44:55.847Z</time></trkpt><trkpt lat="42.664205" lon="-7.2323567"><ele>1119.5</ele><time>2026-04-15T08:44:56.847Z</time></trkpt><trkpt lat="42.6643267" lon="-7.23238"><ele>1113.0</ele><time>2026-04-15T08:44:57.847Z</time></trkpt><trkpt lat="42.664455" lon="-7.232405"><ele>1106.5</ele><time>2026-04-15T08:44:58.847Z</time></trkpt><trkpt lat="42.664575" lon="-7.23243"><ele>1100.0</ele><time>2026-04-15T08:44:59.848Z</time></trkpt><trkpt lat="42.66469" lon="-7.2324617"><ele>1096.6</ele><time>2026-04-15T08:45:00.848Z</time></trkpt><trkpt lat="42.6647983" lon="-7.2324867"><ele>1093.2</ele><time>2026-04-15T08:45:01.847Z</time></trkpt><trkpt lat="42.6649033" lon="-7.2324983"><ele>1089.8</ele><time>2026-04-15T08:45:02.848Z</time></trkpt><trkpt lat="42.6650083" lon="-7.2324967"><ele>1086.4</ele><time>2026-04-15T08:45:03.847Z</time></trkpt><trkpt lat="42.665105" lon="-7.2324917"><ele>1083.0</ele><time>2026-04-15T08:45:04.847Z</time></trkpt><trkpt lat="42.6652017" lon="-7.2324817"><ele>1076.5</ele><time>2026-04-15T08:45:05.848Z</time></trkpt><trkpt lat="42.665305" lon="-7.2324667"><ele>1070.0</ele><time>2026-04-15T08:45:06.848Z</time></trkpt><trkpt lat="42.6654" lon="-7.2324633"><ele>1063.5</ele><time>2026-04-15T08:45:07.847Z</time></trkpt><trkpt lat="42.6654883" lon="-7.23244"><ele>1057.0</ele><time>2026-04-15T08:45:08.848Z</time></trkpt><trkpt lat="42.6625567" lon="-7.2322867"><ele>1075.4</ele><time>2026-04-15T08:44:39.847Z</time></trkpt><trkpt lat="42.6626217" lon="-7.2322683"><ele>1093.8000000000002</ele><time>2026-04-15T08:44:40.847Z</time></trkpt><trkpt lat="42.6626983" lon="-7.2322567"><ele>1112.2</ele><time>2026-04-15T08:44:41.847Z</time></trkpt><trkpt lat="42.6627883" lon="-7.2322567"><ele>1130.6000000000001</ele><time>2026-04-15T08:44:42.848Z</time></trkpt><trkpt lat="42.6629" lon="-7.232265"><ele>1149.0</ele><time>2026-04-15T08:44:43.847Z</time></trkpt><trkpt lat="42.6630167" lon="-7.2322667"><ele>1149.0</ele><time>2026-04-15T08:44:44.848Z</time></trkpt><trkpt lat="42.6631267" lon="-7.2322667"><ele>1149.0</ele><time>2026-04-15T08:44:45.848Z</time></trkpt><trkpt lat="42.6632383" lon="-7.232255"><ele>1149.0</ele><time>2026-04-15T08:44:46.847Z</time></trkpt><trkpt lat="42.6633383" lon="-7.2322583"><ele>1149.0</ele><time>2026-04-15T08:44:47.848Z</time></trkpt><trkpt lat="42.6634433" lon="-7.2322583"><ele>1149.0</ele><time>2026-04-15T08:44:48.847Z</time></trkpt><trkpt lat="42.6635317" lon="-7.2322567"><ele>1144.4</ele><time>2026-04-15T08:44:49.848Z</time></trkpt><trkpt lat="42.663625" lon="-7.2322633"><ele>1139.8000000000002</ele><time>2026-04-15T08:44:50.847Z</time></trkpt><trkpt lat="42.6637167" lon="-7.2322783"><ele>1135.1999999999998</ele><time>2026-04-15T08:44:51.847Z</time></trkpt><trkpt lat="42.6638067" lon="-7.2322967"><ele>1130.6</ele><time>2026-04-15T08:44:52.847Z</time></trkpt><trkpt lat="42.6639033" lon="-7.23232"><ele>1126.0</ele><time>2026-04-15T08:44:53.847Z</time></trkpt><trkpt lat="42.664" lon="-7.2323333"><ele>1119.5</ele><time>2026-04-15T08:44:54.848Z</time></trkpt><trkpt lat="42.6641" lon="-7.2323417"><ele>1113.0</ele><time>2026-04-15T08:44:55.847Z</time></trkpt><trkpt lat="42.664205" lon="-7.2323567"><ele>1106.5</ele><time>2026-04-15T08:44:56.847Z</time></trkpt><trkpt lat="42.6643267" lon="-7.23238"><ele>1100.0</ele><time>2026-04-15T08:44:57.847Z</time></trkpt><trkpt lat="42.664455" lon="-7.232405"><ele>1095.75</ele><time>2026-04-15T08:44:58.847Z</time></trkpt><trkpt lat="42.664575" lon="-7.23243"><ele>1091.5</ele><time>2026-04-15T08:44:59.848Z</time></trkpt><trkpt lat="42.66469" lon="-7.2324617"><ele>1087.25</ele><time>2026-04-15T08:45:00.848Z</time></trkpt><trkpt lat="42.6647983" lon="-7.2324867"><ele>1083.0</ele><time>2026-04-15T08:45:01.847Z</time></trkpt><trkpt lat="42.6649033" lon="-7.2324983"><ele>1083.0</ele><time>2026-04-15T08:45:02.848Z</time></trkpt><trkpt lat="42.6650083" lon="-7.2324967"><ele>1083.0</ele><time>2026-04-15T08:45:03.847Z</time></trkpt><trkpt lat="42.665105" lon="-7.2324917"><ele>1083.0</ele><time>2026-04-15T08:45:04.847Z</time></trkpt><trkpt lat="42.6652017" lon="-7.2324817"><ele>1083.0</ele><time>2026-04-15T08:45:05.848Z</time></trkpt><trkpt lat="42.665305" lon="-7.2324667"><ele>1083.0</ele><time>2026-04-15T08:45:06.848Z</time></trkpt><trkpt lat="42.6654" lon="-7.2324633"><ele>1077.8</ele><time>2026-04-15T08:45:07.847Z</time></trkpt><trkpt lat="42.6654883" lon="-7.23244"><ele>1072.6</ele><time>2026-04-15T08:45:08.848Z</time></trkpt><trkpt lat="42.665575" lon="-7.232415"><ele>1067.4</ele><time>2026-04-15T08:45:09.847Z</time></trkpt><trkpt lat="42.6656583" lon="-7.2323817"><ele>1062.2</ele><time>2026-04-15T08:45:10.848Z</time></trkpt><trkpt lat="42.6657583" lon="-7.2323467"><ele>1057.0</ele><time>2026-04-15T08:45:11.848Z</time></trkpt><trkpt lat="42.66586" lon="-7.2323067"><ele>1055.4</ele><time>2026-04-15T08:45:12.848Z</time></trkpt><trkpt lat="42.66597" lon="-7.23227"><ele>1053.8000000000002</ele><time>2026-04-15T08:45:13.848Z</time></trkpt><trkpt lat="42.6660683" lon="-7.2322333"><ele>1052.2</ele><time>2026-04-15T08:45:14.848Z</time></trkpt><trkpt lat="42.666175" lon="-7.2321983"><ele>1050.6000000000001</ele><time>2026-04-15T08:45:15.847Z</time></trkpt><trkpt lat="42.66629" lon="-7.232175"><ele>1049.0</ele><time>2026-04-15T08:45:16.848Z</time></trkpt><trkpt lat="42.6663983" lon="-7.232135"><ele>1049.0</ele><time>2026-04-15T08:45:17.847Z</time></trkpt><trkpt lat="42.666495" lon="-7.2320733"><ele>1049.0</ele><time>2026-04-15T08:45:18.847Z</time></trkpt><trkpt lat="42.666585" lon="-7.2320183"><ele>1049.0</ele><time>2026-04-15T08:45:19.847Z</time></trkpt><trkpt lat="42.6666617" lon="-7.2319417"><ele>1049.0</ele><time>2026-04-15T08:45:20.847Z</time></trkpt><trkpt lat="42.66672" lon="-7.2318767"><ele>1049.0</ele><time>2026-04-15T08:45:21.847Z</time></trkpt><trkpt lat="42.6667583" lon="-7.2317933"><ele>1049.0</ele><time>2026-04-15T08:45:23.847Z</time></trkpt><trkpt lat="42.6667667" lon="-7.2316933"><ele>1049.0</ele><time>2026-04-15T08:45:26.848Z</time></trkpt><trkpt lat="42.6668267" lon="-7.2315433"><ele>1049.0</ele><time>2026-04-15T08:45:28.847Z</time></trkpt><trkpt lat="42.666865" lon="-7.23146"><ele>1049.0</ele><time>2026-04-15T08:45:29.847Z</time></trkpt><trkpt lat="42.6669083" lon="-7.2313433"><ele>1049.0</ele><time>2026-04-15T08:45:30.847Z</time></trkpt><trkpt lat="42.66695" lon="-7.2312283"><ele>1049.0</ele><time>2026-04-15T08:45:31.848Z</time></trkpt><trkpt lat="42.666995" lon="-7.2311317"><ele>1045.6666666666667</ele><time>2026-04-15T08:45:32.848Z</time></trkpt><trkpt lat="42.6670433" lon="-7.2310717"><ele>1042.3333333333335</ele><time>2026-04-15T08:45:33.849Z</time></trkpt><trkpt lat="42.6671067" lon="-7.2310317"><ele>1039.0</ele><time>2026-04-15T08:45:34.848Z</time></trkpt><trkpt lat="42.6671833" lon="-7.2310067"><ele>1035.6666666666667</ele><time>2026-04-15T08:45:35.848Z</time></trkpt><trkpt lat="42.667285" lon="-7.2310033"><ele>1032.3333333333333</ele><time>2026-04-15T08:45:36.849Z</time></trkpt><trkpt lat="42.66739" lon="-7.2310283"><ele>1029.0</ele><time>2026-04-15T08:45:37.848Z</time></trkpt><trkpt lat="42.6674983" lon="-7.23105"><ele>1029.0</ele><time>2026-04-15T08:45:38.848Z</time></trkpt><trkpt lat="42.667595" lon="-7.231065"><ele>1029.0</ele><time>2026-04-15T08:45:39.849Z</time></trkpt><trkpt lat="42.667685" lon="-7.2310783"><ele>1029.0</ele><time>2026-04-15T08:45:40.849Z</time></trkpt><trkpt lat="42.66777" lon="-7.2310933"><ele>1029.0</ele><time>2026-04-15T08:45:41.849Z</time></trkpt><trkpt lat="42.66785" lon="-7.2311117"><ele>1029.0</ele><time>2026-04-15T08:45:42.849Z</time></trkpt><trkpt lat="42.6679217" lon="-7.231145"><ele>1029.0</ele><time>2026-04-15T08:45:43.848Z</time></trkpt><trkpt lat="42.6679867" lon="-7.231185"><ele>1025.8</ele><time>2026-04-15T08:45:44.849Z</time></trkpt><trkpt lat="42.66805" lon="-7.23123"><ele>1022.6000000000001</ele><time>2026-04-15T08:45:45.849Z</time></trkpt><trkpt lat="42.66815" lon="-7.2313067"><ele>1019.4</ele><time>2026-04-15T08:45:47.848Z</time></trkpt><trkpt lat="42.668175" lon="-7.2314283"><ele>1016.2</ele><time>2026-04-15T08:45:50.849Z</time></trkpt><trkpt lat="42.6681533" lon="-7.2315567"><ele>1013.0</ele><time>2026-04-15T08:45:52.849Z</time></trkpt><trkpt lat="42.6681867" lon="-7.231735"><ele>1013.0</ele><time>2026-04-15T08:45:54.849Z</time></trkpt><trkpt lat="42.668185" lon="-7.2318783"><ele>1013.0</ele><time>2026-04-15T08:45:56.849Z</time></trkpt><trkpt lat="42.66807" lon="-7.2320133"><ele>1013.0</ele><time>2026-04-15T08:45:58.849Z</time></trkpt><trkpt lat="42.66801" lon="-7.2320983"><ele>1013.0</ele><time>2026-04-15T08:45:59.849Z</time></trkpt><trkpt lat="42.6679733" lon="-7.2321833"><ele>1013.0</ele><time>2026-04-15T08:46:00.849Z</time></trkpt><trkpt lat="42.6679383" lon="-7.2323333"><ele>1013.0</ele><time>2026-04-15T08:46:02.849Z</time></trkpt><trkpt lat="42.6679033" lon="-7.2324267"><ele>1013.0</ele><time>2026-04-15T08:46:03.848Z</time></trkpt><trkpt lat="42.6678667" lon="-7.23253"><ele>1013.0</ele><time>2026-04-15T08:46:04.848Z</time></trkpt><trkpt lat="42.6678417" lon="-7.2326283"><ele>1013.0</ele><time>2026-04-15T08:46:05.849Z</time></trkpt><trkpt lat="42.6678533" lon="-7.2327633"><ele>1013.0</ele><time>2026-04-15T08:46:07.849Z</time></trkpt><trkpt lat="42.667945" lon="-7.2328783"><ele>1013.0000000000001</ele><time>2026-04-15T08:46:09.849Z</time></trkpt><trkpt lat="42.66799" lon="-7.2329583"><ele>1013.0</ele><time>2026-04-15T08:46:10.848Z</time></trkpt><trkpt lat="42.66804" lon="-7.233055"><ele>1013.0</ele><time>2026-04-15T08:46:11.849Z</time></trkpt><trkpt lat="42.6680867" lon="-7.2331533"><ele>1013.0</ele><time>2026-04-15T08:46:12.849Z</time></trkpt><trkpt lat="42.668125" lon="-7.2332367"><ele>1013.0000000000001</ele><time>2026-04-15T08:46:13.849Z</time></trkpt><trkpt lat="42.6681667" lon="-7.2333417"><ele>1013.0</ele><time>2026-04-15T08:46:14.848Z</time></trkpt><trkpt lat="42.6682167" lon="-7.2334683"><ele>1013.4</ele><time>2026-04-15T08:46:15.849Z</time></trkpt><trkpt lat="42.668275" lon="-7.2335883"><ele>1013.8</ele><time>2026-04-15T08:46:16.848Z</time></trkpt><trkpt lat="42.6683433" lon="-7.2336933"><ele>1014.2</ele><time>2026-04-15T08:46:17.848Z</time></trkpt><trkpt lat="42.6684083" lon="-7.2338"><ele>1014.6</ele><time>2026-04-15T08:46:18.848Z</time></trkpt><trkpt lat="42.6684583" lon="-7.2339183"><ele>1015.0</ele><time>2026-04-15T08:46:19.848Z</time></trkpt><trkpt lat="42.668495" lon="-7.23404"><ele>1014.0</ele><time>2026-04-15T08:46:20.848Z</time></trkpt><trkpt lat="42.6685267" lon="-7.2341717"><ele>1013.0</ele><time>2026-04-15T08:46:21.849Z</time></trkpt><trkpt lat="42.668555" lon="-7.234305"><ele>1012.0</ele><time>2026-04-15T08:46:22.848Z</time></trkpt><trkpt lat="42.6685833" lon="-7.2344467"><ele>1011.0</ele><time>2026-04-15T08:46:23.849Z</time></trkpt><trkpt lat="42.668615" lon="-7.23457"><ele>1010.0</ele><time>2026-04-15T08:46:24.848Z</time></trkpt><trkpt lat="42.6686583" lon="-7.2346783"><ele>1007.8333333333334</ele><time>2026-04-15T08:46:25.849Z</time></trkpt><trkpt lat="42.6687083" lon="-7.2347783"><ele>1005.6666666666667</ele><time>2026-04-15T08:46:26.848Z</time></trkpt><trkpt lat="42.66875" lon="-7.2348717"><ele>1003.5</ele><time>2026-04-15T08:46:27.848Z</time></trkpt><trkpt lat="42.66878" lon="-7.2349683"><ele>1001.3333333333333</ele><time>2026-04-15T08:46:28.849Z</time></trkpt><trkpt lat="42.6688233" lon="-7.2350617"><ele>999.1666666666666</ele><time>2026-04-15T08:46:29.848Z</time></trkpt><trkpt lat="42.6688783" lon="-7.2351467"><ele>997.0</ele><time>2026-04-15T08:46:30.849Z</time></trkpt><trkpt lat="42.6689333" lon="-7.235235"><ele>995.0</ele><time>2026-04-15T08:46:31.849Z</time></trkpt><trkpt lat="42.6689983" lon="-7.23532"><ele>993.0</ele><time>2026-04-15T08:46:32.848Z</time></trkpt><trkpt lat="42.66906" lon="-7.2354117"><ele>991.0</ele><time>2026-04-15T08:46:33.849Z</time></trkpt><trkpt lat="42.66913" lon="-7.2354967"><ele>989.0</ele><time>2026-04-15T08:46:34.849Z</time></trkpt><trkpt lat="42.6692017" lon="-7.235575"><ele>987.0</ele><time>2026-04-15T08:46:35.849Z</time></trkpt><trkpt lat="42.6678417" lon="-7.2326283"><ele>992.2</ele><time>2026-04-15T08:46:05.849Z</time></trkpt><trkpt lat="42.6678533" lon="-7.2327633"><ele>997.4000000000001</ele><time>2026-04-15T08:46:07.849Z</time></trkpt><trkpt lat="42.667945" lon="-7.2328783"><ele>1002.5999999999999</ele><time>2026-04-15T08:46:09.849Z</time></trkpt><trkpt lat="42.66799" lon="-7.2329583"><ele>1007.8</ele><time>2026-04-15T08:46:10.848Z</time></trkpt><trkpt lat="42.66804" lon="-7.233055"><ele>1013.0</ele><time>2026-04-15T08:46:11.849Z</time></trkpt><trkpt lat="42.6680867" lon="-7.2331533"><ele>1013.4</ele><time>2026-04-15T08:46:12.849Z</time></trkpt><trkpt lat="42.668125" lon="-7.2332367"><ele>1013.8</ele><time>2026-04-15T08:46:13.849Z</time></trkpt><trkpt lat="42.6681667" lon="-7.2333417"><ele>1014.2</ele><time>2026-04-15T08:46:14.848Z</time></trkpt><trkpt lat="42.6682167" lon="-7.2334683"><ele>1014.6</ele><time>2026-04-15T08:46:15.849Z</time></trkpt><trkpt lat="42.668275" lon="-7.2335883"><ele>1015.0</ele><time>2026-04-15T08:46:16.848Z</time></trkpt><trkpt lat="42.6683433" lon="-7.2336933"><ele>1015.0</ele><time>2026-04-15T08:46:17.848Z</time></trkpt><trkpt lat="42.6684083" lon="-7.2338"><ele>1015.0</ele><time>2026-04-15T08:46:18.848Z</time></trkpt><trkpt lat="42.6684583" lon="-7.2339183"><ele>1015.0</ele><time>2026-04-15T08:46:19.848Z</time></trkpt><trkpt lat="42.668495" lon="-7.23404"><ele>1015.0</ele><time>2026-04-15T08:46:20.848Z</time></trkpt><trkpt lat="42.6685267" lon="-7.2341717"><ele>1015.0</ele><time>2026-04-15T08:46:21.849Z</time></trkpt><trkpt lat="42.668555" lon="-7.234305"><ele>1014.0</ele><time>2026-04-15T08:46:22.848Z</time></trkpt><trkpt lat="42.6685833" lon="-7.2344467"><ele>1013.0</ele><time>2026-04-15T08:46:23.849Z</time></trkpt><trkpt lat="42.668615" lon="-7.23457"><ele>1012.0</ele><time>2026-04-15T08:46:24.848Z</time></trkpt><trkpt lat="42.6686583" lon="-7.2346783"><ele>1011.0</ele><time>2026-04-15T08:46:25.849Z</time></trkpt><trkpt lat="42.6687083" lon="-7.2347783"><ele>1010.0</ele><time>2026-04-15T08:46:26.848Z</time></trkpt><trkpt lat="42.66875" lon="-7.2348717"><ele>1006.1666666666667</ele><time>2026-04-15T08:46:27.848Z</time></trkpt><trkpt lat="42.66878" lon="-7.2349683"><ele>1002.3333333333334</ele><time>2026-04-15T08:46:28.849Z</time></trkpt><trkpt lat="42.6688233" lon="-7.2350617"><ele>998.5</ele><time>2026-04-15T08:46:29.848Z</time></trkpt><trkpt lat="42.6688783" lon="-7.2351467"><ele>994.6666666666667</ele><time>2026-04-15T08:46:30.849Z</time></trkpt><trkpt lat="42.6689333" lon="-7.235235"><ele>990.8333333333334</ele><time>2026-04-15T08:46:31.849Z</time></trkpt><trkpt lat="42.6689983" lon="-7.23532"><ele>987.0</ele><time>2026-04-15T08:46:32.848Z</time></trkpt><trkpt lat="42.66906" lon="-7.2354117"><ele>987.0</ele><time>2026-04-15T08:46:33.849Z</time></trkpt><trkpt lat="42.66913" lon="-7.2354967"><ele>987.0</ele><time>2026-04-15T08:46:34.849Z</time></trkpt><trkpt lat="42.6692017" lon="-7.235575"><ele>987.0</ele><time>2026-04-15T08:46:35.849Z</time></trkpt><trkpt lat="42.6692667" lon="-7.2356483"><ele>987.0</ele><time>2026-04-15T08:46:36.848Z</time></trkpt><trkpt lat="42.6693317" lon="-7.235715"><ele>987.0</ele><time>2026-04-15T08:46:37.848Z</time></trkpt><trkpt lat="42.6693833" lon="-7.2357783"><ele>987.0</ele><time>2026-04-15T08:46:38.849Z</time></trkpt><trkpt lat="42.6694283" lon="-7.2358617"><ele>980.1666666666666</ele><time>2026-04-15T08:46:39.848Z</time></trkpt><trkpt lat="42.6694817" lon="-7.2359433"><ele>973.3333333333333</ele><time>2026-04-15T08:46:40.849Z</time></trkpt><trkpt lat="42.669535" lon="-7.2360367"><ele>966.5</ele><time>2026-04-15T08:46:41.848Z</time></trkpt><trkpt lat="42.66959" lon="-7.2361217"><ele>959.6666666666666</ele><time>2026-04-15T08:46:42.849Z</time></trkpt><trkpt lat="42.6696483" lon="-7.23621"><ele>952.8333333333333</ele><time>2026-04-15T08:46:43.849Z</time></trkpt><trkpt lat="42.66971" lon="-7.2363117"><ele>946.0</ele><time>2026-04-15T08:46:44.849Z</time></trkpt><trkpt lat="42.6697717" lon="-7.2364183"><ele>943.6666666666666</ele><time>2026-04-15T08:46:45.848Z</time></trkpt><trkpt lat="42.6698217" lon="-7.2365183"><ele>941.3333333333333</ele><time>2026-04-15T08:46:46.848Z</time></trkpt><trkpt lat="42.6698617" lon="-7.236605"><ele>939.0</ele><time>2026-04-15T08:46:47.849Z</time></trkpt><trkpt lat="42.6698867" lon="-7.2367067"><ele>936.6666666666667</ele><time>2026-04-15T08:46:49.848Z</time></trkpt><trkpt lat="42.6698567" lon="-7.2368167"><ele>934.3333333333334</ele><time>2026-04-15T08:46:52.848Z</time></trkpt><trkpt lat="42.6697933" lon="-7.236905"><ele>932.0</ele><time>2026-04-15T08:46:54.849Z</time></trkpt><trkpt lat="42.669755" lon="-7.2370333"><ele>932.0</ele><time>2026-04-15T08:46:56.849Z</time></trkpt><trkpt lat="42.6697117" lon="-7.2371933"><ele>932.0</ele><time>2026-04-15T08:46:58.848Z</time></trkpt><trkpt lat="42.66967" lon="-7.2372867"><ele>932.0</ele><time>2026-04-15T08:46:59.849Z</time></trkpt><trkpt lat="42.6696233" lon="-7.237365"><ele>932.0</ele><time>2026-04-15T08:47:00.848Z</time></trkpt><trkpt lat="42.6695283" lon="-7.2374317"><ele>932.0</ele><time>2026-04-15T08:47:02.849Z</time></trkpt><trkpt lat="42.6694083" lon="-7.2374583"><ele>929.8</ele><time>2026-04-15T08:47:04.848Z</time></trkpt><trkpt lat="42.669335" lon="-7.2374733"><ele>927.6</ele><time>2026-04-15T08:47:05.848Z</time></trkpt><trkpt lat="42.669245" lon="-7.237495"><ele>925.3999999999999</ele><time>2026-04-15T08:47:06.849Z</time></trkpt><trkpt lat="42.6691517" lon="-7.2375217"><ele>923.1999999999999</ele><time>2026-04-15T08:47:07.849Z</time></trkpt><trkpt lat="42.6690583" lon="-7.2375433"><ele>921.0</ele><time>2026-04-15T08:47:08.849Z</time></trkpt><trkpt lat="42.6689633" lon="-7.2375783"><ele>921.0</ele><time>2026-04-15T08:47:09.849Z</time></trkpt><trkpt lat="42.6688867" lon="-7.2376167"><ele>921.0</ele><time>2026-04-15T08:47:10.848Z</time></trkpt><trkpt lat="42.6688267" lon="-7.23766"><ele>921.0</ele><time>2026-04-15T08:47:11.849Z</time></trkpt><trkpt lat="42.668775" lon="-7.2377133"><ele>921.0</ele><time>2026-04-15T08:47:12.849Z</time></trkpt><trkpt lat="42.6687167" lon="-7.23776"><ele>921.0</ele><time>2026-04-15T08:47:13.849Z</time></trkpt><trkpt lat="42.668645" lon="-7.2378067"><ele>921.0</ele><time>2026-04-15T08:47:14.849Z</time></trkpt><trkpt lat="42.6685633" lon="-7.2378517"><ele>920.3333333333334</ele><time>2026-04-15T08:47:15.848Z</time></trkpt><trkpt lat="42.66848" lon="-7.2378983"><ele>919.6666666666667</ele><time>2026-04-15T08:47:16.848Z</time></trkpt><trkpt lat="42.6684033" lon="-7.2379417"><ele>919.0</ele><time>2026-04-15T08:47:17.849Z</time></trkpt><trkpt lat="42.668325" lon="-7.23798"><ele>918.3333333333334</ele><time>2026-04-15T08:47:18.848Z</time></trkpt><trkpt lat="42.668245" lon="-7.23802"><ele>917.6666666666667</ele><time>2026-04-15T08:47:19.848Z</time></trkpt><trkpt lat="42.668165" lon="-7.238045"><ele>917.0</ele><time>2026-04-15T08:47:20.848Z</time></trkpt><trkpt lat="42.6680883" lon="-7.23808"><ele>917.0000000000001</ele><time>2026-04-15T08:47:21.848Z</time></trkpt><trkpt lat="42.6680167" lon="-7.2381117"><ele>917.0</ele><time>2026-04-15T08:47:22.848Z</time></trkpt><trkpt lat="42.66794" lon="-7.2381533"><ele>917.0</ele><time>2026-04-15T08:47:23.849Z</time></trkpt><trkpt lat="42.6678633" lon="-7.2381967"><ele>917.0</ele><time>2026-04-15T08:47:24.848Z</time></trkpt><trkpt lat="42.6677917" lon="-7.238235"><ele>917.0000000000001</ele><time>2026-04-15T08:47:25.848Z</time></trkpt><trkpt lat="42.6677267" lon="-7.2382833"><ele>917.0</ele><time>2026-04-15T08:47:26.848Z</time></trkpt><trkpt lat="42.6676633" lon="-7.23833"><ele>910.8333333333334</ele><time>2026-04-15T08:47:27.849Z</time></trkpt><trkpt lat="42.6676017" lon="-7.238365"><ele>904.6666666666667</ele><time>2026-04-15T08:47:28.848Z</time></trkpt><trkpt lat="42.6675417" lon="-7.2383917"><ele>898.5</ele><time>2026-04-15T08:47:29.848Z</time></trkpt><trkpt lat="42.6674783" lon="-7.238415"><ele>892.3333333333333</ele><time>2026-04-15T08:47:30.849Z</time></trkpt><trkpt lat="42.6673817" lon="-7.2384833"><ele>886.1666666666666</ele><time>2026-04-15T08:47:32.849Z</time></trkpt><trkpt lat="42.6673583" lon="-7.238585"><ele>880.0</ele><time>2026-04-15T08:47:34.849Z</time></trkpt><trkpt lat="42.6674083" lon="-7.23869"><ele>879.9999999999999</ele><time>2026-04-15T08:47:36.849Z</time></trkpt><trkpt lat="42.6674717" lon="-7.2387367"><ele>880.0</ele><time>2026-04-15T08:47:37.848Z</time></trkpt><trkpt lat="42.667585" lon="-7.2388083"><ele>880.0</ele><time>2026-04-15T08:47:39.849Z</time></trkpt><trkpt lat="42.6676483" lon="-7.238835"><ele>880.0</ele><time>2026-04-15T08:47:40.848Z</time></trkpt><trkpt lat="42.6677117" lon="-7.23886"><ele>879.9999999999999</ele><time>2026-04-15T08:47:41.848Z</time></trkpt><trkpt lat="42.6677767" lon="-7.2388867"><ele>880.0</ele><time>2026-04-15T08:47:42.849Z</time></trkpt><trkpt lat="42.6678467" lon="-7.23893"><ele>876.8333333333333</ele><time>2026-04-15T08:47:43.848Z</time></trkpt><trkpt lat="42.667925" lon="-7.2389833"><ele>873.6666666666666</ele><time>2026-04-15T08:47:44.848Z</time></trkpt><trkpt lat="42.6680033" lon="-7.23906"><ele>870.5</ele><time>2026-04-15T08:47:45.848Z</time></trkpt><trkpt lat="42.6680733" lon="-7.2391383"><ele>867.3333333333333</ele><time>2026-04-15T08:47:46.848Z</time></trkpt><trkpt lat="42.6681317" lon="-7.2392133"><ele>864.1666666666666</ele><time>2026-04-15T08:47:47.849Z</time></trkpt><trkpt lat="42.6681817" lon="-7.2392783"><ele>861.0</ele><time>2026-04-15T08:47:48.848Z</time></trkpt><trkpt lat="42.668235" lon="-7.23934"><ele>861.0</ele><time>2026-04-15T08:47:49.849Z</time></trkpt><trkpt lat="42.6683317" lon="-7.2394433"><ele>861.0</ele><time>2026-04-15T08:47:51.848Z</time></trkpt><trkpt lat="42.6683867" lon="-7.2394983"><ele>861.0</ele><time>2026-04-15T08:47:52.848Z</time></trkpt><trkpt lat="42.6684383" lon="-7.2395633"><ele>861.0</ele><time>2026-04-15T08:47:53.848Z</time></trkpt><trkpt lat="42.668495" lon="-7.2396483"><ele>861.0</ele><time>2026-04-15T08:47:54.849Z</time></trkpt><trkpt lat="42.6685567" lon="-7.239735"><ele>861.0</ele><time>2026-04-15T08:47:55.849Z</time></trkpt><trkpt lat="42.6686233" lon="-7.23981"><ele>864.8</ele><time>2026-04-15T08:47:56.848Z</time></trkpt><trkpt lat="42.66869" lon="-7.2398583"><ele>868.5999999999999</ele><time>2026-04-15T08:47:57.849Z</time></trkpt><trkpt lat="42.6688" lon="-7.239865"><ele>872.4</ele><time>2026-04-15T08:47:59.848Z</time></trkpt><trkpt lat="42.6689367" lon="-7.2398483"><ele>876.2</ele><time>2026-04-15T08:48:01.849Z</time></trkpt><trkpt lat="42.669045" lon="-7.2398333"><ele>880.0</ele><time>2026-04-15T08:48:02.848Z</time></trkpt><trkpt lat="42.6673817" lon="-7.2384833"><ele>879.9999999999999</ele><time>2026-04-15T08:47:32.849Z</time></trkpt><trkpt lat="42.6673583" lon="-7.238585"><ele>880.0</ele><time>2026-04-15T08:47:34.849Z</time></trkpt><trkpt lat="42.6674083" lon="-7.23869"><ele>880.0</ele><time>2026-04-15T08:47:36.849Z</time></trkpt><trkpt lat="42.6674717" lon="-7.2387367"><ele>880.0</ele><time>2026-04-15T08:47:37.848Z</time></trkpt><trkpt lat="42.667585" lon="-7.2388083"><ele>879.9999999999999</ele><time>2026-04-15T08:47:39.849Z</time></trkpt><trkpt lat="42.6676483" lon="-7.238835"><ele>880.0</ele><time>2026-04-15T08:47:40.848Z</time></trkpt><trkpt lat="42.6677117" lon="-7.23886"><ele>879.9999999999999</ele><time>2026-04-15T08:47:41.848Z</time></trkpt><trkpt lat="42.6677767" lon="-7.2388867"><ele>880.0</ele><time>2026-04-15T08:47:42.849Z</time></trkpt><trkpt lat="42.6678467" lon="-7.23893"><ele>880.0</ele><time>2026-04-15T08:47:43.848Z</time></trkpt><trkpt lat="42.667925" lon="-7.2389833"><ele>880.0</ele><time>2026-04-15T08:47:44.848Z</time></trkpt><trkpt lat="42.6680033" lon="-7.23906"><ele>879.9999999999999</ele><time>2026-04-15T08:47:45.848Z</time></trkpt><trkpt lat="42.6680733" lon="-7.2391383"><ele>880.0</ele><time>2026-04-15T08:47:46.848Z</time></trkpt><trkpt lat="42.6681317" lon="-7.2392133"><ele>876.8333333333333</ele><time>2026-04-15T08:47:47.849Z</time></trkpt><trkpt lat="42.6681817" lon="-7.2392783"><ele>873.6666666666666</ele><time>2026-04-15T08:47:48.848Z</time></trkpt><trkpt lat="42.668235" lon="-7.23934"><ele>870.5</ele><time>2026-04-15T08:47:49.849Z</time></trkpt><trkpt lat="42.6683317" lon="-7.2394433"><ele>867.3333333333333</ele><time>2026-04-15T08:47:51.848Z</time></trkpt><trkpt lat="42.6683867" lon="-7.2394983"><ele>864.1666666666666</ele><time>2026-04-15T08:47:52.848Z</time></trkpt><trkpt lat="42.6684383" lon="-7.2395633"><ele>861.0</ele><time>2026-04-15T08:47:53.848Z</time></trkpt><trkpt lat="42.668495" lon="-7.2396483"><ele>861.0</ele><time>2026-04-15T08:47:54.849Z</time></trkpt><trkpt lat="42.6685567" lon="-7.239735"><ele>860.9999999999999</ele><time>2026-04-15T08:47:55.849Z</time></trkpt><trkpt lat="42.6686233" lon="-7.23981"><ele>860.9999999999999</ele><time>2026-04-15T08:47:56.848Z</time></trkpt><trkpt lat="42.66869" lon="-7.2398583"><ele>861.0</ele><time>2026-04-15T08:47:57.849Z</time></trkpt><trkpt lat="42.6688" lon="-7.239865"><ele>861.0</ele><time>2026-04-15T08:47:59.848Z</time></trkpt><trkpt lat="42.6689367" lon="-7.2398483"><ele>854.4</ele><time>2026-04-15T08:48:01.849Z</time></trkpt><trkpt lat="42.669045" lon="-7.2398333"><ele>847.8</ele><time>2026-04-15T08:48:02.848Z</time></trkpt><trkpt lat="42.6691517" lon="-7.2398217"><ele>841.1999999999999</ele><time>2026-04-15T08:48:03.849Z</time></trkpt><trkpt lat="42.6692583" lon="-7.23982"><ele>834.5999999999999</ele><time>2026-04-15T08:48:04.849Z</time></trkpt><trkpt lat="42.6693583" lon="-7.2398333"><ele>828.0</ele><time>2026-04-15T08:48:05.848Z</time></trkpt><trkpt lat="42.66946" lon="-7.2398633"><ele>826.2</ele><time>2026-04-15T08:48:06.849Z</time></trkpt><trkpt lat="42.6695483" lon="-7.239885"><ele>824.4</ele><time>2026-04-15T08:48:07.849Z</time></trkpt><trkpt lat="42.6696383" lon="-7.2398983"><ele>822.6</ele><time>2026-04-15T08:48:08.849Z</time></trkpt><trkpt lat="42.6697233" lon="-7.2399167"><ele>820.8000000000001</ele><time>2026-04-15T08:48:09.849Z</time></trkpt><trkpt lat="42.6698183" lon="-7.23996"><ele>819.0</ele><time>2026-04-15T08:48:10.848Z</time></trkpt><trkpt lat="42.66992" lon="-7.2400183"><ele>819.0</ele><time>2026-04-15T08:48:11.849Z</time></trkpt><trkpt lat="42.67004" lon="-7.240095"><ele>819.0</ele><time>2026-04-15T08:48:12.849Z</time></trkpt><trkpt lat="42.6701617" lon="-7.2401683"><ele>819.0</ele><time>2026-04-15T08:48:13.848Z</time></trkpt><trkpt lat="42.6702767" lon="-7.2402433"><ele>819.0</ele><time>2026-04-15T08:48:14.849Z</time></trkpt><trkpt lat="42.670385" lon="-7.24031"><ele>819.0</ele><time>2026-04-15T08:48:15.849Z</time></trkpt><trkpt lat="42.67049" lon="-7.2403733"><ele>819.0</ele><time>2026-04-15T08:48:16.849Z</time></trkpt><trkpt lat="42.6705967" lon="-7.2404383"><ele>819.0</ele><time>2026-04-15T08:48:17.849Z</time></trkpt><trkpt lat="42.6707" lon="-7.2405033"><ele>819.0</ele><time>2026-04-15T08:48:18.848Z</time></trkpt><trkpt lat="42.6707967" lon="-7.240575"><ele>813.8000000000001</ele><time>2026-04-15T08:48:19.848Z</time></trkpt><trkpt lat="42.6708933" lon="-7.240645"><ele>808.6</ele><time>2026-04-15T08:48:20.848Z</time></trkpt><trkpt lat="42.6709817" lon="-7.2407183"><ele>803.4</ele><time>2026-04-15T08:48:21.849Z</time></trkpt><trkpt lat="42.6710733" lon="-7.2407617"><ele>798.2</ele><time>2026-04-15T08:48:22.849Z</time></trkpt><trkpt lat="42.6711683" lon="-7.2407833"><ele>793.0</ele><time>2026-04-15T08:48:23.849Z</time></trkpt><trkpt lat="42.67126" lon="-7.2407917"><ele>792.8</ele><time>2026-04-15T08:48:24.848Z</time></trkpt><trkpt lat="42.67136" lon="-7.2408017"><ele>792.5999999999999</ele><time>2026-04-15T08:48:25.849Z</time></trkpt><trkpt lat="42.671455" lon="-7.2408133"><ele>792.4000000000001</ele><time>2026-04-15T08:48:26.849Z</time></trkpt><trkpt lat="42.67155" lon="-7.24083"><ele>792.2</ele><time>2026-04-15T08:48:27.848Z</time></trkpt><trkpt lat="42.671645" lon="-7.2408533"><ele>792.0</ele><time>2026-04-15T08:48:28.848Z</time></trkpt><trkpt lat="42.6717467" lon="-7.2408783"><ele>792.0</ele><time>2026-04-15T08:48:29.849Z</time></trkpt><trkpt lat="42.6718467" lon="-7.240905"><ele>792.0</ele><time>2026-04-15T08:48:30.848Z</time></trkpt><trkpt lat="42.6719417" lon="-7.2409233"><ele>792.0</ele><time>2026-04-15T08:48:31.849Z</time></trkpt><trkpt lat="42.6720333" lon="-7.24095"><ele>792.0</ele><time>2026-04-15T08:48:32.848Z</time></trkpt><trkpt lat="42.6721133" lon="-7.2409883"><ele>792.0</ele><time>2026-04-15T08:48:33.849Z</time></trkpt><trkpt lat="42.6721933" lon="-7.24104"><ele>790.8333333333334</ele><time>2026-04-15T08:48:34.849Z</time></trkpt><trkpt lat="42.6722667" lon="-7.2411117"><ele>789.6666666666667</ele><time>2026-04-15T08:48:35.849Z</time></trkpt><trkpt lat="42.6723467" lon="-7.2411833"><ele>788.5</ele><time>2026-04-15T08:48:36.849Z</time></trkpt><trkpt lat="42.6724183" lon="-7.2412483"><ele>787.3333333333334</ele><time>2026-04-15T08:48:37.848Z</time></trkpt><trkpt lat="42.6724917" lon="-7.2413167"><ele>786.1666666666667</ele><time>2026-04-15T08:48:38.848Z</time></trkpt><trkpt lat="42.6725617" lon="-7.2413833"><ele>785.0</ele><time>2026-04-15T08:48:39.849Z</time></trkpt><trkpt lat="42.6726383" lon="-7.2414417"><ele>780.5000000000001</ele><time>2026-04-15T08:48:40.849Z</time></trkpt><trkpt lat="42.6727183" lon="-7.2414967"><ele>776.0</ele><time>2026-04-15T08:48:41.849Z</time></trkpt><trkpt lat="42.6727983" lon="-7.2415267"><ele>771.5</ele><time>2026-04-15T08:48:42.848Z</time></trkpt><trkpt lat="42.6728783" lon="-7.24155"><ele>767.0</ele><time>2026-04-15T08:48:43.848Z</time></trkpt><trkpt lat="42.6729517" lon="-7.2415667"><ele>762.5</ele><time>2026-04-15T08:48:44.849Z</time></trkpt><trkpt lat="42.6730233" lon="-7.24158"><ele>758.0</ele><time>2026-04-15T08:48:45.848Z</time></trkpt><trkpt lat="42.6731133" lon="-7.2416067"><ele>757.1666666666666</ele><time>2026-04-15T08:48:47.848Z</time></trkpt><trkpt lat="42.6731767" lon="-7.2416383"><ele>756.3333333333333</ele><time>2026-04-15T08:48:49.849Z</time></trkpt><trkpt lat="42.6732767" lon="-7.2416883"><ele>755.5</ele><time>2026-04-15T08:48:51.848Z</time></trkpt><trkpt lat="42.6733817" lon="-7.2417367"><ele>754.6666666666666</ele><time>2026-04-15T08:48:53.848Z</time></trkpt><trkpt lat="42.6734617" lon="-7.2417533"><ele>753.8333333333334</ele><time>2026-04-15T08:48:55.848Z</time></trkpt><trkpt lat="42.673535" lon="-7.2417717"><ele>753.0</ele><time>2026-04-15T08:49:09.849Z</time></trkpt><trkpt lat="42.67361" lon="-7.2418083"><ele>751.3333333333334</ele><time>2026-04-15T08:49:11.848Z</time></trkpt><trkpt lat="42.67367" lon="-7.2418367"><ele>749.6666666666666</ele><time>2026-04-15T08:49:13.848Z</time></trkpt><trkpt lat="42.6737433" lon="-7.2418383"><ele>748.0</ele><time>2026-04-15T08:49:15.849Z</time></trkpt><trkpt lat="42.673835" lon="-7.241875"><ele>746.3333333333333</ele><time>2026-04-15T08:49:17.848Z</time></trkpt><trkpt lat="42.6739467" lon="-7.2418967"><ele>744.6666666666666</ele><time>2026-04-15T08:49:19.848Z</time></trkpt><trkpt lat="42.674035" lon="-7.24184"><ele>743.0</ele><time>2026-04-15T08:49:21.849Z</time></trkpt><trkpt lat="42.67408" lon="-7.2417533"><ele>743.0</ele><time>2026-04-15T08:49:23.848Z</time></trkpt><trkpt lat="42.6740333" lon="-7.2418267"><ele>743.0</ele><time>2026-04-15T08:49:37.849Z</time></trkpt><trkpt lat="42.6739433" lon="-7.2419033"><ele>743.0</ele><time>2026-04-15T08:49:39.849Z</time></trkpt><trkpt lat="42.673535" lon="-7.2417717"><ele>743.0</ele><time>2026-04-15T08:49:09.849Z</time></trkpt><trkpt lat="42.67361" lon="-7.2418083"><ele>743.0</ele><time>2026-04-15T08:49:11.848Z</time></trkpt><trkpt lat="42.67367" lon="-7.2418367"><ele>743.0</ele><time>2026-04-15T08:49:13.848Z</time></trkpt><trkpt lat="42.6737433" lon="-7.2418383"><ele>743.0</ele><time>2026-04-15T08:49:15.849Z</time></trkpt><trkpt lat="42.673835" lon="-7.241875"><ele>743.0</ele><time>2026-04-15T08:49:17.848Z</time></trkpt><trkpt lat="42.6739467" lon="-7.2418967"><ele>743.0</ele><time>2026-04-15T08:49:19.848Z</time></trkpt><trkpt lat="42.674035" lon="-7.24184"><ele>743.0</ele><time>2026-04-15T08:49:21.849Z</time></trkpt><trkpt lat="42.67408" lon="-7.2417533"><ele>743.0</ele><time>2026-04-15T08:49:23.848Z</time></trkpt><trkpt lat="42.6740333" lon="-7.2418267"><ele>743.0</ele><time>2026-04-15T08:49:37.849Z</time></trkpt><trkpt lat="42.6739433" lon="-7.2419033"><ele>743.0</ele><time>2026-04-15T08:49:39.849Z</time></trkpt><trkpt lat="42.6738367" lon="-7.2418967"><ele>743.0</ele><time>2026-04-15T08:49:41.848Z</time></trkpt><trkpt lat="42.6737783" lon="-7.24186"><ele>743.0</ele><time>2026-04-15T08:49:42.849Z</time></trkpt><trkpt lat="42.6736633" lon="-7.24182"><ele>743.0</ele><time>2026-04-15T08:49:44.849Z</time></trkpt><trkpt lat="42.6735717" lon="-7.2417817"><ele>743.0</ele><time>2026-04-15T08:49:46.848Z</time></trkpt><trkpt lat="42.6735333" lon="-7.2417133"><ele>743.0</ele><time>2026-04-15T08:49:48.848Z</time></trkpt><trkpt lat="42.6735633" lon="-7.241625"><ele>743.0</ele><time>2026-04-15T08:49:50.849Z</time></trkpt><trkpt lat="42.6736367" lon="-7.24154"><ele>743.0</ele><time>2026-04-15T08:49:52.849Z</time></trkpt><trkpt lat="42.6736633" lon="-7.241455"><ele>743.0</ele><time>2026-04-15T08:49:54.848Z</time></trkpt><trkpt lat="42.6737133" lon="-7.241375"><ele>742.5999999999999</ele><time>2026-04-15T08:50:02.848Z</time></trkpt><trkpt lat="42.6737717" lon="-7.241265"><ele>742.1999999999999</ele><time>2026-04-15T08:50:03.848Z</time></trkpt><trkpt lat="42.6738167" lon="-7.241145"><ele>741.8</ele><time>2026-04-15T08:50:04.849Z</time></trkpt><trkpt lat="42.673845" lon="-7.2410167"><ele>741.4</ele><time>2026-04-15T08:50:05.849Z</time></trkpt><trkpt lat="42.6738483" lon="-7.24088"><ele>741.0</ele><time>2026-04-15T08:50:06.849Z</time></trkpt><trkpt lat="42.6738317" lon="-7.240755"><ele>741.0</ele><time>2026-04-15T08:50:07.849Z</time></trkpt><trkpt lat="42.6738033" lon="-7.2406367"><ele>741.0</ele><time>2026-04-15T08:50:08.849Z</time></trkpt><trkpt lat="42.67377" lon="-7.2405183"><ele>741.0</ele><time>2026-04-15T08:50:09.848Z</time></trkpt><trkpt lat="42.6737367" lon="-7.2403983"><ele>741.0</ele><time>2026-04-15T08:50:10.848Z</time></trkpt><trkpt lat="42.6737" lon="-7.24028"><ele>741.0</ele><time>2026-04-15T08:50:11.849Z</time></trkpt><trkpt lat="42.6736717" lon="-7.240165"><ele>743.6666666666666</ele><time>2026-04-15T08:50:12.848Z</time></trkpt><trkpt lat="42.673645" lon="-7.2400483"><ele>746.3333333333334</ele><time>2026-04-15T08:50:13.848Z</time></trkpt><trkpt lat="42.67362" lon="-7.23994"><ele>749.0</ele><time>2026-04-15T08:50:14.848Z</time></trkpt><trkpt lat="42.673595" lon="-7.2398367"><ele>751.6666666666667</ele><time>2026-04-15T08:50:15.848Z</time></trkpt><trkpt lat="42.6735633" lon="-7.2397417"><ele>754.3333333333334</ele><time>2026-04-15T08:50:16.848Z</time></trkpt><trkpt lat="42.6735383" lon="-7.239655"><ele>757.0</ele><time>2026-04-15T08:50:17.849Z</time></trkpt><trkpt lat="42.6735033" lon="-7.2395117"><ele>757.0</ele><time>2026-04-15T08:50:19.848Z</time></trkpt><trkpt lat="42.6734917" lon="-7.2394"><ele>757.0</ele><time>2026-04-15T08:50:21.849Z</time></trkpt><trkpt lat="42.6734833" lon="-7.2392533"><ele>757.0</ele><time>2026-04-15T08:50:23.849Z</time></trkpt><trkpt lat="42.673475" lon="-7.2391483"><ele>757.0</ele><time>2026-04-15T08:50:24.848Z</time></trkpt><trkpt lat="42.67346" lon="-7.23902"><ele>757.0</ele><time>2026-04-15T08:50:25.849Z</time></trkpt><trkpt lat="42.6734617" lon="-7.238875"><ele>755.5</ele><time>2026-04-15T08:50:26.848Z</time></trkpt><trkpt lat="42.6734567" lon="-7.2387333"><ele>754.0</ele><time>2026-04-15T08:50:27.848Z</time></trkpt><trkpt lat="42.6734883" lon="-7.23859"><ele>752.5</ele><time>2026-04-15T08:50:28.849Z</time></trkpt><trkpt lat="42.6735317" lon="-7.23844"><ele>751.0</ele><time>2026-04-15T08:50:29.849Z</time></trkpt><trkpt lat="42.67358" lon="-7.238295"><ele>750.0</ele><time>2026-04-15T08:50:30.849Z</time></trkpt><trkpt lat="42.6736233" lon="-7.238155"><ele>749.0</ele><time>2026-04-15T08:50:31.849Z</time></trkpt><trkpt lat="42.6736467" lon="-7.2380233"><ele>748.0</ele><time>2026-04-15T08:50:32.848Z</time></trkpt><trkpt lat="42.6736583" lon="-7.237885"><ele>747.0</ele><time>2026-04-15T08:50:33.849Z</time></trkpt><trkpt lat="42.6736367" lon="-7.2377483"><ele>746.0</ele><time>2026-04-15T08:50:34.849Z</time></trkpt><trkpt lat="42.67359" lon="-7.237615"><ele>746.0</ele><time>2026-04-15T08:50:35.848Z</time></trkpt><trkpt lat="42.6735317" lon="-7.2374817"><ele>746.0</ele><time>2026-04-15T08:50:36.848Z</time></trkpt><trkpt lat="42.67347" lon="-7.2373517"><ele>746.0</ele><time>2026-04-15T08:50:37.849Z</time></trkpt><trkpt lat="42.6734" lon="-7.2372333"><ele>746.0</ele><time>2026-04-15T08:50:38.849Z</time></trkpt><trkpt lat="42.6733217" lon="-7.2371267"><ele>746.1999999999999</ele><time>2026-04-15T08:50:39.849Z</time></trkpt><trkpt lat="42.6732417" lon="-7.23703"><ele>746.4</ele><time>2026-04-15T08:50:40.849Z</time></trkpt><trkpt lat="42.6731633" lon="-7.2369217"><ele>746.6</ele><time>2026-04-15T08:50:41.849Z</time></trkpt><trkpt lat="42.6730933" lon="-7.236805"><ele>746.8</ele><time>2026-04-15T08:50:42.848Z</time></trkpt><trkpt lat="42.673045" lon="-7.2366817"><ele>747.0</ele><time>2026-04-15T08:50:43.849Z</time></trkpt><trkpt lat="42.67303" lon="-7.2365567"><ele>750.6</ele><time>2026-04-15T08:50:44.849Z</time></trkpt><trkpt lat="42.6730283" lon="-7.236435"><ele>754.2</ele><time>2026-04-15T08:50:45.848Z</time></trkpt><trkpt lat="42.6730433" lon="-7.2363017"><ele>757.8</ele><time>2026-04-15T08:50:46.849Z</time></trkpt><trkpt lat="42.673075" lon="-7.2361583"><ele>761.4</ele><time>2026-04-15T08:50:47.849Z</time></trkpt><trkpt lat="42.6731017" lon="-7.2360017"><ele>765.0</ele><time>2026-04-15T08:50:48.849Z</time></trkpt><trkpt lat="42.6731283" lon="-7.2358483"><ele>765.0</ele><time>2026-04-15T08:50:49.849Z</time></trkpt><trkpt lat="42.6731633" lon="-7.235695"><ele>765.0</ele><time>2026-04-15T08:50:50.849Z</time></trkpt><trkpt lat="42.6732" lon="-7.23555"><ele>765.0</ele><time>2026-04-15T08:50:51.849Z</time></trkpt><trkpt lat="42.6732467" lon="-7.2354117"><ele>765.0</ele><time>2026-04-15T08:50:52.848Z</time></trkpt><trkpt lat="42.6732983" lon="-7.2352783"><ele>768.6</ele><time>2026-04-15T08:50:53.848Z</time></trkpt><trkpt lat="42.6733517" lon="-7.235155"><ele>772.2</ele><time>2026-04-15T08:50:54.848Z</time></trkpt><trkpt lat="42.6734083" lon="-7.2350267"><ele>775.8</ele><time>2026-04-15T08:50:55.849Z</time></trkpt><trkpt lat="42.6734583" lon="-7.2348967"><ele>779.4</ele><time>2026-04-15T08:50:56.848Z</time></trkpt><trkpt lat="42.6734983" lon="-7.234765"><ele>783.0</ele><time>2026-04-15T08:50:57.849Z</time></trkpt><trkpt lat="42.673525" lon="-7.23462"><ele>785.0</ele><time>2026-04-15T08:50:58.848Z</time></trkpt><trkpt lat="42.673545" lon="-7.2344917"><ele>787.0</ele><time>2026-04-15T08:50:59.849Z</time></trkpt><trkpt lat="42.6735667" lon="-7.2343583"><ele>789.0</ele><time>2026-04-15T08:51:00.848Z</time></trkpt><trkpt lat="42.6735817" lon="-7.23421"><ele>791.0</ele><time>2026-04-15T08:51:01.849Z</time></trkpt><trkpt lat="42.6735767" lon="-7.2340833"><ele>793.0</ele><time>2026-04-15T08:51:02.848Z</time></trkpt><trkpt lat="42.6735467" lon="-7.2339483"><ele>794.75</ele><time>2026-04-15T08:51:03.849Z</time></trkpt><trkpt lat="42.6734967" lon="-7.2338083"><ele>796.5</ele><time>2026-04-15T08:51:04.85Z</time></trkpt><trkpt lat="42.67345" lon="-7.2336583"><ele>798.25</ele><time>2026-04-15T08:51:05.85Z</time></trkpt><trkpt lat="42.6734183" lon="-7.2335067"><ele>800.0</ele><time>2026-04-15T08:51:06.85Z</time></trkpt><trkpt lat="42.673385" lon="-7.233355"><ele>800.0</ele><time>2026-04-15T08:51:07.85Z</time></trkpt><trkpt lat="42.6733617" lon="-7.2332083"><ele>800.0</ele><time>2026-04-15T08:51:08.849Z</time></trkpt><trkpt lat="42.67334" lon="-7.2330617"><ele>800.0</ele><time>2026-04-15T08:51:09.85Z</time></trkpt><trkpt lat="42.6733267" lon="-7.2329233"><ele>800.0</ele><time>2026-04-15T08:51:10.849Z</time></trkpt><trkpt lat="42.6733183" lon="-7.232765"><ele>800.0</ele><time>2026-04-15T08:51:11.849Z</time></trkpt><trkpt lat="42.6733083" lon="-7.2326167"><ele>801.0</ele><time>2026-04-15T08:51:12.85Z</time></trkpt><trkpt lat="42.6732983" lon="-7.2324667"><ele>802.0</ele><time>2026-04-15T08:51:13.849Z</time></trkpt><trkpt lat="42.6732783" lon="-7.23233"><ele>803.0</ele><time>2026-04-15T08:51:14.849Z</time></trkpt><trkpt lat="42.673245" lon="-7.2322133"><ele>804.0</ele><time>2026-04-15T08:51:15.85Z</time></trkpt><trkpt lat="42.6731967" lon="-7.2321083"><ele>805.0</ele><time>2026-04-15T08:51:16.85Z</time></trkpt><trkpt lat="42.6731583" lon="-7.23201"><ele>806.8</ele><time>2026-04-15T08:51:17.85Z</time></trkpt><trkpt lat="42.6731333" lon="-7.231925"><ele>808.6</ele><time>2026-04-15T08:51:18.849Z</time></trkpt><trkpt lat="42.673175" lon="-7.2318133"><ele>810.4000000000001</ele><time>2026-04-15T08:51:20.85Z</time></trkpt><trkpt lat="42.6733233" lon="-7.2318467"><ele>812.2</ele><time>2026-04-15T08:51:22.85Z</time></trkpt><trkpt lat="42.673415" lon="-7.2319"><ele>814.0</ele><time>2026-04-15T08:51:23.85Z</time></trkpt><trkpt lat="42.6735133" lon="-7.2319883"><ele>814.0</ele><time>2026-04-15T08:51:24.85Z</time></trkpt><trkpt lat="42.6736017" lon="-7.2320967"><ele>814.0</ele><time>2026-04-15T08:51:25.849Z</time></trkpt><trkpt lat="42.6736683" lon="-7.2322233"><ele>814.0</ele><time>2026-04-15T08:51:26.85Z</time></trkpt><trkpt lat="42.6737117" lon="-7.2323633"><ele>814.0</ele><time>2026-04-15T08:51:27.85Z</time></trkpt><trkpt lat="42.6737533" lon="-7.2325267"><ele>817.75</ele><time>2026-04-15T08:51:28.849Z</time></trkpt><trkpt lat="42.6738" lon="-7.23269"><ele>821.5</ele><time>2026-04-15T08:51:29.849Z</time></trkpt><trkpt lat="42.6738633" lon="-7.232845"><ele>825.25</ele><time>2026-04-15T08:51:30.85Z</time></trkpt><trkpt lat="42.6739317" lon="-7.232975"><ele>829.0</ele><time>2026-04-15T08:51:31.85Z</time></trkpt><trkpt lat="42.6740083" lon="-7.2330983"><ele>824.5</ele><time>2026-04-15T08:51:32.85Z</time></trkpt><trkpt lat="42.67409" lon="-7.23321"><ele>820.0</ele><time>2026-04-15T08:51:33.85Z</time></trkpt><trkpt lat="42.6741833" lon="-7.2333117"><ele>815.5</ele><time>2026-04-15T08:51:34.85Z</time></trkpt><trkpt lat="42.6742783" lon="-7.233415"><ele>811.0</ele><time>2026-04-15T08:51:35.85Z</time></trkpt><trkpt lat="42.6743617" lon="-7.2335233"><ele>817.5999999999999</ele><time>2026-04-15T08:51:36.849Z</time></trkpt><trkpt lat="42.6744433" lon="-7.2336183"><ele>824.2</ele><time>2026-04-15T08:51:37.849Z</time></trkpt><trkpt lat="42.6745317" lon="-7.2337033"><ele>830.8</ele><time>2026-04-15T08:51:38.85Z</time></trkpt><trkpt lat="42.6746267" lon="-7.2337733"><ele>837.4000000000001</ele><time>2026-04-15T08:51:39.849Z</time></trkpt><trkpt lat="42.674725" lon="-7.23383"><ele>844.0</ele><time>2026-04-15T08:51:40.85Z</time></trkpt><trkpt lat="42.6748183" lon="-7.2338667"><ele>844.0</ele><time>2026-04-15T08:51:41.85Z</time></trkpt><trkpt lat="42.674905" lon="-7.233905"><ele>844.0</ele><time>2026-04-15T08:51:42.849Z</time></trkpt><trkpt lat="42.675005" lon="-7.2339467"><ele>844.0</ele><time>2026-04-15T08:51:43.849Z</time></trkpt><trkpt lat="42.6750983" lon="-7.2340083"><ele>844.0</ele><time>2026-04-15T08:51:44.85Z</time></trkpt><trkpt lat="42.6751967" lon="-7.2340783"><ele>844.0</ele><time>2026-04-15T08:51:45.85Z</time></trkpt><trkpt lat="42.6752867" lon="-7.2341583"><ele>842.8000000000001</ele><time>2026-04-15T08:51:46.849Z</time></trkpt><trkpt lat="42.6753867" lon="-7.2342333"><ele>841.6</ele><time>2026-04-15T08:51:47.849Z</time></trkpt><trkpt lat="42.6754883" lon="-7.2343067"><ele>840.4</ele><time>2026-04-15T08:51:48.85Z</time></trkpt><trkpt lat="42.6755867" lon="-7.2343733"><ele>839.2</ele><time>2026-04-15T08:51:49.849Z</time></trkpt><trkpt lat="42.6756817" lon="-7.2344483"><ele>838.0</ele><time>2026-04-15T08:51:50.85Z</time></trkpt><trkpt lat="42.67578" lon="-7.2345233"><ele>838.0</ele><time>2026-04-15T08:51:51.849Z</time></trkpt><trkpt lat="42.6758783" lon="-7.2345983"><ele>838.0</ele><time>2026-04-15T08:51:52.849Z</time></trkpt><trkpt lat="42.6759783" lon="-7.2346667"><ele>838.0</ele><time>2026-04-15T08:51:53.85Z</time></trkpt><trkpt lat="42.6760883" lon="-7.2347267"><ele>838.0</ele><time>2026-04-15T08:51:54.849Z</time></trkpt><trkpt lat="42.676195" lon="-7.2347783"><ele>837.5999999999999</ele><time>2026-04-15T08:51:55.849Z</time></trkpt><trkpt lat="42.6762983" lon="-7.2348267"><ele>837.1999999999999</ele><time>2026-04-15T08:51:56.85Z</time></trkpt><trkpt lat="42.6764067" lon="-7.234865"><ele>836.8</ele><time>2026-04-15T08:51:57.85Z</time></trkpt><trkpt lat="42.676515" lon="-7.2349017"><ele>836.4</ele><time>2026-04-15T08:51:58.849Z</time></trkpt><trkpt lat="42.67662" lon="-7.23494"><ele>836.0</ele><time>2026-04-15T08:51:59.849Z</time></trkpt><trkpt lat="42.676715" lon="-7.23497"><ele>836.0</ele><time>2026-04-15T08:52:00.85Z</time></trkpt><trkpt lat="42.676815" lon="-7.23499"><ele>836.0</ele><time>2026-04-15T08:52:01.849Z</time></trkpt><trkpt lat="42.6769117" lon="-7.2349917"><ele>836.0</ele><time>2026-04-15T08:52:02.85Z</time></trkpt><trkpt lat="42.677015" lon="-7.2349783"><ele>836.0</ele><time>2026-04-15T08:52:03.849Z</time></trkpt><trkpt lat="42.67712" lon="-7.234945"><ele>836.0</ele><time>2026-04-15T08:52:04.85Z</time></trkpt><trkpt lat="42.6772267" lon="-7.2349117"><ele>836.8</ele><time>2026-04-15T08:52:05.85Z</time></trkpt><trkpt lat="42.6773283" lon="-7.2348817"><ele>837.5999999999999</ele><time>2026-04-15T08:52:06.85Z</time></trkpt><trkpt lat="42.67743" lon="-7.2348467"><ele>838.4</ele><time>2026-04-15T08:52:07.85Z</time></trkpt><trkpt lat="42.677525" lon="-7.2348083"><ele>839.2</ele><time>2026-04-15T08:52:08.85Z</time></trkpt><trkpt lat="42.6776183" lon="-7.2347483"><ele>840.0</ele><time>2026-04-15T08:52:09.849Z</time></trkpt><trkpt lat="42.6777067" lon="-7.2346517"><ele>840.5</ele><time>2026-04-15T08:52:10.849Z</time></trkpt><trkpt lat="42.6777833" lon="-7.2345383"><ele>841.0</ele><time>2026-04-15T08:52:11.849Z</time></trkpt><trkpt lat="42.6778583" lon="-7.234415"><ele>841.5</ele><time>2026-04-15T08:52:12.849Z</time></trkpt><trkpt lat="42.67793" lon="-7.23429"><ele>842.0</ele><time>2026-04-15T08:52:13.849Z</time></trkpt><trkpt lat="42.6779983" lon="-7.2341483"><ele>842.0</ele><time>2026-04-15T08:52:14.85Z</time></trkpt><trkpt lat="42.678065" lon="-7.2340117"><ele>842.0</ele><time>2026-04-15T08:52:15.85Z</time></trkpt><trkpt lat="42.6781267" lon="-7.233875"><ele>842.0</ele><time>2026-04-15T08:52:16.85Z</time></trkpt><trkpt lat="42.67819" lon="-7.23374"><ele>842.0</ele><time>2026-04-15T08:52:17.849Z</time></trkpt><trkpt lat="42.6782633" lon="-7.233625"><ele>844.5</ele><time>2026-04-15T08:52:18.85Z</time></trkpt><trkpt lat="42.6783483" lon="-7.2335233"><ele>847.0</ele><time>2026-04-15T08:52:19.849Z</time></trkpt><trkpt lat="42.6784467" lon="-7.233435"><ele>849.5</ele><time>2026-04-15T08:52:20.85Z</time></trkpt><trkpt lat="42.6785433" lon="-7.23337"><ele>852.0</ele><time>2026-04-15T08:52:21.85Z</time></trkpt><trkpt lat="42.6786517" lon="-7.2332917"><ele>852.0</ele><time>2026-04-15T08:52:22.849Z</time></trkpt><trkpt lat="42.6787583" lon="-7.233205"><ele>852.0</ele><time>2026-04-15T08:52:23.849Z</time></trkpt><trkpt lat="42.6788617" lon="-7.233105"><ele>852.0</ele><time>2026-04-15T08:52:24.85Z</time></trkpt><trkpt lat="42.678965" lon="-7.2330283"><ele>852.0</ele><time>2026-04-15T08:52:25.85Z</time></trkpt><trkpt lat="42.6790717" lon="-7.2329567"><ele>854.5</ele><time>2026-04-15T08:52:26.849Z</time></trkpt><trkpt lat="42.6791883" lon="-7.2328933"><ele>857.0</ele><time>2026-04-15T08:52:27.85Z</time></trkpt><trkpt lat="42.6793033" lon="-7.2328233"><ele>859.5</ele><time>2026-04-15T08:52:28.85Z</time></trkpt><trkpt lat="42.6794167" lon="-7.2327567"><ele>862.0</ele><time>2026-04-15T08:52:29.85Z</time></trkpt><trkpt lat="42.6795233" lon="-7.2327"><ele>862.0</ele><time>2026-04-15T08:52:30.85Z</time></trkpt><trkpt lat="42.67963" lon="-7.232645"><ele>862.0</ele><time>2026-04-15T08:52:31.85Z</time></trkpt><trkpt lat="42.6797317" lon="-7.2325867"><ele>862.0</ele><time>2026-04-15T08:52:32.849Z</time></trkpt><trkpt lat="42.679825" lon="-7.2325133"><ele>862.0</ele><time>2026-04-15T08:52:33.849Z</time></trkpt><trkpt lat="42.679905" lon="-7.2324233"><ele>862.0</ele><time>2026-04-15T08:52:34.85Z</time></trkpt><trkpt lat="42.6799817" lon="-7.232305"><ele>867.25</ele><time>2026-04-15T08:52:35.85Z</time></trkpt><trkpt lat="42.6800483" lon="-7.2321767"><ele>872.5</ele><time>2026-04-15T08:52:36.85Z</time></trkpt><trkpt lat="42.68011" lon="-7.2320417"><ele>877.75</ele><time>2026-04-15T08:52:37.849Z</time></trkpt><trkpt lat="42.68017" lon="-7.2318883"><ele>883.0</ele><time>2026-04-15T08:52:38.849Z</time></trkpt><trkpt lat="42.6802217" lon="-7.2317483"><ele>877.25</ele><time>2026-04-15T08:52:39.85Z</time></trkpt><trkpt lat="42.68028" lon="-7.23158"><ele>871.5</ele><time>2026-04-15T08:52:40.85Z</time></trkpt><trkpt lat="42.680325" lon="-7.2314233"><ele>865.75</ele><time>2026-04-15T08:52:41.85Z</time></trkpt><trkpt lat="42.6803717" lon="-7.2312817"><ele>860.0</ele><time>2026-04-15T08:52:42.85Z</time></trkpt><trkpt lat="42.6804017" lon="-7.231135"><ele>860.0</ele><time>2026-04-15T08:52:43.85Z</time></trkpt><trkpt lat="42.6804183" lon="-7.23098"><ele>860.0</ele><time>2026-04-15T08:52:44.849Z</time></trkpt><trkpt lat="42.6804133" lon="-7.2308267"><ele>860.0</ele><time>2026-04-15T08:52:45.849Z</time></trkpt><trkpt lat="42.6803833" lon="-7.2306733"><ele>860.0</ele><time>2026-04-15T08:52:46.849Z</time></trkpt><trkpt lat="42.680345" lon="-7.230505"><ele>860.25</ele><time>2026-04-15T08:52:47.849Z</time></trkpt><trkpt lat="42.6803083" lon="-7.2303267"><ele>860.5</ele><time>2026-04-15T08:52:48.85Z</time></trkpt><trkpt lat="42.680285" lon="-7.230165"><ele>860.75</ele><time>2026-04-15T08:52:49.849Z</time></trkpt><trkpt lat="42.6802683" lon="-7.23001"><ele>861.0</ele><time>2026-04-15T08:52:50.849Z</time></trkpt><trkpt lat="42.6802667" lon="-7.2298617"><ele>863.5999999999999</ele><time>2026-04-15T08:52:51.85Z</time></trkpt><trkpt lat="42.6802767" lon="-7.2297183"><ele>866.1999999999999</ele><time>2026-04-15T08:52:52.85Z</time></trkpt><trkpt lat="42.680295" lon="-7.22958"><ele>868.8000000000001</ele><time>2026-04-15T08:52:53.849Z</time></trkpt><trkpt lat="42.6803367" lon="-7.2294467"><ele>871.4000000000001</ele><time>2026-04-15T08:52:54.85Z</time></trkpt><trkpt lat="42.6803817" lon="-7.2293183"><ele>874.0</ele><time>2026-04-15T08:52:55.849Z</time></trkpt><trkpt lat="42.680435" lon="-7.2291767"><ele>874.0</ele><time>2026-04-15T08:52:56.85Z</time></trkpt><trkpt lat="42.68049" lon="-7.22902"><ele>874.0</ele><time>2026-04-15T08:52:57.85Z</time></trkpt><trkpt lat="42.6805283" lon="-7.22886"><ele>874.0</ele><time>2026-04-15T08:52:58.85Z</time></trkpt><trkpt lat="42.6805483" lon="-7.2286967"><ele>874.0</ele><time>2026-04-15T08:52:59.85Z</time></trkpt><trkpt lat="42.6805583" lon="-7.2285267"><ele>874.6</ele><time>2026-04-15T08:53:00.85Z</time></trkpt><trkpt lat="42.6805467" lon="-7.2283667"><ele>875.2</ele><time>2026-04-15T08:53:01.85Z</time></trkpt><trkpt lat="42.6805017" lon="-7.22823"><ele>875.8000000000001</ele><time>2026-04-15T08:53:02.849Z</time></trkpt><trkpt lat="42.6804433" lon="-7.2281117"><ele>876.4000000000001</ele><time>2026-04-15T08:53:03.849Z</time></trkpt><trkpt lat="42.6803683" lon="-7.2280117"><ele>877.0</ele><time>2026-04-15T08:53:04.849Z</time></trkpt><trkpt lat="42.6802817" lon="-7.22793"><ele>881.75</ele><time>2026-04-15T08:53:05.849Z</time></trkpt><trkpt lat="42.6801733" lon="-7.22786"><ele>886.5</ele><time>2026-04-15T08:53:06.85Z</time></trkpt><trkpt lat="42.6800567" lon="-7.22781"><ele>891.25</ele><time>2026-04-15T08:53:07.85Z</time></trkpt><trkpt lat="42.6799433" lon="-7.2277483"><ele>896.0</ele><time>2026-04-15T08:53:08.849Z</time></trkpt><trkpt lat="42.6798283" lon="-7.22768"><ele>896.0</ele><time>2026-04-15T08:53:09.849Z</time></trkpt><trkpt lat="42.6797133" lon="-7.227605"><ele>896.0</ele><time>2026-04-15T08:53:10.85Z</time></trkpt><trkpt lat="42.67961" lon="-7.2275283"><ele>896.0</ele><time>2026-04-15T08:53:11.85Z</time></trkpt><trkpt lat="42.67949" lon="-7.22743"><ele>896.0</ele><time>2026-04-15T08:53:12.85Z</time></trkpt><trkpt lat="42.6793767" lon="-7.2273317"><ele>899.8</ele><time>2026-04-15T08:53:13.85Z</time></trkpt><trkpt lat="42.6792783" lon="-7.22724"><ele>903.5999999999999</ele><time>2026-04-15T08:53:14.85Z</time></trkpt><trkpt lat="42.6791867" lon="-7.2271517"><ele>907.4</ele><time>2026-04-15T08:53:15.85Z</time></trkpt><trkpt lat="42.679105" lon="-7.2270667"><ele>911.2</ele><time>2026-04-15T08:53:16.849Z</time></trkpt><trkpt lat="42.6790283" lon="-7.2269833"><ele>915.0</ele><time>2026-04-15T08:53:17.85Z</time></trkpt><trkpt lat="42.6789733" lon="-7.226895"><ele>915.0</ele><time>2026-04-15T08:53:18.85Z</time></trkpt><trkpt lat="42.6789333" lon="-7.2267983"><ele>915.0</ele><time>2026-04-15T08:53:19.85Z</time></trkpt><trkpt lat="42.6789183" lon="-7.2267017"><ele>915.0</ele><time>2026-04-15T08:53:20.849Z</time></trkpt><trkpt lat="42.6789317" lon="-7.226595"><ele>915.0</ele><time>2026-04-15T08:53:21.85Z</time></trkpt><trkpt lat="42.678985" lon="-7.2264717"><ele>915.0</ele><time>2026-04-15T08:53:22.849Z</time></trkpt><trkpt lat="42.6791" lon="-7.22632"><ele>918.25</ele><time>2026-04-15T08:53:23.85Z</time></trkpt><trkpt lat="42.6791883" lon="-7.2261967"><ele>921.5</ele><time>2026-04-15T08:53:24.85Z</time></trkpt><trkpt lat="42.6792767" lon="-7.2260717"><ele>924.75</ele><time>2026-04-15T08:53:25.85Z</time></trkpt><trkpt lat="42.67935" lon="-7.22595"><ele>928.0</ele><time>2026-04-15T08:53:26.849Z</time></trkpt><trkpt lat="42.6794167" lon="-7.225835"><ele>922.2</ele><time>2026-04-15T08:53:27.85Z</time></trkpt><trkpt lat="42.6794783" lon="-7.225715"><ele>916.4</ele><time>2026-04-15T08:53:28.85Z</time></trkpt><trkpt lat="42.6795267" lon="-7.225595"><ele>910.6000000000001</ele><time>2026-04-15T08:53:29.849Z</time></trkpt><trkpt lat="42.6795617" lon="-7.225465"><ele>904.8000000000001</ele><time>2026-04-15T08:53:30.85Z</time></trkpt><trkpt lat="42.67958" lon="-7.2253183"><ele>899.0</ele><time>2026-04-15T08:53:31.85Z</time></trkpt><trkpt lat="42.6795817" lon="-7.22516"><ele>899.0</ele><time>2026-04-15T08:53:32.849Z</time></trkpt><trkpt lat="42.6795667" lon="-7.2250167"><ele>899.0000000000001</ele><time>2026-04-15T08:53:33.85Z</time></trkpt><trkpt lat="42.6795233" lon="-7.2248983"><ele>899.0000000000001</ele><time>2026-04-15T08:53:34.849Z</time></trkpt><trkpt lat="42.6794867" lon="-7.2247783"><ele>899.0</ele><time>2026-04-15T08:53:35.849Z</time></trkpt><trkpt lat="42.6794383" lon="-7.2246633"><ele>899.0</ele><time>2026-04-15T08:53:36.849Z</time></trkpt><trkpt lat="42.67939" lon="-7.22455"><ele>907.4000000000001</ele><time>2026-04-15T08:53:37.85Z</time></trkpt><trkpt lat="42.679345" lon="-7.224435"><ele>915.8000000000001</ele><time>2026-04-15T08:53:38.85Z</time></trkpt><trkpt lat="42.6793117" lon="-7.2243117"><ele>924.1999999999999</ele><time>2026-04-15T08:53:39.849Z</time></trkpt><trkpt lat="42.6792783" lon="-7.22418"><ele>932.5999999999999</ele><time>2026-04-15T08:53:40.85Z</time></trkpt><trkpt lat="42.6792517" lon="-7.2240517"><ele>941.0</ele><time>2026-04-15T08:53:41.85Z</time></trkpt><trkpt lat="42.6792367" lon="-7.22392"><ele>942.4</ele><time>2026-04-15T08:53:42.85Z</time></trkpt><trkpt lat="42.6792333" lon="-7.223785"><ele>943.8</ele><time>2026-04-15T08:53:43.85Z</time></trkpt><trkpt lat="42.6792467" lon="-7.2236517"><ele>945.1999999999999</ele><time>2026-04-15T08:53:44.849Z</time></trkpt><trkpt lat="42.67929" lon="-7.2235333"><ele>946.5999999999999</ele><time>2026-04-15T08:53:45.85Z</time></trkpt><trkpt lat="42.6793433" lon="-7.2234267"><ele>948.0</ele><time>2026-04-15T08:53:46.85Z</time></trkpt><trkpt lat="42.6794083" lon="-7.2233317"><ele>949.2</ele><time>2026-04-15T08:53:47.85Z</time></trkpt><trkpt lat="42.679485" lon="-7.22324"><ele>950.4</ele><time>2026-04-15T08:53:48.849Z</time></trkpt><trkpt lat="42.6795667" lon="-7.2231783"><ele>951.6000000000001</ele><time>2026-04-15T08:53:49.85Z</time></trkpt><trkpt lat="42.6796583" lon="-7.2231117"><ele>952.8000000000001</ele><time>2026-04-15T08:53:50.85Z</time></trkpt><trkpt lat="42.679745" lon="-7.223045"><ele>954.0</ele><time>2026-04-15T08:53:51.85Z</time></trkpt><trkpt lat="42.6798317" lon="-7.2229633"><ele>954.0</ele><time>2026-04-15T08:53:52.85Z</time></trkpt><trkpt lat="42.679915" lon="-7.2228867"><ele>954.0000000000001</ele><time>2026-04-15T08:53:53.849Z</time></trkpt><trkpt lat="42.6800017" lon="-7.2228167"><ele>954.0000000000001</ele><time>2026-04-15T08:53:54.849Z</time></trkpt><trkpt lat="42.68009" lon="-7.22274"><ele>954.0</ele><time>2026-04-15T08:53:55.85Z</time></trkpt><trkpt lat="42.6801867" lon="-7.2226533"><ele>954.0</ele><time>2026-04-15T08:53:56.849Z</time></trkpt><trkpt lat="42.6802867" lon="-7.2225733"><ele>956.5</ele><time>2026-04-15T08:53:57.849Z</time></trkpt><trkpt lat="42.6803783" lon="-7.2224917"><ele>959.0</ele><time>2026-04-15T08:53:58.85Z</time></trkpt><trkpt lat="42.68048" lon="-7.2224083"><ele>961.5</ele><time>2026-04-15T08:53:59.849Z</time></trkpt><trkpt lat="42.680575" lon="-7.2223283"><ele>964.0</ele><time>2026-04-15T08:54:00.849Z</time></trkpt><trkpt lat="42.6806683" lon="-7.2222417"><ele>964.0</ele><time>2026-04-15T08:54:01.849Z</time></trkpt><trkpt lat="42.6807567" lon="-7.22216"><ele>964.0000000000001</ele><time>2026-04-15T08:54:02.85Z</time></trkpt><trkpt lat="42.6808433" lon="-7.2220667"><ele>964.0000000000001</ele><time>2026-04-15T08:54:03.849Z</time></trkpt><trkpt lat="42.6809267" lon="-7.2219733"><ele>964.0</ele><time>2026-04-15T08:54:04.849Z</time></trkpt><trkpt lat="42.6809983" lon="-7.2218733"><ele>964.0</ele><time>2026-04-15T08:54:05.85Z</time></trkpt><trkpt lat="42.6810717" lon="-7.2217833"><ele>963.6</ele><time>2026-04-15T08:54:06.85Z</time></trkpt><trkpt lat="42.68116" lon="-7.2216867"><ele>963.2</ele><time>2026-04-15T08:54:07.85Z</time></trkpt><trkpt lat="42.6812533" lon="-7.2215867"><ele>962.8000000000001</ele><time>2026-04-15T08:54:08.849Z</time></trkpt><trkpt lat="42.681335" lon="-7.2215067"><ele>962.4000000000001</ele><time>2026-04-15T08:54:09.849Z</time></trkpt><trkpt lat="42.6814033" lon="-7.2214167"><ele>962.0</ele><time>2026-04-15T08:54:10.849Z</time></trkpt><trkpt lat="42.6814667" lon="-7.2213217"><ele>962.0</ele><time>2026-04-15T08:54:11.85Z</time></trkpt><trkpt lat="42.68154" lon="-7.2212283"><ele>962.0</ele><time>2026-04-15T08:54:12.849Z</time></trkpt><trkpt lat="42.68162" lon="-7.22114"><ele>962.0</ele><time>2026-04-15T08:54:13.849Z</time></trkpt><trkpt lat="42.6817017" lon="-7.2210317"><ele>962.0</ele><time>2026-04-15T08:54:14.849Z</time></trkpt><trkpt lat="42.6817833" lon="-7.220915"><ele>962.0</ele><time>2026-04-15T08:54:15.85Z</time></trkpt><trkpt lat="42.6818567" lon="-7.220795"><ele>962.0</ele><time>2026-04-15T08:54:16.849Z</time></trkpt><trkpt lat="42.6819267" lon="-7.2206667"><ele>962.0</ele><time>2026-04-15T08:54:17.849Z</time></trkpt><trkpt lat="42.6819883" lon="-7.220545"><ele>962.0</ele><time>2026-04-15T08:54:18.85Z</time></trkpt><trkpt lat="42.6820583" lon="-7.2204167"><ele>962.0</ele><time>2026-04-15T08:54:19.85Z</time></trkpt><trkpt lat="42.6821217" lon="-7.22029"><ele>961.6</ele><time>2026-04-15T08:54:20.849Z</time></trkpt><trkpt lat="42.6821717" lon="-7.2201633"><ele>961.2</ele><time>2026-04-15T08:54:21.85Z</time></trkpt><trkpt lat="42.6822067" lon="-7.22003"><ele>960.8</ele><time>2026-04-15T08:54:22.85Z</time></trkpt><trkpt lat="42.682225" lon="-7.2198833"><ele>960.4</ele><time>2026-04-15T08:54:23.849Z</time></trkpt><trkpt lat="42.6822367" lon="-7.2197383"><ele>960.0</ele><time>2026-04-15T08:54:24.85Z</time></trkpt><trkpt lat="42.6822267" lon="-7.2196"><ele>957.75</ele><time>2026-04-15T08:54:25.85Z</time></trkpt><trkpt lat="42.6821983" lon="-7.21946"><ele>955.5</ele><time>2026-04-15T08:54:26.85Z</time></trkpt><trkpt lat="42.6821533" lon="-7.2193217"><ele>953.25</ele><time>2026-04-15T08:54:27.85Z</time></trkpt><trkpt lat="42.68209" lon="-7.2191867"><ele>951.0</ele><time>2026-04-15T08:54:28.85Z</time></trkpt><trkpt lat="42.6820217" lon="-7.2190617"><ele>952.5999999999999</ele><time>2026-04-15T08:54:29.85Z</time></trkpt><trkpt lat="42.681955" lon="-7.2189317"><ele>954.1999999999999</ele><time>2026-04-15T08:54:30.85Z</time></trkpt><trkpt lat="42.68189" lon="-7.2188133"><ele>955.8000000000001</ele><time>2026-04-15T08:54:31.849Z</time></trkpt><trkpt lat="42.6818233" lon="-7.2187083"><ele>957.4000000000001</ele><time>2026-04-15T08:54:32.849Z</time></trkpt><trkpt lat="42.6817633" lon="-7.2185917"><ele>959.0</ele><time>2026-04-15T08:54:33.85Z</time></trkpt><trkpt lat="42.6817" lon="-7.2184733"><ele>959.0</ele><time>2026-04-15T08:54:34.85Z</time></trkpt><trkpt lat="42.6816283" lon="-7.218355"><ele>959.0</ele><time>2026-04-15T08:54:35.85Z</time></trkpt><trkpt lat="42.6815467" lon="-7.21824"><ele>959.0</ele><time>2026-04-15T08:54:36.849Z</time></trkpt><trkpt lat="42.6814617" lon="-7.2181367"><ele>959.0</ele><time>2026-04-15T08:54:37.849Z</time></trkpt><trkpt lat="42.681375" lon="-7.2180417"><ele>961.4000000000001</ele><time>2026-04-15T08:54:38.849Z</time></trkpt><trkpt lat="42.6812933" lon="-7.21795"><ele>963.8000000000001</ele><time>2026-04-15T08:54:39.849Z</time></trkpt><trkpt lat="42.68121" lon="-7.2178567"><ele>966.1999999999999</ele><time>2026-04-15T08:54:40.85Z</time></trkpt><trkpt lat="42.68113" lon="-7.2177533"><ele>968.5999999999999</ele><time>2026-04-15T08:54:41.85Z</time></trkpt><trkpt lat="42.6810633" lon="-7.2176417"><ele>971.0</ele><time>2026-04-15T08:54:42.85Z</time></trkpt><trkpt lat="42.6809983" lon="-7.217525"><ele>971.0</ele><time>2026-04-15T08:54:43.849Z</time></trkpt><trkpt lat="42.68094" lon="-7.2174233"><ele>970.9999999999999</ele><time>2026-04-15T08:54:44.85Z</time></trkpt><trkpt lat="42.6808967" lon="-7.217335"><ele>970.9999999999999</ele><time>2026-04-15T08:54:45.849Z</time></trkpt><trkpt lat="42.680865" lon="-7.2172517"><ele>971.0</ele><time>2026-04-15T08:54:46.85Z</time></trkpt><trkpt lat="42.6808733" lon="-7.2171083"><ele>971.0</ele><time>2026-04-15T08:54:48.85Z</time></trkpt><trkpt lat="42.681" lon="-7.21705"><ele>965.0</ele><time>2026-04-15T08:54:50.85Z</time></trkpt><trkpt lat="42.6811333" lon="-7.2170667"><ele>959.0</ele><time>2026-04-15T08:54:51.85Z</time></trkpt><trkpt lat="42.681305" lon="-7.2171083"><ele>953.0</ele><time>2026-04-15T08:54:52.849Z</time></trkpt><trkpt lat="42.6814883" lon="-7.2171683"><ele>953.0</ele><time>2026-04-15T08:54:53.85Z</time></trkpt><trkpt lat="42.6816283" lon="-7.2172017"><ele>953.0</ele><time>2026-04-15T08:54:54.849Z</time></trkpt><trkpt lat="42.681765" lon="-7.217245"><ele>953.0</ele><time>2026-04-15T08:54:55.85Z</time></trkpt><trkpt lat="42.6818933" lon="-7.2173233"><ele>953.0</ele><time>2026-04-15T08:54:56.849Z</time></trkpt><trkpt lat="42.6820117" lon="-7.2173833"><ele>949.2</ele><time>2026-04-15T08:54:57.849Z</time></trkpt><trkpt lat="42.6821117" lon="-7.21744"><ele>945.4</ele><time>2026-04-15T08:54:58.849Z</time></trkpt><trkpt lat="42.6822183" lon="-7.2174817"><ele>941.6000000000001</ele><time>2026-04-15T08:54:59.849Z</time></trkpt><trkpt lat="42.6823283" lon="-7.2175083"><ele>937.8000000000001</ele><time>2026-04-15T08:55:00.849Z</time></trkpt><trkpt lat="42.6824417" lon="-7.217525"><ele>934.0</ele><time>2026-04-15T08:55:01.849Z</time></trkpt><trkpt lat="42.6825683" lon="-7.2175317"><ele>934.0</ele><time>2026-04-15T08:55:02.85Z</time></trkpt><trkpt lat="42.6826933" lon="-7.217525"><ele>934.0</ele><time>2026-04-15T08:55:03.85Z</time></trkpt><trkpt lat="42.68281" lon="-7.2175183"><ele>934.0</ele><time>2026-04-15T08:55:04.849Z</time></trkpt><trkpt lat="42.6829267" lon="-7.2175067"><ele>934.0</ele><time>2026-04-15T08:55:05.85Z</time></trkpt><trkpt lat="42.6830417" lon="-7.2175033"><ele>933.8000000000001</ele><time>2026-04-15T08:55:06.849Z</time></trkpt><trkpt lat="42.6831517" lon="-7.2174983"><ele>933.6000000000001</ele><time>2026-04-15T08:55:07.85Z</time></trkpt><trkpt lat="42.6832567" lon="-7.2174933"><ele>933.4</ele><time>2026-04-15T08:55:08.849Z</time></trkpt><trkpt lat="42.683365" lon="-7.2174933"><ele>933.2</ele><time>2026-04-15T08:55:09.85Z</time></trkpt><trkpt lat="42.683475" lon="-7.2175"><ele>933.0</ele><time>2026-04-15T08:55:10.849Z</time></trkpt><trkpt lat="42.68357" lon="-7.2175433"><ele>934.8</ele><time>2026-04-15T08:55:11.849Z</time></trkpt><trkpt lat="42.683665" lon="-7.2176"><ele>936.5999999999999</ele><time>2026-04-15T08:55:12.85Z</time></trkpt><trkpt lat="42.6837583" lon="-7.21766"><ele>938.4000000000001</ele><time>2026-04-15T08:55:13.85Z</time></trkpt><trkpt lat="42.6838617" lon="-7.21772"><ele>940.2</ele><time>2026-04-15T08:55:14.85Z</time></trkpt><trkpt lat="42.6839583" lon="-7.2177967"><ele>942.0</ele><time>2026-04-15T08:55:15.85Z</time></trkpt><trkpt lat="42.6840467" lon="-7.217875"><ele>942.0</ele><time>2026-04-15T08:55:16.849Z</time></trkpt><trkpt lat="42.68414" lon="-7.21796"><ele>942.0</ele><time>2026-04-15T08:55:17.849Z</time></trkpt><trkpt lat="42.68423" lon="-7.2180483"><ele>942.0</ele><time>2026-04-15T08:55:18.85Z</time></trkpt><trkpt lat="42.6843183" lon="-7.218135"><ele>942.0</ele><time>2026-04-15T08:55:19.849Z</time></trkpt><trkpt lat="42.684405" lon="-7.2182217"><ele>942.0</ele><time>2026-04-15T08:55:20.85Z</time></trkpt><trkpt lat="42.684485" lon="-7.2183083"><ele>940.0</ele><time>2026-04-15T08:55:21.849Z</time></trkpt><trkpt lat="42.68456" lon="-7.2183983"><ele>938.0</ele><time>2026-04-15T08:55:22.849Z</time></trkpt><trkpt lat="42.6846317" lon="-7.2184883"><ele>936.0</ele><time>2026-04-15T08:55:23.85Z</time></trkpt><trkpt lat="42.6847067" lon="-7.2185933"><ele>934.0</ele><time>2026-04-15T08:55:24.849Z</time></trkpt><trkpt lat="42.68479" lon="-7.2187083"><ele>932.0</ele><time>2026-04-15T08:55:25.849Z</time></trkpt><trkpt lat="42.6848717" lon="-7.218825"><ele>932.0</ele><time>2026-04-15T08:55:26.85Z</time></trkpt><trkpt lat="42.6849467" lon="-7.2189633"><ele>932.0</ele><time>2026-04-15T08:55:27.849Z</time></trkpt><trkpt lat="42.6850133" lon="-7.219085"><ele>932.0</ele><time>2026-04-15T08:55:28.85Z</time></trkpt><trkpt lat="42.6850783" lon="-7.2192167"><ele>932.0</ele><time>2026-04-15T08:55:29.849Z</time></trkpt><trkpt lat="42.6851467" lon="-7.2193417"><ele>930.6</ele><time>2026-04-15T08:55:30.849Z</time></trkpt><trkpt lat="42.685215" lon="-7.2194567"><ele>929.2</ele><time>2026-04-15T08:55:31.849Z</time></trkpt><trkpt lat="42.685275" lon="-7.2195733"><ele>927.8</ele><time>2026-04-15T08:55:32.85Z</time></trkpt><trkpt lat="42.6853367" lon="-7.219695"><ele>926.4</ele><time>2026-04-15T08:55:33.849Z</time></trkpt><trkpt lat="42.6853967" lon="-7.219825"><ele>925.0</ele><time>2026-04-15T08:55:34.85Z</time></trkpt><trkpt lat="42.6854667" lon="-7.2199417"><ele>922.0</ele><time>2026-04-15T08:55:35.849Z</time></trkpt><trkpt lat="42.6855317" lon="-7.22006"><ele>919.0</ele><time>2026-04-15T08:55:36.849Z</time></trkpt><trkpt lat="42.6855967" lon="-7.2201733"><ele>916.0</ele><time>2026-04-15T08:55:37.849Z</time></trkpt><trkpt lat="42.685665" lon="-7.22028"><ele>913.0</ele><time>2026-04-15T08:55:38.85Z</time></trkpt><trkpt lat="42.685735" lon="-7.220395"><ele>910.0</ele><time>2026-04-15T08:55:39.85Z</time></trkpt><trkpt lat="42.685805" lon="-7.220515"><ele>910.0</ele><time>2026-04-15T08:55:40.849Z</time></trkpt><trkpt lat="42.6858767" lon="-7.2206383"><ele>910.0</ele><time>2026-04-15T08:55:41.849Z</time></trkpt><trkpt lat="42.6859467" lon="-7.2207683"><ele>910.0</ele><time>2026-04-15T08:55:42.85Z</time></trkpt><trkpt lat="42.6860167" lon="-7.2208917"><ele>910.0</ele><time>2026-04-15T08:55:43.85Z</time></trkpt><trkpt lat="42.6860917" lon="-7.2210033"><ele>905.4999999999999</ele><time>2026-04-15T08:55:44.849Z</time></trkpt><trkpt lat="42.68617" lon="-7.221105"><ele>901.0</ele><time>2026-04-15T08:55:45.849Z</time></trkpt><trkpt lat="42.686245" lon="-7.22117"><ele>896.5</ele><time>2026-04-15T08:55:46.849Z</time></trkpt><trkpt lat="42.686315" lon="-7.221195"><ele>892.0</ele><time>2026-04-15T08:55:47.849Z</time></trkpt><trkpt lat="42.68638" lon="-7.2211833"><ele>887.4999999999999</ele><time>2026-04-15T08:55:48.85Z</time></trkpt><trkpt lat="42.6864367" lon="-7.221125"><ele>883.0</ele><time>2026-04-15T08:55:49.85Z</time></trkpt><trkpt lat="42.6864967" lon="-7.2210217"><ele>883.0</ele><time>2026-04-15T08:55:50.85Z</time></trkpt><trkpt lat="42.6865617" lon="-7.2208833"><ele>883.0</ele><time>2026-04-15T08:55:51.849Z</time></trkpt><trkpt lat="42.6866333" lon="-7.2207667"><ele>883.0</ele><time>2026-04-15T08:55:52.85Z</time></trkpt><trkpt lat="42.6867333" lon="-7.22068"><ele>883.0</ele><time>2026-04-15T08:55:53.849Z</time></trkpt><trkpt lat="42.686835" lon="-7.2205983"><ele>878.8</ele><time>2026-04-15T08:55:54.85Z</time></trkpt><trkpt lat="42.6869283" lon="-7.220515"><ele>874.5999999999999</ele><time>2026-04-15T08:55:55.85Z</time></trkpt><trkpt lat="42.687015" lon="-7.2204233"><ele>870.4000000000001</ele><time>2026-04-15T08:55:56.849Z</time></trkpt><trkpt lat="42.6870933" lon="-7.22032"><ele>866.2</ele><time>2026-04-15T08:55:57.849Z</time></trkpt><trkpt lat="42.6871633" lon="-7.2202183"><ele>862.0</ele><time>2026-04-15T08:55:58.85Z</time></trkpt><trkpt lat="42.6872183" lon="-7.2201133"><ele>862.0</ele><time>2026-04-15T08:55:59.849Z</time></trkpt><trkpt lat="42.6872483" lon="-7.22001"><ele>862.0</ele><time>2026-04-15T08:56:00.849Z</time></trkpt><trkpt lat="42.6872583" lon="-7.2198933"><ele>862.0</ele><time>2026-04-15T08:56:01.849Z</time></trkpt><trkpt lat="42.6872367" lon="-7.2197717"><ele>862.0</ele><time>2026-04-15T08:56:02.85Z</time></trkpt><trkpt lat="42.6871867" lon="-7.2196517"><ele>862.0</ele><time>2026-04-15T08:56:03.849Z</time></trkpt><trkpt lat="42.6871283" lon="-7.2195283"><ele>859.5</ele><time>2026-04-15T08:56:04.85Z</time></trkpt><trkpt lat="42.68708" lon="-7.2193933"><ele>857.0</ele><time>2026-04-15T08:56:05.85Z</time></trkpt><trkpt lat="42.6870367" lon="-7.2192483"><ele>854.5</ele><time>2026-04-15T08:56:06.85Z</time></trkpt><trkpt lat="42.6869983" lon="-7.2190983"><ele>852.0</ele><time>2026-04-15T08:56:07.849Z</time></trkpt><trkpt lat="42.6869667" lon="-7.2189367"><ele>856.2</ele><time>2026-04-15T08:56:08.85Z</time></trkpt><trkpt lat="42.68693" lon="-7.2187833"><ele>860.4000000000001</ele><time>2026-04-15T08:56:09.849Z</time></trkpt><trkpt lat="42.68689" lon="-7.2186417"><ele>864.5999999999999</ele><time>2026-04-15T08:56:10.85Z</time></trkpt><trkpt lat="42.6868233" lon="-7.2185317"><ele>868.8</ele><time>2026-04-15T08:56:11.849Z</time></trkpt><trkpt lat="42.686735" lon="-7.218455"><ele>873.0</ele><time>2026-04-15T08:56:12.849Z</time></trkpt><trkpt lat="42.6866383" lon="-7.2184117"><ele>873.0</ele><time>2026-04-15T08:56:13.849Z</time></trkpt><trkpt lat="42.6865233" lon="-7.2183883"><ele>873.0</ele><time>2026-04-15T08:56:14.849Z</time></trkpt><trkpt lat="42.6864133" lon="-7.218375"><ele>873.0</ele><time>2026-04-15T08:56:15.849Z</time></trkpt><trkpt lat="42.6863117" lon="-7.2183483"><ele>873.0</ele><time>2026-04-15T08:56:16.849Z</time></trkpt><trkpt lat="42.6862117" lon="-7.2183033"><ele>873.0</ele><time>2026-04-15T08:56:17.85Z</time></trkpt><trkpt lat="42.6861217" lon="-7.2182267"><ele>879.0</ele><time>2026-04-15T08:56:18.85Z</time></trkpt><trkpt lat="42.6860517" lon="-7.218115"><ele>885.0</ele><time>2026-04-15T08:56:19.849Z</time></trkpt><trkpt lat="42.686005" lon="-7.2179767"><ele>891.0</ele><time>2026-04-15T08:56:20.85Z</time></trkpt><trkpt lat="42.6859767" lon="-7.2178183"><ele>897.0</ele><time>2026-04-15T08:56:21.849Z</time></trkpt><trkpt lat="42.6859667" lon="-7.21765"><ele>897.0</ele><time>2026-04-15T08:56:22.849Z</time></trkpt><trkpt lat="42.6859617" lon="-7.21748"><ele>897.0</ele><time>2026-04-15T08:56:23.849Z</time></trkpt><trkpt lat="42.6859517" lon="-7.217325"><ele>897.0</ele><time>2026-04-15T08:56:24.85Z</time></trkpt><trkpt lat="42.6859467" lon="-7.2171683"><ele>897.0</ele><time>2026-04-15T08:56:25.849Z</time></trkpt><trkpt lat="42.6859417" lon="-7.2170267"><ele>892.6</ele><time>2026-04-15T08:56:26.85Z</time></trkpt><trkpt lat="42.6859083" lon="-7.216895"><ele>888.2</ele><time>2026-04-15T08:56:27.85Z</time></trkpt><trkpt lat="42.6858583" lon="-7.2167833"><ele>883.8</ele><time>2026-04-15T08:56:28.849Z</time></trkpt><trkpt lat="42.685785" lon="-7.2166883"><ele>879.4</ele><time>2026-04-15T08:56:29.85Z</time></trkpt><trkpt lat="42.6856983" lon="-7.216605"><ele>875.0</ele><time>2026-04-15T08:56:30.849Z</time></trkpt><trkpt lat="42.6856183" lon="-7.2165117"><ele>870.75</ele><time>2026-04-15T08:56:31.85Z</time></trkpt><trkpt lat="42.6855417" lon="-7.216405"><ele>866.5</ele><time>2026-04-15T08:56:32.849Z</time></trkpt><trkpt lat="42.6854667" lon="-7.216285"><ele>862.25</ele><time>2026-04-15T08:56:33.849Z</time></trkpt><trkpt lat="42.6854067" lon="-7.216155"><ele>858.0</ele><time>2026-04-15T08:56:34.851Z</time></trkpt><trkpt lat="42.6853567" lon="-7.2160067"><ele>858.0</ele><time>2026-04-15T08:56:35.851Z</time></trkpt><trkpt lat="42.6853133" lon="-7.215865"><ele>858.0</ele><time>2026-04-15T08:56:36.85Z</time></trkpt><trkpt lat="42.68526" lon="-7.2157067"><ele>858.0</ele><time>2026-04-15T08:56:37.85Z</time></trkpt><trkpt lat="42.6852133" lon="-7.2155583"><ele>858.0</ele><time>2026-04-15T08:56:38.851Z</time></trkpt><trkpt lat="42.6851617" lon="-7.21542"><ele>860.75</ele><time>2026-04-15T08:56:39.85Z</time></trkpt><trkpt lat="42.6850783" lon="-7.215315"><ele>863.5</ele><time>2026-04-15T08:56:40.851Z</time></trkpt><trkpt lat="42.6849833" lon="-7.2152433"><ele>866.25</ele><time>2026-04-15T08:56:41.85Z</time></trkpt><trkpt lat="42.6848733" lon="-7.2152033"><ele>869.0</ele><time>2026-04-15T08:56:42.851Z</time></trkpt><trkpt lat="42.6847517" lon="-7.2151817"><ele>869.0</ele><time>2026-04-15T08:56:43.851Z</time></trkpt><trkpt lat="42.6846317" lon="-7.2151767"><ele>869.0</ele><time>2026-04-15T08:56:44.85Z</time></trkpt><trkpt lat="42.6845117" lon="-7.2151767"><ele>869.0</ele><time>2026-04-15T08:56:45.851Z</time></trkpt><trkpt lat="42.6843883" lon="-7.215175"><ele>869.0</ele><time>2026-04-15T08:56:46.85Z</time></trkpt><trkpt lat="42.6842717" lon="-7.2151783"><ele>875.0</ele><time>2026-04-15T08:56:47.85Z</time></trkpt><trkpt lat="42.6841667" lon="-7.21516"><ele>881.0000000000001</ele><time>2026-04-15T08:56:48.85Z</time></trkpt><trkpt lat="42.6840633" lon="-7.2151367"><ele>887.0000000000001</ele><time>2026-04-15T08:56:49.85Z</time></trkpt><trkpt lat="42.6839683" lon="-7.215085"><ele>893.0</ele><time>2026-04-15T08:56:50.85Z</time></trkpt><trkpt lat="42.6838817" lon="-7.215005"><ele>899.0</ele><time>2026-04-15T08:56:51.85Z</time></trkpt><trkpt lat="42.683805" lon="-7.2149033"><ele>899.6</ele><time>2026-04-15T08:56:52.85Z</time></trkpt><trkpt lat="42.6837433" lon="-7.2147833"><ele>900.2</ele><time>2026-04-15T08:56:53.85Z</time></trkpt><trkpt lat="42.68369" lon="-7.2146583"><ele>900.8000000000001</ele><time>2026-04-15T08:56:54.851Z</time></trkpt><trkpt lat="42.683635" lon="-7.2145433"><ele>901.4000000000001</ele><time>2026-04-15T08:56:55.851Z</time></trkpt><trkpt lat="42.683575" lon="-7.21445"><ele>902.0</ele><time>2026-04-15T08:56:56.851Z</time></trkpt><trkpt lat="42.6835" lon="-7.214355"><ele>902.0</ele><time>2026-04-15T08:56:57.85Z</time></trkpt><trkpt lat="42.6834217" lon="-7.2142483"><ele>902.0</ele><time>2026-04-15T08:56:58.851Z</time></trkpt><trkpt lat="42.683345" lon="-7.214135"><ele>902.0</ele><time>2026-04-15T08:56:59.851Z</time></trkpt><trkpt lat="42.6832867" lon="-7.2140033"><ele>902.0</ele><time>2026-04-15T08:57:00.85Z</time></trkpt><trkpt lat="42.6832333" lon="-7.2138533"><ele>895.0</ele><time>2026-04-15T08:57:01.85Z</time></trkpt><trkpt lat="42.6831967" lon="-7.2137033"><ele>888.0</ele><time>2026-04-15T08:57:02.85Z</time></trkpt><trkpt lat="42.6831417" lon="-7.2135517"><ele>881.0</ele><time>2026-04-15T08:57:03.85Z</time></trkpt><trkpt lat="42.6830867" lon="-7.2134117"><ele>874.0</ele><time>2026-04-15T08:57:04.85Z</time></trkpt><trkpt lat="42.683035" lon="-7.2132767"><ele>871.6</ele><time>2026-04-15T08:57:05.851Z</time></trkpt><trkpt lat="42.6829867" lon="-7.21314"><ele>869.2</ele><time>2026-04-15T08:57:06.85Z</time></trkpt><trkpt lat="42.6829367" lon="-7.2130017"><ele>866.8000000000001</ele><time>2026-04-15T08:57:07.85Z</time></trkpt><trkpt lat="42.6828917" lon="-7.2128633"><ele>864.4000000000001</ele><time>2026-04-15T08:57:08.85Z</time></trkpt><trkpt lat="42.682855" lon="-7.2127267"><ele>862.0</ele><time>2026-04-15T08:57:09.85Z</time></trkpt><trkpt lat="42.6828183" lon="-7.2125983"><ele>862.0</ele><time>2026-04-15T08:57:10.85Z</time></trkpt><trkpt lat="42.6827983" lon="-7.2124617"><ele>862.0</ele><time>2026-04-15T08:57:11.851Z</time></trkpt><trkpt lat="42.682795" lon="-7.2123183"><ele>862.0</ele><time>2026-04-15T08:57:12.851Z</time></trkpt><trkpt lat="42.6828067" lon="-7.212195"><ele>862.0</ele><time>2026-04-15T08:57:13.85Z</time></trkpt><trkpt lat="42.6828433" lon="-7.2120717"><ele>862.0</ele><time>2026-04-15T08:57:14.85Z</time></trkpt><trkpt lat="42.6829033" lon="-7.2119583"><ele>863.8</ele><time>2026-04-15T08:57:15.85Z</time></trkpt><trkpt lat="42.682965" lon="-7.2118333"><ele>865.6</ele><time>2026-04-15T08:57:16.851Z</time></trkpt><trkpt lat="42.6830117" lon="-7.2116967"><ele>867.3999999999999</ele><time>2026-04-15T08:57:17.851Z</time></trkpt><trkpt lat="42.683045" lon="-7.2115467"><ele>869.1999999999999</ele><time>2026-04-15T08:57:18.851Z</time></trkpt><trkpt lat="42.6830667" lon="-7.2114"><ele>871.0</ele><time>2026-04-15T08:57:19.85Z</time></trkpt><trkpt lat="42.6830733" lon="-7.21126"><ele>873.9999999999999</ele><time>2026-04-15T08:57:20.85Z</time></trkpt><trkpt lat="42.68308" lon="-7.2111517"><ele>877.0</ele><time>2026-04-15T08:57:21.85Z</time></trkpt><trkpt lat="42.6830917" lon="-7.211055"><ele>880.0</ele><time>2026-04-15T08:57:22.85Z</time></trkpt><trkpt lat="42.6831433" lon="-7.2109767"><ele>883.0</ele><time>2026-04-15T08:57:24.851Z</time></trkpt><trkpt lat="42.6832233" lon="-7.2110133"><ele>885.9999999999999</ele><time>2026-04-15T08:57:26.851Z</time></trkpt><trkpt lat="42.6832617" lon="-7.211085"><ele>889.0</ele><time>2026-04-15T08:57:27.851Z</time></trkpt><trkpt lat="42.6832983" lon="-7.2111833"><ele>889.0</ele><time>2026-04-15T08:57:28.85Z</time></trkpt><trkpt lat="42.68334" lon="-7.2113183"><ele>889.0</ele><time>2026-04-15T08:57:29.85Z</time></trkpt><trkpt lat="42.6833783" lon="-7.2114883"><ele>889.0</ele><time>2026-04-15T08:57:30.851Z</time></trkpt><trkpt lat="42.6834217" lon="-7.2116833"><ele>889.0</ele><time>2026-04-15T08:57:31.85Z</time></trkpt><trkpt lat="42.6834833" lon="-7.211855"><ele>891.5</ele><time>2026-04-15T08:57:32.85Z</time></trkpt><trkpt lat="42.6835667" lon="-7.2120133"><ele>894.0</ele><time>2026-04-15T08:57:33.851Z</time></trkpt><trkpt lat="42.683665" lon="-7.2121483"><ele>896.5</ele><time>2026-04-15T08:57:34.85Z</time></trkpt><trkpt lat="42.6837717" lon="-7.2122867"><ele>899.0</ele><time>2026-04-15T08:57:35.851Z</time></trkpt><trkpt lat="42.6838633" lon="-7.2124017"><ele>890.75</ele><time>2026-04-15T08:57:36.85Z</time></trkpt><trkpt lat="42.6839583" lon="-7.2124983"><ele>882.5</ele><time>2026-04-15T08:57:37.85Z</time></trkpt><trkpt lat="42.684055" lon="-7.2125917"><ele>874.25</ele><time>2026-04-15T08:57:38.85Z</time></trkpt><trkpt lat="42.6841567" lon="-7.2126833"><ele>866.0</ele><time>2026-04-15T08:57:39.851Z</time></trkpt><trkpt lat="42.68427" lon="-7.2127567"><ele>866.0</ele><time>2026-04-15T08:57:40.85Z</time></trkpt><trkpt lat="42.6843933" lon="-7.2127967"><ele>866.0</ele><time>2026-04-15T08:57:41.85Z</time></trkpt><trkpt lat="42.6845033" lon="-7.2128333"><ele>866.0</ele><time>2026-04-15T08:57:42.85Z</time></trkpt><trkpt lat="42.6846167" lon="-7.212855"><ele>866.0</ele><time>2026-04-15T08:57:43.851Z</time></trkpt><trkpt lat="42.68473" lon="-7.2128683"><ele>866.4</ele><time>2026-04-15T08:57:44.851Z</time></trkpt><trkpt lat="42.6848433" lon="-7.2128683"><ele>866.8</ele><time>2026-04-15T08:57:45.851Z</time></trkpt><trkpt lat="42.6849583" lon="-7.212875"><ele>867.1999999999999</ele><time>2026-04-15T08:57:46.85Z</time></trkpt><trkpt lat="42.68506" lon="-7.2128833"><ele>867.5999999999999</ele><time>2026-04-15T08:57:47.85Z</time></trkpt><trkpt lat="42.68516" lon="-7.21287"><ele>868.0</ele><time>2026-04-15T08:57:48.851Z</time></trkpt><trkpt lat="42.6852483" lon="-7.21283"><ele>864.8</ele><time>2026-04-15T08:57:49.851Z</time></trkpt><trkpt lat="42.6853217" lon="-7.212765"><ele>861.5999999999999</ele><time>2026-04-15T08:57:50.851Z</time></trkpt><trkpt lat="42.6853783" lon="-7.2126767"><ele>858.4000000000001</ele><time>2026-04-15T08:57:51.85Z</time></trkpt><trkpt lat="42.6854167" lon="-7.212555"><ele>855.2</ele><time>2026-04-15T08:57:52.851Z</time></trkpt><trkpt lat="42.685445" lon="-7.21241"><ele>852.0</ele><time>2026-04-15T08:57:53.85Z</time></trkpt><trkpt lat="42.68546" lon="-7.2122317"><ele>852.0</ele><time>2026-04-15T08:57:54.85Z</time></trkpt><trkpt lat="42.6855033" lon="-7.2120617"><ele>852.0</ele><time>2026-04-15T08:57:55.85Z</time></trkpt><trkpt lat="42.685565" lon="-7.2119183"><ele>852.0</ele><time>2026-04-15T08:57:56.851Z</time></trkpt><trkpt lat="42.6856383" lon="-7.21178"><ele>852.0</ele><time>2026-04-15T08:57:57.851Z</time></trkpt><trkpt lat="42.6857067" lon="-7.2116517"><ele>852.0</ele><time>2026-04-15T08:57:58.851Z</time></trkpt><trkpt lat="42.6857617" lon="-7.2115217"><ele>852.0</ele><time>2026-04-15T08:57:59.851Z</time></trkpt><trkpt lat="42.6858133" lon="-7.2113983"><ele>852.0</ele><time>2026-04-15T08:58:00.85Z</time></trkpt><trkpt lat="42.6858583" lon="-7.2112667"><ele>852.0</ele><time>2026-04-15T08:58:01.85Z</time></trkpt><trkpt lat="42.6859" lon="-7.2111183"><ele>852.0</ele><time>2026-04-15T08:58:02.851Z</time></trkpt><trkpt lat="42.6859367" lon="-7.2109583"><ele>853.75</ele><time>2026-04-15T08:58:03.851Z</time></trkpt><trkpt lat="42.6859667" lon="-7.210805"><ele>855.5</ele><time>2026-04-15T08:58:04.851Z</time></trkpt><trkpt lat="42.6859967" lon="-7.2106467"><ele>857.25</ele><time>2026-04-15T08:58:05.85Z</time></trkpt><trkpt lat="42.6860317" lon="-7.2104967"><ele>859.0</ele><time>2026-04-15T08:58:06.85Z</time></trkpt><trkpt lat="42.68607" lon="-7.2103467"><ele>860.0</ele><time>2026-04-15T08:58:07.851Z</time></trkpt><trkpt lat="42.686095" lon="-7.21022"><ele>861.0000000000001</ele><time>2026-04-15T08:58:08.85Z</time></trkpt><trkpt lat="42.686095" lon="-7.2100933"><ele>862.0000000000001</ele><time>2026-04-15T08:58:09.851Z</time></trkpt><trkpt lat="42.6860717" lon="-7.209965"><ele>863.0</ele><time>2026-04-15T08:58:10.851Z</time></trkpt><trkpt lat="42.6860433" lon="-7.2098283"><ele>864.0</ele><time>2026-04-15T08:58:11.851Z</time></trkpt><trkpt lat="42.6860333" lon="-7.2096917"><ele>865.5</ele><time>2026-04-15T08:58:12.85Z</time></trkpt><trkpt lat="42.6860283" lon="-7.20957"><ele>867.0</ele><time>2026-04-15T08:58:13.85Z</time></trkpt><trkpt lat="42.686045" lon="-7.209465"><ele>868.5</ele><time>2026-04-15T08:58:14.851Z</time></trkpt><trkpt lat="42.6860717" lon="-7.2093783"><ele>870.0</ele><time>2026-04-15T08:58:15.851Z</time></trkpt><trkpt lat="42.6861383" lon="-7.2093183"><ele>871.5</ele><time>2026-04-15T08:58:17.85Z</time></trkpt><trkpt lat="42.6862233" lon="-7.2093633"><ele>873.0</ele><time>2026-04-15T08:58:19.851Z</time></trkpt><trkpt lat="42.6862617" lon="-7.20947"><ele>871.2</ele><time>2026-04-15T08:58:21.85Z</time></trkpt><trkpt lat="42.6862833" lon="-7.2095617"><ele>869.4</ele><time>2026-04-15T08:58:22.85Z</time></trkpt><trkpt lat="42.6863167" lon="-7.2096717"><ele>867.6000000000001</ele><time>2026-04-15T08:58:23.851Z</time></trkpt><trkpt lat="42.686365" lon="-7.2098117"><ele>865.8000000000001</ele><time>2026-04-15T08:58:24.851Z</time></trkpt><trkpt lat="42.686465" lon="-7.2100067"><ele>864.0</ele><time>2026-04-15T08:58:25.85Z</time></trkpt><trkpt lat="42.6865117" lon="-7.2101667"><ele>864.0</ele><time>2026-04-15T08:58:26.851Z</time></trkpt><trkpt lat="42.6865617" lon="-7.2103367"><ele>864.0</ele><time>2026-04-15T08:58:27.851Z</time></trkpt><trkpt lat="42.6865767" lon="-7.2104833"><ele>864.0</ele><time>2026-04-15T08:58:28.85Z</time></trkpt><trkpt lat="42.6865883" lon="-7.2106267"><ele>864.0</ele><time>2026-04-15T08:58:29.85Z</time></trkpt><trkpt lat="42.686605" lon="-7.210765"><ele>861.6</ele><time>2026-04-15T08:58:30.851Z</time></trkpt><trkpt lat="42.6866117" lon="-7.2109033"><ele>859.2</ele><time>2026-04-15T08:58:31.851Z</time></trkpt><trkpt lat="42.686635" lon="-7.2110533"><ele>856.8000000000001</ele><time>2026-04-15T08:58:32.851Z</time></trkpt><trkpt lat="42.686675" lon="-7.2112"><ele>854.4000000000001</ele><time>2026-04-15T08:58:33.851Z</time></trkpt><trkpt lat="42.6867183" lon="-7.2113433"><ele>852.0</ele><time>2026-04-15T08:58:34.85Z</time></trkpt><trkpt lat="42.6867633" lon="-7.21149"><ele>849.75</ele><time>2026-04-15T08:58:35.851Z</time></trkpt><trkpt lat="42.686795" lon="-7.2116533"><ele>847.5</ele><time>2026-04-15T08:58:36.851Z</time></trkpt><trkpt lat="42.686795" lon="-7.2118183"><ele>845.25</ele><time>2026-04-15T08:58:37.85Z</time></trkpt><trkpt lat="42.6868033" lon="-7.211975"><ele>843.0</ele><time>2026-04-15T08:58:38.85Z</time></trkpt><trkpt lat="42.6868017" lon="-7.212125"><ele>843.0</ele><time>2026-04-15T08:58:39.851Z</time></trkpt><trkpt lat="42.6867967" lon="-7.2122617"><ele>843.0</ele><time>2026-04-15T08:58:40.851Z</time></trkpt><trkpt lat="42.6868233" lon="-7.2124"><ele>843.0</ele><time>2026-04-15T08:58:41.851Z</time></trkpt><trkpt lat="42.6868767" lon="-7.2125267"><ele>843.0</ele><time>2026-04-15T08:58:42.851Z</time></trkpt><trkpt lat="42.686955" lon="-7.212655"><ele>843.0</ele><time>2026-04-15T08:58:43.851Z</time></trkpt><trkpt lat="42.687045" lon="-7.21279"><ele>848.5</ele><time>2026-04-15T08:58:44.85Z</time></trkpt><trkpt lat="42.6871183" lon="-7.2129033"><ele>854.0</ele><time>2026-04-15T08:58:45.85Z</time></trkpt><trkpt lat="42.6871683" lon="-7.213045"><ele>859.5</ele><time>2026-04-15T08:58:46.851Z</time></trkpt><trkpt lat="42.6871933" lon="-7.21321"><ele>865.0</ele><time>2026-04-15T08:58:47.851Z</time></trkpt><trkpt lat="42.6872067" lon="-7.2133817"><ele>865.0</ele><time>2026-04-15T08:58:48.851Z</time></trkpt><trkpt lat="42.6872233" lon="-7.2135483"><ele>865.0</ele><time>2026-04-15T08:58:49.851Z</time></trkpt><trkpt lat="42.6872567" lon="-7.213705"><ele>865.0</ele><time>2026-04-15T08:58:50.85Z</time></trkpt><trkpt lat="42.687305" lon="-7.21385"><ele>865.0</ele><time>2026-04-15T08:58:51.85Z</time></trkpt><trkpt lat="42.68735" lon="-7.2139917"><ele>860.5</ele><time>2026-04-15T08:58:52.85Z</time></trkpt><trkpt lat="42.6874133" lon="-7.214135"><ele>856.0</ele><time>2026-04-15T08:58:53.851Z</time></trkpt><trkpt lat="42.6874733" lon="-7.21426"><ele>851.5</ele><time>2026-04-15T08:58:54.85Z</time></trkpt><trkpt lat="42.68755" lon="-7.2143817"><ele>847.0</ele><time>2026-04-15T08:58:55.851Z</time></trkpt><trkpt lat="42.6876233" lon="-7.2145083"><ele>847.0</ele><time>2026-04-15T08:58:56.85Z</time></trkpt><trkpt lat="42.6876983" lon="-7.21463"><ele>847.0</ele><time>2026-04-15T08:58:57.851Z</time></trkpt><trkpt lat="42.687775" lon="-7.2147533"><ele>847.0</ele><time>2026-04-15T08:58:58.851Z</time></trkpt><trkpt lat="42.6878433" lon="-7.214875"><ele>847.0</ele><time>2026-04-15T08:58:59.851Z</time></trkpt><trkpt lat="42.687905" lon="-7.215005"><ele>849.2</ele><time>2026-04-15T08:59:00.85Z</time></trkpt><trkpt lat="42.687965" lon="-7.2151283"><ele>851.4000000000001</ele><time>2026-04-15T08:59:01.85Z</time></trkpt><trkpt lat="42.6880317" lon="-7.2152483"><ele>853.5999999999999</ele><time>2026-04-15T08:59:02.85Z</time></trkpt><trkpt lat="42.6881033" lon="-7.21536"><ele>855.8</ele><time>2026-04-15T08:59:03.85Z</time></trkpt><trkpt lat="42.688175" lon="-7.2154617"><ele>858.0</ele><time>2026-04-15T08:59:04.85Z</time></trkpt><trkpt lat="42.6882383" lon="-7.21556"><ele>858.0</ele><time>2026-04-15T08:59:05.851Z</time></trkpt><trkpt lat="42.6883033" lon="-7.2156483"><ele>858.0</ele><time>2026-04-15T08:59:06.85Z</time></trkpt><trkpt lat="42.688375" lon="-7.2157383"><ele>858.0</ele><time>2026-04-15T08:59:07.851Z</time></trkpt><trkpt lat="42.6884533" lon="-7.2158217"><ele>858.0</ele><time>2026-04-15T08:59:08.851Z</time></trkpt><trkpt lat="42.6885333" lon="-7.21591"><ele>858.0</ele><time>2026-04-15T08:59:09.85Z</time></trkpt><trkpt lat="42.6886167" lon="-7.215985"><ele>855.4</ele><time>2026-04-15T08:59:10.85Z</time></trkpt><trkpt lat="42.6887083" lon="-7.2160433"><ele>852.8</ele><time>2026-04-15T08:59:11.851Z</time></trkpt><trkpt lat="42.6888" lon="-7.2160833"><ele>850.2</ele><time>2026-04-15T08:59:12.85Z</time></trkpt><trkpt lat="42.6888967" lon="-7.2160917"><ele>847.6</ele><time>2026-04-15T08:59:13.851Z</time></trkpt><trkpt lat="42.688995" lon="-7.2160783"><ele>845.0</ele><time>2026-04-15T08:59:14.85Z</time></trkpt><trkpt lat="42.6890983" lon="-7.2160583"><ele>845.0</ele><time>2026-04-15T08:59:15.85Z</time></trkpt><trkpt lat="42.6891917" lon="-7.2160683"><ele>845.0</ele><time>2026-04-15T08:59:16.85Z</time></trkpt><trkpt lat="42.689275" lon="-7.21612"><ele>845.0</ele><time>2026-04-15T08:59:17.851Z</time></trkpt><trkpt lat="42.6893433" lon="-7.2162233"><ele>845.0</ele><time>2026-04-15T08:59:18.851Z</time></trkpt><trkpt lat="42.6893933" lon="-7.21635"><ele>845.0</ele><time>2026-04-15T08:59:19.85Z</time></trkpt><trkpt lat="42.68943" lon="-7.216505"><ele>848.75</ele><time>2026-04-15T08:59:20.85Z</time></trkpt><trkpt lat="42.68947" lon="-7.216665"><ele>852.5</ele><time>2026-04-15T08:59:21.851Z</time></trkpt><trkpt lat="42.689515" lon="-7.216825"><ele>856.25</ele><time>2026-04-15T08:59:22.851Z</time></trkpt><trkpt lat="42.6895517" lon="-7.21698"><ele>860.0</ele><time>2026-04-15T08:59:23.851Z</time></trkpt><trkpt lat="42.6895933" lon="-7.2171217"><ele>860.0</ele><time>2026-04-15T08:59:24.85Z</time></trkpt><trkpt lat="42.6896267" lon="-7.217255"><ele>860.0</ele><time>2026-04-15T08:59:25.85Z</time></trkpt><trkpt lat="42.6896733" lon="-7.2174"><ele>860.0</ele><time>2026-04-15T08:59:26.851Z</time></trkpt><trkpt lat="42.689725" lon="-7.2175517"><ele>860.0</ele><time>2026-04-15T08:59:27.85Z</time></trkpt><trkpt lat="42.68977" lon="-7.2176933"><ele>855.75</ele><time>2026-04-15T08:59:28.85Z</time></trkpt><trkpt lat="42.6898167" lon="-7.2178383"><ele>851.5</ele><time>2026-04-15T08:59:29.85Z</time></trkpt><trkpt lat="42.6898617" lon="-7.2179867"><ele>847.25</ele><time>2026-04-15T08:59:30.85Z</time></trkpt><trkpt lat="42.6899067" lon="-7.2181317"><ele>843.0</ele><time>2026-04-15T08:59:31.851Z</time></trkpt><trkpt lat="42.6899517" lon="-7.2182783"><ele>838.75</ele><time>2026-04-15T08:59:32.85Z</time></trkpt><trkpt lat="42.6899967" lon="-7.2184317"><ele>834.5</ele><time>2026-04-15T08:59:33.851Z</time></trkpt><trkpt lat="42.6900467" lon="-7.2185783"><ele>830.25</ele><time>2026-04-15T08:59:34.851Z</time></trkpt><trkpt lat="42.69009" lon="-7.2187183"><ele>826.0</ele><time>2026-04-15T08:59:35.851Z</time></trkpt><trkpt lat="42.6901467" lon="-7.2188583"><ele>825.5999999999999</ele><time>2026-04-15T08:59:36.85Z</time></trkpt><trkpt lat="42.6902033" lon="-7.2189917"><ele>825.2</ele><time>2026-04-15T08:59:37.851Z</time></trkpt><trkpt lat="42.6902733" lon="-7.2191083"><ele>824.8</ele><time>2026-04-15T08:59:38.851Z</time></trkpt><trkpt lat="42.6903533" lon="-7.2192033"><ele>824.4000000000001</ele><time>2026-04-15T08:59:39.85Z</time></trkpt><trkpt lat="42.6904433" lon="-7.21929"><ele>824.0</ele><time>2026-04-15T08:59:40.851Z</time></trkpt><trkpt lat="42.69054" lon="-7.21937"><ele>824.0</ele><time>2026-04-15T08:59:41.851Z</time></trkpt><trkpt lat="42.6906517" lon="-7.2194433"><ele>824.0</ele><time>2026-04-15T08:59:42.85Z</time></trkpt><trkpt lat="42.6907667" lon="-7.2194917"><ele>824.0</ele><time>2026-04-15T08:59:43.851Z</time></trkpt><trkpt lat="42.6908833" lon="-7.2195283"><ele>824.0</ele><time>2026-04-15T08:59:44.85Z</time></trkpt><trkpt lat="42.691" lon="-7.21956"><ele>822.6</ele><time>2026-04-15T08:59:45.85Z</time></trkpt><trkpt lat="42.69111" lon="-7.2195767"><ele>821.2</ele><time>2026-04-15T08:59:46.851Z</time></trkpt><trkpt lat="42.6912217" lon="-7.219585"><ele>819.8000000000001</ele><time>2026-04-15T08:59:47.851Z</time></trkpt><trkpt lat="42.6913383" lon="-7.2195767"><ele>818.4000000000001</ele><time>2026-04-15T08:59:48.851Z</time></trkpt><trkpt lat="42.6914467" lon="-7.21955"><ele>817.0</ele><time>2026-04-15T08:59:49.85Z</time></trkpt><trkpt lat="42.69156" lon="-7.2195033"><ele>817.0</ele><time>2026-04-15T08:59:50.851Z</time></trkpt><trkpt lat="42.6916583" lon="-7.2194317"><ele>817.0</ele><time>2026-04-15T08:59:51.85Z</time></trkpt><trkpt lat="42.6917583" lon="-7.2193317"><ele>817.0</ele><time>2026-04-15T08:59:52.851Z</time></trkpt><trkpt lat="42.691855" lon="-7.2192283"><ele>817.0</ele><time>2026-04-15T08:59:53.85Z</time></trkpt><trkpt lat="42.6919433" lon="-7.2191233"><ele>811.0</ele><time>2026-04-15T08:59:54.851Z</time></trkpt><trkpt lat="42.6920283" lon="-7.219015"><ele>805.0</ele><time>2026-04-15T08:59:55.85Z</time></trkpt><trkpt lat="42.69211" lon="-7.2189"><ele>799.0</ele><time>2026-04-15T08:59:56.851Z</time></trkpt><trkpt lat="42.692175" lon="-7.2187817"><ele>793.0</ele><time>2026-04-15T08:59:57.851Z</time></trkpt><trkpt lat="42.6922233" lon="-7.2186483"><ele>793.0</ele><time>2026-04-15T08:59:58.85Z</time></trkpt><trkpt lat="42.6922583" lon="-7.2184883"><ele>793.0</ele><time>2026-04-15T08:59:59.85Z</time></trkpt><trkpt lat="42.6922767" lon="-7.2183217"><ele>793.0</ele><time>2026-04-15T09:00:00.85Z</time></trkpt><trkpt lat="42.6922833" lon="-7.218165"><ele>793.0</ele><time>2026-04-15T09:00:01.851Z</time></trkpt><trkpt lat="42.6922917" lon="-7.2180133"><ele>794.2</ele><time>2026-04-15T09:00:02.85Z</time></trkpt><trkpt lat="42.6922967" lon="-7.217865"><ele>795.4</ele><time>2026-04-15T09:00:03.851Z</time></trkpt><trkpt lat="42.692315" lon="-7.2177317"><ele>796.6</ele><time>2026-04-15T09:00:04.85Z</time></trkpt><trkpt lat="42.6923517" lon="-7.2175983"><ele>797.8000000000001</ele><time>2026-04-15T09:00:05.85Z</time></trkpt><trkpt lat="42.6923733" lon="-7.217465"><ele>799.0</ele><time>2026-04-15T09:00:06.85Z</time></trkpt><trkpt lat="42.6924233" lon="-7.2173333"><ele>802.25</ele><time>2026-04-15T09:00:07.85Z</time></trkpt><trkpt lat="42.6924717" lon="-7.2171933"><ele>805.5</ele><time>2026-04-15T09:00:08.85Z</time></trkpt><trkpt lat="42.6925233" lon="-7.2170517"><ele>808.75</ele><time>2026-04-15T09:00:09.851Z</time></trkpt><trkpt lat="42.6925767" lon="-7.2169167"><ele>812.0</ele><time>2026-04-15T09:00:10.85Z</time></trkpt><trkpt lat="42.6926367" lon="-7.2167933"><ele>812.0</ele><time>2026-04-15T09:00:11.851Z</time></trkpt><trkpt lat="42.692695" lon="-7.216675"><ele>812.0</ele><time>2026-04-15T09:00:12.85Z</time></trkpt><trkpt lat="42.69276" lon="-7.2165617"><ele>812.0</ele><time>2026-04-15T09:00:13.85Z</time></trkpt><trkpt lat="42.6928467" lon="-7.216465"><ele>812.0</ele><time>2026-04-15T09:00:14.85Z</time></trkpt><trkpt lat="42.692955" lon="-7.216395"><ele>812.0</ele><time>2026-04-15T09:00:15.85Z</time></trkpt><trkpt lat="42.6930667" lon="-7.216345"><ele>812.0</ele><time>2026-04-15T09:00:16.85Z</time></trkpt><trkpt lat="42.693185" lon="-7.21633"><ele>812.0</ele><time>2026-04-15T09:00:17.85Z</time></trkpt><trkpt lat="42.6933067" lon="-7.2163233"><ele>812.0</ele><time>2026-04-15T09:00:18.851Z</time></trkpt><trkpt lat="42.6934117" lon="-7.2163267"><ele>812.0</ele><time>2026-04-15T09:00:19.851Z</time></trkpt><trkpt lat="42.6935217" lon="-7.2162983"><ele>806.75</ele><time>2026-04-15T09:00:20.85Z</time></trkpt><trkpt lat="42.6936283" lon="-7.2162583"><ele>801.5</ele><time>2026-04-15T09:00:21.851Z</time></trkpt><trkpt lat="42.6937383" lon="-7.2162067"><ele>796.25</ele><time>2026-04-15T09:00:22.85Z</time></trkpt><trkpt lat="42.693855" lon="-7.21614"><ele>791.0</ele><time>2026-04-15T09:00:23.851Z</time></trkpt><trkpt lat="42.6939667" lon="-7.2160783"><ele>791.0</ele><time>2026-04-15T09:00:24.85Z</time></trkpt><trkpt lat="42.6940617" lon="-7.2159817"><ele>791.0</ele><time>2026-04-15T09:00:25.85Z</time></trkpt><trkpt lat="42.694145" lon="-7.21585"><ele>791.0</ele><time>2026-04-15T09:00:26.85Z</time></trkpt><trkpt lat="42.6942133" lon="-7.2157167"><ele>791.0</ele><time>2026-04-15T09:00:27.85Z</time></trkpt><trkpt lat="42.6942683" lon="-7.215575"><ele>788.0</ele><time>2026-04-15T09:00:28.851Z</time></trkpt><trkpt lat="42.69433" lon="-7.2154367"><ele>785.0</ele><time>2026-04-15T09:00:29.851Z</time></trkpt><trkpt lat="42.694385" lon="-7.2153"><ele>782.0</ele><time>2026-04-15T09:00:30.85Z</time></trkpt><trkpt lat="42.6944367" lon="-7.2151683"><ele>779.0</ele><time>2026-04-15T09:00:31.851Z</time></trkpt><trkpt lat="42.6944733" lon="-7.21502"><ele>779.0</ele><time>2026-04-15T09:00:32.85Z</time></trkpt><trkpt lat="42.694505" lon="-7.21487"><ele>779.0</ele><time>2026-04-15T09:00:33.851Z</time></trkpt><trkpt lat="42.6945333" lon="-7.21473"><ele>779.0</ele><time>2026-04-15T09:00:34.851Z</time></trkpt><trkpt lat="42.6945517" lon="-7.2145817"><ele>779.0</ele><time>2026-04-15T09:00:35.85Z</time></trkpt><trkpt lat="42.6945717" lon="-7.2144533"><ele>779.0</ele><time>2026-04-15T09:00:36.851Z</time></trkpt><trkpt lat="42.6945983" lon="-7.214325"><ele>780.2</ele><time>2026-04-15T09:00:37.85Z</time></trkpt><trkpt lat="42.69463" lon="-7.2141883"><ele>781.4000000000001</ele><time>2026-04-15T09:00:38.851Z</time></trkpt><trkpt lat="42.694665" lon="-7.2140617"><ele>782.6</ele><time>2026-04-15T09:00:39.851Z</time></trkpt><trkpt lat="42.694715" lon="-7.2139317"><ele>783.8</ele><time>2026-04-15T09:00:40.851Z</time></trkpt><trkpt lat="42.6947783" lon="-7.2138"><ele>785.0</ele><time>2026-04-15T09:00:41.851Z</time></trkpt><trkpt lat="42.6948483" lon="-7.2136783"><ele>784.6</ele><time>2026-04-15T09:00:42.851Z</time></trkpt><trkpt lat="42.69492" lon="-7.2135833"><ele>784.2</ele><time>2026-04-15T09:00:43.85Z</time></trkpt><trkpt lat="42.6949967" lon="-7.213515"><ele>783.8</ele><time>2026-04-15T09:00:44.85Z</time></trkpt><trkpt lat="42.6950783" lon="-7.21347"><ele>783.4</ele><time>2026-04-15T09:00:45.851Z</time></trkpt><trkpt lat="42.6951783" lon="-7.2134383"><ele>783.0</ele><time>2026-04-15T09:00:46.85Z</time></trkpt><trkpt lat="42.6952867" lon="-7.213415"><ele>783.0</ele><time>2026-04-15T09:00:47.851Z</time></trkpt><trkpt lat="42.6953933" lon="-7.213395"><ele>783.0</ele><time>2026-04-15T09:00:48.85Z</time></trkpt><trkpt lat="42.6955033" lon="-7.2133967"><ele>783.0</ele><time>2026-04-15T09:00:49.85Z</time></trkpt><trkpt lat="42.6956167" lon="-7.2134183"><ele>783.0</ele><time>2026-04-15T09:00:50.85Z</time></trkpt><trkpt lat="42.69572" lon="-7.2134667"><ele>783.0</ele><time>2026-04-15T09:00:51.85Z</time></trkpt><trkpt lat="42.6958183" lon="-7.213535"><ele>783.0</ele><time>2026-04-15T09:00:52.851Z</time></trkpt><trkpt lat="42.6959183" lon="-7.213615"><ele>783.0</ele><time>2026-04-15T09:00:53.85Z</time></trkpt><trkpt lat="42.6960067" lon="-7.213705"><ele>783.0</ele><time>2026-04-15T09:00:54.85Z</time></trkpt><trkpt lat="42.6960883" lon="-7.2138033"><ele>783.0</ele><time>2026-04-15T09:00:55.85Z</time></trkpt><trkpt lat="42.6961717" lon="-7.2139017"><ele>783.0</ele><time>2026-04-15T09:00:56.851Z</time></trkpt><trkpt lat="42.69625" lon="-7.2140067"><ele>784.8</ele><time>2026-04-15T09:00:57.851Z</time></trkpt><trkpt lat="42.696325" lon="-7.2141167"><ele>786.5999999999999</ele><time>2026-04-15T09:00:58.851Z</time></trkpt><trkpt lat="42.69639" lon="-7.2142317"><ele>788.4000000000001</ele><time>2026-04-15T09:00:59.85Z</time></trkpt><trkpt lat="42.69645" lon="-7.2143333"><ele>790.2</ele><time>2026-04-15T09:01:00.85Z</time></trkpt><trkpt lat="42.6965033" lon="-7.2144367"><ele>792.0</ele><time>2026-04-15T09:01:01.85Z</time></trkpt><trkpt lat="42.69656" lon="-7.2145117"><ele>792.0</ele><time>2026-04-15T09:01:02.851Z</time></trkpt><trkpt lat="42.6966183" lon="-7.21456"><ele>792.0</ele><time>2026-04-15T09:01:03.851Z</time></trkpt><trkpt lat="42.6967317" lon="-7.214575"><ele>792.0</ele><time>2026-04-15T09:01:05.85Z</time></trkpt><trkpt lat="42.6967983" lon="-7.21458"><ele>792.0</ele><time>2026-04-15T09:01:06.85Z</time></trkpt><trkpt lat="42.6968667" lon="-7.214595"><ele>792.0</ele><time>2026-04-15T09:01:07.851Z</time></trkpt><trkpt lat="42.69693" lon="-7.21463"><ele>792.0</ele><time>2026-04-15T09:01:08.85Z</time></trkpt><trkpt lat="42.6970183" lon="-7.2146817"><ele>796.2</ele><time>2026-04-15T09:01:09.851Z</time></trkpt><trkpt lat="42.6971117" lon="-7.214735"><ele>800.4000000000001</ele><time>2026-04-15T09:01:10.85Z</time></trkpt><trkpt lat="42.69721" lon="-7.2148"><ele>804.5999999999999</ele><time>2026-04-15T09:01:11.851Z</time></trkpt><trkpt lat="42.6973083" lon="-7.21486"><ele>808.8</ele><time>2026-04-15T09:01:12.85Z</time></trkpt><trkpt lat="42.697405" lon="-7.2148967"><ele>813.0</ele><time>2026-04-15T09:01:13.85Z</time></trkpt><trkpt lat="42.6974783" lon="-7.2148883"><ele>813.8</ele><time>2026-04-15T09:01:14.85Z</time></trkpt><trkpt lat="42.6975717" lon="-7.2147933"><ele>814.5999999999999</ele><time>2026-04-15T09:01:16.85Z</time></trkpt><trkpt lat="42.6975883" lon="-7.2146983"><ele>815.4000000000001</ele><time>2026-04-15T09:01:17.85Z</time></trkpt><trkpt lat="42.6975633" lon="-7.2145583"><ele>816.2</ele><time>2026-04-15T09:01:18.851Z</time></trkpt><trkpt lat="42.6975033" lon="-7.214405"><ele>817.0</ele><time>2026-04-15T09:01:19.851Z</time></trkpt><trkpt lat="42.69741" lon="-7.214265"><ele>817.0</ele><time>2026-04-15T09:01:20.851Z</time></trkpt><trkpt lat="42.6973067" lon="-7.2141"><ele>817.0</ele><time>2026-04-15T09:01:21.851Z</time></trkpt><trkpt lat="42.6972217" lon="-7.2139333"><ele>817.0</ele><time>2026-04-15T09:01:22.85Z</time></trkpt><trkpt lat="42.6971517" lon="-7.2137683"><ele>817.0</ele><time>2026-04-15T09:01:23.851Z</time></trkpt><trkpt lat="42.697085" lon="-7.2136117"><ele>817.0</ele><time>2026-04-15T09:01:24.851Z</time></trkpt><trkpt lat="42.6970233" lon="-7.2134567"><ele>817.0</ele><time>2026-04-15T09:01:25.85Z</time></trkpt><trkpt lat="42.6969617" lon="-7.213305"><ele>817.0</ele><time>2026-04-15T09:01:26.851Z</time></trkpt><trkpt lat="42.6968967" lon="-7.2131717"><ele>817.0</ele><time>2026-04-15T09:01:27.85Z</time></trkpt><trkpt lat="42.6968383" lon="-7.2130217"><ele>817.0</ele><time>2026-04-15T09:01:28.851Z</time></trkpt><trkpt lat="42.6967867" lon="-7.21288"><ele>817.0</ele><time>2026-04-15T09:01:29.851Z</time></trkpt><trkpt lat="42.696735" lon="-7.2127367"><ele>817.0</ele><time>2026-04-15T09:01:30.85Z</time></trkpt><trkpt lat="42.6966733" lon="-7.212595"><ele>817.0</ele><time>2026-04-15T09:01:31.85Z</time></trkpt><trkpt lat="42.6966233" lon="-7.2124633"><ele>816.9999999999999</ele><time>2026-04-15T09:01:32.851Z</time></trkpt><trkpt lat="42.69658" lon="-7.2123467"><ele>817.0</ele><time>2026-04-15T09:01:33.85Z</time></trkpt><trkpt lat="42.6965583" lon="-7.2122283"><ele>817.0</ele><time>2026-04-15T09:01:34.851Z</time></trkpt><trkpt lat="42.6965633" lon="-7.2121233"><ele>817.0</ele><time>2026-04-15T09:01:35.851Z</time></trkpt><trkpt lat="42.6966" lon="-7.2120333"><ele>816.9999999999999</ele><time>2026-04-15T09:01:36.85Z</time></trkpt><trkpt lat="42.69667" lon="-7.21195"><ele>817.0</ele><time>2026-04-15T09:01:37.85Z</time></trkpt><trkpt lat="42.6967667" lon="-7.211865"><ele>816.5</ele><time>2026-04-15T09:01:38.85Z</time></trkpt><trkpt lat="42.6968683" lon="-7.2117717"><ele>816.0</ele><time>2026-04-15T09:01:39.851Z</time></trkpt><trkpt lat="42.69696" lon="-7.2116733"><ele>815.5</ele><time>2026-04-15T09:01:40.851Z</time></trkpt><trkpt lat="42.6970533" lon="-7.2115767"><ele>815.0</ele><time>2026-04-15T09:01:41.851Z</time></trkpt><trkpt lat="42.6971433" lon="-7.2114833"><ele>822.25</ele><time>2026-04-15T09:01:42.85Z</time></trkpt><trkpt lat="42.69723" lon="-7.2113583"><ele>829.5</ele><time>2026-04-15T09:01:43.85Z</time></trkpt><trkpt lat="42.6973" lon="-7.2112217"><ele>836.75</ele><time>2026-04-15T09:01:44.851Z</time></trkpt><trkpt lat="42.6973517" lon="-7.2110667"><ele>844.0</ele><time>2026-04-15T09:01:45.85Z</time></trkpt><trkpt lat="42.69739" lon="-7.210905"><ele>844.0</ele><time>2026-04-15T09:01:46.851Z</time></trkpt><trkpt lat="42.6974367" lon="-7.2107583"><ele>844.0</ele><time>2026-04-15T09:01:47.851Z</time></trkpt><trkpt lat="42.6975" lon="-7.21063"><ele>844.0</ele><time>2026-04-15T09:01:48.85Z</time></trkpt><trkpt lat="42.6975767" lon="-7.210525"><ele>844.0</ele><time>2026-04-15T09:01:49.85Z</time></trkpt><trkpt lat="42.69767" lon="-7.2104617"><ele>844.0</ele><time>2026-04-15T09:01:50.85Z</time></trkpt><trkpt lat="42.6977733" lon="-7.2104083"><ele>847.25</ele><time>2026-04-15T09:01:51.85Z</time></trkpt><trkpt lat="42.6978883" lon="-7.2103633"><ele>850.5</ele><time>2026-04-15T09:01:52.851Z</time></trkpt><trkpt lat="42.697995" lon="-7.2103017"><ele>853.75</ele><time>2026-04-15T09:01:53.85Z</time></trkpt><trkpt lat="42.6980883" lon="-7.210225"><ele>857.0</ele><time>2026-04-15T09:01:54.851Z</time></trkpt><trkpt lat="42.69819" lon="-7.21015"><ele>857.0</ele><time>2026-04-15T09:01:55.851Z</time></trkpt><trkpt lat="42.6983067" lon="-7.2100867"><ele>857.0</ele><time>2026-04-15T09:01:56.851Z</time></trkpt><trkpt lat="42.698405" lon="-7.2100383"><ele>857.0</ele><time>2026-04-15T09:01:57.85Z</time></trkpt><trkpt lat="42.6985217" lon="-7.209975"><ele>857.0</ele><time>2026-04-15T09:01:58.85Z</time></trkpt><trkpt lat="42.6986317" lon="-7.2099117"><ele>857.75</ele><time>2026-04-15T09:01:59.85Z</time></trkpt><trkpt lat="42.6987417" lon="-7.20984"><ele>858.5</ele><time>2026-04-15T09:02:00.851Z</time></trkpt><trkpt lat="42.6988483" lon="-7.209755"><ele>859.25</ele><time>2026-04-15T09:02:01.85Z</time></trkpt><trkpt lat="42.698945" lon="-7.209665"><ele>860.0</ele><time>2026-04-15T09:02:02.85Z</time></trkpt><trkpt lat="42.6990317" lon="-7.2095667"><ele>860.0</ele><time>2026-04-15T09:02:03.85Z</time></trkpt><trkpt lat="42.6991117" lon="-7.2094833"><ele>860.0</ele><time>2026-04-15T09:02:04.851Z</time></trkpt><trkpt lat="42.6991883" lon="-7.209395"><ele>860.0</ele><time>2026-04-15T09:02:05.85Z</time></trkpt><trkpt lat="42.699275" lon="-7.2092983"><ele>860.0</ele><time>2026-04-15T09:02:06.85Z</time></trkpt><trkpt lat="42.6993667" lon="-7.2092033"><ele>860.0</ele><time>2026-04-15T09:02:07.851Z</time></trkpt><trkpt lat="42.6994467" lon="-7.2091167"><ele>865.4</ele><time>2026-04-15T09:02:08.851Z</time></trkpt><trkpt lat="42.699535" lon="-7.2090233"><ele>870.8</ele><time>2026-04-15T09:02:09.85Z</time></trkpt><trkpt lat="42.6996283" lon="-7.20893"><ele>876.2</ele><time>2026-04-15T09:02:10.851Z</time></trkpt><trkpt lat="42.69972" lon="-7.2088467"><ele>881.6</ele><time>2026-04-15T09:02:11.85Z</time></trkpt><trkpt lat="42.6998017" lon="-7.208765"><ele>887.0</ele><time>2026-04-15T09:02:12.85Z</time></trkpt><trkpt lat="42.6998617" lon="-7.2086783"><ele>887.0000000000001</ele><time>2026-04-15T09:02:13.851Z</time></trkpt><trkpt lat="42.6998867" lon="-7.2085717"><ele>887.0</ele><time>2026-04-15T09:02:14.85Z</time></trkpt><trkpt lat="42.6998867" lon="-7.20847"><ele>887.0</ele><time>2026-04-15T09:02:15.85Z</time></trkpt><trkpt lat="42.6998433" lon="-7.2083717"><ele>887.0</ele><time>2026-04-15T09:02:16.85Z</time></trkpt><trkpt lat="42.69977" lon="-7.2082817"><ele>887.0000000000001</ele><time>2026-04-15T09:02:17.85Z</time></trkpt><trkpt lat="42.69967" lon="-7.2082217"><ele>887.0</ele><time>2026-04-15T09:02:18.85Z</time></trkpt><trkpt lat="42.6995433" lon="-7.2081717"><ele>888.0</ele><time>2026-04-15T09:02:19.85Z</time></trkpt><trkpt lat="42.6994167" lon="-7.20812"><ele>889.0</ele><time>2026-04-15T09:02:20.85Z</time></trkpt><trkpt lat="42.6992967" lon="-7.2080633"><ele>890.0</ele><time>2026-04-15T09:02:21.85Z</time></trkpt><trkpt lat="42.6991867" lon="-7.2079917"><ele>891.0</ele><time>2026-04-15T09:02:22.85Z</time></trkpt><trkpt lat="42.699075" lon="-7.2079233"><ele>891.0</ele><time>2026-04-15T09:02:23.851Z</time></trkpt><trkpt lat="42.6989817" lon="-7.2078383"><ele>890.9999999999999</ele><time>2026-04-15T09:02:24.85Z</time></trkpt><trkpt lat="42.6988917" lon="-7.2077333"><ele>890.9999999999999</ele><time>2026-04-15T09:02:25.851Z</time></trkpt><trkpt lat="42.6988117" lon="-7.2076267"><ele>891.0</ele><time>2026-04-15T09:02:26.851Z</time></trkpt><trkpt lat="42.6987483" lon="-7.207515"><ele>891.0</ele><time>2026-04-15T09:02:27.85Z</time></trkpt><trkpt lat="42.6986817" lon="-7.2073917"><ele>890.25</ele><time>2026-04-15T09:02:28.85Z</time></trkpt><trkpt lat="42.6986233" lon="-7.2072583"><ele>889.5</ele><time>2026-04-15T09:02:29.85Z</time></trkpt><trkpt lat="42.69856" lon="-7.207125"><ele>888.75</ele><time>2026-04-15T09:02:30.85Z</time></trkpt><trkpt lat="42.6984833" lon="-7.2069833"><ele>888.0</ele><time>2026-04-15T09:02:31.851Z</time></trkpt><trkpt lat="42.6984083" lon="-7.20682"><ele>888.0</ele><time>2026-04-15T09:02:32.851Z</time></trkpt><trkpt lat="42.6983417" lon="-7.206645"><ele>888.0</ele><time>2026-04-15T09:02:33.852Z</time></trkpt><trkpt lat="42.6983017" lon="-7.2064667"><ele>888.0</ele><time>2026-04-15T09:02:34.851Z</time></trkpt><trkpt lat="42.6982717" lon="-7.2062867"><ele>888.0</ele><time>2026-04-15T09:02:35.851Z</time></trkpt><trkpt lat="42.6982667" lon="-7.2061067"><ele>886.4</ele><time>2026-04-15T09:02:36.852Z</time></trkpt><trkpt lat="42.6982833" lon="-7.2059567"><ele>884.8</ele><time>2026-04-15T09:02:37.851Z</time></trkpt><trkpt lat="42.698315" lon="-7.2058383"><ele>883.2</ele><time>2026-04-15T09:02:38.852Z</time></trkpt><trkpt lat="42.6983683" lon="-7.2057383"><ele>881.6</ele><time>2026-04-15T09:02:39.852Z</time></trkpt><trkpt lat="42.6984367" lon="-7.2056383"><ele>880.0</ele><time>2026-04-15T09:02:40.851Z</time></trkpt><trkpt lat="42.698515" lon="-7.2055517"><ele>889.25</ele><time>2026-04-15T09:02:41.852Z</time></trkpt><trkpt lat="42.6986017" lon="-7.20547"><ele>898.5</ele><time>2026-04-15T09:02:42.851Z</time></trkpt><trkpt lat="42.6987067" lon="-7.205375"><ele>907.75</ele><time>2026-04-15T09:02:43.852Z</time></trkpt><trkpt lat="42.69883" lon="-7.2052683"><ele>917.0</ele><time>2026-04-15T09:02:44.852Z</time></trkpt><trkpt lat="42.6989533" lon="-7.2051567"><ele>917.0</ele><time>2026-04-15T09:02:45.851Z</time></trkpt><trkpt lat="42.6990533" lon="-7.2050633"><ele>917.0</ele><time>2026-04-15T09:02:46.852Z</time></trkpt><trkpt lat="42.6991117" lon="-7.2050133"><ele>917.0</ele><time>2026-04-15T09:02:47.852Z</time></trkpt><trkpt lat="42.6990767" lon="-7.205165"><ele>917.0</ele><time>2026-04-15T09:02:52.851Z</time></trkpt><trkpt lat="42.6990033" lon="-7.20527"><ele>917.0</ele><time>2026-04-15T09:02:53.851Z</time></trkpt><trkpt lat="42.698935" lon="-7.2053717"><ele>917.0</ele><time>2026-04-15T09:02:54.851Z</time></trkpt><trkpt lat="42.6988833" lon="-7.2054767"><ele>917.0</ele><time>2026-04-15T09:02:55.852Z</time></trkpt><trkpt lat="42.698845" lon="-7.2056067"><ele>917.0</ele><time>2026-04-15T09:02:56.851Z</time></trkpt><trkpt lat="42.6988233" lon="-7.2057317"><ele>917.0</ele><time>2026-04-15T09:02:57.851Z</time></trkpt><trkpt lat="42.6988267" lon="-7.2058533"><ele>917.0</ele><time>2026-04-15T09:02:58.852Z</time></trkpt><trkpt lat="42.69885" lon="-7.2059617"><ele>920.5</ele><time>2026-04-15T09:02:59.852Z</time></trkpt><trkpt lat="42.6988983" lon="-7.206055"><ele>924.0</ele><time>2026-04-15T09:03:00.852Z</time></trkpt><trkpt lat="42.698985" lon="-7.2061417"><ele>927.5</ele><time>2026-04-15T09:03:01.851Z</time></trkpt><trkpt lat="42.6990933" lon="-7.2062333"><ele>931.0</ele><time>2026-04-15T09:03:02.851Z</time></trkpt><trkpt lat="42.6992183" lon="-7.2063233"><ele>931.0</ele><time>2026-04-15T09:03:03.851Z</time></trkpt><trkpt lat="42.6993667" lon="-7.2064033"><ele>931.0</ele><time>2026-04-15T09:03:04.851Z</time></trkpt><trkpt lat="42.6995217" lon="-7.20646"><ele>931.0</ele><time>2026-04-15T09:03:05.852Z</time></trkpt><trkpt lat="42.6996917" lon="-7.206515"><ele>935.0</ele><time>2026-04-15T09:03:06.851Z</time></trkpt><trkpt lat="42.6998733" lon="-7.20657"><ele>939.0</ele><time>2026-04-15T09:03:07.852Z</time></trkpt><trkpt lat="42.7000517" lon="-7.206625"><ele>943.0</ele><time>2026-04-15T09:03:08.852Z</time></trkpt><trkpt lat="42.70023" lon="-7.2066733"><ele>950.6666666666666</ele><time>2026-04-15T09:03:09.852Z</time></trkpt><trkpt lat="42.7003967" lon="-7.2067233"><ele>958.3333333333333</ele><time>2026-04-15T09:03:10.851Z</time></trkpt><trkpt lat="42.7005467" lon="-7.2067733"><ele>966.0</ele><time>2026-04-15T09:03:11.851Z</time></trkpt><trkpt lat="42.700695" lon="-7.2068383"><ele>966.0</ele><time>2026-04-15T09:03:12.852Z</time></trkpt><trkpt lat="42.7008417" lon="-7.206915"><ele>966.0</ele><time>2026-04-15T09:03:13.851Z</time></trkpt><trkpt lat="42.7009983" lon="-7.207"><ele>966.0</ele><time>2026-04-15T09:03:14.852Z</time></trkpt><trkpt lat="42.7011583" lon="-7.20709"><ele>969.6666666666667</ele><time>2026-04-15T09:03:15.851Z</time></trkpt><trkpt lat="42.701315" lon="-7.2071917"><ele>973.3333333333334</ele><time>2026-04-15T09:03:16.851Z</time></trkpt><trkpt lat="42.701465" lon="-7.2072883"><ele>977.0</ele><time>2026-04-15T09:03:17.851Z</time></trkpt><trkpt lat="42.701625" lon="-7.2073733"><ele>977.0</ele><time>2026-04-15T09:03:18.851Z</time></trkpt><trkpt lat="42.7017767" lon="-7.207475"><ele>977.0</ele><time>2026-04-15T09:03:19.852Z</time></trkpt><trkpt lat="42.7019267" lon="-7.2075867"><ele>977.0</ele><time>2026-04-15T09:03:20.852Z</time></trkpt><trkpt lat="42.7020733" lon="-7.2077083"><ele>987.6666666666667</ele><time>2026-04-15T09:03:21.851Z</time></trkpt><trkpt lat="42.7022117" lon="-7.20783"><ele>998.3333333333333</ele><time>2026-04-15T09:03:22.851Z</time></trkpt><trkpt lat="42.7023367" lon="-7.2079367"><ele>1009.0</ele><time>2026-04-15T09:03:23.852Z</time></trkpt><trkpt lat="42.7024617" lon="-7.2080533"><ele>1005.8000000000001</ele><time>2026-04-15T09:03:24.852Z</time></trkpt><trkpt lat="42.7025617" lon="-7.208175"><ele>1002.6000000000001</ele><time>2026-04-15T09:03:25.852Z</time></trkpt><trkpt lat="42.7026367" lon="-7.2082767"><ele>999.4</ele><time>2026-04-15T09:03:26.851Z</time></trkpt><trkpt lat="42.7027117" lon="-7.2083367"><ele>996.2</ele><time>2026-04-15T09:03:28.851Z</time></trkpt><trkpt lat="42.7027133" lon="-7.2082417"><ele>993.0</ele><time>2026-04-15T09:03:30.851Z</time></trkpt><trkpt lat="42.7026783" lon="-7.2081683"><ele>996.2</ele><time>2026-04-15T09:03:31.851Z</time></trkpt><trkpt lat="42.702635" lon="-7.2080667"><ele>999.4</ele><time>2026-04-15T09:03:32.851Z</time></trkpt><trkpt lat="42.7025883" lon="-7.2079483"><ele>1002.6000000000001</ele><time>2026-04-15T09:03:33.852Z</time></trkpt><trkpt lat="42.702545" lon="-7.20782"><ele>1005.8000000000001</ele><time>2026-04-15T09:03:34.852Z</time></trkpt><trkpt lat="42.7025067" lon="-7.207685"><ele>1009.0</ele><time>2026-04-15T09:03:35.851Z</time></trkpt><trkpt lat="42.70246" lon="-7.2075367"><ele>1009.0</ele><time>2026-04-15T09:03:36.851Z</time></trkpt><trkpt lat="42.7024067" lon="-7.2073917"><ele>1009.0</ele><time>2026-04-15T09:03:37.852Z</time></trkpt><trkpt lat="42.7023433" lon="-7.2072217"><ele>1009.0</ele><time>2026-04-15T09:03:38.851Z</time></trkpt><trkpt lat="42.702275" lon="-7.20705"><ele>1009.0</ele><time>2026-04-15T09:03:39.852Z</time></trkpt><trkpt lat="42.7021933" lon="-7.2068567"><ele>1016.0</ele><time>2026-04-15T09:03:40.851Z</time></trkpt><trkpt lat="42.7021067" lon="-7.206665"><ele>1023.0</ele><time>2026-04-15T09:03:41.851Z</time></trkpt><trkpt lat="42.702035" lon="-7.206485"><ele>1030.0</ele><time>2026-04-15T09:03:42.851Z</time></trkpt><trkpt lat="42.70199" lon="-7.2062967"><ele>1033.75</ele><time>2026-04-15T09:03:43.852Z</time></trkpt><trkpt lat="42.7019633" lon="-7.206095"><ele>1037.5</ele><time>2026-04-15T09:03:44.851Z</time></trkpt><trkpt lat="42.7019517" lon="-7.2058933"><ele>1041.25</ele><time>2026-04-15T09:03:45.851Z</time></trkpt><trkpt lat="42.70196" lon="-7.2057"><ele>1045.0</ele><time>2026-04-15T09:03:46.852Z</time></trkpt><trkpt lat="42.7019833" lon="-7.2055283"><ele>1045.6</ele><time>2026-04-15T09:03:47.852Z</time></trkpt><trkpt lat="42.7020167" lon="-7.205375"><ele>1046.2</ele><time>2026-04-15T09:03:48.852Z</time></trkpt><trkpt lat="42.7020467" lon="-7.2052217"><ele>1046.8</ele><time>2026-04-15T09:03:49.852Z</time></trkpt><trkpt lat="42.7020817" lon="-7.205125"><ele>1047.4</ele><time>2026-04-15T09:03:50.852Z</time></trkpt><trkpt lat="42.70214" lon="-7.2050817"><ele>1048.0</ele><time>2026-04-15T09:03:52.852Z</time></trkpt><trkpt lat="42.70216" lon="-7.2051917"><ele>1048.0</ele><time>2026-04-15T09:03:54.851Z</time></trkpt><trkpt lat="42.7021583" lon="-7.2053367"><ele>1048.0</ele><time>2026-04-15T09:03:56.851Z</time></trkpt><trkpt lat="42.7022217" lon="-7.2054767"><ele>1048.0</ele><time>2026-04-15T09:03:58.851Z</time></trkpt><trkpt lat="42.7022767" lon="-7.2055733"><ele>1048.0</ele><time>2026-04-15T09:03:59.851Z</time></trkpt><trkpt lat="42.7023433" lon="-7.2056833"><ele>1048.0</ele><time>2026-04-15T09:04:00.852Z</time></trkpt><trkpt lat="42.702425" lon="-7.2058117"><ele>1047.25</ele><time>2026-04-15T09:04:01.851Z</time></trkpt><trkpt lat="42.7025017" lon="-7.205935"><ele>1046.5</ele><time>2026-04-15T09:04:02.852Z</time></trkpt><trkpt lat="42.70258" lon="-7.2060283"><ele>1045.75</ele><time>2026-04-15T09:04:03.851Z</time></trkpt><trkpt lat="42.70268" lon="-7.2060917"><ele>1045.0</ele><time>2026-04-15T09:04:04.852Z</time></trkpt><trkpt lat="42.702795" lon="-7.20617"><ele>1049.75</ele><time>2026-04-15T09:04:05.851Z</time></trkpt><trkpt lat="42.702905" lon="-7.2062667"><ele>1054.5</ele><time>2026-04-15T09:04:06.851Z</time></trkpt><trkpt lat="42.7030283" lon="-7.2063733"><ele>1059.25</ele><time>2026-04-15T09:04:07.852Z</time></trkpt><trkpt lat="42.7031617" lon="-7.2064683"><ele>1064.0</ele><time>2026-04-15T09:04:08.851Z</time></trkpt><trkpt lat="42.7032983" lon="-7.2065533"><ele>1064.0</ele><time>2026-04-15T09:04:09.851Z</time></trkpt><trkpt lat="42.703435" lon="-7.2066467"><ele>1064.0</ele><time>2026-04-15T09:04:10.851Z</time></trkpt><trkpt lat="42.7035667" lon="-7.2067683"><ele>1064.0</ele><time>2026-04-15T09:04:11.851Z</time></trkpt><trkpt lat="42.703695" lon="-7.2068933"><ele>1075.0</ele><time>2026-04-15T09:04:12.852Z</time></trkpt><trkpt lat="42.7038183" lon="-7.2070133"><ele>1086.0</ele><time>2026-04-15T09:04:13.851Z</time></trkpt><trkpt lat="42.703945" lon="-7.2071367"><ele>1097.0</ele><time>2026-04-15T09:04:14.852Z</time></trkpt><trkpt lat="42.7040783" lon="-7.20727"><ele>1102.0</ele><time>2026-04-15T09:04:15.851Z</time></trkpt><trkpt lat="42.704205" lon="-7.2073817"><ele>1107.0</ele><time>2026-04-15T09:04:16.851Z</time></trkpt><trkpt lat="42.7043317" lon="-7.2075033"><ele>1112.0</ele><time>2026-04-15T09:04:17.851Z</time></trkpt><trkpt lat="42.7044317" lon="-7.207635"><ele>1117.0</ele><time>2026-04-15T09:04:18.851Z</time></trkpt><trkpt lat="42.70453" lon="-7.207745"><ele>1117.0</ele><time>2026-04-15T09:04:19.851Z</time></trkpt><trkpt lat="42.704625" lon="-7.2078417"><ele>1117.0</ele><time>2026-04-15T09:04:20.852Z</time></trkpt><trkpt lat="42.7046967" lon="-7.207935"><ele>1117.0</ele><time>2026-04-15T09:04:21.851Z</time></trkpt><trkpt lat="42.70475" lon="-7.2080317"><ele>1117.0</ele><time>2026-04-15T09:04:22.851Z</time></trkpt><trkpt lat="42.70479" lon="-7.20815"><ele>1117.0</ele><time>2026-04-15T09:04:23.852Z</time></trkpt><trkpt lat="42.704815" lon="-7.2082767"><ele>1116.4</ele><time>2026-04-15T09:04:24.851Z</time></trkpt><trkpt lat="42.7048383" lon="-7.2084133"><ele>1115.8000000000002</ele><time>2026-04-15T09:04:25.852Z</time></trkpt><trkpt lat="42.7048617" lon="-7.2085583"><ele>1115.2</ele><time>2026-04-15T09:04:26.852Z</time></trkpt><trkpt lat="42.7048883" lon="-7.208715"><ele>1114.6000000000001</ele><time>2026-04-15T09:04:27.852Z</time></trkpt><trkpt lat="42.704905" lon="-7.2088683"><ele>1114.0</ele><time>2026-04-15T09:04:28.852Z</time></trkpt><trkpt lat="42.7049183" lon="-7.2090433"><ele>1114.0</ele><time>2026-04-15T09:04:29.852Z</time></trkpt><trkpt lat="42.704925" lon="-7.2092117"><ele>1114.0</ele><time>2026-04-15T09:04:30.852Z</time></trkpt><trkpt lat="42.7049267" lon="-7.2093317"><ele>1114.0</ele><time>2026-04-15T09:04:31.851Z</time></trkpt><trkpt lat="42.70499" lon="-7.20928"><ele>1114.0</ele><time>2026-04-15T09:04:35.851Z</time></trkpt><trkpt lat="42.7050317" lon="-7.2091517"><ele>1114.0</ele><time>2026-04-15T09:04:37.851Z</time></trkpt><trkpt lat="42.70509" lon="-7.2090167"><ele>1113.1666666666665</ele><time>2026-04-15T09:04:39.852Z</time></trkpt><trkpt lat="42.7051633" lon="-7.2088717"><ele>1112.3333333333333</ele><time>2026-04-15T09:04:41.852Z</time></trkpt><trkpt lat="42.7052117" lon="-7.208805"><ele>1111.5</ele><time>2026-04-15T09:04:42.851Z</time></trkpt><trkpt lat="42.7052483" lon="-7.2087317"><ele>1110.6666666666667</ele><time>2026-04-15T09:04:43.851Z</time></trkpt><trkpt lat="42.7052867" lon="-7.2086583"><ele>1109.8333333333335</ele><time>2026-04-15T09:04:44.852Z</time></trkpt><trkpt lat="42.7053267" lon="-7.2085883"><ele>1109.0</ele><time>2026-04-15T09:04:45.852Z</time></trkpt><trkpt lat="42.7053633" lon="-7.2085117"><ele>1117.6000000000001</ele><time>2026-04-15T09:04:46.851Z</time></trkpt><trkpt lat="42.7054" lon="-7.2084267"><ele>1126.2</ele><time>2026-04-15T09:04:47.851Z</time></trkpt><trkpt lat="42.7054333" lon="-7.2083417"><ele>1134.8000000000002</ele><time>2026-04-15T09:04:48.851Z</time></trkpt><trkpt lat="42.7054867" lon="-7.2082083"><ele>1143.4</ele><time>2026-04-15T09:04:50.851Z</time></trkpt><trkpt lat="42.7055483" lon="-7.2080833"><ele>1152.0</ele><time>2026-04-15T09:04:52.851Z</time></trkpt><trkpt lat="42.7056217" lon="-7.2079783"><ele>1152.8333333333333</ele><time>2026-04-15T09:04:54.851Z</time></trkpt><trkpt lat="42.7056483" lon="-7.2078783"><ele>1153.6666666666667</ele><time>2026-04-15T09:04:56.852Z</time></trkpt><trkpt lat="42.7056767" lon="-7.2077767"><ele>1154.5</ele><time>2026-04-15T09:04:58.851Z</time></trkpt><trkpt lat="42.705705" lon="-7.20767"><ele>1155.3333333333335</ele><time>2026-04-15T09:05:00.851Z</time></trkpt><trkpt lat="42.7057383" lon="-7.2075633"><ele>1156.1666666666667</ele><time>2026-04-15T09:05:02.852Z</time></trkpt><trkpt lat="42.7057683" lon="-7.2074183"><ele>1157.0</ele><time>2026-04-15T09:05:04.851Z</time></trkpt><trkpt lat="42.7058" lon="-7.2072717"><ele>1158.7142857142858</ele><time>2026-04-15T09:05:06.852Z</time></trkpt><trkpt lat="42.70582" lon="-7.2071883"><ele>1160.4285714285713</ele><time>2026-04-15T09:05:07.851Z</time></trkpt><trkpt lat="42.7058333" lon="-7.2070933"><ele>1162.142857142857</ele><time>2026-04-15T09:05:08.852Z</time></trkpt><trkpt lat="42.705845" lon="-7.207"><ele>1163.857142857143</ele><time>2026-04-15T09:05:09.851Z</time></trkpt><trkpt lat="42.7058367" lon="-7.2069017"><ele>1165.5714285714284</ele><time>2026-04-15T09:05:10.852Z</time></trkpt><trkpt lat="42.7058333" lon="-7.2067983"><ele>1167.2857142857142</ele><time>2026-04-15T09:05:11.851Z</time></trkpt><trkpt lat="42.705835" lon="-7.2066767"><ele>1169.0</ele><time>2026-04-15T09:05:12.851Z</time></trkpt><trkpt lat="42.7058333" lon="-7.206555"><ele>1172.0</ele><time>2026-04-15T09:05:13.852Z</time></trkpt><trkpt lat="42.70582" lon="-7.2064317"><ele>1175.0</ele><time>2026-04-15T09:05:14.851Z</time></trkpt><trkpt lat="42.7058167" lon="-7.2063"><ele>1178.0</ele><time>2026-04-15T09:05:15.851Z</time></trkpt><trkpt lat="42.7058117" lon="-7.2061583"><ele>1181.0</ele><time>2026-04-15T09:05:16.851Z</time></trkpt><trkpt lat="42.7058067" lon="-7.2060133"><ele>1184.0</ele><time>2026-04-15T09:05:17.852Z</time></trkpt><trkpt lat="42.7058033" lon="-7.2058767"><ele>1184.0</ele><time>2026-04-15T09:05:18.852Z</time></trkpt><trkpt lat="42.7057783" lon="-7.2057683"><ele>1184.0</ele><time>2026-04-15T09:05:19.851Z</time></trkpt><trkpt lat="42.7057517" lon="-7.20567"><ele>1184.0</ele><time>2026-04-15T09:05:20.851Z</time></trkpt><trkpt lat="42.7057233" lon="-7.20557"><ele>1184.0</ele><time>2026-04-15T09:05:21.852Z</time></trkpt><trkpt lat="42.7057167" lon="-7.20547"><ele>1184.0</ele><time>2026-04-15T09:05:22.852Z</time></trkpt><trkpt lat="42.7057383" lon="-7.2053667"><ele>1184.0</ele><time>2026-04-15T09:05:23.851Z</time></trkpt><trkpt lat="42.70577" lon="-7.2052517"><ele>1184.2</ele><time>2026-04-15T09:05:24.852Z</time></trkpt><trkpt lat="42.7058033" lon="-7.205125"><ele>1184.4</ele><time>2026-04-15T09:05:25.852Z</time></trkpt><trkpt lat="42.7058433" lon="-7.2049883"><ele>1184.6</ele><time>2026-04-15T09:05:26.851Z</time></trkpt><trkpt lat="42.7058967" lon="-7.2048517"><ele>1184.8</ele><time>2026-04-15T09:05:27.851Z</time></trkpt><trkpt lat="42.7059617" lon="-7.204745"><ele>1185.0</ele><time>2026-04-15T09:05:28.851Z</time></trkpt><trkpt lat="42.7060217" lon="-7.2046633"><ele>1190.6666666666667</ele><time>2026-04-15T09:05:29.851Z</time></trkpt><trkpt lat="42.7061067" lon="-7.20461"><ele>1196.3333333333333</ele><time>2026-04-15T09:05:31.852Z</time></trkpt><trkpt lat="42.70614" lon="-7.2047017"><ele>1202.0</ele><time>2026-04-15T09:05:33.852Z</time></trkpt><trkpt lat="42.706165" lon="-7.20479"><ele>1207.6666666666665</ele><time>2026-04-15T09:05:34.852Z</time></trkpt><trkpt lat="42.706195" lon="-7.2048767"><ele>1213.3333333333333</ele><time>2026-04-15T09:05:35.851Z</time></trkpt><trkpt lat="42.7062317" lon="-7.2049583"><ele>1219.0</ele><time>2026-04-15T09:05:36.852Z</time></trkpt><trkpt lat="42.7062717" lon="-7.205065"><ele>1219.0</ele><time>2026-04-15T09:05:37.851Z</time></trkpt><trkpt lat="42.7063217" lon="-7.2051833"><ele>1219.0</ele><time>2026-04-15T09:05:38.852Z</time></trkpt><trkpt lat="42.7063817" lon="-7.2052933"><ele>1219.0</ele><time>2026-04-15T09:05:39.852Z</time></trkpt><trkpt lat="42.7064617" lon="-7.2054017"><ele>1219.0</ele><time>2026-04-15T09:05:40.852Z</time></trkpt><trkpt lat="42.706555" lon="-7.2054983"><ele>1219.0</ele><time>2026-04-15T09:05:41.851Z</time></trkpt><trkpt lat="42.706655" lon="-7.20559"><ele>1217.5</ele><time>2026-04-15T09:05:42.852Z</time></trkpt><trkpt lat="42.7067533" lon="-7.2056783"><ele>1216.0</ele><time>2026-04-15T09:05:43.851Z</time></trkpt><trkpt lat="42.7068517" lon="-7.2057767"><ele>1214.5</ele><time>2026-04-15T09:05:44.851Z</time></trkpt><trkpt lat="42.7069517" lon="-7.2058717"><ele>1213.0</ele><time>2026-04-15T09:05:45.851Z</time></trkpt><trkpt lat="42.7070483" lon="-7.2059633"><ele>1219.5</ele><time>2026-04-15T09:05:46.852Z</time></trkpt><trkpt lat="42.7071433" lon="-7.20607"><ele>1226.0</ele><time>2026-04-15T09:05:47.852Z</time></trkpt><trkpt lat="42.707225" lon="-7.2061933"><ele>1232.5</ele><time>2026-04-15T09:05:48.851Z</time></trkpt><trkpt lat="42.7073" lon="-7.2063417"><ele>1239.0</ele><time>2026-04-15T09:05:49.852Z</time></trkpt><trkpt lat="42.7073617" lon="-7.2065"><ele>1239.0</ele><time>2026-04-15T09:05:50.851Z</time></trkpt><trkpt lat="42.7074317" lon="-7.2066583"><ele>1239.0</ele><time>2026-04-15T09:05:51.851Z</time></trkpt><trkpt lat="42.7074917" lon="-7.206825"><ele>1239.0</ele><time>2026-04-15T09:05:52.851Z</time></trkpt><trkpt lat="42.7075433" lon="-7.2069967"><ele>1239.0</ele><time>2026-04-15T09:05:53.852Z</time></trkpt><trkpt lat="42.7075967" lon="-7.2071783"><ele>1238.75</ele><time>2026-04-15T09:05:54.851Z</time></trkpt><trkpt lat="42.7076367" lon="-7.2073533"><ele>1238.5</ele><time>2026-04-15T09:05:55.852Z</time></trkpt><trkpt lat="42.7076783" lon="-7.207525"><ele>1238.25</ele><time>2026-04-15T09:05:56.852Z</time></trkpt><trkpt lat="42.70772" lon="-7.2076967"><ele>1238.0</ele><time>2026-04-15T09:05:57.851Z</time></trkpt><trkpt lat="42.7077617" lon="-7.2078533"><ele>1244.2</ele><time>2026-04-15T09:05:58.851Z</time></trkpt><trkpt lat="42.7078133" lon="-7.2080017"><ele>1250.4</ele><time>2026-04-15T09:05:59.852Z</time></trkpt><trkpt lat="42.7078717" lon="-7.208135"><ele>1256.6000000000001</ele><time>2026-04-15T09:06:00.852Z</time></trkpt><trkpt lat="42.7079267" lon="-7.2082483"><ele>1262.8</ele><time>2026-04-15T09:06:01.852Z</time></trkpt><trkpt lat="42.70798" lon="-7.2083417"><ele>1269.0</ele><time>2026-04-15T09:06:02.851Z</time></trkpt><trkpt lat="42.7080517" lon="-7.2084033"><ele>1269.0</ele><time>2026-04-15T09:06:03.851Z</time></trkpt><trkpt lat="42.7081367" lon="-7.208455"><ele>1269.0</ele><time>2026-04-15T09:06:04.851Z</time></trkpt><trkpt lat="42.7082267" lon="-7.2085117"><ele>1269.0</ele><time>2026-04-15T09:06:05.851Z</time></trkpt><trkpt lat="42.70832" lon="-7.20857"><ele>1269.0</ele><time>2026-04-15T09:06:06.851Z</time></trkpt><trkpt lat="42.7084167" lon="-7.2086367"><ele>1269.0</ele><time>2026-04-15T09:06:07.851Z</time></trkpt><trkpt lat="42.7085117" lon="-7.2087017"><ele>1272.8000000000002</ele><time>2026-04-15T09:06:08.852Z</time></trkpt><trkpt lat="42.708605" lon="-7.2087683"><ele>1276.6000000000001</ele><time>2026-04-15T09:06:09.852Z</time></trkpt><trkpt lat="42.7086867" lon="-7.2088233"><ele>1280.4</ele><time>2026-04-15T09:06:10.852Z</time></trkpt><trkpt lat="42.7087617" lon="-7.2088883"><ele>1284.2</ele><time>2026-04-15T09:06:11.852Z</time></trkpt><trkpt lat="42.70883" lon="-7.2089467"><ele>1288.0</ele><time>2026-04-15T09:06:12.851Z</time></trkpt><trkpt lat="42.7089033" lon="-7.2090083"><ele>1288.0</ele><time>2026-04-15T09:06:13.851Z</time></trkpt><trkpt lat="42.70898" lon="-7.2090633"><ele>1288.0</ele><time>2026-04-15T09:06:14.851Z</time></trkpt><trkpt lat="42.709065" lon="-7.20913"><ele>1288.0</ele><time>2026-04-15T09:06:15.852Z</time></trkpt><trkpt lat="42.7091533" lon="-7.2091967"><ele>1288.0</ele><time>2026-04-15T09:06:16.852Z</time></trkpt><trkpt lat="42.7092583" lon="-7.2092733"><ele>1288.0</ele><time>2026-04-15T09:06:17.852Z</time></trkpt><trkpt lat="42.7093717" lon="-7.209355"><ele>1293.5</ele><time>2026-04-15T09:06:18.852Z</time></trkpt><trkpt lat="42.7094967" lon="-7.2094483"><ele>1299.0</ele><time>2026-04-15T09:06:19.852Z</time></trkpt><trkpt lat="42.7096217" lon="-7.2095467"><ele>1304.5</ele><time>2026-04-15T09:06:20.851Z</time></trkpt><trkpt lat="42.70974" lon="-7.20964"><ele>1310.0</ele><time>2026-04-15T09:06:21.851Z</time></trkpt><trkpt lat="42.7098567" lon="-7.2097333"><ele>1310.0</ele><time>2026-04-15T09:06:22.852Z</time></trkpt><trkpt lat="42.7099767" lon="-7.2098167"><ele>1310.0</ele><time>2026-04-15T09:06:23.852Z</time></trkpt><trkpt lat="42.71009" lon="-7.209905"><ele>1310.0</ele><time>2026-04-15T09:06:24.851Z</time></trkpt><trkpt lat="42.7102017" lon="-7.2100033"><ele>1310.0</ele><time>2026-04-15T09:06:25.852Z</time></trkpt><trkpt lat="42.71032" lon="-7.210095"><ele>1313.25</ele><time>2026-04-15T09:06:26.851Z</time></trkpt><trkpt lat="42.7104383" lon="-7.2101783"><ele>1316.5</ele><time>2026-04-15T09:06:27.852Z</time></trkpt><trkpt lat="42.71055" lon="-7.2102617"><ele>1319.75</ele><time>2026-04-15T09:06:28.851Z</time></trkpt><trkpt lat="42.7106567" lon="-7.2103383"><ele>1323.0</ele><time>2026-04-15T09:06:29.851Z</time></trkpt><trkpt lat="42.7107633" lon="-7.2104167"><ele>1323.0</ele><time>2026-04-15T09:06:30.851Z</time></trkpt><trkpt lat="42.71087" lon="-7.210495"><ele>1323.0</ele><time>2026-04-15T09:06:31.851Z</time></trkpt><trkpt lat="42.7109733" lon="-7.2105833"><ele>1323.0</ele><time>2026-04-15T09:06:32.851Z</time></trkpt><trkpt lat="42.71108" lon="-7.2106817"><ele>1323.0</ele><time>2026-04-15T09:06:33.851Z</time></trkpt><trkpt lat="42.7111817" lon="-7.2107733"><ele>1327.0</ele><time>2026-04-15T09:06:34.851Z</time></trkpt><trkpt lat="42.7112633" lon="-7.210865"><ele>1331.0</ele><time>2026-04-15T09:06:35.851Z</time></trkpt><trkpt lat="42.71133" lon="-7.2109667"><ele>1335.0</ele><time>2026-04-15T09:06:36.852Z</time></trkpt><trkpt lat="42.7113917" lon="-7.211075"><ele>1339.0</ele><time>2026-04-15T09:06:37.851Z</time></trkpt><trkpt lat="42.711445" lon="-7.2111783"><ele>1343.0</ele><time>2026-04-15T09:06:38.852Z</time></trkpt><trkpt lat="42.711485" lon="-7.21126"><ele>1343.0</ele><time>2026-04-15T09:06:39.852Z</time></trkpt><trkpt lat="42.71153" lon="-7.211325"><ele>1343.0</ele><time>2026-04-15T09:06:40.852Z</time></trkpt><trkpt lat="42.7115933" lon="-7.2114717"><ele>1343.0</ele><time>2026-04-15T09:06:42.851Z</time></trkpt><trkpt lat="42.7116267" lon="-7.2115583"><ele>1343.0</ele><time>2026-04-15T09:06:43.852Z</time></trkpt><trkpt lat="42.7116683" lon="-7.2116483"><ele>1343.0</ele><time>2026-04-15T09:06:44.852Z</time></trkpt><trkpt lat="42.7117083" lon="-7.21174"><ele>1343.0</ele><time>2026-04-15T09:06:45.851Z</time></trkpt><trkpt lat="42.711745" lon="-7.2118167"><ele>1342.0</ele><time>2026-04-15T09:06:46.851Z</time></trkpt><trkpt lat="42.7117817" lon="-7.2118933"><ele>1341.0</ele><time>2026-04-15T09:06:47.851Z</time></trkpt><trkpt lat="42.7118483" lon="-7.2120167"><ele>1340.0</ele><time>2026-04-15T09:06:49.851Z</time></trkpt><trkpt lat="42.7119033" lon="-7.2121217"><ele>1339.0</ele><time>2026-04-15T09:06:51.851Z</time></trkpt><trkpt lat="42.7119633" lon="-7.2122183"><ele>1338.0</ele><time>2026-04-15T09:06:53.851Z</time></trkpt><trkpt lat="42.7120167" lon="-7.21232"><ele>1342.3333333333333</ele><time>2026-04-15T09:06:55.851Z</time></trkpt><trkpt lat="42.7120633" lon="-7.2124233"><ele>1346.6666666666667</ele><time>2026-04-15T09:06:57.852Z</time></trkpt><trkpt lat="42.7121183" lon="-7.21252"><ele>1351.0</ele><time>2026-04-15T09:06:59.852Z</time></trkpt><trkpt lat="42.712155" lon="-7.2126467"><ele>1355.3333333333335</ele><time>2026-04-15T09:07:01.852Z</time></trkpt><trkpt lat="42.71219" lon="-7.2127267"><ele>1359.6666666666667</ele><time>2026-04-15T09:07:02.851Z</time></trkpt><trkpt lat="42.7122233" lon="-7.2128117"><ele>1364.0</ele><time>2026-04-15T09:07:03.852Z</time></trkpt><trkpt lat="42.7122533" lon="-7.2128967"><ele>1364.0</ele><time>2026-04-15T09:07:04.852Z</time></trkpt><trkpt lat="42.7122917" lon="-7.21299"><ele>1364.0</ele><time>2026-04-15T09:07:05.851Z</time></trkpt><trkpt lat="42.7123333" lon="-7.2131"><ele>1364.0</ele><time>2026-04-15T09:07:06.852Z</time></trkpt><trkpt lat="42.7123767" lon="-7.2132133"><ele>1364.0</ele><time>2026-04-15T09:07:07.851Z</time></trkpt><trkpt lat="42.7124183" lon="-7.2133217"><ele>1364.0</ele><time>2026-04-15T09:07:08.851Z</time></trkpt><trkpt lat="42.71245" lon="-7.2134167"><ele>1364.0</ele><time>2026-04-15T09:07:09.852Z</time></trkpt><trkpt lat="42.7124717" lon="-7.2135033"><ele>1363.0</ele><time>2026-04-15T09:07:10.852Z</time></trkpt><trkpt lat="42.7125133" lon="-7.2135917"><ele>1362.0</ele><time>2026-04-15T09:07:12.851Z</time></trkpt><trkpt lat="42.7125917" lon="-7.213555"><ele>1361.0</ele><time>2026-04-15T09:07:16.852Z</time></trkpt><trkpt lat="42.7126483" lon="-7.213465"><ele>1360.0</ele><time>2026-04-15T09:07:18.852Z</time></trkpt><trkpt lat="42.71274" lon="-7.2133433"><ele>1359.0</ele><time>2026-04-15T09:07:20.852Z</time></trkpt><trkpt lat="42.7127983" lon="-7.2132667"><ele>1361.2</ele><time>2026-04-15T09:07:21.852Z</time></trkpt><trkpt lat="42.7128633" lon="-7.2131783"><ele>1363.4</ele><time>2026-04-15T09:07:22.852Z</time></trkpt><trkpt lat="42.712935" lon="-7.2131"><ele>1365.6</ele><time>2026-04-15T09:07:23.851Z</time></trkpt><trkpt lat="42.7130167" lon="-7.21301"><ele>1367.8</ele><time>2026-04-15T09:07:24.851Z</time></trkpt><trkpt lat="42.7130967" lon="-7.2129233"><ele>1370.0</ele><time>2026-04-15T09:07:25.852Z</time></trkpt><trkpt lat="42.71318" lon="-7.21283"><ele>1374.0</ele><time>2026-04-15T09:07:26.851Z</time></trkpt><trkpt lat="42.7132767" lon="-7.212715"><ele>1378.0</ele><time>2026-04-15T09:07:27.852Z</time></trkpt><trkpt lat="42.7133717" lon="-7.2125917"><ele>1382.0</ele><time>2026-04-15T09:07:28.852Z</time></trkpt><trkpt lat="42.713475" lon="-7.2124733"><ele>1386.0</ele><time>2026-04-15T09:07:29.851Z</time></trkpt><trkpt lat="42.713575" lon="-7.2123417"><ele>1391.5</ele><time>2026-04-15T09:07:30.852Z</time></trkpt><trkpt lat="42.7136683" lon="-7.2122167"><ele>1397.0</ele><time>2026-04-15T09:07:31.852Z</time></trkpt><trkpt lat="42.713765" lon="-7.21209"><ele>1402.5</ele><time>2026-04-15T09:07:32.852Z</time></trkpt><trkpt lat="42.7138667" lon="-7.2119683"><ele>1408.0</ele><time>2026-04-15T09:07:33.851Z</time></trkpt><trkpt lat="42.713965" lon="-7.211835"><ele>1408.0</ele><time>2026-04-15T09:07:34.851Z</time></trkpt><trkpt lat="42.714065" lon="-7.2117"><ele>1408.0</ele><time>2026-04-15T09:07:35.851Z</time></trkpt><trkpt lat="42.714165" lon="-7.211555"><ele>1408.0</ele><time>2026-04-15T09:07:36.851Z</time></trkpt><trkpt lat="42.7142667" lon="-7.2114133"><ele>1408.0</ele><time>2026-04-15T09:07:37.851Z</time></trkpt><trkpt lat="42.7143683" lon="-7.211265"><ele>1414.0</ele><time>2026-04-15T09:07:38.852Z</time></trkpt><trkpt lat="42.7144733" lon="-7.211095"><ele>1420.0</ele><time>2026-04-15T09:07:39.852Z</time></trkpt><trkpt lat="42.7145867" lon="-7.2109383"><ele>1426.0</ele><time>2026-04-15T09:07:40.851Z</time></trkpt><trkpt lat="42.714695" lon="-7.2107933"><ele>1426.0</ele><time>2026-04-15T09:07:41.852Z</time></trkpt><trkpt lat="42.7147983" lon="-7.2106633"><ele>1426.0</ele><time>2026-04-15T09:07:42.852Z</time></trkpt><trkpt lat="42.7149133" lon="-7.21054"><ele>1426.0</ele><time>2026-04-15T09:07:43.852Z</time></trkpt><trkpt lat="42.715035" lon="-7.210405"><ele>1426.0</ele><time>2026-04-15T09:07:44.851Z</time></trkpt><trkpt lat="42.7151533" lon="-7.2102717"><ele>1431.25</ele><time>2026-04-15T09:07:45.851Z</time></trkpt><trkpt lat="42.7152617" lon="-7.2101483"><ele>1436.5</ele><time>2026-04-15T09:07:46.851Z</time></trkpt><trkpt lat="42.7153633" lon="-7.21005"><ele>1441.75</ele><time>2026-04-15T09:07:47.852Z</time></trkpt><trkpt lat="42.7154667" lon="-7.209985"><ele>1447.0</ele><time>2026-04-15T09:07:48.851Z</time></trkpt><trkpt lat="42.715575" lon="-7.2099283"><ele>1447.0</ele><time>2026-04-15T09:07:49.851Z</time></trkpt><trkpt lat="42.7156867" lon="-7.2098733"><ele>1447.0</ele><time>2026-04-15T09:07:50.851Z</time></trkpt><trkpt lat="42.7157933" lon="-7.20981"><ele>1447.0</ele><time>2026-04-15T09:07:51.851Z</time></trkpt><trkpt lat="42.7158933" lon="-7.2097483"><ele>1447.0</ele><time>2026-04-15T09:07:52.852Z</time></trkpt><trkpt lat="42.7160033" lon="-7.2097083"><ele>1448.3999999999999</ele><time>2026-04-15T09:07:53.851Z</time></trkpt><trkpt lat="42.7161067" lon="-7.209695"><ele>1449.8</ele><time>2026-04-15T09:07:54.851Z</time></trkpt><trkpt lat="42.716205" lon="-7.2096983"><ele>1451.2</ele><time>2026-04-15T09:07:55.852Z</time></trkpt><trkpt lat="42.716305" lon="-7.209705"><ele>1452.6</ele><time>2026-04-15T09:07:56.852Z</time></trkpt><trkpt lat="42.7164083" lon="-7.2097083"><ele>1454.0</ele><time>2026-04-15T09:07:57.851Z</time></trkpt><trkpt lat="42.7165183" lon="-7.2097233"><ele>1454.0</ele><time>2026-04-15T09:07:58.851Z</time></trkpt><trkpt lat="42.7166133" lon="-7.2097567"><ele>1454.0</ele><time>2026-04-15T09:07:59.851Z</time></trkpt><trkpt lat="42.716705" lon="-7.209815"><ele>1454.0</ele><time>2026-04-15T09:08:00.851Z</time></trkpt><trkpt lat="42.71679" lon="-7.20989"><ele>1454.0</ele><time>2026-04-15T09:08:01.852Z</time></trkpt><trkpt lat="42.716875" lon="-7.2099967"><ele>1454.0</ele><time>2026-04-15T09:08:02.852Z</time></trkpt><trkpt lat="42.7169517" lon="-7.2101233"><ele>1455.0</ele><time>2026-04-15T09:08:03.851Z</time></trkpt><trkpt lat="42.7170233" lon="-7.2102483"><ele>1456.0</ele><time>2026-04-15T09:08:04.851Z</time></trkpt><trkpt lat="42.7171" lon="-7.210395"><ele>1457.0</ele><time>2026-04-15T09:08:05.852Z</time></trkpt><trkpt lat="42.7171783" lon="-7.2105217"><ele>1458.0</ele><time>2026-04-15T09:08:06.852Z</time></trkpt><trkpt lat="42.71726" lon="-7.2106283"><ele>1457.5</ele><time>2026-04-15T09:08:07.851Z</time></trkpt><trkpt lat="42.71735" lon="-7.21072"><ele>1457.0</ele><time>2026-04-15T09:08:08.851Z</time></trkpt><trkpt lat="42.7174633" lon="-7.2108183"><ele>1456.5</ele><time>2026-04-15T09:08:09.851Z</time></trkpt><trkpt lat="42.7176067" lon="-7.2109283"><ele>1456.0</ele><time>2026-04-15T09:08:10.851Z</time></trkpt><trkpt lat="42.7177633" lon="-7.2110317"><ele>1456.0</ele><time>2026-04-15T09:08:11.852Z</time></trkpt><trkpt lat="42.717915" lon="-7.21113"><ele>1456.0</ele><time>2026-04-15T09:08:12.851Z</time></trkpt><trkpt lat="42.7180483" lon="-7.211235"><ele>1456.0</ele><time>2026-04-15T09:08:13.852Z</time></trkpt><trkpt lat="42.7181783" lon="-7.2113483"><ele>1456.0</ele><time>2026-04-15T09:08:14.852Z</time></trkpt><trkpt lat="42.7183" lon="-7.211465"><ele>1456.0</ele><time>2026-04-15T09:08:15.852Z</time></trkpt><trkpt lat="42.7184183" lon="-7.211605"><ele>1456.0</ele><time>2026-04-15T09:08:16.853Z</time></trkpt><trkpt lat="42.71853" lon="-7.2117733"><ele>1456.0</ele><time>2026-04-15T09:08:17.852Z</time></trkpt><trkpt lat="42.718655" lon="-7.2119683"><ele>1456.0</ele><time>2026-04-15T09:08:18.853Z</time></trkpt><trkpt lat="42.7187883" lon="-7.212175"><ele>1456.0</ele><time>2026-04-15T09:08:19.852Z</time></trkpt><trkpt lat="42.71892" lon="-7.212375"><ele>1451.3333333333333</ele><time>2026-04-15T09:08:20.852Z</time></trkpt><trkpt lat="42.7190567" lon="-7.2125633"><ele>1446.6666666666667</ele><time>2026-04-15T09:08:21.853Z</time></trkpt><trkpt lat="42.7191983" lon="-7.2127283"><ele>1442.0</ele><time>2026-04-15T09:08:22.852Z</time></trkpt><trkpt lat="42.7193517" lon="-7.2128967"><ele>1440.0</ele><time>2026-04-15T09:08:23.852Z</time></trkpt><trkpt lat="42.719515" lon="-7.21305"><ele>1438.0</ele><time>2026-04-15T09:08:24.853Z</time></trkpt><trkpt lat="42.719705" lon="-7.2132017"><ele>1436.0</ele><time>2026-04-15T09:08:25.853Z</time></trkpt><trkpt lat="42.7198967" lon="-7.2133617"><ele>1436.0</ele><time>2026-04-15T09:08:26.853Z</time></trkpt><trkpt lat="42.7200617" lon="-7.2135167"><ele>1436.0</ele><time>2026-04-15T09:08:27.853Z</time></trkpt><trkpt lat="42.720195" lon="-7.2136667"><ele>1436.0</ele><time>2026-04-15T09:08:28.853Z</time></trkpt><trkpt lat="42.7203" lon="-7.2138283"><ele>1429.25</ele><time>2026-04-15T09:08:29.852Z</time></trkpt><trkpt lat="42.7203883" lon="-7.2139983"><ele>1422.5</ele><time>2026-04-15T09:08:30.852Z</time></trkpt><trkpt lat="42.7204433" lon="-7.2141633"><ele>1415.75</ele><time>2026-04-15T09:08:31.852Z</time></trkpt><trkpt lat="42.720465" lon="-7.2143367"><ele>1409.0</ele><time>2026-04-15T09:08:32.852Z</time></trkpt><trkpt lat="42.7204667" lon="-7.214525"><ele>1409.0</ele><time>2026-04-15T09:08:33.852Z</time></trkpt><trkpt lat="42.7204567" lon="-7.214705"><ele>1409.0</ele><time>2026-04-15T09:08:34.852Z</time></trkpt><trkpt lat="42.7204517" lon="-7.2148783"><ele>1409.0</ele><time>2026-04-15T09:08:35.852Z</time></trkpt><trkpt lat="42.7204517" lon="-7.215045"><ele>1409.0</ele><time>2026-04-15T09:08:36.853Z</time></trkpt><trkpt lat="42.7204867" lon="-7.2152017"><ele>1410.75</ele><time>2026-04-15T09:08:37.853Z</time></trkpt><trkpt lat="42.72055" lon="-7.21535"><ele>1412.5</ele><time>2026-04-15T09:08:38.853Z</time></trkpt><trkpt lat="42.7206217" lon="-7.215485"><ele>1414.25</ele><time>2026-04-15T09:08:39.852Z</time></trkpt><trkpt lat="42.7206933" lon="-7.2156117"><ele>1416.0</ele><time>2026-04-15T09:08:40.852Z</time></trkpt><trkpt lat="42.7207367" lon="-7.2157483"><ele>1418.0</ele><time>2026-04-15T09:08:41.852Z</time></trkpt><trkpt lat="42.720765" lon="-7.2158783"><ele>1420.0</ele><time>2026-04-15T09:08:42.852Z</time></trkpt><trkpt lat="42.7207617" lon="-7.215995"><ele>1422.0</ele><time>2026-04-15T09:08:43.852Z</time></trkpt><trkpt lat="42.7207417" lon="-7.216115"><ele>1424.0</ele><time>2026-04-15T09:08:44.852Z</time></trkpt><trkpt lat="42.7207283" lon="-7.2162417"><ele>1426.0</ele><time>2026-04-15T09:08:45.853Z</time></trkpt><trkpt lat="42.7207367" lon="-7.216385"><ele>1424.5</ele><time>2026-04-15T09:08:46.852Z</time></trkpt><trkpt lat="42.7207683" lon="-7.2165517"><ele>1423.0</ele><time>2026-04-15T09:08:47.852Z</time></trkpt><trkpt lat="42.7208067" lon="-7.2167283"><ele>1421.5</ele><time>2026-04-15T09:08:48.853Z</time></trkpt><trkpt lat="42.7208467" lon="-7.2169367"><ele>1420.0</ele><time>2026-04-15T09:08:49.853Z</time></trkpt><trkpt lat="42.7209017" lon="-7.2171783"><ele>1417.3333333333333</ele><time>2026-04-15T09:08:50.853Z</time></trkpt><trkpt lat="42.7209533" lon="-7.2174333"><ele>1414.6666666666667</ele><time>2026-04-15T09:08:51.852Z</time></trkpt><trkpt lat="42.7210017" lon="-7.2177067"><ele>1412.0</ele><time>2026-04-15T09:08:52.852Z</time></trkpt><trkpt lat="42.721035" lon="-7.2179983"><ele>1411.6666666666667</ele><time>2026-04-15T09:08:53.853Z</time></trkpt><trkpt lat="42.7210583" lon="-7.2182983"><ele>1411.3333333333333</ele><time>2026-04-15T09:08:54.853Z</time></trkpt><trkpt lat="42.7210917" lon="-7.21858"><ele>1411.0</ele><time>2026-04-15T09:08:55.852Z</time></trkpt><trkpt lat="42.7211217" lon="-7.2188533"><ele>1407.6666666666665</ele><time>2026-04-15T09:08:56.852Z</time></trkpt><trkpt lat="42.7211617" lon="-7.2191117"><ele>1404.3333333333333</ele><time>2026-04-15T09:08:57.853Z</time></trkpt><trkpt lat="42.721195" lon="-7.21933"><ele>1401.0</ele><time>2026-04-15T09:08:58.852Z</time></trkpt><trkpt lat="42.721225" lon="-7.219555"><ele>1401.0</ele><time>2026-04-15T09:08:59.852Z</time></trkpt><trkpt lat="42.721275" lon="-7.2197783"><ele>1401.0</ele><time>2026-04-15T09:09:00.853Z</time></trkpt><trkpt lat="42.721345" lon="-7.22"><ele>1401.0</ele><time>2026-04-15T09:09:01.853Z</time></trkpt><trkpt lat="42.7214467" lon="-7.2202183"><ele>1405.0</ele><time>2026-04-15T09:09:02.852Z</time></trkpt><trkpt lat="42.7215617" lon="-7.2204333"><ele>1409.0</ele><time>2026-04-15T09:09:03.852Z</time></trkpt><trkpt lat="42.721685" lon="-7.22064"><ele>1413.0</ele><time>2026-04-15T09:09:04.853Z</time></trkpt><trkpt lat="42.7218167" lon="-7.2208183"><ele>1410.3333333333333</ele><time>2026-04-15T09:09:05.852Z</time></trkpt><trkpt lat="42.7219617" lon="-7.2209667"><ele>1407.6666666666665</ele><time>2026-04-15T09:09:06.852Z</time></trkpt><trkpt lat="42.7221133" lon="-7.2211133"><ele>1405.0</ele><time>2026-04-15T09:09:07.852Z</time></trkpt><trkpt lat="42.7222833" lon="-7.2212433"><ele>1405.0</ele><time>2026-04-15T09:09:08.852Z</time></trkpt><trkpt lat="42.722445" lon="-7.221375"><ele>1405.0</ele><time>2026-04-15T09:09:09.852Z</time></trkpt><trkpt lat="42.7225917" lon="-7.2215017"><ele>1405.0</ele><time>2026-04-15T09:09:10.853Z</time></trkpt><trkpt lat="42.7227267" lon="-7.2216367"><ele>1407.6666666666665</ele><time>2026-04-15T09:09:11.852Z</time></trkpt><trkpt lat="42.7228483" lon="-7.22178"><ele>1410.3333333333333</ele><time>2026-04-15T09:09:12.852Z</time></trkpt><trkpt lat="42.7229533" lon="-7.2219383"><ele>1413.0</ele><time>2026-04-15T09:09:13.852Z</time></trkpt><trkpt lat="42.723055" lon="-7.2221117"><ele>1413.0</ele><time>2026-04-15T09:09:14.853Z</time></trkpt><trkpt lat="42.7231617" lon="-7.222295"><ele>1413.0</ele><time>2026-04-15T09:09:15.852Z</time></trkpt><trkpt lat="42.7232667" lon="-7.2224933"><ele>1413.0</ele><time>2026-04-15T09:09:16.852Z</time></trkpt><trkpt lat="42.7233717" lon="-7.2226983"><ele>1411.6666666666667</ele><time>2026-04-15T09:09:17.852Z</time></trkpt><trkpt lat="42.7234667" lon="-7.2229183"><ele>1410.3333333333335</ele><time>2026-04-15T09:09:18.852Z</time></trkpt><trkpt lat="42.72355" lon="-7.2231567"><ele>1409.0</ele><time>2026-04-15T09:09:19.853Z</time></trkpt><trkpt lat="42.7236333" lon="-7.2234217"><ele>1409.0</ele><time>2026-04-15T09:09:20.852Z</time></trkpt><trkpt lat="42.723705" lon="-7.2236883"><ele>1409.0</ele><time>2026-04-15T09:09:21.852Z</time></trkpt><trkpt lat="42.7237517" lon="-7.2239267"><ele>1409.0</ele><time>2026-04-15T09:09:22.852Z</time></trkpt><trkpt lat="42.7237783" lon="-7.2241517"><ele>1404.3333333333335</ele><time>2026-04-15T09:09:23.853Z</time></trkpt><trkpt lat="42.7237767" lon="-7.2243733"><ele>1399.6666666666667</ele><time>2026-04-15T09:09:24.852Z</time></trkpt><trkpt lat="42.723755" lon="-7.224585"><ele>1395.0</ele><time>2026-04-15T09:09:25.853Z</time></trkpt><trkpt lat="42.72371" lon="-7.2248"><ele>1391.6666666666667</ele><time>2026-04-15T09:09:26.852Z</time></trkpt><trkpt lat="42.72366" lon="-7.2250233"><ele>1388.3333333333335</ele><time>2026-04-15T09:09:27.853Z</time></trkpt><trkpt lat="42.7236083" lon="-7.22524"><ele>1385.0</ele><time>2026-04-15T09:09:28.852Z</time></trkpt><trkpt lat="42.7235483" lon="-7.22546"><ele>1384.3333333333335</ele><time>2026-04-15T09:09:29.853Z</time></trkpt><trkpt lat="42.723485" lon="-7.2256883"><ele>1383.6666666666667</ele><time>2026-04-15T09:09:30.853Z</time></trkpt><trkpt lat="42.723405" lon="-7.2259333"><ele>1383.0</ele><time>2026-04-15T09:09:31.853Z</time></trkpt><trkpt lat="42.7233233" lon="-7.226185"><ele>1383.0</ele><time>2026-04-15T09:09:32.852Z</time></trkpt><trkpt lat="42.72324" lon="-7.2264367"><ele>1383.0</ele><time>2026-04-15T09:09:33.853Z</time></trkpt><trkpt lat="42.72317" lon="-7.2266767"><ele>1383.0</ele><time>2026-04-15T09:09:34.852Z</time></trkpt><trkpt lat="42.72311" lon="-7.2269317"><ele>1381.0</ele><time>2026-04-15T09:09:35.853Z</time></trkpt><trkpt lat="42.723055" lon="-7.2271967"><ele>1379.0</ele><time>2026-04-15T09:09:36.852Z</time></trkpt><trkpt lat="42.72301" lon="-7.22745"><ele>1377.0</ele><time>2026-04-15T09:09:37.852Z</time></trkpt><trkpt lat="42.7229817" lon="-7.2277033"><ele>1377.0</ele><time>2026-04-15T09:09:38.852Z</time></trkpt><trkpt lat="42.722955" lon="-7.2279433"><ele>1377.0</ele><time>2026-04-15T09:09:39.853Z</time></trkpt><trkpt lat="42.7229317" lon="-7.22821"><ele>1377.0</ele><time>2026-04-15T09:09:40.852Z</time></trkpt><trkpt lat="42.72291" lon="-7.2284983"><ele>1375.3333333333333</ele><time>2026-04-15T09:09:41.852Z</time></trkpt><trkpt lat="42.72289" lon="-7.2287917"><ele>1373.6666666666665</ele><time>2026-04-15T09:09:42.853Z</time></trkpt><trkpt lat="42.7228633" lon="-7.2290933"><ele>1372.0</ele><time>2026-04-15T09:09:43.852Z</time></trkpt><trkpt lat="42.7228333" lon="-7.229395"><ele>1371.3333333333333</ele><time>2026-04-15T09:09:44.852Z</time></trkpt><trkpt lat="42.7227983" lon="-7.2296917"><ele>1370.6666666666667</ele><time>2026-04-15T09:09:45.852Z</time></trkpt><trkpt lat="42.72276" lon="-7.2299817"><ele>1370.0</ele><time>2026-04-15T09:09:46.853Z</time></trkpt><trkpt lat="42.722715" lon="-7.2302733"><ele>1369.3333333333335</ele><time>2026-04-15T09:09:47.852Z</time></trkpt><trkpt lat="42.7226733" lon="-7.2305617"><ele>1368.6666666666667</ele><time>2026-04-15T09:09:48.853Z</time></trkpt><trkpt lat="42.7226217" lon="-7.230855"><ele>1368.0</ele><time>2026-04-15T09:09:49.852Z</time></trkpt><trkpt lat="42.72257" lon="-7.2311533"><ele>1368.0</ele><time>2026-04-15T09:09:50.853Z</time></trkpt><trkpt lat="42.7225167" lon="-7.2314317"><ele>1368.0</ele><time>2026-04-15T09:09:51.852Z</time></trkpt><trkpt lat="42.722455" lon="-7.2316983"><ele>1368.0</ele><time>2026-04-15T09:09:52.852Z</time></trkpt><trkpt lat="42.722385" lon="-7.2319417"><ele>1368.0</ele><time>2026-04-15T09:09:53.852Z</time></trkpt><trkpt lat="42.722305" lon="-7.23218"><ele>1368.0</ele><time>2026-04-15T09:09:54.852Z</time></trkpt><trkpt lat="42.7222267" lon="-7.2324"><ele>1368.0</ele><time>2026-04-15T09:09:55.853Z</time></trkpt><trkpt lat="42.722145" lon="-7.2326317"><ele>1367.6666666666667</ele><time>2026-04-15T09:09:56.852Z</time></trkpt><trkpt lat="42.72206" lon="-7.232875"><ele>1367.3333333333335</ele><time>2026-04-15T09:09:57.853Z</time></trkpt><trkpt lat="42.72196" lon="-7.2331117"><ele>1367.0</ele><time>2026-04-15T09:09:58.852Z</time></trkpt><trkpt lat="42.7218433" lon="-7.2333383"><ele>1364.0</ele><time>2026-04-15T09:09:59.853Z</time></trkpt><trkpt lat="42.7217117" lon="-7.2335517"><ele>1361.0</ele><time>2026-04-15T09:10:00.852Z</time></trkpt><trkpt lat="42.721555" lon="-7.23376"><ele>1358.0</ele><time>2026-04-15T09:10:01.853Z</time></trkpt><trkpt lat="42.7214017" lon="-7.23396"><ele>1357.0</ele><time>2026-04-15T09:10:02.853Z</time></trkpt><trkpt lat="42.72127" lon="-7.234165"><ele>1356.0</ele><time>2026-04-15T09:10:03.852Z</time></trkpt><trkpt lat="42.721145" lon="-7.2343817"><ele>1355.0</ele><time>2026-04-15T09:10:04.852Z</time></trkpt><trkpt lat="42.7210183" lon="-7.2346233"><ele>1353.0</ele><time>2026-04-15T09:10:05.852Z</time></trkpt><trkpt lat="42.7208867" lon="-7.234845"><ele>1351.0</ele><time>2026-04-15T09:10:06.852Z</time></trkpt><trkpt lat="42.7207517" lon="-7.2350517"><ele>1349.0</ele><time>2026-04-15T09:10:07.852Z</time></trkpt><trkpt lat="42.7206167" lon="-7.235245"><ele>1349.0</ele><time>2026-04-15T09:10:08.853Z</time></trkpt><trkpt lat="42.7204883" lon="-7.2354317"><ele>1349.0</ele><time>2026-04-15T09:10:09.853Z</time></trkpt><trkpt lat="42.720365" lon="-7.235615"><ele>1349.0</ele><time>2026-04-15T09:10:10.853Z</time></trkpt><trkpt lat="42.7202467" lon="-7.2357867"><ele>1346.0</ele><time>2026-04-15T09:10:11.852Z</time></trkpt><trkpt lat="42.7201367" lon="-7.2359367"><ele>1343.0</ele><time>2026-04-15T09:10:12.853Z</time></trkpt><trkpt lat="42.720035" lon="-7.2360783"><ele>1340.0</ele><time>2026-04-15T09:10:13.853Z</time></trkpt><trkpt lat="42.7199583" lon="-7.2362283"><ele>1337.0</ele><time>2026-04-15T09:10:14.852Z</time></trkpt><trkpt lat="42.71991" lon="-7.23638"><ele>1334.0</ele><time>2026-04-15T09:10:15.853Z</time></trkpt><trkpt lat="42.71986" lon="-7.236545"><ele>1331.0</ele><time>2026-04-15T09:10:16.853Z</time></trkpt><trkpt lat="42.7198067" lon="-7.2367267"><ele>1328.0</ele><time>2026-04-15T09:10:17.852Z</time></trkpt><trkpt lat="42.7197417" lon="-7.2369067"><ele>1325.0</ele><time>2026-04-15T09:10:18.853Z</time></trkpt><trkpt lat="42.719655" lon="-7.2370817"><ele>1325.0</ele><time>2026-04-15T09:10:19.852Z</time></trkpt><trkpt lat="42.7195483" lon="-7.2372483"><ele>1325.0</ele><time>2026-04-15T09:10:20.853Z</time></trkpt><trkpt lat="42.7194333" lon="-7.2373867"><ele>1325.0</ele><time>2026-04-15T09:10:21.853Z</time></trkpt><trkpt lat="42.7193067" lon="-7.2375333"><ele>1325.5</ele><time>2026-04-15T09:10:22.852Z</time></trkpt><trkpt lat="42.7191883" lon="-7.23768"><ele>1326.0</ele><time>2026-04-15T09:10:23.852Z</time></trkpt><trkpt lat="42.7191" lon="-7.237825"><ele>1326.5</ele><time>2026-04-15T09:10:24.852Z</time></trkpt><trkpt lat="42.719045" lon="-7.2379833"><ele>1327.0</ele><time>2026-04-15T09:10:25.852Z</time></trkpt><trkpt lat="42.7189983" lon="-7.2381633"><ele>1327.0</ele><time>2026-04-15T09:10:26.852Z</time></trkpt><trkpt lat="42.7189583" lon="-7.2383683"><ele>1327.0</ele><time>2026-04-15T09:10:27.853Z</time></trkpt><trkpt lat="42.7188883" lon="-7.23859"><ele>1327.0</ele><time>2026-04-15T09:10:28.852Z</time></trkpt><trkpt lat="42.7188017" lon="-7.2388"><ele>1325.3333333333333</ele><time>2026-04-15T09:10:29.853Z</time></trkpt><trkpt lat="42.7186917" lon="-7.2390083"><ele>1323.6666666666667</ele><time>2026-04-15T09:10:30.853Z</time></trkpt><trkpt lat="42.718555" lon="-7.2392033"><ele>1322.0</ele><time>2026-04-15T09:10:31.853Z</time></trkpt><trkpt lat="42.7184033" lon="-7.239395"><ele>1322.0</ele><time>2026-04-15T09:10:32.852Z</time></trkpt><trkpt lat="42.718255" lon="-7.2395683"><ele>1322.0</ele><time>2026-04-15T09:10:33.853Z</time></trkpt><trkpt lat="42.718115" lon="-7.239715"><ele>1322.0</ele><time>2026-04-15T09:10:34.852Z</time></trkpt><trkpt lat="42.7179717" lon="-7.2398617"><ele>1325.3333333333335</ele><time>2026-04-15T09:10:35.853Z</time></trkpt><trkpt lat="42.71783" lon="-7.2400017"><ele>1328.6666666666667</ele><time>2026-04-15T09:10:36.852Z</time></trkpt><trkpt lat="42.7176883" lon="-7.2401533"><ele>1332.0</ele><time>2026-04-15T09:10:37.852Z</time></trkpt><trkpt lat="42.7175533" lon="-7.2403233"><ele>1332.0</ele><time>2026-04-15T09:10:38.853Z</time></trkpt><trkpt lat="42.717415" lon="-7.2404833"><ele>1332.0</ele><time>2026-04-15T09:10:39.853Z</time></trkpt><trkpt lat="42.71728" lon="-7.2406317"><ele>1332.0</ele><time>2026-04-15T09:10:40.852Z</time></trkpt><trkpt lat="42.7171417" lon="-7.2407783"><ele>1336.6666666666667</ele><time>2026-04-15T09:10:41.853Z</time></trkpt><trkpt lat="42.7170033" lon="-7.2409133"><ele>1341.3333333333335</ele><time>2026-04-15T09:10:42.853Z</time></trkpt><trkpt lat="42.716875" lon="-7.2410617"><ele>1346.0</ele><time>2026-04-15T09:10:43.853Z</time></trkpt><trkpt lat="42.7167533" lon="-7.2412183"><ele>1346.0</ele><time>2026-04-15T09:10:44.853Z</time></trkpt><trkpt lat="42.7166417" lon="-7.2413733"><ele>1346.0</ele><time>2026-04-15T09:10:45.853Z</time></trkpt><trkpt lat="42.7165317" lon="-7.2415217"><ele>1346.0</ele><time>2026-04-15T09:10:46.852Z</time></trkpt><trkpt lat="42.7164167" lon="-7.24166"><ele>1350.0</ele><time>2026-04-15T09:10:47.853Z</time></trkpt><trkpt lat="42.7163183" lon="-7.2417733"><ele>1354.0</ele><time>2026-04-15T09:10:48.853Z</time></trkpt><trkpt lat="42.716225" lon="-7.2418517"><ele>1358.0</ele><time>2026-04-15T09:10:49.852Z</time></trkpt><trkpt lat="42.7161267" lon="-7.2418983"><ele>1362.0</ele><time>2026-04-15T09:10:50.852Z</time></trkpt><trkpt lat="42.7160183" lon="-7.241915"><ele>1362.0</ele><time>2026-04-15T09:10:51.852Z</time></trkpt><trkpt lat="42.715905" lon="-7.24191"><ele>1362.0</ele><time>2026-04-15T09:10:52.852Z</time></trkpt><trkpt lat="42.71578" lon="-7.2419283"><ele>1362.0</ele><time>2026-04-15T09:10:53.853Z</time></trkpt><trkpt lat="42.7156533" lon="-7.241955"><ele>1362.0</ele><time>2026-04-15T09:10:54.852Z</time></trkpt><trkpt lat="42.7155183" lon="-7.2420317"><ele>1362.0</ele><time>2026-04-15T09:10:55.853Z</time></trkpt><trkpt lat="42.7153983" lon="-7.24213"><ele>1362.0</ele><time>2026-04-15T09:10:56.852Z</time></trkpt><trkpt lat="42.7152767" lon="-7.2421983"><ele>1362.0</ele><time>2026-04-15T09:10:57.853Z</time></trkpt><trkpt lat="42.7151483" lon="-7.24224"><ele>1362.0</ele><time>2026-04-15T09:10:58.853Z</time></trkpt><trkpt lat="42.715005" lon="-7.2422567"><ele>1362.0</ele><time>2026-04-15T09:10:59.852Z</time></trkpt><trkpt lat="42.7148567" lon="-7.2422567"><ele>1362.0</ele><time>2026-04-15T09:11:00.852Z</time></trkpt><trkpt lat="42.7147017" lon="-7.2422233"><ele>1362.0</ele><time>2026-04-15T09:11:01.853Z</time></trkpt><trkpt lat="42.7145367" lon="-7.242155"><ele>1360.3333333333333</ele><time>2026-04-15T09:11:02.853Z</time></trkpt><trkpt lat="42.7143567" lon="-7.2420733"><ele>1358.6666666666665</ele><time>2026-04-15T09:11:03.852Z</time></trkpt><trkpt lat="42.7141917" lon="-7.2420067"><ele>1357.0</ele><time>2026-04-15T09:11:04.852Z</time></trkpt><trkpt lat="42.714045" lon="-7.2419467"><ele>1357.0</ele><time>2026-04-15T09:11:05.853Z</time></trkpt><trkpt lat="42.7138983" lon="-7.241905"><ele>1357.0</ele><time>2026-04-15T09:11:06.852Z</time></trkpt><trkpt lat="42.7137633" lon="-7.2419017"><ele>1357.0</ele><time>2026-04-15T09:11:07.852Z</time></trkpt><trkpt lat="42.713635" lon="-7.24191"><ele>1357.0</ele><time>2026-04-15T09:11:08.852Z</time></trkpt><trkpt lat="42.7135183" lon="-7.2419433"><ele>1355.0</ele><time>2026-04-15T09:11:09.852Z</time></trkpt><trkpt lat="42.7134217" lon="-7.242005"><ele>1353.0</ele><time>2026-04-15T09:11:10.853Z</time></trkpt><trkpt lat="42.7133317" lon="-7.2420833"><ele>1351.0</ele><time>2026-04-15T09:11:11.852Z</time></trkpt><trkpt lat="42.7132383" lon="-7.242185"><ele>1349.0</ele><time>2026-04-15T09:11:12.853Z</time></trkpt><trkpt lat="42.7131433" lon="-7.2422717"><ele>1347.0</ele><time>2026-04-15T09:11:13.853Z</time></trkpt><trkpt lat="42.7130417" lon="-7.2423583"><ele>1346.0</ele><time>2026-04-15T09:11:14.852Z</time></trkpt><trkpt lat="42.7129217" lon="-7.24246"><ele>1345.0</ele><time>2026-04-15T09:11:15.853Z</time></trkpt><trkpt lat="42.7127967" lon="-7.2425633"><ele>1344.0</ele><time>2026-04-15T09:11:16.852Z</time></trkpt><trkpt lat="42.7126867" lon="-7.2426683"><ele>1343.0</ele><time>2026-04-15T09:11:17.853Z</time></trkpt><trkpt lat="42.7125933" lon="-7.2427933"><ele>1339.4</ele><time>2026-04-15T09:11:18.853Z</time></trkpt><trkpt lat="42.71251" lon="-7.2429"><ele>1335.8000000000002</ele><time>2026-04-15T09:11:19.853Z</time></trkpt><trkpt lat="42.7124267" lon="-7.2429767"><ele>1332.2</ele><time>2026-04-15T09:11:20.853Z</time></trkpt><trkpt lat="42.7123383" lon="-7.2430283"><ele>1328.6</ele><time>2026-04-15T09:11:21.852Z</time></trkpt><trkpt lat="42.7122433" lon="-7.243085"><ele>1325.0</ele><time>2026-04-15T09:11:22.853Z</time></trkpt><trkpt lat="42.7121367" lon="-7.2431717"><ele>1323.25</ele><time>2026-04-15T09:11:23.853Z</time></trkpt><trkpt lat="42.7120233" lon="-7.2432833"><ele>1321.5</ele><time>2026-04-15T09:11:24.852Z</time></trkpt><trkpt lat="42.711915" lon="-7.2434"><ele>1319.75</ele><time>2026-04-15T09:11:25.852Z</time></trkpt><trkpt lat="42.7118017" lon="-7.2435083"><ele>1318.0</ele><time>2026-04-15T09:11:26.853Z</time></trkpt><trkpt lat="42.711675" lon="-7.2436083"><ele>1314.0</ele><time>2026-04-15T09:11:27.853Z</time></trkpt><trkpt lat="42.7115467" lon="-7.2436967"><ele>1310.0</ele><time>2026-04-15T09:11:28.852Z</time></trkpt><trkpt lat="42.711415" lon="-7.243785"><ele>1306.0</ele><time>2026-04-15T09:11:29.853Z</time></trkpt><trkpt lat="42.7113017" lon="-7.2438717"><ele>1302.0</ele><time>2026-04-15T09:11:30.852Z</time></trkpt><trkpt lat="42.7111967" lon="-7.24398"><ele>1300.75</ele><time>2026-04-15T09:11:31.852Z</time></trkpt><trkpt lat="42.7111033" lon="-7.2441033"><ele>1299.5</ele><time>2026-04-15T09:11:32.853Z</time></trkpt><trkpt lat="42.71101" lon="-7.2442483"><ele>1298.25</ele><time>2026-04-15T09:11:33.852Z</time></trkpt><trkpt lat="42.7109267" lon="-7.2443933"><ele>1297.0</ele><time>2026-04-15T09:11:34.853Z</time></trkpt><trkpt lat="42.7156533" lon="-7.241955"><ele>1313.25</ele><time>2026-04-15T09:10:54.852Z</time></trkpt><trkpt lat="42.7155183" lon="-7.2420317"><ele>1329.5</ele><time>2026-04-15T09:10:55.853Z</time></trkpt><trkpt lat="42.7153983" lon="-7.24213"><ele>1345.75</ele><time>2026-04-15T09:10:56.852Z</time></trkpt><trkpt lat="42.7152767" lon="-7.2421983"><ele>1362.0</ele><time>2026-04-15T09:10:57.853Z</time></trkpt><trkpt lat="42.7151483" lon="-7.24224"><ele>1362.0</ele><time>2026-04-15T09:10:58.853Z</time></trkpt><trkpt lat="42.715005" lon="-7.2422567"><ele>1362.0</ele><time>2026-04-15T09:10:59.852Z</time></trkpt><trkpt lat="42.7148567" lon="-7.2422567"><ele>1362.0</ele><time>2026-04-15T09:11:00.852Z</time></trkpt><trkpt lat="42.7147017" lon="-7.2422233"><ele>1362.0</ele><time>2026-04-15T09:11:01.853Z</time></trkpt><trkpt lat="42.7145367" lon="-7.242155"><ele>1360.3333333333333</ele><time>2026-04-15T09:11:02.853Z</time></trkpt><trkpt lat="42.7143567" lon="-7.2420733"><ele>1358.6666666666665</ele><time>2026-04-15T09:11:03.852Z</time></trkpt><trkpt lat="42.7141917" lon="-7.2420067"><ele>1357.0</ele><time>2026-04-15T09:11:04.852Z</time></trkpt><trkpt lat="42.714045" lon="-7.2419467"><ele>1357.0</ele><time>2026-04-15T09:11:05.853Z</time></trkpt><trkpt lat="42.7138983" lon="-7.241905"><ele>1357.0</ele><time>2026-04-15T09:11:06.852Z</time></trkpt><trkpt lat="42.7137633" lon="-7.2419017"><ele>1357.0</ele><time>2026-04-15T09:11:07.852Z</time></trkpt><trkpt lat="42.713635" lon="-7.24191"><ele>1357.0</ele><time>2026-04-15T09:11:08.852Z</time></trkpt><trkpt lat="42.7135183" lon="-7.2419433"><ele>1355.0</ele><time>2026-04-15T09:11:09.852Z</time></trkpt><trkpt lat="42.7134217" lon="-7.242005"><ele>1353.0</ele><time>2026-04-15T09:11:10.853Z</time></trkpt><trkpt lat="42.7133317" lon="-7.2420833"><ele>1351.0</ele><time>2026-04-15T09:11:11.852Z</time></trkpt><trkpt lat="42.7132383" lon="-7.242185"><ele>1349.0</ele><time>2026-04-15T09:11:12.853Z</time></trkpt><trkpt lat="42.7131433" lon="-7.2422717"><ele>1347.0</ele><time>2026-04-15T09:11:13.853Z</time></trkpt><trkpt lat="42.7130417" lon="-7.2423583"><ele>1346.0</ele><time>2026-04-15T09:11:14.852Z</time></trkpt><trkpt lat="42.7129217" lon="-7.24246"><ele>1345.0</ele><time>2026-04-15T09:11:15.853Z</time></trkpt><trkpt lat="42.7127967" lon="-7.2425633"><ele>1344.0</ele><time>2026-04-15T09:11:16.852Z</time></trkpt><trkpt lat="42.7126867" lon="-7.2426683"><ele>1343.0</ele><time>2026-04-15T09:11:17.853Z</time></trkpt><trkpt lat="42.7125933" lon="-7.2427933"><ele>1339.4</ele><time>2026-04-15T09:11:18.853Z</time></trkpt><trkpt lat="42.71251" lon="-7.2429"><ele>1335.8000000000002</ele><time>2026-04-15T09:11:19.853Z</time></trkpt><trkpt lat="42.7124267" lon="-7.2429767"><ele>1332.2</ele><time>2026-04-15T09:11:20.853Z</time></trkpt><trkpt lat="42.7123383" lon="-7.2430283"><ele>1328.6</ele><time>2026-04-15T09:11:21.852Z</time></trkpt><trkpt lat="42.7122433" lon="-7.243085"><ele>1325.0</ele><time>2026-04-15T09:11:22.853Z</time></trkpt><trkpt lat="42.7121367" lon="-7.2431717"><ele>1323.25</ele><time>2026-04-15T09:11:23.853Z</time></trkpt><trkpt lat="42.7120233" lon="-7.2432833"><ele>1321.5</ele><time>2026-04-15T09:11:24.852Z</time></trkpt><trkpt lat="42.711915" lon="-7.2434"><ele>1319.75</ele><time>2026-04-15T09:11:25.852Z</time></trkpt><trkpt lat="42.7118017" lon="-7.2435083"><ele>1318.0</ele><time>2026-04-15T09:11:26.853Z</time></trkpt><trkpt lat="42.711675" lon="-7.2436083"><ele>1314.0</ele><time>2026-04-15T09:11:27.853Z</time></trkpt><trkpt lat="42.7115467" lon="-7.2436967"><ele>1310.0</ele><time>2026-04-15T09:11:28.852Z</time></trkpt><trkpt lat="42.711415" lon="-7.243785"><ele>1306.0</ele><time>2026-04-15T09:11:29.853Z</time></trkpt><trkpt lat="42.7113017" lon="-7.2438717"><ele>1302.0</ele><time>2026-04-15T09:11:30.852Z</time></trkpt><trkpt lat="42.7111967" lon="-7.24398"><ele>1300.75</ele><time>2026-04-15T09:11:31.852Z</time></trkpt><trkpt lat="42.7111033" lon="-7.2441033"><ele>1299.5</ele><time>2026-04-15T09:11:32.853Z</time></trkpt><trkpt lat="42.71101" lon="-7.2442483"><ele>1298.25</ele><time>2026-04-15T09:11:33.852Z</time></trkpt><trkpt lat="42.7109267" lon="-7.2443933"><ele>1297.0</ele><time>2026-04-15T09:11:34.853Z</time></trkpt><trkpt lat="42.7108433" lon="-7.2445133"><ele>1293.75</ele><time>2026-04-15T09:11:35.852Z</time></trkpt><trkpt lat="42.7107433" lon="-7.24461"><ele>1290.5</ele><time>2026-04-15T09:11:36.852Z</time></trkpt><trkpt lat="42.7106383" lon="-7.2446567"><ele>1287.25</ele><time>2026-04-15T09:11:37.853Z</time></trkpt><trkpt lat="42.7105217" lon="-7.2446733"><ele>1284.0</ele><time>2026-04-15T09:11:38.852Z</time></trkpt><trkpt lat="42.7104117" lon="-7.2446733"><ele>1284.0</ele><time>2026-04-15T09:11:39.853Z</time></trkpt><trkpt lat="42.7102933" lon="-7.2446633"><ele>1284.0</ele><time>2026-04-15T09:11:40.852Z</time></trkpt><trkpt lat="42.7101717" lon="-7.2446333"><ele>1284.0</ele><time>2026-04-15T09:11:41.853Z</time></trkpt><trkpt lat="42.7100417" lon="-7.2445917"><ele>1284.0</ele><time>2026-04-15T09:11:42.853Z</time></trkpt><trkpt lat="42.7099083" lon="-7.2445467"><ele>1281.25</ele><time>2026-04-15T09:11:43.852Z</time></trkpt><trkpt lat="42.7097783" lon="-7.2445183"><ele>1278.5</ele><time>2026-04-15T09:11:44.853Z</time></trkpt><trkpt lat="42.7096533" lon="-7.2445083"><ele>1275.75</ele><time>2026-04-15T09:11:45.852Z</time></trkpt><trkpt lat="42.7095367" lon="-7.24453"><ele>1273.0</ele><time>2026-04-15T09:11:46.853Z</time></trkpt><trkpt lat="42.7094283" lon="-7.24459"><ele>1273.0</ele><time>2026-04-15T09:11:47.853Z</time></trkpt><trkpt lat="42.7093417" lon="-7.2446817"><ele>1273.0</ele><time>2026-04-15T09:11:48.852Z</time></trkpt><trkpt lat="42.7092717" lon="-7.2448117"><ele>1273.0</ele><time>2026-04-15T09:11:49.852Z</time></trkpt><trkpt lat="42.7092067" lon="-7.24496"><ele>1273.0</ele><time>2026-04-15T09:11:50.852Z</time></trkpt><trkpt lat="42.7091367" lon="-7.245105"><ele>1271.0</ele><time>2026-04-15T09:11:51.853Z</time></trkpt><trkpt lat="42.7090583" lon="-7.2452483"><ele>1269.0</ele><time>2026-04-15T09:11:52.852Z</time></trkpt><trkpt lat="42.7089683" lon="-7.2453983"><ele>1267.0</ele><time>2026-04-15T09:11:53.852Z</time></trkpt><trkpt lat="42.7088733" lon="-7.245545"><ele>1265.0</ele><time>2026-04-15T09:11:54.852Z</time></trkpt><trkpt lat="42.7087583" lon="-7.245695"><ele>1261.6666666666667</ele><time>2026-04-15T09:11:55.852Z</time></trkpt><trkpt lat="42.708625" lon="-7.2458483"><ele>1258.3333333333333</ele><time>2026-04-15T09:11:56.852Z</time></trkpt><trkpt lat="42.7084733" lon="-7.2459917"><ele>1255.0</ele><time>2026-04-15T09:11:57.852Z</time></trkpt><trkpt lat="42.7083117" lon="-7.2461333"><ele>1255.0</ele><time>2026-04-15T09:11:58.852Z</time></trkpt><trkpt lat="42.7081583" lon="-7.2462633"><ele>1255.0</ele><time>2026-04-15T09:11:59.852Z</time></trkpt><trkpt lat="42.7080033" lon="-7.2463967"><ele>1255.0</ele><time>2026-04-15T09:12:00.853Z</time></trkpt><trkpt lat="42.707855" lon="-7.2465317"><ele>1248.6666666666665</ele><time>2026-04-15T09:12:01.852Z</time></trkpt><trkpt lat="42.7077" lon="-7.2466567"><ele>1242.3333333333333</ele><time>2026-04-15T09:12:02.852Z</time></trkpt><trkpt lat="42.7075467" lon="-7.2467683"><ele>1236.0</ele><time>2026-04-15T09:12:03.853Z</time></trkpt><trkpt lat="42.707405" lon="-7.2468733"><ele>1236.0</ele><time>2026-04-15T09:12:04.852Z</time></trkpt><trkpt lat="42.707265" lon="-7.2469633"><ele>1236.0</ele><time>2026-04-15T09:12:05.852Z</time></trkpt><trkpt lat="42.7071183" lon="-7.247055"><ele>1236.0</ele><time>2026-04-15T09:12:06.852Z</time></trkpt><trkpt lat="42.7069583" lon="-7.247145"><ele>1234.3333333333333</ele><time>2026-04-15T09:12:07.852Z</time></trkpt><trkpt lat="42.706795" lon="-7.2472217"><ele>1232.6666666666665</ele><time>2026-04-15T09:12:08.852Z</time></trkpt><trkpt lat="42.7066383" lon="-7.2472917"><ele>1231.0</ele><time>2026-04-15T09:12:09.852Z</time></trkpt><trkpt lat="42.7064883" lon="-7.2473617"><ele>1225.6666666666665</ele><time>2026-04-15T09:12:10.852Z</time></trkpt><trkpt lat="42.70634" lon="-7.2474283"><ele>1220.3333333333333</ele><time>2026-04-15T09:12:11.852Z</time></trkpt><trkpt lat="42.70619" lon="-7.247495"><ele>1215.0</ele><time>2026-04-15T09:12:12.853Z</time></trkpt><trkpt lat="42.7060467" lon="-7.2475667"><ele>1211.6666666666667</ele><time>2026-04-15T09:12:13.852Z</time></trkpt><trkpt lat="42.7059" lon="-7.2476533"><ele>1208.3333333333335</ele><time>2026-04-15T09:12:14.852Z</time></trkpt><trkpt lat="42.705755" lon="-7.2477267"><ele>1205.0</ele><time>2026-04-15T09:12:15.852Z</time></trkpt><trkpt lat="42.705615" lon="-7.2478183"><ele>1205.0</ele><time>2026-04-15T09:12:16.852Z</time></trkpt><trkpt lat="42.7054783" lon="-7.247915"><ele>1205.0</ele><time>2026-04-15T09:12:17.852Z</time></trkpt><trkpt lat="42.705355" lon="-7.2479817"><ele>1205.0</ele><time>2026-04-15T09:12:18.853Z</time></trkpt><trkpt lat="42.705235" lon="-7.2480317"><ele>1205.0</ele><time>2026-04-15T09:12:19.853Z</time></trkpt><trkpt lat="42.7051283" lon="-7.24807"><ele>1202.0</ele><time>2026-04-15T09:12:20.853Z</time></trkpt><trkpt lat="42.7050283" lon="-7.2481117"><ele>1199.0</ele><time>2026-04-15T09:12:21.853Z</time></trkpt><trkpt lat="42.7049383" lon="-7.2481683"><ele>1196.0</ele><time>2026-04-15T09:12:22.853Z</time></trkpt><trkpt lat="42.704855" lon="-7.2482583"><ele>1193.0</ele><time>2026-04-15T09:12:23.852Z</time></trkpt><trkpt lat="42.7047683" lon="-7.24838"><ele>1190.0</ele><time>2026-04-15T09:12:24.853Z</time></trkpt><trkpt lat="42.70468" lon="-7.2485083"><ele>1187.6</ele><time>2026-04-15T09:12:25.853Z</time></trkpt><trkpt lat="42.7045867" lon="-7.2486267"><ele>1185.2</ele><time>2026-04-15T09:12:26.852Z</time></trkpt><trkpt lat="42.70449" lon="-7.2487183"><ele>1182.8</ele><time>2026-04-15T09:12:27.853Z</time></trkpt><trkpt lat="42.7044" lon="-7.248795"><ele>1180.4</ele><time>2026-04-15T09:12:28.852Z</time></trkpt><trkpt lat="42.7043267" lon="-7.248865"><ele>1178.0</ele><time>2026-04-15T09:12:29.852Z</time></trkpt><trkpt lat="42.704285" lon="-7.24894"><ele>1173.6</ele><time>2026-04-15T09:12:30.853Z</time></trkpt><trkpt lat="42.70429" lon="-7.24907"><ele>1169.1999999999998</ele><time>2026-04-15T09:12:32.852Z</time></trkpt><trkpt lat="42.7043333" lon="-7.2491533"><ele>1164.8</ele><time>2026-04-15T09:12:33.852Z</time></trkpt><trkpt lat="42.7043783" lon="-7.2492683"><ele>1160.3999999999999</ele><time>2026-04-15T09:12:34.853Z</time></trkpt><trkpt lat="42.7044017" lon="-7.2494167"><ele>1156.0</ele><time>2026-04-15T09:12:35.853Z</time></trkpt><trkpt lat="42.7044067" lon="-7.2495767"><ele>1156.0</ele><time>2026-04-15T09:12:36.853Z</time></trkpt><trkpt lat="42.70441" lon="-7.2497017"><ele>1156.0</ele><time>2026-04-15T09:12:37.852Z</time></trkpt><trkpt lat="42.7043717" lon="-7.2498333"><ele>1156.0</ele><time>2026-04-15T09:12:39.853Z</time></trkpt><trkpt lat="42.7042383" lon="-7.2498433"><ele>1156.0</ele><time>2026-04-15T09:12:41.852Z</time></trkpt><trkpt lat="42.7041383" lon="-7.2498117"><ele>1156.0</ele><time>2026-04-15T09:12:42.852Z</time></trkpt><trkpt lat="42.704015" lon="-7.2497833"><ele>1156.0</ele><time>2026-04-15T09:12:43.852Z</time></trkpt><trkpt lat="42.7038933" lon="-7.2497583"><ele>1156.0</ele><time>2026-04-15T09:12:44.853Z</time></trkpt><trkpt lat="42.7037883" lon="-7.2497533"><ele>1156.0</ele><time>2026-04-15T09:12:45.853Z</time></trkpt><trkpt lat="42.7037033" lon="-7.249775"><ele>1156.0</ele><time>2026-04-15T09:12:46.852Z</time></trkpt><trkpt lat="42.7036233" lon="-7.2498217"><ele>1156.0</ele><time>2026-04-15T09:12:47.853Z</time></trkpt><trkpt lat="42.703545" lon="-7.2498933"><ele>1150.25</ele><time>2026-04-15T09:12:48.853Z</time></trkpt><trkpt lat="42.7034667" lon="-7.25"><ele>1144.5</ele><time>2026-04-15T09:12:49.853Z</time></trkpt><trkpt lat="42.7033783" lon="-7.2501217"><ele>1138.75</ele><time>2026-04-15T09:12:50.852Z</time></trkpt><trkpt lat="42.7032933" lon="-7.2502317"><ele>1133.0</ele><time>2026-04-15T09:12:51.853Z</time></trkpt><trkpt lat="42.7032117" lon="-7.2503333"><ele>1133.0</ele><time>2026-04-15T09:12:52.852Z</time></trkpt><trkpt lat="42.7031117" lon="-7.2504283"><ele>1133.0</ele><time>2026-04-15T09:12:53.853Z</time></trkpt><trkpt lat="42.703005" lon="-7.2504917"><ele>1133.0</ele><time>2026-04-15T09:12:54.852Z</time></trkpt><trkpt lat="42.702885" lon="-7.2505133"><ele>1133.0</ele><time>2026-04-15T09:12:55.852Z</time></trkpt><trkpt lat="42.7027667" lon="-7.2505217"><ele>1130.8</ele><time>2026-04-15T09:12:56.852Z</time></trkpt><trkpt lat="42.70267" lon="-7.2505333"><ele>1128.6</ele><time>2026-04-15T09:12:57.852Z</time></trkpt><trkpt lat="42.7025883" lon="-7.2505567"><ele>1126.4</ele><time>2026-04-15T09:12:58.853Z</time></trkpt><trkpt lat="42.7025167" lon="-7.250625"><ele>1124.2</ele><time>2026-04-15T09:13:00.852Z</time></trkpt><trkpt lat="42.70254" lon="-7.2507567"><ele>1122.0</ele><time>2026-04-15T09:13:02.853Z</time></trkpt><trkpt lat="42.70259" lon="-7.2508483"><ele>1122.0</ele><time>2026-04-15T09:13:03.852Z</time></trkpt><trkpt lat="42.7026233" lon="-7.25094"><ele>1122.0</ele><time>2026-04-15T09:13:04.852Z</time></trkpt><trkpt lat="42.7025533" lon="-7.2510867"><ele>1122.0</ele><time>2026-04-15T09:13:06.852Z</time></trkpt><trkpt lat="42.7024783" lon="-7.25117"><ele>1122.0</ele><time>2026-04-15T09:13:07.853Z</time></trkpt><trkpt lat="42.7023933" lon="-7.251275"><ele>1122.0</ele><time>2026-04-15T09:13:08.852Z</time></trkpt><trkpt lat="42.7023133" lon="-7.2514067"><ele>1122.25</ele><time>2026-04-15T09:13:09.852Z</time></trkpt><trkpt lat="42.702255" lon="-7.2515683"><ele>1122.5</ele><time>2026-04-15T09:13:10.853Z</time></trkpt><trkpt lat="42.7021967" lon="-7.2517633"><ele>1122.75</ele><time>2026-04-15T09:13:11.853Z</time></trkpt><trkpt lat="42.7021183" lon="-7.251945"><ele>1123.0</ele><time>2026-04-15T09:13:12.853Z</time></trkpt><trkpt lat="42.7020233" lon="-7.252125"><ele>1130.0</ele><time>2026-04-15T09:13:13.853Z</time></trkpt><trkpt lat="42.70189" lon="-7.2523083"><ele>1137.0</ele><time>2026-04-15T09:13:14.853Z</time></trkpt><trkpt lat="42.70176" lon="-7.25251"><ele>1144.0</ele><time>2026-04-15T09:13:15.852Z</time></trkpt><trkpt lat="42.7016433" lon="-7.2527083"><ele>1144.0</ele><time>2026-04-15T09:13:16.853Z</time></trkpt><trkpt lat="42.7015533" lon="-7.2529117"><ele>1144.0</ele><time>2026-04-15T09:13:17.853Z</time></trkpt><trkpt lat="42.701485" lon="-7.2531067"><ele>1144.0</ele><time>2026-04-15T09:13:18.852Z</time></trkpt><trkpt lat="42.7014383" lon="-7.253315"><ele>1143.6666666666665</ele><time>2026-04-15T09:13:19.853Z</time></trkpt><trkpt lat="42.701405" lon="-7.253525"><ele>1143.3333333333333</ele><time>2026-04-15T09:13:20.852Z</time></trkpt><trkpt lat="42.7013783" lon="-7.2537567"><ele>1143.0</ele><time>2026-04-15T09:13:21.853Z</time></trkpt><trkpt lat="42.701355" lon="-7.2540017"><ele>1143.0</ele><time>2026-04-15T09:13:22.852Z</time></trkpt><trkpt lat="42.7013367" lon="-7.25425"><ele>1143.0</ele><time>2026-04-15T09:13:23.852Z</time></trkpt><trkpt lat="42.7013317" lon="-7.2544983"><ele>1143.0</ele><time>2026-04-15T09:13:24.853Z</time></trkpt><trkpt lat="42.70133" lon="-7.254765"><ele>1145.0</ele><time>2026-04-15T09:13:25.853Z</time></trkpt><trkpt lat="42.7013383" lon="-7.2550433"><ele>1147.0</ele><time>2026-04-15T09:13:26.852Z</time></trkpt><trkpt lat="42.7013317" lon="-7.2553417"><ele>1149.0</ele><time>2026-04-15T09:13:27.853Z</time></trkpt><trkpt lat="42.7013133" lon="-7.2556633"><ele>1151.5</ele><time>2026-04-15T09:13:28.852Z</time></trkpt><trkpt lat="42.7013017" lon="-7.2560017"><ele>1154.0</ele><time>2026-04-15T09:13:29.852Z</time></trkpt><trkpt lat="42.7013033" lon="-7.2563567"><ele>1153.5</ele><time>2026-04-15T09:13:30.853Z</time></trkpt><trkpt lat="42.7013267" lon="-7.2566983"><ele>1153.0</ele><time>2026-04-15T09:13:31.852Z</time></trkpt><trkpt lat="42.7013767" lon="-7.25704"><ele>1156.0</ele><time>2026-04-15T09:13:32.852Z</time></trkpt><trkpt lat="42.70143" lon="-7.257385"><ele>1159.0</ele><time>2026-04-15T09:13:33.853Z</time></trkpt><trkpt lat="42.7014833" lon="-7.2577083"><ele>1159.0</ele><time>2026-04-15T09:13:34.852Z</time></trkpt><trkpt lat="42.7015383" lon="-7.25801"><ele>1159.0</ele><time>2026-04-15T09:13:35.852Z</time></trkpt><trkpt lat="42.7015917" lon="-7.2582867"><ele>1159.0</ele><time>2026-04-15T09:13:36.853Z</time></trkpt><trkpt lat="42.701645" lon="-7.2585733"><ele>1163.0</ele><time>2026-04-15T09:13:37.852Z</time></trkpt><trkpt lat="42.7017083" lon="-7.2588867"><ele>1167.0</ele><time>2026-04-15T09:13:38.852Z</time></trkpt><trkpt lat="42.7017883" lon="-7.2592017"><ele>1168.5</ele><time>2026-04-15T09:13:39.853Z</time></trkpt><trkpt lat="42.7018817" lon="-7.25952"><ele>1170.0</ele><time>2026-04-15T09:13:40.852Z</time></trkpt><trkpt lat="42.7019733" lon="-7.2598433"><ele>1170.0</ele><time>2026-04-15T09:13:41.852Z</time></trkpt><trkpt lat="42.7020633" lon="-7.2601833"><ele>1170.0</ele><time>2026-04-15T09:13:42.852Z</time></trkpt><trkpt lat="42.7021367" lon="-7.26053"><ele>1173.5</ele><time>2026-04-15T09:13:43.852Z</time></trkpt><trkpt lat="42.7022133" lon="-7.2608817"><ele>1177.0</ele><time>2026-04-15T09:13:44.853Z</time></trkpt><trkpt lat="42.70227" lon="-7.2612167"><ele>1180.0</ele><time>2026-04-15T09:13:45.852Z</time></trkpt><trkpt lat="42.7023033" lon="-7.2615517"><ele>1183.0</ele><time>2026-04-15T09:13:46.853Z</time></trkpt><trkpt lat="42.7023117" lon="-7.2618833"><ele>1183.0</ele><time>2026-04-15T09:13:47.853Z</time></trkpt><trkpt lat="42.7023033" lon="-7.2621767"><ele>1183.0</ele><time>2026-04-15T09:13:48.852Z</time></trkpt><trkpt lat="42.7023" lon="-7.26244"><ele>1183.0</ele><time>2026-04-15T09:13:49.852Z</time></trkpt><trkpt lat="42.7023117" lon="-7.2626733"><ele>1183.0</ele><time>2026-04-15T09:13:50.852Z</time></trkpt><trkpt lat="42.7023233" lon="-7.2628867"><ele>1183.0</ele><time>2026-04-15T09:13:51.853Z</time></trkpt><trkpt lat="42.702365" lon="-7.2631"><ele>1183.0</ele><time>2026-04-15T09:13:52.853Z</time></trkpt><trkpt lat="42.7024083" lon="-7.2633367"><ele>1182.3333333333333</ele><time>2026-04-15T09:13:53.853Z</time></trkpt><trkpt lat="42.7024233" lon="-7.2635617"><ele>1181.6666666666667</ele><time>2026-04-15T09:13:54.852Z</time></trkpt><trkpt lat="42.7024117" lon="-7.2637717"><ele>1181.0</ele><time>2026-04-15T09:13:55.853Z</time></trkpt><trkpt lat="42.70237" lon="-7.2639683"><ele>1179.6666666666667</ele><time>2026-04-15T09:13:56.853Z</time></trkpt><trkpt lat="42.7022983" lon="-7.2641717"><ele>1178.3333333333333</ele><time>2026-04-15T09:13:57.852Z</time></trkpt><trkpt lat="42.7022233" lon="-7.2643917"><ele>1177.0</ele><time>2026-04-15T09:13:58.853Z</time></trkpt><trkpt lat="42.702135" lon="-7.264635"><ele>1176.0</ele><time>2026-04-15T09:13:59.852Z</time></trkpt><trkpt lat="42.7020433" lon="-7.2649017"><ele>1175.0</ele><time>2026-04-15T09:14:00.853Z</time></trkpt><trkpt lat="42.7019333" lon="-7.2651767"><ele>1174.0</ele><time>2026-04-15T09:14:01.853Z</time></trkpt><trkpt lat="42.7018133" lon="-7.2654683"><ele>1171.0</ele><time>2026-04-15T09:14:02.853Z</time></trkpt><trkpt lat="42.7016933" lon="-7.2657783"><ele>1168.0</ele><time>2026-04-15T09:14:03.852Z</time></trkpt><trkpt lat="42.7015667" lon="-7.2661"><ele>1159.0</ele><time>2026-04-15T09:14:04.852Z</time></trkpt><trkpt lat="42.7014833" lon="-7.2577083"><ele>1159.0</ele><time>2026-04-15T09:13:34.852Z</time></trkpt><trkpt lat="42.7015383" lon="-7.25801"><ele>1159.0</ele><time>2026-04-15T09:13:35.852Z</time></trkpt><trkpt lat="42.7015917" lon="-7.2582867"><ele>1159.0</ele><time>2026-04-15T09:13:36.853Z</time></trkpt><trkpt lat="42.701645" lon="-7.2585733"><ele>1163.0</ele><time>2026-04-15T09:13:37.852Z</time></trkpt><trkpt lat="42.7017083" lon="-7.2588867"><ele>1167.0</ele><time>2026-04-15T09:13:38.852Z</time></trkpt><trkpt lat="42.7017883" lon="-7.2592017"><ele>1168.5</ele><time>2026-04-15T09:13:39.853Z</time></trkpt><trkpt lat="42.7018817" lon="-7.25952"><ele>1170.0</ele><time>2026-04-15T09:13:40.852Z</time></trkpt><trkpt lat="42.7019733" lon="-7.2598433"><ele>1170.0</ele><time>2026-04-15T09:13:41.852Z</time></trkpt><trkpt lat="42.7020633" lon="-7.2601833"><ele>1170.0</ele><time>2026-04-15T09:13:42.852Z</time></trkpt><trkpt lat="42.7021367" lon="-7.26053"><ele>1173.5</ele><time>2026-04-15T09:13:43.852Z</time></trkpt><trkpt lat="42.7022133" lon="-7.2608817"><ele>1177.0</ele><time>2026-04-15T09:13:44.853Z</time></trkpt><trkpt lat="42.70227" lon="-7.2612167"><ele>1180.0</ele><time>2026-04-15T09:13:45.852Z</time></trkpt><trkpt lat="42.7023033" lon="-7.2615517"><ele>1183.0</ele><time>2026-04-15T09:13:46.853Z</time></trkpt><trkpt lat="42.7023117" lon="-7.2618833"><ele>1183.0</ele><time>2026-04-15T09:13:47.853Z</time></trkpt><trkpt lat="42.7023033" lon="-7.2621767"><ele>1183.0</ele><time>2026-04-15T09:13:48.852Z</time></trkpt><trkpt lat="42.7023" lon="-7.26244"><ele>1183.0</ele><time>2026-04-15T09:13:49.852Z</time></trkpt><trkpt lat="42.7023117" lon="-7.2626733"><ele>1183.0</ele><time>2026-04-15T09:13:50.852Z</time></trkpt><trkpt lat="42.7023233" lon="-7.2628867"><ele>1183.0</ele><time>2026-04-15T09:13:51.853Z</time></trkpt><trkpt lat="42.702365" lon="-7.2631"><ele>1183.0</ele><time>2026-04-15T09:13:52.853Z</time></trkpt><trkpt lat="42.7024083" lon="-7.2633367"><ele>1182.3333333333333</ele><time>2026-04-15T09:13:53.853Z</time></trkpt><trkpt lat="42.7024233" lon="-7.2635617"><ele>1181.6666666666667</ele><time>2026-04-15T09:13:54.852Z</time></trkpt><trkpt lat="42.7024117" lon="-7.2637717"><ele>1181.0</ele><time>2026-04-15T09:13:55.853Z</time></trkpt><trkpt lat="42.70237" lon="-7.2639683"><ele>1179.6666666666667</ele><time>2026-04-15T09:13:56.853Z</time></trkpt><trkpt lat="42.7022983" lon="-7.2641717"><ele>1178.3333333333333</ele><time>2026-04-15T09:13:57.852Z</time></trkpt><trkpt lat="42.7022233" lon="-7.2643917"><ele>1177.0</ele><time>2026-04-15T09:13:58.853Z</time></trkpt><trkpt lat="42.702135" lon="-7.264635"><ele>1176.0</ele><time>2026-04-15T09:13:59.852Z</time></trkpt><trkpt lat="42.7020433" lon="-7.2649017"><ele>1175.0</ele><time>2026-04-15T09:14:00.853Z</time></trkpt><trkpt lat="42.7019333" lon="-7.2651767"><ele>1174.0</ele><time>2026-04-15T09:14:01.853Z</time></trkpt><trkpt lat="42.7018133" lon="-7.2654683"><ele>1171.0</ele><time>2026-04-15T09:14:02.853Z</time></trkpt><trkpt lat="42.7016933" lon="-7.2657783"><ele>1168.0</ele><time>2026-04-15T09:14:03.852Z</time></trkpt><trkpt lat="42.7015667" lon="-7.2661"><ele>1168.0</ele><time>2026-04-15T09:14:04.852Z</time></trkpt><trkpt lat="42.7014417" lon="-7.2663983"><ele>1168.0</ele><time>2026-04-15T09:14:05.853Z</time></trkpt><trkpt lat="42.70134" lon="-7.2666617"><ele>1164.3333333333333</ele><time>2026-04-15T09:14:06.852Z</time></trkpt><trkpt lat="42.7012633" lon="-7.2668767"><ele>1160.6666666666667</ele><time>2026-04-15T09:14:07.852Z</time></trkpt><trkpt lat="42.701205" lon="-7.267075"><ele>1157.0</ele><time>2026-04-15T09:14:08.853Z</time></trkpt><trkpt lat="42.7011933" lon="-7.267285"><ele>1156.0</ele><time>2026-04-15T09:14:09.853Z</time></trkpt><trkpt lat="42.7012033" lon="-7.2674967"><ele>1155.0</ele><time>2026-04-15T09:14:10.852Z</time></trkpt><trkpt lat="42.70125" lon="-7.2677167"><ele>1154.0</ele><time>2026-04-15T09:14:11.852Z</time></trkpt><trkpt lat="42.701315" lon="-7.26792"><ele>1154.0</ele><time>2026-04-15T09:14:12.852Z</time></trkpt><trkpt lat="42.70135" lon="-7.2681033"><ele>1154.0</ele><time>2026-04-15T09:14:13.853Z</time></trkpt><trkpt lat="42.7013667" lon="-7.2682583"><ele>1154.0</ele><time>2026-04-15T09:14:14.852Z</time></trkpt><trkpt lat="42.7013717" lon="-7.2683967"><ele>1154.0</ele><time>2026-04-15T09:14:15.853Z</time></trkpt><trkpt lat="42.701365" lon="-7.2685233"><ele>1154.0</ele><time>2026-04-15T09:14:16.854Z</time></trkpt><trkpt lat="42.7013417" lon="-7.26865"><ele>1154.4</ele><time>2026-04-15T09:14:17.854Z</time></trkpt><trkpt lat="42.7013083" lon="-7.2687833"><ele>1154.8000000000002</ele><time>2026-04-15T09:14:18.853Z</time></trkpt><trkpt lat="42.70126" lon="-7.2689217"><ele>1155.1999999999998</ele><time>2026-04-15T09:14:19.854Z</time></trkpt><trkpt lat="42.70121" lon="-7.2690517"><ele>1155.6</ele><time>2026-04-15T09:14:20.854Z</time></trkpt><trkpt lat="42.7011517" lon="-7.2691733"><ele>1156.0</ele><time>2026-04-15T09:14:21.854Z</time></trkpt><trkpt lat="42.7010917" lon="-7.2692917"><ele>1156.2</ele><time>2026-04-15T09:14:22.854Z</time></trkpt><trkpt lat="42.7010317" lon="-7.269395"><ele>1156.3999999999999</ele><time>2026-04-15T09:14:23.853Z</time></trkpt><trkpt lat="42.700975" lon="-7.2694967"><ele>1156.6</ele><time>2026-04-15T09:14:24.853Z</time></trkpt><trkpt lat="42.7009217" lon="-7.269605"><ele>1156.8</ele><time>2026-04-15T09:14:25.854Z</time></trkpt><trkpt lat="42.7008667" lon="-7.2697117"><ele>1157.0</ele><time>2026-04-15T09:14:26.853Z</time></trkpt><trkpt lat="42.7008133" lon="-7.2698233"><ele>1157.0</ele><time>2026-04-15T09:14:27.853Z</time></trkpt><trkpt lat="42.7007717" lon="-7.269945"><ele>1157.0</ele><time>2026-04-15T09:14:28.853Z</time></trkpt><trkpt lat="42.700735" lon="-7.27007"><ele>1157.0</ele><time>2026-04-15T09:14:29.853Z</time></trkpt><trkpt lat="42.700695" lon="-7.27019"><ele>1157.0</ele><time>2026-04-15T09:14:30.853Z</time></trkpt><trkpt lat="42.7006533" lon="-7.2702983"><ele>1157.0</ele><time>2026-04-15T09:14:31.854Z</time></trkpt><trkpt lat="42.7006167" lon="-7.2704"><ele>1157.0</ele><time>2026-04-15T09:14:32.853Z</time></trkpt><trkpt lat="42.7005783" lon="-7.270495"><ele>1157.0</ele><time>2026-04-15T09:14:33.853Z</time></trkpt><trkpt lat="42.7005417" lon="-7.2705833"><ele>1157.0</ele><time>2026-04-15T09:14:34.854Z</time></trkpt><trkpt lat="42.7005083" lon="-7.2706917"><ele>1157.0</ele><time>2026-04-15T09:14:35.853Z</time></trkpt><trkpt lat="42.7004817" lon="-7.2708133"><ele>1157.0</ele><time>2026-04-15T09:14:36.854Z</time></trkpt><trkpt lat="42.7004583" lon="-7.2709433"><ele>1157.0</ele><time>2026-04-15T09:14:37.854Z</time></trkpt><trkpt lat="42.7004367" lon="-7.2710783"><ele>1155.8</ele><time>2026-04-15T09:14:38.853Z</time></trkpt><trkpt lat="42.700415" lon="-7.271205"><ele>1154.6</ele><time>2026-04-15T09:14:39.853Z</time></trkpt><trkpt lat="42.70039" lon="-7.2713317"><ele>1153.3999999999999</ele><time>2026-04-15T09:14:40.853Z</time></trkpt><trkpt lat="42.7003617" lon="-7.27146"><ele>1152.2</ele><time>2026-04-15T09:14:41.854Z</time></trkpt><trkpt lat="42.70033" lon="-7.2715817"><ele>1151.0</ele><time>2026-04-15T09:14:42.854Z</time></trkpt><trkpt lat="42.7002983" lon="-7.2716983"><ele>1151.0</ele><time>2026-04-15T09:14:43.853Z</time></trkpt><trkpt lat="42.70026" lon="-7.271815"><ele>1151.0</ele><time>2026-04-15T09:14:44.854Z</time></trkpt><trkpt lat="42.700215" lon="-7.2719083"><ele>1151.0</ele><time>2026-04-15T09:14:45.853Z</time></trkpt><trkpt lat="42.7001483" lon="-7.2719733"><ele>1151.0</ele><time>2026-04-15T09:14:46.854Z</time></trkpt><trkpt lat="42.7000767" lon="-7.2720017"><ele>1151.0</ele><time>2026-04-15T09:14:47.853Z</time></trkpt><trkpt lat="42.6999983" lon="-7.2720183"><ele>1151.0</ele><time>2026-04-15T09:14:48.853Z</time></trkpt><trkpt lat="42.6999183" lon="-7.2720183"><ele>1151.0</ele><time>2026-04-15T09:14:49.853Z</time></trkpt><trkpt lat="42.6998433" lon="-7.27202"><ele>1151.0</ele><time>2026-04-15T09:14:50.853Z</time></trkpt><trkpt lat="42.6997717" lon="-7.2720333"><ele>1151.0</ele><time>2026-04-15T09:14:51.854Z</time></trkpt><trkpt lat="42.6996983" lon="-7.2720533"><ele>1151.0</ele><time>2026-04-15T09:14:52.853Z</time></trkpt><trkpt lat="42.6996183" lon="-7.2720817"><ele>1151.0</ele><time>2026-04-15T09:14:53.854Z</time></trkpt><trkpt lat="42.69953" lon="-7.27212"><ele>1151.0</ele><time>2026-04-15T09:14:54.854Z</time></trkpt><trkpt lat="42.6994433" lon="-7.2721767"><ele>1149.2</ele><time>2026-04-15T09:14:55.853Z</time></trkpt><trkpt lat="42.6993567" lon="-7.272255"><ele>1147.3999999999999</ele><time>2026-04-15T09:14:56.853Z</time></trkpt><trkpt lat="42.6992817" lon="-7.2723467"><ele>1145.6</ele><time>2026-04-15T09:14:57.853Z</time></trkpt><trkpt lat="42.6992117" lon="-7.272445"><ele>1143.8</ele><time>2026-04-15T09:14:58.854Z</time></trkpt><trkpt lat="42.6991417" lon="-7.2725467"><ele>1142.0</ele><time>2026-04-15T09:14:59.854Z</time></trkpt><trkpt lat="42.699075" lon="-7.2726467"><ele>1142.0</ele><time>2026-04-15T09:15:00.853Z</time></trkpt><trkpt lat="42.6990117" lon="-7.2727517"><ele>1142.0</ele><time>2026-04-15T09:15:01.853Z</time></trkpt><trkpt lat="42.6989583" lon="-7.2728517"><ele>1142.0</ele><time>2026-04-15T09:15:02.853Z</time></trkpt><trkpt lat="42.6989" lon="-7.27295"><ele>1142.0</ele><time>2026-04-15T09:15:03.853Z</time></trkpt><trkpt lat="42.6988433" lon="-7.273045"><ele>1142.0</ele><time>2026-04-15T09:15:04.853Z</time></trkpt><trkpt lat="42.6987883" lon="-7.2731433"><ele>1143.6</ele><time>2026-04-15T09:15:05.854Z</time></trkpt><trkpt lat="42.69873" lon="-7.2732467"><ele>1145.2</ele><time>2026-04-15T09:15:06.853Z</time></trkpt><trkpt lat="42.6986783" lon="-7.2733583"><ele>1146.8</ele><time>2026-04-15T09:15:07.854Z</time></trkpt><trkpt lat="42.6986367" lon="-7.2734717"><ele>1148.4</ele><time>2026-04-15T09:15:08.854Z</time></trkpt><trkpt lat="42.698595" lon="-7.2735867"><ele>1150.0</ele><time>2026-04-15T09:15:09.853Z</time></trkpt><trkpt lat="42.6985533" lon="-7.273705"><ele>1145.4</ele><time>2026-04-15T09:15:10.854Z</time></trkpt><trkpt lat="42.6985217" lon="-7.273815"><ele>1140.8</ele><time>2026-04-15T09:15:11.853Z</time></trkpt><trkpt lat="42.6984967" lon="-7.2739367"><ele>1136.2</ele><time>2026-04-15T09:15:12.854Z</time></trkpt><trkpt lat="42.698465" lon="-7.27405"><ele>1131.6</ele><time>2026-04-15T09:15:13.854Z</time></trkpt><trkpt lat="42.698435" lon="-7.274175"><ele>1127.0</ele><time>2026-04-15T09:15:14.854Z</time></trkpt><trkpt lat="42.6984117" lon="-7.2742933"><ele>1127.0</ele><time>2026-04-15T09:15:15.854Z</time></trkpt><trkpt lat="42.6983817" lon="-7.2744083"><ele>1127.0</ele><time>2026-04-15T09:15:16.854Z</time></trkpt><trkpt lat="42.69834" lon="-7.2745233"><ele>1127.0</ele><time>2026-04-15T09:15:17.853Z</time></trkpt><trkpt lat="42.6982933" lon="-7.2746267"><ele>1127.0</ele><time>2026-04-15T09:15:18.854Z</time></trkpt><trkpt lat="42.6982417" lon="-7.2747083"><ele>1127.0</ele><time>2026-04-15T09:15:19.854Z</time></trkpt><trkpt lat="42.698175" lon="-7.2747833"><ele>1127.0</ele><time>2026-04-15T09:15:20.854Z</time></trkpt><trkpt lat="42.69808" lon="-7.2748617"><ele>1129.0</ele><time>2026-04-15T09:15:21.854Z</time></trkpt><trkpt lat="42.6979867" lon="-7.2749433"><ele>1131.0</ele><time>2026-04-15T09:15:22.853Z</time></trkpt><trkpt lat="42.6979017" lon="-7.27503"><ele>1133.0</ele><time>2026-04-15T09:15:23.853Z</time></trkpt><trkpt lat="42.697835" lon="-7.2751167"><ele>1135.0</ele><time>2026-04-15T09:15:24.854Z</time></trkpt><trkpt lat="42.6977683" lon="-7.2752"><ele>1137.0</ele><time>2026-04-15T09:15:25.854Z</time></trkpt><trkpt lat="42.6977067" lon="-7.2752817"><ele>1134.5</ele><time>2026-04-15T09:15:26.853Z</time></trkpt><trkpt lat="42.6976433" lon="-7.27536"><ele>1132.0</ele><time>2026-04-15T09:15:27.853Z</time></trkpt><trkpt lat="42.6975833" lon="-7.27544"><ele>1129.5</ele><time>2026-04-15T09:15:28.853Z</time></trkpt><trkpt lat="42.6975183" lon="-7.2755117"><ele>1127.0</ele><time>2026-04-15T09:15:29.853Z</time></trkpt><trkpt lat="42.6974533" lon="-7.2755883"><ele>1124.5</ele><time>2026-04-15T09:15:30.854Z</time></trkpt><trkpt lat="42.69738" lon="-7.275665"><ele>1122.0</ele><time>2026-04-15T09:15:31.854Z</time></trkpt><trkpt lat="42.6973117" lon="-7.2757367"><ele>1122.0</ele><time>2026-04-15T09:15:32.853Z</time></trkpt><trkpt lat="42.69724" lon="-7.2757983"><ele>1122.0</ele><time>2026-04-15T09:15:33.853Z</time></trkpt><trkpt lat="42.697165" lon="-7.2758483"><ele>1122.0</ele><time>2026-04-15T09:15:34.854Z</time></trkpt><trkpt lat="42.6970833" lon="-7.275885"><ele>1122.0</ele><time>2026-04-15T09:15:35.853Z</time></trkpt><trkpt lat="42.6970017" lon="-7.27591"><ele>1122.0</ele><time>2026-04-15T09:15:36.854Z</time></trkpt><trkpt lat="42.69693" lon="-7.2759417"><ele>1122.0</ele><time>2026-04-15T09:15:37.854Z</time></trkpt><trkpt lat="42.696865" lon="-7.2759833"><ele>1120.6666666666667</ele><time>2026-04-15T09:15:38.853Z</time></trkpt><trkpt lat="42.69682" lon="-7.2760567"><ele>1119.3333333333333</ele><time>2026-04-15T09:15:39.854Z</time></trkpt><trkpt lat="42.6967917" lon="-7.2761483"><ele>1118.0</ele><time>2026-04-15T09:15:40.854Z</time></trkpt><trkpt lat="42.6967733" lon="-7.2762483"><ele>1116.6666666666665</ele><time>2026-04-15T09:15:41.854Z</time></trkpt><trkpt lat="42.6967617" lon="-7.2763517"><ele>1115.3333333333333</ele><time>2026-04-15T09:15:42.853Z</time></trkpt><trkpt lat="42.696735" lon="-7.2764617"><ele>1114.0</ele><time>2026-04-15T09:15:43.853Z</time></trkpt><trkpt lat="42.6966883" lon="-7.276555"><ele>1113.8</ele><time>2026-04-15T09:15:44.853Z</time></trkpt><trkpt lat="42.6966283" lon="-7.27665"><ele>1113.6000000000001</ele><time>2026-04-15T09:15:45.853Z</time></trkpt><trkpt lat="42.6965667" lon="-7.2767333"><ele>1113.4</ele><time>2026-04-15T09:15:46.854Z</time></trkpt><trkpt lat="42.696505" lon="-7.2768283"><ele>1113.2</ele><time>2026-04-15T09:15:47.854Z</time></trkpt><trkpt lat="42.6964483" lon="-7.276935"><ele>1113.0</ele><time>2026-04-15T09:15:48.854Z</time></trkpt><trkpt lat="42.6963933" lon="-7.277045"><ele>1113.0</ele><time>2026-04-15T09:15:49.853Z</time></trkpt><trkpt lat="42.6963367" lon="-7.2771533"><ele>1113.0</ele><time>2026-04-15T09:15:50.853Z</time></trkpt><trkpt lat="42.6962817" lon="-7.2772733"><ele>1113.0</ele><time>2026-04-15T09:15:51.853Z</time></trkpt><trkpt lat="42.6962283" lon="-7.27739"><ele>1113.0</ele><time>2026-04-15T09:15:52.853Z</time></trkpt><trkpt lat="42.6961783" lon="-7.2775067"><ele>1113.0</ele><time>2026-04-15T09:15:53.853Z</time></trkpt><trkpt lat="42.6961233" lon="-7.2776133"><ele>1112.6</ele><time>2026-04-15T09:15:54.854Z</time></trkpt><trkpt lat="42.6960683" lon="-7.2777183"><ele>1112.1999999999998</ele><time>2026-04-15T09:15:55.854Z</time></trkpt><trkpt lat="42.696015" lon="-7.2778283"><ele>1111.8</ele><time>2026-04-15T09:15:56.853Z</time></trkpt><trkpt lat="42.6959633" lon="-7.2779417"><ele>1111.3999999999999</ele><time>2026-04-15T09:15:57.854Z</time></trkpt><trkpt lat="42.6959083" lon="-7.278055"><ele>1111.0</ele><time>2026-04-15T09:15:58.853Z</time></trkpt><trkpt lat="42.6958567" lon="-7.2781667"><ele>1111.0</ele><time>2026-04-15T09:15:59.853Z</time></trkpt><trkpt lat="42.69581" lon="-7.278275"><ele>1111.0</ele><time>2026-04-15T09:16:00.854Z</time></trkpt><trkpt lat="42.6957667" lon="-7.2783867"><ele>1111.0</ele><time>2026-04-15T09:16:01.853Z</time></trkpt><trkpt lat="42.6957267" lon="-7.278495"><ele>1111.0</ele><time>2026-04-15T09:16:02.854Z</time></trkpt><trkpt lat="42.6956883" lon="-7.2786083"><ele>1111.0</ele><time>2026-04-15T09:16:03.853Z</time></trkpt><trkpt lat="42.6956533" lon="-7.2787217"><ele>1122.0</ele><time>2026-04-15T09:16:04.854Z</time></trkpt><trkpt lat="42.69724" lon="-7.2757983"><ele>1122.0</ele><time>2026-04-15T09:15:33.853Z</time></trkpt><trkpt lat="42.697165" lon="-7.2758483"><ele>1122.0</ele><time>2026-04-15T09:15:34.854Z</time></trkpt><trkpt lat="42.6970833" lon="-7.275885"><ele>1122.0</ele><time>2026-04-15T09:15:35.853Z</time></trkpt><trkpt lat="42.6970017" lon="-7.27591"><ele>1122.0</ele><time>2026-04-15T09:15:36.854Z</time></trkpt><trkpt lat="42.69693" lon="-7.2759417"><ele>1122.0</ele><time>2026-04-15T09:15:37.854Z</time></trkpt><trkpt lat="42.696865" lon="-7.2759833"><ele>1122.0</ele><time>2026-04-15T09:15:38.853Z</time></trkpt><trkpt lat="42.69682" lon="-7.2760567"><ele>1120.6666666666667</ele><time>2026-04-15T09:15:39.854Z</time></trkpt><trkpt lat="42.6967917" lon="-7.2761483"><ele>1119.3333333333333</ele><time>2026-04-15T09:15:40.854Z</time></trkpt><trkpt lat="42.6967733" lon="-7.2762483"><ele>1118.0</ele><time>2026-04-15T09:15:41.854Z</time></trkpt><trkpt lat="42.6967617" lon="-7.2763517"><ele>1116.6666666666665</ele><time>2026-04-15T09:15:42.853Z</time></trkpt><trkpt lat="42.696735" lon="-7.2764617"><ele>1115.3333333333333</ele><time>2026-04-15T09:15:43.853Z</time></trkpt><trkpt lat="42.6966883" lon="-7.276555"><ele>1114.0</ele><time>2026-04-15T09:15:44.853Z</time></trkpt><trkpt lat="42.6966283" lon="-7.27665"><ele>1113.8</ele><time>2026-04-15T09:15:45.853Z</time></trkpt><trkpt lat="42.6965667" lon="-7.2767333"><ele>1113.6000000000001</ele><time>2026-04-15T09:15:46.854Z</time></trkpt><trkpt lat="42.696505" lon="-7.2768283"><ele>1113.4</ele><time>2026-04-15T09:15:47.854Z</time></trkpt><trkpt lat="42.6964483" lon="-7.276935"><ele>1113.2</ele><time>2026-04-15T09:15:48.854Z</time></trkpt><trkpt lat="42.6963933" lon="-7.277045"><ele>1113.0</ele><time>2026-04-15T09:15:49.853Z</time></trkpt><trkpt lat="42.6963367" lon="-7.2771533"><ele>1114.2</ele><time>2026-04-15T09:15:50.853Z</time></trkpt><trkpt lat="42.6962817" lon="-7.2772733"><ele>1115.4</ele><time>2026-04-15T09:15:51.853Z</time></trkpt><trkpt lat="42.6962283" lon="-7.27739"><ele>1116.6000000000001</ele><time>2026-04-15T09:15:52.853Z</time></trkpt><trkpt lat="42.6961783" lon="-7.2775067"><ele>1117.8</ele><time>2026-04-15T09:15:53.853Z</time></trkpt><trkpt lat="42.6961233" lon="-7.2776133"><ele>1119.0</ele><time>2026-04-15T09:15:54.854Z</time></trkpt><trkpt lat="42.6960683" lon="-7.2777183"><ele>1119.0</ele><time>2026-04-15T09:15:55.854Z</time></trkpt><trkpt lat="42.696015" lon="-7.2778283"><ele>1119.0</ele><time>2026-04-15T09:15:56.853Z</time></trkpt><trkpt lat="42.6959633" lon="-7.2779417"><ele>1119.0</ele><time>2026-04-15T09:15:57.854Z</time></trkpt><trkpt lat="42.6959083" lon="-7.278055"><ele>1119.0</ele><time>2026-04-15T09:15:58.853Z</time></trkpt><trkpt lat="42.6958567" lon="-7.2781667"><ele>1119.0</ele><time>2026-04-15T09:15:59.853Z</time></trkpt><trkpt lat="42.69581" lon="-7.278275"><ele>1117.4</ele><time>2026-04-15T09:16:00.854Z</time></trkpt><trkpt lat="42.6957667" lon="-7.2783867"><ele>1115.8000000000002</ele><time>2026-04-15T09:16:01.853Z</time></trkpt><trkpt lat="42.6957267" lon="-7.278495"><ele>1114.1999999999998</ele><time>2026-04-15T09:16:02.854Z</time></trkpt><trkpt lat="42.6956883" lon="-7.2786083"><ele>1112.6</ele><time>2026-04-15T09:16:03.853Z</time></trkpt><trkpt lat="42.6956533" lon="-7.2787217"><ele>1111.0</ele><time>2026-04-15T09:16:04.854Z</time></trkpt><trkpt lat="42.6956167" lon="-7.2788383"><ele>1108.6666666666665</ele><time>2026-04-15T09:16:05.853Z</time></trkpt><trkpt lat="42.695585" lon="-7.2789467"><ele>1106.3333333333333</ele><time>2026-04-15T09:16:06.854Z</time></trkpt><trkpt lat="42.6955533" lon="-7.2790633"><ele>1104.0</ele><time>2026-04-15T09:16:07.853Z</time></trkpt><trkpt lat="42.6955317" lon="-7.27918"><ele>1101.6666666666667</ele><time>2026-04-15T09:16:08.853Z</time></trkpt><trkpt lat="42.6955217" lon="-7.2793083"><ele>1099.3333333333335</ele><time>2026-04-15T09:16:09.854Z</time></trkpt><trkpt lat="42.6955083" lon="-7.279425"><ele>1097.0</ele><time>2026-04-15T09:16:10.854Z</time></trkpt><trkpt lat="42.6954933" lon="-7.2795467"><ele>1097.0</ele><time>2026-04-15T09:16:11.853Z</time></trkpt><trkpt lat="42.6954733" lon="-7.279675"><ele>1097.0</ele><time>2026-04-15T09:16:12.853Z</time></trkpt><trkpt lat="42.6954517" lon="-7.2798067"><ele>1097.0</ele><time>2026-04-15T09:16:13.854Z</time></trkpt><trkpt lat="42.6954283" lon="-7.2799317"><ele>1097.0</ele><time>2026-04-15T09:16:14.853Z</time></trkpt><trkpt lat="42.695395" lon="-7.2800583"><ele>1097.0</ele><time>2026-04-15T09:16:15.853Z</time></trkpt><trkpt lat="42.6953617" lon="-7.280175"><ele>1097.0</ele><time>2026-04-15T09:16:16.854Z</time></trkpt><trkpt lat="42.6953267" lon="-7.28029"><ele>1097.0</ele><time>2026-04-15T09:16:17.854Z</time></trkpt><trkpt lat="42.695285" lon="-7.2804"><ele>1097.0</ele><time>2026-04-15T09:16:18.853Z</time></trkpt><trkpt lat="42.69524" lon="-7.2805217"><ele>1097.0</ele><time>2026-04-15T09:16:19.853Z</time></trkpt><trkpt lat="42.69519" lon="-7.28064"><ele>1097.0</ele><time>2026-04-15T09:16:20.854Z</time></trkpt><trkpt lat="42.6951383" lon="-7.2807533"><ele>1099.0</ele><time>2026-04-15T09:16:21.853Z</time></trkpt><trkpt lat="42.69509" lon="-7.2808617"><ele>1101.0</ele><time>2026-04-15T09:16:22.853Z</time></trkpt><trkpt lat="42.6950333" lon="-7.28097"><ele>1103.0</ele><time>2026-04-15T09:16:23.854Z</time></trkpt><trkpt lat="42.69498" lon="-7.2810733"><ele>1105.0</ele><time>2026-04-15T09:16:24.854Z</time></trkpt><trkpt lat="42.6949233" lon="-7.28118"><ele>1107.0</ele><time>2026-04-15T09:16:25.853Z</time></trkpt><trkpt lat="42.694865" lon="-7.2812867"><ele>1107.0</ele><time>2026-04-15T09:16:26.853Z</time></trkpt><trkpt lat="42.6948117" lon="-7.281395"><ele>1107.0</ele><time>2026-04-15T09:16:27.854Z</time></trkpt><trkpt lat="42.6947517" lon="-7.281505"><ele>1107.0</ele><time>2026-04-15T09:16:28.854Z</time></trkpt><trkpt lat="42.694695" lon="-7.28162"><ele>1107.0</ele><time>2026-04-15T09:16:29.854Z</time></trkpt><trkpt lat="42.6946383" lon="-7.2817383"><ele>1107.0</ele><time>2026-04-15T09:16:30.854Z</time></trkpt><trkpt lat="42.6945783" lon="-7.281855"><ele>1105.2</ele><time>2026-04-15T09:16:31.854Z</time></trkpt><trkpt lat="42.6945167" lon="-7.2819633"><ele>1103.4</ele><time>2026-04-15T09:16:32.854Z</time></trkpt><trkpt lat="42.6944533" lon="-7.2820733"><ele>1101.6</ele><time>2026-04-15T09:16:33.854Z</time></trkpt><trkpt lat="42.6943967" lon="-7.28218"><ele>1099.8</ele><time>2026-04-15T09:16:34.854Z</time></trkpt><trkpt lat="42.6943433" lon="-7.2822867"><ele>1098.0</ele><time>2026-04-15T09:16:35.853Z</time></trkpt><trkpt lat="42.6942933" lon="-7.28239"><ele>1095.6</ele><time>2026-04-15T09:16:36.853Z</time></trkpt><trkpt lat="42.6942467" lon="-7.2824983"><ele>1093.1999999999998</ele><time>2026-04-15T09:16:37.854Z</time></trkpt><trkpt lat="42.6941967" lon="-7.2826117"><ele>1090.8</ele><time>2026-04-15T09:16:38.853Z</time></trkpt><trkpt lat="42.694145" lon="-7.2827283"><ele>1088.3999999999999</ele><time>2026-04-15T09:16:39.853Z</time></trkpt><trkpt lat="42.6940933" lon="-7.2828467"><ele>1086.0</ele><time>2026-04-15T09:16:40.854Z</time></trkpt><trkpt lat="42.6940367" lon="-7.2829567"><ele>1086.0</ele><time>2026-04-15T09:16:41.853Z</time></trkpt><trkpt lat="42.6939817" lon="-7.28307"><ele>1086.0</ele><time>2026-04-15T09:16:42.853Z</time></trkpt><trkpt lat="42.6939283" lon="-7.2831783"><ele>1086.0</ele><time>2026-04-15T09:16:43.853Z</time></trkpt><trkpt lat="42.6938717" lon="-7.2832867"><ele>1086.0</ele><time>2026-04-15T09:16:44.854Z</time></trkpt><trkpt lat="42.6938183" lon="-7.28339"><ele>1086.0</ele><time>2026-04-15T09:16:45.853Z</time></trkpt><trkpt lat="42.6937717" lon="-7.2835"><ele>1084.0</ele><time>2026-04-15T09:16:46.853Z</time></trkpt><trkpt lat="42.6937317" lon="-7.28361"><ele>1082.0</ele><time>2026-04-15T09:16:47.854Z</time></trkpt><trkpt lat="42.6937033" lon="-7.2837317"><ele>1080.0</ele><time>2026-04-15T09:16:48.853Z</time></trkpt><trkpt lat="42.6936917" lon="-7.2838517"><ele>1078.0</ele><time>2026-04-15T09:16:49.853Z</time></trkpt><trkpt lat="42.6936917" lon="-7.2839717"><ele>1076.0</ele><time>2026-04-15T09:16:50.854Z</time></trkpt><trkpt lat="42.6937033" lon="-7.2840967"><ele>1073.3999999999999</ele><time>2026-04-15T09:16:51.853Z</time></trkpt><trkpt lat="42.6937233" lon="-7.284215"><ele>1070.8</ele><time>2026-04-15T09:16:52.854Z</time></trkpt><trkpt lat="42.6937417" lon="-7.2843317"><ele>1068.1999999999998</ele><time>2026-04-15T09:16:53.854Z</time></trkpt><trkpt lat="42.6937633" lon="-7.28445"><ele>1065.6</ele><time>2026-04-15T09:16:54.854Z</time></trkpt><trkpt lat="42.69379" lon="-7.2845667"><ele>1063.0</ele><time>2026-04-15T09:16:55.854Z</time></trkpt><trkpt lat="42.69382" lon="-7.2846883"><ele>1061.8333333333333</ele><time>2026-04-15T09:16:56.853Z</time></trkpt><trkpt lat="42.6938467" lon="-7.2848117"><ele>1060.6666666666665</ele><time>2026-04-15T09:16:57.853Z</time></trkpt><trkpt lat="42.69387" lon="-7.2849333"><ele>1059.5</ele><time>2026-04-15T09:16:58.853Z</time></trkpt><trkpt lat="42.6938883" lon="-7.2850533"><ele>1058.3333333333333</ele><time>2026-04-15T09:16:59.853Z</time></trkpt><trkpt lat="42.6938883" lon="-7.285165"><ele>1057.1666666666667</ele><time>2026-04-15T09:17:00.853Z</time></trkpt><trkpt lat="42.69387" lon="-7.2852683"><ele>1056.0</ele><time>2026-04-15T09:17:01.853Z</time></trkpt><trkpt lat="42.6938317" lon="-7.2853667"><ele>1056.0</ele><time>2026-04-15T09:17:02.854Z</time></trkpt><trkpt lat="42.6937867" lon="-7.2854633"><ele>1056.0</ele><time>2026-04-15T09:17:03.854Z</time></trkpt><trkpt lat="42.6937333" lon="-7.285565"><ele>1056.0</ele><time>2026-04-15T09:17:04.854Z</time></trkpt><trkpt lat="42.69368" lon="-7.2856683"><ele>1056.0</ele><time>2026-04-15T09:17:05.853Z</time></trkpt><trkpt lat="42.69362" lon="-7.2857667"><ele>1056.0</ele><time>2026-04-15T09:17:06.853Z</time></trkpt><trkpt lat="42.693555" lon="-7.2858567"><ele>1055.8</ele><time>2026-04-15T09:17:07.854Z</time></trkpt><trkpt lat="42.6934833" lon="-7.285935"><ele>1055.6</ele><time>2026-04-15T09:17:08.853Z</time></trkpt><trkpt lat="42.6934067" lon="-7.286"><ele>1055.4</ele><time>2026-04-15T09:17:09.854Z</time></trkpt><trkpt lat="42.693325" lon="-7.2860633"><ele>1055.2</ele><time>2026-04-15T09:17:10.853Z</time></trkpt><trkpt lat="42.6932467" lon="-7.2861233"><ele>1055.0</ele><time>2026-04-15T09:17:11.853Z</time></trkpt><trkpt lat="42.69317" lon="-7.2861933"><ele>1055.0</ele><time>2026-04-15T09:17:12.854Z</time></trkpt><trkpt lat="42.6930933" lon="-7.28625"><ele>1055.0</ele><time>2026-04-15T09:17:13.854Z</time></trkpt><trkpt lat="42.693015" lon="-7.2863133"><ele>1055.0</ele><time>2026-04-15T09:17:14.854Z</time></trkpt><trkpt lat="42.6929333" lon="-7.2863683"><ele>1055.0</ele><time>2026-04-15T09:17:15.854Z</time></trkpt><trkpt lat="42.6928483" lon="-7.286425"><ele>1055.0</ele><time>2026-04-15T09:17:16.854Z</time></trkpt><trkpt lat="42.6927617" lon="-7.2864783"><ele>1052.0</ele><time>2026-04-15T09:17:17.853Z</time></trkpt><trkpt lat="42.69268" lon="-7.28654"><ele>1049.0</ele><time>2026-04-15T09:17:18.854Z</time></trkpt><trkpt lat="42.6925967" lon="-7.2865967"><ele>1046.0</ele><time>2026-04-15T09:17:19.854Z</time></trkpt><trkpt lat="42.69251" lon="-7.2866467"><ele>1043.0</ele><time>2026-04-15T09:17:20.854Z</time></trkpt><trkpt lat="42.692425" lon="-7.2867"><ele>1040.0</ele><time>2026-04-15T09:17:21.853Z</time></trkpt><trkpt lat="42.6923417" lon="-7.2867633"><ele>1040.0</ele><time>2026-04-15T09:17:22.854Z</time></trkpt><trkpt lat="42.6922667" lon="-7.286845"><ele>1040.0</ele><time>2026-04-15T09:17:23.853Z</time></trkpt><trkpt lat="42.6922033" lon="-7.2869417"><ele>1040.0</ele><time>2026-04-15T09:17:24.854Z</time></trkpt><trkpt lat="42.6921617" lon="-7.287055"><ele>1040.0</ele><time>2026-04-15T09:17:25.853Z</time></trkpt><trkpt lat="42.69214" lon="-7.2871767"><ele>1040.0</ele><time>2026-04-15T09:17:26.853Z</time></trkpt><trkpt lat="42.6921283" lon="-7.2873"><ele>1040.4</ele><time>2026-04-15T09:17:27.853Z</time></trkpt><trkpt lat="42.6921233" lon="-7.2874317"><ele>1040.8</ele><time>2026-04-15T09:17:28.853Z</time></trkpt><trkpt lat="42.6921217" lon="-7.2875517"><ele>1041.2</ele><time>2026-04-15T09:17:29.854Z</time></trkpt><trkpt lat="42.6921183" lon="-7.2876683"><ele>1041.6</ele><time>2026-04-15T09:17:30.853Z</time></trkpt><trkpt lat="42.6921067" lon="-7.2877917"><ele>1042.0</ele><time>2026-04-15T09:17:31.853Z</time></trkpt><trkpt lat="42.6920783" lon="-7.2879067"><ele>1042.0</ele><time>2026-04-15T09:17:32.854Z</time></trkpt><trkpt lat="42.6920417" lon="-7.2880233"><ele>1042.0</ele><time>2026-04-15T09:17:33.853Z</time></trkpt><trkpt lat="42.691995" lon="-7.28813"><ele>1042.0</ele><time>2026-04-15T09:17:34.854Z</time></trkpt><trkpt lat="42.6919417" lon="-7.2882333"><ele>1042.0</ele><time>2026-04-15T09:17:35.853Z</time></trkpt><trkpt lat="42.6918867" lon="-7.2883383"><ele>1042.0</ele><time>2026-04-15T09:17:36.853Z</time></trkpt><trkpt lat="42.69387" lon="-7.2852683"><ele>1043.6666666666665</ele><time>2026-04-15T09:17:01.853Z</time></trkpt><trkpt lat="42.6938317" lon="-7.2853667"><ele>1045.3333333333333</ele><time>2026-04-15T09:17:02.854Z</time></trkpt><trkpt lat="42.6937867" lon="-7.2854633"><ele>1047.0</ele><time>2026-04-15T09:17:03.854Z</time></trkpt><trkpt lat="42.6937333" lon="-7.285565"><ele>1048.6666666666667</ele><time>2026-04-15T09:17:04.854Z</time></trkpt><trkpt lat="42.69368" lon="-7.2856683"><ele>1050.3333333333335</ele><time>2026-04-15T09:17:05.853Z</time></trkpt><trkpt lat="42.69362" lon="-7.2857667"><ele>1052.0</ele><time>2026-04-15T09:17:06.853Z</time></trkpt><trkpt lat="42.693555" lon="-7.2858567"><ele>1052.6</ele><time>2026-04-15T09:17:07.854Z</time></trkpt><trkpt lat="42.6934833" lon="-7.285935"><ele>1053.2</ele><time>2026-04-15T09:17:08.853Z</time></trkpt><trkpt lat="42.6934067" lon="-7.286"><ele>1053.8</ele><time>2026-04-15T09:17:09.854Z</time></trkpt><trkpt lat="42.693325" lon="-7.2860633"><ele>1054.4</ele><time>2026-04-15T09:17:10.853Z</time></trkpt><trkpt lat="42.6932467" lon="-7.2861233"><ele>1055.0</ele><time>2026-04-15T09:17:11.853Z</time></trkpt><trkpt lat="42.69317" lon="-7.2861933"><ele>1055.0</ele><time>2026-04-15T09:17:12.854Z</time></trkpt><trkpt lat="42.6930933" lon="-7.28625"><ele>1055.0</ele><time>2026-04-15T09:17:13.854Z</time></trkpt><trkpt lat="42.693015" lon="-7.2863133"><ele>1055.0</ele><time>2026-04-15T09:17:14.854Z</time></trkpt><trkpt lat="42.6929333" lon="-7.2863683"><ele>1055.0</ele><time>2026-04-15T09:17:15.854Z</time></trkpt><trkpt lat="42.6928483" lon="-7.286425"><ele>1055.0</ele><time>2026-04-15T09:17:16.854Z</time></trkpt><trkpt lat="42.6927617" lon="-7.2864783"><ele>1052.0</ele><time>2026-04-15T09:17:17.853Z</time></trkpt><trkpt lat="42.69268" lon="-7.28654"><ele>1049.0</ele><time>2026-04-15T09:17:18.854Z</time></trkpt><trkpt lat="42.6925967" lon="-7.2865967"><ele>1046.0</ele><time>2026-04-15T09:17:19.854Z</time></trkpt><trkpt lat="42.69251" lon="-7.2866467"><ele>1043.0</ele><time>2026-04-15T09:17:20.854Z</time></trkpt><trkpt lat="42.692425" lon="-7.2867"><ele>1040.0</ele><time>2026-04-15T09:17:21.853Z</time></trkpt><trkpt lat="42.6923417" lon="-7.2867633"><ele>1040.0</ele><time>2026-04-15T09:17:22.854Z</time></trkpt><trkpt lat="42.6922667" lon="-7.286845"><ele>1040.0</ele><time>2026-04-15T09:17:23.853Z</time></trkpt><trkpt lat="42.6922033" lon="-7.2869417"><ele>1040.0</ele><time>2026-04-15T09:17:24.854Z</time></trkpt><trkpt lat="42.6921617" lon="-7.287055"><ele>1040.0</ele><time>2026-04-15T09:17:25.853Z</time></trkpt><trkpt lat="42.69214" lon="-7.2871767"><ele>1040.0</ele><time>2026-04-15T09:17:26.853Z</time></trkpt><trkpt lat="42.6921283" lon="-7.2873"><ele>1040.4</ele><time>2026-04-15T09:17:27.853Z</time></trkpt><trkpt lat="42.6921233" lon="-7.2874317"><ele>1040.8</ele><time>2026-04-15T09:17:28.853Z</time></trkpt><trkpt lat="42.6921217" lon="-7.2875517"><ele>1041.2</ele><time>2026-04-15T09:17:29.854Z</time></trkpt><trkpt lat="42.6921183" lon="-7.2876683"><ele>1041.6</ele><time>2026-04-15T09:17:30.853Z</time></trkpt><trkpt lat="42.6921067" lon="-7.2877917"><ele>1042.0</ele><time>2026-04-15T09:17:31.853Z</time></trkpt><trkpt lat="42.6920783" lon="-7.2879067"><ele>1042.0</ele><time>2026-04-15T09:17:32.854Z</time></trkpt><trkpt lat="42.6920417" lon="-7.2880233"><ele>1042.0</ele><time>2026-04-15T09:17:33.853Z</time></trkpt><trkpt lat="42.691995" lon="-7.28813"><ele>1042.0</ele><time>2026-04-15T09:17:34.854Z</time></trkpt><trkpt lat="42.6919417" lon="-7.2882333"><ele>1042.0</ele><time>2026-04-15T09:17:35.853Z</time></trkpt><trkpt lat="42.6918867" lon="-7.2883383"><ele>1042.0</ele><time>2026-04-15T09:17:36.853Z</time></trkpt><trkpt lat="42.6918333" lon="-7.2884483"><ele>1039.6</ele><time>2026-04-15T09:17:37.853Z</time></trkpt><trkpt lat="42.6917917" lon="-7.28855"><ele>1037.2</ele><time>2026-04-15T09:17:38.854Z</time></trkpt><trkpt lat="42.69175" lon="-7.2886633"><ele>1034.8</ele><time>2026-04-15T09:17:39.853Z</time></trkpt><trkpt lat="42.691715" lon="-7.2887783"><ele>1032.4</ele><time>2026-04-15T09:17:40.853Z</time></trkpt><trkpt lat="42.6916833" lon="-7.2888983"><ele>1030.0</ele><time>2026-04-15T09:17:41.853Z</time></trkpt><trkpt lat="42.6916633" lon="-7.2890267"><ele>1029.4</ele><time>2026-04-15T09:17:42.853Z</time></trkpt><trkpt lat="42.6916433" lon="-7.2891533"><ele>1028.8</ele><time>2026-04-15T09:17:43.854Z</time></trkpt><trkpt lat="42.6916233" lon="-7.2892833"><ele>1028.2</ele><time>2026-04-15T09:17:44.854Z</time></trkpt><trkpt lat="42.6916" lon="-7.289415"><ele>1027.6</ele><time>2026-04-15T09:17:45.854Z</time></trkpt><trkpt lat="42.69158" lon="-7.2895433"><ele>1027.0</ele><time>2026-04-15T09:17:46.853Z</time></trkpt><trkpt lat="42.69156" lon="-7.2896717"><ele>1026.2</ele><time>2026-04-15T09:17:47.853Z</time></trkpt><trkpt lat="42.6915383" lon="-7.2897967"><ele>1025.4</ele><time>2026-04-15T09:17:48.854Z</time></trkpt><trkpt lat="42.6915183" lon="-7.2899283"><ele>1024.6</ele><time>2026-04-15T09:17:49.854Z</time></trkpt><trkpt lat="42.6914967" lon="-7.2900633"><ele>1023.8</ele><time>2026-04-15T09:17:50.853Z</time></trkpt><trkpt lat="42.6914733" lon="-7.2901967"><ele>1023.0</ele><time>2026-04-15T09:17:51.853Z</time></trkpt><trkpt lat="42.6914567" lon="-7.2903317"><ele>1023.0</ele><time>2026-04-15T09:17:52.854Z</time></trkpt><trkpt lat="42.6914383" lon="-7.2904633"><ele>1023.0</ele><time>2026-04-15T09:17:53.853Z</time></trkpt><trkpt lat="42.6914217" lon="-7.290595"><ele>1023.0</ele><time>2026-04-15T09:17:54.853Z</time></trkpt><trkpt lat="42.6914083" lon="-7.2907267"><ele>1023.0</ele><time>2026-04-15T09:17:55.854Z</time></trkpt><trkpt lat="42.6913867" lon="-7.2908567"><ele>1023.0</ele><time>2026-04-15T09:17:56.854Z</time></trkpt><trkpt lat="42.691365" lon="-7.2909917"><ele>1022.4</ele><time>2026-04-15T09:17:57.853Z</time></trkpt><trkpt lat="42.6913467" lon="-7.291115"><ele>1021.8</ele><time>2026-04-15T09:17:58.853Z</time></trkpt><trkpt lat="42.6913317" lon="-7.2912483"><ele>1021.2</ele><time>2026-04-15T09:17:59.854Z</time></trkpt><trkpt lat="42.6913183" lon="-7.29138"><ele>1020.6</ele><time>2026-04-15T09:18:00.853Z</time></trkpt><trkpt lat="42.691305" lon="-7.2915133"><ele>1020.0</ele><time>2026-04-15T09:18:01.853Z</time></trkpt><trkpt lat="42.6912917" lon="-7.291635"><ele>1019.4</ele><time>2026-04-15T09:18:02.854Z</time></trkpt><trkpt lat="42.6912733" lon="-7.2917683"><ele>1018.8</ele><time>2026-04-15T09:18:03.853Z</time></trkpt><trkpt lat="42.6912567" lon="-7.2918967"><ele>1018.2</ele><time>2026-04-15T09:18:04.853Z</time></trkpt><trkpt lat="42.6912267" lon="-7.2920217"><ele>1017.6</ele><time>2026-04-15T09:18:05.853Z</time></trkpt><trkpt lat="42.691205" lon="-7.2921567"><ele>1017.0</ele><time>2026-04-15T09:18:06.853Z</time></trkpt><trkpt lat="42.691185" lon="-7.2922783"><ele>1015.4000000000001</ele><time>2026-04-15T09:18:07.854Z</time></trkpt><trkpt lat="42.6911633" lon="-7.2923983"><ele>1013.8000000000001</ele><time>2026-04-15T09:18:08.854Z</time></trkpt><trkpt lat="42.6911317" lon="-7.2925167"><ele>1012.2</ele><time>2026-04-15T09:18:09.853Z</time></trkpt><trkpt lat="42.6911033" lon="-7.29264"><ele>1010.6</ele><time>2026-04-15T09:18:10.853Z</time></trkpt><trkpt lat="42.6910733" lon="-7.2927733"><ele>1009.0</ele><time>2026-04-15T09:18:11.853Z</time></trkpt><trkpt lat="42.691045" lon="-7.292905"><ele>1006.2</ele><time>2026-04-15T09:18:12.854Z</time></trkpt><trkpt lat="42.691015" lon="-7.2930283"><ele>1003.4000000000001</ele><time>2026-04-15T09:18:13.853Z</time></trkpt><trkpt lat="42.6909733" lon="-7.29314"><ele>1000.6</ele><time>2026-04-15T09:18:14.854Z</time></trkpt><trkpt lat="42.6909267" lon="-7.2932533"><ele>997.8</ele><time>2026-04-15T09:18:15.854Z</time></trkpt><trkpt lat="42.6908667" lon="-7.2933433"><ele>995.0</ele><time>2026-04-15T09:18:16.853Z</time></trkpt><trkpt lat="42.6908017" lon="-7.29343"><ele>995.0000000000001</ele><time>2026-04-15T09:18:17.853Z</time></trkpt><trkpt lat="42.6907217" lon="-7.2935117"><ele>995.0</ele><time>2026-04-15T09:18:18.853Z</time></trkpt><trkpt lat="42.690665" lon="-7.2936"><ele>995.0</ele><time>2026-04-15T09:18:19.853Z</time></trkpt><trkpt lat="42.6906083" lon="-7.2936733"><ele>995.0</ele><time>2026-04-15T09:18:20.854Z</time></trkpt><trkpt lat="42.6905383" lon="-7.2937433"><ele>995.0000000000001</ele><time>2026-04-15T09:18:21.854Z</time></trkpt><trkpt lat="42.69048" lon="-7.29383"><ele>995.0</ele><time>2026-04-15T09:18:22.854Z</time></trkpt><trkpt lat="42.6904317" lon="-7.2939283"><ele>995.0</ele><time>2026-04-15T09:18:23.854Z</time></trkpt><trkpt lat="42.6903933" lon="-7.294035"><ele>995.0</ele><time>2026-04-15T09:18:24.853Z</time></trkpt><trkpt lat="42.69037" lon="-7.294155"><ele>995.0</ele><time>2026-04-15T09:18:25.853Z</time></trkpt><trkpt lat="42.6903517" lon="-7.2942833"><ele>995.0</ele><time>2026-04-15T09:18:26.854Z</time></trkpt><trkpt lat="42.6903367" lon="-7.29441"><ele>995.0</ele><time>2026-04-15T09:18:27.854Z</time></trkpt><trkpt lat="42.6903233" lon="-7.2945267"><ele>995.0</ele><time>2026-04-15T09:18:28.853Z</time></trkpt><trkpt lat="42.690305" lon="-7.29464"><ele>995.0</ele><time>2026-04-15T09:18:29.854Z</time></trkpt><trkpt lat="42.6902817" lon="-7.2947617"><ele>995.0</ele><time>2026-04-15T09:18:30.854Z</time></trkpt><trkpt lat="42.69024" lon="-7.2948783"><ele>995.0</ele><time>2026-04-15T09:18:31.853Z</time></trkpt><trkpt lat="42.690185" lon="-7.2949867"><ele>995.0</ele><time>2026-04-15T09:18:32.853Z</time></trkpt><trkpt lat="42.6901233" lon="-7.2950833"><ele>992.8333333333334</ele><time>2026-04-15T09:18:33.853Z</time></trkpt><trkpt lat="42.6900567" lon="-7.2951683"><ele>990.6666666666667</ele><time>2026-04-15T09:18:34.854Z</time></trkpt><trkpt lat="42.6899883" lon="-7.2952383"><ele>988.5</ele><time>2026-04-15T09:18:35.854Z</time></trkpt><trkpt lat="42.6899183" lon="-7.295295"><ele>986.3333333333333</ele><time>2026-04-15T09:18:36.854Z</time></trkpt><trkpt lat="42.6898467" lon="-7.29533"><ele>984.1666666666666</ele><time>2026-04-15T09:18:37.853Z</time></trkpt><trkpt lat="42.6897783" lon="-7.2953633"><ele>982.0</ele><time>2026-04-15T09:18:38.854Z</time></trkpt><trkpt lat="42.6897017" lon="-7.2953733"><ele>981.9999999999999</ele><time>2026-04-15T09:18:39.854Z</time></trkpt><trkpt lat="42.6896217" lon="-7.2953817"><ele>982.0</ele><time>2026-04-15T09:18:40.853Z</time></trkpt><trkpt lat="42.689535" lon="-7.2953617"><ele>982.0</ele><time>2026-04-15T09:18:41.854Z</time></trkpt><trkpt lat="42.689455" lon="-7.2953283"><ele>982.0</ele><time>2026-04-15T09:18:42.853Z</time></trkpt><trkpt lat="42.6893833" lon="-7.2952667"><ele>981.9999999999999</ele><time>2026-04-15T09:18:43.854Z</time></trkpt><trkpt lat="42.6893167" lon="-7.2951933"><ele>982.0</ele><time>2026-04-15T09:18:44.853Z</time></trkpt><trkpt lat="42.689255" lon="-7.295115"><ele>980.8333333333333</ele><time>2026-04-15T09:18:45.854Z</time></trkpt><trkpt lat="42.6891867" lon="-7.2950417"><ele>979.6666666666666</ele><time>2026-04-15T09:18:46.854Z</time></trkpt><trkpt lat="42.6891167" lon="-7.29498"><ele>978.5</ele><time>2026-04-15T09:18:47.854Z</time></trkpt><trkpt lat="42.6890467" lon="-7.2949333"><ele>977.3333333333333</ele><time>2026-04-15T09:18:48.853Z</time></trkpt><trkpt lat="42.6889683" lon="-7.2948917"><ele>976.1666666666666</ele><time>2026-04-15T09:18:49.854Z</time></trkpt><trkpt lat="42.68888" lon="-7.2948533"><ele>975.0</ele><time>2026-04-15T09:18:50.853Z</time></trkpt><trkpt lat="42.688775" lon="-7.2948217"><ele>975.0</ele><time>2026-04-15T09:18:51.854Z</time></trkpt><trkpt lat="42.688675" lon="-7.2948083"><ele>975.0</ele><time>2026-04-15T09:18:52.853Z</time></trkpt><trkpt lat="42.6885767" lon="-7.2947933"><ele>975.0</ele><time>2026-04-15T09:18:53.853Z</time></trkpt><trkpt lat="42.6884733" lon="-7.2947817"><ele>975.0</ele><time>2026-04-15T09:18:54.854Z</time></trkpt><trkpt lat="42.68837" lon="-7.2947733"><ele>975.0</ele><time>2026-04-15T09:18:55.854Z</time></trkpt><trkpt lat="42.688265" lon="-7.294785"><ele>973.6666666666666</ele><time>2026-04-15T09:18:56.854Z</time></trkpt><trkpt lat="42.6881633" lon="-7.2947833"><ele>972.3333333333333</ele><time>2026-04-15T09:18:57.853Z</time></trkpt><trkpt lat="42.6880717" lon="-7.2947833"><ele>971.0</ele><time>2026-04-15T09:18:58.854Z</time></trkpt><trkpt lat="42.6879817" lon="-7.2947767"><ele>969.6666666666666</ele><time>2026-04-15T09:18:59.853Z</time></trkpt><trkpt lat="42.6879017" lon="-7.2947717"><ele>968.3333333333333</ele><time>2026-04-15T09:19:00.853Z</time></trkpt><trkpt lat="42.68782" lon="-7.2947817"><ele>967.0</ele><time>2026-04-15T09:19:01.853Z</time></trkpt><trkpt lat="42.687735" lon="-7.294795"><ele>963.3333333333333</ele><time>2026-04-15T09:19:02.853Z</time></trkpt><trkpt lat="42.6876483" lon="-7.2948167"><ele>959.6666666666667</ele><time>2026-04-15T09:19:03.854Z</time></trkpt><trkpt lat="42.68756" lon="-7.294845"><ele>956.0</ele><time>2026-04-15T09:19:04.853Z</time></trkpt><trkpt lat="42.6901233" lon="-7.2950833"><ele>960.3333333333334</ele><time>2026-04-15T09:18:33.853Z</time></trkpt><trkpt lat="42.6900567" lon="-7.2951683"><ele>964.6666666666667</ele><time>2026-04-15T09:18:34.854Z</time></trkpt><trkpt lat="42.6899883" lon="-7.2952383"><ele>969.0</ele><time>2026-04-15T09:18:35.854Z</time></trkpt><trkpt lat="42.6899183" lon="-7.295295"><ele>973.3333333333333</ele><time>2026-04-15T09:18:36.854Z</time></trkpt><trkpt lat="42.6898467" lon="-7.29533"><ele>977.6666666666666</ele><time>2026-04-15T09:18:37.853Z</time></trkpt><trkpt lat="42.6897783" lon="-7.2953633"><ele>982.0</ele><time>2026-04-15T09:18:38.854Z</time></trkpt><trkpt lat="42.6897017" lon="-7.2953733"><ele>981.9999999999999</ele><time>2026-04-15T09:18:39.854Z</time></trkpt><trkpt lat="42.6896217" lon="-7.2953817"><ele>982.0</ele><time>2026-04-15T09:18:40.853Z</time></trkpt><trkpt lat="42.689535" lon="-7.2953617"><ele>982.0</ele><time>2026-04-15T09:18:41.854Z</time></trkpt><trkpt lat="42.689455" lon="-7.2953283"><ele>982.0</ele><time>2026-04-15T09:18:42.853Z</time></trkpt><trkpt lat="42.6893833" lon="-7.2952667"><ele>981.9999999999999</ele><time>2026-04-15T09:18:43.854Z</time></trkpt><trkpt lat="42.6893167" lon="-7.2951933"><ele>982.0</ele><time>2026-04-15T09:18:44.853Z</time></trkpt><trkpt lat="42.689255" lon="-7.295115"><ele>980.8333333333333</ele><time>2026-04-15T09:18:45.854Z</time></trkpt><trkpt lat="42.6891867" lon="-7.2950417"><ele>979.6666666666666</ele><time>2026-04-15T09:18:46.854Z</time></trkpt><trkpt lat="42.6891167" lon="-7.29498"><ele>978.5</ele><time>2026-04-15T09:18:47.854Z</time></trkpt><trkpt lat="42.6890467" lon="-7.2949333"><ele>977.3333333333333</ele><time>2026-04-15T09:18:48.853Z</time></trkpt><trkpt lat="42.6889683" lon="-7.2948917"><ele>976.1666666666666</ele><time>2026-04-15T09:18:49.854Z</time></trkpt><trkpt lat="42.68888" lon="-7.2948533"><ele>975.0</ele><time>2026-04-15T09:18:50.853Z</time></trkpt><trkpt lat="42.688775" lon="-7.2948217"><ele>975.0</ele><time>2026-04-15T09:18:51.854Z</time></trkpt><trkpt lat="42.688675" lon="-7.2948083"><ele>975.0</ele><time>2026-04-15T09:18:52.853Z</time></trkpt><trkpt lat="42.6885767" lon="-7.2947933"><ele>975.0</ele><time>2026-04-15T09:18:53.853Z</time></trkpt><trkpt lat="42.6884733" lon="-7.2947817"><ele>975.0</ele><time>2026-04-15T09:18:54.854Z</time></trkpt><trkpt lat="42.68837" lon="-7.2947733"><ele>975.0</ele><time>2026-04-15T09:18:55.854Z</time></trkpt><trkpt lat="42.688265" lon="-7.294785"><ele>973.6666666666666</ele><time>2026-04-15T09:18:56.854Z</time></trkpt><trkpt lat="42.6881633" lon="-7.2947833"><ele>972.3333333333333</ele><time>2026-04-15T09:18:57.853Z</time></trkpt><trkpt lat="42.6880717" lon="-7.2947833"><ele>971.0</ele><time>2026-04-15T09:18:58.854Z</time></trkpt><trkpt lat="42.6879817" lon="-7.2947767"><ele>969.6666666666666</ele><time>2026-04-15T09:18:59.853Z</time></trkpt><trkpt lat="42.6879017" lon="-7.2947717"><ele>968.3333333333333</ele><time>2026-04-15T09:19:00.853Z</time></trkpt><trkpt lat="42.68782" lon="-7.2947817"><ele>967.0</ele><time>2026-04-15T09:19:01.853Z</time></trkpt><trkpt lat="42.687735" lon="-7.294795"><ele>965.1666666666666</ele><time>2026-04-15T09:19:02.853Z</time></trkpt><trkpt lat="42.6876483" lon="-7.2948167"><ele>963.3333333333333</ele><time>2026-04-15T09:19:03.854Z</time></trkpt><trkpt lat="42.68756" lon="-7.294845"><ele>961.5</ele><time>2026-04-15T09:19:04.853Z</time></trkpt><trkpt lat="42.6874767" lon="-7.2948733"><ele>959.6666666666667</ele><time>2026-04-15T09:19:05.854Z</time></trkpt><trkpt lat="42.6873967" lon="-7.2948967"><ele>957.8333333333334</ele><time>2026-04-15T09:19:06.853Z</time></trkpt><trkpt lat="42.6873167" lon="-7.2949183"><ele>956.0</ele><time>2026-04-15T09:19:07.854Z</time></trkpt><trkpt lat="42.6872367" lon="-7.2949433"><ele>956.0000000000001</ele><time>2026-04-15T09:19:08.853Z</time></trkpt><trkpt lat="42.6871583" lon="-7.2949717"><ele>956.0</ele><time>2026-04-15T09:19:09.854Z</time></trkpt><trkpt lat="42.68708" lon="-7.2950083"><ele>956.0</ele><time>2026-04-15T09:19:10.853Z</time></trkpt><trkpt lat="42.6870017" lon="-7.2950583"><ele>956.0</ele><time>2026-04-15T09:19:11.854Z</time></trkpt><trkpt lat="42.6869267" lon="-7.2951233"><ele>956.0000000000001</ele><time>2026-04-15T09:19:12.853Z</time></trkpt><trkpt lat="42.686855" lon="-7.295185"><ele>956.0</ele><time>2026-04-15T09:19:13.854Z</time></trkpt><trkpt lat="42.6867767" lon="-7.295245"><ele>954.3333333333334</ele><time>2026-04-15T09:19:14.853Z</time></trkpt><trkpt lat="42.686695" lon="-7.2952833"><ele>952.6666666666667</ele><time>2026-04-15T09:19:15.853Z</time></trkpt><trkpt lat="42.6866083" lon="-7.2953017"><ele>951.0</ele><time>2026-04-15T09:19:16.854Z</time></trkpt><trkpt lat="42.6865267" lon="-7.2952833"><ele>949.3333333333333</ele><time>2026-04-15T09:19:17.853Z</time></trkpt><trkpt lat="42.68645" lon="-7.29523"><ele>947.6666666666666</ele><time>2026-04-15T09:19:18.853Z</time></trkpt><trkpt lat="42.6863883" lon="-7.2951683"><ele>946.0</ele><time>2026-04-15T09:19:19.854Z</time></trkpt><trkpt lat="42.6863283" lon="-7.2950917"><ele>945.9999999999999</ele><time>2026-04-15T09:19:20.854Z</time></trkpt><trkpt lat="42.6862667" lon="-7.295015"><ele>946.0</ele><time>2026-04-15T09:19:21.854Z</time></trkpt><trkpt lat="42.6862017" lon="-7.2949483"><ele>946.0</ele><time>2026-04-15T09:19:22.854Z</time></trkpt><trkpt lat="42.686125" lon="-7.294905"><ele>946.0</ele><time>2026-04-15T09:19:23.854Z</time></trkpt><trkpt lat="42.6860467" lon="-7.2948833"><ele>945.9999999999999</ele><time>2026-04-15T09:19:24.853Z</time></trkpt><trkpt lat="42.68596" lon="-7.2948833"><ele>946.0</ele><time>2026-04-15T09:19:25.854Z</time></trkpt><trkpt lat="42.68587" lon="-7.29491"><ele>945.4</ele><time>2026-04-15T09:19:26.853Z</time></trkpt><trkpt lat="42.6857833" lon="-7.2949467"><ele>944.8</ele><time>2026-04-15T09:19:27.853Z</time></trkpt><trkpt lat="42.685695" lon="-7.2949817"><ele>944.1999999999999</ele><time>2026-04-15T09:19:28.853Z</time></trkpt><trkpt lat="42.6856083" lon="-7.29502"><ele>943.5999999999999</ele><time>2026-04-15T09:19:29.853Z</time></trkpt><trkpt lat="42.68552" lon="-7.2950567"><ele>943.0</ele><time>2026-04-15T09:19:30.853Z</time></trkpt><trkpt lat="42.6854367" lon="-7.2950917"><ele>942.9999999999999</ele><time>2026-04-15T09:19:31.853Z</time></trkpt><trkpt lat="42.6853533" lon="-7.295125"><ele>943.0</ele><time>2026-04-15T09:19:32.854Z</time></trkpt><trkpt lat="42.6852733" lon="-7.29516"><ele>943.0</ele><time>2026-04-15T09:19:33.854Z</time></trkpt><trkpt lat="42.6851967" lon="-7.2951883"><ele>943.0</ele><time>2026-04-15T09:19:34.853Z</time></trkpt><trkpt lat="42.6851133" lon="-7.2952117"><ele>942.9999999999999</ele><time>2026-04-15T09:19:35.854Z</time></trkpt><trkpt lat="42.6850367" lon="-7.2952183"><ele>943.0</ele><time>2026-04-15T09:19:36.854Z</time></trkpt><trkpt lat="42.6849583" lon="-7.2952083"><ele>943.1666666666666</ele><time>2026-04-15T09:19:37.854Z</time></trkpt><trkpt lat="42.6848833" lon="-7.2951767"><ele>943.3333333333333</ele><time>2026-04-15T09:19:38.853Z</time></trkpt><trkpt lat="42.6848117" lon="-7.29514"><ele>943.5</ele><time>2026-04-15T09:19:39.854Z</time></trkpt><trkpt lat="42.684735" lon="-7.29512"><ele>943.6666666666667</ele><time>2026-04-15T09:19:40.853Z</time></trkpt><trkpt lat="42.68465" lon="-7.2951133"><ele>943.8333333333334</ele><time>2026-04-15T09:19:41.854Z</time></trkpt><trkpt lat="42.684565" lon="-7.29512"><ele>944.0</ele><time>2026-04-15T09:19:42.854Z</time></trkpt><trkpt lat="42.6844833" lon="-7.2951533"><ele>944.0000000000001</ele><time>2026-04-15T09:19:43.853Z</time></trkpt><trkpt lat="42.6843983" lon="-7.2951883"><ele>944.0</ele><time>2026-04-15T09:19:44.854Z</time></trkpt><trkpt lat="42.6843117" lon="-7.29522"><ele>944.0</ele><time>2026-04-15T09:19:45.854Z</time></trkpt><trkpt lat="42.6842283" lon="-7.2952517"><ele>944.0</ele><time>2026-04-15T09:19:46.854Z</time></trkpt><trkpt lat="42.684135" lon="-7.2952683"><ele>944.0000000000001</ele><time>2026-04-15T09:19:47.853Z</time></trkpt><trkpt lat="42.6840533" lon="-7.2953"><ele>944.0</ele><time>2026-04-15T09:19:48.854Z</time></trkpt><trkpt lat="42.6839767" lon="-7.2953483"><ele>944.0000000000001</ele><time>2026-04-15T09:19:49.854Z</time></trkpt><trkpt lat="42.683905" lon="-7.2954017"><ele>944.0</ele><time>2026-04-15T09:19:50.853Z</time></trkpt><trkpt lat="42.6838383" lon="-7.29547"><ele>944.0</ele><time>2026-04-15T09:19:51.854Z</time></trkpt><trkpt lat="42.6837783" lon="-7.2955467"><ele>944.0</ele><time>2026-04-15T09:19:52.854Z</time></trkpt><trkpt lat="42.6837233" lon="-7.2956267"><ele>944.0000000000001</ele><time>2026-04-15T09:19:53.854Z</time></trkpt><trkpt lat="42.6836717" lon="-7.29572"><ele>944.0</ele><time>2026-04-15T09:19:54.853Z</time></trkpt><trkpt lat="42.68363" lon="-7.2958133"><ele>944.4000000000001</ele><time>2026-04-15T09:19:55.854Z</time></trkpt><trkpt lat="42.6835967" lon="-7.2959233"><ele>944.8000000000001</ele><time>2026-04-15T09:19:56.853Z</time></trkpt><trkpt lat="42.6835633" lon="-7.296045"><ele>945.1999999999999</ele><time>2026-04-15T09:19:57.853Z</time></trkpt><trkpt lat="42.6835317" lon="-7.2961683"><ele>945.5999999999999</ele><time>2026-04-15T09:19:58.854Z</time></trkpt><trkpt lat="42.6835033" lon="-7.2963017"><ele>946.0</ele><time>2026-04-15T09:19:59.854Z</time></trkpt><trkpt lat="42.68348" lon="-7.296425"><ele>946.1999999999999</ele><time>2026-04-15T09:20:00.853Z</time></trkpt><trkpt lat="42.6834633" lon="-7.29656"><ele>946.3999999999999</ele><time>2026-04-15T09:20:01.853Z</time></trkpt><trkpt lat="42.6834533" lon="-7.2966883"><ele>946.6</ele><time>2026-04-15T09:20:02.854Z</time></trkpt><trkpt lat="42.6834483" lon="-7.2968117"><ele>946.8</ele><time>2026-04-15T09:20:03.853Z</time></trkpt><trkpt lat="42.6834517" lon="-7.2969367"><ele>947.0</ele><time>2026-04-15T09:20:04.854Z</time></trkpt><trkpt lat="42.6834583" lon="-7.29706"><ele>947.0000000000001</ele><time>2026-04-15T09:20:05.853Z</time></trkpt><trkpt lat="42.6834717" lon="-7.2971767"><ele>947.0</ele><time>2026-04-15T09:20:06.854Z</time></trkpt><trkpt lat="42.68347" lon="-7.297295"><ele>947.0</ele><time>2026-04-15T09:20:07.854Z</time></trkpt><trkpt lat="42.6834517" lon="-7.2974067"><ele>947.0</ele><time>2026-04-15T09:20:08.854Z</time></trkpt><trkpt lat="42.6834233" lon="-7.2975133"><ele>947.0000000000001</ele><time>2026-04-15T09:20:09.854Z</time></trkpt><trkpt lat="42.6833883" lon="-7.297615"><ele>947.0</ele><time>2026-04-15T09:20:10.853Z</time></trkpt><trkpt lat="42.6833483" lon="-7.2977083"><ele>947.5000000000001</ele><time>2026-04-15T09:20:11.853Z</time></trkpt><trkpt lat="42.6832983" lon="-7.2977983"><ele>948.0</ele><time>2026-04-15T09:20:12.853Z</time></trkpt><trkpt lat="42.6832583" lon="-7.2978833"><ele>948.5</ele><time>2026-04-15T09:20:13.854Z</time></trkpt><trkpt lat="42.6831883" lon="-7.297955"><ele>949.0</ele><time>2026-04-15T09:20:14.854Z</time></trkpt><trkpt lat="42.683125" lon="-7.2980317"><ele>949.5000000000001</ele><time>2026-04-15T09:20:15.855Z</time></trkpt><trkpt lat="42.6830517" lon="-7.2980517"><ele>950.0</ele><time>2026-04-15T09:20:16.854Z</time></trkpt><trkpt lat="42.6829783" lon="-7.2980683"><ele>950.0000000000001</ele><time>2026-04-15T09:20:17.854Z</time></trkpt><trkpt lat="42.6829017" lon="-7.29805"><ele>950.0</ele><time>2026-04-15T09:20:18.855Z</time></trkpt><trkpt lat="42.6828317" lon="-7.2980033"><ele>950.0</ele><time>2026-04-15T09:20:19.855Z</time></trkpt><trkpt lat="42.6827517" lon="-7.297955"><ele>950.0</ele><time>2026-04-15T09:20:20.855Z</time></trkpt><trkpt lat="42.6826733" lon="-7.2979083"><ele>950.0000000000001</ele><time>2026-04-15T09:20:21.855Z</time></trkpt><trkpt lat="42.6825933" lon="-7.2978867"><ele>950.0</ele><time>2026-04-15T09:20:22.855Z</time></trkpt><trkpt lat="42.6825067" lon="-7.2978717"><ele>949.2</ele><time>2026-04-15T09:20:23.855Z</time></trkpt><trkpt lat="42.6824133" lon="-7.2978767"><ele>948.4</ele><time>2026-04-15T09:20:24.854Z</time></trkpt><trkpt lat="42.68232" lon="-7.2978983"><ele>947.5999999999999</ele><time>2026-04-15T09:20:25.854Z</time></trkpt><trkpt lat="42.6822283" lon="-7.297905"><ele>946.8</ele><time>2026-04-15T09:20:26.854Z</time></trkpt><trkpt lat="42.6821383" lon="-7.2979083"><ele>946.0</ele><time>2026-04-15T09:20:27.854Z</time></trkpt><trkpt lat="42.6820567" lon="-7.2979183"><ele>946.0</ele><time>2026-04-15T09:20:28.855Z</time></trkpt><trkpt lat="42.6819817" lon="-7.2979433"><ele>946.0</ele><time>2026-04-15T09:20:29.855Z</time></trkpt><trkpt lat="42.6819183" lon="-7.2979883"><ele>946.0</ele><time>2026-04-15T09:20:30.854Z</time></trkpt><trkpt lat="42.6818517" lon="-7.2980583"><ele>946.0</ele><time>2026-04-15T09:20:31.854Z</time></trkpt><trkpt lat="42.6834633" lon="-7.29656"><ele>946.1999999999999</ele><time>2026-04-15T09:20:01.853Z</time></trkpt><trkpt lat="42.6834533" lon="-7.2966883"><ele>946.3999999999999</ele><time>2026-04-15T09:20:02.854Z</time></trkpt><trkpt lat="42.6834483" lon="-7.2968117"><ele>946.6</ele><time>2026-04-15T09:20:03.853Z</time></trkpt><trkpt lat="42.6834517" lon="-7.2969367"><ele>946.8</ele><time>2026-04-15T09:20:04.854Z</time></trkpt><trkpt lat="42.6834583" lon="-7.29706"><ele>947.0</ele><time>2026-04-15T09:20:05.853Z</time></trkpt><trkpt lat="42.6834717" lon="-7.2971767"><ele>947.5000000000001</ele><time>2026-04-15T09:20:06.854Z</time></trkpt><trkpt lat="42.68347" lon="-7.297295"><ele>948.0</ele><time>2026-04-15T09:20:07.854Z</time></trkpt><trkpt lat="42.6834517" lon="-7.2974067"><ele>948.5</ele><time>2026-04-15T09:20:08.854Z</time></trkpt><trkpt lat="42.6834233" lon="-7.2975133"><ele>949.0</ele><time>2026-04-15T09:20:09.854Z</time></trkpt><trkpt lat="42.6833883" lon="-7.297615"><ele>949.5000000000001</ele><time>2026-04-15T09:20:10.853Z</time></trkpt><trkpt lat="42.6833483" lon="-7.2977083"><ele>950.0</ele><time>2026-04-15T09:20:11.853Z</time></trkpt><trkpt lat="42.6832983" lon="-7.2977983"><ele>950.0000000000001</ele><time>2026-04-15T09:20:12.853Z</time></trkpt><trkpt lat="42.6832583" lon="-7.2978833"><ele>950.0</ele><time>2026-04-15T09:20:13.854Z</time></trkpt><trkpt lat="42.6831883" lon="-7.297955"><ele>950.0</ele><time>2026-04-15T09:20:14.854Z</time></trkpt><trkpt lat="42.683125" lon="-7.2980317"><ele>950.0</ele><time>2026-04-15T09:20:15.855Z</time></trkpt><trkpt lat="42.6830517" lon="-7.2980517"><ele>950.0000000000001</ele><time>2026-04-15T09:20:16.854Z</time></trkpt><trkpt lat="42.6829783" lon="-7.2980683"><ele>950.0</ele><time>2026-04-15T09:20:17.854Z</time></trkpt><trkpt lat="42.6829017" lon="-7.29805"><ele>950.0000000000001</ele><time>2026-04-15T09:20:18.855Z</time></trkpt><trkpt lat="42.6828317" lon="-7.2980033"><ele>950.0</ele><time>2026-04-15T09:20:19.855Z</time></trkpt><trkpt lat="42.6827517" lon="-7.297955"><ele>950.0</ele><time>2026-04-15T09:20:20.855Z</time></trkpt><trkpt lat="42.6826733" lon="-7.2979083"><ele>950.0</ele><time>2026-04-15T09:20:21.855Z</time></trkpt><trkpt lat="42.6825933" lon="-7.2978867"><ele>950.0000000000001</ele><time>2026-04-15T09:20:22.855Z</time></trkpt><trkpt lat="42.6825067" lon="-7.2978717"><ele>950.0</ele><time>2026-04-15T09:20:23.855Z</time></trkpt><trkpt lat="42.6824133" lon="-7.2978767"><ele>949.3333333333334</ele><time>2026-04-15T09:20:24.854Z</time></trkpt><trkpt lat="42.68232" lon="-7.2978983"><ele>948.6666666666667</ele><time>2026-04-15T09:20:25.854Z</time></trkpt><trkpt lat="42.6822283" lon="-7.297905"><ele>948.0</ele><time>2026-04-15T09:20:26.854Z</time></trkpt><trkpt lat="42.6821383" lon="-7.2979083"><ele>947.3333333333333</ele><time>2026-04-15T09:20:27.854Z</time></trkpt><trkpt lat="42.6820567" lon="-7.2979183"><ele>946.6666666666666</ele><time>2026-04-15T09:20:28.855Z</time></trkpt><trkpt lat="42.6819817" lon="-7.2979433"><ele>946.0</ele><time>2026-04-15T09:20:29.855Z</time></trkpt><trkpt lat="42.6819183" lon="-7.2979883"><ele>945.9999999999999</ele><time>2026-04-15T09:20:30.854Z</time></trkpt><trkpt lat="42.6818517" lon="-7.2980583"><ele>946.0</ele><time>2026-04-15T09:20:31.854Z</time></trkpt><trkpt lat="42.6817817" lon="-7.2981383"><ele>946.0</ele><time>2026-04-15T09:20:32.854Z</time></trkpt><trkpt lat="42.68171" lon="-7.298215"><ele>946.0</ele><time>2026-04-15T09:20:33.855Z</time></trkpt><trkpt lat="42.6816467" lon="-7.2982967"><ele>945.9999999999999</ele><time>2026-04-15T09:20:34.855Z</time></trkpt><trkpt lat="42.6815833" lon="-7.2983817"><ele>946.0</ele><time>2026-04-15T09:20:35.855Z</time></trkpt><trkpt lat="42.6815183" lon="-7.2984667"><ele>945.9999999999999</ele><time>2026-04-15T09:20:36.855Z</time></trkpt><trkpt lat="42.6814567" lon="-7.298555"><ele>946.0</ele><time>2026-04-15T09:20:37.854Z</time></trkpt><trkpt lat="42.681405" lon="-7.2986267"><ele>946.0</ele><time>2026-04-15T09:20:38.855Z</time></trkpt><trkpt lat="42.6813517" lon="-7.2987017"><ele>946.0</ele><time>2026-04-15T09:20:39.854Z</time></trkpt><trkpt lat="42.6813017" lon="-7.2987867"><ele>945.9999999999999</ele><time>2026-04-15T09:20:40.855Z</time></trkpt><trkpt lat="42.6812533" lon="-7.2988833"><ele>946.0</ele><time>2026-04-15T09:20:41.854Z</time></trkpt><trkpt lat="42.6812033" lon="-7.298985"><ele>944.5999999999999</ele><time>2026-04-15T09:20:42.855Z</time></trkpt><trkpt lat="42.681155" lon="-7.2990933"><ele>943.1999999999999</ele><time>2026-04-15T09:20:43.854Z</time></trkpt><trkpt lat="42.6811083" lon="-7.2992067"><ele>941.8000000000001</ele><time>2026-04-15T09:20:44.854Z</time></trkpt><trkpt lat="42.6810633" lon="-7.2993283"><ele>940.4000000000001</ele><time>2026-04-15T09:20:45.854Z</time></trkpt><trkpt lat="42.6810233" lon="-7.2994533"><ele>939.0</ele><time>2026-04-15T09:20:46.854Z</time></trkpt><trkpt lat="42.68099" lon="-7.2995817"><ele>939.0</ele><time>2026-04-15T09:20:47.854Z</time></trkpt><trkpt lat="42.6809583" lon="-7.2997033"><ele>939.0000000000001</ele><time>2026-04-15T09:20:48.855Z</time></trkpt><trkpt lat="42.6809267" lon="-7.2998267"><ele>939.0000000000001</ele><time>2026-04-15T09:20:49.855Z</time></trkpt><trkpt lat="42.6809083" lon="-7.2999467"><ele>939.0</ele><time>2026-04-15T09:20:50.854Z</time></trkpt><trkpt lat="42.6809" lon="-7.3000833"><ele>939.0</ele><time>2026-04-15T09:20:51.855Z</time></trkpt><trkpt lat="42.6809017" lon="-7.300215"><ele>938.0</ele><time>2026-04-15T09:20:52.854Z</time></trkpt><trkpt lat="42.6809017" lon="-7.300345"><ele>937.0000000000001</ele><time>2026-04-15T09:20:53.854Z</time></trkpt><trkpt lat="42.6808983" lon="-7.3004767"><ele>936.0000000000001</ele><time>2026-04-15T09:20:54.854Z</time></trkpt><trkpt lat="42.6808883" lon="-7.3006133"><ele>935.0</ele><time>2026-04-15T09:20:55.854Z</time></trkpt><trkpt lat="42.6808783" lon="-7.3007467"><ele>934.0</ele><time>2026-04-15T09:20:56.855Z</time></trkpt><trkpt lat="42.6808667" lon="-7.3008783"><ele>934.0</ele><time>2026-04-15T09:20:57.855Z</time></trkpt><trkpt lat="42.680855" lon="-7.3010083"><ele>934.0000000000001</ele><time>2026-04-15T09:20:58.854Z</time></trkpt><trkpt lat="42.6808383" lon="-7.3011317"><ele>934.0000000000001</ele><time>2026-04-15T09:20:59.855Z</time></trkpt><trkpt lat="42.6808217" lon="-7.3012617"><ele>934.0</ele><time>2026-04-15T09:21:00.855Z</time></trkpt><trkpt lat="42.6808083" lon="-7.3013867"><ele>934.0</ele><time>2026-04-15T09:21:01.854Z</time></trkpt><trkpt lat="42.6807917" lon="-7.30151"><ele>933.2</ele><time>2026-04-15T09:21:02.855Z</time></trkpt><trkpt lat="42.6807667" lon="-7.3016433"><ele>932.4000000000001</ele><time>2026-04-15T09:21:03.854Z</time></trkpt><trkpt lat="42.680735" lon="-7.3017633"><ele>931.6</ele><time>2026-04-15T09:21:04.854Z</time></trkpt><trkpt lat="42.6806967" lon="-7.301875"><ele>930.8</ele><time>2026-04-15T09:21:05.854Z</time></trkpt><trkpt lat="42.6806617" lon="-7.301985"><ele>930.0</ele><time>2026-04-15T09:21:06.855Z</time></trkpt><trkpt lat="42.68062" lon="-7.3020933"><ele>930.0</ele><time>2026-04-15T09:21:07.854Z</time></trkpt><trkpt lat="42.6805767" lon="-7.3021983"><ele>930.0</ele><time>2026-04-15T09:21:08.854Z</time></trkpt><trkpt lat="42.680535" lon="-7.302305"><ele>930.0</ele><time>2026-04-15T09:21:09.855Z</time></trkpt><trkpt lat="42.680485" lon="-7.3024083"><ele>930.0</ele><time>2026-04-15T09:21:10.854Z</time></trkpt><trkpt lat="42.68044" lon="-7.3025167"><ele>930.0</ele><time>2026-04-15T09:21:11.854Z</time></trkpt><trkpt lat="42.6803933" lon="-7.302625"><ele>929.0</ele><time>2026-04-15T09:21:12.855Z</time></trkpt><trkpt lat="42.6803567" lon="-7.302735"><ele>928.0</ele><time>2026-04-15T09:21:13.854Z</time></trkpt><trkpt lat="42.680335" lon="-7.3028567"><ele>927.0</ele><time>2026-04-15T09:21:14.854Z</time></trkpt><trkpt lat="42.6803267" lon="-7.3029783"><ele>926.0</ele><time>2026-04-15T09:21:15.854Z</time></trkpt><trkpt lat="42.6803367" lon="-7.3031"><ele>925.0</ele><time>2026-04-15T09:21:16.855Z</time></trkpt><trkpt lat="42.6803683" lon="-7.3032117"><ele>924.0</ele><time>2026-04-15T09:21:17.855Z</time></trkpt><trkpt lat="42.6804167" lon="-7.3033217"><ele>924.0</ele><time>2026-04-15T09:21:18.854Z</time></trkpt><trkpt lat="42.6804717" lon="-7.303425"><ele>924.0</ele><time>2026-04-15T09:21:19.855Z</time></trkpt><trkpt lat="42.6805117" lon="-7.3035283"><ele>924.0</ele><time>2026-04-15T09:21:20.854Z</time></trkpt><trkpt lat="42.680535" lon="-7.3036417"><ele>924.0</ele><time>2026-04-15T09:21:21.855Z</time></trkpt><trkpt lat="42.680545" lon="-7.3037567"><ele>924.0</ele><time>2026-04-15T09:21:22.855Z</time></trkpt><trkpt lat="42.680525" lon="-7.303875"><ele>924.0</ele><time>2026-04-15T09:21:23.854Z</time></trkpt><trkpt lat="42.6804933" lon="-7.3039917"><ele>923.8000000000001</ele><time>2026-04-15T09:21:24.855Z</time></trkpt><trkpt lat="42.6804567" lon="-7.3041033"><ele>923.6000000000001</ele><time>2026-04-15T09:21:25.855Z</time></trkpt><trkpt lat="42.6804117" lon="-7.3042117"><ele>923.4</ele><time>2026-04-15T09:21:26.855Z</time></trkpt><trkpt lat="42.680355" lon="-7.30432"><ele>923.2</ele><time>2026-04-15T09:21:27.854Z</time></trkpt><trkpt lat="42.6802933" lon="-7.304425"><ele>923.0</ele><time>2026-04-15T09:21:28.854Z</time></trkpt><trkpt lat="42.6802267" lon="-7.30453"><ele>923.4</ele><time>2026-04-15T09:21:29.854Z</time></trkpt><trkpt lat="42.6801617" lon="-7.304635"><ele>923.8</ele><time>2026-04-15T09:21:30.854Z</time></trkpt><trkpt lat="42.6801067" lon="-7.304745"><ele>924.2</ele><time>2026-04-15T09:21:31.854Z</time></trkpt><trkpt lat="42.6800467" lon="-7.30486"><ele>924.6</ele><time>2026-04-15T09:21:32.854Z</time></trkpt><trkpt lat="42.68" lon="-7.304975"><ele>925.0</ele><time>2026-04-15T09:21:33.854Z</time></trkpt><trkpt lat="42.6799583" lon="-7.305095"><ele>924.9999999999999</ele><time>2026-04-15T09:21:34.855Z</time></trkpt><trkpt lat="42.6799183" lon="-7.305215"><ele>925.0</ele><time>2026-04-15T09:21:35.855Z</time></trkpt><trkpt lat="42.679875" lon="-7.3053367"><ele>925.0</ele><time>2026-04-15T09:21:36.854Z</time></trkpt><trkpt lat="42.6798317" lon="-7.3054417"><ele>925.0</ele><time>2026-04-15T09:21:37.854Z</time></trkpt><trkpt lat="42.679785" lon="-7.3055383"><ele>924.9999999999999</ele><time>2026-04-15T09:21:38.854Z</time></trkpt><trkpt lat="42.67974" lon="-7.3056167"><ele>925.0</ele><time>2026-04-15T09:21:39.855Z</time></trkpt><trkpt lat="42.67969" lon="-7.30569"><ele>923.6666666666666</ele><time>2026-04-15T09:21:40.855Z</time></trkpt><trkpt lat="42.6796367" lon="-7.305765"><ele>922.3333333333333</ele><time>2026-04-15T09:21:41.855Z</time></trkpt><trkpt lat="42.67957" lon="-7.3058767"><ele>921.0</ele><time>2026-04-15T09:21:42.855Z</time></trkpt><trkpt lat="42.6795317" lon="-7.305985"><ele>919.6666666666667</ele><time>2026-04-15T09:21:43.854Z</time></trkpt><trkpt lat="42.67951" lon="-7.3060883"><ele>918.3333333333334</ele><time>2026-04-15T09:21:44.855Z</time></trkpt><trkpt lat="42.6795133" lon="-7.3061883"><ele>917.0</ele><time>2026-04-15T09:21:45.854Z</time></trkpt><trkpt lat="42.679545" lon="-7.3063"><ele>917.0</ele><time>2026-04-15T09:21:46.854Z</time></trkpt><trkpt lat="42.6795833" lon="-7.3064183"><ele>917.0</ele><time>2026-04-15T09:21:47.854Z</time></trkpt><trkpt lat="42.67962" lon="-7.3065433"><ele>917.0</ele><time>2026-04-15T09:21:48.855Z</time></trkpt><trkpt lat="42.6796267" lon="-7.3066583"><ele>917.0</ele><time>2026-04-15T09:21:49.855Z</time></trkpt><trkpt lat="42.6795933" lon="-7.30677"><ele>917.0</ele><time>2026-04-15T09:21:50.854Z</time></trkpt><trkpt lat="42.679535" lon="-7.3068667"><ele>917.0</ele><time>2026-04-15T09:21:51.855Z</time></trkpt><trkpt lat="42.6794533" lon="-7.3069483"><ele>917.0</ele><time>2026-04-15T09:21:52.855Z</time></trkpt><trkpt lat="42.6793683" lon="-7.3070267"><ele>917.0</ele><time>2026-04-15T09:21:53.854Z</time></trkpt><trkpt lat="42.6792767" lon="-7.3070817"><ele>917.0</ele><time>2026-04-15T09:21:54.855Z</time></trkpt><trkpt lat="42.6791833" lon="-7.3071367"><ele>917.0</ele><time>2026-04-15T09:21:55.854Z</time></trkpt><trkpt lat="42.6790917" lon="-7.3071633"><ele>919.0</ele><time>2026-04-15T09:21:56.854Z</time></trkpt><trkpt lat="42.678995" lon="-7.3071767"><ele>921.0</ele><time>2026-04-15T09:21:57.855Z</time></trkpt><trkpt lat="42.67889" lon="-7.3071867"><ele>923.0</ele><time>2026-04-15T09:21:58.854Z</time></trkpt><trkpt lat="42.6802933" lon="-7.304425"><ele>923.4</ele><time>2026-04-15T09:21:28.854Z</time></trkpt><trkpt lat="42.6802267" lon="-7.30453"><ele>923.8</ele><time>2026-04-15T09:21:29.854Z</time></trkpt><trkpt lat="42.6801617" lon="-7.304635"><ele>924.2</ele><time>2026-04-15T09:21:30.854Z</time></trkpt><trkpt lat="42.6801067" lon="-7.304745"><ele>924.6</ele><time>2026-04-15T09:21:31.854Z</time></trkpt><trkpt lat="42.6800467" lon="-7.30486"><ele>925.0</ele><time>2026-04-15T09:21:32.854Z</time></trkpt><trkpt lat="42.68" lon="-7.304975"><ele>925.0</ele><time>2026-04-15T09:21:33.854Z</time></trkpt><trkpt lat="42.6799583" lon="-7.305095"><ele>925.0</ele><time>2026-04-15T09:21:34.855Z</time></trkpt><trkpt lat="42.6799183" lon="-7.305215"><ele>925.0</ele><time>2026-04-15T09:21:35.855Z</time></trkpt><trkpt lat="42.679875" lon="-7.3053367"><ele>925.0</ele><time>2026-04-15T09:21:36.854Z</time></trkpt><trkpt lat="42.6798317" lon="-7.3054417"><ele>925.0</ele><time>2026-04-15T09:21:37.854Z</time></trkpt><trkpt lat="42.679785" lon="-7.3055383"><ele>923.6666666666666</ele><time>2026-04-15T09:21:38.854Z</time></trkpt><trkpt lat="42.67974" lon="-7.3056167"><ele>922.3333333333333</ele><time>2026-04-15T09:21:39.855Z</time></trkpt><trkpt lat="42.67969" lon="-7.30569"><ele>921.0</ele><time>2026-04-15T09:21:40.855Z</time></trkpt><trkpt lat="42.6796367" lon="-7.305765"><ele>919.6666666666667</ele><time>2026-04-15T09:21:41.855Z</time></trkpt><trkpt lat="42.67957" lon="-7.3058767"><ele>918.3333333333334</ele><time>2026-04-15T09:21:42.855Z</time></trkpt><trkpt lat="42.6795317" lon="-7.305985"><ele>917.0</ele><time>2026-04-15T09:21:43.854Z</time></trkpt><trkpt lat="42.67951" lon="-7.3060883"><ele>917.0000000000001</ele><time>2026-04-15T09:21:44.855Z</time></trkpt><trkpt lat="42.6795133" lon="-7.3061883"><ele>917.0</ele><time>2026-04-15T09:21:45.854Z</time></trkpt><trkpt lat="42.679545" lon="-7.3063"><ele>917.0</ele><time>2026-04-15T09:21:46.854Z</time></trkpt><trkpt lat="42.6795833" lon="-7.3064183"><ele>917.0</ele><time>2026-04-15T09:21:47.854Z</time></trkpt><trkpt lat="42.67962" lon="-7.3065433"><ele>917.0000000000001</ele><time>2026-04-15T09:21:48.855Z</time></trkpt><trkpt lat="42.6796267" lon="-7.3066583"><ele>917.0</ele><time>2026-04-15T09:21:49.855Z</time></trkpt><trkpt lat="42.6795933" lon="-7.30677"><ele>917.0</ele><time>2026-04-15T09:21:50.854Z</time></trkpt><trkpt lat="42.679535" lon="-7.3068667"><ele>917.0</ele><time>2026-04-15T09:21:51.855Z</time></trkpt><trkpt lat="42.6794533" lon="-7.3069483"><ele>917.0</ele><time>2026-04-15T09:21:52.855Z</time></trkpt><trkpt lat="42.6793683" lon="-7.3070267"><ele>917.0</ele><time>2026-04-15T09:21:53.854Z</time></trkpt><trkpt lat="42.6792767" lon="-7.3070817"><ele>917.0</ele><time>2026-04-15T09:21:54.855Z</time></trkpt><trkpt lat="42.6791833" lon="-7.3071367"><ele>920.0</ele><time>2026-04-15T09:21:55.854Z</time></trkpt><trkpt lat="42.6790917" lon="-7.3071633"><ele>923.0</ele><time>2026-04-15T09:21:56.854Z</time></trkpt><trkpt lat="42.678995" lon="-7.3071767"><ele>926.0</ele><time>2026-04-15T09:21:57.855Z</time></trkpt><trkpt lat="42.67889" lon="-7.3071867"><ele>929.0</ele><time>2026-04-15T09:21:58.854Z</time></trkpt><trkpt lat="42.678785" lon="-7.3071833"><ele>932.0</ele><time>2026-04-15T09:21:59.854Z</time></trkpt><trkpt lat="42.6786817" lon="-7.30718"><ele>930.6</ele><time>2026-04-15T09:22:00.854Z</time></trkpt><trkpt lat="42.678585" lon="-7.3071833"><ele>929.2</ele><time>2026-04-15T09:22:01.855Z</time></trkpt><trkpt lat="42.6784883" lon="-7.3072067"><ele>927.8</ele><time>2026-04-15T09:22:02.854Z</time></trkpt><trkpt lat="42.6784" lon="-7.3072483"><ele>926.4</ele><time>2026-04-15T09:22:03.855Z</time></trkpt><trkpt lat="42.6783183" lon="-7.3073017"><ele>925.0</ele><time>2026-04-15T09:22:04.855Z</time></trkpt><trkpt lat="42.678235" lon="-7.30737"><ele>925.0</ele><time>2026-04-15T09:22:05.855Z</time></trkpt><trkpt lat="42.6781583" lon="-7.3074567"><ele>925.0</ele><time>2026-04-15T09:22:06.855Z</time></trkpt><trkpt lat="42.6780833" lon="-7.307545"><ele>925.0</ele><time>2026-04-15T09:22:07.854Z</time></trkpt><trkpt lat="42.6780067" lon="-7.3076217"><ele>925.0</ele><time>2026-04-15T09:22:08.855Z</time></trkpt><trkpt lat="42.677925" lon="-7.3076883"><ele>925.0</ele><time>2026-04-15T09:22:09.854Z</time></trkpt><trkpt lat="42.677845" lon="-7.307755"><ele>923.9999999999999</ele><time>2026-04-15T09:22:10.854Z</time></trkpt><trkpt lat="42.6777633" lon="-7.3078217"><ele>923.0</ele><time>2026-04-15T09:22:11.855Z</time></trkpt><trkpt lat="42.6776833" lon="-7.30788"><ele>922.0</ele><time>2026-04-15T09:22:12.854Z</time></trkpt><trkpt lat="42.6776083" lon="-7.3079433"><ele>921.0</ele><time>2026-04-15T09:22:13.855Z</time></trkpt><trkpt lat="42.677535" lon="-7.308005"><ele>919.9999999999999</ele><time>2026-04-15T09:22:14.854Z</time></trkpt><trkpt lat="42.67746" lon="-7.30806"><ele>919.0</ele><time>2026-04-15T09:22:15.854Z</time></trkpt><trkpt lat="42.6773783" lon="-7.3081133"><ele>918.9999999999999</ele><time>2026-04-15T09:22:16.855Z</time></trkpt><trkpt lat="42.6773" lon="-7.3081583"><ele>919.0</ele><time>2026-04-15T09:22:17.855Z</time></trkpt><trkpt lat="42.67722" lon="-7.3082067"><ele>919.0</ele><time>2026-04-15T09:22:18.855Z</time></trkpt><trkpt lat="42.677135" lon="-7.308245"><ele>919.0</ele><time>2026-04-15T09:22:19.855Z</time></trkpt><trkpt lat="42.6770467" lon="-7.3082817"><ele>918.9999999999999</ele><time>2026-04-15T09:22:20.854Z</time></trkpt><trkpt lat="42.6769667" lon="-7.30831"><ele>919.0</ele><time>2026-04-15T09:22:21.854Z</time></trkpt><trkpt lat="42.676885" lon="-7.3083467"><ele>918.8333333333333</ele><time>2026-04-15T09:22:22.854Z</time></trkpt><trkpt lat="42.6768067" lon="-7.3083733"><ele>918.6666666666666</ele><time>2026-04-15T09:22:23.855Z</time></trkpt><trkpt lat="42.6767233" lon="-7.30841"><ele>918.5</ele><time>2026-04-15T09:22:24.854Z</time></trkpt><trkpt lat="42.6766467" lon="-7.3084433"><ele>918.3333333333333</ele><time>2026-04-15T09:22:25.855Z</time></trkpt><trkpt lat="42.6765733" lon="-7.3084883"><ele>918.1666666666666</ele><time>2026-04-15T09:22:26.855Z</time></trkpt><trkpt lat="42.67649" lon="-7.3085267"><ele>918.0</ele><time>2026-04-15T09:22:27.855Z</time></trkpt><trkpt lat="42.676415" lon="-7.30857"><ele>918.0</ele><time>2026-04-15T09:22:28.854Z</time></trkpt><trkpt lat="42.6763383" lon="-7.3086183"><ele>918.0</ele><time>2026-04-15T09:22:29.854Z</time></trkpt><trkpt lat="42.6762567" lon="-7.3086633"><ele>918.0</ele><time>2026-04-15T09:22:30.854Z</time></trkpt><trkpt lat="42.6761733" lon="-7.308715"><ele>918.0</ele><time>2026-04-15T09:22:31.854Z</time></trkpt><trkpt lat="42.67609" lon="-7.3087617"><ele>918.0</ele><time>2026-04-15T09:22:32.855Z</time></trkpt><trkpt lat="42.6760083" lon="-7.3088033"><ele>918.0</ele><time>2026-04-15T09:22:33.855Z</time></trkpt><trkpt lat="42.6759367" lon="-7.3088417"><ele>917.1666666666666</ele><time>2026-04-15T09:22:34.855Z</time></trkpt><trkpt lat="42.6758617" lon="-7.3088833"><ele>916.3333333333333</ele><time>2026-04-15T09:22:35.854Z</time></trkpt><trkpt lat="42.6757983" lon="-7.30891"><ele>915.5</ele><time>2026-04-15T09:22:36.854Z</time></trkpt><trkpt lat="42.6757367" lon="-7.3089567"><ele>914.6666666666666</ele><time>2026-04-15T09:22:37.854Z</time></trkpt><trkpt lat="42.675665" lon="-7.3090083"><ele>913.8333333333333</ele><time>2026-04-15T09:22:38.855Z</time></trkpt><trkpt lat="42.6755867" lon="-7.309055"><ele>913.0</ele><time>2026-04-15T09:22:39.854Z</time></trkpt><trkpt lat="42.6755067" lon="-7.30908"><ele>910.4999999999999</ele><time>2026-04-15T09:22:40.855Z</time></trkpt><trkpt lat="42.6754217" lon="-7.30908"><ele>908.0</ele><time>2026-04-15T09:22:41.854Z</time></trkpt><trkpt lat="42.6753383" lon="-7.3090567"><ele>905.5</ele><time>2026-04-15T09:22:42.855Z</time></trkpt><trkpt lat="42.6752567" lon="-7.30903"><ele>903.0</ele><time>2026-04-15T09:22:43.855Z</time></trkpt><trkpt lat="42.6751783" lon="-7.3090267"><ele>900.4999999999999</ele><time>2026-04-15T09:22:44.854Z</time></trkpt><trkpt lat="42.6751017" lon="-7.309045"><ele>898.0</ele><time>2026-04-15T09:22:45.855Z</time></trkpt><trkpt lat="42.675025" lon="-7.309075"><ele>896.9999999999999</ele><time>2026-04-15T09:22:46.854Z</time></trkpt><trkpt lat="42.6749483" lon="-7.3091067"><ele>896.0</ele><time>2026-04-15T09:22:47.854Z</time></trkpt><trkpt lat="42.6748683" lon="-7.3091317"><ele>895.0</ele><time>2026-04-15T09:22:48.855Z</time></trkpt><trkpt lat="42.6747783" lon="-7.3091583"><ele>894.0</ele><time>2026-04-15T09:22:49.854Z</time></trkpt><trkpt lat="42.674685" lon="-7.30916"><ele>892.9999999999999</ele><time>2026-04-15T09:22:50.854Z</time></trkpt><trkpt lat="42.6746133" lon="-7.30915"><ele>892.0</ele><time>2026-04-15T09:22:51.854Z</time></trkpt><trkpt lat="42.6745433" lon="-7.309105"><ele>892.0</ele><time>2026-04-15T09:22:52.854Z</time></trkpt><trkpt lat="42.67447" lon="-7.3090517"><ele>892.0</ele><time>2026-04-15T09:22:53.854Z</time></trkpt><trkpt lat="42.6744033" lon="-7.3090067"><ele>892.0</ele><time>2026-04-15T09:22:54.854Z</time></trkpt><trkpt lat="42.6743483" lon="-7.3089533"><ele>892.0</ele><time>2026-04-15T09:22:55.854Z</time></trkpt><trkpt lat="42.6742433" lon="-7.30885"><ele>892.0</ele><time>2026-04-15T09:22:57.854Z</time></trkpt><trkpt lat="42.674135" lon="-7.308755"><ele>892.8571428571429</ele><time>2026-04-15T09:22:59.854Z</time></trkpt><trkpt lat="42.67408" lon="-7.3087083"><ele>893.7142857142857</ele><time>2026-04-15T09:23:00.855Z</time></trkpt><trkpt lat="42.6740233" lon="-7.3086533"><ele>894.5714285714286</ele><time>2026-04-15T09:23:01.855Z</time></trkpt><trkpt lat="42.6739633" lon="-7.3085933"><ele>895.4285714285713</ele><time>2026-04-15T09:23:02.854Z</time></trkpt><trkpt lat="42.673905" lon="-7.30855"><ele>896.2857142857142</ele><time>2026-04-15T09:23:03.854Z</time></trkpt><trkpt lat="42.6738383" lon="-7.3085067"><ele>897.1428571428571</ele><time>2026-04-15T09:23:04.855Z</time></trkpt><trkpt lat="42.6737717" lon="-7.30847"><ele>898.0</ele><time>2026-04-15T09:23:05.855Z</time></trkpt><trkpt lat="42.6736983" lon="-7.30843"><ele>897.9999999999999</ele><time>2026-04-15T09:23:06.854Z</time></trkpt><trkpt lat="42.673625" lon="-7.30838"><ele>898.0</ele><time>2026-04-15T09:23:07.855Z</time></trkpt><trkpt lat="42.67355" lon="-7.3083117"><ele>898.0</ele><time>2026-04-15T09:23:08.855Z</time></trkpt><trkpt lat="42.6734767" lon="-7.3082383"><ele>898.0</ele><time>2026-04-15T09:23:09.854Z</time></trkpt><trkpt lat="42.67341" lon="-7.30817"><ele>897.9999999999999</ele><time>2026-04-15T09:23:10.854Z</time></trkpt><trkpt lat="42.6733417" lon="-7.3080983"><ele>898.0</ele><time>2026-04-15T09:23:11.854Z</time></trkpt><trkpt lat="42.6732733" lon="-7.3080383"><ele>898.1666666666666</ele><time>2026-04-15T09:23:12.854Z</time></trkpt><trkpt lat="42.6732067" lon="-7.3079883"><ele>898.3333333333333</ele><time>2026-04-15T09:23:13.854Z</time></trkpt><trkpt lat="42.6731417" lon="-7.3079417"><ele>898.5</ele><time>2026-04-15T09:23:14.854Z</time></trkpt><trkpt lat="42.6730667" lon="-7.3078933"><ele>898.6666666666667</ele><time>2026-04-15T09:23:15.854Z</time></trkpt><trkpt lat="42.6729883" lon="-7.30786"><ele>898.8333333333334</ele><time>2026-04-15T09:23:16.854Z</time></trkpt><trkpt lat="42.6729017" lon="-7.307845"><ele>899.0</ele><time>2026-04-15T09:23:17.855Z</time></trkpt><trkpt lat="42.6728117" lon="-7.3078317"><ele>896.8000000000001</ele><time>2026-04-15T09:23:18.854Z</time></trkpt><trkpt lat="42.67272" lon="-7.3078133"><ele>894.6000000000001</ele><time>2026-04-15T09:23:19.855Z</time></trkpt><trkpt lat="42.67263" lon="-7.3077867"><ele>892.4</ele><time>2026-04-15T09:23:20.854Z</time></trkpt><trkpt lat="42.6725383" lon="-7.3077583"><ele>890.2</ele><time>2026-04-15T09:23:21.854Z</time></trkpt><trkpt lat="42.6724483" lon="-7.3077267"><ele>888.0</ele><time>2026-04-15T09:23:22.854Z</time></trkpt><trkpt lat="42.672365" lon="-7.3077"><ele>888.0</ele><time>2026-04-15T09:23:23.854Z</time></trkpt><trkpt lat="42.6722933" lon="-7.3076683"><ele>888.0</ele><time>2026-04-15T09:23:24.854Z</time></trkpt><trkpt lat="42.67222" lon="-7.3076267"><ele>888.0</ele><time>2026-04-15T09:23:25.854Z</time></trkpt><trkpt lat="42.6721417" lon="-7.3075933"><ele>888.0</ele><time>2026-04-15T09:23:26.854Z</time></trkpt><trkpt lat="42.6720583" lon="-7.3075683"><ele>888.0</ele><time>2026-04-15T09:23:27.855Z</time></trkpt><trkpt lat="42.6719783" lon="-7.3075667"><ele>888.0</ele><time>2026-04-15T09:23:28.854Z</time></trkpt><trkpt lat="42.6719117" lon="-7.3076033"><ele>888.4</ele><time>2026-04-15T09:23:29.854Z</time></trkpt><trkpt lat="42.6718267" lon="-7.30764"><ele>888.8</ele><time>2026-04-15T09:23:30.855Z</time></trkpt><trkpt lat="42.6717333" lon="-7.3076683"><ele>889.2</ele><time>2026-04-15T09:23:31.855Z</time></trkpt><trkpt lat="42.671625" lon="-7.30769"><ele>889.6</ele><time>2026-04-15T09:23:32.855Z</time></trkpt><trkpt lat="42.6715033" lon="-7.3077083"><ele>890.0</ele><time>2026-04-15T09:23:33.854Z</time></trkpt><trkpt lat="42.6713733" lon="-7.3077267"><ele>890.0</ele><time>2026-04-15T09:23:34.855Z</time></trkpt><trkpt lat="42.6712383" lon="-7.3077417"><ele>890.0</ele><time>2026-04-15T09:23:35.855Z</time></trkpt><trkpt lat="42.671105" lon="-7.3077533"><ele>890.0</ele><time>2026-04-15T09:23:36.855Z</time></trkpt><trkpt lat="42.670975" lon="-7.3077617"><ele>890.0</ele><time>2026-04-15T09:23:37.855Z</time></trkpt><trkpt lat="42.6708517" lon="-7.30776"><ele>891.5</ele><time>2026-04-15T09:23:38.854Z</time></trkpt><trkpt lat="42.6707383" lon="-7.307755"><ele>893.0</ele><time>2026-04-15T09:23:39.854Z</time></trkpt><trkpt lat="42.6706267" lon="-7.3077367"><ele>894.5</ele><time>2026-04-15T09:23:40.854Z</time></trkpt><trkpt lat="42.6705083" lon="-7.3077117"><ele>896.0</ele><time>2026-04-15T09:23:41.854Z</time></trkpt><trkpt lat="42.6703967" lon="-7.3076817"><ele>896.0000000000001</ele><time>2026-04-15T09:23:42.855Z</time></trkpt><trkpt lat="42.67031" lon="-7.3076467"><ele>896.0</ele><time>2026-04-15T09:23:43.854Z</time></trkpt><trkpt lat="42.67024" lon="-7.3075883"><ele>896.0</ele><time>2026-04-15T09:23:44.855Z</time></trkpt><trkpt lat="42.67017" lon="-7.3075233"><ele>896.0</ele><time>2026-04-15T09:23:45.854Z</time></trkpt><trkpt lat="42.670095" lon="-7.307475"><ele>896.0000000000001</ele><time>2026-04-15T09:23:46.855Z</time></trkpt><trkpt lat="42.67002" lon="-7.3074433"><ele>896.0</ele><time>2026-04-15T09:23:47.855Z</time></trkpt><trkpt lat="42.6699417" lon="-7.307435"><ele>897.8</ele><time>2026-04-15T09:23:48.854Z</time></trkpt><trkpt lat="42.6698683" lon="-7.3074267"><ele>899.5999999999999</ele><time>2026-04-15T09:23:49.854Z</time></trkpt><trkpt lat="42.6697983" lon="-7.307455"><ele>901.4</ele><time>2026-04-15T09:23:50.855Z</time></trkpt><trkpt lat="42.66971" lon="-7.307505"><ele>903.2</ele><time>2026-04-15T09:23:51.855Z</time></trkpt><trkpt lat="42.6695983" lon="-7.3075667"><ele>905.0</ele><time>2026-04-15T09:23:52.855Z</time></trkpt><trkpt lat="42.6694833" lon="-7.3076083"><ele>909.25</ele><time>2026-04-15T09:23:53.854Z</time></trkpt><trkpt lat="42.6693733" lon="-7.307615"><ele>913.5</ele><time>2026-04-15T09:23:54.854Z</time></trkpt><trkpt lat="42.6692667" lon="-7.3076183"><ele>917.75</ele><time>2026-04-15T09:23:55.854Z</time></trkpt><trkpt lat="42.6691433" lon="-7.3076133"><ele>922.0</ele><time>2026-04-15T09:23:56.855Z</time></trkpt><trkpt lat="42.6721417" lon="-7.3075933"><ele>916.6666666666666</ele><time>2026-04-15T09:23:26.854Z</time></trkpt><trkpt lat="42.6720583" lon="-7.3075683"><ele>911.3333333333333</ele><time>2026-04-15T09:23:27.855Z</time></trkpt><trkpt lat="42.6719783" lon="-7.3075667"><ele>906.0</ele><time>2026-04-15T09:23:28.854Z</time></trkpt><trkpt lat="42.6719117" lon="-7.3076033"><ele>900.6666666666667</ele><time>2026-04-15T09:23:29.854Z</time></trkpt><trkpt lat="42.6718267" lon="-7.30764"><ele>895.3333333333334</ele><time>2026-04-15T09:23:30.855Z</time></trkpt><trkpt lat="42.6717333" lon="-7.3076683"><ele>890.0</ele><time>2026-04-15T09:23:31.855Z</time></trkpt><trkpt lat="42.671625" lon="-7.30769"><ele>890.0</ele><time>2026-04-15T09:23:32.855Z</time></trkpt><trkpt lat="42.6715033" lon="-7.3077083"><ele>890.0</ele><time>2026-04-15T09:23:33.854Z</time></trkpt><trkpt lat="42.6713733" lon="-7.3077267"><ele>890.0</ele><time>2026-04-15T09:23:34.855Z</time></trkpt><trkpt lat="42.6712383" lon="-7.3077417"><ele>890.0</ele><time>2026-04-15T09:23:35.855Z</time></trkpt><trkpt lat="42.671105" lon="-7.3077533"><ele>891.5</ele><time>2026-04-15T09:23:36.855Z</time></trkpt><trkpt lat="42.670975" lon="-7.3077617"><ele>893.0</ele><time>2026-04-15T09:23:37.855Z</time></trkpt><trkpt lat="42.6708517" lon="-7.30776"><ele>894.5</ele><time>2026-04-15T09:23:38.854Z</time></trkpt><trkpt lat="42.6707383" lon="-7.307755"><ele>896.0</ele><time>2026-04-15T09:23:39.854Z</time></trkpt><trkpt lat="42.6706267" lon="-7.3077367"><ele>896.0</ele><time>2026-04-15T09:23:40.854Z</time></trkpt><trkpt lat="42.6705083" lon="-7.3077117"><ele>895.9999999999999</ele><time>2026-04-15T09:23:41.854Z</time></trkpt><trkpt lat="42.6703967" lon="-7.3076817"><ele>895.9999999999999</ele><time>2026-04-15T09:23:42.855Z</time></trkpt><trkpt lat="42.67031" lon="-7.3076467"><ele>896.0</ele><time>2026-04-15T09:23:43.854Z</time></trkpt><trkpt lat="42.67024" lon="-7.3075883"><ele>896.0</ele><time>2026-04-15T09:23:44.855Z</time></trkpt><trkpt lat="42.67017" lon="-7.3075233"><ele>897.5000000000001</ele><time>2026-04-15T09:23:45.854Z</time></trkpt><trkpt lat="42.670095" lon="-7.307475"><ele>899.0</ele><time>2026-04-15T09:23:46.855Z</time></trkpt><trkpt lat="42.67002" lon="-7.3074433"><ele>900.5</ele><time>2026-04-15T09:23:47.855Z</time></trkpt><trkpt lat="42.6699417" lon="-7.307435"><ele>902.0</ele><time>2026-04-15T09:23:48.854Z</time></trkpt><trkpt lat="42.6698683" lon="-7.3074267"><ele>903.5000000000001</ele><time>2026-04-15T09:23:49.854Z</time></trkpt><trkpt lat="42.6697983" lon="-7.307455"><ele>905.0</ele><time>2026-04-15T09:23:50.855Z</time></trkpt><trkpt lat="42.66971" lon="-7.307505"><ele>905.0</ele><time>2026-04-15T09:23:51.855Z</time></trkpt><trkpt lat="42.6695983" lon="-7.3075667"><ele>905.0</ele><time>2026-04-15T09:23:52.855Z</time></trkpt><trkpt lat="42.6694833" lon="-7.3076083"><ele>905.0</ele><time>2026-04-15T09:23:53.854Z</time></trkpt><trkpt lat="42.6693733" lon="-7.307615"><ele>905.0</ele><time>2026-04-15T09:23:54.854Z</time></trkpt><trkpt lat="42.6692667" lon="-7.3076183"><ele>909.25</ele><time>2026-04-15T09:23:55.854Z</time></trkpt><trkpt lat="42.6691433" lon="-7.3076133"><ele>913.5</ele><time>2026-04-15T09:23:56.855Z</time></trkpt><trkpt lat="42.66901" lon="-7.3076267"><ele>917.75</ele><time>2026-04-15T09:23:57.855Z</time></trkpt><trkpt lat="42.6688617" lon="-7.30764"><ele>922.0</ele><time>2026-04-15T09:23:58.855Z</time></trkpt><trkpt lat="42.6686983" lon="-7.3076633"><ele>926.3333333333333</ele><time>2026-04-15T09:23:59.854Z</time></trkpt><trkpt lat="42.668545" lon="-7.3076833"><ele>930.6666666666667</ele><time>2026-04-15T09:24:00.854Z</time></trkpt><trkpt lat="42.6683967" lon="-7.3077083"><ele>935.0</ele><time>2026-04-15T09:24:01.854Z</time></trkpt><trkpt lat="42.6682383" lon="-7.3077333"><ele>935.0</ele><time>2026-04-15T09:24:02.854Z</time></trkpt><trkpt lat="42.6680717" lon="-7.30776"><ele>935.0</ele><time>2026-04-15T09:24:03.854Z</time></trkpt><trkpt lat="42.6679" lon="-7.3077867"><ele>935.0</ele><time>2026-04-15T09:24:04.854Z</time></trkpt><trkpt lat="42.6677317" lon="-7.3078183"><ele>942.0</ele><time>2026-04-15T09:24:05.855Z</time></trkpt><trkpt lat="42.667575" lon="-7.307845"><ele>949.0</ele><time>2026-04-15T09:24:06.855Z</time></trkpt><trkpt lat="42.667425" lon="-7.3078917"><ele>956.0</ele><time>2026-04-15T09:24:07.854Z</time></trkpt><trkpt lat="42.667265" lon="-7.3079517"><ele>956.0</ele><time>2026-04-15T09:24:08.854Z</time></trkpt><trkpt lat="42.6671" lon="-7.3079983"><ele>956.0</ele><time>2026-04-15T09:24:09.855Z</time></trkpt><trkpt lat="42.66693" lon="-7.3080233"><ele>956.0</ele><time>2026-04-15T09:24:10.854Z</time></trkpt><trkpt lat="42.6667583" lon="-7.30804"><ele>961.3333333333334</ele><time>2026-04-15T09:24:11.855Z</time></trkpt><trkpt lat="42.6665867" lon="-7.3080517"><ele>966.6666666666667</ele><time>2026-04-15T09:24:12.854Z</time></trkpt><trkpt lat="42.666405" lon="-7.3080567"><ele>972.0</ele><time>2026-04-15T09:24:13.855Z</time></trkpt><trkpt lat="42.6662183" lon="-7.30806"><ele>975.0</ele><time>2026-04-15T09:24:14.855Z</time></trkpt><trkpt lat="42.6660567" lon="-7.308045"><ele>978.0</ele><time>2026-04-15T09:24:15.855Z</time></trkpt><trkpt lat="42.665905" lon="-7.3080267"><ele>981.0</ele><time>2026-04-15T09:24:16.855Z</time></trkpt><trkpt lat="42.66576" lon="-7.30801"><ele>981.0</ele><time>2026-04-15T09:24:17.854Z</time></trkpt><trkpt lat="42.6656217" lon="-7.3080017"><ele>981.0</ele><time>2026-04-15T09:24:18.854Z</time></trkpt><trkpt lat="42.6654867" lon="-7.30799"><ele>981.0</ele><time>2026-04-15T09:24:19.855Z</time></trkpt><trkpt lat="42.6653533" lon="-7.3079917"><ele>981.0</ele><time>2026-04-15T09:24:20.855Z</time></trkpt><trkpt lat="42.6652283" lon="-7.3079967"><ele>982.75</ele><time>2026-04-15T09:24:21.854Z</time></trkpt><trkpt lat="42.6650983" lon="-7.308005"><ele>984.5</ele><time>2026-04-15T09:24:22.854Z</time></trkpt><trkpt lat="42.6649633" lon="-7.30802"><ele>986.25</ele><time>2026-04-15T09:24:23.855Z</time></trkpt><trkpt lat="42.664825" lon="-7.3080283"><ele>988.0</ele><time>2026-04-15T09:24:24.855Z</time></trkpt><trkpt lat="42.66469" lon="-7.3080367"><ele>988.0</ele><time>2026-04-15T09:24:25.854Z</time></trkpt><trkpt lat="42.6645583" lon="-7.3080417"><ele>988.0</ele><time>2026-04-15T09:24:26.854Z</time></trkpt><trkpt lat="42.6644333" lon="-7.30805"><ele>988.0</ele><time>2026-04-15T09:24:27.854Z</time></trkpt><trkpt lat="42.6643233" lon="-7.30805"><ele>988.0</ele><time>2026-04-15T09:24:28.855Z</time></trkpt><trkpt lat="42.6642317" lon="-7.3080233"><ele>988.0</ele><time>2026-04-15T09:24:29.855Z</time></trkpt><trkpt lat="42.6641583" lon="-7.307965"><ele>988.0</ele><time>2026-04-15T09:24:30.854Z</time></trkpt><trkpt lat="42.66409" lon="-7.307865"><ele>988.0</ele><time>2026-04-15T09:24:31.855Z</time></trkpt><trkpt lat="42.6640167" lon="-7.30773"><ele>988.0</ele><time>2026-04-15T09:24:32.855Z</time></trkpt><trkpt lat="42.6639233" lon="-7.3075783"><ele>988.0</ele><time>2026-04-15T09:24:33.854Z</time></trkpt><trkpt lat="42.6638317" lon="-7.3074317"><ele>988.0</ele><time>2026-04-15T09:24:34.854Z</time></trkpt><trkpt lat="42.6637483" lon="-7.307275"><ele>988.0</ele><time>2026-04-15T09:24:35.854Z</time></trkpt><trkpt lat="42.663675" lon="-7.307125"><ele>988.0</ele><time>2026-04-15T09:24:36.855Z</time></trkpt><trkpt lat="42.6636" lon="-7.3069783"><ele>986.5</ele><time>2026-04-15T09:24:37.854Z</time></trkpt><trkpt lat="42.6635183" lon="-7.3068433"><ele>985.0</ele><time>2026-04-15T09:24:38.854Z</time></trkpt><trkpt lat="42.6634383" lon="-7.3067017"><ele>983.5</ele><time>2026-04-15T09:24:39.854Z</time></trkpt><trkpt lat="42.6633733" lon="-7.306555"><ele>982.0</ele><time>2026-04-15T09:24:40.854Z</time></trkpt><trkpt lat="42.66332" lon="-7.3064067"><ele>982.0</ele><time>2026-04-15T09:24:41.855Z</time></trkpt><trkpt lat="42.6632683" lon="-7.3062617"><ele>982.0</ele><time>2026-04-15T09:24:42.854Z</time></trkpt><trkpt lat="42.663205" lon="-7.3061117"><ele>982.0</ele><time>2026-04-15T09:24:43.855Z</time></trkpt><trkpt lat="42.6631383" lon="-7.305965"><ele>982.0</ele><time>2026-04-15T09:24:44.854Z</time></trkpt><trkpt lat="42.6630883" lon="-7.3058167"><ele>982.0</ele><time>2026-04-15T09:24:45.855Z</time></trkpt><trkpt lat="42.6630567" lon="-7.3056617"><ele>982.0</ele><time>2026-04-15T09:24:46.855Z</time></trkpt><trkpt lat="42.6630283" lon="-7.3054917"><ele>982.0</ele><time>2026-04-15T09:24:47.855Z</time></trkpt><trkpt lat="42.663" lon="-7.3053133"><ele>982.0</ele><time>2026-04-15T09:24:48.854Z</time></trkpt><trkpt lat="42.66298" lon="-7.3051383"><ele>980.8</ele><time>2026-04-15T09:24:49.855Z</time></trkpt><trkpt lat="42.6629783" lon="-7.30498"><ele>979.6</ele><time>2026-04-15T09:24:50.855Z</time></trkpt><trkpt lat="42.66298" lon="-7.3048267"><ele>978.3999999999999</ele><time>2026-04-15T09:24:51.854Z</time></trkpt><trkpt lat="42.6629833" lon="-7.30469"><ele>977.1999999999999</ele><time>2026-04-15T09:24:52.854Z</time></trkpt><trkpt lat="42.662975" lon="-7.3045633"><ele>976.0</ele><time>2026-04-15T09:24:53.855Z</time></trkpt><trkpt lat="42.66294" lon="-7.30446"><ele>974.5999999999999</ele><time>2026-04-15T09:24:54.855Z</time></trkpt><trkpt lat="42.6629" lon="-7.3043617"><ele>973.1999999999999</ele><time>2026-04-15T09:24:55.854Z</time></trkpt><trkpt lat="42.66286" lon="-7.3042683"><ele>971.8000000000001</ele><time>2026-04-15T09:24:56.854Z</time></trkpt><trkpt lat="42.66284" lon="-7.304155"><ele>970.4000000000001</ele><time>2026-04-15T09:24:58.854Z</time></trkpt><trkpt lat="42.6629333" lon="-7.3041083"><ele>969.0</ele><time>2026-04-15T09:25:00.855Z</time></trkpt><trkpt lat="42.6630383" lon="-7.3041067"><ele>969.0</ele><time>2026-04-15T09:25:01.854Z</time></trkpt><trkpt lat="42.66317" lon="-7.30412"><ele>969.0</ele><time>2026-04-15T09:25:02.855Z</time></trkpt><trkpt lat="42.66332" lon="-7.3041283"><ele>969.0</ele><time>2026-04-15T09:25:03.855Z</time></trkpt><trkpt lat="42.66345" lon="-7.3041083"><ele>969.0</ele><time>2026-04-15T09:25:04.855Z</time></trkpt><trkpt lat="42.663555" lon="-7.3040683"><ele>968.6666666666666</ele><time>2026-04-15T09:25:05.854Z</time></trkpt><trkpt lat="42.6636167" lon="-7.303995"><ele>968.3333333333333</ele><time>2026-04-15T09:25:06.854Z</time></trkpt><trkpt lat="42.66364" lon="-7.30391"><ele>968.0</ele><time>2026-04-15T09:25:07.854Z</time></trkpt><trkpt lat="42.6636333" lon="-7.303815"><ele>967.6666666666666</ele><time>2026-04-15T09:25:08.854Z</time></trkpt><trkpt lat="42.6635983" lon="-7.3037167"><ele>967.3333333333333</ele><time>2026-04-15T09:25:09.854Z</time></trkpt><trkpt lat="42.6635317" lon="-7.3035917"><ele>967.0</ele><time>2026-04-15T09:25:10.854Z</time></trkpt><trkpt lat="42.6634583" lon="-7.3034333"><ele>967.0</ele><time>2026-04-15T09:25:11.855Z</time></trkpt><trkpt lat="42.663375" lon="-7.3032317"><ele>967.0</ele><time>2026-04-15T09:25:12.855Z</time></trkpt><trkpt lat="42.6632733" lon="-7.3030133"><ele>967.0</ele><time>2026-04-15T09:25:13.854Z</time></trkpt><trkpt lat="42.6631417" lon="-7.3028183"><ele>965.3333333333333</ele><time>2026-04-15T09:25:14.854Z</time></trkpt><trkpt lat="42.6629967" lon="-7.3026333"><ele>963.6666666666667</ele><time>2026-04-15T09:25:15.854Z</time></trkpt><trkpt lat="42.6628383" lon="-7.3024783"><ele>962.0</ele><time>2026-04-15T09:25:16.854Z</time></trkpt><trkpt lat="42.6626717" lon="-7.302345"><ele>963.75</ele><time>2026-04-15T09:25:17.855Z</time></trkpt><trkpt lat="42.66254" lon="-7.3022183"><ele>965.5</ele><time>2026-04-15T09:25:18.855Z</time></trkpt><trkpt lat="42.66243" lon="-7.30209"><ele>967.25</ele><time>2026-04-15T09:25:19.854Z</time></trkpt><trkpt lat="42.6623567" lon="-7.301945"><ele>969.0</ele><time>2026-04-15T09:25:20.855Z</time></trkpt><trkpt lat="42.6623117" lon="-7.3018067"><ele>969.0</ele><time>2026-04-15T09:25:21.854Z</time></trkpt><trkpt lat="42.6623067" lon="-7.3016517"><ele>969.0</ele><time>2026-04-15T09:25:22.855Z</time></trkpt><trkpt lat="42.6623467" lon="-7.3014833"><ele>969.0</ele><time>2026-04-15T09:25:23.855Z</time></trkpt><trkpt lat="42.6624167" lon="-7.30132"><ele>969.0</ele><time>2026-04-15T09:25:24.854Z</time></trkpt><trkpt lat="42.662975" lon="-7.3045633"><ele>969.0</ele><time>2026-04-15T09:24:53.855Z</time></trkpt><trkpt lat="42.66294" lon="-7.30446"><ele>969.0</ele><time>2026-04-15T09:24:54.855Z</time></trkpt><trkpt lat="42.6629" lon="-7.3043617"><ele>969.0</ele><time>2026-04-15T09:24:55.854Z</time></trkpt><trkpt lat="42.66286" lon="-7.3042683"><ele>969.0</ele><time>2026-04-15T09:24:56.854Z</time></trkpt><trkpt lat="42.66284" lon="-7.304155"><ele>969.0</ele><time>2026-04-15T09:24:58.854Z</time></trkpt><trkpt lat="42.6629333" lon="-7.3041083"><ele>969.0</ele><time>2026-04-15T09:25:00.855Z</time></trkpt><trkpt lat="42.6630383" lon="-7.3041067"><ele>969.0</ele><time>2026-04-15T09:25:01.854Z</time></trkpt><trkpt lat="42.66317" lon="-7.30412"><ele>969.0</ele><time>2026-04-15T09:25:02.855Z</time></trkpt><trkpt lat="42.66332" lon="-7.3041283"><ele>969.0</ele><time>2026-04-15T09:25:03.855Z</time></trkpt><trkpt lat="42.66345" lon="-7.3041083"><ele>969.0</ele><time>2026-04-15T09:25:04.855Z</time></trkpt><trkpt lat="42.663555" lon="-7.3040683"><ele>968.6666666666666</ele><time>2026-04-15T09:25:05.854Z</time></trkpt><trkpt lat="42.6636167" lon="-7.303995"><ele>968.3333333333333</ele><time>2026-04-15T09:25:06.854Z</time></trkpt><trkpt lat="42.66364" lon="-7.30391"><ele>968.0</ele><time>2026-04-15T09:25:07.854Z</time></trkpt><trkpt lat="42.6636333" lon="-7.303815"><ele>967.6666666666666</ele><time>2026-04-15T09:25:08.854Z</time></trkpt><trkpt lat="42.6635983" lon="-7.3037167"><ele>967.3333333333333</ele><time>2026-04-15T09:25:09.854Z</time></trkpt><trkpt lat="42.6635317" lon="-7.3035917"><ele>967.0</ele><time>2026-04-15T09:25:10.854Z</time></trkpt><trkpt lat="42.6634583" lon="-7.3034333"><ele>967.0</ele><time>2026-04-15T09:25:11.855Z</time></trkpt><trkpt lat="42.663375" lon="-7.3032317"><ele>967.0</ele><time>2026-04-15T09:25:12.855Z</time></trkpt><trkpt lat="42.6632733" lon="-7.3030133"><ele>967.0</ele><time>2026-04-15T09:25:13.854Z</time></trkpt><trkpt lat="42.6631417" lon="-7.3028183"><ele>965.3333333333333</ele><time>2026-04-15T09:25:14.854Z</time></trkpt><trkpt lat="42.6629967" lon="-7.3026333"><ele>963.6666666666667</ele><time>2026-04-15T09:25:15.854Z</time></trkpt><trkpt lat="42.6628383" lon="-7.3024783"><ele>962.0</ele><time>2026-04-15T09:25:16.854Z</time></trkpt><trkpt lat="42.6626717" lon="-7.302345"><ele>963.75</ele><time>2026-04-15T09:25:17.855Z</time></trkpt><trkpt lat="42.66254" lon="-7.3022183"><ele>965.5</ele><time>2026-04-15T09:25:18.855Z</time></trkpt><trkpt lat="42.66243" lon="-7.30209"><ele>967.25</ele><time>2026-04-15T09:25:19.854Z</time></trkpt><trkpt lat="42.6623567" lon="-7.301945"><ele>969.0</ele><time>2026-04-15T09:25:20.855Z</time></trkpt><trkpt lat="42.6623117" lon="-7.3018067"><ele>969.0</ele><time>2026-04-15T09:25:21.854Z</time></trkpt><trkpt lat="42.6623067" lon="-7.3016517"><ele>969.0</ele><time>2026-04-15T09:25:22.855Z</time></trkpt><trkpt lat="42.6623467" lon="-7.3014833"><ele>969.0</ele><time>2026-04-15T09:25:23.855Z</time></trkpt><trkpt lat="42.6624167" lon="-7.30132"><ele>969.0</ele><time>2026-04-15T09:25:24.854Z</time></trkpt><trkpt lat="42.662505" lon="-7.3011633"><ele>967.3333333333333</ele><time>2026-04-15T09:25:25.854Z</time></trkpt><trkpt lat="42.662615" lon="-7.300995"><ele>965.6666666666666</ele><time>2026-04-15T09:25:26.854Z</time></trkpt><trkpt lat="42.6627333" lon="-7.3008333"><ele>964.0</ele><time>2026-04-15T09:25:27.854Z</time></trkpt><trkpt lat="42.662875" lon="-7.300665"><ele>966.3333333333333</ele><time>2026-04-15T09:25:28.854Z</time></trkpt><trkpt lat="42.663035" lon="-7.3004883"><ele>968.6666666666667</ele><time>2026-04-15T09:25:29.855Z</time></trkpt><trkpt lat="42.6632133" lon="-7.3003133"><ele>971.0</ele><time>2026-04-15T09:25:30.855Z</time></trkpt><trkpt lat="42.6634017" lon="-7.3001367"><ele>971.0</ele><time>2026-04-15T09:25:31.854Z</time></trkpt><trkpt lat="42.663595" lon="-7.2999383"><ele>971.0</ele><time>2026-04-15T09:25:32.855Z</time></trkpt><trkpt lat="42.6637983" lon="-7.299745"><ele>972.0</ele><time>2026-04-15T09:25:33.855Z</time></trkpt><trkpt lat="42.6640083" lon="-7.2995533"><ele>973.0</ele><time>2026-04-15T09:25:34.855Z</time></trkpt><trkpt lat="42.6642183" lon="-7.2993833"><ele>973.0</ele><time>2026-04-15T09:25:35.854Z</time></trkpt><trkpt lat="42.664435" lon="-7.299225"><ele>973.0</ele><time>2026-04-15T09:25:36.855Z</time></trkpt><trkpt lat="42.6646467" lon="-7.2990983"><ele>972.0</ele><time>2026-04-15T09:25:37.854Z</time></trkpt><trkpt lat="42.66484" lon="-7.298995"><ele>971.0</ele><time>2026-04-15T09:25:38.854Z</time></trkpt><trkpt lat="42.6650417" lon="-7.2989067"><ele>970.0</ele><time>2026-04-15T09:25:39.855Z</time></trkpt><trkpt lat="42.665245" lon="-7.298835"><ele>970.3333333333333</ele><time>2026-04-15T09:25:40.855Z</time></trkpt><trkpt lat="42.6654333" lon="-7.2987733"><ele>970.6666666666667</ele><time>2026-04-15T09:25:41.854Z</time></trkpt><trkpt lat="42.66561" lon="-7.2987567"><ele>971.0</ele><time>2026-04-15T09:25:42.854Z</time></trkpt><trkpt lat="42.6657583" lon="-7.2987733"><ele>971.0</ele><time>2026-04-15T09:25:43.854Z</time></trkpt><trkpt lat="42.6658667" lon="-7.2988067"><ele>970.9999999999999</ele><time>2026-04-15T09:25:44.854Z</time></trkpt><trkpt lat="42.6659517" lon="-7.2988567"><ele>970.9999999999999</ele><time>2026-04-15T09:25:45.854Z</time></trkpt><trkpt lat="42.666025" lon="-7.2989233"><ele>971.0</ele><time>2026-04-15T09:25:46.854Z</time></trkpt><trkpt lat="42.6661083" lon="-7.2989567"><ele>971.0</ele><time>2026-04-15T09:25:47.854Z</time></trkpt><trkpt lat="42.6662033" lon="-7.29894"><ele>971.5</ele><time>2026-04-15T09:25:48.855Z</time></trkpt><trkpt lat="42.6663117" lon="-7.2988783"><ele>972.0</ele><time>2026-04-15T09:25:49.855Z</time></trkpt><trkpt lat="42.66643" lon="-7.298795"><ele>972.5</ele><time>2026-04-15T09:25:50.854Z</time></trkpt><trkpt lat="42.666545" lon="-7.2987183"><ele>973.0</ele><time>2026-04-15T09:25:51.855Z</time></trkpt><trkpt lat="42.6666683" lon="-7.2986517"><ele>973.0</ele><time>2026-04-15T09:25:52.854Z</time></trkpt><trkpt lat="42.6668017" lon="-7.2985733"><ele>973.0</ele><time>2026-04-15T09:25:53.854Z</time></trkpt><trkpt lat="42.6669633" lon="-7.2985017"><ele>973.0</ele><time>2026-04-15T09:25:54.855Z</time></trkpt><trkpt lat="42.6671567" lon="-7.29844"><ele>975.0</ele><time>2026-04-15T09:25:55.854Z</time></trkpt><trkpt lat="42.66734" lon="-7.2983967"><ele>977.0</ele><time>2026-04-15T09:25:56.854Z</time></trkpt><trkpt lat="42.6675167" lon="-7.2983683"><ele>979.0</ele><time>2026-04-15T09:25:57.855Z</time></trkpt><trkpt lat="42.667665" lon="-7.2983483"><ele>977.4000000000001</ele><time>2026-04-15T09:25:58.855Z</time></trkpt><trkpt lat="42.66778" lon="-7.2983217"><ele>975.8000000000001</ele><time>2026-04-15T09:25:59.855Z</time></trkpt><trkpt lat="42.667865" lon="-7.2982683"><ele>974.1999999999999</ele><time>2026-04-15T09:26:00.854Z</time></trkpt><trkpt lat="42.6679183" lon="-7.2981733"><ele>972.5999999999999</ele><time>2026-04-15T09:26:01.854Z</time></trkpt><trkpt lat="42.6679783" lon="-7.298045"><ele>971.0</ele><time>2026-04-15T09:26:02.855Z</time></trkpt><trkpt lat="42.66806" lon="-7.29793"><ele>971.0</ele><time>2026-04-15T09:26:03.854Z</time></trkpt><trkpt lat="42.6681583" lon="-7.2978383"><ele>971.0</ele><time>2026-04-15T09:26:04.854Z</time></trkpt><trkpt lat="42.668285" lon="-7.2977717"><ele>971.0</ele><time>2026-04-15T09:26:05.854Z</time></trkpt><trkpt lat="42.6684333" lon="-7.2977133"><ele>971.0</ele><time>2026-04-15T09:26:06.854Z</time></trkpt><trkpt lat="42.66861" lon="-7.2976533"><ele>973.0</ele><time>2026-04-15T09:26:07.855Z</time></trkpt><trkpt lat="42.6688117" lon="-7.2976033"><ele>975.0</ele><time>2026-04-15T09:26:08.855Z</time></trkpt><trkpt lat="42.6690117" lon="-7.297545"><ele>977.0</ele><time>2026-04-15T09:26:09.855Z</time></trkpt><trkpt lat="42.669205" lon="-7.2974883"><ele>977.0</ele><time>2026-04-15T09:26:10.855Z</time></trkpt><trkpt lat="42.6693867" lon="-7.2974517"><ele>977.0</ele><time>2026-04-15T09:26:11.856Z</time></trkpt><trkpt lat="42.6695633" lon="-7.2974317"><ele>977.0</ele><time>2026-04-15T09:26:12.856Z</time></trkpt><trkpt lat="42.6697267" lon="-7.297445"><ele>976.2</ele><time>2026-04-15T09:26:13.855Z</time></trkpt><trkpt lat="42.669865" lon="-7.29748"><ele>975.4000000000001</ele><time>2026-04-15T09:26:14.855Z</time></trkpt><trkpt lat="42.6699767" lon="-7.2975283"><ele>974.5999999999999</ele><time>2026-04-15T09:26:15.855Z</time></trkpt><trkpt lat="42.6700317" lon="-7.297585"><ele>973.8</ele><time>2026-04-15T09:26:16.855Z</time></trkpt><trkpt lat="42.67006" lon="-7.2976817"><ele>973.0</ele><time>2026-04-15T09:26:18.855Z</time></trkpt><trkpt lat="42.670045" lon="-7.2977683"><ele>972.9999999999999</ele><time>2026-04-15T09:26:19.855Z</time></trkpt><trkpt lat="42.6700333" lon="-7.2978883"><ele>973.0</ele><time>2026-04-15T09:26:20.855Z</time></trkpt><trkpt lat="42.67004" lon="-7.2979817"><ele>973.0</ele><time>2026-04-15T09:26:21.855Z</time></trkpt><trkpt lat="42.6701383" lon="-7.2980467"><ele>973.0</ele><time>2026-04-15T09:26:23.856Z</time></trkpt><trkpt lat="42.6701983" lon="-7.2980167"><ele>972.9999999999999</ele><time>2026-04-15T09:26:24.856Z</time></trkpt><trkpt lat="42.6702683" lon="-7.2979533"><ele>973.0</ele><time>2026-04-15T09:26:25.855Z</time></trkpt><trkpt lat="42.6703633" lon="-7.2978883"><ele>972.25</ele><time>2026-04-15T09:26:26.855Z</time></trkpt><trkpt lat="42.6704883" lon="-7.2978317"><ele>971.5</ele><time>2026-04-15T09:26:27.855Z</time></trkpt><trkpt lat="42.67062" lon="-7.2978083"><ele>970.75</ele><time>2026-04-15T09:26:28.855Z</time></trkpt><trkpt lat="42.6707533" lon="-7.29783"><ele>970.0</ele><time>2026-04-15T09:26:29.855Z</time></trkpt><trkpt lat="42.67086" lon="-7.2978683"><ele>969.9999999999999</ele><time>2026-04-15T09:26:30.856Z</time></trkpt><trkpt lat="42.670945" lon="-7.2978717"><ele>970.0</ele><time>2026-04-15T09:26:31.856Z</time></trkpt><trkpt lat="42.6710067" lon="-7.29783"><ele>970.0</ele><time>2026-04-15T09:26:32.856Z</time></trkpt><trkpt lat="42.67105" lon="-7.2977533"><ele>970.0</ele><time>2026-04-15T09:26:33.856Z</time></trkpt><trkpt lat="42.67109" lon="-7.2976383"><ele>969.9999999999999</ele><time>2026-04-15T09:26:34.855Z</time></trkpt><trkpt lat="42.6711533" lon="-7.2975233"><ele>970.0</ele><time>2026-04-15T09:26:35.856Z</time></trkpt><trkpt lat="42.6712467" lon="-7.2974083"><ele>971.3333333333333</ele><time>2026-04-15T09:26:36.855Z</time></trkpt><trkpt lat="42.6713533" lon="-7.2972867"><ele>972.6666666666667</ele><time>2026-04-15T09:26:37.855Z</time></trkpt><trkpt lat="42.671465" lon="-7.2971467"><ele>974.0</ele><time>2026-04-15T09:26:38.855Z</time></trkpt><trkpt lat="42.6715733" lon="-7.2969883"><ele>974.0</ele><time>2026-04-15T09:26:39.855Z</time></trkpt><trkpt lat="42.671675" lon="-7.2968233"><ele>974.0</ele><time>2026-04-15T09:26:40.855Z</time></trkpt><trkpt lat="42.67178" lon="-7.29667"><ele>974.0</ele><time>2026-04-15T09:26:41.856Z</time></trkpt><trkpt lat="42.6719067" lon="-7.29654"><ele>974.6666666666667</ele><time>2026-04-15T09:26:42.856Z</time></trkpt><trkpt lat="42.6720467" lon="-7.2964383"><ele>975.3333333333333</ele><time>2026-04-15T09:26:43.855Z</time></trkpt><trkpt lat="42.67221" lon="-7.2963533"><ele>976.0</ele><time>2026-04-15T09:26:44.856Z</time></trkpt><trkpt lat="42.6723783" lon="-7.296285"><ele>976.0</ele><time>2026-04-15T09:26:45.856Z</time></trkpt><trkpt lat="42.6725933" lon="-7.2962183"><ele>976.0</ele><time>2026-04-15T09:26:46.856Z</time></trkpt><trkpt lat="42.6727983" lon="-7.2961567"><ele>976.0</ele><time>2026-04-15T09:26:47.855Z</time></trkpt><trkpt lat="42.6730033" lon="-7.2961167"><ele>976.3333333333333</ele><time>2026-04-15T09:26:48.855Z</time></trkpt><trkpt lat="42.6732033" lon="-7.2961"><ele>976.6666666666667</ele><time>2026-04-15T09:26:49.855Z</time></trkpt><trkpt lat="42.6734033" lon="-7.2960967"><ele>977.0</ele><time>2026-04-15T09:26:50.855Z</time></trkpt><trkpt lat="42.6735967" lon="-7.2960983"><ele>978.0</ele><time>2026-04-15T09:26:51.855Z</time></trkpt><trkpt lat="42.673775" lon="-7.296115"><ele>979.0</ele><time>2026-04-15T09:26:52.855Z</time></trkpt><trkpt lat="42.6739617" lon="-7.2961533"><ele>980.0</ele><time>2026-04-15T09:26:53.855Z</time></trkpt><trkpt lat="42.6741417" lon="-7.2961967"><ele>980.0</ele><time>2026-04-15T09:26:54.855Z</time></trkpt><trkpt lat="42.674325" lon="-7.2962383"><ele>980.0</ele><time>2026-04-15T09:26:55.856Z</time></trkpt><trkpt lat="42.6745167" lon="-7.2962817"><ele>980.0</ele><time>2026-04-15T09:26:56.856Z</time></trkpt><trkpt lat="42.6747183" lon="-7.296315"><ele>981.3333333333334</ele><time>2026-04-15T09:26:57.856Z</time></trkpt><trkpt lat="42.6749233" lon="-7.2963517"><ele>982.6666666666667</ele><time>2026-04-15T09:26:58.856Z</time></trkpt><trkpt lat="42.6751483" lon="-7.2964017"><ele>984.0</ele><time>2026-04-15T09:26:59.856Z</time></trkpt><trkpt lat="42.6753733" lon="-7.2964633"><ele>987.0</ele><time>2026-04-15T09:27:00.856Z</time></trkpt><trkpt lat="42.67558" lon="-7.2965383"><ele>990.0</ele><time>2026-04-15T09:27:01.856Z</time></trkpt><trkpt lat="42.6757567" lon="-7.2966183"><ele>993.0</ele><time>2026-04-15T09:27:02.856Z</time></trkpt><trkpt lat="42.6759117" lon="-7.2966917"><ele>993.0</ele><time>2026-04-15T09:27:03.855Z</time></trkpt><trkpt lat="42.6760517" lon="-7.29678"><ele>993.0</ele><time>2026-04-15T09:27:04.855Z</time></trkpt><trkpt lat="42.6762" lon="-7.2968733"><ele>993.0</ele><time>2026-04-15T09:27:05.855Z</time></trkpt><trkpt lat="42.676345" lon="-7.2969633"><ele>994.2</ele><time>2026-04-15T09:27:06.855Z</time></trkpt><trkpt lat="42.6764867" lon="-7.29703"><ele>995.4</ele><time>2026-04-15T09:27:07.856Z</time></trkpt><trkpt lat="42.6765933" lon="-7.297085"><ele>996.6000000000001</ele><time>2026-04-15T09:27:08.855Z</time></trkpt><trkpt lat="42.6766667" lon="-7.2971167"><ele>997.8000000000001</ele><time>2026-04-15T09:27:09.855Z</time></trkpt><trkpt lat="42.6767467" lon="-7.2970767"><ele>999.0</ele><time>2026-04-15T09:27:11.856Z</time></trkpt><trkpt lat="42.6767033" lon="-7.2969167"><ele>999.0</ele><time>2026-04-15T09:27:13.856Z</time></trkpt><trkpt lat="42.6766467" lon="-7.2967933"><ele>999.0</ele><time>2026-04-15T09:27:14.855Z</time></trkpt><trkpt lat="42.6765983" lon="-7.2966167"><ele>999.0</ele><time>2026-04-15T09:27:15.856Z</time></trkpt><trkpt lat="42.6765667" lon="-7.296395"><ele>999.0</ele><time>2026-04-15T09:27:16.855Z</time></trkpt><trkpt lat="42.6765533" lon="-7.2961283"><ele>1000.5</ele><time>2026-04-15T09:27:17.855Z</time></trkpt><trkpt lat="42.6765583" lon="-7.2958317"><ele>1002.0</ele><time>2026-04-15T09:27:18.856Z</time></trkpt><trkpt lat="42.6765767" lon="-7.2955167"><ele>1003.0</ele><time>2026-04-15T09:27:19.856Z</time></trkpt><trkpt lat="42.6765967" lon="-7.2951717"><ele>1004.0</ele><time>2026-04-15T09:27:20.856Z</time></trkpt><trkpt lat="42.6765983" lon="-7.2948133"><ele>1004.0</ele><time>2026-04-15T09:27:21.855Z</time></trkpt><trkpt lat="42.6765933" lon="-7.2944483"><ele>1004.0</ele><time>2026-04-15T09:27:22.856Z</time></trkpt><trkpt lat="42.6765867" lon="-7.2941067"><ele>1004.5</ele><time>2026-04-15T09:27:23.855Z</time></trkpt><trkpt lat="42.6765733" lon="-7.293775"><ele>1005.0</ele><time>2026-04-15T09:27:24.856Z</time></trkpt><trkpt lat="42.6765367" lon="-7.293445"><ele>1005.0</ele><time>2026-04-15T09:27:25.856Z</time></trkpt><trkpt lat="42.676475" lon="-7.2931183"><ele>1005.0</ele><time>2026-04-15T09:27:26.855Z</time></trkpt><trkpt lat="42.6763933" lon="-7.2928183"><ele>1007.0</ele><time>2026-04-15T09:27:27.856Z</time></trkpt><trkpt lat="42.6763067" lon="-7.2925683"><ele>1009.0</ele><time>2026-04-15T09:27:28.856Z</time></trkpt><trkpt lat="42.6762117" lon="-7.2923367"><ele>1011.0</ele><time>2026-04-15T09:27:29.855Z</time></trkpt><trkpt lat="42.6761167" lon="-7.2921167"><ele>1013.3333333333333</ele><time>2026-04-15T09:27:30.855Z</time></trkpt><trkpt lat="42.6760067" lon="-7.291905"><ele>1015.6666666666666</ele><time>2026-04-15T09:27:31.856Z</time></trkpt><trkpt lat="42.6758967" lon="-7.2916933"><ele>1018.0</ele><time>2026-04-15T09:27:32.855Z</time></trkpt><trkpt lat="42.6757667" lon="-7.2914733"><ele>1017.5</ele><time>2026-04-15T09:27:33.855Z</time></trkpt><trkpt lat="42.675615" lon="-7.291255"><ele>1017.0</ele><time>2026-04-15T09:27:34.856Z</time></trkpt><trkpt lat="42.6754433" lon="-7.2910483"><ele>1016.3333333333333</ele><time>2026-04-15T09:27:35.855Z</time></trkpt><trkpt lat="42.6752617" lon="-7.290845"><ele>1015.6666666666666</ele><time>2026-04-15T09:27:36.855Z</time></trkpt><trkpt lat="42.6751017" lon="-7.2906567"><ele>1015.0</ele><time>2026-04-15T09:27:37.855Z</time></trkpt><trkpt lat="42.6749383" lon="-7.290475"><ele>1015.0</ele><time>2026-04-15T09:27:38.855Z</time></trkpt><trkpt lat="42.674775" lon="-7.2903017"><ele>1015.0</ele><time>2026-04-15T09:27:39.855Z</time></trkpt><trkpt lat="42.6746033" lon="-7.29013"><ele>1015.0</ele><time>2026-04-15T09:27:40.856Z</time></trkpt><trkpt lat="42.6744283" lon="-7.28996"><ele>1013.3333333333333</ele><time>2026-04-15T09:27:41.855Z</time></trkpt><trkpt lat="42.6742517" lon="-7.2898"><ele>1011.6666666666667</ele><time>2026-04-15T09:27:42.855Z</time></trkpt><trkpt lat="42.6740967" lon="-7.2896317"><ele>1010.0</ele><time>2026-04-15T09:27:43.856Z</time></trkpt><trkpt lat="42.6739417" lon="-7.2894817"><ele>1010.0</ele><time>2026-04-15T09:27:44.855Z</time></trkpt><trkpt lat="42.6737867" lon="-7.2893617"><ele>1010.0</ele><time>2026-04-15T09:27:45.855Z</time></trkpt><trkpt lat="42.6736233" lon="-7.2892733"><ele>1010.0</ele><time>2026-04-15T09:27:46.855Z</time></trkpt><trkpt lat="42.6734467" lon="-7.2892283"><ele>1002.0</ele><time>2026-04-15T09:27:47.856Z</time></trkpt><trkpt lat="42.6765533" lon="-7.2961283"><ele>1002.0</ele><time>2026-04-15T09:27:17.855Z</time></trkpt><trkpt lat="42.6765583" lon="-7.2958317"><ele>1002.0</ele><time>2026-04-15T09:27:18.856Z</time></trkpt><trkpt lat="42.6765767" lon="-7.2955167"><ele>1003.0</ele><time>2026-04-15T09:27:19.856Z</time></trkpt><trkpt lat="42.6765967" lon="-7.2951717"><ele>1004.0</ele><time>2026-04-15T09:27:20.856Z</time></trkpt><trkpt lat="42.6765983" lon="-7.2948133"><ele>1004.0</ele><time>2026-04-15T09:27:21.855Z</time></trkpt><trkpt lat="42.6765933" lon="-7.2944483"><ele>1004.0</ele><time>2026-04-15T09:27:22.856Z</time></trkpt><trkpt lat="42.6765867" lon="-7.2941067"><ele>1004.5</ele><time>2026-04-15T09:27:23.855Z</time></trkpt><trkpt lat="42.6765733" lon="-7.293775"><ele>1005.0</ele><time>2026-04-15T09:27:24.856Z</time></trkpt><trkpt lat="42.6765367" lon="-7.293445"><ele>1005.0</ele><time>2026-04-15T09:27:25.856Z</time></trkpt><trkpt lat="42.676475" lon="-7.2931183"><ele>1005.0</ele><time>2026-04-15T09:27:26.855Z</time></trkpt><trkpt lat="42.6763933" lon="-7.2928183"><ele>1007.0</ele><time>2026-04-15T09:27:27.856Z</time></trkpt><trkpt lat="42.6763067" lon="-7.2925683"><ele>1009.0</ele><time>2026-04-15T09:27:28.856Z</time></trkpt><trkpt lat="42.6762117" lon="-7.2923367"><ele>1011.0</ele><time>2026-04-15T09:27:29.855Z</time></trkpt><trkpt lat="42.6761167" lon="-7.2921167"><ele>1013.3333333333333</ele><time>2026-04-15T09:27:30.855Z</time></trkpt><trkpt lat="42.6760067" lon="-7.291905"><ele>1015.6666666666666</ele><time>2026-04-15T09:27:31.856Z</time></trkpt><trkpt lat="42.6758967" lon="-7.2916933"><ele>1018.0</ele><time>2026-04-15T09:27:32.855Z</time></trkpt><trkpt lat="42.6757667" lon="-7.2914733"><ele>1017.5</ele><time>2026-04-15T09:27:33.855Z</time></trkpt><trkpt lat="42.675615" lon="-7.291255"><ele>1017.0</ele><time>2026-04-15T09:27:34.856Z</time></trkpt><trkpt lat="42.6754433" lon="-7.2910483"><ele>1016.3333333333333</ele><time>2026-04-15T09:27:35.855Z</time></trkpt><trkpt lat="42.6752617" lon="-7.290845"><ele>1015.6666666666666</ele><time>2026-04-15T09:27:36.855Z</time></trkpt><trkpt lat="42.6751017" lon="-7.2906567"><ele>1015.0</ele><time>2026-04-15T09:27:37.855Z</time></trkpt><trkpt lat="42.6749383" lon="-7.290475"><ele>1015.0</ele><time>2026-04-15T09:27:38.855Z</time></trkpt><trkpt lat="42.674775" lon="-7.2903017"><ele>1015.0</ele><time>2026-04-15T09:27:39.855Z</time></trkpt><trkpt lat="42.6746033" lon="-7.29013"><ele>1015.0</ele><time>2026-04-15T09:27:40.856Z</time></trkpt><trkpt lat="42.6744283" lon="-7.28996"><ele>1013.3333333333333</ele><time>2026-04-15T09:27:41.855Z</time></trkpt><trkpt lat="42.6742517" lon="-7.2898"><ele>1011.6666666666667</ele><time>2026-04-15T09:27:42.855Z</time></trkpt><trkpt lat="42.6740967" lon="-7.2896317"><ele>1010.0</ele><time>2026-04-15T09:27:43.856Z</time></trkpt><trkpt lat="42.6739417" lon="-7.2894817"><ele>1010.0</ele><time>2026-04-15T09:27:44.855Z</time></trkpt><trkpt lat="42.6737867" lon="-7.2893617"><ele>1010.0</ele><time>2026-04-15T09:27:45.855Z</time></trkpt><trkpt lat="42.6736233" lon="-7.2892733"><ele>1010.0</ele><time>2026-04-15T09:27:46.855Z</time></trkpt><trkpt lat="42.6734467" lon="-7.2892283"><ele>1014.3333333333334</ele><time>2026-04-15T09:27:47.856Z</time></trkpt><trkpt lat="42.67326" lon="-7.2891867"><ele>1018.6666666666667</ele><time>2026-04-15T09:27:48.856Z</time></trkpt><trkpt lat="42.6730833" lon="-7.2891433"><ele>1023.0</ele><time>2026-04-15T09:27:49.856Z</time></trkpt><trkpt lat="42.6729383" lon="-7.2890817"><ele>1023.0</ele><time>2026-04-15T09:27:50.856Z</time></trkpt><trkpt lat="42.6728167" lon="-7.2890067"><ele>1023.0</ele><time>2026-04-15T09:27:51.855Z</time></trkpt><trkpt lat="42.6727383" lon="-7.2888917"><ele>1023.0</ele><time>2026-04-15T09:27:52.855Z</time></trkpt><trkpt lat="42.67269" lon="-7.2887367"><ele>1023.0</ele><time>2026-04-15T09:27:53.856Z</time></trkpt><trkpt lat="42.6726683" lon="-7.2885617"><ele>1023.6666666666667</ele><time>2026-04-15T09:27:54.856Z</time></trkpt><trkpt lat="42.6726633" lon="-7.28838"><ele>1024.3333333333335</ele><time>2026-04-15T09:27:55.855Z</time></trkpt><trkpt lat="42.6726683" lon="-7.2881783"><ele>1025.0</ele><time>2026-04-15T09:27:56.856Z</time></trkpt><trkpt lat="42.6726717" lon="-7.2879467"><ele>1025.0</ele><time>2026-04-15T09:27:57.856Z</time></trkpt><trkpt lat="42.672665" lon="-7.287705"><ele>1025.0</ele><time>2026-04-15T09:27:58.855Z</time></trkpt><trkpt lat="42.6726567" lon="-7.2874383"><ele>1025.0</ele><time>2026-04-15T09:27:59.856Z</time></trkpt><trkpt lat="42.6726467" lon="-7.2871317"><ele>1024.0</ele><time>2026-04-15T09:28:00.856Z</time></trkpt><trkpt lat="42.6726417" lon="-7.2868167"><ele>1023.0</ele><time>2026-04-15T09:28:01.856Z</time></trkpt><trkpt lat="42.6726417" lon="-7.286495"><ele>1024.0</ele><time>2026-04-15T09:28:02.855Z</time></trkpt><trkpt lat="42.672655" lon="-7.286175"><ele>1025.0</ele><time>2026-04-15T09:28:03.855Z</time></trkpt><trkpt lat="42.6726717" lon="-7.28587"><ele>1024.6666666666667</ele><time>2026-04-15T09:28:04.856Z</time></trkpt><trkpt lat="42.6726933" lon="-7.285585"><ele>1024.3333333333333</ele><time>2026-04-15T09:28:05.856Z</time></trkpt><trkpt lat="42.6727267" lon="-7.28532"><ele>1024.0</ele><time>2026-04-15T09:28:06.856Z</time></trkpt><trkpt lat="42.6727883" lon="-7.2850517"><ele>1024.0</ele><time>2026-04-15T09:28:07.855Z</time></trkpt><trkpt lat="42.6728467" lon="-7.28477"><ele>1024.0</ele><time>2026-04-15T09:28:08.855Z</time></trkpt><trkpt lat="42.6729067" lon="-7.28446"><ele>1025.0</ele><time>2026-04-15T09:28:09.856Z</time></trkpt><trkpt lat="42.6729683" lon="-7.28414"><ele>1026.0</ele><time>2026-04-15T09:28:10.856Z</time></trkpt><trkpt lat="42.6730367" lon="-7.2838017"><ele>1029.0</ele><time>2026-04-15T09:28:11.856Z</time></trkpt><trkpt lat="42.673105" lon="-7.2834633"><ele>1032.0</ele><time>2026-04-15T09:28:12.855Z</time></trkpt><trkpt lat="42.67318" lon="-7.2831483"><ele>1034.0</ele><time>2026-04-15T09:28:13.855Z</time></trkpt><trkpt lat="42.6732583" lon="-7.2828533"><ele>1036.0</ele><time>2026-04-15T09:28:14.855Z</time></trkpt><trkpt lat="42.67334" lon="-7.282575"><ele>1036.0</ele><time>2026-04-15T09:28:15.855Z</time></trkpt><trkpt lat="42.6734017" lon="-7.2823017"><ele>1036.0</ele><time>2026-04-15T09:28:16.855Z</time></trkpt><trkpt lat="42.6734483" lon="-7.2820233"><ele>1036.0</ele><time>2026-04-15T09:28:17.855Z</time></trkpt><trkpt lat="42.6734767" lon="-7.281765"><ele>1037.0</ele><time>2026-04-15T09:28:18.856Z</time></trkpt><trkpt lat="42.6734733" lon="-7.2815017"><ele>1038.0</ele><time>2026-04-15T09:28:19.856Z</time></trkpt><trkpt lat="42.6734333" lon="-7.2812217"><ele>1039.0</ele><time>2026-04-15T09:28:20.856Z</time></trkpt><trkpt lat="42.6733617" lon="-7.2809467"><ele>1040.6666666666665</ele><time>2026-04-15T09:28:21.856Z</time></trkpt><trkpt lat="42.67328" lon="-7.2806533"><ele>1042.3333333333333</ele><time>2026-04-15T09:28:22.855Z</time></trkpt><trkpt lat="42.673205" lon="-7.2803783"><ele>1044.0</ele><time>2026-04-15T09:28:23.856Z</time></trkpt><trkpt lat="42.6731467" lon="-7.2801367"><ele>1044.0</ele><time>2026-04-15T09:28:24.856Z</time></trkpt><trkpt lat="42.6730767" lon="-7.2799167"><ele>1044.0</ele><time>2026-04-15T09:28:25.856Z</time></trkpt><trkpt lat="42.6729917" lon="-7.27974"><ele>1044.0</ele><time>2026-04-15T09:28:26.855Z</time></trkpt><trkpt lat="42.6728717" lon="-7.2795817"><ele>1047.6666666666667</ele><time>2026-04-15T09:28:27.855Z</time></trkpt><trkpt lat="42.67274" lon="-7.2794433"><ele>1051.3333333333335</ele><time>2026-04-15T09:28:28.856Z</time></trkpt><trkpt lat="42.6725917" lon="-7.27932"><ele>1055.0</ele><time>2026-04-15T09:28:29.855Z</time></trkpt><trkpt lat="42.6724417" lon="-7.2792067"><ele>1055.0</ele><time>2026-04-15T09:28:30.855Z</time></trkpt><trkpt lat="42.67228" lon="-7.2790967"><ele>1055.0</ele><time>2026-04-15T09:28:31.855Z</time></trkpt><trkpt lat="42.6721067" lon="-7.2790083"><ele>1055.0</ele><time>2026-04-15T09:28:32.856Z</time></trkpt><trkpt lat="42.6719233" lon="-7.2789317"><ele>1051.3333333333335</ele><time>2026-04-15T09:28:33.856Z</time></trkpt><trkpt lat="42.6717317" lon="-7.2788917"><ele>1047.6666666666667</ele><time>2026-04-15T09:28:34.855Z</time></trkpt><trkpt lat="42.67154" lon="-7.2788533"><ele>1044.0</ele><time>2026-04-15T09:28:35.856Z</time></trkpt><trkpt lat="42.6713517" lon="-7.27881"><ele>1044.0</ele><time>2026-04-15T09:28:36.855Z</time></trkpt><trkpt lat="42.6712067" lon="-7.278775"><ele>1044.0</ele><time>2026-04-15T09:28:37.855Z</time></trkpt><trkpt lat="42.6710917" lon="-7.278785"><ele>1044.0</ele><time>2026-04-15T09:28:38.855Z</time></trkpt><trkpt lat="42.67099" lon="-7.2788383"><ele>1044.0</ele><time>2026-04-15T09:28:39.856Z</time></trkpt><trkpt lat="42.6709017" lon="-7.278925"><ele>1051.5</ele><time>2026-04-15T09:28:40.855Z</time></trkpt><trkpt lat="42.6708183" lon="-7.2790333"><ele>1059.0</ele><time>2026-04-15T09:28:41.856Z</time></trkpt><trkpt lat="42.67071" lon="-7.2791533"><ele>1066.5</ele><time>2026-04-15T09:28:42.855Z</time></trkpt><trkpt lat="42.670585" lon="-7.2792883"><ele>1074.0</ele><time>2026-04-15T09:28:43.856Z</time></trkpt><trkpt lat="42.670435" lon="-7.2794417"><ele>1077.3333333333333</ele><time>2026-04-15T09:28:44.855Z</time></trkpt><trkpt lat="42.6702567" lon="-7.2795867"><ele>1080.6666666666665</ele><time>2026-04-15T09:28:45.856Z</time></trkpt><trkpt lat="42.6700683" lon="-7.27973"><ele>1084.0</ele><time>2026-04-15T09:28:46.856Z</time></trkpt><trkpt lat="42.6698817" lon="-7.2798533"><ele>1084.0</ele><time>2026-04-15T09:28:47.856Z</time></trkpt><trkpt lat="42.669695" lon="-7.2799517"><ele>1084.0</ele><time>2026-04-15T09:28:48.855Z</time></trkpt><trkpt lat="42.6695067" lon="-7.2800617"><ele>1084.0</ele><time>2026-04-15T09:28:49.856Z</time></trkpt><trkpt lat="42.6693233" lon="-7.2801883"><ele>1088.3333333333333</ele><time>2026-04-15T09:28:50.856Z</time></trkpt><trkpt lat="42.6691517" lon="-7.2803233"><ele>1092.6666666666667</ele><time>2026-04-15T09:28:51.856Z</time></trkpt><trkpt lat="42.6689883" lon="-7.28044"><ele>1097.0</ele><time>2026-04-15T09:28:52.856Z</time></trkpt><trkpt lat="42.66884" lon="-7.2805283"><ele>1097.0</ele><time>2026-04-15T09:28:53.855Z</time></trkpt><trkpt lat="42.6687167" lon="-7.2805783"><ele>1097.0</ele><time>2026-04-15T09:28:54.855Z</time></trkpt><trkpt lat="42.66861" lon="-7.2805967"><ele>1097.0</ele><time>2026-04-15T09:28:55.856Z</time></trkpt><trkpt lat="42.6685383" lon="-7.28058"><ele>1097.0</ele><time>2026-04-15T09:28:56.855Z</time></trkpt><trkpt lat="42.6684683" lon="-7.2804783"><ele>1097.0</ele><time>2026-04-15T09:28:58.855Z</time></trkpt><trkpt lat="42.6684533" lon="-7.2803767"><ele>1098.0</ele><time>2026-04-15T09:28:59.855Z</time></trkpt><trkpt lat="42.6684583" lon="-7.2802467"><ele>1099.0</ele><time>2026-04-15T09:29:00.856Z</time></trkpt><trkpt lat="42.6684717" lon="-7.2800917"><ele>1100.0</ele><time>2026-04-15T09:29:01.855Z</time></trkpt><trkpt lat="42.668495" lon="-7.279885"><ele>1101.0</ele><time>2026-04-15T09:29:02.856Z</time></trkpt><trkpt lat="42.6685033" lon="-7.2796467"><ele>1102.0</ele><time>2026-04-15T09:29:03.855Z</time></trkpt><trkpt lat="42.668495" lon="-7.27938"><ele>1103.0</ele><time>2026-04-15T09:29:04.855Z</time></trkpt><trkpt lat="42.668475" lon="-7.2791167"><ele>1104.0</ele><time>2026-04-15T09:29:05.855Z</time></trkpt><trkpt lat="42.6684283" lon="-7.2788567"><ele>1105.3333333333333</ele><time>2026-04-15T09:29:06.856Z</time></trkpt><trkpt lat="42.668365" lon="-7.27858"><ele>1106.6666666666665</ele><time>2026-04-15T09:29:07.856Z</time></trkpt><trkpt lat="42.6682967" lon="-7.278285"><ele>1108.0</ele><time>2026-04-15T09:29:08.855Z</time></trkpt><trkpt lat="42.6682183" lon="-7.2779883"><ele>1111.0</ele><time>2026-04-15T09:29:09.855Z</time></trkpt><trkpt lat="42.6681333" lon="-7.277695"><ele>1114.0</ele><time>2026-04-15T09:29:10.855Z</time></trkpt><trkpt lat="42.6680467" lon="-7.2774383"><ele>1117.0</ele><time>2026-04-15T09:29:11.855Z</time></trkpt><trkpt lat="42.66796" lon="-7.27722"><ele>1118.75</ele><time>2026-04-15T09:29:12.856Z</time></trkpt><trkpt lat="42.6678683" lon="-7.277045"><ele>1120.5</ele><time>2026-04-15T09:29:13.855Z</time></trkpt><trkpt lat="42.667765" lon="-7.2769083"><ele>1122.25</ele><time>2026-04-15T09:29:14.856Z</time></trkpt><trkpt lat="42.667655" lon="-7.2768183"><ele>1124.0</ele><time>2026-04-15T09:29:15.855Z</time></trkpt><trkpt lat="42.670435" lon="-7.2794417"><ele>1113.3333333333335</ele><time>2026-04-15T09:28:44.855Z</time></trkpt><trkpt lat="42.6702567" lon="-7.2795867"><ele>1102.6666666666667</ele><time>2026-04-15T09:28:45.856Z</time></trkpt><trkpt lat="42.6700683" lon="-7.27973"><ele>1092.0</ele><time>2026-04-15T09:28:46.856Z</time></trkpt><trkpt lat="42.6698817" lon="-7.2798533"><ele>1093.6666666666667</ele><time>2026-04-15T09:28:47.856Z</time></trkpt><trkpt lat="42.669695" lon="-7.2799517"><ele>1095.3333333333335</ele><time>2026-04-15T09:28:48.855Z</time></trkpt><trkpt lat="42.6695067" lon="-7.2800617"><ele>1097.0</ele><time>2026-04-15T09:28:49.856Z</time></trkpt><trkpt lat="42.6693233" lon="-7.2801883"><ele>1097.0</ele><time>2026-04-15T09:28:50.856Z</time></trkpt><trkpt lat="42.6691517" lon="-7.2803233"><ele>1097.0</ele><time>2026-04-15T09:28:51.856Z</time></trkpt><trkpt lat="42.6689883" lon="-7.28044"><ele>1097.0</ele><time>2026-04-15T09:28:52.856Z</time></trkpt><trkpt lat="42.66884" lon="-7.2805283"><ele>1097.0</ele><time>2026-04-15T09:28:53.855Z</time></trkpt><trkpt lat="42.6687167" lon="-7.2805783"><ele>1097.0</ele><time>2026-04-15T09:28:54.855Z</time></trkpt><trkpt lat="42.66861" lon="-7.2805967"><ele>1097.0</ele><time>2026-04-15T09:28:55.856Z</time></trkpt><trkpt lat="42.6685383" lon="-7.28058"><ele>1097.0</ele><time>2026-04-15T09:28:56.855Z</time></trkpt><trkpt lat="42.6684683" lon="-7.2804783"><ele>1097.0</ele><time>2026-04-15T09:28:58.855Z</time></trkpt><trkpt lat="42.6684533" lon="-7.2803767"><ele>1098.0</ele><time>2026-04-15T09:28:59.855Z</time></trkpt><trkpt lat="42.6684583" lon="-7.2802467"><ele>1099.0</ele><time>2026-04-15T09:29:00.856Z</time></trkpt><trkpt lat="42.6684717" lon="-7.2800917"><ele>1100.0</ele><time>2026-04-15T09:29:01.855Z</time></trkpt><trkpt lat="42.668495" lon="-7.279885"><ele>1101.0</ele><time>2026-04-15T09:29:02.856Z</time></trkpt><trkpt lat="42.6685033" lon="-7.2796467"><ele>1102.0</ele><time>2026-04-15T09:29:03.855Z</time></trkpt><trkpt lat="42.668495" lon="-7.27938"><ele>1103.0</ele><time>2026-04-15T09:29:04.855Z</time></trkpt><trkpt lat="42.668475" lon="-7.2791167"><ele>1104.0</ele><time>2026-04-15T09:29:05.855Z</time></trkpt><trkpt lat="42.6684283" lon="-7.2788567"><ele>1105.3333333333333</ele><time>2026-04-15T09:29:06.856Z</time></trkpt><trkpt lat="42.668365" lon="-7.27858"><ele>1106.6666666666665</ele><time>2026-04-15T09:29:07.856Z</time></trkpt><trkpt lat="42.6682967" lon="-7.278285"><ele>1108.0</ele><time>2026-04-15T09:29:08.855Z</time></trkpt><trkpt lat="42.6682183" lon="-7.2779883"><ele>1111.0</ele><time>2026-04-15T09:29:09.855Z</time></trkpt><trkpt lat="42.6681333" lon="-7.277695"><ele>1114.0</ele><time>2026-04-15T09:29:10.855Z</time></trkpt><trkpt lat="42.6680467" lon="-7.2774383"><ele>1117.0</ele><time>2026-04-15T09:29:11.855Z</time></trkpt><trkpt lat="42.66796" lon="-7.27722"><ele>1118.75</ele><time>2026-04-15T09:29:12.856Z</time></trkpt><trkpt lat="42.6678683" lon="-7.277045"><ele>1120.5</ele><time>2026-04-15T09:29:13.855Z</time></trkpt><trkpt lat="42.667765" lon="-7.2769083"><ele>1122.25</ele><time>2026-04-15T09:29:14.856Z</time></trkpt><trkpt lat="42.667655" lon="-7.2768183"><ele>1124.0</ele><time>2026-04-15T09:29:15.855Z</time></trkpt><trkpt lat="42.6675417" lon="-7.276755"><ele>1124.0</ele><time>2026-04-15T09:29:16.855Z</time></trkpt><trkpt lat="42.6674217" lon="-7.2767383"><ele>1124.0</ele><time>2026-04-15T09:29:17.855Z</time></trkpt><trkpt lat="42.66729" lon="-7.27677"><ele>1124.0</ele><time>2026-04-15T09:29:18.856Z</time></trkpt><trkpt lat="42.667145" lon="-7.2768283"><ele>1124.0</ele><time>2026-04-15T09:29:19.855Z</time></trkpt><trkpt lat="42.6669933" lon="-7.2768483"><ele>1124.6666666666667</ele><time>2026-04-15T09:29:20.855Z</time></trkpt><trkpt lat="42.6668283" lon="-7.276845"><ele>1125.3333333333333</ele><time>2026-04-15T09:29:21.856Z</time></trkpt><trkpt lat="42.6666567" lon="-7.276805"><ele>1126.0</ele><time>2026-04-15T09:29:22.855Z</time></trkpt><trkpt lat="42.666485" lon="-7.2767467"><ele>1126.0</ele><time>2026-04-15T09:29:23.856Z</time></trkpt><trkpt lat="42.6662983" lon="-7.2766867"><ele>1126.0</ele><time>2026-04-15T09:29:24.856Z</time></trkpt><trkpt lat="42.6661" lon="-7.2766333"><ele>1126.0</ele><time>2026-04-15T09:29:25.856Z</time></trkpt><trkpt lat="42.665905" lon="-7.2765883"><ele>1125.3333333333333</ele><time>2026-04-15T09:29:26.856Z</time></trkpt><trkpt lat="42.66571" lon="-7.276565"><ele>1124.6666666666667</ele><time>2026-04-15T09:29:27.855Z</time></trkpt><trkpt lat="42.6655033" lon="-7.2765717"><ele>1124.0</ele><time>2026-04-15T09:29:28.856Z</time></trkpt><trkpt lat="42.665295" lon="-7.276605"><ele>1124.3333333333335</ele><time>2026-04-15T09:29:29.855Z</time></trkpt><trkpt lat="42.6650967" lon="-7.2766583"><ele>1124.6666666666667</ele><time>2026-04-15T09:29:30.856Z</time></trkpt><trkpt lat="42.6648967" lon="-7.2766867"><ele>1125.0</ele><time>2026-04-15T09:29:31.855Z</time></trkpt><trkpt lat="42.6646933" lon="-7.2767133"><ele>1125.0</ele><time>2026-04-15T09:29:32.855Z</time></trkpt><trkpt lat="42.6644933" lon="-7.2767217"><ele>1125.0</ele><time>2026-04-15T09:29:33.855Z</time></trkpt><trkpt lat="42.66433" lon="-7.2767233"><ele>1125.0</ele><time>2026-04-15T09:29:34.855Z</time></trkpt><trkpt lat="42.664175" lon="-7.2767"><ele>1125.0</ele><time>2026-04-15T09:29:35.855Z</time></trkpt><trkpt lat="42.664015" lon="-7.2766533"><ele>1125.0</ele><time>2026-04-15T09:29:36.855Z</time></trkpt><trkpt lat="42.6638467" lon="-7.2766017"><ele>1125.0</ele><time>2026-04-15T09:29:37.855Z</time></trkpt><trkpt lat="42.6636717" lon="-7.2765767"><ele>1124.6666666666667</ele><time>2026-04-15T09:29:38.856Z</time></trkpt><trkpt lat="42.6634933" lon="-7.27659"><ele>1124.3333333333335</ele><time>2026-04-15T09:29:39.856Z</time></trkpt><trkpt lat="42.6633317" lon="-7.2766183"><ele>1124.0</ele><time>2026-04-15T09:29:40.855Z</time></trkpt><trkpt lat="42.6631917" lon="-7.2766267"><ele>1124.0</ele><time>2026-04-15T09:29:41.855Z</time></trkpt><trkpt lat="42.6630633" lon="-7.2766167"><ele>1124.0</ele><time>2026-04-15T09:29:42.855Z</time></trkpt><trkpt lat="42.6629483" lon="-7.2765617"><ele>1124.0</ele><time>2026-04-15T09:29:43.856Z</time></trkpt><trkpt lat="42.6628483" lon="-7.2764767"><ele>1124.0</ele><time>2026-04-15T09:29:44.855Z</time></trkpt><trkpt lat="42.66276" lon="-7.2763717"><ele>1122.25</ele><time>2026-04-15T09:29:45.855Z</time></trkpt><trkpt lat="42.6626883" lon="-7.2762267"><ele>1120.5</ele><time>2026-04-15T09:29:46.856Z</time></trkpt><trkpt lat="42.6626367" lon="-7.2760483"><ele>1118.75</ele><time>2026-04-15T09:29:47.856Z</time></trkpt><trkpt lat="42.6625817" lon="-7.2758217"><ele>1117.0</ele><time>2026-04-15T09:29:48.855Z</time></trkpt><trkpt lat="42.6625367" lon="-7.2755883"><ele>1116.3333333333333</ele><time>2026-04-15T09:29:49.855Z</time></trkpt><trkpt lat="42.66251" lon="-7.2753483"><ele>1115.6666666666667</ele><time>2026-04-15T09:29:50.855Z</time></trkpt><trkpt lat="42.6625083" lon="-7.27512"><ele>1115.0</ele><time>2026-04-15T09:29:51.855Z</time></trkpt><trkpt lat="42.6625133" lon="-7.2749183"><ele>1115.0</ele><time>2026-04-15T09:29:52.856Z</time></trkpt><trkpt lat="42.662505" lon="-7.274745"><ele>1115.0</ele><time>2026-04-15T09:29:53.855Z</time></trkpt><trkpt lat="42.66246" lon="-7.2745733"><ele>1115.0</ele><time>2026-04-15T09:29:54.856Z</time></trkpt><trkpt lat="42.662395" lon="-7.274385"><ele>1115.0</ele><time>2026-04-15T09:29:55.855Z</time></trkpt><trkpt lat="42.6623517" lon="-7.2741817"><ele>1115.0</ele><time>2026-04-15T09:29:56.856Z</time></trkpt><trkpt lat="42.6623233" lon="-7.2739417"><ele>1115.0</ele><time>2026-04-15T09:29:57.856Z</time></trkpt><trkpt lat="42.662295" lon="-7.2737017"><ele>1115.0</ele><time>2026-04-15T09:29:58.855Z</time></trkpt><trkpt lat="42.6622467" lon="-7.2734833"><ele>1115.0</ele><time>2026-04-15T09:29:59.856Z</time></trkpt><trkpt lat="42.66217" lon="-7.27328"><ele>1115.0</ele><time>2026-04-15T09:30:00.855Z</time></trkpt><trkpt lat="42.66208" lon="-7.2731017"><ele>1115.0</ele><time>2026-04-15T09:30:01.855Z</time></trkpt><trkpt lat="42.6619767" lon="-7.27296"><ele>1112.0</ele><time>2026-04-15T09:30:02.855Z</time></trkpt><trkpt lat="42.661845" lon="-7.27282"><ele>1109.0</ele><time>2026-04-15T09:30:03.856Z</time></trkpt><trkpt lat="42.6617" lon="-7.2726933"><ele>1106.0</ele><time>2026-04-15T09:30:04.855Z</time></trkpt><trkpt lat="42.6615333" lon="-7.272555"><ele>1106.0</ele><time>2026-04-15T09:30:05.856Z</time></trkpt><trkpt lat="42.6613483" lon="-7.2724183"><ele>1106.0</ele><time>2026-04-15T09:30:06.856Z</time></trkpt><trkpt lat="42.6611717" lon="-7.2723017"><ele>1106.0</ele><time>2026-04-15T09:30:07.856Z</time></trkpt><trkpt lat="42.6610217" lon="-7.2721967"><ele>1103.0</ele><time>2026-04-15T09:30:08.856Z</time></trkpt><trkpt lat="42.6608917" lon="-7.2720933"><ele>1100.0</ele><time>2026-04-15T09:30:09.856Z</time></trkpt><trkpt lat="42.6607667" lon="-7.27197"><ele>1097.0</ele><time>2026-04-15T09:30:10.856Z</time></trkpt><trkpt lat="42.6606383" lon="-7.2718333"><ele>1097.0</ele><time>2026-04-15T09:30:11.856Z</time></trkpt><trkpt lat="42.6605233" lon="-7.2716783"><ele>1097.0</ele><time>2026-04-15T09:30:12.856Z</time></trkpt><trkpt lat="42.6604117" lon="-7.271525"><ele>1097.0</ele><time>2026-04-15T09:30:13.856Z</time></trkpt><trkpt lat="42.66033" lon="-7.271395"><ele>1097.0</ele><time>2026-04-15T09:30:14.856Z</time></trkpt><trkpt lat="42.6602683" lon="-7.271275"><ele>1096.2</ele><time>2026-04-15T09:30:15.856Z</time></trkpt><trkpt lat="42.66024" lon="-7.27115"><ele>1095.4</ele><time>2026-04-15T09:30:16.856Z</time></trkpt><trkpt lat="42.6602367" lon="-7.2710067"><ele>1094.6</ele><time>2026-04-15T09:30:17.855Z</time></trkpt><trkpt lat="42.6602633" lon="-7.2708683"><ele>1093.8</ele><time>2026-04-15T09:30:18.855Z</time></trkpt><trkpt lat="42.6603183" lon="-7.2707283"><ele>1093.0</ele><time>2026-04-15T09:30:19.855Z</time></trkpt><trkpt lat="42.6604033" lon="-7.2705883"><ele>1088.3333333333333</ele><time>2026-04-15T09:30:20.856Z</time></trkpt><trkpt lat="42.66051" lon="-7.2704433"><ele>1083.6666666666667</ele><time>2026-04-15T09:30:21.856Z</time></trkpt><trkpt lat="42.6606217" lon="-7.270295"><ele>1079.0</ele><time>2026-04-15T09:30:22.855Z</time></trkpt><trkpt lat="42.6607517" lon="-7.2701483"><ele>1079.0</ele><time>2026-04-15T09:30:23.856Z</time></trkpt><trkpt lat="42.660905" lon="-7.2700083"><ele>1079.0</ele><time>2026-04-15T09:30:24.855Z</time></trkpt><trkpt lat="42.6610667" lon="-7.2698883"><ele>1079.0</ele><time>2026-04-15T09:30:25.856Z</time></trkpt><trkpt lat="42.6612417" lon="-7.2697867"><ele>1076.0</ele><time>2026-04-15T09:30:26.856Z</time></trkpt><trkpt lat="42.6614167" lon="-7.26969"><ele>1073.0</ele><time>2026-04-15T09:30:27.855Z</time></trkpt><trkpt lat="42.6615833" lon="-7.2696017"><ele>1070.0</ele><time>2026-04-15T09:30:28.856Z</time></trkpt><trkpt lat="42.6617333" lon="-7.2695283"><ele>1070.0</ele><time>2026-04-15T09:30:29.856Z</time></trkpt><trkpt lat="42.6618567" lon="-7.2694517"><ele>1070.0</ele><time>2026-04-15T09:30:30.855Z</time></trkpt><trkpt lat="42.6619517" lon="-7.269385"><ele>1070.0</ele><time>2026-04-15T09:30:31.855Z</time></trkpt><trkpt lat="42.6620217" lon="-7.269315"><ele>1070.0</ele><time>2026-04-15T09:30:32.856Z</time></trkpt><trkpt lat="42.66205" lon="-7.2692217"><ele>1070.0</ele><time>2026-04-15T09:30:33.855Z</time></trkpt><trkpt lat="42.662035" lon="-7.2691117"><ele>1071.0</ele><time>2026-04-15T09:30:34.855Z</time></trkpt><trkpt lat="42.6619833" lon="-7.2690083"><ele>1072.0</ele><time>2026-04-15T09:30:35.856Z</time></trkpt><trkpt lat="42.6618983" lon="-7.26892"><ele>1073.0</ele><time>2026-04-15T09:30:36.855Z</time></trkpt><trkpt lat="42.66177" lon="-7.2688517"><ele>1074.0</ele><time>2026-04-15T09:30:37.856Z</time></trkpt><trkpt lat="42.6616283" lon="-7.268795"><ele>1071.3333333333333</ele><time>2026-04-15T09:30:38.855Z</time></trkpt><trkpt lat="42.6614733" lon="-7.2687367"><ele>1068.6666666666665</ele><time>2026-04-15T09:30:39.855Z</time></trkpt><trkpt lat="42.6613167" lon="-7.2686833"><ele>1066.0</ele><time>2026-04-15T09:30:40.856Z</time></trkpt><trkpt lat="42.6611433" lon="-7.2686483"><ele>1065.0</ele><time>2026-04-15T09:30:41.855Z</time></trkpt><trkpt lat="42.6609467" lon="-7.2686183"><ele>1064.0</ele><time>2026-04-15T09:30:42.855Z</time></trkpt><trkpt lat="42.6607433" lon="-7.2685983"><ele>1063.0</ele><time>2026-04-15T09:30:43.855Z</time></trkpt><trkpt lat="42.6605433" lon="-7.2685717"><ele>1063.0</ele><time>2026-04-15T09:30:44.856Z</time></trkpt><trkpt lat="42.6603633" lon="-7.2685617"><ele>1063.0</ele><time>2026-04-15T09:30:45.855Z</time></trkpt><trkpt lat="42.66019" lon="-7.268535"><ele>1063.0</ele><time>2026-04-15T09:30:46.855Z</time></trkpt><trkpt lat="42.6600117" lon="-7.2685033"><ele>1063.3333333333333</ele><time>2026-04-15T09:30:47.855Z</time></trkpt><trkpt lat="42.659815" lon="-7.26843"><ele>1063.6666666666667</ele><time>2026-04-15T09:30:48.856Z</time></trkpt><trkpt lat="42.6596033" lon="-7.268335"><ele>1064.0</ele><time>2026-04-15T09:30:49.856Z</time></trkpt><trkpt lat="42.6593817" lon="-7.2682667"><ele>1060.3333333333335</ele><time>2026-04-15T09:30:50.856Z</time></trkpt><trkpt lat="42.6591667" lon="-7.2682133"><ele>1056.6666666666667</ele><time>2026-04-15T09:30:51.855Z</time></trkpt><trkpt lat="42.6589783" lon="-7.2681617"><ele>1053.0</ele><time>2026-04-15T09:30:52.856Z</time></trkpt><trkpt lat="42.6587983" lon="-7.2681133"><ele>1052.0</ele><time>2026-04-15T09:30:53.856Z</time></trkpt><trkpt lat="42.6586067" lon="-7.2680983"><ele>1051.0</ele><time>2026-04-15T09:30:54.856Z</time></trkpt><trkpt lat="42.6584017" lon="-7.2681017"><ele>1050.0</ele><time>2026-04-15T09:30:55.856Z</time></trkpt><trkpt lat="42.6581867" lon="-7.268105"><ele>1050.0</ele><time>2026-04-15T09:30:56.856Z</time></trkpt><trkpt lat="42.657975" lon="-7.2681033"><ele>1050.0</ele><time>2026-04-15T09:30:57.856Z</time></trkpt><trkpt lat="42.6577817" lon="-7.2681167"><ele>1050.0</ele><time>2026-04-15T09:30:58.855Z</time></trkpt><trkpt lat="42.6576017" lon="-7.2681433"><ele>1047.6666666666667</ele><time>2026-04-15T09:30:59.855Z</time></trkpt><trkpt lat="42.65743" lon="-7.2682033"><ele>1045.3333333333335</ele><time>2026-04-15T09:31:00.856Z</time></trkpt><trkpt lat="42.657275" lon="-7.268285"><ele>1043.0</ele><time>2026-04-15T09:31:01.856Z</time></trkpt><trkpt lat="42.6571117" lon="-7.2683783"><ele>1043.0</ele><time>2026-04-15T09:31:02.855Z</time></trkpt><trkpt lat="42.6569667" lon="-7.2684433"><ele>1043.0</ele><time>2026-04-15T09:31:03.856Z</time></trkpt><trkpt lat="42.65681" lon="-7.2684817"><ele>1043.0</ele><time>2026-04-15T09:31:04.856Z</time></trkpt><trkpt lat="42.65665" lon="-7.2685233"><ele>1042.6666666666667</ele><time>2026-04-15T09:31:05.855Z</time></trkpt><trkpt lat="42.6564783" lon="-7.2685917"><ele>1042.3333333333333</ele><time>2026-04-15T09:31:06.855Z</time></trkpt><trkpt lat="42.6563" lon="-7.26869"><ele>1042.0</ele><time>2026-04-15T09:31:07.855Z</time></trkpt><trkpt lat="42.6561233" lon="-7.2688067"><ele>1041.6666666666665</ele><time>2026-04-15T09:31:08.855Z</time></trkpt><trkpt lat="42.65596" lon="-7.26894"><ele>1041.3333333333333</ele><time>2026-04-15T09:31:09.855Z</time></trkpt><trkpt lat="42.6558" lon="-7.2690767"><ele>1041.0</ele><time>2026-04-15T09:31:10.855Z</time></trkpt><trkpt lat="42.6556333" lon="-7.2692067"><ele>1041.0</ele><time>2026-04-15T09:31:11.856Z</time></trkpt><trkpt lat="42.6554583" lon="-7.269325"><ele>1041.0</ele><time>2026-04-15T09:31:12.855Z</time></trkpt><trkpt lat="42.6552717" lon="-7.26945"><ele>1041.0</ele><time>2026-04-15T09:31:13.856Z</time></trkpt><trkpt lat="42.655075" lon="-7.2695833"><ele>1063.0</ele><time>2026-04-15T09:31:14.855Z</time></trkpt><trkpt lat="42.6607433" lon="-7.2685983"><ele>1063.0</ele><time>2026-04-15T09:30:43.855Z</time></trkpt><trkpt lat="42.6605433" lon="-7.2685717"><ele>1063.0</ele><time>2026-04-15T09:30:44.856Z</time></trkpt><trkpt lat="42.6603633" lon="-7.2685617"><ele>1063.0</ele><time>2026-04-15T09:30:45.855Z</time></trkpt><trkpt lat="42.66019" lon="-7.268535"><ele>1063.3333333333333</ele><time>2026-04-15T09:30:46.855Z</time></trkpt><trkpt lat="42.6600117" lon="-7.2685033"><ele>1063.6666666666667</ele><time>2026-04-15T09:30:47.855Z</time></trkpt><trkpt lat="42.659815" lon="-7.26843"><ele>1064.0</ele><time>2026-04-15T09:30:48.856Z</time></trkpt><trkpt lat="42.6596033" lon="-7.268335"><ele>1060.3333333333335</ele><time>2026-04-15T09:30:49.856Z</time></trkpt><trkpt lat="42.6593817" lon="-7.2682667"><ele>1056.6666666666667</ele><time>2026-04-15T09:30:50.856Z</time></trkpt><trkpt lat="42.6591667" lon="-7.2682133"><ele>1053.0</ele><time>2026-04-15T09:30:51.855Z</time></trkpt><trkpt lat="42.6589783" lon="-7.2681617"><ele>1053.0</ele><time>2026-04-15T09:30:52.856Z</time></trkpt><trkpt lat="42.6587983" lon="-7.2681133"><ele>1053.0</ele><time>2026-04-15T09:30:53.856Z</time></trkpt><trkpt lat="42.6586067" lon="-7.2680983"><ele>1053.0</ele><time>2026-04-15T09:30:54.856Z</time></trkpt><trkpt lat="42.6584017" lon="-7.2681017"><ele>1052.0</ele><time>2026-04-15T09:30:55.856Z</time></trkpt><trkpt lat="42.6581867" lon="-7.268105"><ele>1051.0</ele><time>2026-04-15T09:30:56.856Z</time></trkpt><trkpt lat="42.657975" lon="-7.2681033"><ele>1050.0</ele><time>2026-04-15T09:30:57.856Z</time></trkpt><trkpt lat="42.6577817" lon="-7.2681167"><ele>1047.6666666666667</ele><time>2026-04-15T09:30:58.855Z</time></trkpt><trkpt lat="42.6576017" lon="-7.2681433"><ele>1045.3333333333335</ele><time>2026-04-15T09:30:59.855Z</time></trkpt><trkpt lat="42.65743" lon="-7.2682033"><ele>1043.0</ele><time>2026-04-15T09:31:00.856Z</time></trkpt><trkpt lat="42.657275" lon="-7.268285"><ele>1043.0</ele><time>2026-04-15T09:31:01.856Z</time></trkpt><trkpt lat="42.6571117" lon="-7.2683783"><ele>1043.0</ele><time>2026-04-15T09:31:02.855Z</time></trkpt><trkpt lat="42.6569667" lon="-7.2684433"><ele>1043.0</ele><time>2026-04-15T09:31:03.856Z</time></trkpt><trkpt lat="42.65681" lon="-7.2684817"><ele>1042.6666666666667</ele><time>2026-04-15T09:31:04.856Z</time></trkpt><trkpt lat="42.65665" lon="-7.2685233"><ele>1042.3333333333333</ele><time>2026-04-15T09:31:05.855Z</time></trkpt><trkpt lat="42.6564783" lon="-7.2685917"><ele>1042.0</ele><time>2026-04-15T09:31:06.855Z</time></trkpt><trkpt lat="42.6563" lon="-7.26869"><ele>1042.0</ele><time>2026-04-15T09:31:07.855Z</time></trkpt><trkpt lat="42.6561233" lon="-7.2688067"><ele>1042.0</ele><time>2026-04-15T09:31:08.855Z</time></trkpt><trkpt lat="42.65596" lon="-7.26894"><ele>1042.0</ele><time>2026-04-15T09:31:09.855Z</time></trkpt><trkpt lat="42.6558" lon="-7.2690767"><ele>1041.6666666666665</ele><time>2026-04-15T09:31:10.855Z</time></trkpt><trkpt lat="42.6556333" lon="-7.2692067"><ele>1041.3333333333333</ele><time>2026-04-15T09:31:11.856Z</time></trkpt><trkpt lat="42.6554583" lon="-7.269325"><ele>1041.0</ele><time>2026-04-15T09:31:12.855Z</time></trkpt><trkpt lat="42.6552717" lon="-7.26945"><ele>1033.5</ele><time>2026-04-15T09:31:13.856Z</time></trkpt><trkpt lat="42.655075" lon="-7.2695833"><ele>1026.0</ele><time>2026-04-15T09:31:14.855Z</time></trkpt><trkpt lat="42.6548667" lon="-7.2697383"><ele>1026.5</ele><time>2026-04-15T09:31:15.856Z</time></trkpt><trkpt lat="42.6546583" lon="-7.269915"><ele>1027.0</ele><time>2026-04-15T09:31:16.855Z</time></trkpt><trkpt lat="42.6544567" lon="-7.2700767"><ele>1025.0</ele><time>2026-04-15T09:31:17.855Z</time></trkpt><trkpt lat="42.65425" lon="-7.2702483"><ele>1023.0</ele><time>2026-04-15T09:31:18.856Z</time></trkpt><trkpt lat="42.6540283" lon="-7.2704417"><ele>1021.5</ele><time>2026-04-15T09:31:19.856Z</time></trkpt><trkpt lat="42.65381" lon="-7.2706383"><ele>1020.0</ele><time>2026-04-15T09:31:20.855Z</time></trkpt><trkpt lat="42.6536167" lon="-7.2708233"><ele>1020.0</ele><time>2026-04-15T09:31:21.855Z</time></trkpt><trkpt lat="42.6534567" lon="-7.2710117"><ele>1020.0</ele><time>2026-04-15T09:31:22.855Z</time></trkpt><trkpt lat="42.6533167" lon="-7.27117"><ele>1020.0</ele><time>2026-04-15T09:31:23.855Z</time></trkpt><trkpt lat="42.6531817" lon="-7.2713133"><ele>1020.0</ele><time>2026-04-15T09:31:24.855Z</time></trkpt><trkpt lat="42.6530467" lon="-7.2714283"><ele>1020.0</ele><time>2026-04-15T09:31:25.855Z</time></trkpt><trkpt lat="42.65291" lon="-7.2715233"><ele>1020.0</ele><time>2026-04-15T09:31:26.855Z</time></trkpt><trkpt lat="42.6527617" lon="-7.2715867"><ele>1020.0</ele><time>2026-04-15T09:31:27.855Z</time></trkpt><trkpt lat="42.6526167" lon="-7.2716383"><ele>1020.0</ele><time>2026-04-15T09:31:28.855Z</time></trkpt><trkpt lat="42.6524967" lon="-7.2716933"><ele>1020.0</ele><time>2026-04-15T09:31:29.855Z</time></trkpt><trkpt lat="42.6523767" lon="-7.2717667"><ele>1020.0</ele><time>2026-04-15T09:31:30.856Z</time></trkpt><trkpt lat="42.65224" lon="-7.271865"><ele>1020.0</ele><time>2026-04-15T09:31:31.856Z</time></trkpt><trkpt lat="42.6520933" lon="-7.271985"><ele>1020.0</ele><time>2026-04-15T09:31:32.855Z</time></trkpt><trkpt lat="42.6519483" lon="-7.2721067"><ele>1020.0</ele><time>2026-04-15T09:31:33.855Z</time></trkpt><trkpt lat="42.6517933" lon="-7.2722267"><ele>1018.3333333333333</ele><time>2026-04-15T09:31:34.855Z</time></trkpt><trkpt lat="42.6516317" lon="-7.2723433"><ele>1016.6666666666666</ele><time>2026-04-15T09:31:35.855Z</time></trkpt><trkpt lat="42.6514633" lon="-7.2724667"><ele>1015.0</ele><time>2026-04-15T09:31:36.856Z</time></trkpt><trkpt lat="42.6512833" lon="-7.272595"><ele>1013.0</ele><time>2026-04-15T09:31:37.855Z</time></trkpt><trkpt lat="42.6511117" lon="-7.2727433"><ele>1011.0</ele><time>2026-04-15T09:31:38.855Z</time></trkpt><trkpt lat="42.6509433" lon="-7.2728917"><ele>1009.0</ele><time>2026-04-15T09:31:39.855Z</time></trkpt><trkpt lat="42.650785" lon="-7.2730467"><ele>1009.0</ele><time>2026-04-15T09:31:40.856Z</time></trkpt><trkpt lat="42.6506367" lon="-7.2731933"><ele>1009.0</ele><time>2026-04-15T09:31:41.855Z</time></trkpt><trkpt lat="42.6504933" lon="-7.273325"><ele>1009.0</ele><time>2026-04-15T09:31:42.855Z</time></trkpt><trkpt lat="42.6503233" lon="-7.2734117"><ele>1009.0</ele><time>2026-04-15T09:31:43.855Z</time></trkpt><trkpt lat="42.6501433" lon="-7.27348"><ele>1009.0</ele><time>2026-04-15T09:31:44.856Z</time></trkpt><trkpt lat="42.6499717" lon="-7.2735433"><ele>1009.0</ele><time>2026-04-15T09:31:45.855Z</time></trkpt><trkpt lat="42.6498117" lon="-7.2736083"><ele>1009.0</ele><time>2026-04-15T09:31:46.856Z</time></trkpt><trkpt lat="42.6496483" lon="-7.2736833"><ele>1009.0</ele><time>2026-04-15T09:31:47.856Z</time></trkpt><trkpt lat="42.649475" lon="-7.2737967"><ele>1009.0</ele><time>2026-04-15T09:31:48.855Z</time></trkpt><trkpt lat="42.649295" lon="-7.27392"><ele>1007.0</ele><time>2026-04-15T09:31:49.856Z</time></trkpt><trkpt lat="42.6491283" lon="-7.2740467"><ele>1005.0</ele><time>2026-04-15T09:31:50.855Z</time></trkpt><trkpt lat="42.6489733" lon="-7.2741633"><ele>1003.0</ele><time>2026-04-15T09:31:51.855Z</time></trkpt><trkpt lat="42.6488383" lon="-7.2742533"><ele>1003.0</ele><time>2026-04-15T09:31:52.855Z</time></trkpt><trkpt lat="42.64872" lon="-7.27431"><ele>1003.0</ele><time>2026-04-15T09:31:53.855Z</time></trkpt><trkpt lat="42.6486133" lon="-7.27434"><ele>1003.0</ele><time>2026-04-15T09:31:54.855Z</time></trkpt><trkpt lat="42.6484983" lon="-7.2743367"><ele>1003.0</ele><time>2026-04-15T09:31:55.855Z</time></trkpt><trkpt lat="42.6483633" lon="-7.2742867"><ele>1001.6666666666666</ele><time>2026-04-15T09:31:56.855Z</time></trkpt><trkpt lat="42.6482117" lon="-7.274215"><ele>1000.3333333333333</ele><time>2026-04-15T09:31:57.855Z</time></trkpt><trkpt lat="42.6480417" lon="-7.2741783"><ele>999.0</ele><time>2026-04-15T09:31:58.856Z</time></trkpt><trkpt lat="42.6478467" lon="-7.2741633"><ele>999.0</ele><time>2026-04-15T09:31:59.855Z</time></trkpt><trkpt lat="42.6476367" lon="-7.274155"><ele>999.0</ele><time>2026-04-15T09:32:00.855Z</time></trkpt><trkpt lat="42.6474217" lon="-7.274145"><ele>999.0</ele><time>2026-04-15T09:32:01.856Z</time></trkpt><trkpt lat="42.6472133" lon="-7.2741483"><ele>999.0</ele><time>2026-04-15T09:32:02.855Z</time></trkpt><trkpt lat="42.6469983" lon="-7.274155"><ele>999.0</ele><time>2026-04-15T09:32:03.856Z</time></trkpt><trkpt lat="42.646795" lon="-7.2741633"><ele>999.0</ele><time>2026-04-15T09:32:04.855Z</time></trkpt><trkpt lat="42.6465983" lon="-7.2741667"><ele>999.6666666666667</ele><time>2026-04-15T09:32:05.855Z</time></trkpt><trkpt lat="42.646395" lon="-7.2741933"><ele>1000.3333333333334</ele><time>2026-04-15T09:32:06.856Z</time></trkpt><trkpt lat="42.6461833" lon="-7.2742317"><ele>1001.0</ele><time>2026-04-15T09:32:07.856Z</time></trkpt><trkpt lat="42.64597" lon="-7.2742783"><ele>1001.0</ele><time>2026-04-15T09:32:08.856Z</time></trkpt><trkpt lat="42.645795" lon="-7.274325"><ele>1001.0</ele><time>2026-04-15T09:32:09.856Z</time></trkpt><trkpt lat="42.6456717" lon="-7.2743533"><ele>1001.0</ele><time>2026-04-15T09:32:10.855Z</time></trkpt><trkpt lat="42.645575" lon="-7.2743817"><ele>1001.0</ele><time>2026-04-15T09:32:11.856Z</time></trkpt><trkpt lat="42.6455" lon="-7.27441"><ele>1001.0000000000001</ele><time>2026-04-15T09:32:12.856Z</time></trkpt><trkpt lat="42.64543" lon="-7.2744167"><ele>1001.0</ele><time>2026-04-15T09:32:13.855Z</time></trkpt><trkpt lat="42.645355" lon="-7.2744167"><ele>1001.0</ele><time>2026-04-15T09:32:14.856Z</time></trkpt><trkpt lat="42.6452683" lon="-7.2744183"><ele>1001.0</ele><time>2026-04-15T09:32:15.856Z</time></trkpt><trkpt lat="42.6451767" lon="-7.27442"><ele>1001.0000000000001</ele><time>2026-04-15T09:32:16.855Z</time></trkpt><trkpt lat="42.6450767" lon="-7.2744117"><ele>1001.0</ele><time>2026-04-15T09:32:17.856Z</time></trkpt><trkpt lat="42.6449767" lon="-7.2743983"><ele>1000.8</ele><time>2026-04-15T09:32:18.856Z</time></trkpt><trkpt lat="42.6448833" lon="-7.2743733"><ele>1000.5999999999999</ele><time>2026-04-15T09:32:19.857Z</time></trkpt><trkpt lat="42.644785" lon="-7.2743433"><ele>1000.4</ele><time>2026-04-15T09:32:20.856Z</time></trkpt><trkpt lat="42.6446883" lon="-7.274305"><ele>1000.2</ele><time>2026-04-15T09:32:21.856Z</time></trkpt><trkpt lat="42.6445983" lon="-7.2742733"><ele>1000.0</ele><time>2026-04-15T09:32:22.856Z</time></trkpt><trkpt lat="42.6445033" lon="-7.2742333"><ele>999.6</ele><time>2026-04-15T09:32:23.857Z</time></trkpt><trkpt lat="42.6444133" lon="-7.274195"><ele>999.2</ele><time>2026-04-15T09:32:24.856Z</time></trkpt><trkpt lat="42.6443183" lon="-7.27415"><ele>998.8</ele><time>2026-04-15T09:32:25.857Z</time></trkpt><trkpt lat="42.6442383" lon="-7.2741033"><ele>998.4</ele><time>2026-04-15T09:32:26.857Z</time></trkpt><trkpt lat="42.6441567" lon="-7.274065"><ele>998.0</ele><time>2026-04-15T09:32:27.856Z</time></trkpt><trkpt lat="42.6440783" lon="-7.2740233"><ele>998.0000000000001</ele><time>2026-04-15T09:32:28.856Z</time></trkpt><trkpt lat="42.644005" lon="-7.273985"><ele>998.0</ele><time>2026-04-15T09:32:29.857Z</time></trkpt><trkpt lat="42.6439383" lon="-7.2739517"><ele>998.0000000000001</ele><time>2026-04-15T09:32:30.857Z</time></trkpt><trkpt lat="42.6438733" lon="-7.2739183"><ele>998.0000000000001</ele><time>2026-04-15T09:32:31.856Z</time></trkpt><trkpt lat="42.64381" lon="-7.2738917"><ele>998.0</ele><time>2026-04-15T09:32:32.857Z</time></trkpt><trkpt lat="42.6437417" lon="-7.2738583"><ele>998.0000000000001</ele><time>2026-04-15T09:32:33.857Z</time></trkpt><trkpt lat="42.643675" lon="-7.2738333"><ele>998.0000000000001</ele><time>2026-04-15T09:32:34.856Z</time></trkpt><trkpt lat="42.6435967" lon="-7.2738117"><ele>998.8333333333334</ele><time>2026-04-15T09:32:35.856Z</time></trkpt><trkpt lat="42.6435133" lon="-7.2737967"><ele>999.6666666666667</ele><time>2026-04-15T09:32:36.857Z</time></trkpt><trkpt lat="42.6434317" lon="-7.27379"><ele>1000.5</ele><time>2026-04-15T09:32:37.856Z</time></trkpt><trkpt lat="42.643345" lon="-7.2737783"><ele>1001.3333333333333</ele><time>2026-04-15T09:32:38.857Z</time></trkpt><trkpt lat="42.6432617" lon="-7.27377"><ele>1002.1666666666666</ele><time>2026-04-15T09:32:39.856Z</time></trkpt><trkpt lat="42.643185" lon="-7.2737633"><ele>1003.0</ele><time>2026-04-15T09:32:40.856Z</time></trkpt><trkpt lat="42.64311" lon="-7.2737667"><ele>1003.0</ele><time>2026-04-15T09:32:41.856Z</time></trkpt><trkpt lat="42.6430283" lon="-7.273775"><ele>1003.0</ele><time>2026-04-15T09:32:42.857Z</time></trkpt><trkpt lat="42.64294" lon="-7.2737817"><ele>1003.0</ele><time>2026-04-15T09:32:43.856Z</time></trkpt><trkpt lat="42.6428483" lon="-7.2737917"><ele>1003.0</ele><time>2026-04-15T09:32:44.856Z</time></trkpt><trkpt lat="42.645575" lon="-7.2743817"><ele>1002.6666666666666</ele><time>2026-04-15T09:32:11.856Z</time></trkpt><trkpt lat="42.6455" lon="-7.27441"><ele>1002.3333333333333</ele><time>2026-04-15T09:32:12.856Z</time></trkpt><trkpt lat="42.64543" lon="-7.2744167"><ele>1002.0</ele><time>2026-04-15T09:32:13.855Z</time></trkpt><trkpt lat="42.645355" lon="-7.2744167"><ele>1001.6666666666667</ele><time>2026-04-15T09:32:14.856Z</time></trkpt><trkpt lat="42.6452683" lon="-7.2744183"><ele>1001.3333333333334</ele><time>2026-04-15T09:32:15.856Z</time></trkpt><trkpt lat="42.6451767" lon="-7.27442"><ele>1001.0</ele><time>2026-04-15T09:32:16.855Z</time></trkpt><trkpt lat="42.6450767" lon="-7.2744117"><ele>1000.8</ele><time>2026-04-15T09:32:17.856Z</time></trkpt><trkpt lat="42.6449767" lon="-7.2743983"><ele>1000.5999999999999</ele><time>2026-04-15T09:32:18.856Z</time></trkpt><trkpt lat="42.6448833" lon="-7.2743733"><ele>1000.4</ele><time>2026-04-15T09:32:19.857Z</time></trkpt><trkpt lat="42.644785" lon="-7.2743433"><ele>1000.2</ele><time>2026-04-15T09:32:20.856Z</time></trkpt><trkpt lat="42.6446883" lon="-7.274305"><ele>1000.0</ele><time>2026-04-15T09:32:21.856Z</time></trkpt><trkpt lat="42.6445983" lon="-7.2742733"><ele>1000.0</ele><time>2026-04-15T09:32:22.856Z</time></trkpt><trkpt lat="42.6445033" lon="-7.2742333"><ele>1000.0</ele><time>2026-04-15T09:32:23.857Z</time></trkpt><trkpt lat="42.6444133" lon="-7.274195"><ele>1000.0</ele><time>2026-04-15T09:32:24.856Z</time></trkpt><trkpt lat="42.6443183" lon="-7.27415"><ele>1000.0</ele><time>2026-04-15T09:32:25.857Z</time></trkpt><trkpt lat="42.6442383" lon="-7.2741033"><ele>1000.0</ele><time>2026-04-15T09:32:26.857Z</time></trkpt><trkpt lat="42.6441567" lon="-7.274065"><ele>999.7142857142857</ele><time>2026-04-15T09:32:27.856Z</time></trkpt><trkpt lat="42.6440783" lon="-7.2740233"><ele>999.4285714285716</ele><time>2026-04-15T09:32:28.856Z</time></trkpt><trkpt lat="42.644005" lon="-7.273985"><ele>999.1428571428572</ele><time>2026-04-15T09:32:29.857Z</time></trkpt><trkpt lat="42.6439383" lon="-7.2739517"><ele>998.8571428571429</ele><time>2026-04-15T09:32:30.857Z</time></trkpt><trkpt lat="42.6438733" lon="-7.2739183"><ele>998.5714285714287</ele><time>2026-04-15T09:32:31.856Z</time></trkpt><trkpt lat="42.64381" lon="-7.2738917"><ele>998.2857142857144</ele><time>2026-04-15T09:32:32.857Z</time></trkpt><trkpt lat="42.6437417" lon="-7.2738583"><ele>998.0000000000001</ele><time>2026-04-15T09:32:33.857Z</time></trkpt><trkpt lat="42.643675" lon="-7.2738333"><ele>998.8333333333334</ele><time>2026-04-15T09:32:34.856Z</time></trkpt><trkpt lat="42.6435967" lon="-7.2738117"><ele>999.6666666666667</ele><time>2026-04-15T09:32:35.856Z</time></trkpt><trkpt lat="42.6435133" lon="-7.2737967"><ele>1000.5</ele><time>2026-04-15T09:32:36.857Z</time></trkpt><trkpt lat="42.6434317" lon="-7.27379"><ele>1001.3333333333333</ele><time>2026-04-15T09:32:37.856Z</time></trkpt><trkpt lat="42.643345" lon="-7.2737783"><ele>1002.1666666666666</ele><time>2026-04-15T09:32:38.857Z</time></trkpt><trkpt lat="42.6432617" lon="-7.27377"><ele>1003.0</ele><time>2026-04-15T09:32:39.856Z</time></trkpt><trkpt lat="42.643185" lon="-7.2737633"><ele>1002.9999999999999</ele><time>2026-04-15T09:32:40.856Z</time></trkpt><trkpt lat="42.64311" lon="-7.2737667"><ele>1003.0</ele><time>2026-04-15T09:32:41.856Z</time></trkpt><trkpt lat="42.6430283" lon="-7.273775"><ele>1003.0</ele><time>2026-04-15T09:32:42.857Z</time></trkpt><trkpt lat="42.64294" lon="-7.2737817"><ele>1003.0</ele><time>2026-04-15T09:32:43.856Z</time></trkpt><trkpt lat="42.6428483" lon="-7.2737917"><ele>1002.9999999999999</ele><time>2026-04-15T09:32:44.856Z</time></trkpt><trkpt lat="42.64275" lon="-7.2738033"><ele>1003.0</ele><time>2026-04-15T09:32:45.856Z</time></trkpt><trkpt lat="42.6426567" lon="-7.2738083"><ele>1003.2</ele><time>2026-04-15T09:32:46.856Z</time></trkpt><trkpt lat="42.642555" lon="-7.2738117"><ele>1003.4</ele><time>2026-04-15T09:32:47.856Z</time></trkpt><trkpt lat="42.6424617" lon="-7.2738167"><ele>1003.6000000000001</ele><time>2026-04-15T09:32:48.857Z</time></trkpt><trkpt lat="42.6423733" lon="-7.2738217"><ele>1003.8000000000001</ele><time>2026-04-15T09:32:49.856Z</time></trkpt><trkpt lat="42.6422817" lon="-7.27384"><ele>1004.0</ele><time>2026-04-15T09:32:50.857Z</time></trkpt><trkpt lat="42.6421967" lon="-7.273875"><ele>1004.0000000000001</ele><time>2026-04-15T09:32:51.857Z</time></trkpt><trkpt lat="42.6421133" lon="-7.2739133"><ele>1004.0</ele><time>2026-04-15T09:32:52.857Z</time></trkpt><trkpt lat="42.6420333" lon="-7.2739483"><ele>1004.0</ele><time>2026-04-15T09:32:53.857Z</time></trkpt><trkpt lat="42.641945" lon="-7.2739783"><ele>1004.0</ele><time>2026-04-15T09:32:54.857Z</time></trkpt><trkpt lat="42.6418567" lon="-7.2740067"><ele>1004.0000000000001</ele><time>2026-04-15T09:32:55.856Z</time></trkpt><trkpt lat="42.64177" lon="-7.2740383"><ele>1004.0</ele><time>2026-04-15T09:32:56.857Z</time></trkpt><trkpt lat="42.64168" lon="-7.2740683"><ele>1001.2</ele><time>2026-04-15T09:32:57.856Z</time></trkpt><trkpt lat="42.6415867" lon="-7.2740983"><ele>998.4000000000001</ele><time>2026-04-15T09:32:58.856Z</time></trkpt><trkpt lat="42.6414917" lon="-7.2741333"><ele>995.6</ele><time>2026-04-15T09:32:59.857Z</time></trkpt><trkpt lat="42.6413933" lon="-7.27416"><ele>992.8</ele><time>2026-04-15T09:33:00.856Z</time></trkpt><trkpt lat="42.641295" lon="-7.2741967"><ele>990.0</ele><time>2026-04-15T09:33:01.857Z</time></trkpt><trkpt lat="42.6411983" lon="-7.2742483"><ele>992.4</ele><time>2026-04-15T09:33:02.856Z</time></trkpt><trkpt lat="42.6411117" lon="-7.274295"><ele>994.8</ele><time>2026-04-15T09:33:03.856Z</time></trkpt><trkpt lat="42.64103" lon="-7.27434"><ele>997.2</ele><time>2026-04-15T09:33:04.856Z</time></trkpt><trkpt lat="42.6409517" lon="-7.27439"><ele>999.6</ele><time>2026-04-15T09:33:05.857Z</time></trkpt><trkpt lat="42.640865" lon="-7.2744517"><ele>1002.0</ele><time>2026-04-15T09:33:06.856Z</time></trkpt><trkpt lat="42.6407883" lon="-7.2745333"><ele>1002.0</ele><time>2026-04-15T09:33:07.856Z</time></trkpt><trkpt lat="42.6407283" lon="-7.2746333"><ele>1002.0</ele><time>2026-04-15T09:33:08.856Z</time></trkpt><trkpt lat="42.64067" lon="-7.2747517"><ele>1002.0</ele><time>2026-04-15T09:33:09.857Z</time></trkpt><trkpt lat="42.6406133" lon="-7.2748717"><ele>1002.0</ele><time>2026-04-15T09:33:10.857Z</time></trkpt><trkpt lat="42.64056" lon="-7.274985"><ele>1002.0</ele><time>2026-04-15T09:33:11.856Z</time></trkpt><trkpt lat="42.6405033" lon="-7.27509"><ele>1001.3333333333334</ele><time>2026-04-15T09:33:12.856Z</time></trkpt><trkpt lat="42.64044" lon="-7.2751717"><ele>1000.6666666666667</ele><time>2026-04-15T09:33:13.856Z</time></trkpt><trkpt lat="42.6403633" lon="-7.275225"><ele>1000.0</ele><time>2026-04-15T09:33:14.856Z</time></trkpt><trkpt lat="42.6402783" lon="-7.275275"><ele>999.3333333333334</ele><time>2026-04-15T09:33:15.857Z</time></trkpt><trkpt lat="42.6401917" lon="-7.2753033"><ele>998.6666666666667</ele><time>2026-04-15T09:33:16.856Z</time></trkpt><trkpt lat="42.6401033" lon="-7.27532"><ele>998.0</ele><time>2026-04-15T09:33:17.856Z</time></trkpt><trkpt lat="42.6400083" lon="-7.2753183"><ele>998.0</ele><time>2026-04-15T09:33:18.857Z</time></trkpt><trkpt lat="42.6399167" lon="-7.2753317"><ele>998.0</ele><time>2026-04-15T09:33:19.856Z</time></trkpt><trkpt lat="42.63982" lon="-7.275345"><ele>998.0</ele><time>2026-04-15T09:33:20.857Z</time></trkpt><trkpt lat="42.6397217" lon="-7.2753767"><ele>998.0</ele><time>2026-04-15T09:33:21.857Z</time></trkpt><trkpt lat="42.6396267" lon="-7.2754317"><ele>998.0</ele><time>2026-04-15T09:33:22.857Z</time></trkpt><trkpt lat="42.6395333" lon="-7.2754917"><ele>999.5999999999999</ele><time>2026-04-15T09:33:23.857Z</time></trkpt><trkpt lat="42.6394367" lon="-7.2755483"><ele>1001.1999999999999</ele><time>2026-04-15T09:33:24.856Z</time></trkpt><trkpt lat="42.6393383" lon="-7.275605"><ele>1002.8</ele><time>2026-04-15T09:33:25.857Z</time></trkpt><trkpt lat="42.63924" lon="-7.275655"><ele>1004.4</ele><time>2026-04-15T09:33:26.856Z</time></trkpt><trkpt lat="42.6391467" lon="-7.2757"><ele>1006.0</ele><time>2026-04-15T09:33:27.856Z</time></trkpt><trkpt lat="42.6390617" lon="-7.275745"><ele>1002.8</ele><time>2026-04-15T09:33:28.856Z</time></trkpt><trkpt lat="42.63898" lon="-7.2757917"><ele>999.5999999999999</ele><time>2026-04-15T09:33:29.857Z</time></trkpt><trkpt lat="42.638895" lon="-7.2758417"><ele>996.4</ele><time>2026-04-15T09:33:30.856Z</time></trkpt><trkpt lat="42.63881" lon="-7.2758967"><ele>993.2</ele><time>2026-04-15T09:33:31.857Z</time></trkpt><trkpt lat="42.6387317" lon="-7.275965"><ele>990.0</ele><time>2026-04-15T09:33:32.856Z</time></trkpt><trkpt lat="42.6386517" lon="-7.2760367"><ele>992.4</ele><time>2026-04-15T09:33:33.856Z</time></trkpt><trkpt lat="42.6385667" lon="-7.276105"><ele>994.8</ele><time>2026-04-15T09:33:34.856Z</time></trkpt><trkpt lat="42.6384783" lon="-7.2761567"><ele>997.2</ele><time>2026-04-15T09:33:35.857Z</time></trkpt><trkpt lat="42.6383917" lon="-7.2762033"><ele>999.6</ele><time>2026-04-15T09:33:36.856Z</time></trkpt><trkpt lat="42.6383067" lon="-7.276235"><ele>1002.0</ele><time>2026-04-15T09:33:37.857Z</time></trkpt><trkpt lat="42.6382217" lon="-7.276265"><ele>1002.0</ele><time>2026-04-15T09:33:38.857Z</time></trkpt><trkpt lat="42.63813" lon="-7.2762883"><ele>1002.0</ele><time>2026-04-15T09:33:39.857Z</time></trkpt><trkpt lat="42.63803" lon="-7.2763033"><ele>1002.0</ele><time>2026-04-15T09:33:40.857Z</time></trkpt><trkpt lat="42.63793" lon="-7.27632"><ele>1002.0</ele><time>2026-04-15T09:33:41.856Z</time></trkpt><trkpt lat="42.6378283" lon="-7.2763283"><ele>1002.0</ele><time>2026-04-15T09:33:42.856Z</time></trkpt><trkpt lat="42.6377283" lon="-7.27634"><ele>1002.4000000000001</ele><time>2026-04-15T09:33:43.857Z</time></trkpt><trkpt lat="42.63763" lon="-7.2763483"><ele>1002.8000000000001</ele><time>2026-04-15T09:33:44.857Z</time></trkpt><trkpt lat="42.6375433" lon="-7.276365"><ele>1003.2</ele><time>2026-04-15T09:33:45.856Z</time></trkpt><trkpt lat="42.63745" lon="-7.2763717"><ele>1003.6</ele><time>2026-04-15T09:33:46.856Z</time></trkpt><trkpt lat="42.6373567" lon="-7.2763867"><ele>1004.0</ele><time>2026-04-15T09:33:47.857Z</time></trkpt><trkpt lat="42.6372583" lon="-7.2763917"><ele>1004.0</ele><time>2026-04-15T09:33:48.856Z</time></trkpt><trkpt lat="42.6371667" lon="-7.2764017"><ele>1004.0000000000001</ele><time>2026-04-15T09:33:49.856Z</time></trkpt><trkpt lat="42.63707" lon="-7.27641"><ele>1004.0000000000001</ele><time>2026-04-15T09:33:50.856Z</time></trkpt><trkpt lat="42.6369733" lon="-7.2764183"><ele>1004.0</ele><time>2026-04-15T09:33:51.857Z</time></trkpt><trkpt lat="42.6368767" lon="-7.27642"><ele>1004.0</ele><time>2026-04-15T09:33:52.856Z</time></trkpt><trkpt lat="42.6367833" lon="-7.2764133"><ele>1004.0</ele><time>2026-04-15T09:33:53.856Z</time></trkpt><trkpt lat="42.63669" lon="-7.2764017"><ele>1004.0000000000001</ele><time>2026-04-15T09:33:54.857Z</time></trkpt><trkpt lat="42.6365983" lon="-7.276385"><ele>1004.0000000000001</ele><time>2026-04-15T09:33:55.857Z</time></trkpt><trkpt lat="42.6365167" lon="-7.2763583"><ele>1004.0</ele><time>2026-04-15T09:33:56.857Z</time></trkpt><trkpt lat="42.6364367" lon="-7.2763083"><ele>1004.0</ele><time>2026-04-15T09:33:57.857Z</time></trkpt><trkpt lat="42.6363567" lon="-7.2762433"><ele>1004.0</ele><time>2026-04-15T09:33:58.856Z</time></trkpt><trkpt lat="42.63628" lon="-7.2761717"><ele>1004.0000000000001</ele><time>2026-04-15T09:33:59.857Z</time></trkpt><trkpt lat="42.6361983" lon="-7.2761033"><ele>1004.0000000000001</ele><time>2026-04-15T09:34:00.856Z</time></trkpt><trkpt lat="42.6361183" lon="-7.2760367"><ele>1004.0</ele><time>2026-04-15T09:34:01.856Z</time></trkpt><trkpt lat="42.6360383" lon="-7.2759683"><ele>1004.0</ele><time>2026-04-15T09:34:02.856Z</time></trkpt><trkpt lat="42.635955" lon="-7.275895"><ele>1004.4000000000001</ele><time>2026-04-15T09:34:03.856Z</time></trkpt><trkpt lat="42.6358717" lon="-7.2758133"><ele>1004.8000000000001</ele><time>2026-04-15T09:34:04.856Z</time></trkpt><trkpt lat="42.6357967" lon="-7.27574"><ele>1005.1999999999999</ele><time>2026-04-15T09:34:05.856Z</time></trkpt><trkpt lat="42.6357267" lon="-7.2756583"><ele>1005.5999999999999</ele><time>2026-04-15T09:34:06.856Z</time></trkpt><trkpt lat="42.6356583" lon="-7.2755667"><ele>1006.0</ele><time>2026-04-15T09:34:07.857Z</time></trkpt><trkpt lat="42.6355967" lon="-7.275475"><ele>1006.0</ele><time>2026-04-15T09:34:08.857Z</time></trkpt><trkpt lat="42.6355283" lon="-7.2753917"><ele>1005.9999999999999</ele><time>2026-04-15T09:34:09.856Z</time></trkpt><trkpt lat="42.6354583" lon="-7.27532"><ele>1005.9999999999999</ele><time>2026-04-15T09:34:10.857Z</time></trkpt><trkpt lat="42.6353883" lon="-7.275255"><ele>1006.0</ele><time>2026-04-15T09:34:11.856Z</time></trkpt><trkpt lat="42.6353167" lon="-7.275205"><ele>1006.0</ele><time>2026-04-15T09:34:12.857Z</time></trkpt><trkpt lat="42.63793" lon="-7.27632"><ele>1005.5999999999999</ele><time>2026-04-15T09:33:41.856Z</time></trkpt><trkpt lat="42.6378283" lon="-7.2763283"><ele>1005.1999999999999</ele><time>2026-04-15T09:33:42.856Z</time></trkpt><trkpt lat="42.6377283" lon="-7.27634"><ele>1004.8000000000001</ele><time>2026-04-15T09:33:43.857Z</time></trkpt><trkpt lat="42.63763" lon="-7.2763483"><ele>1004.4000000000001</ele><time>2026-04-15T09:33:44.857Z</time></trkpt><trkpt lat="42.6375433" lon="-7.276365"><ele>1004.0</ele><time>2026-04-15T09:33:45.856Z</time></trkpt><trkpt lat="42.63745" lon="-7.2763717"><ele>1004.0</ele><time>2026-04-15T09:33:46.856Z</time></trkpt><trkpt lat="42.6373567" lon="-7.2763867"><ele>1004.0000000000001</ele><time>2026-04-15T09:33:47.857Z</time></trkpt><trkpt lat="42.6372583" lon="-7.2763917"><ele>1004.0000000000001</ele><time>2026-04-15T09:33:48.856Z</time></trkpt><trkpt lat="42.6371667" lon="-7.2764017"><ele>1004.0</ele><time>2026-04-15T09:33:49.856Z</time></trkpt><trkpt lat="42.63707" lon="-7.27641"><ele>1004.0</ele><time>2026-04-15T09:33:50.856Z</time></trkpt><trkpt lat="42.6369733" lon="-7.2764183"><ele>1004.0</ele><time>2026-04-15T09:33:51.857Z</time></trkpt><trkpt lat="42.6368767" lon="-7.27642"><ele>1004.0000000000001</ele><time>2026-04-15T09:33:52.856Z</time></trkpt><trkpt lat="42.6367833" lon="-7.2764133"><ele>1004.0000000000001</ele><time>2026-04-15T09:33:53.856Z</time></trkpt><trkpt lat="42.63669" lon="-7.2764017"><ele>1004.0</ele><time>2026-04-15T09:33:54.857Z</time></trkpt><trkpt lat="42.6365983" lon="-7.276385"><ele>1004.0</ele><time>2026-04-15T09:33:55.857Z</time></trkpt><trkpt lat="42.6365167" lon="-7.2763583"><ele>1004.0</ele><time>2026-04-15T09:33:56.857Z</time></trkpt><trkpt lat="42.6364367" lon="-7.2763083"><ele>1004.0000000000001</ele><time>2026-04-15T09:33:57.857Z</time></trkpt><trkpt lat="42.6363567" lon="-7.2762433"><ele>1004.0000000000001</ele><time>2026-04-15T09:33:58.856Z</time></trkpt><trkpt lat="42.63628" lon="-7.2761717"><ele>1004.0</ele><time>2026-04-15T09:33:59.857Z</time></trkpt><trkpt lat="42.6361983" lon="-7.2761033"><ele>1004.0</ele><time>2026-04-15T09:34:00.856Z</time></trkpt><trkpt lat="42.6361183" lon="-7.2760367"><ele>1002.6</ele><time>2026-04-15T09:34:01.856Z</time></trkpt><trkpt lat="42.6360383" lon="-7.2759683"><ele>1001.2</ele><time>2026-04-15T09:34:02.856Z</time></trkpt><trkpt lat="42.635955" lon="-7.275895"><ele>999.8000000000001</ele><time>2026-04-15T09:34:03.856Z</time></trkpt><trkpt lat="42.6358717" lon="-7.2758133"><ele>998.4000000000001</ele><time>2026-04-15T09:34:04.856Z</time></trkpt><trkpt lat="42.6357967" lon="-7.27574"><ele>997.0</ele><time>2026-04-15T09:34:05.856Z</time></trkpt><trkpt lat="42.6357267" lon="-7.2756583"><ele>998.8</ele><time>2026-04-15T09:34:06.856Z</time></trkpt><trkpt lat="42.6356583" lon="-7.2755667"><ele>1000.6</ele><time>2026-04-15T09:34:07.857Z</time></trkpt><trkpt lat="42.6355967" lon="-7.275475"><ele>1002.3999999999999</ele><time>2026-04-15T09:34:08.857Z</time></trkpt><trkpt lat="42.6355283" lon="-7.2753917"><ele>1004.1999999999999</ele><time>2026-04-15T09:34:09.856Z</time></trkpt><trkpt lat="42.6354583" lon="-7.27532"><ele>1006.0</ele><time>2026-04-15T09:34:10.857Z</time></trkpt><trkpt lat="42.6353883" lon="-7.275255"><ele>1006.0</ele><time>2026-04-15T09:34:11.856Z</time></trkpt><trkpt lat="42.6353167" lon="-7.275205"><ele>1005.9999999999999</ele><time>2026-04-15T09:34:12.857Z</time></trkpt><trkpt lat="42.635235" lon="-7.2751567"><ele>1005.9999999999999</ele><time>2026-04-15T09:34:13.856Z</time></trkpt><trkpt lat="42.63514" lon="-7.27511"><ele>1006.0</ele><time>2026-04-15T09:34:14.857Z</time></trkpt><trkpt lat="42.635045" lon="-7.2750583"><ele>1006.0</ele><time>2026-04-15T09:34:15.856Z</time></trkpt><trkpt lat="42.6349633" lon="-7.2750183"><ele>1004.4</ele><time>2026-04-15T09:34:16.856Z</time></trkpt><trkpt lat="42.63488" lon="-7.2749767"><ele>1002.8</ele><time>2026-04-15T09:34:17.856Z</time></trkpt><trkpt lat="42.6347883" lon="-7.27494"><ele>1001.1999999999999</ele><time>2026-04-15T09:34:18.856Z</time></trkpt><trkpt lat="42.6347033" lon="-7.2749133"><ele>999.5999999999999</ele><time>2026-04-15T09:34:19.856Z</time></trkpt><trkpt lat="42.63461" lon="-7.274895"><ele>998.0</ele><time>2026-04-15T09:34:20.856Z</time></trkpt><trkpt lat="42.6345117" lon="-7.27488"><ele>997.5999999999999</ele><time>2026-04-15T09:34:21.856Z</time></trkpt><trkpt lat="42.6344183" lon="-7.27486"><ele>997.1999999999999</ele><time>2026-04-15T09:34:22.857Z</time></trkpt><trkpt lat="42.6343267" lon="-7.274835"><ele>996.8</ele><time>2026-04-15T09:34:23.857Z</time></trkpt><trkpt lat="42.63423" lon="-7.2748117"><ele>996.4</ele><time>2026-04-15T09:34:24.856Z</time></trkpt><trkpt lat="42.6341333" lon="-7.2747983"><ele>996.0</ele><time>2026-04-15T09:34:25.856Z</time></trkpt><trkpt lat="42.6340383" lon="-7.274785"><ele>996.0</ele><time>2026-04-15T09:34:26.856Z</time></trkpt><trkpt lat="42.63394" lon="-7.2747733"><ele>996.0</ele><time>2026-04-15T09:34:27.857Z</time></trkpt><trkpt lat="42.633845" lon="-7.2747683"><ele>996.0</ele><time>2026-04-15T09:34:28.857Z</time></trkpt><trkpt lat="42.633765" lon="-7.27476"><ele>996.0</ele><time>2026-04-15T09:34:29.857Z</time></trkpt><trkpt lat="42.6336917" lon="-7.2747817"><ele>996.0</ele><time>2026-04-15T09:34:30.856Z</time></trkpt><trkpt lat="42.6336167" lon="-7.2748083"><ele>996.0</ele><time>2026-04-15T09:34:31.857Z</time></trkpt><trkpt lat="42.633535" lon="-7.2748317"><ele>995.8333333333334</ele><time>2026-04-15T09:34:32.856Z</time></trkpt><trkpt lat="42.6334517" lon="-7.2748617"><ele>995.6666666666667</ele><time>2026-04-15T09:34:33.857Z</time></trkpt><trkpt lat="42.633365" lon="-7.2748867"><ele>995.5</ele><time>2026-04-15T09:34:34.856Z</time></trkpt><trkpt lat="42.633275" lon="-7.2749067"><ele>995.3333333333334</ele><time>2026-04-15T09:34:35.857Z</time></trkpt><trkpt lat="42.6331917" lon="-7.2749167"><ele>995.1666666666667</ele><time>2026-04-15T09:34:36.857Z</time></trkpt><trkpt lat="42.6331217" lon="-7.2749217"><ele>995.0</ele><time>2026-04-15T09:34:37.857Z</time></trkpt><trkpt lat="42.6330517" lon="-7.2749167"><ele>995.0000000000001</ele><time>2026-04-15T09:34:38.857Z</time></trkpt><trkpt lat="42.63298" lon="-7.2749233"><ele>995.0</ele><time>2026-04-15T09:34:39.856Z</time></trkpt><trkpt lat="42.6329133" lon="-7.2749333"><ele>995.0</ele><time>2026-04-15T09:34:40.856Z</time></trkpt><trkpt lat="42.63285" lon="-7.2749433"><ele>995.0</ele><time>2026-04-15T09:34:41.856Z</time></trkpt><trkpt lat="42.6327867" lon="-7.2749433"><ele>995.0000000000001</ele><time>2026-04-15T09:34:42.857Z</time></trkpt><trkpt lat="42.6326633" lon="-7.2749367"><ele>995.0</ele><time>2026-04-15T09:34:44.856Z</time></trkpt><trkpt lat="42.63259" lon="-7.2749283"><ele>995.8333333333334</ele><time>2026-04-15T09:34:45.857Z</time></trkpt><trkpt lat="42.6325217" lon="-7.27492"><ele>996.6666666666667</ele><time>2026-04-15T09:34:46.857Z</time></trkpt><trkpt lat="42.632445" lon="-7.2748967"><ele>997.5</ele><time>2026-04-15T09:34:47.857Z</time></trkpt><trkpt lat="42.6323733" lon="-7.2748633"><ele>998.3333333333333</ele><time>2026-04-15T09:34:48.857Z</time></trkpt><trkpt lat="42.6323033" lon="-7.2748233"><ele>999.1666666666666</ele><time>2026-04-15T09:34:49.856Z</time></trkpt><trkpt lat="42.6322317" lon="-7.2747867"><ele>1000.0</ele><time>2026-04-15T09:34:50.856Z</time></trkpt><trkpt lat="42.632155" lon="-7.27475"><ele>999.9999999999999</ele><time>2026-04-15T09:34:51.857Z</time></trkpt><trkpt lat="42.6320783" lon="-7.2747167"><ele>1000.0</ele><time>2026-04-15T09:34:52.856Z</time></trkpt><trkpt lat="42.632" lon="-7.2746833"><ele>1000.0</ele><time>2026-04-15T09:34:53.856Z</time></trkpt><trkpt lat="42.63192" lon="-7.2746433"><ele>1000.0</ele><time>2026-04-15T09:34:54.857Z</time></trkpt><trkpt lat="42.6318367" lon="-7.274605"><ele>999.9999999999999</ele><time>2026-04-15T09:34:55.857Z</time></trkpt><trkpt lat="42.63175" lon="-7.274555"><ele>1000.0</ele><time>2026-04-15T09:34:56.856Z</time></trkpt><trkpt lat="42.6316717" lon="-7.2745"><ele>998.3333333333333</ele><time>2026-04-15T09:34:57.857Z</time></trkpt><trkpt lat="42.6316017" lon="-7.2744367"><ele>996.6666666666666</ele><time>2026-04-15T09:34:58.856Z</time></trkpt><trkpt lat="42.6315283" lon="-7.2743717"><ele>995.0</ele><time>2026-04-15T09:34:59.856Z</time></trkpt><trkpt lat="42.6314467" lon="-7.2743017"><ele>993.3333333333333</ele><time>2026-04-15T09:35:00.856Z</time></trkpt><trkpt lat="42.6313717" lon="-7.2742317"><ele>991.6666666666666</ele><time>2026-04-15T09:35:01.857Z</time></trkpt><trkpt lat="42.6312983" lon="-7.27417"><ele>990.0</ele><time>2026-04-15T09:35:02.857Z</time></trkpt><trkpt lat="42.63122" lon="-7.2741"><ele>989.4</ele><time>2026-04-15T09:35:03.857Z</time></trkpt><trkpt lat="42.63114" lon="-7.2740333"><ele>988.8</ele><time>2026-04-15T09:35:04.856Z</time></trkpt><trkpt lat="42.6310683" lon="-7.2739683"><ele>988.2</ele><time>2026-04-15T09:35:05.856Z</time></trkpt><trkpt lat="42.630995" lon="-7.2738967"><ele>987.6</ele><time>2026-04-15T09:35:06.856Z</time></trkpt><trkpt lat="42.63092" lon="-7.2738233"><ele>987.0</ele><time>2026-04-15T09:35:07.856Z</time></trkpt><trkpt lat="42.630845" lon="-7.2737417"><ele>987.0</ele><time>2026-04-15T09:35:08.856Z</time></trkpt><trkpt lat="42.6307733" lon="-7.27366"><ele>987.0</ele><time>2026-04-15T09:35:09.856Z</time></trkpt><trkpt lat="42.6307033" lon="-7.2735767"><ele>987.0</ele><time>2026-04-15T09:35:10.857Z</time></trkpt><trkpt lat="42.6306383" lon="-7.2734917"><ele>987.0</ele><time>2026-04-15T09:35:11.857Z</time></trkpt><trkpt lat="42.6305667" lon="-7.2734067"><ele>987.0</ele><time>2026-04-15T09:35:12.856Z</time></trkpt><trkpt lat="42.6305" lon="-7.273325"><ele>987.0</ele><time>2026-04-15T09:35:13.857Z</time></trkpt><trkpt lat="42.6304367" lon="-7.2732367"><ele>987.0</ele><time>2026-04-15T09:35:14.856Z</time></trkpt><trkpt lat="42.6303717" lon="-7.2731383"><ele>987.0</ele><time>2026-04-15T09:35:15.857Z</time></trkpt><trkpt lat="42.630305" lon="-7.2730533"><ele>987.0</ele><time>2026-04-15T09:35:16.857Z</time></trkpt><trkpt lat="42.6302417" lon="-7.2729683"><ele>987.0</ele><time>2026-04-15T09:35:17.857Z</time></trkpt><trkpt lat="42.6301733" lon="-7.27289"><ele>984.8</ele><time>2026-04-15T09:35:18.856Z</time></trkpt><trkpt lat="42.6301067" lon="-7.2728083"><ele>982.6</ele><time>2026-04-15T09:35:19.857Z</time></trkpt><trkpt lat="42.6300317" lon="-7.2727333"><ele>980.3999999999999</ele><time>2026-04-15T09:35:20.857Z</time></trkpt><trkpt lat="42.6299483" lon="-7.2726633"><ele>978.1999999999999</ele><time>2026-04-15T09:35:21.857Z</time></trkpt><trkpt lat="42.629865" lon="-7.2725917"><ele>976.0</ele><time>2026-04-15T09:35:22.857Z</time></trkpt><trkpt lat="42.629785" lon="-7.2725217"><ele>976.0</ele><time>2026-04-15T09:35:23.856Z</time></trkpt><trkpt lat="42.6296983" lon="-7.2724467"><ele>975.9999999999999</ele><time>2026-04-15T09:35:24.857Z</time></trkpt><trkpt lat="42.62962" lon="-7.272375"><ele>975.9999999999999</ele><time>2026-04-15T09:35:25.856Z</time></trkpt><trkpt lat="42.6295467" lon="-7.27231"><ele>976.0</ele><time>2026-04-15T09:35:26.856Z</time></trkpt><trkpt lat="42.6294717" lon="-7.2722417"><ele>976.0</ele><time>2026-04-15T09:35:27.857Z</time></trkpt><trkpt lat="42.6293967" lon="-7.2721817"><ele>975.8333333333333</ele><time>2026-04-15T09:35:28.857Z</time></trkpt><trkpt lat="42.6293217" lon="-7.2721283"><ele>975.6666666666666</ele><time>2026-04-15T09:35:29.857Z</time></trkpt><trkpt lat="42.62925" lon="-7.2720867"><ele>975.5</ele><time>2026-04-15T09:35:30.857Z</time></trkpt><trkpt lat="42.6291717" lon="-7.2720517"><ele>975.3333333333333</ele><time>2026-04-15T09:35:31.856Z</time></trkpt><trkpt lat="42.6290967" lon="-7.2720317"><ele>975.1666666666666</ele><time>2026-04-15T09:35:32.857Z</time></trkpt><trkpt lat="42.6290167" lon="-7.2720317"><ele>975.0</ele><time>2026-04-15T09:35:33.856Z</time></trkpt><trkpt lat="42.6289333" lon="-7.2720617"><ele>975.0</ele><time>2026-04-15T09:35:34.857Z</time></trkpt><trkpt lat="42.6288433" lon="-7.2720933"><ele>975.0</ele><time>2026-04-15T09:35:35.856Z</time></trkpt><trkpt lat="42.628765" lon="-7.2721433"><ele>975.0</ele><time>2026-04-15T09:35:36.857Z</time></trkpt><trkpt lat="42.6286917" lon="-7.2722017"><ele>975.0</ele><time>2026-04-15T09:35:37.856Z</time></trkpt><trkpt lat="42.6286183" lon="-7.272265"><ele>975.0</ele><time>2026-04-15T09:35:38.857Z</time></trkpt><trkpt lat="42.6285367" lon="-7.2723367"><ele>975.0</ele><time>2026-04-15T09:35:39.857Z</time></trkpt><trkpt lat="42.6284617" lon="-7.2724017"><ele>987.0</ele><time>2026-04-15T09:35:40.857Z</time></trkpt><trkpt lat="42.6307733" lon="-7.27366"><ele>987.0</ele><time>2026-04-15T09:35:09.856Z</time></trkpt><trkpt lat="42.6307033" lon="-7.2735767"><ele>987.0</ele><time>2026-04-15T09:35:10.857Z</time></trkpt><trkpt lat="42.6306383" lon="-7.2734917"><ele>987.0</ele><time>2026-04-15T09:35:11.857Z</time></trkpt><trkpt lat="42.6305667" lon="-7.2734067"><ele>987.0</ele><time>2026-04-15T09:35:12.856Z</time></trkpt><trkpt lat="42.6305" lon="-7.273325"><ele>987.0</ele><time>2026-04-15T09:35:13.857Z</time></trkpt><trkpt lat="42.6304367" lon="-7.2732367"><ele>987.0</ele><time>2026-04-15T09:35:14.856Z</time></trkpt><trkpt lat="42.6303717" lon="-7.2731383"><ele>987.0</ele><time>2026-04-15T09:35:15.857Z</time></trkpt><trkpt lat="42.630305" lon="-7.2730533"><ele>987.0</ele><time>2026-04-15T09:35:16.857Z</time></trkpt><trkpt lat="42.6302417" lon="-7.2729683"><ele>987.0</ele><time>2026-04-15T09:35:17.857Z</time></trkpt><trkpt lat="42.6301733" lon="-7.27289"><ele>987.0</ele><time>2026-04-15T09:35:18.856Z</time></trkpt><trkpt lat="42.6301067" lon="-7.2728083"><ele>984.8</ele><time>2026-04-15T09:35:19.857Z</time></trkpt><trkpt lat="42.6300317" lon="-7.2727333"><ele>982.6</ele><time>2026-04-15T09:35:20.857Z</time></trkpt><trkpt lat="42.6299483" lon="-7.2726633"><ele>980.3999999999999</ele><time>2026-04-15T09:35:21.857Z</time></trkpt><trkpt lat="42.629865" lon="-7.2725917"><ele>978.1999999999999</ele><time>2026-04-15T09:35:22.857Z</time></trkpt><trkpt lat="42.629785" lon="-7.2725217"><ele>976.0</ele><time>2026-04-15T09:35:23.856Z</time></trkpt><trkpt lat="42.6296983" lon="-7.2724467"><ele>975.9999999999999</ele><time>2026-04-15T09:35:24.857Z</time></trkpt><trkpt lat="42.62962" lon="-7.272375"><ele>976.0</ele><time>2026-04-15T09:35:25.856Z</time></trkpt><trkpt lat="42.6295467" lon="-7.27231"><ele>976.0</ele><time>2026-04-15T09:35:26.856Z</time></trkpt><trkpt lat="42.6294717" lon="-7.2722417"><ele>976.0</ele><time>2026-04-15T09:35:27.857Z</time></trkpt><trkpt lat="42.6293967" lon="-7.2721817"><ele>975.9999999999999</ele><time>2026-04-15T09:35:28.857Z</time></trkpt><trkpt lat="42.6293217" lon="-7.2721283"><ele>976.0</ele><time>2026-04-15T09:35:29.857Z</time></trkpt><trkpt lat="42.62925" lon="-7.2720867"><ele>975.8333333333333</ele><time>2026-04-15T09:35:30.857Z</time></trkpt><trkpt lat="42.6291717" lon="-7.2720517"><ele>975.6666666666666</ele><time>2026-04-15T09:35:31.856Z</time></trkpt><trkpt lat="42.6290967" lon="-7.2720317"><ele>975.5</ele><time>2026-04-15T09:35:32.857Z</time></trkpt><trkpt lat="42.6290167" lon="-7.2720317"><ele>975.3333333333333</ele><time>2026-04-15T09:35:33.856Z</time></trkpt><trkpt lat="42.6289333" lon="-7.2720617"><ele>975.1666666666666</ele><time>2026-04-15T09:35:34.857Z</time></trkpt><trkpt lat="42.6288433" lon="-7.2720933"><ele>975.0</ele><time>2026-04-15T09:35:35.856Z</time></trkpt><trkpt lat="42.628765" lon="-7.2721433"><ele>975.0</ele><time>2026-04-15T09:35:36.857Z</time></trkpt><trkpt lat="42.6286917" lon="-7.2722017"><ele>975.0</ele><time>2026-04-15T09:35:37.856Z</time></trkpt><trkpt lat="42.6286183" lon="-7.272265"><ele>975.0</ele><time>2026-04-15T09:35:38.857Z</time></trkpt><trkpt lat="42.6285367" lon="-7.2723367"><ele>975.0</ele><time>2026-04-15T09:35:39.857Z</time></trkpt><trkpt lat="42.6284617" lon="-7.2724017"><ele>975.0</ele><time>2026-04-15T09:35:40.857Z</time></trkpt><trkpt lat="42.6283883" lon="-7.272465"><ele>975.0</ele><time>2026-04-15T09:35:41.856Z</time></trkpt><trkpt lat="42.628315" lon="-7.27252"><ele>972.3333333333334</ele><time>2026-04-15T09:35:42.857Z</time></trkpt><trkpt lat="42.6282383" lon="-7.2725517"><ele>969.6666666666667</ele><time>2026-04-15T09:35:43.857Z</time></trkpt><trkpt lat="42.628155" lon="-7.2725817"><ele>967.0</ele><time>2026-04-15T09:35:44.857Z</time></trkpt><trkpt lat="42.6280733" lon="-7.2726017"><ele>964.3333333333334</ele><time>2026-04-15T09:35:45.856Z</time></trkpt><trkpt lat="42.6279867" lon="-7.2726233"><ele>961.6666666666667</ele><time>2026-04-15T09:35:46.856Z</time></trkpt><trkpt lat="42.6279083" lon="-7.2726467"><ele>959.0</ele><time>2026-04-15T09:35:47.856Z</time></trkpt><trkpt lat="42.6278317" lon="-7.2726717"><ele>957.8333333333334</ele><time>2026-04-15T09:35:48.856Z</time></trkpt><trkpt lat="42.627765" lon="-7.2726917"><ele>956.6666666666667</ele><time>2026-04-15T09:35:49.856Z</time></trkpt><trkpt lat="42.6276983" lon="-7.2727083"><ele>955.5</ele><time>2026-04-15T09:35:50.857Z</time></trkpt><trkpt lat="42.627605" lon="-7.2727083"><ele>954.3333333333333</ele><time>2026-04-15T09:35:51.856Z</time></trkpt><trkpt lat="42.62752" lon="-7.272695"><ele>953.1666666666666</ele><time>2026-04-15T09:35:52.856Z</time></trkpt><trkpt lat="42.6274183" lon="-7.272675"><ele>952.0</ele><time>2026-04-15T09:35:53.857Z</time></trkpt><trkpt lat="42.62733" lon="-7.27265"><ele>951.9999999999999</ele><time>2026-04-15T09:35:54.856Z</time></trkpt><trkpt lat="42.6272483" lon="-7.2726233"><ele>952.0</ele><time>2026-04-15T09:35:55.857Z</time></trkpt><trkpt lat="42.6271717" lon="-7.2726067"><ele>952.0</ele><time>2026-04-15T09:35:56.856Z</time></trkpt><trkpt lat="42.627075" lon="-7.2725883"><ele>952.0</ele><time>2026-04-15T09:35:57.856Z</time></trkpt><trkpt lat="42.6269983" lon="-7.2725867"><ele>951.9999999999999</ele><time>2026-04-15T09:35:58.856Z</time></trkpt><trkpt lat="42.6269133" lon="-7.27262"><ele>952.0</ele><time>2026-04-15T09:35:59.857Z</time></trkpt><trkpt lat="42.6268467" lon="-7.2726933"><ele>949.4000000000001</ele><time>2026-04-15T09:36:00.856Z</time></trkpt><trkpt lat="42.626795" lon="-7.2727933"><ele>946.8000000000001</ele><time>2026-04-15T09:36:01.857Z</time></trkpt><trkpt lat="42.6267567" lon="-7.272905"><ele>944.2</ele><time>2026-04-15T09:36:02.856Z</time></trkpt><trkpt lat="42.6267167" lon="-7.2730133"><ele>941.6</ele><time>2026-04-15T09:36:03.856Z</time></trkpt><trkpt lat="42.6266817" lon="-7.27313"><ele>939.0</ele><time>2026-04-15T09:36:04.856Z</time></trkpt><trkpt lat="42.6266317" lon="-7.2732283"><ele>938.3333333333334</ele><time>2026-04-15T09:36:05.856Z</time></trkpt><trkpt lat="42.62659" lon="-7.273315"><ele>937.6666666666667</ele><time>2026-04-15T09:36:06.856Z</time></trkpt><trkpt lat="42.6265433" lon="-7.27339"><ele>937.0</ele><time>2026-04-15T09:36:07.856Z</time></trkpt><trkpt lat="42.626495" lon="-7.2734617"><ele>936.3333333333334</ele><time>2026-04-15T09:36:08.857Z</time></trkpt><trkpt lat="42.6264133" lon="-7.2735667"><ele>935.6666666666667</ele><time>2026-04-15T09:36:10.856Z</time></trkpt><trkpt lat="42.6263417" lon="-7.2736767"><ele>935.0</ele><time>2026-04-15T09:36:12.856Z</time></trkpt><trkpt lat="42.62628" lon="-7.2737817"><ele>935.0</ele><time>2026-04-15T09:36:14.856Z</time></trkpt><trkpt lat="42.626225" lon="-7.2739033"><ele>935.0</ele><time>2026-04-15T09:36:28.857Z</time></trkpt><trkpt lat="42.6261867" lon="-7.2740133"><ele>935.0</ele><time>2026-04-15T09:36:29.857Z</time></trkpt><trkpt lat="42.62617" lon="-7.2741383"><ele>935.0</ele><time>2026-04-15T09:36:30.857Z</time></trkpt><trkpt lat="42.6261833" lon="-7.2742683"><ele>935.0</ele><time>2026-04-15T09:36:31.856Z</time></trkpt><trkpt lat="42.62621" lon="-7.2744"><ele>934.4</ele><time>2026-04-15T09:36:32.857Z</time></trkpt><trkpt lat="42.6262417" lon="-7.2745383"><ele>933.8</ele><time>2026-04-15T09:36:33.857Z</time></trkpt><trkpt lat="42.6262717" lon="-7.2746933"><ele>933.2</ele><time>2026-04-15T09:36:34.856Z</time></trkpt><trkpt lat="42.6262917" lon="-7.274845"><ele>932.6</ele><time>2026-04-15T09:36:35.857Z</time></trkpt><trkpt lat="42.6263067" lon="-7.2749867"><ele>932.0</ele><time>2026-04-15T09:36:36.857Z</time></trkpt><trkpt lat="42.6263183" lon="-7.2751433"><ele>931.75</ele><time>2026-04-15T09:36:37.856Z</time></trkpt><trkpt lat="42.6263233" lon="-7.2753083"><ele>931.5</ele><time>2026-04-15T09:36:38.857Z</time></trkpt><trkpt lat="42.6263233" lon="-7.2755033"><ele>931.25</ele><time>2026-04-15T09:36:39.856Z</time></trkpt><trkpt lat="42.6263117" lon="-7.275705"><ele>931.0</ele><time>2026-04-15T09:36:40.857Z</time></trkpt><trkpt lat="42.626285" lon="-7.27593"><ele>931.0</ele><time>2026-04-15T09:36:41.857Z</time></trkpt><trkpt lat="42.626255" lon="-7.276195"><ele>931.0</ele><time>2026-04-15T09:36:42.857Z</time></trkpt><trkpt lat="42.626205" lon="-7.2764933"><ele>931.0</ele><time>2026-04-15T09:36:43.856Z</time></trkpt><trkpt lat="42.6261283" lon="-7.2767933"><ele>942.5</ele><time>2026-04-15T09:36:44.856Z</time></trkpt><trkpt lat="42.6260117" lon="-7.27709"><ele>954.0</ele><time>2026-04-15T09:36:45.857Z</time></trkpt><trkpt lat="42.62589" lon="-7.277325"><ele>954.0</ele><time>2026-04-15T09:36:46.856Z</time></trkpt><trkpt lat="42.6257633" lon="-7.2775167"><ele>954.0</ele><time>2026-04-15T09:36:47.856Z</time></trkpt><trkpt lat="42.6256283" lon="-7.2776583"><ele>954.0</ele><time>2026-04-15T09:36:48.856Z</time></trkpt><trkpt lat="42.6254833" lon="-7.27777"><ele>954.0</ele><time>2026-04-15T09:36:49.856Z</time></trkpt><trkpt lat="42.62534" lon="-7.2778483"><ele>954.0</ele><time>2026-04-15T09:36:50.856Z</time></trkpt><trkpt lat="42.6252067" lon="-7.2778733"><ele>954.0</ele><time>2026-04-15T09:36:51.856Z</time></trkpt><trkpt lat="42.62507" lon="-7.2778617"><ele>954.0</ele><time>2026-04-15T09:36:52.856Z</time></trkpt><trkpt lat="42.6249417" lon="-7.277825"><ele>957.4000000000001</ele><time>2026-04-15T09:36:53.857Z</time></trkpt><trkpt lat="42.6248317" lon="-7.2777667"><ele>960.8000000000001</ele><time>2026-04-15T09:36:54.857Z</time></trkpt><trkpt lat="42.6247217" lon="-7.2777167"><ele>964.1999999999999</ele><time>2026-04-15T09:36:55.857Z</time></trkpt><trkpt lat="42.6246217" lon="-7.277675"><ele>967.5999999999999</ele><time>2026-04-15T09:36:56.856Z</time></trkpt><trkpt lat="42.624535" lon="-7.2776417"><ele>971.0</ele><time>2026-04-15T09:36:57.857Z</time></trkpt><trkpt lat="42.6244583" lon="-7.277625"><ele>971.2857142857143</ele><time>2026-04-15T09:36:58.857Z</time></trkpt><trkpt lat="42.6243933" lon="-7.2776117"><ele>971.5714285714287</ele><time>2026-04-15T09:36:59.857Z</time></trkpt><trkpt lat="42.6243183" lon="-7.2776033"><ele>971.8571428571429</ele><time>2026-04-15T09:37:00.857Z</time></trkpt><trkpt lat="42.6242417" lon="-7.2775967"><ele>972.1428571428571</ele><time>2026-04-15T09:37:01.856Z</time></trkpt><trkpt lat="42.6241667" lon="-7.277595"><ele>972.4285714285714</ele><time>2026-04-15T09:37:02.856Z</time></trkpt><trkpt lat="42.6240967" lon="-7.27759"><ele>972.7142857142858</ele><time>2026-04-15T09:37:03.857Z</time></trkpt><trkpt lat="42.6240233" lon="-7.2775783"><ele>973.0</ele><time>2026-04-15T09:37:04.857Z</time></trkpt><trkpt lat="42.6239433" lon="-7.2775633"><ele>973.0</ele><time>2026-04-15T09:37:05.856Z</time></trkpt><trkpt lat="42.62387" lon="-7.2775433"><ele>973.0</ele><time>2026-04-15T09:37:06.857Z</time></trkpt><trkpt lat="42.6237967" lon="-7.277525"><ele>973.0</ele><time>2026-04-15T09:37:07.856Z</time></trkpt><trkpt lat="42.6263183" lon="-7.2751433"><ele>962.5</ele><time>2026-04-15T09:36:37.856Z</time></trkpt><trkpt lat="42.6263233" lon="-7.2753083"><ele>952.0</ele><time>2026-04-15T09:36:38.857Z</time></trkpt><trkpt lat="42.6263233" lon="-7.2755033"><ele>941.5</ele><time>2026-04-15T09:36:39.856Z</time></trkpt><trkpt lat="42.6263117" lon="-7.275705"><ele>931.0</ele><time>2026-04-15T09:36:40.857Z</time></trkpt><trkpt lat="42.626285" lon="-7.27593"><ele>931.0</ele><time>2026-04-15T09:36:41.857Z</time></trkpt><trkpt lat="42.626255" lon="-7.276195"><ele>931.0</ele><time>2026-04-15T09:36:42.857Z</time></trkpt><trkpt lat="42.626205" lon="-7.2764933"><ele>931.0</ele><time>2026-04-15T09:36:43.856Z</time></trkpt><trkpt lat="42.6261283" lon="-7.2767933"><ele>942.5</ele><time>2026-04-15T09:36:44.856Z</time></trkpt><trkpt lat="42.6260117" lon="-7.27709"><ele>954.0</ele><time>2026-04-15T09:36:45.857Z</time></trkpt><trkpt lat="42.62589" lon="-7.277325"><ele>954.0</ele><time>2026-04-15T09:36:46.856Z</time></trkpt><trkpt lat="42.6257633" lon="-7.2775167"><ele>954.0</ele><time>2026-04-15T09:36:47.856Z</time></trkpt><trkpt lat="42.6256283" lon="-7.2776583"><ele>954.0</ele><time>2026-04-15T09:36:48.856Z</time></trkpt><trkpt lat="42.6254833" lon="-7.27777"><ele>954.0</ele><time>2026-04-15T09:36:49.856Z</time></trkpt><trkpt lat="42.62534" lon="-7.2778483"><ele>954.0</ele><time>2026-04-15T09:36:50.856Z</time></trkpt><trkpt lat="42.6252067" lon="-7.2778733"><ele>954.0</ele><time>2026-04-15T09:36:51.856Z</time></trkpt><trkpt lat="42.62507" lon="-7.2778617"><ele>954.0</ele><time>2026-04-15T09:36:52.856Z</time></trkpt><trkpt lat="42.6249417" lon="-7.277825"><ele>957.4000000000001</ele><time>2026-04-15T09:36:53.857Z</time></trkpt><trkpt lat="42.6248317" lon="-7.2777667"><ele>960.8000000000001</ele><time>2026-04-15T09:36:54.857Z</time></trkpt><trkpt lat="42.6247217" lon="-7.2777167"><ele>964.1999999999999</ele><time>2026-04-15T09:36:55.857Z</time></trkpt><trkpt lat="42.6246217" lon="-7.277675"><ele>967.5999999999999</ele><time>2026-04-15T09:36:56.856Z</time></trkpt><trkpt lat="42.624535" lon="-7.2776417"><ele>971.0</ele><time>2026-04-15T09:36:57.857Z</time></trkpt><trkpt lat="42.6244583" lon="-7.277625"><ele>971.2857142857143</ele><time>2026-04-15T09:36:58.857Z</time></trkpt><trkpt lat="42.6243933" lon="-7.2776117"><ele>971.5714285714287</ele><time>2026-04-15T09:36:59.857Z</time></trkpt><trkpt lat="42.6243183" lon="-7.2776033"><ele>971.8571428571429</ele><time>2026-04-15T09:37:00.857Z</time></trkpt><trkpt lat="42.6242417" lon="-7.2775967"><ele>972.1428571428571</ele><time>2026-04-15T09:37:01.856Z</time></trkpt><trkpt lat="42.6241667" lon="-7.277595"><ele>972.4285714285714</ele><time>2026-04-15T09:37:02.856Z</time></trkpt><trkpt lat="42.6240967" lon="-7.27759"><ele>972.7142857142858</ele><time>2026-04-15T09:37:03.857Z</time></trkpt><trkpt lat="42.6240233" lon="-7.2775783"><ele>973.0</ele><time>2026-04-15T09:37:04.857Z</time></trkpt><trkpt lat="42.6239433" lon="-7.2775633"><ele>972.9999999999999</ele><time>2026-04-15T09:37:05.856Z</time></trkpt><trkpt lat="42.62387" lon="-7.2775433"><ele>973.0</ele><time>2026-04-15T09:37:06.857Z</time></trkpt><trkpt lat="42.6237967" lon="-7.277525"><ele>973.0</ele><time>2026-04-15T09:37:07.856Z</time></trkpt><trkpt lat="42.6237183" lon="-7.277515"><ele>973.0</ele><time>2026-04-15T09:37:08.857Z</time></trkpt><trkpt lat="42.6236433" lon="-7.27752"><ele>972.9999999999999</ele><time>2026-04-15T09:37:09.856Z</time></trkpt><trkpt lat="42.62357" lon="-7.2775467"><ele>973.0</ele><time>2026-04-15T09:37:10.856Z</time></trkpt><trkpt lat="42.6234983" lon="-7.2775733"><ele>974.1666666666666</ele><time>2026-04-15T09:37:11.856Z</time></trkpt><trkpt lat="42.6234267" lon="-7.27761"><ele>975.3333333333333</ele><time>2026-04-15T09:37:12.856Z</time></trkpt><trkpt lat="42.6233567" lon="-7.2776517"><ele>976.5</ele><time>2026-04-15T09:37:13.857Z</time></trkpt><trkpt lat="42.6232883" lon="-7.2776917"><ele>977.6666666666667</ele><time>2026-04-15T09:37:14.856Z</time></trkpt><trkpt lat="42.6232167" lon="-7.2777333"><ele>978.8333333333334</ele><time>2026-04-15T09:37:15.857Z</time></trkpt><trkpt lat="42.6231483" lon="-7.2777733"><ele>980.0</ele><time>2026-04-15T09:37:16.856Z</time></trkpt><trkpt lat="42.6230767" lon="-7.2778"><ele>980.0000000000001</ele><time>2026-04-15T09:37:17.856Z</time></trkpt><trkpt lat="42.623005" lon="-7.27782"><ele>980.0</ele><time>2026-04-15T09:37:18.856Z</time></trkpt><trkpt lat="42.62292" lon="-7.2778417"><ele>980.0</ele><time>2026-04-15T09:37:19.857Z</time></trkpt><trkpt lat="42.62284" lon="-7.2778567"><ele>980.0</ele><time>2026-04-15T09:37:20.857Z</time></trkpt><trkpt lat="42.6227617" lon="-7.27788"><ele>980.0000000000001</ele><time>2026-04-15T09:37:21.856Z</time></trkpt><trkpt lat="42.6226867" lon="-7.2779083"><ele>980.0</ele><time>2026-04-15T09:37:22.857Z</time></trkpt><trkpt lat="42.6226167" lon="-7.2779533"><ele>980.8333333333334</ele><time>2026-04-15T09:37:23.857Z</time></trkpt><trkpt lat="42.6225517" lon="-7.2780083"><ele>981.6666666666667</ele><time>2026-04-15T09:37:24.857Z</time></trkpt><trkpt lat="42.622485" lon="-7.2780667"><ele>982.5</ele><time>2026-04-15T09:37:25.856Z</time></trkpt><trkpt lat="42.62243" lon="-7.2781417"><ele>983.3333333333333</ele><time>2026-04-15T09:37:26.857Z</time></trkpt><trkpt lat="42.622375" lon="-7.2782267"><ele>984.1666666666666</ele><time>2026-04-15T09:37:27.856Z</time></trkpt><trkpt lat="42.6223217" lon="-7.27831"><ele>985.0</ele><time>2026-04-15T09:37:28.856Z</time></trkpt><trkpt lat="42.6222717" lon="-7.2783967"><ele>984.9999999999999</ele><time>2026-04-15T09:37:29.856Z</time></trkpt><trkpt lat="42.62222" lon="-7.2784867"><ele>985.0</ele><time>2026-04-15T09:37:30.857Z</time></trkpt><trkpt lat="42.622165" lon="-7.2785767"><ele>985.0</ele><time>2026-04-15T09:37:31.857Z</time></trkpt><trkpt lat="42.62211" lon="-7.278665"><ele>985.0</ele><time>2026-04-15T09:37:32.857Z</time></trkpt><trkpt lat="42.6220483" lon="-7.27875"><ele>984.9999999999999</ele><time>2026-04-15T09:37:33.857Z</time></trkpt><trkpt lat="42.6219867" lon="-7.278835"><ele>985.0</ele><time>2026-04-15T09:37:34.856Z</time></trkpt><trkpt lat="42.62193" lon="-7.2789267"><ele>987.9999999999999</ele><time>2026-04-15T09:37:35.857Z</time></trkpt><trkpt lat="42.6218767" lon="-7.2790133"><ele>991.0</ele><time>2026-04-15T09:37:36.857Z</time></trkpt><trkpt lat="42.6218233" lon="-7.279095"><ele>994.0</ele><time>2026-04-15T09:37:37.857Z</time></trkpt><trkpt lat="42.6217767" lon="-7.279175"><ele>997.0</ele><time>2026-04-15T09:37:38.856Z</time></trkpt><trkpt lat="42.6217217" lon="-7.279245"><ele>999.9999999999999</ele><time>2026-04-15T09:37:39.856Z</time></trkpt><trkpt lat="42.6216717" lon="-7.279315"><ele>1003.0</ele><time>2026-04-15T09:37:40.856Z</time></trkpt><trkpt lat="42.6216217" lon="-7.27938"><ele>1003.0</ele><time>2026-04-15T09:37:41.857Z</time></trkpt><trkpt lat="42.621575" lon="-7.2794483"><ele>1002.9999999999999</ele><time>2026-04-15T09:37:42.856Z</time></trkpt><trkpt lat="42.6215317" lon="-7.2795217"><ele>1003.0</ele><time>2026-04-15T09:37:43.856Z</time></trkpt><trkpt lat="42.6214833" lon="-7.2795967"><ele>1003.0</ele><time>2026-04-15T09:37:44.856Z</time></trkpt><trkpt lat="42.6214333" lon="-7.2796683"><ele>1002.9999999999999</ele><time>2026-04-15T09:37:45.857Z</time></trkpt><trkpt lat="42.6213933" lon="-7.2797467"><ele>1003.0</ele><time>2026-04-15T09:37:46.856Z</time></trkpt><trkpt lat="42.6213517" lon="-7.279825"><ele>1003.0</ele><time>2026-04-15T09:37:47.857Z</time></trkpt><trkpt lat="42.62131" lon="-7.2798983"><ele>1000.8571428571428</ele><time>2026-04-15T09:37:48.857Z</time></trkpt><trkpt lat="42.6212717" lon="-7.2799717"><ele>998.7142857142856</ele><time>2026-04-15T09:37:49.857Z</time></trkpt><trkpt lat="42.6212317" lon="-7.2800533"><ele>996.5714285714286</ele><time>2026-04-15T09:37:50.856Z</time></trkpt><trkpt lat="42.6211983" lon="-7.280135"><ele>994.4285714285713</ele><time>2026-04-15T09:37:51.857Z</time></trkpt><trkpt lat="42.6211633" lon="-7.2802183"><ele>992.2857142857142</ele><time>2026-04-15T09:37:52.857Z</time></trkpt><trkpt lat="42.6211283" lon="-7.2803067"><ele>990.1428571428571</ele><time>2026-04-15T09:37:53.856Z</time></trkpt><trkpt lat="42.6210983" lon="-7.280385"><ele>988.0</ele><time>2026-04-15T09:37:54.856Z</time></trkpt><trkpt lat="42.6210633" lon="-7.2804633"><ele>994.0</ele><time>2026-04-15T09:37:55.856Z</time></trkpt><trkpt lat="42.621025" lon="-7.2805367"><ele>1000.0</ele><time>2026-04-15T09:37:56.857Z</time></trkpt><trkpt lat="42.6209467" lon="-7.2806667"><ele>1006.0</ele><time>2026-04-15T09:37:58.856Z</time></trkpt><trkpt lat="42.6208733" lon="-7.2807883"><ele>1012.0</ele><time>2026-04-15T09:38:00.856Z</time></trkpt><trkpt lat="42.620795" lon="-7.2809217"><ele>1018.0</ele><time>2026-04-15T09:38:02.856Z</time></trkpt><trkpt lat="42.6207467" lon="-7.2809817"><ele>1017.9999999999999</ele><time>2026-04-15T09:38:03.856Z</time></trkpt><trkpt lat="42.6206917" lon="-7.2810433"><ele>1018.0</ele><time>2026-04-15T09:38:04.857Z</time></trkpt><trkpt lat="42.6206383" lon="-7.281105"><ele>1017.9999999999999</ele><time>2026-04-15T09:38:05.856Z</time></trkpt><trkpt lat="42.6205867" lon="-7.2811767"><ele>1017.9999999999999</ele><time>2026-04-15T09:38:06.857Z</time></trkpt><trkpt lat="42.6205383" lon="-7.2812517"><ele>1018.0</ele><time>2026-04-15T09:38:07.857Z</time></trkpt><trkpt lat="42.6204883" lon="-7.2813217"><ele>1017.9999999999999</ele><time>2026-04-15T09:38:08.856Z</time></trkpt><trkpt lat="42.6204317" lon="-7.2813933"><ele>1017.9999999999999</ele><time>2026-04-15T09:38:09.856Z</time></trkpt><trkpt lat="42.6203783" lon="-7.2814733"><ele>1015.6666666666666</ele><time>2026-04-15T09:38:10.856Z</time></trkpt><trkpt lat="42.6203283" lon="-7.2815517"><ele>1013.3333333333333</ele><time>2026-04-15T09:38:11.856Z</time></trkpt><trkpt lat="42.6202783" lon="-7.2816417"><ele>1011.0</ele><time>2026-04-15T09:38:12.856Z</time></trkpt><trkpt lat="42.6202333" lon="-7.2817333"><ele>1008.6666666666667</ele><time>2026-04-15T09:38:13.856Z</time></trkpt><trkpt lat="42.6201833" lon="-7.2818217"><ele>1006.3333333333334</ele><time>2026-04-15T09:38:14.856Z</time></trkpt><trkpt lat="42.62015" lon="-7.2819167"><ele>1004.0</ele><time>2026-04-15T09:38:15.856Z</time></trkpt><trkpt lat="42.6201233" lon="-7.28202"><ele>1009.142857142857</ele><time>2026-04-15T09:38:16.856Z</time></trkpt><trkpt lat="42.6201017" lon="-7.2821167"><ele>1014.2857142857142</ele><time>2026-04-15T09:38:17.856Z</time></trkpt><trkpt lat="42.6200817" lon="-7.28222"><ele>1019.4285714285714</ele><time>2026-04-15T09:38:18.857Z</time></trkpt><trkpt lat="42.6200633" lon="-7.2823217"><ele>1024.5714285714284</ele><time>2026-04-15T09:38:19.856Z</time></trkpt><trkpt lat="42.6200533" lon="-7.2824117"><ele>1029.7142857142858</ele><time>2026-04-15T09:38:20.856Z</time></trkpt><trkpt lat="42.6200433" lon="-7.282515"><ele>1034.857142857143</ele><time>2026-04-15T09:38:21.856Z</time></trkpt><trkpt lat="42.62003" lon="-7.2826117"><ele>1040.0</ele><time>2026-04-15T09:38:22.856Z</time></trkpt><trkpt lat="42.6200183" lon="-7.2827167"><ele>1040.0</ele><time>2026-04-15T09:38:23.857Z</time></trkpt><trkpt lat="42.6200117" lon="-7.2828183"><ele>1040.0</ele><time>2026-04-15T09:38:24.856Z</time></trkpt><trkpt lat="42.6200117" lon="-7.2829183"><ele>1040.0</ele><time>2026-04-15T09:38:25.856Z</time></trkpt><trkpt lat="42.62001" lon="-7.2830133"><ele>1040.0</ele><time>2026-04-15T09:38:26.857Z</time></trkpt><trkpt lat="42.6200167" lon="-7.28311"><ele>1040.0</ele><time>2026-04-15T09:38:27.857Z</time></trkpt><trkpt lat="42.62004" lon="-7.2832133"><ele>1040.0</ele><time>2026-04-15T09:38:28.857Z</time></trkpt><trkpt lat="42.6200617" lon="-7.2833183"><ele>1042.3333333333335</ele><time>2026-04-15T09:38:29.856Z</time></trkpt><trkpt lat="42.6200967" lon="-7.2834233"><ele>1044.6666666666667</ele><time>2026-04-15T09:38:30.856Z</time></trkpt><trkpt lat="42.6201233" lon="-7.2835233"><ele>1047.0</ele><time>2026-04-15T09:38:31.856Z</time></trkpt><trkpt lat="42.6201517" lon="-7.283615"><ele>1049.3333333333333</ele><time>2026-04-15T09:38:32.856Z</time></trkpt><trkpt lat="42.6201933" lon="-7.2837067"><ele>1051.6666666666665</ele><time>2026-04-15T09:38:33.856Z</time></trkpt><trkpt lat="42.6202417" lon="-7.2837933"><ele>1054.0</ele><time>2026-04-15T09:38:34.856Z</time></trkpt><trkpt lat="42.6202933" lon="-7.283875"><ele>1018.0</ele><time>2026-04-15T09:38:35.856Z</time></trkpt><trkpt lat="42.6206917" lon="-7.2810433"><ele>1017.9999999999999</ele><time>2026-04-15T09:38:04.857Z</time></trkpt><trkpt lat="42.6206383" lon="-7.281105"><ele>1018.0</ele><time>2026-04-15T09:38:05.856Z</time></trkpt><trkpt lat="42.6205867" lon="-7.2811767"><ele>1017.9999999999999</ele><time>2026-04-15T09:38:06.857Z</time></trkpt><trkpt lat="42.6205383" lon="-7.2812517"><ele>1017.9999999999999</ele><time>2026-04-15T09:38:07.857Z</time></trkpt><trkpt lat="42.6204883" lon="-7.2813217"><ele>1018.0</ele><time>2026-04-15T09:38:08.856Z</time></trkpt><trkpt lat="42.6204317" lon="-7.2813933"><ele>1017.9999999999999</ele><time>2026-04-15T09:38:09.856Z</time></trkpt><trkpt lat="42.6203783" lon="-7.2814733"><ele>1017.9999999999999</ele><time>2026-04-15T09:38:10.856Z</time></trkpt><trkpt lat="42.6203283" lon="-7.2815517"><ele>1021.6666666666666</ele><time>2026-04-15T09:38:11.856Z</time></trkpt><trkpt lat="42.6202783" lon="-7.2816417"><ele>1025.3333333333333</ele><time>2026-04-15T09:38:12.856Z</time></trkpt><trkpt lat="42.6202333" lon="-7.2817333"><ele>1029.0</ele><time>2026-04-15T09:38:13.856Z</time></trkpt><trkpt lat="42.6201833" lon="-7.2818217"><ele>1032.6666666666667</ele><time>2026-04-15T09:38:14.856Z</time></trkpt><trkpt lat="42.62015" lon="-7.2819167"><ele>1036.3333333333335</ele><time>2026-04-15T09:38:15.856Z</time></trkpt><trkpt lat="42.6201233" lon="-7.28202"><ele>1040.0</ele><time>2026-04-15T09:38:16.856Z</time></trkpt><trkpt lat="42.6201017" lon="-7.2821167"><ele>1040.0</ele><time>2026-04-15T09:38:17.856Z</time></trkpt><trkpt lat="42.6200817" lon="-7.28222"><ele>1040.0</ele><time>2026-04-15T09:38:18.857Z</time></trkpt><trkpt lat="42.6200633" lon="-7.2823217"><ele>1040.0</ele><time>2026-04-15T09:38:19.856Z</time></trkpt><trkpt lat="42.6200533" lon="-7.2824117"><ele>1040.0</ele><time>2026-04-15T09:38:20.856Z</time></trkpt><trkpt lat="42.6200433" lon="-7.282515"><ele>1040.0</ele><time>2026-04-15T09:38:21.856Z</time></trkpt><trkpt lat="42.62003" lon="-7.2826117"><ele>1040.0</ele><time>2026-04-15T09:38:22.856Z</time></trkpt><trkpt lat="42.6200183" lon="-7.2827167"><ele>1040.0</ele><time>2026-04-15T09:38:23.857Z</time></trkpt><trkpt lat="42.6200117" lon="-7.2828183"><ele>1040.0</ele><time>2026-04-15T09:38:24.856Z</time></trkpt><trkpt lat="42.6200117" lon="-7.2829183"><ele>1040.0</ele><time>2026-04-15T09:38:25.856Z</time></trkpt><trkpt lat="42.62001" lon="-7.2830133"><ele>1040.0</ele><time>2026-04-15T09:38:26.857Z</time></trkpt><trkpt lat="42.6200167" lon="-7.28311"><ele>1040.0</ele><time>2026-04-15T09:38:27.857Z</time></trkpt><trkpt lat="42.62004" lon="-7.2832133"><ele>1040.0</ele><time>2026-04-15T09:38:28.857Z</time></trkpt><trkpt lat="42.6200617" lon="-7.2833183"><ele>1042.3333333333335</ele><time>2026-04-15T09:38:29.856Z</time></trkpt><trkpt lat="42.6200967" lon="-7.2834233"><ele>1044.6666666666667</ele><time>2026-04-15T09:38:30.856Z</time></trkpt><trkpt lat="42.6201233" lon="-7.2835233"><ele>1047.0</ele><time>2026-04-15T09:38:31.856Z</time></trkpt><trkpt lat="42.6201517" lon="-7.283615"><ele>1049.3333333333333</ele><time>2026-04-15T09:38:32.856Z</time></trkpt><trkpt lat="42.6201933" lon="-7.2837067"><ele>1051.6666666666665</ele><time>2026-04-15T09:38:33.856Z</time></trkpt><trkpt lat="42.6202417" lon="-7.2837933"><ele>1054.0</ele><time>2026-04-15T09:38:34.856Z</time></trkpt><trkpt lat="42.6202933" lon="-7.283875"><ele>1051.3333333333333</ele><time>2026-04-15T09:38:35.856Z</time></trkpt><trkpt lat="42.62035" lon="-7.2839483"><ele>1048.6666666666665</ele><time>2026-04-15T09:38:36.857Z</time></trkpt><trkpt lat="42.62041" lon="-7.2840167"><ele>1046.0</ele><time>2026-04-15T09:38:37.857Z</time></trkpt><trkpt lat="42.6204767" lon="-7.2840733"><ele>1043.3333333333333</ele><time>2026-04-15T09:38:38.858Z</time></trkpt><trkpt lat="42.62055" lon="-7.2841183"><ele>1040.6666666666667</ele><time>2026-04-15T09:38:39.857Z</time></trkpt><trkpt lat="42.6206183" lon="-7.2841617"><ele>1038.0</ele><time>2026-04-15T09:38:40.857Z</time></trkpt><trkpt lat="42.6206833" lon="-7.2842017"><ele>1038.0</ele><time>2026-04-15T09:38:41.858Z</time></trkpt><trkpt lat="42.620745" lon="-7.2842533"><ele>1038.0</ele><time>2026-04-15T09:38:42.857Z</time></trkpt><trkpt lat="42.6207983" lon="-7.2843133"><ele>1038.0</ele><time>2026-04-15T09:38:43.858Z</time></trkpt><trkpt lat="42.620835" lon="-7.2843883"><ele>1038.0</ele><time>2026-04-15T09:38:44.857Z</time></trkpt><trkpt lat="42.6208533" lon="-7.284485"><ele>1038.0</ele><time>2026-04-15T09:38:45.858Z</time></trkpt><trkpt lat="42.6208483" lon="-7.284595"><ele>1038.0</ele><time>2026-04-15T09:38:46.858Z</time></trkpt><trkpt lat="42.6208333" lon="-7.284725"><ele>1041.1666666666667</ele><time>2026-04-15T09:38:47.857Z</time></trkpt><trkpt lat="42.6208117" lon="-7.284855"><ele>1044.3333333333333</ele><time>2026-04-15T09:38:48.858Z</time></trkpt><trkpt lat="42.6207867" lon="-7.2849867"><ele>1047.5</ele><time>2026-04-15T09:38:49.857Z</time></trkpt><trkpt lat="42.6207683" lon="-7.2851"><ele>1050.6666666666665</ele><time>2026-04-15T09:38:50.858Z</time></trkpt><trkpt lat="42.6207617" lon="-7.285205"><ele>1053.8333333333333</ele><time>2026-04-15T09:38:51.858Z</time></trkpt><trkpt lat="42.6207533" lon="-7.2853117"><ele>1057.0</ele><time>2026-04-15T09:38:52.858Z</time></trkpt><trkpt lat="42.620755" lon="-7.28542"><ele>1057.0</ele><time>2026-04-15T09:38:53.858Z</time></trkpt><trkpt lat="42.620765" lon="-7.2855367"><ele>1057.0</ele><time>2026-04-15T09:38:54.858Z</time></trkpt><trkpt lat="42.6207833" lon="-7.2856583"><ele>1057.0</ele><time>2026-04-15T09:38:55.857Z</time></trkpt><trkpt lat="42.6207967" lon="-7.2857767"><ele>1057.0</ele><time>2026-04-15T09:38:56.857Z</time></trkpt><trkpt lat="42.6208083" lon="-7.2858933"><ele>1057.0</ele><time>2026-04-15T09:38:57.858Z</time></trkpt><trkpt lat="42.6208133" lon="-7.2860117"><ele>1057.0</ele><time>2026-04-15T09:38:58.858Z</time></trkpt><trkpt lat="42.6208133" lon="-7.286125"><ele>1057.5</ele><time>2026-04-15T09:38:59.858Z</time></trkpt><trkpt lat="42.620815" lon="-7.2862383"><ele>1058.0</ele><time>2026-04-15T09:39:00.858Z</time></trkpt><trkpt lat="42.6208117" lon="-7.286345"><ele>1058.5</ele><time>2026-04-15T09:39:01.858Z</time></trkpt><trkpt lat="42.62081" lon="-7.2864533"><ele>1059.0</ele><time>2026-04-15T09:39:02.857Z</time></trkpt><trkpt lat="42.620805" lon="-7.2865583"><ele>1059.5</ele><time>2026-04-15T09:39:03.857Z</time></trkpt><trkpt lat="42.62081" lon="-7.28666"><ele>1060.0</ele><time>2026-04-15T09:39:04.858Z</time></trkpt><trkpt lat="42.620815" lon="-7.2867583"><ele>1060.0</ele><time>2026-04-15T09:39:05.858Z</time></trkpt><trkpt lat="42.6208267" lon="-7.28686"><ele>1060.0</ele><time>2026-04-15T09:39:06.857Z</time></trkpt><trkpt lat="42.6208367" lon="-7.2869633"><ele>1060.0</ele><time>2026-04-15T09:39:07.857Z</time></trkpt><trkpt lat="42.6208383" lon="-7.2870667"><ele>1060.0</ele><time>2026-04-15T09:39:08.857Z</time></trkpt><trkpt lat="42.620835" lon="-7.287175"><ele>1060.0</ele><time>2026-04-15T09:39:09.858Z</time></trkpt><trkpt lat="42.6208267" lon="-7.28728"><ele>1060.0</ele><time>2026-04-15T09:39:10.858Z</time></trkpt><trkpt lat="42.620815" lon="-7.2873817"><ele>1059.6666666666665</ele><time>2026-04-15T09:39:11.857Z</time></trkpt><trkpt lat="42.6207983" lon="-7.287485"><ele>1059.3333333333333</ele><time>2026-04-15T09:39:12.857Z</time></trkpt><trkpt lat="42.620775" lon="-7.287585"><ele>1059.0</ele><time>2026-04-15T09:39:13.857Z</time></trkpt><trkpt lat="42.62075" lon="-7.2876883"><ele>1058.6666666666667</ele><time>2026-04-15T09:39:14.858Z</time></trkpt><trkpt lat="42.6207283" lon="-7.2877967"><ele>1058.3333333333335</ele><time>2026-04-15T09:39:15.857Z</time></trkpt><trkpt lat="42.62071" lon="-7.2879067"><ele>1058.0</ele><time>2026-04-15T09:39:16.857Z</time></trkpt><trkpt lat="42.6207033" lon="-7.2880133"><ele>1056.6666666666667</ele><time>2026-04-15T09:39:17.857Z</time></trkpt><trkpt lat="42.6207033" lon="-7.2881167"><ele>1055.3333333333335</ele><time>2026-04-15T09:39:18.858Z</time></trkpt><trkpt lat="42.6207067" lon="-7.288225"><ele>1054.0</ele><time>2026-04-15T09:39:19.857Z</time></trkpt><trkpt lat="42.6207083" lon="-7.2883317"><ele>1052.6666666666667</ele><time>2026-04-15T09:39:20.858Z</time></trkpt><trkpt lat="42.62071" lon="-7.2884433"><ele>1051.3333333333333</ele><time>2026-04-15T09:39:21.857Z</time></trkpt><trkpt lat="42.6207033" lon="-7.2885483"><ele>1050.0</ele><time>2026-04-15T09:39:22.857Z</time></trkpt><trkpt lat="42.6207" lon="-7.288655"><ele>1050.0</ele><time>2026-04-15T09:39:23.857Z</time></trkpt><trkpt lat="42.6206867" lon="-7.28876"><ele>1050.0</ele><time>2026-04-15T09:39:24.857Z</time></trkpt><trkpt lat="42.6206717" lon="-7.2888617"><ele>1050.0</ele><time>2026-04-15T09:39:25.858Z</time></trkpt><trkpt lat="42.620655" lon="-7.2889567"><ele>1050.0</ele><time>2026-04-15T09:39:26.858Z</time></trkpt><trkpt lat="42.620635" lon="-7.289055"><ele>1050.0</ele><time>2026-04-15T09:39:27.858Z</time></trkpt><trkpt lat="42.6206183" lon="-7.28915"><ele>1050.0</ele><time>2026-04-15T09:39:28.858Z</time></trkpt><trkpt lat="42.6205983" lon="-7.28925"><ele>1050.1666666666667</ele><time>2026-04-15T09:39:29.858Z</time></trkpt><trkpt lat="42.6205767" lon="-7.2893567"><ele>1050.3333333333333</ele><time>2026-04-15T09:39:30.857Z</time></trkpt><trkpt lat="42.6205567" lon="-7.2894683"><ele>1050.5</ele><time>2026-04-15T09:39:31.857Z</time></trkpt><trkpt lat="42.6205383" lon="-7.28958"><ele>1050.6666666666665</ele><time>2026-04-15T09:39:32.858Z</time></trkpt><trkpt lat="42.6205183" lon="-7.2896767"><ele>1050.8333333333333</ele><time>2026-04-15T09:39:33.857Z</time></trkpt><trkpt lat="42.620495" lon="-7.2897683"><ele>1051.0</ele><time>2026-04-15T09:39:34.857Z</time></trkpt><trkpt lat="42.6204717" lon="-7.2898633"><ele>1051.142857142857</ele><time>2026-04-15T09:39:35.858Z</time></trkpt><trkpt lat="42.6204467" lon="-7.2899567"><ele>1051.2857142857142</ele><time>2026-04-15T09:39:36.857Z</time></trkpt><trkpt lat="42.6204233" lon="-7.290055"><ele>1051.4285714285713</ele><time>2026-04-15T09:39:37.858Z</time></trkpt><trkpt lat="42.6204017" lon="-7.29015"><ele>1051.5714285714284</ele><time>2026-04-15T09:39:38.857Z</time></trkpt><trkpt lat="42.6203867" lon="-7.290245"><ele>1051.7142857142856</ele><time>2026-04-15T09:39:39.857Z</time></trkpt><trkpt lat="42.62037" lon="-7.2903433"><ele>1051.857142857143</ele><time>2026-04-15T09:39:40.857Z</time></trkpt><trkpt lat="42.62035" lon="-7.2904333"><ele>1052.0</ele><time>2026-04-15T09:39:41.857Z</time></trkpt><trkpt lat="42.6203317" lon="-7.290525"><ele>1056.0</ele><time>2026-04-15T09:39:42.857Z</time></trkpt><trkpt lat="42.620305" lon="-7.2906083"><ele>1060.0</ele><time>2026-04-15T09:39:43.857Z</time></trkpt><trkpt lat="42.6202783" lon="-7.29069"><ele>1064.0</ele><time>2026-04-15T09:39:44.858Z</time></trkpt><trkpt lat="42.6202717" lon="-7.29083"><ele>1068.0</ele><time>2026-04-15T09:39:46.858Z</time></trkpt><trkpt lat="42.6203383" lon="-7.290865"><ele>1072.0</ele><time>2026-04-15T09:39:48.858Z</time></trkpt><trkpt lat="42.6203983" lon="-7.2908367"><ele>1076.0</ele><time>2026-04-15T09:39:49.858Z</time></trkpt><trkpt lat="42.62046" lon="-7.290805"><ele>1080.0</ele><time>2026-04-15T09:39:50.857Z</time></trkpt><trkpt lat="42.62052" lon="-7.290775"><ele>1080.0</ele><time>2026-04-15T09:39:51.857Z</time></trkpt><trkpt lat="42.62059" lon="-7.2907517"><ele>1080.0</ele><time>2026-04-15T09:39:52.857Z</time></trkpt><trkpt lat="42.6206567" lon="-7.2907417"><ele>1080.0</ele><time>2026-04-15T09:39:53.857Z</time></trkpt><trkpt lat="42.620725" lon="-7.2907267"><ele>1080.0</ele><time>2026-04-15T09:39:54.857Z</time></trkpt><trkpt lat="42.6207933" lon="-7.29071"><ele>1080.0</ele><time>2026-04-15T09:39:55.857Z</time></trkpt><trkpt lat="42.6208583" lon="-7.2907"><ele>1080.0</ele><time>2026-04-15T09:39:56.857Z</time></trkpt><trkpt lat="42.6209267" lon="-7.29069"><ele>1080.0</ele><time>2026-04-15T09:39:57.858Z</time></trkpt><trkpt lat="42.6209967" lon="-7.2906717"><ele>1080.0</ele><time>2026-04-15T09:39:58.858Z</time></trkpt><trkpt lat="42.62107" lon="-7.2906567"><ele>1080.0</ele><time>2026-04-15T09:39:59.858Z</time></trkpt><trkpt lat="42.6211383" lon="-7.290635"><ele>1080.0</ele><time>2026-04-15T09:40:00.857Z</time></trkpt><trkpt lat="42.621205" lon="-7.2906183"><ele>1080.0</ele><time>2026-04-15T09:40:01.858Z</time></trkpt><trkpt lat="42.621275" lon="-7.290595"><ele>1080.0</ele><time>2026-04-15T09:40:02.858Z</time></trkpt><trkpt lat="42.6213417" lon="-7.290565"><ele>1080.0</ele><time>2026-04-15T09:40:03.858Z</time></trkpt><trkpt lat="42.6214067" lon="-7.290535"><ele>1080.0</ele><time>2026-04-15T09:40:04.857Z</time></trkpt><trkpt lat="42.6214717" lon="-7.290505"><ele>1076.8</ele><time>2026-04-15T09:40:05.858Z</time></trkpt><trkpt lat="42.6215383" lon="-7.2904767"><ele>1073.6</ele><time>2026-04-15T09:40:06.858Z</time></trkpt><trkpt lat="42.6216" lon="-7.290445"><ele>1070.4</ele><time>2026-04-15T09:40:07.857Z</time></trkpt><trkpt lat="42.6217083" lon="-7.2903817"><ele>1067.2</ele><time>2026-04-15T09:40:09.857Z</time></trkpt><trkpt lat="42.6218117" lon="-7.2903217"><ele>1064.0</ele><time>2026-04-15T09:40:11.857Z</time></trkpt><trkpt lat="42.6219233" lon="-7.290245"><ele>1068.0</ele><time>2026-04-15T09:40:13.857Z</time></trkpt><trkpt lat="42.6219817" lon="-7.29021"><ele>1072.0</ele><time>2026-04-15T09:40:14.857Z</time></trkpt><trkpt lat="42.6220417" lon="-7.29017"><ele>1076.0</ele><time>2026-04-15T09:40:15.858Z</time></trkpt><trkpt lat="42.6221083" lon="-7.290125"><ele>1080.0</ele><time>2026-04-15T09:40:16.857Z</time></trkpt><trkpt lat="42.6221733" lon="-7.29008"><ele>1084.0</ele><time>2026-04-15T09:40:17.857Z</time></trkpt><trkpt lat="42.6222417" lon="-7.2900417"><ele>1088.0</ele><time>2026-04-15T09:40:18.857Z</time></trkpt><trkpt lat="42.6223067" lon="-7.290005"><ele>1092.0</ele><time>2026-04-15T09:40:19.857Z</time></trkpt><trkpt lat="42.6223683" lon="-7.2899667"><ele>1092.0</ele><time>2026-04-15T09:40:20.858Z</time></trkpt><trkpt lat="42.6224367" lon="-7.2899433"><ele>1092.0</ele><time>2026-04-15T09:40:21.858Z</time></trkpt><trkpt lat="42.6225033" lon="-7.28992"><ele>1092.0</ele><time>2026-04-15T09:40:22.857Z</time></trkpt><trkpt lat="42.6225733" lon="-7.2899117"><ele>1092.0</ele><time>2026-04-15T09:40:23.857Z</time></trkpt><trkpt lat="42.6226983" lon="-7.28991"><ele>1092.0</ele><time>2026-04-15T09:40:25.858Z</time></trkpt><trkpt lat="42.6227667" lon="-7.2899117"><ele>1092.0</ele><time>2026-04-15T09:40:26.858Z</time></trkpt><trkpt lat="42.6228367" lon="-7.289925"><ele>1093.3333333333333</ele><time>2026-04-15T09:40:27.858Z</time></trkpt><trkpt lat="42.6229083" lon="-7.2899517"><ele>1094.6666666666667</ele><time>2026-04-15T09:40:28.858Z</time></trkpt><trkpt lat="42.6229817" lon="-7.2899817"><ele>1096.0</ele><time>2026-04-15T09:40:29.858Z</time></trkpt><trkpt lat="42.623055" lon="-7.29001"><ele>1097.3333333333335</ele><time>2026-04-15T09:40:30.858Z</time></trkpt><trkpt lat="42.6231283" lon="-7.2900467"><ele>1098.6666666666667</ele><time>2026-04-15T09:40:31.858Z</time></trkpt><trkpt lat="42.6232017" lon="-7.29009"><ele>1100.0</ele><time>2026-04-15T09:40:32.858Z</time></trkpt><trkpt lat="42.6232717" lon="-7.2901383"><ele>1100.0</ele><time>2026-04-15T09:40:33.858Z</time></trkpt><trkpt lat="42.6233417" lon="-7.29019"><ele>1100.0</ele><time>2026-04-15T09:40:34.858Z</time></trkpt><trkpt lat="42.623405" lon="-7.29024"><ele>1100.0</ele><time>2026-04-15T09:40:35.858Z</time></trkpt><trkpt lat="42.6234917" lon="-7.2903633"><ele>1100.0</ele><time>2026-04-15T09:40:37.858Z</time></trkpt><trkpt lat="42.6235483" lon="-7.290515"><ele>1100.0</ele><time>2026-04-15T09:40:39.858Z</time></trkpt><trkpt lat="42.62357" lon="-7.2906783"><ele>1101.5</ele><time>2026-04-15T09:40:41.857Z</time></trkpt><trkpt lat="42.62357" lon="-7.2907667"><ele>1103.0</ele><time>2026-04-15T09:40:42.857Z</time></trkpt><trkpt lat="42.6235583" lon="-7.290915"><ele>1104.5</ele><time>2026-04-15T09:40:44.858Z</time></trkpt><trkpt lat="42.6235233" lon="-7.2910783"><ele>1106.0</ele><time>2026-04-15T09:40:46.857Z</time></trkpt><trkpt lat="42.6235033" lon="-7.291165"><ele>1107.5</ele><time>2026-04-15T09:40:47.858Z</time></trkpt><trkpt lat="42.62348" lon="-7.2912483"><ele>1109.0</ele><time>2026-04-15T09:40:48.857Z</time></trkpt><trkpt lat="42.6234417" lon="-7.29139"><ele>1108.8333333333335</ele><time>2026-04-15T09:40:50.857Z</time></trkpt><trkpt lat="42.623415" lon="-7.2915017"><ele>1108.6666666666667</ele><time>2026-04-15T09:40:52.858Z</time></trkpt><trkpt lat="42.6233883" lon="-7.2916267"><ele>1108.5</ele><time>2026-04-15T09:40:55.857Z</time></trkpt><trkpt lat="42.62337" lon="-7.2917617"><ele>1108.3333333333333</ele><time>2026-04-15T09:40:57.858Z</time></trkpt><trkpt lat="42.6233583" lon="-7.29185"><ele>1108.1666666666665</ele><time>2026-04-15T09:40:58.857Z</time></trkpt><trkpt lat="42.6233383" lon="-7.2919567"><ele>1108.0</ele><time>2026-04-15T09:40:59.858Z</time></trkpt><trkpt lat="42.6233083" lon="-7.2920783"><ele>1108.0</ele><time>2026-04-15T09:41:00.857Z</time></trkpt><trkpt lat="42.6232867" lon="-7.2921983"><ele>1108.0</ele><time>2026-04-15T09:41:01.858Z</time></trkpt><trkpt lat="42.62327" lon="-7.2923217"><ele>1108.0</ele><time>2026-04-15T09:41:02.858Z</time></trkpt><trkpt lat="42.6232533" lon="-7.29246"><ele>1108.0</ele><time>2026-04-15T09:41:03.857Z</time></trkpt><trkpt lat="42.6232367" lon="-7.2925917"><ele>1108.0</ele><time>2026-04-15T09:41:04.858Z</time></trkpt><trkpt lat="42.623215" lon="-7.2926933"><ele>1107.0</ele><time>2026-04-15T09:41:05.858Z</time></trkpt><trkpt lat="42.6231817" lon="-7.29277"><ele>1106.0</ele><time>2026-04-15T09:41:06.857Z</time></trkpt><trkpt lat="42.6231433" lon="-7.29285"><ele>1105.0</ele><time>2026-04-15T09:41:07.858Z</time></trkpt><trkpt lat="42.6231033" lon="-7.2929317"><ele>1104.0</ele><time>2026-04-15T09:41:08.857Z</time></trkpt><trkpt lat="42.623055" lon="-7.2929967"><ele>1103.0</ele><time>2026-04-15T09:41:09.857Z</time></trkpt><trkpt lat="42.6230017" lon="-7.2930533"><ele>1102.0</ele><time>2026-04-15T09:41:10.857Z</time></trkpt><trkpt lat="42.622945" lon="-7.2931067"><ele>1101.0</ele><time>2026-04-15T09:41:11.858Z</time></trkpt><trkpt lat="42.6228917" lon="-7.2931633"><ele>1099.7142857142858</ele><time>2026-04-15T09:41:12.857Z</time></trkpt><trkpt lat="42.62283" lon="-7.2932083"><ele>1098.4285714285713</ele><time>2026-04-15T09:41:13.858Z</time></trkpt><trkpt lat="42.6227667" lon="-7.2932583"><ele>1097.142857142857</ele><time>2026-04-15T09:41:14.857Z</time></trkpt><trkpt lat="42.6227033" lon="-7.2933033"><ele>1095.857142857143</ele><time>2026-04-15T09:41:15.857Z</time></trkpt><trkpt lat="42.6226367" lon="-7.2933433"><ele>1094.5714285714284</ele><time>2026-04-15T09:41:16.857Z</time></trkpt><trkpt lat="42.6225733" lon="-7.29339"><ele>1093.2857142857142</ele><time>2026-04-15T09:41:17.858Z</time></trkpt><trkpt lat="42.6225167" lon="-7.293435"><ele>1092.0</ele><time>2026-04-15T09:41:18.858Z</time></trkpt><trkpt lat="42.6224567" lon="-7.2934833"><ele>1094.857142857143</ele><time>2026-04-15T09:41:19.858Z</time></trkpt><trkpt lat="42.6223967" lon="-7.2935367"><ele>1097.7142857142858</ele><time>2026-04-15T09:41:20.857Z</time></trkpt><trkpt lat="42.6223333" lon="-7.29358"><ele>1100.5714285714284</ele><time>2026-04-15T09:41:21.857Z</time></trkpt><trkpt lat="42.6222667" lon="-7.293625"><ele>1103.4285714285716</ele><time>2026-04-15T09:41:22.858Z</time></trkpt><trkpt lat="42.62221" lon="-7.29368"><ele>1106.2857142857142</ele><time>2026-04-15T09:41:23.857Z</time></trkpt><trkpt lat="42.6221483" lon="-7.2937433"><ele>1109.142857142857</ele><time>2026-04-15T09:41:24.857Z</time></trkpt><trkpt lat="42.6220883" lon="-7.2938183"><ele>1112.0</ele><time>2026-04-15T09:41:25.857Z</time></trkpt><trkpt lat="42.6220267" lon="-7.2938883"><ele>1112.8333333333335</ele><time>2026-04-15T09:41:26.858Z</time></trkpt><trkpt lat="42.6219717" lon="-7.2939483"><ele>1113.6666666666667</ele><time>2026-04-15T09:41:27.858Z</time></trkpt><trkpt lat="42.6219183" lon="-7.2940283"><ele>1114.5</ele><time>2026-04-15T09:41:28.858Z</time></trkpt><trkpt lat="42.6218767" lon="-7.2941067"><ele>1115.3333333333333</ele><time>2026-04-15T09:41:29.857Z</time></trkpt><trkpt lat="42.62184" lon="-7.2942033"><ele>1116.1666666666665</ele><time>2026-04-15T09:41:30.857Z</time></trkpt><trkpt lat="42.621805" lon="-7.2943183"><ele>1117.0</ele><time>2026-04-15T09:41:31.857Z</time></trkpt><trkpt lat="42.6217783" lon="-7.2944367"><ele>1117.0</ele><time>2026-04-15T09:41:32.858Z</time></trkpt><trkpt lat="42.6217467" lon="-7.29456"><ele>1117.0</ele><time>2026-04-15T09:41:33.857Z</time></trkpt><trkpt lat="42.6217117" lon="-7.2946783"><ele>1117.0</ele><time>2026-04-15T09:41:34.857Z</time></trkpt><trkpt lat="42.6216783" lon="-7.2947833"><ele>1117.0</ele><time>2026-04-15T09:41:35.858Z</time></trkpt><trkpt lat="42.6216383" lon="-7.29488"><ele>1117.0</ele><time>2026-04-15T09:41:36.857Z</time></trkpt><trkpt lat="42.6215983" lon="-7.29497"><ele>1117.0</ele><time>2026-04-15T09:41:37.857Z</time></trkpt><trkpt lat="42.62156" lon="-7.295055"><ele>1114.6666666666665</ele><time>2026-04-15T09:41:38.857Z</time></trkpt><trkpt lat="42.6215183" lon="-7.2951317"><ele>1112.3333333333333</ele><time>2026-04-15T09:41:39.857Z</time></trkpt><trkpt lat="42.6214767" lon="-7.2952017"><ele>1110.0</ele><time>2026-04-15T09:41:40.857Z</time></trkpt><trkpt lat="42.621435" lon="-7.2952683"><ele>1107.6666666666667</ele><time>2026-04-15T09:41:41.858Z</time></trkpt><trkpt lat="42.6213683" lon="-7.2954017"><ele>1105.3333333333335</ele><time>2026-04-15T09:41:43.858Z</time></trkpt><trkpt lat="42.6213117" lon="-7.29555"><ele>1103.0</ele><time>2026-04-15T09:41:45.858Z</time></trkpt><trkpt lat="42.6212633" lon="-7.29571"><ele>1104.5714285714287</ele><time>2026-04-15T09:41:47.858Z</time></trkpt><trkpt lat="42.6212183" lon="-7.295785"><ele>1106.142857142857</ele><time>2026-04-15T09:41:48.857Z</time></trkpt><trkpt lat="42.6211667" lon="-7.2958583"><ele>1107.7142857142858</ele><time>2026-04-15T09:41:49.857Z</time></trkpt><trkpt lat="42.6211217" lon="-7.295925"><ele>1109.2857142857142</ele><time>2026-04-15T09:41:50.858Z</time></trkpt><trkpt lat="42.6210767" lon="-7.2960067"><ele>1110.857142857143</ele><time>2026-04-15T09:41:51.858Z</time></trkpt><trkpt lat="42.6210383" lon="-7.2960883"><ele>1112.4285714285716</ele><time>2026-04-15T09:41:52.857Z</time></trkpt><trkpt lat="42.620995" lon="-7.2961833"><ele>1114.0</ele><time>2026-04-15T09:41:53.857Z</time></trkpt><trkpt lat="42.6209483" lon="-7.296275"><ele>1114.0</ele><time>2026-04-15T09:41:54.858Z</time></trkpt><trkpt lat="42.6208967" lon="-7.2963567"><ele>1114.0</ele><time>2026-04-15T09:41:55.857Z</time></trkpt><trkpt lat="42.6208483" lon="-7.29643"><ele>1114.0</ele><time>2026-04-15T09:41:56.858Z</time></trkpt><trkpt lat="42.620805" lon="-7.29651"><ele>1114.0</ele><time>2026-04-15T09:41:57.857Z</time></trkpt><trkpt lat="42.6207617" lon="-7.2965933"><ele>1114.0</ele><time>2026-04-15T09:41:58.858Z</time></trkpt><trkpt lat="42.6207117" lon="-7.2966883"><ele>1114.0</ele><time>2026-04-15T09:41:59.858Z</time></trkpt><trkpt lat="42.6206567" lon="-7.29677"><ele>1115.1666666666665</ele><time>2026-04-15T09:42:00.857Z</time></trkpt><trkpt lat="42.6206" lon="-7.296845"><ele>1116.3333333333333</ele><time>2026-04-15T09:42:01.857Z</time></trkpt><trkpt lat="42.6205417" lon="-7.2969167"><ele>1117.5</ele><time>2026-04-15T09:42:02.857Z</time></trkpt><trkpt lat="42.6204817" lon="-7.2969783"><ele>1118.6666666666667</ele><time>2026-04-15T09:42:03.857Z</time></trkpt><trkpt lat="42.620425" lon="-7.2970383"><ele>1119.8333333333335</ele><time>2026-04-15T09:42:04.857Z</time></trkpt><trkpt lat="42.6203633" lon="-7.2971133"><ele>1121.0</ele><time>2026-04-15T09:42:05.857Z</time></trkpt><trkpt lat="42.6203" lon="-7.2971967"><ele>1118.6666666666667</ele><time>2026-04-15T09:42:06.858Z</time></trkpt><trkpt lat="42.62024" lon="-7.2972717"><ele>1116.3333333333335</ele><time>2026-04-15T09:42:07.858Z</time></trkpt><trkpt lat="42.6201817" lon="-7.2973467"><ele>1114.0</ele><time>2026-04-15T09:42:08.858Z</time></trkpt><trkpt lat="42.62012" lon="-7.2974233"><ele>1111.6666666666667</ele><time>2026-04-15T09:42:09.858Z</time></trkpt><trkpt lat="42.6200633" lon="-7.2975033"><ele>1109.3333333333333</ele><time>2026-04-15T09:42:10.857Z</time></trkpt><trkpt lat="42.6200083" lon="-7.2975983"><ele>1107.0</ele><time>2026-04-15T09:42:11.857Z</time></trkpt><trkpt lat="42.61996" lon="-7.2976983"><ele>1107.0</ele><time>2026-04-15T09:42:12.857Z</time></trkpt><trkpt lat="42.6199267" lon="-7.2977933"><ele>1107.0</ele><time>2026-04-15T09:42:13.857Z</time></trkpt><trkpt lat="42.6199033" lon="-7.2978883"><ele>1107.0</ele><time>2026-04-15T09:42:14.857Z</time></trkpt><trkpt lat="42.619895" lon="-7.2979833"><ele>1107.0</ele><time>2026-04-15T09:42:15.857Z</time></trkpt><trkpt lat="42.6199167" lon="-7.298075"><ele>1107.0</ele><time>2026-04-15T09:42:16.858Z</time></trkpt><trkpt lat="42.6199533" lon="-7.2981783"><ele>1107.0</ele><time>2026-04-15T09:42:17.857Z</time></trkpt><trkpt lat="42.6200183" lon="-7.298275"><ele>1106.2</ele><time>2026-04-15T09:42:18.857Z</time></trkpt><trkpt lat="42.6200767" lon="-7.2983783"><ele>1105.4</ele><time>2026-04-15T09:42:19.858Z</time></trkpt><trkpt lat="42.62014" lon="-7.2984767"><ele>1104.6</ele><time>2026-04-15T09:42:20.858Z</time></trkpt><trkpt lat="42.6201667" lon="-7.2985967"><ele>1103.8</ele><time>2026-04-15T09:42:21.857Z</time></trkpt><trkpt lat="42.6201917" lon="-7.298715"><ele>1103.0</ele><time>2026-04-15T09:42:22.857Z</time></trkpt><trkpt lat="42.6202167" lon="-7.29883"><ele>1103.6666666666667</ele><time>2026-04-15T09:42:23.857Z</time></trkpt><trkpt lat="42.6202233" lon="-7.298955"><ele>1104.3333333333335</ele><time>2026-04-15T09:42:24.857Z</time></trkpt><trkpt lat="42.62023" lon="-7.2990733"><ele>1105.0</ele><time>2026-04-15T09:42:25.857Z</time></trkpt><trkpt lat="42.6202333" lon="-7.29919"><ele>1105.6666666666667</ele><time>2026-04-15T09:42:26.858Z</time></trkpt><trkpt lat="42.620235" lon="-7.299305"><ele>1106.3333333333333</ele><time>2026-04-15T09:42:27.857Z</time></trkpt><trkpt lat="42.6202283" lon="-7.2994217"><ele>1107.0</ele><time>2026-04-15T09:42:28.857Z</time></trkpt><trkpt lat="42.6202133" lon="-7.2995467"><ele>1107.0</ele><time>2026-04-15T09:42:29.857Z</time></trkpt><trkpt lat="42.6202" lon="-7.2996617"><ele>1107.0</ele><time>2026-04-15T09:42:30.858Z</time></trkpt><trkpt lat="42.6201717" lon="-7.29976"><ele>1107.0</ele><time>2026-04-15T09:42:31.858Z</time></trkpt><trkpt lat="42.6201367" lon="-7.29984"><ele>1107.0</ele><time>2026-04-15T09:42:32.858Z</time></trkpt><trkpt lat="42.62003" lon="-7.299895"><ele>1107.0</ele><time>2026-04-15T09:42:34.857Z</time></trkpt><trkpt lat="42.61997" lon="-7.29984"><ele>1107.0</ele><time>2026-04-15T09:42:35.857Z</time></trkpt><trkpt lat="42.619915" lon="-7.2997433"><ele>1107.0</ele><time>2026-04-15T09:42:36.857Z</time></trkpt><trkpt lat="42.61986" lon="-7.2996383"><ele>1107.0</ele><time>2026-04-15T09:42:37.857Z</time></trkpt><trkpt lat="42.6198067" lon="-7.2995283"><ele>1107.0</ele><time>2026-04-15T09:42:38.857Z</time></trkpt><trkpt lat="42.61975" lon="-7.2994217"><ele>1107.0</ele><time>2026-04-15T09:42:39.857Z</time></trkpt><trkpt lat="42.6196817" lon="-7.2993217"><ele>1107.0</ele><time>2026-04-15T09:42:40.857Z</time></trkpt><trkpt lat="42.6196217" lon="-7.2992183"><ele>1107.0</ele><time>2026-04-15T09:42:41.858Z</time></trkpt><trkpt lat="42.6195633" lon="-7.2991117"><ele>1107.0</ele><time>2026-04-15T09:42:42.857Z</time></trkpt><trkpt lat="42.6195117" lon="-7.2990233"><ele>1107.0</ele><time>2026-04-15T09:42:43.857Z</time></trkpt><trkpt lat="42.6194617" lon="-7.29893"><ele>1107.0</ele><time>2026-04-15T09:42:44.858Z</time></trkpt><trkpt lat="42.6194167" lon="-7.298835"><ele>1107.0</ele><time>2026-04-15T09:42:45.857Z</time></trkpt><trkpt lat="42.619365" lon="-7.298745"><ele>1107.0</ele><time>2026-04-15T09:42:46.857Z</time></trkpt><trkpt lat="42.6193117" lon="-7.2986517"><ele>1107.8333333333333</ele><time>2026-04-15T09:42:47.857Z</time></trkpt><trkpt lat="42.6192633" lon="-7.2985567"><ele>1108.6666666666667</ele><time>2026-04-15T09:42:48.857Z</time></trkpt><trkpt lat="42.6192117" lon="-7.2984583"><ele>1109.5</ele><time>2026-04-15T09:42:49.857Z</time></trkpt><trkpt lat="42.6191633" lon="-7.2983617"><ele>1110.3333333333335</ele><time>2026-04-15T09:42:50.858Z</time></trkpt><trkpt lat="42.6191117" lon="-7.2982717"><ele>1111.1666666666667</ele><time>2026-04-15T09:42:51.857Z</time></trkpt><trkpt lat="42.6190517" lon="-7.29818"><ele>1112.0</ele><time>2026-04-15T09:42:52.857Z</time></trkpt><trkpt lat="42.6189933" lon="-7.2980917"><ele>1113.5</ele><time>2026-04-15T09:42:53.857Z</time></trkpt><trkpt lat="42.618935" lon="-7.2980067"><ele>1115.0</ele><time>2026-04-15T09:42:54.857Z</time></trkpt><trkpt lat="42.6188767" lon="-7.297915"><ele>1116.5</ele><time>2026-04-15T09:42:55.857Z</time></trkpt><trkpt lat="42.61881" lon="-7.29784"><ele>1118.0</ele><time>2026-04-15T09:42:56.858Z</time></trkpt><trkpt lat="42.6187317" lon="-7.2977783"><ele>1119.5</ele><time>2026-04-15T09:42:57.858Z</time></trkpt><trkpt lat="42.6186467" lon="-7.2977333"><ele>1121.0</ele><time>2026-04-15T09:42:58.858Z</time></trkpt><trkpt lat="42.6185683" lon="-7.2977133"><ele>1121.5</ele><time>2026-04-15T09:42:59.858Z</time></trkpt><trkpt lat="42.6184867" lon="-7.297715"><ele>1122.0</ele><time>2026-04-15T09:43:00.857Z</time></trkpt><trkpt lat="42.6184017" lon="-7.2977217"><ele>1122.5</ele><time>2026-04-15T09:43:01.858Z</time></trkpt><trkpt lat="42.6183133" lon="-7.2977267"><ele>1123.0</ele><time>2026-04-15T09:43:02.857Z</time></trkpt><trkpt lat="42.6182317" lon="-7.2977133"><ele>1123.5</ele><time>2026-04-15T09:43:03.857Z</time></trkpt><trkpt lat="42.6181533" lon="-7.2976767"><ele>1124.0</ele><time>2026-04-15T09:43:04.858Z</time></trkpt><trkpt lat="42.6180817" lon="-7.29762"><ele>1124.0</ele><time>2026-04-15T09:43:05.857Z</time></trkpt><trkpt lat="42.6180317" lon="-7.297555"><ele>1124.0</ele><time>2026-04-15T09:43:06.857Z</time></trkpt><trkpt lat="42.6179783" lon="-7.2974733"><ele>1124.0</ele><time>2026-04-15T09:43:08.857Z</time></trkpt><trkpt lat="42.6179317" lon="-7.2973983"><ele>1124.0</ele><time>2026-04-15T09:43:10.857Z</time></trkpt><trkpt lat="42.6178983" lon="-7.297315"><ele>1124.0</ele><time>2026-04-15T09:43:11.857Z</time></trkpt><trkpt lat="42.61786" lon="-7.297205"><ele>1124.0</ele><time>2026-04-15T09:43:12.857Z</time></trkpt><trkpt lat="42.617815" lon="-7.29705"><ele>1125.3333333333335</ele><time>2026-04-15T09:43:13.857Z</time></trkpt><trkpt lat="42.6177683" lon="-7.2968617"><ele>1126.6666666666667</ele><time>2026-04-15T09:43:14.857Z</time></trkpt><trkpt lat="42.6177117" lon="-7.2966517"><ele>1128.0</ele><time>2026-04-15T09:43:15.858Z</time></trkpt><trkpt lat="42.6176433" lon="-7.2964233"><ele>1131.0</ele><time>2026-04-15T09:43:16.858Z</time></trkpt><trkpt lat="42.6175567" lon="-7.2961883"><ele>1134.0</ele><time>2026-04-15T09:43:17.858Z</time></trkpt><trkpt lat="42.6174517" lon="-7.2959483"><ele>1137.0</ele><time>2026-04-15T09:43:18.857Z</time></trkpt><trkpt lat="42.617335" lon="-7.2957167"><ele>1139.6666666666667</ele><time>2026-04-15T09:43:19.858Z</time></trkpt><trkpt lat="42.6172233" lon="-7.295505"><ele>1142.3333333333335</ele><time>2026-04-15T09:43:20.858Z</time></trkpt><trkpt lat="42.6171267" lon="-7.2952967"><ele>1145.0</ele><time>2026-04-15T09:43:21.857Z</time></trkpt><trkpt lat="42.61706" lon="-7.2951083"><ele>1145.0</ele><time>2026-04-15T09:43:22.858Z</time></trkpt><trkpt lat="42.617015" lon="-7.294925"><ele>1145.0</ele><time>2026-04-15T09:43:23.857Z</time></trkpt><trkpt lat="42.61699" lon="-7.2947433"><ele>1145.0</ele><time>2026-04-15T09:43:24.858Z</time></trkpt><trkpt lat="42.6169517" lon="-7.2945783"><ele>1145.0</ele><time>2026-04-15T09:43:25.858Z</time></trkpt><trkpt lat="42.61688" lon="-7.2944633"><ele>1145.0</ele><time>2026-04-15T09:43:26.857Z</time></trkpt><trkpt lat="42.6167817" lon="-7.2943767"><ele>1145.0</ele><time>2026-04-15T09:43:27.858Z</time></trkpt><trkpt lat="42.616655" lon="-7.29433"><ele>1145.0</ele><time>2026-04-15T09:43:28.858Z</time></trkpt><trkpt lat="42.61652" lon="-7.29429"><ele>1145.0</ele><time>2026-04-15T09:43:29.857Z</time></trkpt><trkpt lat="42.6163733" lon="-7.29423"><ele>1145.0</ele><time>2026-04-15T09:43:30.857Z</time></trkpt><trkpt lat="42.616225" lon="-7.29416"><ele>1145.0</ele><time>2026-04-15T09:43:31.858Z</time></trkpt><trkpt lat="42.6160633" lon="-7.2941133"><ele>1145.0</ele><time>2026-04-15T09:43:32.858Z</time></trkpt><trkpt lat="42.6159017" lon="-7.2940817"><ele>1145.6666666666667</ele><time>2026-04-15T09:43:33.857Z</time></trkpt><trkpt lat="42.6157267" lon="-7.2940717"><ele>1146.3333333333333</ele><time>2026-04-15T09:43:34.857Z</time></trkpt><trkpt lat="42.6155367" lon="-7.2940583"><ele>1147.0</ele><time>2026-04-15T09:43:35.858Z</time></trkpt><trkpt lat="42.6153333" lon="-7.2940367"><ele>1150.0</ele><time>2026-04-15T09:43:36.857Z</time></trkpt><trkpt lat="42.6151217" lon="-7.2940317"><ele>1153.0</ele><time>2026-04-15T09:43:37.857Z</time></trkpt><trkpt lat="42.6149067" lon="-7.294055"><ele>1156.0</ele><time>2026-04-15T09:43:38.858Z</time></trkpt><trkpt lat="42.6146767" lon="-7.294105"><ele>1157.3333333333333</ele><time>2026-04-15T09:43:39.857Z</time></trkpt><trkpt lat="42.6144517" lon="-7.294155"><ele>1158.6666666666667</ele><time>2026-04-15T09:43:40.858Z</time></trkpt><trkpt lat="42.614255" lon="-7.2941933"><ele>1160.0</ele><time>2026-04-15T09:43:41.858Z</time></trkpt><trkpt lat="42.614085" lon="-7.2942417"><ele>1160.0</ele><time>2026-04-15T09:43:42.858Z</time></trkpt><trkpt lat="42.61393" lon="-7.2943117"><ele>1160.0</ele><time>2026-04-15T09:43:43.858Z</time></trkpt><trkpt lat="42.613785" lon="-7.29439"><ele>1160.0</ele><time>2026-04-15T09:43:44.857Z</time></trkpt><trkpt lat="42.613645" lon="-7.2944633"><ele>1160.75</ele><time>2026-04-15T09:43:45.858Z</time></trkpt><trkpt lat="42.6135167" lon="-7.2945017"><ele>1161.5</ele><time>2026-04-15T09:43:46.858Z</time></trkpt><trkpt lat="42.61338" lon="-7.2945117"><ele>1162.25</ele><time>2026-04-15T09:43:47.858Z</time></trkpt><trkpt lat="42.6132383" lon="-7.2945"><ele>1163.0</ele><time>2026-04-15T09:43:48.858Z</time></trkpt><trkpt lat="42.6130933" lon="-7.2944817"><ele>1163.0</ele><time>2026-04-15T09:43:49.858Z</time></trkpt><trkpt lat="42.6129383" lon="-7.29447"><ele>1163.0</ele><time>2026-04-15T09:43:50.857Z</time></trkpt><trkpt lat="42.6127817" lon="-7.2944583"><ele>1163.0</ele><time>2026-04-15T09:43:51.858Z</time></trkpt><trkpt lat="42.6126167" lon="-7.294445"><ele>1162.6666666666667</ele><time>2026-04-15T09:43:52.857Z</time></trkpt><trkpt lat="42.61245" lon="-7.2944267"><ele>1162.3333333333333</ele><time>2026-04-15T09:43:53.858Z</time></trkpt><trkpt lat="42.61228" lon="-7.2944167"><ele>1162.0</ele><time>2026-04-15T09:43:54.857Z</time></trkpt><trkpt lat="42.612115" lon="-7.294425"><ele>1161.3333333333333</ele><time>2026-04-15T09:43:55.858Z</time></trkpt><trkpt lat="42.6119433" lon="-7.2944517"><ele>1160.6666666666667</ele><time>2026-04-15T09:43:56.857Z</time></trkpt><trkpt lat="42.6117833" lon="-7.2944833"><ele>1160.0</ele><time>2026-04-15T09:43:57.857Z</time></trkpt><trkpt lat="42.6116317" lon="-7.2945233"><ele>1160.0</ele><time>2026-04-15T09:43:58.857Z</time></trkpt><trkpt lat="42.6114883" lon="-7.294565"><ele>1160.0</ele><time>2026-04-15T09:43:59.857Z</time></trkpt><trkpt lat="42.6113367" lon="-7.2946417"><ele>1160.0</ele><time>2026-04-15T09:44:00.857Z</time></trkpt><trkpt lat="42.6111867" lon="-7.2947517"><ele>1155.6666666666667</ele><time>2026-04-15T09:44:01.857Z</time></trkpt><trkpt lat="42.6110383" lon="-7.2948867"><ele>1151.3333333333333</ele><time>2026-04-15T09:44:02.858Z</time></trkpt><trkpt lat="42.6108867" lon="-7.2950283"><ele>1147.0</ele><time>2026-04-15T09:44:03.857Z</time></trkpt><trkpt lat="42.6107417" lon="-7.2952167"><ele>1147.0</ele><time>2026-04-15T09:44:04.858Z</time></trkpt><trkpt lat="42.6105917" lon="-7.2954233"><ele>1147.0</ele><time>2026-04-15T09:44:05.858Z</time></trkpt><trkpt lat="42.6104517" lon="-7.29564"><ele>1147.0</ele><time>2026-04-15T09:44:06.857Z</time></trkpt><trkpt lat="42.6103017" lon="-7.2958783"><ele>1147.0</ele><time>2026-04-15T09:44:07.858Z</time></trkpt><trkpt lat="42.610155" lon="-7.2961033"><ele>1147.0</ele><time>2026-04-15T09:44:08.857Z</time></trkpt><trkpt lat="42.6100183" lon="-7.2963133"><ele>1147.0</ele><time>2026-04-15T09:44:09.857Z</time></trkpt><trkpt lat="42.6098817" lon="-7.296515"><ele>1148.0</ele><time>2026-04-15T09:44:10.857Z</time></trkpt><trkpt lat="42.609735" lon="-7.29673"><ele>1149.0</ele><time>2026-04-15T09:44:11.857Z</time></trkpt><trkpt lat="42.6095767" lon="-7.2969433"><ele>1150.0</ele><time>2026-04-15T09:44:12.858Z</time></trkpt><trkpt lat="42.609415" lon="-7.29718"><ele>1138.5</ele><time>2026-04-15T09:44:13.857Z</time></trkpt><trkpt lat="42.609265" lon="-7.2974167"><ele>1127.0</ele><time>2026-04-15T09:44:14.857Z</time></trkpt><trkpt lat="42.6091117" lon="-7.2976483"><ele>1127.0</ele><time>2026-04-15T09:44:15.858Z</time></trkpt><trkpt lat="42.6089617" lon="-7.2978633"><ele>1127.0</ele><time>2026-04-15T09:44:16.857Z</time></trkpt><trkpt lat="42.6088117" lon="-7.2980867"><ele>1127.0</ele><time>2026-04-15T09:44:17.858Z</time></trkpt><trkpt lat="42.6086783" lon="-7.2983017"><ele>1127.6666666666667</ele><time>2026-04-15T09:44:18.857Z</time></trkpt><trkpt lat="42.608555" lon="-7.2985117"><ele>1128.3333333333333</ele><time>2026-04-15T09:44:19.857Z</time></trkpt><trkpt lat="42.6084333" lon="-7.29871"><ele>1129.0</ele><time>2026-04-15T09:44:20.858Z</time></trkpt><trkpt lat="42.6083067" lon="-7.2989017"><ele>1122.6666666666665</ele><time>2026-04-15T09:44:21.857Z</time></trkpt><trkpt lat="42.6081833" lon="-7.2990683"><ele>1116.3333333333333</ele><time>2026-04-15T09:44:22.858Z</time></trkpt><trkpt lat="42.608055" lon="-7.2992067"><ele>1110.0</ele><time>2026-04-15T09:44:23.857Z</time></trkpt><trkpt lat="42.607925" lon="-7.2993133"><ele>1110.5</ele><time>2026-04-15T09:44:24.857Z</time></trkpt><trkpt lat="42.60779" lon="-7.2993933"><ele>1111.0</ele><time>2026-04-15T09:44:25.858Z</time></trkpt><trkpt lat="42.6076483" lon="-7.2994417"><ele>1111.5</ele><time>2026-04-15T09:44:26.857Z</time></trkpt><trkpt lat="42.60752" lon="-7.299445"><ele>1112.0</ele><time>2026-04-15T09:44:27.858Z</time></trkpt><trkpt lat="42.6074217" lon="-7.2994417"><ele>1112.0</ele><time>2026-04-15T09:44:28.858Z</time></trkpt><trkpt lat="42.607355" lon="-7.299425"><ele>1112.0</ele><time>2026-04-15T09:44:29.857Z</time></trkpt><trkpt lat="42.607295" lon="-7.2993833"><ele>1112.0</ele><time>2026-04-15T09:44:31.858Z</time></trkpt><trkpt lat="42.607285" lon="-7.299285"><ele>1112.0</ele><time>2026-04-15T09:44:38.858Z</time></trkpt><trkpt lat="42.607205" lon="-7.2991483"><ele>1112.0</ele><time>2026-04-15T09:44:40.858Z</time></trkpt><trkpt lat="42.6071267" lon="-7.2990467"><ele>1112.0</ele><time>2026-04-15T09:44:41.858Z</time></trkpt><trkpt lat="42.6070283" lon="-7.2989117"><ele>1110.0</ele><time>2026-04-15T09:44:42.858Z</time></trkpt><trkpt lat="42.6069183" lon="-7.298765"><ele>1108.0</ele><time>2026-04-15T09:44:43.857Z</time></trkpt><trkpt lat="42.6068083" lon="-7.298615"><ele>1106.0</ele><time>2026-04-15T09:44:44.858Z</time></trkpt><trkpt lat="42.6067133" lon="-7.2984617"><ele>1106.0</ele><time>2026-04-15T09:44:45.858Z</time></trkpt><trkpt lat="42.60661" lon="-7.2983017"><ele>1106.0</ele><time>2026-04-15T09:44:46.857Z</time></trkpt><trkpt lat="42.6065183" lon="-7.2981383"><ele>1106.0</ele><time>2026-04-15T09:44:47.858Z</time></trkpt><trkpt lat="42.6064133" lon="-7.29796"><ele>1101.3333333333335</ele><time>2026-04-15T09:44:48.857Z</time></trkpt><trkpt lat="42.6063" lon="-7.2977533"><ele>1096.6666666666667</ele><time>2026-04-15T09:44:49.858Z</time></trkpt><trkpt lat="42.6061767" lon="-7.2975517"><ele>1092.0</ele><time>2026-04-15T09:44:50.858Z</time></trkpt><trkpt lat="42.6060833" lon="-7.2973783"><ele>1093.5</ele><time>2026-04-15T09:44:51.857Z</time></trkpt><trkpt lat="42.6060033" lon="-7.2972317"><ele>1095.0</ele><time>2026-04-15T09:44:52.857Z</time></trkpt><trkpt lat="42.6059583" lon="-7.2970583"><ele>1096.5</ele><time>2026-04-15T09:44:53.857Z</time></trkpt><trkpt lat="42.60593" lon="-7.2968567"><ele>1098.0</ele><time>2026-04-15T09:44:54.857Z</time></trkpt><trkpt lat="42.6059167" lon="-7.2966433"><ele>1098.0</ele><time>2026-04-15T09:44:55.858Z</time></trkpt><trkpt lat="42.6059133" lon="-7.296425"><ele>1098.0</ele><time>2026-04-15T09:44:56.857Z</time></trkpt><trkpt lat="42.60592" lon="-7.2962017"><ele>1098.0</ele><time>2026-04-15T09:44:57.858Z</time></trkpt><trkpt lat="42.6059367" lon="-7.2959633"><ele>1098.3333333333333</ele><time>2026-04-15T09:44:58.857Z</time></trkpt><trkpt lat="42.6059667" lon="-7.2957067"><ele>1098.6666666666665</ele><time>2026-04-15T09:44:59.857Z</time></trkpt><trkpt lat="42.6060017" lon="-7.295455"><ele>1099.0</ele><time>2026-04-15T09:45:00.857Z</time></trkpt><trkpt lat="42.6060367" lon="-7.2952133"><ele>1098.3333333333333</ele><time>2026-04-15T09:45:01.857Z</time></trkpt><trkpt lat="42.6060733" lon="-7.2949783"><ele>1097.6666666666667</ele><time>2026-04-15T09:45:02.857Z</time></trkpt><trkpt lat="42.606115" lon="-7.2947617"><ele>1097.0</ele><time>2026-04-15T09:45:03.857Z</time></trkpt><trkpt lat="42.6061617" lon="-7.29455"><ele>1108.0</ele><time>2026-04-15T09:45:04.857Z</time></trkpt><trkpt lat="42.606205" lon="-7.29434"><ele>1119.0</ele><time>2026-04-15T09:45:05.857Z</time></trkpt><trkpt lat="42.6062317" lon="-7.2941267"><ele>1130.0</ele><time>2026-04-15T09:45:06.857Z</time></trkpt><trkpt lat="42.60623" lon="-7.293915"><ele>1130.0</ele><time>2026-04-15T09:45:07.858Z</time></trkpt><trkpt lat="42.6062067" lon="-7.2937017"><ele>1130.0</ele><time>2026-04-15T09:45:08.858Z</time></trkpt><trkpt lat="42.606175" lon="-7.2935267"><ele>1130.0</ele><time>2026-04-15T09:45:09.857Z</time></trkpt><trkpt lat="42.6061217" lon="-7.2933933"><ele>1130.0</ele><time>2026-04-15T09:45:10.858Z</time></trkpt><trkpt lat="42.6060333" lon="-7.2932867"><ele>1124.25</ele><time>2026-04-15T09:45:11.858Z</time></trkpt><trkpt lat="42.6059283" lon="-7.2931767"><ele>1118.5</ele><time>2026-04-15T09:45:12.857Z</time></trkpt><trkpt lat="42.6058467" lon="-7.2930517"><ele>1112.75</ele><time>2026-04-15T09:45:13.857Z</time></trkpt><trkpt lat="42.6057883" lon="-7.2929"><ele>1107.0</ele><time>2026-04-15T09:45:14.858Z</time></trkpt><trkpt lat="42.605745" lon="-7.292725"><ele>1107.0</ele><time>2026-04-15T09:45:15.857Z</time></trkpt><trkpt lat="42.605715" lon="-7.2925333"><ele>1107.0</ele><time>2026-04-15T09:45:16.857Z</time></trkpt><trkpt lat="42.60569" lon="-7.2923217"><ele>1107.0</ele><time>2026-04-15T09:45:17.858Z</time></trkpt><trkpt lat="42.6056667" lon="-7.2920883"><ele>1108.6666666666667</ele><time>2026-04-15T09:45:18.857Z</time></trkpt><trkpt lat="42.6056467" lon="-7.2918417"><ele>1110.3333333333335</ele><time>2026-04-15T09:45:19.858Z</time></trkpt><trkpt lat="42.60563" lon="-7.2915967"><ele>1112.0</ele><time>2026-04-15T09:45:20.858Z</time></trkpt><trkpt lat="42.6056317" lon="-7.2913617"><ele>1112.0</ele><time>2026-04-15T09:45:21.857Z</time></trkpt><trkpt lat="42.6056433" lon="-7.2911133"><ele>1112.0</ele><time>2026-04-15T09:45:22.858Z</time></trkpt><trkpt lat="42.6056533" lon="-7.2908817"><ele>1112.0</ele><time>2026-04-15T09:45:23.858Z</time></trkpt><trkpt lat="42.6056633" lon="-7.290675"><ele>1113.6</ele><time>2026-04-15T09:45:24.858Z</time></trkpt><trkpt lat="42.605665" lon="-7.2905033"><ele>1115.2</ele><time>2026-04-15T09:45:25.859Z</time></trkpt><trkpt lat="42.6056517" lon="-7.2903567"><ele>1116.8</ele><time>2026-04-15T09:45:26.858Z</time></trkpt><trkpt lat="42.605605" lon="-7.29026"><ele>1118.4</ele><time>2026-04-15T09:45:27.859Z</time></trkpt><trkpt lat="42.6055233" lon="-7.2902183"><ele>1120.0</ele><time>2026-04-15T09:45:28.858Z</time></trkpt><trkpt lat="42.6054167" lon="-7.29021"><ele>1116.6666666666665</ele><time>2026-04-15T09:45:29.858Z</time></trkpt><trkpt lat="42.6052717" lon="-7.2902283"><ele>1113.3333333333333</ele><time>2026-04-15T09:45:30.858Z</time></trkpt><trkpt lat="42.6050983" lon="-7.2903017"><ele>1110.0</ele><time>2026-04-15T09:45:31.858Z</time></trkpt><trkpt lat="42.6049283" lon="-7.2903767"><ele>1110.0</ele><time>2026-04-15T09:45:32.858Z</time></trkpt><trkpt lat="42.604785" lon="-7.2904183"><ele>1110.0</ele><time>2026-04-15T09:45:33.858Z</time></trkpt><trkpt lat="42.604635" lon="-7.29044"><ele>1110.0</ele><time>2026-04-15T09:45:34.859Z</time></trkpt><trkpt lat="42.6044867" lon="-7.2904267"><ele>1110.0</ele><time>2026-04-15T09:45:35.859Z</time></trkpt><trkpt lat="42.6043383" lon="-7.290375"><ele>1108.0</ele><time>2026-04-15T09:45:36.858Z</time></trkpt><trkpt lat="42.6042083" lon="-7.2903067"><ele>1106.0</ele><time>2026-04-15T09:45:37.859Z</time></trkpt><trkpt lat="42.604095" lon="-7.2902133"><ele>1104.0</ele><time>2026-04-15T09:45:38.859Z</time></trkpt><trkpt lat="42.6039917" lon="-7.2900917"><ele>1102.0</ele><time>2026-04-15T09:45:39.859Z</time></trkpt><trkpt lat="42.603905" lon="-7.28994"><ele>1102.0</ele><time>2026-04-15T09:45:40.858Z</time></trkpt><trkpt lat="42.60382" lon="-7.2897633"><ele>1102.0</ele><time>2026-04-15T09:45:41.859Z</time></trkpt><trkpt lat="42.6037533" lon="-7.2895783"><ele>1102.0</ele><time>2026-04-15T09:45:42.859Z</time></trkpt><trkpt lat="42.6036967" lon="-7.2893817"><ele>1099.0</ele><time>2026-04-15T09:45:43.859Z</time></trkpt><trkpt lat="42.603645" lon="-7.28916"><ele>1096.0</ele><time>2026-04-15T09:45:44.859Z</time></trkpt><trkpt lat="42.603595" lon="-7.2889133"><ele>1093.0</ele><time>2026-04-15T09:45:45.859Z</time></trkpt><trkpt lat="42.60354" lon="-7.288665"><ele>1093.0</ele><time>2026-04-15T09:45:46.859Z</time></trkpt><trkpt lat="42.6034833" lon="-7.28844"><ele>1093.0</ele><time>2026-04-15T09:45:47.858Z</time></trkpt><trkpt lat="42.6034167" lon="-7.2882233"><ele>1093.0</ele><time>2026-04-15T09:45:48.859Z</time></trkpt><trkpt lat="42.6033367" lon="-7.2880067"><ele>1096.0</ele><time>2026-04-15T09:45:49.859Z</time></trkpt><trkpt lat="42.60327" lon="-7.2877983"><ele>1099.0</ele><time>2026-04-15T09:45:50.859Z</time></trkpt><trkpt lat="42.6032283" lon="-7.287585"><ele>1102.0</ele><time>2026-04-15T09:45:51.859Z</time></trkpt><trkpt lat="42.6032133" lon="-7.287375"><ele>1101.0</ele><time>2026-04-15T09:45:52.858Z</time></trkpt><trkpt lat="42.603225" lon="-7.2871833"><ele>1100.0</ele><time>2026-04-15T09:45:53.859Z</time></trkpt><trkpt lat="42.6032667" lon="-7.286995"><ele>1099.0</ele><time>2026-04-15T09:45:54.859Z</time></trkpt><trkpt lat="42.6033333" lon="-7.286795"><ele>1098.0</ele><time>2026-04-15T09:45:55.858Z</time></trkpt><trkpt lat="42.603405" lon="-7.2865867"><ele>1098.4</ele><time>2026-04-15T09:45:56.859Z</time></trkpt><trkpt lat="42.60347" lon="-7.2864033"><ele>1098.8</ele><time>2026-04-15T09:45:57.859Z</time></trkpt><trkpt lat="42.603515" lon="-7.28625"><ele>1099.2</ele><time>2026-04-15T09:45:58.859Z</time></trkpt><trkpt lat="42.6035383" lon="-7.2861433"><ele>1099.6</ele><time>2026-04-15T09:45:59.858Z</time></trkpt><trkpt lat="42.6035267" lon="-7.2860217"><ele>1100.0</ele><time>2026-04-15T09:46:01.858Z</time></trkpt><trkpt lat="42.6034317" lon="-7.285995"><ele>1100.0</ele><time>2026-04-15T09:46:03.859Z</time></trkpt><trkpt lat="42.60334" lon="-7.286035"><ele>1100.0</ele><time>2026-04-15T09:46:04.859Z</time></trkpt><trkpt lat="42.6032083" lon="-7.28611"><ele>1100.0</ele><time>2026-04-15T09:46:05.859Z</time></trkpt><trkpt lat="42.6030333" lon="-7.28622"><ele>1100.0</ele><time>2026-04-15T09:46:06.858Z</time></trkpt><trkpt lat="42.6028133" lon="-7.28637"><ele>1088.5</ele><time>2026-04-15T09:46:07.859Z</time></trkpt><trkpt lat="42.6025883" lon="-7.2865"><ele>1077.0</ele><time>2026-04-15T09:46:08.859Z</time></trkpt><trkpt lat="42.6023633" lon="-7.2866017"><ele>1077.0</ele><time>2026-04-15T09:46:09.858Z</time></trkpt><trkpt lat="42.6021517" lon="-7.28671"><ele>1077.0</ele><time>2026-04-15T09:46:10.858Z</time></trkpt><trkpt lat="42.6019833" lon="-7.2868317"><ele>1077.0</ele><time>2026-04-15T09:46:11.859Z</time></trkpt><trkpt lat="42.6018483" lon="-7.28696"><ele>1080.3333333333333</ele><time>2026-04-15T09:46:12.858Z</time></trkpt><trkpt lat="42.601735" lon="-7.287105"><ele>1083.6666666666665</ele><time>2026-04-15T09:46:13.858Z</time></trkpt><trkpt lat="42.60166" lon="-7.28727"><ele>1087.0</ele><time>2026-04-15T09:46:14.858Z</time></trkpt><trkpt lat="42.6015917" lon="-7.2874733"><ele>1079.3333333333333</ele><time>2026-04-15T09:46:15.858Z</time></trkpt><trkpt lat="42.6014983" lon="-7.28767"><ele>1071.6666666666667</ele><time>2026-04-15T09:46:16.858Z</time></trkpt><trkpt lat="42.6013933" lon="-7.2878667"><ele>1064.0</ele><time>2026-04-15T09:46:17.859Z</time></trkpt><trkpt lat="42.6012917" lon="-7.2880433"><ele>1064.3333333333335</ele><time>2026-04-15T09:46:18.859Z</time></trkpt><trkpt lat="42.6011633" lon="-7.2882167"><ele>1064.6666666666667</ele><time>2026-04-15T09:46:19.859Z</time></trkpt><trkpt lat="42.601025" lon="-7.288385"><ele>1065.0</ele><time>2026-04-15T09:46:20.858Z</time></trkpt><trkpt lat="42.60086" lon="-7.288555"><ele>1065.0</ele><time>2026-04-15T09:46:21.859Z</time></trkpt><trkpt lat="42.60068" lon="-7.2887217"><ele>1065.0</ele><time>2026-04-15T09:46:22.859Z</time></trkpt><trkpt lat="42.6004983" lon="-7.2888967"><ele>1065.0</ele><time>2026-04-15T09:46:23.859Z</time></trkpt><trkpt lat="42.6003433" lon="-7.289045"><ele>1063.5</ele><time>2026-04-15T09:46:24.859Z</time></trkpt><trkpt lat="42.6002183" lon="-7.2891617"><ele>1062.0</ele><time>2026-04-15T09:46:25.858Z</time></trkpt><trkpt lat="42.6001167" lon="-7.2892433"><ele>1060.5</ele><time>2026-04-15T09:46:26.858Z</time></trkpt><trkpt lat="42.6000183" lon="-7.28928"><ele>1059.0</ele><time>2026-04-15T09:46:27.858Z</time></trkpt><trkpt lat="42.5999267" lon="-7.2892717"><ele>1059.0</ele><time>2026-04-15T09:46:28.858Z</time></trkpt><trkpt lat="42.599845" lon="-7.2892167"><ele>1059.0</ele><time>2026-04-15T09:46:29.858Z</time></trkpt><trkpt lat="42.5997833" lon="-7.2891283"><ele>1059.0</ele><time>2026-04-15T09:46:30.859Z</time></trkpt><trkpt lat="42.599745" lon="-7.2889967"><ele>1059.0</ele><time>2026-04-15T09:46:31.859Z</time></trkpt><trkpt lat="42.5997367" lon="-7.28882"><ele>1059.0</ele><time>2026-04-15T09:46:32.858Z</time></trkpt><trkpt lat="42.5997383" lon="-7.2886017"><ele>1060.0</ele><time>2026-04-15T09:46:33.858Z</time></trkpt><trkpt lat="42.59972" lon="-7.2883583"><ele>1061.0</ele><time>2026-04-15T09:46:34.858Z</time></trkpt><trkpt lat="42.5996817" lon="-7.288095"><ele>1062.0</ele><time>2026-04-15T09:46:35.859Z</time></trkpt><trkpt lat="42.599645" lon="-7.287835"><ele>1062.3333333333333</ele><time>2026-04-15T09:46:36.858Z</time></trkpt><trkpt lat="42.5996217" lon="-7.2875817"><ele>1062.6666666666665</ele><time>2026-04-15T09:46:37.858Z</time></trkpt><trkpt lat="42.5996267" lon="-7.2873417"><ele>1063.0</ele><time>2026-04-15T09:46:38.859Z</time></trkpt><trkpt lat="42.59965" lon="-7.2870667"><ele>1063.0</ele><time>2026-04-15T09:46:39.858Z</time></trkpt><trkpt lat="42.5996917" lon="-7.28677"><ele>1063.0</ele><time>2026-04-15T09:46:40.858Z</time></trkpt><trkpt lat="42.599725" lon="-7.2864933"><ele>1063.0</ele><time>2026-04-15T09:46:41.859Z</time></trkpt><trkpt lat="42.59975" lon="-7.2862467"><ele>1062.5</ele><time>2026-04-15T09:46:42.859Z</time></trkpt><trkpt lat="42.5997733" lon="-7.2860133"><ele>1062.0</ele><time>2026-04-15T09:46:43.858Z</time></trkpt><trkpt lat="42.5997817" lon="-7.2858117"><ele>1061.5</ele><time>2026-04-15T09:46:44.858Z</time></trkpt><trkpt lat="42.5997883" lon="-7.2856467"><ele>1061.0</ele><time>2026-04-15T09:46:45.858Z</time></trkpt><trkpt lat="42.599775" lon="-7.285515"><ele>1062.75</ele><time>2026-04-15T09:46:46.859Z</time></trkpt><trkpt lat="42.5997167" lon="-7.28542"><ele>1064.5</ele><time>2026-04-15T09:46:47.858Z</time></trkpt><trkpt lat="42.5996233" lon="-7.2853367"><ele>1066.25</ele><time>2026-04-15T09:46:48.858Z</time></trkpt><trkpt lat="42.5994967" lon="-7.2852633"><ele>1068.0</ele><time>2026-04-15T09:46:49.858Z</time></trkpt><trkpt lat="42.5993417" lon="-7.2851883"><ele>1062.6666666666667</ele><time>2026-04-15T09:46:50.859Z</time></trkpt><trkpt lat="42.5991683" lon="-7.2850983"><ele>1057.3333333333335</ele><time>2026-04-15T09:46:51.859Z</time></trkpt><trkpt lat="42.59898" lon="-7.2850133"><ele>1052.0</ele><time>2026-04-15T09:46:52.859Z</time></trkpt><trkpt lat="42.5987817" lon="-7.2849367"><ele>1055.6666666666667</ele><time>2026-04-15T09:46:53.859Z</time></trkpt><trkpt lat="42.5985717" lon="-7.2848517"><ele>1059.3333333333333</ele><time>2026-04-15T09:46:54.858Z</time></trkpt><trkpt lat="42.59836" lon="-7.2847417"><ele>1063.0</ele><time>2026-04-15T09:46:55.858Z</time></trkpt><trkpt lat="42.5981517" lon="-7.2846117"><ele>1063.0</ele><time>2026-04-15T09:46:56.858Z</time></trkpt><trkpt lat="42.5979267" lon="-7.28451"><ele>1063.0</ele><time>2026-04-15T09:46:57.858Z</time></trkpt><trkpt lat="42.597715" lon="-7.28444"><ele>1058.6666666666665</ele><time>2026-04-15T09:46:58.859Z</time></trkpt><trkpt lat="42.5975383" lon="-7.2843733"><ele>1054.3333333333333</ele><time>2026-04-15T09:46:59.858Z</time></trkpt><trkpt lat="42.5973833" lon="-7.2842883"><ele>1050.0</ele><time>2026-04-15T09:47:00.859Z</time></trkpt><trkpt lat="42.5972283" lon="-7.28418"><ele>1050.0</ele><time>2026-04-15T09:47:01.858Z</time></trkpt><trkpt lat="42.5970967" lon="-7.2840267"><ele>1050.0</ele><time>2026-04-15T09:47:02.859Z</time></trkpt><trkpt lat="42.596965" lon="-7.2838433"><ele>1050.0</ele><time>2026-04-15T09:47:03.859Z</time></trkpt><trkpt lat="42.5968183" lon="-7.2836433"><ele>1049.6666666666667</ele><time>2026-04-15T09:47:04.858Z</time></trkpt><trkpt lat="42.59665" lon="-7.2834517"><ele>1049.3333333333335</ele><time>2026-04-15T09:47:05.858Z</time></trkpt><trkpt lat="42.5964883" lon="-7.2832533"><ele>1049.0</ele><time>2026-04-15T09:47:06.858Z</time></trkpt><trkpt lat="42.5963283" lon="-7.2830667"><ele>1048.0</ele><time>2026-04-15T09:47:07.859Z</time></trkpt><trkpt lat="42.5961733" lon="-7.282895"><ele>1047.0</ele><time>2026-04-15T09:47:08.859Z</time></trkpt><trkpt lat="42.59601" lon="-7.2827567"><ele>1046.0</ele><time>2026-04-15T09:47:09.858Z</time></trkpt><trkpt lat="42.5958383" lon="-7.28265"><ele>1046.0</ele><time>2026-04-15T09:47:10.859Z</time></trkpt><trkpt lat="42.595675" lon="-7.2825583"><ele>1046.0</ele><time>2026-04-15T09:47:11.859Z</time></trkpt><trkpt lat="42.5955267" lon="-7.2825083"><ele>1046.0</ele><time>2026-04-15T09:47:12.858Z</time></trkpt><trkpt lat="42.5953867" lon="-7.2824833"><ele>1042.75</ele><time>2026-04-15T09:47:13.858Z</time></trkpt><trkpt lat="42.59526" lon="-7.2824833"><ele>1039.5</ele><time>2026-04-15T09:47:14.858Z</time></trkpt><trkpt lat="42.5951417" lon="-7.2824933"><ele>1036.25</ele><time>2026-04-15T09:47:15.858Z</time></trkpt><trkpt lat="42.5950333" lon="-7.2824983"><ele>1033.0</ele><time>2026-04-15T09:47:16.859Z</time></trkpt><trkpt lat="42.59492" lon="-7.2824683"><ele>1033.0</ele><time>2026-04-15T09:47:17.858Z</time></trkpt><trkpt lat="42.59479" lon="-7.2824183"><ele>1033.0</ele><time>2026-04-15T09:47:18.858Z</time></trkpt><trkpt lat="42.59465" lon="-7.28235"><ele>1033.0</ele><time>2026-04-15T09:47:19.858Z</time></trkpt><trkpt lat="42.5944983" lon="-7.282265"><ele>1033.0</ele><time>2026-04-15T09:47:20.858Z</time></trkpt><trkpt lat="42.5943367" lon="-7.2821717"><ele>1031.0</ele><time>2026-04-15T09:47:21.858Z</time></trkpt><trkpt lat="42.5941617" lon="-7.2820683"><ele>1029.0</ele><time>2026-04-15T09:47:22.858Z</time></trkpt><trkpt lat="42.5939833" lon="-7.2819583"><ele>1027.0</ele><time>2026-04-15T09:47:23.858Z</time></trkpt><trkpt lat="42.5938083" lon="-7.2818517"><ele>1023.3333333333333</ele><time>2026-04-15T09:47:24.859Z</time></trkpt><trkpt lat="42.5936467" lon="-7.2817483"><ele>1019.6666666666667</ele><time>2026-04-15T09:47:25.859Z</time></trkpt><trkpt lat="42.5934817" lon="-7.2816567"><ele>1016.0</ele><time>2026-04-15T09:47:26.858Z</time></trkpt><trkpt lat="42.59334" lon="-7.28155"><ele>1016.0</ele><time>2026-04-15T09:47:27.859Z</time></trkpt><trkpt lat="42.593215" lon="-7.2814417"><ele>1016.0</ele><time>2026-04-15T09:47:28.859Z</time></trkpt><trkpt lat="42.593085" lon="-7.28129"><ele>1016.0</ele><time>2026-04-15T09:47:29.859Z</time></trkpt><trkpt lat="42.59295" lon="-7.2811033"><ele>1012.0</ele><time>2026-04-15T09:47:30.858Z</time></trkpt><trkpt lat="42.5928067" lon="-7.2809017"><ele>1008.0</ele><time>2026-04-15T09:47:31.858Z</time></trkpt><trkpt lat="42.59267" lon="-7.28071"><ele>1004.0</ele><time>2026-04-15T09:47:32.858Z</time></trkpt><trkpt lat="42.59253" lon="-7.28052"><ele>999.6666666666667</ele><time>2026-04-15T09:47:33.858Z</time></trkpt><trkpt lat="42.59239" lon="-7.280335"><ele>995.3333333333333</ele><time>2026-04-15T09:47:34.859Z</time></trkpt><trkpt lat="42.5922567" lon="-7.2801617"><ele>991.0</ele><time>2026-04-15T09:47:35.859Z</time></trkpt><trkpt lat="42.5921333" lon="-7.2800183"><ele>991.0</ele><time>2026-04-15T09:47:36.859Z</time></trkpt><trkpt lat="42.592025" lon="-7.2799033"><ele>991.0</ele><time>2026-04-15T09:47:37.858Z</time></trkpt><trkpt lat="42.5919333" lon="-7.2798183"><ele>991.0</ele><time>2026-04-15T09:47:38.858Z</time></trkpt><trkpt lat="42.5918317" lon="-7.2797867"><ele>991.0</ele><time>2026-04-15T09:47:39.858Z</time></trkpt><trkpt lat="42.5917183" lon="-7.2797933"><ele>990.25</ele><time>2026-04-15T09:47:40.858Z</time></trkpt><trkpt lat="42.591585" lon="-7.2798483"><ele>989.5</ele><time>2026-04-15T09:47:41.859Z</time></trkpt><trkpt lat="42.59145" lon="-7.2799333"><ele>988.75</ele><time>2026-04-15T09:47:42.858Z</time></trkpt><trkpt lat="42.5913133" lon="-7.2800417"><ele>988.0</ele><time>2026-04-15T09:47:43.858Z</time></trkpt><trkpt lat="42.5911617" lon="-7.2801583"><ele>987.6666666666666</ele><time>2026-04-15T09:47:44.858Z</time></trkpt><trkpt lat="42.5909933" lon="-7.2802733"><ele>987.3333333333333</ele><time>2026-04-15T09:47:45.858Z</time></trkpt><trkpt lat="42.5908083" lon="-7.2804067"><ele>987.0</ele><time>2026-04-15T09:47:46.858Z</time></trkpt><trkpt lat="42.5906133" lon="-7.2805483"><ele>984.0</ele><time>2026-04-15T09:47:47.858Z</time></trkpt><trkpt lat="42.5903933" lon="-7.2806983"><ele>981.0</ele><time>2026-04-15T09:47:48.858Z</time></trkpt><trkpt lat="42.5901567" lon="-7.2808517"><ele>979.5</ele><time>2026-04-15T09:47:49.859Z</time></trkpt><trkpt lat="42.5899217" lon="-7.2810083"><ele>978.0</ele><time>2026-04-15T09:47:50.858Z</time></trkpt><trkpt lat="42.5897017" lon="-7.2811417"><ele>974.5</ele><time>2026-04-15T09:47:51.859Z</time></trkpt><trkpt lat="42.5894783" lon="-7.2812867"><ele>971.0</ele><time>2026-04-15T09:47:52.859Z</time></trkpt><trkpt lat="42.58926" lon="-7.2814283"><ele>969.0</ele><time>2026-04-15T09:47:53.858Z</time></trkpt><trkpt lat="42.58904" lon="-7.28157"><ele>967.0</ele><time>2026-04-15T09:47:54.859Z</time></trkpt><trkpt lat="42.58882" lon="-7.281715"><ele>965.6666666666666</ele><time>2026-04-15T09:47:55.858Z</time></trkpt><trkpt lat="42.5886183" lon="-7.281855"><ele>964.3333333333333</ele><time>2026-04-15T09:47:56.858Z</time></trkpt><trkpt lat="42.588435" lon="-7.2819833"><ele>963.0</ele><time>2026-04-15T09:47:57.858Z</time></trkpt><trkpt lat="42.5882633" lon="-7.2820883"><ele>963.0</ele><time>2026-04-15T09:47:58.858Z</time></trkpt><trkpt lat="42.5880917" lon="-7.28218"><ele>963.0</ele><time>2026-04-15T09:47:59.859Z</time></trkpt><trkpt lat="42.5879117" lon="-7.2822583"><ele>963.0</ele><time>2026-04-15T09:48:00.858Z</time></trkpt><trkpt lat="42.5877183" lon="-7.2823317"><ele>961.0</ele><time>2026-04-15T09:48:01.859Z</time></trkpt><trkpt lat="42.587525" lon="-7.2823967"><ele>959.0</ele><time>2026-04-15T09:48:02.858Z</time></trkpt><trkpt lat="42.5873433" lon="-7.2824583"><ele>957.0</ele><time>2026-04-15T09:48:03.859Z</time></trkpt><trkpt lat="42.58718" lon="-7.28251"><ele>957.0</ele><time>2026-04-15T09:48:04.858Z</time></trkpt><trkpt lat="42.587045" lon="-7.282545"><ele>957.0</ele><time>2026-04-15T09:48:05.858Z</time></trkpt><trkpt lat="42.5869317" lon="-7.2825567"><ele>957.0</ele><time>2026-04-15T09:48:06.858Z</time></trkpt><trkpt lat="42.58684" lon="-7.2825517"><ele>957.0</ele><time>2026-04-15T09:48:07.858Z</time></trkpt><trkpt lat="42.5867667" lon="-7.2825067"><ele>957.0</ele><time>2026-04-15T09:48:08.858Z</time></trkpt><trkpt lat="42.5867017" lon="-7.2824417"><ele>954.75</ele><time>2026-04-15T09:48:09.858Z</time></trkpt><trkpt lat="42.58663" lon="-7.2823383"><ele>952.5</ele><time>2026-04-15T09:48:10.859Z</time></trkpt><trkpt lat="42.5865567" lon="-7.282215"><ele>950.25</ele><time>2026-04-15T09:48:11.858Z</time></trkpt><trkpt lat="42.58649" lon="-7.2820833"><ele>948.0</ele><time>2026-04-15T09:48:12.859Z</time></trkpt><trkpt lat="42.5864283" lon="-7.281945"><ele>947.75</ele><time>2026-04-15T09:48:13.859Z</time></trkpt><trkpt lat="42.5863767" lon="-7.2817783"><ele>947.5</ele><time>2026-04-15T09:48:14.859Z</time></trkpt><trkpt lat="42.5863367" lon="-7.28159"><ele>947.25</ele><time>2026-04-15T09:48:15.859Z</time></trkpt><trkpt lat="42.5863083" lon="-7.2813933"><ele>947.0</ele><time>2026-04-15T09:48:16.858Z</time></trkpt><trkpt lat="42.5862783" lon="-7.2811733"><ele>945.6666666666667</ele><time>2026-04-15T09:48:17.859Z</time></trkpt><trkpt lat="42.5862467" lon="-7.2809483"><ele>944.3333333333333</ele><time>2026-04-15T09:48:18.859Z</time></trkpt><trkpt lat="42.5862133" lon="-7.2807133"><ele>943.0</ele><time>2026-04-15T09:48:19.858Z</time></trkpt><trkpt lat="42.5861833" lon="-7.2804767"><ele>938.0</ele><time>2026-04-15T09:48:20.858Z</time></trkpt><trkpt lat="42.5861417" lon="-7.28025"><ele>933.0</ele><time>2026-04-15T09:48:21.858Z</time></trkpt><trkpt lat="42.5860967" lon="-7.28003"><ele>928.0</ele><time>2026-04-15T09:48:22.858Z</time></trkpt><trkpt lat="42.586025" lon="-7.2798"><ele>924.0</ele><time>2026-04-15T09:48:23.859Z</time></trkpt><trkpt lat="42.58594" lon="-7.2795633"><ele>920.0</ele><time>2026-04-15T09:48:24.859Z</time></trkpt><trkpt lat="42.5858583" lon="-7.2793533"><ele>916.0</ele><time>2026-04-15T09:48:25.858Z</time></trkpt><trkpt lat="42.585785" lon="-7.279175"><ele>916.0</ele><time>2026-04-15T09:48:26.858Z</time></trkpt><trkpt lat="42.58571" lon="-7.2790383"><ele>916.0</ele><time>2026-04-15T09:48:27.859Z</time></trkpt><trkpt lat="42.585635" lon="-7.278945"><ele>916.0</ele><time>2026-04-15T09:48:28.858Z</time></trkpt><trkpt lat="42.5855433" lon="-7.27888"><ele>916.0</ele><time>2026-04-15T09:48:29.858Z</time></trkpt><trkpt lat="42.5854233" lon="-7.2788417"><ele>912.6666666666666</ele><time>2026-04-15T09:48:30.859Z</time></trkpt><trkpt lat="42.585265" lon="-7.278825"><ele>909.3333333333333</ele><time>2026-04-15T09:48:31.858Z</time></trkpt><trkpt lat="42.5850933" lon="-7.2788083"><ele>906.0</ele><time>2026-04-15T09:48:32.858Z</time></trkpt><trkpt lat="42.5849067" lon="-7.278835"><ele>906.0</ele><time>2026-04-15T09:48:33.859Z</time></trkpt><trkpt lat="42.584705" lon="-7.2788783"><ele>906.0</ele><time>2026-04-15T09:48:34.859Z</time></trkpt><trkpt lat="42.5844883" lon="-7.2789417"><ele>906.0</ele><time>2026-04-15T09:48:35.859Z</time></trkpt><trkpt lat="42.5842733" lon="-7.2789967"><ele>906.3333333333333</ele><time>2026-04-15T09:48:36.858Z</time></trkpt><trkpt lat="42.584065" lon="-7.2790417"><ele>906.6666666666666</ele><time>2026-04-15T09:48:37.858Z</time></trkpt><trkpt lat="42.5838617" lon="-7.2790717"><ele>907.0</ele><time>2026-04-15T09:48:38.858Z</time></trkpt><trkpt lat="42.5836617" lon="-7.2791033"><ele>904.3333333333333</ele><time>2026-04-15T09:48:39.859Z</time></trkpt><trkpt lat="42.5834767" lon="-7.2791317"><ele>901.6666666666667</ele><time>2026-04-15T09:48:40.858Z</time></trkpt><trkpt lat="42.5833017" lon="-7.2791583"><ele>899.0</ele><time>2026-04-15T09:48:41.858Z</time></trkpt><trkpt lat="42.5831317" lon="-7.2791883"><ele>899.0</ele><time>2026-04-15T09:48:42.858Z</time></trkpt><trkpt lat="42.5829517" lon="-7.27922"><ele>899.0</ele><time>2026-04-15T09:48:43.859Z</time></trkpt><trkpt lat="42.5827733" lon="-7.2792517"><ele>899.0</ele><time>2026-04-15T09:48:44.859Z</time></trkpt><trkpt lat="42.582595" lon="-7.2792783"><ele>896.3333333333334</ele><time>2026-04-15T09:48:45.858Z</time></trkpt><trkpt lat="42.5824233" lon="-7.27931"><ele>893.6666666666667</ele><time>2026-04-15T09:48:46.858Z</time></trkpt><trkpt lat="42.58226" lon="-7.279335"><ele>891.0</ele><time>2026-04-15T09:48:47.859Z</time></trkpt><trkpt lat="42.5821183" lon="-7.2793417"><ele>888.5</ele><time>2026-04-15T09:48:48.859Z</time></trkpt><trkpt lat="42.5819883" lon="-7.27932"><ele>886.0</ele><time>2026-04-15T09:48:49.859Z</time></trkpt><trkpt lat="42.5818783" lon="-7.2792733"><ele>883.5</ele><time>2026-04-15T09:48:50.858Z</time></trkpt><trkpt lat="42.58178" lon="-7.27918"><ele>881.0</ele><time>2026-04-15T09:48:51.858Z</time></trkpt><trkpt lat="42.58167" lon="-7.2790517"><ele>881.3333333333334</ele><time>2026-04-15T09:48:52.859Z</time></trkpt><trkpt lat="42.5815333" lon="-7.2789"><ele>881.6666666666667</ele><time>2026-04-15T09:48:53.859Z</time></trkpt><trkpt lat="42.5813733" lon="-7.278755"><ele>882.0</ele><time>2026-04-15T09:48:54.858Z</time></trkpt><trkpt lat="42.581185" lon="-7.27862"><ele>879.3333333333333</ele><time>2026-04-15T09:48:55.859Z</time></trkpt><trkpt lat="42.5809917" lon="-7.2784967"><ele>876.6666666666666</ele><time>2026-04-15T09:48:56.858Z</time></trkpt><trkpt lat="42.580825" lon="-7.278395"><ele>874.0</ele><time>2026-04-15T09:48:57.858Z</time></trkpt><trkpt lat="42.5806967" lon="-7.2783183"><ele>874.0</ele><time>2026-04-15T09:48:58.858Z</time></trkpt><trkpt lat="42.5805817" lon="-7.2782667"><ele>874.0000000000001</ele><time>2026-04-15T09:48:59.858Z</time></trkpt><trkpt lat="42.5804783" lon="-7.2782133"><ele>874.0000000000001</ele><time>2026-04-15T09:49:00.858Z</time></trkpt><trkpt lat="42.5803917" lon="-7.27816"><ele>874.0</ele><time>2026-04-15T09:49:01.858Z</time></trkpt><trkpt lat="42.58031" lon="-7.2781"><ele>874.0</ele><time>2026-04-15T09:49:02.858Z</time></trkpt><trkpt lat="42.5802583" lon="-7.2780333"><ele>872.8333333333333</ele><time>2026-04-15T09:49:03.859Z</time></trkpt><trkpt lat="42.5802117" lon="-7.277945"><ele>871.6666666666666</ele><time>2026-04-15T09:49:04.859Z</time></trkpt><trkpt lat="42.5801667" lon="-7.277855"><ele>870.5</ele><time>2026-04-15T09:49:05.859Z</time></trkpt><trkpt lat="42.5801033" lon="-7.277775"><ele>869.3333333333333</ele><time>2026-04-15T09:49:06.858Z</time></trkpt><trkpt lat="42.58003" lon="-7.2777083"><ele>868.1666666666666</ele><time>2026-04-15T09:49:07.858Z</time></trkpt><trkpt lat="42.5799417" lon="-7.2776517"><ele>867.0</ele><time>2026-04-15T09:49:08.859Z</time></trkpt><trkpt lat="42.5798617" lon="-7.2776067"><ele>867.0</ele><time>2026-04-15T09:49:09.858Z</time></trkpt><trkpt lat="42.57978" lon="-7.2775583"><ele>867.0</ele><time>2026-04-15T09:49:10.859Z</time></trkpt><trkpt lat="42.5797017" lon="-7.277515"><ele>867.0</ele><time>2026-04-15T09:49:11.859Z</time></trkpt><trkpt lat="42.5796183" lon="-7.2774733"><ele>867.0</ele><time>2026-04-15T09:49:12.858Z</time></trkpt><trkpt lat="42.5795383" lon="-7.27743"><ele>867.0</ele><time>2026-04-15T09:49:13.859Z</time></trkpt><trkpt lat="42.5794567" lon="-7.27738"><ele>867.0</ele><time>2026-04-15T09:49:14.859Z</time></trkpt><trkpt lat="42.579375" lon="-7.27734"><ele>867.6666666666666</ele><time>2026-04-15T09:49:15.858Z</time></trkpt><trkpt lat="42.5792933" lon="-7.277295"><ele>868.3333333333333</ele><time>2026-04-15T09:49:16.859Z</time></trkpt><trkpt lat="42.579215" lon="-7.2772583"><ele>869.0</ele><time>2026-04-15T09:49:17.859Z</time></trkpt><trkpt lat="42.5791383" lon="-7.2772167"><ele>869.6666666666666</ele><time>2026-04-15T09:49:18.858Z</time></trkpt><trkpt lat="42.5790633" lon="-7.2771717"><ele>870.3333333333333</ele><time>2026-04-15T09:49:19.859Z</time></trkpt><trkpt lat="42.5789833" lon="-7.277125"><ele>871.0</ele><time>2026-04-15T09:49:20.859Z</time></trkpt><trkpt lat="42.5788983" lon="-7.2770883"><ele>867.0</ele><time>2026-04-15T09:49:21.858Z</time></trkpt><trkpt lat="42.578815" lon="-7.27705"><ele>862.9999999999999</ele><time>2026-04-15T09:49:22.859Z</time></trkpt><trkpt lat="42.5787317" lon="-7.2770217"><ele>859.0</ele><time>2026-04-15T09:49:23.859Z</time></trkpt><trkpt lat="42.57864" lon="-7.276995"><ele>855.0</ele><time>2026-04-15T09:49:24.858Z</time></trkpt><trkpt lat="42.5785483" lon="-7.27697"><ele>851.0</ele><time>2026-04-15T09:49:25.859Z</time></trkpt><trkpt lat="42.5784617" lon="-7.2769367"><ele>850.8</ele><time>2026-04-15T09:49:26.859Z</time></trkpt><trkpt lat="42.5783683" lon="-7.276905"><ele>850.5999999999999</ele><time>2026-04-15T09:49:27.858Z</time></trkpt><trkpt lat="42.57827" lon="-7.2768733"><ele>850.4</ele><time>2026-04-15T09:49:28.859Z</time></trkpt><trkpt lat="42.57818" lon="-7.276845"><ele>850.2</ele><time>2026-04-15T09:49:29.858Z</time></trkpt><trkpt lat="42.5780783" lon="-7.2768233"><ele>850.0</ele><time>2026-04-15T09:49:30.859Z</time></trkpt><trkpt lat="42.57798" lon="-7.27679"><ele>850.0</ele><time>2026-04-15T09:49:31.859Z</time></trkpt><trkpt lat="42.5778883" lon="-7.2767583"><ele>850.0</ele><time>2026-04-15T09:49:32.858Z</time></trkpt><trkpt lat="42.5777917" lon="-7.2767167"><ele>850.0</ele><time>2026-04-15T09:49:33.858Z</time></trkpt><trkpt lat="42.5777017" lon="-7.2766817"><ele>850.0</ele><time>2026-04-15T09:49:34.858Z</time></trkpt><trkpt lat="42.5776067" lon="-7.276645"><ele>850.0</ele><time>2026-04-15T09:49:35.859Z</time></trkpt><trkpt lat="42.5775083" lon="-7.2766033"><ele>850.6</ele><time>2026-04-15T09:49:36.858Z</time></trkpt><trkpt lat="42.5774117" lon="-7.27657"><ele>851.2</ele><time>2026-04-15T09:49:37.858Z</time></trkpt><trkpt lat="42.5773167" lon="-7.2765317"><ele>851.8</ele><time>2026-04-15T09:49:38.859Z</time></trkpt><trkpt lat="42.5772233" lon="-7.27649"><ele>852.4</ele><time>2026-04-15T09:49:39.859Z</time></trkpt><trkpt lat="42.5771217" lon="-7.2764383"><ele>853.0</ele><time>2026-04-15T09:49:40.859Z</time></trkpt><trkpt lat="42.57703" lon="-7.2763783"><ele>849.4999999999999</ele><time>2026-04-15T09:49:41.858Z</time></trkpt><trkpt lat="42.5769467" lon="-7.2763267"><ele>846.0</ele><time>2026-04-15T09:49:42.858Z</time></trkpt><trkpt lat="42.5768667" lon="-7.276265"><ele>842.5</ele><time>2026-04-15T09:49:43.859Z</time></trkpt><trkpt lat="42.57679" lon="-7.276205"><ele>839.0</ele><time>2026-04-15T09:49:44.859Z</time></trkpt><trkpt lat="42.5767183" lon="-7.2761383"><ele>835.4999999999999</ele><time>2026-04-15T09:49:45.859Z</time></trkpt><trkpt lat="42.5766467" lon="-7.2760783"><ele>832.0</ele><time>2026-04-15T09:49:46.859Z</time></trkpt><trkpt lat="42.5765817" lon="-7.2760217"><ele>831.9999999999999</ele><time>2026-04-15T09:49:47.858Z</time></trkpt><trkpt lat="42.5765183" lon="-7.2759683"><ele>832.0</ele><time>2026-04-15T09:49:48.858Z</time></trkpt><trkpt lat="42.5764517" lon="-7.275915"><ele>832.0</ele><time>2026-04-15T09:49:49.859Z</time></trkpt><trkpt lat="42.5763817" lon="-7.275855"><ele>832.0</ele><time>2026-04-15T09:49:50.858Z</time></trkpt><trkpt lat="42.5763117" lon="-7.2757867"><ele>831.9999999999999</ele><time>2026-04-15T09:49:51.859Z</time></trkpt><trkpt lat="42.5762433" lon="-7.27572"><ele>832.0</ele><time>2026-04-15T09:49:52.858Z</time></trkpt><trkpt lat="42.5761767" lon="-7.27566"><ele>831.4000000000001</ele><time>2026-04-15T09:49:53.858Z</time></trkpt><trkpt lat="42.5761033" lon="-7.2755883"><ele>830.8000000000001</ele><time>2026-04-15T09:49:54.858Z</time></trkpt><trkpt lat="42.576035" lon="-7.275515"><ele>830.2</ele><time>2026-04-15T09:49:55.859Z</time></trkpt><trkpt lat="42.5759667" lon="-7.27543"><ele>829.6</ele><time>2026-04-15T09:49:56.858Z</time></trkpt><trkpt lat="42.5758967" lon="-7.2753483"><ele>829.0</ele><time>2026-04-15T09:49:57.858Z</time></trkpt><trkpt lat="42.5758317" lon="-7.2752667"><ele>828.9999999999999</ele><time>2026-04-15T09:49:58.858Z</time></trkpt><trkpt lat="42.5757617" lon="-7.2751833"><ele>829.0</ele><time>2026-04-15T09:49:59.859Z</time></trkpt><trkpt lat="42.5756933" lon="-7.2751067"><ele>829.0</ele><time>2026-04-15T09:50:00.859Z</time></trkpt><trkpt lat="42.57563" lon="-7.2750333"><ele>829.0</ele><time>2026-04-15T09:50:01.859Z</time></trkpt><trkpt lat="42.5755717" lon="-7.274965"><ele>828.9999999999999</ele><time>2026-04-15T09:50:02.858Z</time></trkpt><trkpt lat="42.5755083" lon="-7.274915"><ele>829.0</ele><time>2026-04-15T09:50:03.858Z</time></trkpt><trkpt lat="42.5754383" lon="-7.27488"><ele>829.0</ele><time>2026-04-15T09:50:04.859Z</time></trkpt><trkpt lat="42.5753633" lon="-7.2748683"><ele>829.0</ele><time>2026-04-15T09:50:05.858Z</time></trkpt><trkpt lat="42.57528" lon="-7.27489"><ele>829.0</ele><time>2026-04-15T09:50:06.858Z</time></trkpt><trkpt lat="42.5751817" lon="-7.2749183"><ele>829.0</ele><time>2026-04-15T09:50:07.859Z</time></trkpt><trkpt lat="42.5750833" lon="-7.2749467"><ele>829.0</ele><time>2026-04-15T09:50:08.858Z</time></trkpt><trkpt lat="42.57499" lon="-7.274975"><ele>829.2</ele><time>2026-04-15T09:50:09.859Z</time></trkpt><trkpt lat="42.5748917" lon="-7.27501"><ele>829.4000000000001</ele><time>2026-04-15T09:50:10.858Z</time></trkpt><trkpt lat="42.5747983" lon="-7.2750367"><ele>829.6</ele><time>2026-04-15T09:50:11.859Z</time></trkpt><trkpt lat="42.5747033" lon="-7.2750617"><ele>829.8</ele><time>2026-04-15T09:50:12.859Z</time></trkpt><trkpt lat="42.5746067" lon="-7.2750917"><ele>830.0</ele><time>2026-04-15T09:50:13.858Z</time></trkpt><trkpt lat="42.5745167" lon="-7.2751233"><ele>827.4</ele><time>2026-04-15T09:50:14.858Z</time></trkpt><trkpt lat="42.5744267" lon="-7.2751483"><ele>824.8</ele><time>2026-04-15T09:50:15.858Z</time></trkpt><trkpt lat="42.5743367" lon="-7.2751717"><ele>822.2</ele><time>2026-04-15T09:50:16.858Z</time></trkpt><trkpt lat="42.57425" lon="-7.2752133"><ele>819.6</ele><time>2026-04-15T09:50:17.858Z</time></trkpt><trkpt lat="42.5741633" lon="-7.2752483"><ele>817.0</ele><time>2026-04-15T09:50:18.858Z</time></trkpt><trkpt lat="42.574085" lon="-7.2753083"><ele>817.0</ele><time>2026-04-15T09:50:19.859Z</time></trkpt><trkpt lat="42.5740033" lon="-7.275385"><ele>817.0</ele><time>2026-04-15T09:50:20.858Z</time></trkpt><trkpt lat="42.5739317" lon="-7.275475"><ele>817.0</ele><time>2026-04-15T09:50:21.859Z</time></trkpt><trkpt lat="42.5738567" lon="-7.2755683"><ele>817.0</ele><time>2026-04-15T09:50:22.858Z</time></trkpt><trkpt lat="42.5737783" lon="-7.27566"><ele>817.0</ele><time>2026-04-15T09:50:23.858Z</time></trkpt><trkpt lat="42.5737" lon="-7.27575"><ele>814.8</ele><time>2026-04-15T09:50:24.858Z</time></trkpt><trkpt lat="42.5736283" lon="-7.27584"><ele>812.6</ele><time>2026-04-15T09:50:25.858Z</time></trkpt><trkpt lat="42.57356" lon="-7.2759317"><ele>810.4</ele><time>2026-04-15T09:50:26.858Z</time></trkpt><trkpt lat="42.5734883" lon="-7.27601"><ele>808.1999999999999</ele><time>2026-04-15T09:50:27.858Z</time></trkpt><trkpt lat="42.5734083" lon="-7.2760933"><ele>806.0</ele><time>2026-04-15T09:50:28.859Z</time></trkpt><trkpt lat="42.57333" lon="-7.27618"><ele>806.0</ele><time>2026-04-15T09:50:29.859Z</time></trkpt><trkpt lat="42.5732617" lon="-7.2762667"><ele>806.0</ele><time>2026-04-15T09:50:30.859Z</time></trkpt><trkpt lat="42.5731933" lon="-7.27635"><ele>806.0</ele><time>2026-04-15T09:50:31.858Z</time></trkpt><trkpt lat="42.573135" lon="-7.2764433"><ele>806.0</ele><time>2026-04-15T09:50:32.858Z</time></trkpt><trkpt lat="42.5730867" lon="-7.2765517"><ele>806.0</ele><time>2026-04-15T09:50:33.859Z</time></trkpt><trkpt lat="42.5730467" lon="-7.2766717"><ele>806.8</ele><time>2026-04-15T09:50:34.858Z</time></trkpt><trkpt lat="42.5730133" lon="-7.276795"><ele>807.5999999999999</ele><time>2026-04-15T09:50:35.859Z</time></trkpt><trkpt lat="42.5729867" lon="-7.27692"><ele>808.4</ele><time>2026-04-15T09:50:36.859Z</time></trkpt><trkpt lat="42.5729533" lon="-7.277045"><ele>809.2</ele><time>2026-04-15T09:50:37.858Z</time></trkpt><trkpt lat="42.5729183" lon="-7.2771633"><ele>810.0</ele><time>2026-04-15T09:50:38.859Z</time></trkpt><trkpt lat="42.5728833" lon="-7.2772717"><ele>805.4</ele><time>2026-04-15T09:50:39.858Z</time></trkpt><trkpt lat="42.5728517" lon="-7.27738"><ele>800.8</ele><time>2026-04-15T09:50:40.858Z</time></trkpt><trkpt lat="42.5728267" lon="-7.2774933"><ele>796.2</ele><time>2026-04-15T09:50:41.858Z</time></trkpt><trkpt lat="42.572805" lon="-7.2776167"><ele>791.6</ele><time>2026-04-15T09:50:42.858Z</time></trkpt><trkpt lat="42.5728017" lon="-7.27774"><ele>787.0</ele><time>2026-04-15T09:50:43.859Z</time></trkpt><trkpt lat="42.5727933" lon="-7.277875"><ele>787.0</ele><time>2026-04-15T09:50:44.858Z</time></trkpt><trkpt lat="42.5727983" lon="-7.2780117"><ele>787.0</ele><time>2026-04-15T09:50:45.859Z</time></trkpt><trkpt lat="42.5728" lon="-7.278145"><ele>787.0</ele><time>2026-04-15T09:50:46.858Z</time></trkpt><trkpt lat="42.5728067" lon="-7.278275"><ele>787.0</ele><time>2026-04-15T09:50:47.859Z</time></trkpt><trkpt lat="42.57281" lon="-7.2784117"><ele>787.0</ele><time>2026-04-15T09:50:48.858Z</time></trkpt><trkpt lat="42.5728083" lon="-7.2785483"><ele>787.0</ele><time>2026-04-15T09:50:49.859Z</time></trkpt><trkpt lat="42.57281" lon="-7.2786767"><ele>787.0</ele><time>2026-04-15T09:50:50.859Z</time></trkpt><trkpt lat="42.5728183" lon="-7.2787967"><ele>787.0</ele><time>2026-04-15T09:50:51.858Z</time></trkpt><trkpt lat="42.57283" lon="-7.2789233"><ele>787.0</ele><time>2026-04-15T09:50:52.858Z</time></trkpt><trkpt lat="42.572835" lon="-7.2790467"><ele>787.0</ele><time>2026-04-15T09:50:53.859Z</time></trkpt><trkpt lat="42.572845" lon="-7.27917"><ele>786.3333333333333</ele><time>2026-04-15T09:50:54.859Z</time></trkpt><trkpt lat="42.5728567" lon="-7.2792917"><ele>785.6666666666666</ele><time>2026-04-15T09:50:55.859Z</time></trkpt><trkpt lat="42.5728667" lon="-7.2793983"><ele>785.0</ele><time>2026-04-15T09:50:56.858Z</time></trkpt><trkpt lat="42.57287" lon="-7.27949"><ele>784.3333333333333</ele><time>2026-04-15T09:50:57.859Z</time></trkpt><trkpt lat="42.5728267" lon="-7.2795967"><ele>783.6666666666666</ele><time>2026-04-15T09:50:59.859Z</time></trkpt><trkpt lat="42.572725" lon="-7.2795133"><ele>783.0</ele><time>2026-04-15T09:51:02.858Z</time></trkpt><trkpt lat="42.572695" lon="-7.2794"><ele>783.0</ele><time>2026-04-15T09:51:03.859Z</time></trkpt><trkpt lat="42.5726733" lon="-7.2792433"><ele>783.0</ele><time>2026-04-15T09:51:04.859Z</time></trkpt><trkpt lat="42.572655" lon="-7.2790717"><ele>783.0</ele><time>2026-04-15T09:51:05.859Z</time></trkpt><trkpt lat="42.572625" lon="-7.2789167"><ele>783.0</ele><time>2026-04-15T09:51:06.858Z</time></trkpt><trkpt lat="42.5725867" lon="-7.2787767"><ele>783.8</ele><time>2026-04-15T09:51:07.858Z</time></trkpt><trkpt lat="42.5725433" lon="-7.2786517"><ele>784.5999999999999</ele><time>2026-04-15T09:51:08.859Z</time></trkpt><trkpt lat="42.5725" lon="-7.2785383"><ele>785.4000000000001</ele><time>2026-04-15T09:51:09.859Z</time></trkpt><trkpt lat="42.57246" lon="-7.27842"><ele>786.2</ele><time>2026-04-15T09:51:10.858Z</time></trkpt><trkpt lat="42.5724117" lon="-7.2783183"><ele>787.0</ele><time>2026-04-15T09:51:11.859Z</time></trkpt><trkpt lat="42.57238" lon="-7.2782033"><ele>786.9999999999999</ele><time>2026-04-15T09:51:12.859Z</time></trkpt><trkpt lat="42.572345" lon="-7.27809"><ele>787.0</ele><time>2026-04-15T09:51:13.858Z</time></trkpt><trkpt lat="42.572315" lon="-7.2779817"><ele>787.0</ele><time>2026-04-15T09:51:14.858Z</time></trkpt><trkpt lat="42.5722917" lon="-7.2778717"><ele>787.0</ele><time>2026-04-15T09:51:15.858Z</time></trkpt><trkpt lat="42.5722667" lon="-7.2777717"><ele>786.9999999999999</ele><time>2026-04-15T09:51:16.859Z</time></trkpt><trkpt lat="42.5722383" lon="-7.27767"><ele>787.0</ele><time>2026-04-15T09:51:17.858Z</time></trkpt><trkpt lat="42.5722083" lon="-7.2775483"><ele>787.0</ele><time>2026-04-15T09:51:18.858Z</time></trkpt><trkpt lat="42.5721817" lon="-7.2774217"><ele>787.0</ele><time>2026-04-15T09:51:19.858Z</time></trkpt><trkpt lat="42.572155" lon="-7.2772933"><ele>787.0</ele><time>2026-04-15T09:51:20.859Z</time></trkpt><trkpt lat="42.5721233" lon="-7.2771683"><ele>787.0</ele><time>2026-04-15T09:51:21.858Z</time></trkpt><trkpt lat="42.5720867" lon="-7.2770517"><ele>787.0</ele><time>2026-04-15T09:51:22.859Z</time></trkpt><trkpt lat="42.5720433" lon="-7.2769417"><ele>783.6666666666666</ele><time>2026-04-15T09:51:23.859Z</time></trkpt><trkpt lat="42.5719917" lon="-7.27684"><ele>780.3333333333333</ele><time>2026-04-15T09:51:24.859Z</time></trkpt><trkpt lat="42.5719383" lon="-7.2767467"><ele>777.0</ele><time>2026-04-15T09:51:25.858Z</time></trkpt><trkpt lat="42.5718867" lon="-7.27666"><ele>773.6666666666666</ele><time>2026-04-15T09:51:26.858Z</time></trkpt><trkpt lat="42.5718317" lon="-7.276575"><ele>770.3333333333333</ele><time>2026-04-15T09:51:27.858Z</time></trkpt><trkpt lat="42.5717833" lon="-7.27649"><ele>767.0</ele><time>2026-04-15T09:51:28.859Z</time></trkpt><trkpt lat="42.5717383" lon="-7.2763917"><ele>767.0</ele><time>2026-04-15T09:51:29.858Z</time></trkpt><trkpt lat="42.5717" lon="-7.2762883"><ele>767.0</ele><time>2026-04-15T09:51:30.858Z</time></trkpt><trkpt lat="42.5716583" lon="-7.2761783"><ele>767.0</ele><time>2026-04-15T09:51:31.858Z</time></trkpt><trkpt lat="42.5716267" lon="-7.276055"><ele>767.0</ele><time>2026-04-15T09:51:32.859Z</time></trkpt><trkpt lat="42.57159" lon="-7.27594"><ele>767.0</ele><time>2026-04-15T09:51:33.858Z</time></trkpt><trkpt lat="42.571565" lon="-7.27582"><ele>767.0</ele><time>2026-04-15T09:51:34.858Z</time></trkpt><trkpt lat="42.5715483" lon="-7.2756967"><ele>767.0</ele><time>2026-04-15T09:51:35.859Z</time></trkpt><trkpt lat="42.5715383" lon="-7.2755767"><ele>767.0</ele><time>2026-04-15T09:51:36.858Z</time></trkpt><trkpt lat="42.5715367" lon="-7.275445"><ele>767.0</ele><time>2026-04-15T09:51:37.858Z</time></trkpt><trkpt lat="42.5715467" lon="-7.2753117"><ele>767.0</ele><time>2026-04-15T09:51:38.859Z</time></trkpt><trkpt lat="42.5715567" lon="-7.2751817"><ele>766.4000000000001</ele><time>2026-04-15T09:51:39.859Z</time></trkpt><trkpt lat="42.5715683" lon="-7.2750517"><ele>765.8000000000001</ele><time>2026-04-15T09:51:40.858Z</time></trkpt><trkpt lat="42.571575" lon="-7.274915"><ele>765.2</ele><time>2026-04-15T09:51:41.858Z</time></trkpt><trkpt lat="42.571585" lon="-7.27479"><ele>764.6</ele><time>2026-04-15T09:51:42.859Z</time></trkpt><trkpt lat="42.5716" lon="-7.2746617"><ele>764.0</ele><time>2026-04-15T09:51:43.858Z</time></trkpt><trkpt lat="42.5716083" lon="-7.274545"><ele>762.8333333333333</ele><time>2026-04-15T09:51:44.858Z</time></trkpt><trkpt lat="42.571625" lon="-7.274425"><ele>761.6666666666666</ele><time>2026-04-15T09:51:45.858Z</time></trkpt><trkpt lat="42.571645" lon="-7.27431"><ele>760.5</ele><time>2026-04-15T09:51:46.859Z</time></trkpt><trkpt lat="42.5716733" lon="-7.274205"><ele>759.3333333333334</ele><time>2026-04-15T09:51:47.858Z</time></trkpt><trkpt lat="42.5717083" lon="-7.2741"><ele>758.1666666666667</ele><time>2026-04-15T09:51:48.858Z</time></trkpt><trkpt lat="42.5717567" lon="-7.2739933"><ele>757.0</ele><time>2026-04-15T09:51:49.858Z</time></trkpt><trkpt lat="42.5718083" lon="-7.2738883"><ele>756.2</ele><time>2026-04-15T09:51:50.859Z</time></trkpt><trkpt lat="42.5718633" lon="-7.273785"><ele>755.4000000000001</ele><time>2026-04-15T09:51:51.858Z</time></trkpt><trkpt lat="42.5719217" lon="-7.2736817"><ele>754.5999999999999</ele><time>2026-04-15T09:51:52.859Z</time></trkpt><trkpt lat="42.5719833" lon="-7.2735883"><ele>753.8</ele><time>2026-04-15T09:51:53.859Z</time></trkpt><trkpt lat="42.572045" lon="-7.2734967"><ele>753.0</ele><time>2026-04-15T09:51:54.859Z</time></trkpt><trkpt lat="42.5721083" lon="-7.2734133"><ele>753.0</ele><time>2026-04-15T09:51:55.859Z</time></trkpt><trkpt lat="42.57218" lon="-7.273345"><ele>753.0</ele><time>2026-04-15T09:51:56.858Z</time></trkpt><trkpt lat="42.57226" lon="-7.273325"><ele>753.0</ele><time>2026-04-15T09:51:57.859Z</time></trkpt><trkpt lat="42.5723317" lon="-7.2733317"><ele>753.0</ele><time>2026-04-15T09:51:58.858Z</time></trkpt><trkpt lat="42.5723917" lon="-7.2733617"><ele>753.0</ele><time>2026-04-15T09:51:59.859Z</time></trkpt><trkpt lat="42.572445" lon="-7.2734183"><ele>753.0</ele><time>2026-04-15T09:52:00.859Z</time></trkpt><trkpt lat="42.572495" lon="-7.2734917"><ele>753.0</ele><time>2026-04-15T09:52:01.859Z</time></trkpt><trkpt lat="42.57255" lon="-7.27358"><ele>753.0</ele><time>2026-04-15T09:52:02.858Z</time></trkpt><trkpt lat="42.5726083" lon="-7.2736633"><ele>753.0</ele><time>2026-04-15T09:52:03.859Z</time></trkpt><trkpt lat="42.5726767" lon="-7.2737383"><ele>753.0</ele><time>2026-04-15T09:52:04.859Z</time></trkpt><trkpt lat="42.57275" lon="-7.2737817"><ele>753.0</ele><time>2026-04-15T09:52:05.859Z</time></trkpt><trkpt lat="42.5728217" lon="-7.2737833"><ele>753.0</ele><time>2026-04-15T09:52:06.859Z</time></trkpt><trkpt lat="42.57288" lon="-7.2737433"><ele>753.0</ele><time>2026-04-15T09:52:07.858Z</time></trkpt><trkpt lat="42.5729283" lon="-7.2736567"><ele>753.8</ele><time>2026-04-15T09:52:08.859Z</time></trkpt><trkpt lat="42.5729717" lon="-7.273545"><ele>754.5999999999999</ele><time>2026-04-15T09:52:09.859Z</time></trkpt><trkpt lat="42.5730133" lon="-7.2734067"><ele>755.4000000000001</ele><time>2026-04-15T09:52:10.859Z</time></trkpt><trkpt lat="42.5730617" lon="-7.2732633"><ele>756.2</ele><time>2026-04-15T09:52:11.858Z</time></trkpt><trkpt lat="42.573125" lon="-7.2731317"><ele>757.0</ele><time>2026-04-15T09:52:12.858Z</time></trkpt><trkpt lat="42.5731967" lon="-7.2730317"><ele>753.1666666666667</ele><time>2026-04-15T09:52:13.859Z</time></trkpt><trkpt lat="42.573275" lon="-7.2729533"><ele>749.3333333333334</ele><time>2026-04-15T09:52:14.858Z</time></trkpt><trkpt lat="42.57335" lon="-7.2728933"><ele>745.5</ele><time>2026-04-15T09:52:15.858Z</time></trkpt><trkpt lat="42.5734267" lon="-7.2728367"><ele>741.6666666666666</ele><time>2026-04-15T09:52:16.859Z</time></trkpt><trkpt lat="42.5734983" lon="-7.2727667"><ele>737.8333333333333</ele><time>2026-04-15T09:52:17.858Z</time></trkpt><trkpt lat="42.573555" lon="-7.2726983"><ele>734.0</ele><time>2026-04-15T09:52:18.859Z</time></trkpt><trkpt lat="42.5736017" lon="-7.2726267"><ele>734.0</ele><time>2026-04-15T09:52:19.859Z</time></trkpt><trkpt lat="42.5736167" lon="-7.272475"><ele>734.0</ele><time>2026-04-15T09:52:21.859Z</time></trkpt><trkpt lat="42.5735367" lon="-7.2723617"><ele>734.0</ele><time>2026-04-15T09:52:23.86Z</time></trkpt><trkpt lat="42.57341" lon="-7.2723533"><ele>734.0</ele><time>2026-04-15T09:52:25.86Z</time></trkpt><trkpt lat="42.5733283" lon="-7.2724117"><ele>734.0</ele><time>2026-04-15T09:52:26.859Z</time></trkpt><trkpt lat="42.573245" lon="-7.2725133"><ele>734.0</ele><time>2026-04-15T09:52:27.859Z</time></trkpt><trkpt lat="42.57316" lon="-7.27261"><ele>734.0</ele><time>2026-04-15T09:52:28.859Z</time></trkpt><trkpt lat="42.5730833" lon="-7.272685"><ele>734.0</ele><time>2026-04-15T09:52:29.86Z</time></trkpt><trkpt lat="42.5730117" lon="-7.2727467"><ele>734.0</ele><time>2026-04-15T09:52:30.86Z</time></trkpt><trkpt lat="42.572945" lon="-7.27279"><ele>734.0</ele><time>2026-04-15T09:52:31.86Z</time></trkpt><trkpt lat="42.5728683" lon="-7.27281"><ele>734.0</ele><time>2026-04-15T09:52:32.859Z</time></trkpt><trkpt lat="42.5727933" lon="-7.2728117"><ele>733.3333333333333</ele><time>2026-04-15T09:52:33.86Z</time></trkpt><trkpt lat="42.57273" lon="-7.2727933"><ele>732.6666666666666</ele><time>2026-04-15T09:52:34.86Z</time></trkpt><trkpt lat="42.5726733" lon="-7.272725"><ele>732.0</ele><time>2026-04-15T09:52:35.86Z</time></trkpt><trkpt lat="42.572635" lon="-7.27263"><ele>731.3333333333334</ele><time>2026-04-15T09:52:36.86Z</time></trkpt><trkpt lat="42.57259" lon="-7.2725233"><ele>730.6666666666667</ele><time>2026-04-15T09:52:37.859Z</time></trkpt><trkpt lat="42.5725433" lon="-7.2724367"><ele>730.0</ele><time>2026-04-15T09:52:38.86Z</time></trkpt><trkpt lat="42.5724833" lon="-7.272375"><ele>730.0</ele><time>2026-04-15T09:52:39.859Z</time></trkpt><trkpt lat="42.5724133" lon="-7.2723333"><ele>730.0</ele><time>2026-04-15T09:52:40.86Z</time></trkpt><trkpt lat="42.5723433" lon="-7.2723167"><ele>730.0</ele><time>2026-04-15T09:52:41.86Z</time></trkpt><trkpt lat="42.5722667" lon="-7.2723283"><ele>730.0</ele><time>2026-04-15T09:52:42.859Z</time></trkpt><trkpt lat="42.57219" lon="-7.2723467"><ele>730.0</ele><time>2026-04-15T09:52:43.859Z</time></trkpt><trkpt lat="42.57211" lon="-7.27238"><ele>730.0</ele><time>2026-04-15T09:52:44.859Z</time></trkpt><trkpt lat="42.572025" lon="-7.27242"><ele>727.8</ele><time>2026-04-15T09:52:45.86Z</time></trkpt><trkpt lat="42.571945" lon="-7.2724767"><ele>725.6</ele><time>2026-04-15T09:52:46.86Z</time></trkpt><trkpt lat="42.571875" lon="-7.2725417"><ele>723.4000000000001</ele><time>2026-04-15T09:52:47.859Z</time></trkpt><trkpt lat="42.5717933" lon="-7.2726033"><ele>721.2</ele><time>2026-04-15T09:52:48.859Z</time></trkpt><trkpt lat="42.5717067" lon="-7.272655"><ele>719.0</ele><time>2026-04-15T09:52:49.86Z</time></trkpt><trkpt lat="42.57163" lon="-7.2727183"><ele>719.0</ele><time>2026-04-15T09:52:50.859Z</time></trkpt><trkpt lat="42.5715483" lon="-7.2727883"><ele>719.0</ele><time>2026-04-15T09:52:51.859Z</time></trkpt><trkpt lat="42.57146" lon="-7.2728317"><ele>719.0</ele><time>2026-04-15T09:52:52.86Z</time></trkpt><trkpt lat="42.5713683" lon="-7.2728683"><ele>719.0</ele><time>2026-04-15T09:52:53.859Z</time></trkpt><trkpt lat="42.571285" lon="-7.272895"><ele>719.0</ele><time>2026-04-15T09:52:54.86Z</time></trkpt><trkpt lat="42.5712" lon="-7.2729117"><ele>717.0</ele><time>2026-04-15T09:52:55.859Z</time></trkpt><trkpt lat="42.57112" lon="-7.2729267"><ele>715.0</ele><time>2026-04-15T09:52:56.859Z</time></trkpt><trkpt lat="42.571035" lon="-7.2729467"><ele>713.0</ele><time>2026-04-15T09:52:57.859Z</time></trkpt><trkpt lat="42.57095" lon="-7.2729733"><ele>711.0</ele><time>2026-04-15T09:52:58.86Z</time></trkpt><trkpt lat="42.5708717" lon="-7.2729917"><ele>709.0</ele><time>2026-04-15T09:52:59.86Z</time></trkpt><trkpt lat="42.5707917" lon="-7.273015"><ele>707.0</ele><time>2026-04-15T09:53:00.86Z</time></trkpt><trkpt lat="42.5707133" lon="-7.2730433"><ele>707.0</ele><time>2026-04-15T09:53:01.859Z</time></trkpt><trkpt lat="42.5706367" lon="-7.273075"><ele>707.0</ele><time>2026-04-15T09:53:02.86Z</time></trkpt><trkpt lat="42.57057" lon="-7.2731217"><ele>707.0</ele><time>2026-04-15T09:53:03.859Z</time></trkpt><trkpt lat="42.5705117" lon="-7.2731933"><ele>707.0</ele><time>2026-04-15T09:53:04.86Z</time></trkpt><trkpt lat="42.5704617" lon="-7.2732767"><ele>707.0</ele><time>2026-04-15T09:53:05.859Z</time></trkpt><trkpt lat="42.5704267" lon="-7.2733917"><ele>707.0</ele><time>2026-04-15T09:53:06.859Z</time></trkpt><trkpt lat="42.5704017" lon="-7.2735183"><ele>707.5</ele><time>2026-04-15T09:53:07.86Z</time></trkpt><trkpt lat="42.57038" lon="-7.27364"><ele>708.0</ele><time>2026-04-15T09:53:08.86Z</time></trkpt><trkpt lat="42.5703583" lon="-7.2737683"><ele>708.5</ele><time>2026-04-15T09:53:09.86Z</time></trkpt><trkpt lat="42.5703317" lon="-7.27388"><ele>709.0</ele><time>2026-04-15T09:53:10.859Z</time></trkpt><trkpt lat="42.5703033" lon="-7.2739883"><ele>709.5</ele><time>2026-04-15T09:53:11.859Z</time></trkpt><trkpt lat="42.570275" lon="-7.2741017"><ele>710.0</ele><time>2026-04-15T09:53:12.86Z</time></trkpt><trkpt lat="42.5702533" lon="-7.2742183"><ele>711.8333333333333</ele><time>2026-04-15T09:53:13.859Z</time></trkpt><trkpt lat="42.5702233" lon="-7.2743267"><ele>713.6666666666666</ele><time>2026-04-15T09:53:14.859Z</time></trkpt><trkpt lat="42.5701867" lon="-7.27443"><ele>715.5</ele><time>2026-04-15T09:53:15.859Z</time></trkpt><trkpt lat="42.5701417" lon="-7.2745317"><ele>717.3333333333334</ele><time>2026-04-15T09:53:16.86Z</time></trkpt><trkpt lat="42.57009" lon="-7.2746217"><ele>719.1666666666667</ele><time>2026-04-15T09:53:17.86Z</time></trkpt><trkpt lat="42.5700367" lon="-7.2747167"><ele>721.0</ele><time>2026-04-15T09:53:18.86Z</time></trkpt><trkpt lat="42.5699783" lon="-7.2747967"><ele>721.0</ele><time>2026-04-15T09:53:19.859Z</time></trkpt><trkpt lat="42.5699233" lon="-7.2748833"><ele>721.0</ele><time>2026-04-15T09:53:20.86Z</time></trkpt><trkpt lat="42.5698867" lon="-7.2749817"><ele>721.0</ele><time>2026-04-15T09:53:21.86Z</time></trkpt><trkpt lat="42.5698683" lon="-7.2750933"><ele>721.0</ele><time>2026-04-15T09:53:22.86Z</time></trkpt><trkpt lat="42.5698817" lon="-7.2752117"><ele>721.0</ele><time>2026-04-15T09:53:23.859Z</time></trkpt><trkpt lat="42.569915" lon="-7.2753383"><ele>721.0</ele><time>2026-04-15T09:53:24.859Z</time></trkpt><trkpt lat="42.5699467" lon="-7.2754683"><ele>721.0</ele><time>2026-04-15T09:53:25.86Z</time></trkpt><trkpt lat="42.56997" lon="-7.2755983"><ele>721.0</ele><time>2026-04-15T09:53:26.859Z</time></trkpt><trkpt lat="42.5699983" lon="-7.275725"><ele>721.0</ele><time>2026-04-15T09:53:27.86Z</time></trkpt><trkpt lat="42.5700217" lon="-7.2758417"><ele>721.0</ele><time>2026-04-15T09:53:28.859Z</time></trkpt><trkpt lat="42.5700483" lon="-7.2759733"><ele>721.0</ele><time>2026-04-15T09:53:29.86Z</time></trkpt><trkpt lat="42.5700733" lon="-7.276105"><ele>719.4</ele><time>2026-04-15T09:53:30.86Z</time></trkpt><trkpt lat="42.5701" lon="-7.2762317"><ele>717.8</ele><time>2026-04-15T09:53:31.86Z</time></trkpt><trkpt lat="42.5701283" lon="-7.2763517"><ele>716.1999999999999</ele><time>2026-04-15T09:53:32.86Z</time></trkpt><trkpt lat="42.57016" lon="-7.2764733"><ele>714.5999999999999</ele><time>2026-04-15T09:53:33.859Z</time></trkpt><trkpt lat="42.5701883" lon="-7.2766033"><ele>713.0</ele><time>2026-04-15T09:53:34.859Z</time></trkpt><trkpt lat="42.57022" lon="-7.2767317"><ele>711.5999999999999</ele><time>2026-04-15T09:53:35.859Z</time></trkpt><trkpt lat="42.5702533" lon="-7.2768617"><ele>710.1999999999999</ele><time>2026-04-15T09:53:36.86Z</time></trkpt><trkpt lat="42.5702817" lon="-7.2769867"><ele>708.8</ele><time>2026-04-15T09:53:37.86Z</time></trkpt><trkpt lat="42.5703133" lon="-7.2771083"><ele>707.4</ele><time>2026-04-15T09:53:38.859Z</time></trkpt><trkpt lat="42.5703317" lon="-7.2772417"><ele>706.0</ele><time>2026-04-15T09:53:39.86Z</time></trkpt><trkpt lat="42.5703467" lon="-7.27736"><ele>706.0</ele><time>2026-04-15T09:53:40.859Z</time></trkpt><trkpt lat="42.5703383" lon="-7.277465"><ele>706.0</ele><time>2026-04-15T09:53:41.86Z</time></trkpt><trkpt lat="42.5703117" lon="-7.2775517"><ele>706.0</ele><time>2026-04-15T09:53:42.86Z</time></trkpt><trkpt lat="42.5702367" lon="-7.2776433"><ele>706.0</ele><time>2026-04-15T09:53:44.859Z</time></trkpt><trkpt lat="42.57013" lon="-7.2776017"><ele>706.0</ele><time>2026-04-15T09:53:46.86Z</time></trkpt><trkpt lat="42.57007" lon="-7.27754"><ele>706.0</ele><time>2026-04-15T09:53:47.859Z</time></trkpt><trkpt lat="42.5700083" lon="-7.2774383"><ele>706.0</ele><time>2026-04-15T09:53:48.86Z</time></trkpt><trkpt lat="42.5699417" lon="-7.2773"><ele>706.0</ele><time>2026-04-15T09:53:49.86Z</time></trkpt><trkpt lat="42.56988" lon="-7.2771633"><ele>706.0</ele><time>2026-04-15T09:53:50.859Z</time></trkpt><trkpt lat="42.5698167" lon="-7.2770383"><ele>706.0</ele><time>2026-04-15T09:53:51.859Z</time></trkpt><trkpt lat="42.5697517" lon="-7.27692"><ele>705.5999999999999</ele><time>2026-04-15T09:53:52.86Z</time></trkpt><trkpt lat="42.5696817" lon="-7.2768183"><ele>705.2</ele><time>2026-04-15T09:53:53.859Z</time></trkpt><trkpt lat="42.5696067" lon="-7.27673"><ele>704.8</ele><time>2026-04-15T09:53:54.86Z</time></trkpt><trkpt lat="42.5695317" lon="-7.2766483"><ele>704.4000000000001</ele><time>2026-04-15T09:53:55.86Z</time></trkpt><trkpt lat="42.5694517" lon="-7.2765633"><ele>704.0</ele><time>2026-04-15T09:53:56.859Z</time></trkpt><trkpt lat="42.56937" lon="-7.2764867"><ele>702.0</ele><time>2026-04-15T09:53:57.859Z</time></trkpt><trkpt lat="42.5692883" lon="-7.2764217"><ele>700.0</ele><time>2026-04-15T09:53:58.859Z</time></trkpt><trkpt lat="42.5692017" lon="-7.2763667"><ele>698.0</ele><time>2026-04-15T09:53:59.859Z</time></trkpt><trkpt lat="42.569115" lon="-7.276325"><ele>696.0</ele><time>2026-04-15T09:54:00.859Z</time></trkpt><trkpt lat="42.5690183" lon="-7.276295"><ele>694.0</ele><time>2026-04-15T09:54:01.859Z</time></trkpt><trkpt lat="42.5689217" lon="-7.2762783"><ele>694.0</ele><time>2026-04-15T09:54:02.86Z</time></trkpt><trkpt lat="42.5688233" lon="-7.2762717"><ele>694.0</ele><time>2026-04-15T09:54:03.859Z</time></trkpt><trkpt lat="42.568725" lon="-7.27627"><ele>694.0</ele><time>2026-04-15T09:54:04.86Z</time></trkpt><trkpt lat="42.56863" lon="-7.276265"><ele>694.0</ele><time>2026-04-15T09:54:05.86Z</time></trkpt><trkpt lat="42.5685367" lon="-7.2762633"><ele>694.0</ele><time>2026-04-15T09:54:06.86Z</time></trkpt><trkpt lat="42.5684383" lon="-7.27626"><ele>691.8000000000001</ele><time>2026-04-15T09:54:07.859Z</time></trkpt><trkpt lat="42.56834" lon="-7.27626"><ele>689.6</ele><time>2026-04-15T09:54:08.859Z</time></trkpt><trkpt lat="42.568245" lon="-7.2762633"><ele>687.4</ele><time>2026-04-15T09:54:09.859Z</time></trkpt><trkpt lat="42.5681467" lon="-7.27627"><ele>685.2</ele><time>2026-04-15T09:54:10.86Z</time></trkpt><trkpt lat="42.5680433" lon="-7.27628"><ele>683.0</ele><time>2026-04-15T09:54:11.859Z</time></trkpt><trkpt lat="42.5679467" lon="-7.2762833"><ele>681.8</ele><time>2026-04-15T09:54:12.86Z</time></trkpt><trkpt lat="42.56785" lon="-7.2762933"><ele>680.5999999999999</ele><time>2026-04-15T09:54:13.859Z</time></trkpt><trkpt lat="42.567745" lon="-7.276315"><ele>679.4000000000001</ele><time>2026-04-15T09:54:14.859Z</time></trkpt><trkpt lat="42.5676467" lon="-7.2763467"><ele>678.2</ele><time>2026-04-15T09:54:15.859Z</time></trkpt><trkpt lat="42.5675483" lon="-7.2763733"><ele>677.0</ele><time>2026-04-15T09:54:16.86Z</time></trkpt><trkpt lat="42.5674667" lon="-7.2764417"><ele>677.0</ele><time>2026-04-15T09:54:17.86Z</time></trkpt><trkpt lat="42.56739" lon="-7.276525"><ele>677.0</ele><time>2026-04-15T09:54:18.86Z</time></trkpt><trkpt lat="42.5673117" lon="-7.2766183"><ele>677.0</ele><time>2026-04-15T09:54:19.859Z</time></trkpt><trkpt lat="42.5672333" lon="-7.2767083"><ele>677.0</ele><time>2026-04-15T09:54:20.859Z</time></trkpt><trkpt lat="42.5671583" lon="-7.2768"><ele>677.0</ele><time>2026-04-15T09:54:21.859Z</time></trkpt><trkpt lat="42.567085" lon="-7.276885"><ele>675.5</ele><time>2026-04-15T09:54:22.859Z</time></trkpt><trkpt lat="42.56701" lon="-7.2769667"><ele>674.0</ele><time>2026-04-15T09:54:23.86Z</time></trkpt><trkpt lat="42.5669383" lon="-7.2770533"><ele>672.5</ele><time>2026-04-15T09:54:24.86Z</time></trkpt><trkpt lat="42.5668733" lon="-7.2771283"><ele>671.0</ele><time>2026-04-15T09:54:25.86Z</time></trkpt><trkpt lat="42.5668083" lon="-7.277205"><ele>669.5</ele><time>2026-04-15T09:54:26.86Z</time></trkpt><trkpt lat="42.5667483" lon="-7.27727"><ele>668.0</ele><time>2026-04-15T09:54:27.86Z</time></trkpt><trkpt lat="42.5666867" lon="-7.277335"><ele>668.0</ele><time>2026-04-15T09:54:28.86Z</time></trkpt><trkpt lat="42.5666183" lon="-7.2774"><ele>668.0</ele><time>2026-04-15T09:54:29.86Z</time></trkpt><trkpt lat="42.5665483" lon="-7.2774717"><ele>668.0</ele><time>2026-04-15T09:54:30.86Z</time></trkpt><trkpt lat="42.56646" lon="-7.277535"><ele>668.0</ele><time>2026-04-15T09:54:31.859Z</time></trkpt><trkpt lat="42.5663683" lon="-7.2775783"><ele>668.0</ele><time>2026-04-15T09:54:32.86Z</time></trkpt><trkpt lat="42.5662817" lon="-7.277605"><ele>662.8</ele><time>2026-04-15T09:54:33.859Z</time></trkpt><trkpt lat="42.5661917" lon="-7.2776383"><ele>657.5999999999999</ele><time>2026-04-15T09:54:34.859Z</time></trkpt><trkpt lat="42.5661017" lon="-7.2776783"><ele>652.4000000000001</ele><time>2026-04-15T09:54:35.859Z</time></trkpt><trkpt lat="42.5660083" lon="-7.2777267"><ele>647.2</ele><time>2026-04-15T09:54:36.86Z</time></trkpt><trkpt lat="42.5659133" lon="-7.2777833"><ele>642.0</ele><time>2026-04-15T09:54:37.86Z</time></trkpt><trkpt lat="42.5658283" lon="-7.2778467"><ele>642.0</ele><time>2026-04-15T09:54:38.86Z</time></trkpt><trkpt lat="42.565745" lon="-7.2779167"><ele>642.0</ele><time>2026-04-15T09:54:39.859Z</time></trkpt><trkpt lat="42.5656717" lon="-7.2779933"><ele>642.0</ele><time>2026-04-15T09:54:40.859Z</time></trkpt><trkpt lat="42.5655967" lon="-7.2780717"><ele>642.0</ele><time>2026-04-15T09:54:41.86Z</time></trkpt><trkpt lat="42.5655233" lon="-7.2781517"><ele>642.0</ele><time>2026-04-15T09:54:42.86Z</time></trkpt><trkpt lat="42.5654567" lon="-7.27824"><ele>640.0</ele><time>2026-04-15T09:54:43.86Z</time></trkpt><trkpt lat="42.5654" lon="-7.278345"><ele>638.0</ele><time>2026-04-15T09:54:44.859Z</time></trkpt><trkpt lat="42.5653517" lon="-7.2784483"><ele>636.0</ele><time>2026-04-15T09:54:45.859Z</time></trkpt><trkpt lat="42.565315" lon="-7.278555"><ele>634.0</ele><time>2026-04-15T09:54:46.859Z</time></trkpt><trkpt lat="42.5653083" lon="-7.27868"><ele>632.0</ele><time>2026-04-15T09:54:47.859Z</time></trkpt><trkpt lat="42.5653183" lon="-7.2788283"><ele>632.3333333333333</ele><time>2026-04-15T09:54:48.859Z</time></trkpt><trkpt lat="42.5653567" lon="-7.279"><ele>632.6666666666666</ele><time>2026-04-15T09:54:49.859Z</time></trkpt><trkpt lat="42.56542" lon="-7.2791967"><ele>633.0</ele><time>2026-04-15T09:54:50.86Z</time></trkpt><trkpt lat="42.5654833" lon="-7.2793967"><ele>640.2</ele><time>2026-04-15T09:54:51.86Z</time></trkpt><trkpt lat="42.5655283" lon="-7.2795767"><ele>647.4</ele><time>2026-04-15T09:54:52.859Z</time></trkpt><trkpt lat="42.5655483" lon="-7.2797167"><ele>654.6</ele><time>2026-04-15T09:54:53.859Z</time></trkpt><trkpt lat="42.5655367" lon="-7.2798083"><ele>661.8000000000001</ele><time>2026-04-15T09:54:54.859Z</time></trkpt><trkpt lat="42.5654983" lon="-7.27988"><ele>669.0</ele><time>2026-04-15T09:54:55.86Z</time></trkpt><trkpt lat="42.56543" lon="-7.27993"><ele>664.25</ele><time>2026-04-15T09:54:56.859Z</time></trkpt><trkpt lat="42.56533" lon="-7.27996"><ele>659.5</ele><time>2026-04-15T09:54:57.859Z</time></trkpt><trkpt lat="42.56519" lon="-7.279975"><ele>654.75</ele><time>2026-04-15T09:54:58.859Z</time></trkpt><trkpt lat="42.5650067" lon="-7.279995"><ele>650.0</ele><time>2026-04-15T09:54:59.859Z</time></trkpt><trkpt lat="42.5648067" lon="-7.2800667"><ele>650.0</ele><time>2026-04-15T09:55:00.859Z</time></trkpt><trkpt lat="42.5646233" lon="-7.2801083"><ele>650.0</ele><time>2026-04-15T09:55:01.86Z</time></trkpt><trkpt lat="42.5644817" lon="-7.2801783"><ele>650.0</ele><time>2026-04-15T09:55:02.86Z</time></trkpt><trkpt lat="42.5643767" lon="-7.2802533"><ele>648.75</ele><time>2026-04-15T09:55:03.859Z</time></trkpt><trkpt lat="42.564295" lon="-7.28037"><ele>647.5</ele><time>2026-04-15T09:55:04.86Z</time></trkpt><trkpt lat="42.5642333" lon="-7.28052"><ele>646.25</ele><time>2026-04-15T09:55:05.859Z</time></trkpt><trkpt lat="42.5641883" lon="-7.280725"><ele>645.0</ele><time>2026-04-15T09:55:06.86Z</time></trkpt><trkpt lat="42.56413" lon="-7.2809583"><ele>645.0</ele><time>2026-04-15T09:55:07.859Z</time></trkpt><trkpt lat="42.56408" lon="-7.2812017"><ele>645.0</ele><time>2026-04-15T09:55:08.859Z</time></trkpt><trkpt lat="42.5640383" lon="-7.28141"><ele>645.0</ele><time>2026-04-15T09:55:09.859Z</time></trkpt><trkpt lat="42.563985" lon="-7.2815567"><ele>645.5</ele><time>2026-04-15T09:55:10.859Z</time></trkpt><trkpt lat="42.56394" lon="-7.2816567"><ele>646.0</ele><time>2026-04-15T09:55:11.86Z</time></trkpt><trkpt lat="42.563875" lon="-7.281715"><ele>646.5</ele><time>2026-04-15T09:55:12.86Z</time></trkpt><trkpt lat="42.5638117" lon="-7.2817267"><ele>647.0</ele><time>2026-04-15T09:55:13.859Z</time></trkpt><trkpt lat="42.5637483" lon="-7.2816983"><ele>647.5</ele><time>2026-04-15T09:55:14.86Z</time></trkpt><trkpt lat="42.5636667" lon="-7.2816317"><ele>648.0</ele><time>2026-04-15T09:55:15.86Z</time></trkpt><trkpt lat="42.5635633" lon="-7.2815383"><ele>637.0</ele><time>2026-04-15T09:55:16.859Z</time></trkpt><trkpt lat="42.5634217" lon="-7.2814317"><ele>626.0</ele><time>2026-04-15T09:55:17.86Z</time></trkpt><trkpt lat="42.56327" lon="-7.2813583"><ele>615.0</ele><time>2026-04-15T09:55:18.859Z</time></trkpt><trkpt lat="42.563145" lon="-7.2813233"><ele>615.0</ele><time>2026-04-15T09:55:19.86Z</time></trkpt><trkpt lat="42.5630283" lon="-7.28134"><ele>615.0</ele><time>2026-04-15T09:55:20.859Z</time></trkpt><trkpt lat="42.5629183" lon="-7.2814033"><ele>615.0</ele><time>2026-04-15T09:55:21.859Z</time></trkpt><trkpt lat="42.5628083" lon="-7.2815217"><ele>615.0</ele><time>2026-04-15T09:55:22.859Z</time></trkpt><trkpt lat="42.562675" lon="-7.2816917"><ele>618.0</ele><time>2026-04-15T09:55:23.859Z</time></trkpt><trkpt lat="42.5625283" lon="-7.2818783"><ele>621.0</ele><time>2026-04-15T09:55:24.86Z</time></trkpt><trkpt lat="42.5623533" lon="-7.2820583"><ele>624.0</ele><time>2026-04-15T09:55:25.859Z</time></trkpt><trkpt lat="42.5621933" lon="-7.2821933"><ele>621.0</ele><time>2026-04-15T09:55:26.859Z</time></trkpt><trkpt lat="42.5620483" lon="-7.2822983"><ele>618.0</ele><time>2026-04-15T09:55:27.86Z</time></trkpt><trkpt lat="42.561925" lon="-7.2823783"><ele>615.0</ele><time>2026-04-15T09:55:28.859Z</time></trkpt><trkpt lat="42.5618167" lon="-7.2824667"><ele>612.0</ele><time>2026-04-15T09:55:29.859Z</time></trkpt><trkpt lat="42.56172" lon="-7.2826"><ele>612.0</ele><time>2026-04-15T09:55:30.859Z</time></trkpt><trkpt lat="42.561625" lon="-7.282775"><ele>612.0</ele><time>2026-04-15T09:55:31.859Z</time></trkpt><trkpt lat="42.5615467" lon="-7.2829967"><ele>612.0</ele><time>2026-04-15T09:55:32.86Z</time></trkpt><trkpt lat="42.561475" lon="-7.2832533"><ele>610.0</ele><time>2026-04-15T09:55:33.859Z</time></trkpt><trkpt lat="42.5613967" lon="-7.2835283"><ele>608.0</ele><time>2026-04-15T09:55:34.859Z</time></trkpt><trkpt lat="42.5613017" lon="-7.2837767"><ele>606.0</ele><time>2026-04-15T09:55:35.86Z</time></trkpt><trkpt lat="42.5611767" lon="-7.28401"><ele>606.0</ele><time>2026-04-15T09:55:36.859Z</time></trkpt><trkpt lat="42.5610483" lon="-7.2842283"><ele>606.0</ele><time>2026-04-15T09:55:37.86Z</time></trkpt><trkpt lat="42.56092" lon="-7.2844567"><ele>606.0</ele><time>2026-04-15T09:55:38.859Z</time></trkpt><trkpt lat="42.560785" lon="-7.28469"><ele>615.3333333333334</ele><time>2026-04-15T09:55:39.86Z</time></trkpt><trkpt lat="42.5606583" lon="-7.2849367"><ele>624.6666666666667</ele><time>2026-04-15T09:55:40.86Z</time></trkpt><trkpt lat="42.560555" lon="-7.2851767"><ele>634.0</ele><time>2026-04-15T09:55:41.859Z</time></trkpt><trkpt lat="42.5604617" lon="-7.2854017"><ele>636.3333333333334</ele><time>2026-04-15T09:55:42.859Z</time></trkpt><trkpt lat="42.56038" lon="-7.2856067"><ele>638.6666666666666</ele><time>2026-04-15T09:55:43.86Z</time></trkpt><trkpt lat="42.56031" lon="-7.2857933"><ele>641.0</ele><time>2026-04-15T09:55:44.859Z</time></trkpt><trkpt lat="42.5602583" lon="-7.28597"><ele>637.1999999999999</ele><time>2026-04-15T09:55:45.859Z</time></trkpt><trkpt lat="42.5602167" lon="-7.2861333"><ele>633.4</ele><time>2026-04-15T09:55:46.86Z</time></trkpt><trkpt lat="42.56017" lon="-7.2862533"><ele>629.6</ele><time>2026-04-15T09:55:47.859Z</time></trkpt><trkpt lat="42.5601067" lon="-7.2863483"><ele>625.8</ele><time>2026-04-15T09:55:48.86Z</time></trkpt><trkpt lat="42.5600183" lon="-7.286425"><ele>622.0</ele><time>2026-04-15T09:55:49.859Z</time></trkpt><trkpt lat="42.5598983" lon="-7.2864833"><ele>622.0</ele><time>2026-04-15T09:55:50.86Z</time></trkpt><trkpt lat="42.559765" lon="-7.2865583"><ele>622.0</ele><time>2026-04-15T09:55:51.859Z</time></trkpt><trkpt lat="42.5596183" lon="-7.2866733"><ele>622.0</ele><time>2026-04-15T09:55:52.859Z</time></trkpt><trkpt lat="42.559455" lon="-7.286815"><ele>610.3333333333334</ele><time>2026-04-15T09:55:53.859Z</time></trkpt><trkpt lat="42.5592683" lon="-7.2869567"><ele>598.6666666666666</ele><time>2026-04-15T09:55:54.86Z</time></trkpt><trkpt lat="42.5590767" lon="-7.28708"><ele>587.0</ele><time>2026-04-15T09:55:55.859Z</time></trkpt><trkpt lat="42.5588733" lon="-7.2871933"><ele>587.3333333333333</ele><time>2026-04-15T09:55:56.859Z</time></trkpt><trkpt lat="42.5586683" lon="-7.2872883"><ele>587.6666666666666</ele><time>2026-04-15T09:55:57.859Z</time></trkpt><trkpt lat="42.55846" lon="-7.2874"><ele>588.0</ele><time>2026-04-15T09:55:58.86Z</time></trkpt><trkpt lat="42.5582417" lon="-7.287545"><ele>588.0</ele><time>2026-04-15T09:55:59.859Z</time></trkpt><trkpt lat="42.5580183" lon="-7.2877217"><ele>588.0</ele><time>2026-04-15T09:56:00.86Z</time></trkpt><trkpt lat="42.5577867" lon="-7.2879083"><ele>591.5</ele><time>2026-04-15T09:56:01.859Z</time></trkpt><trkpt lat="42.5575483" lon="-7.2880883"><ele>595.0</ele><time>2026-04-15T09:56:02.86Z</time></trkpt><trkpt lat="42.5573167" lon="-7.2882333"><ele>595.0</ele><time>2026-04-15T09:56:03.86Z</time></trkpt><trkpt lat="42.5570983" lon="-7.2883517"><ele>595.0</ele><time>2026-04-15T09:56:04.859Z</time></trkpt><trkpt lat="42.5568967" lon="-7.2884317"><ele>595.0</ele><time>2026-04-15T09:56:05.859Z</time></trkpt><trkpt lat="42.5567233" lon="-7.2884983"><ele>588.6666666666667</ele><time>2026-04-15T09:56:06.859Z</time></trkpt><trkpt lat="42.556555" lon="-7.288575"><ele>582.3333333333334</ele><time>2026-04-15T09:56:07.859Z</time></trkpt><trkpt lat="42.556375" lon="-7.2886767"><ele>576.0</ele><time>2026-04-15T09:56:08.859Z</time></trkpt><trkpt lat="42.5561817" lon="-7.288785"><ele>575.6666666666666</ele><time>2026-04-15T09:56:09.86Z</time></trkpt><trkpt lat="42.55597" lon="-7.288875"><ele>575.3333333333333</ele><time>2026-04-15T09:56:10.86Z</time></trkpt><trkpt lat="42.55578" lon="-7.2889517"><ele>575.0</ele><time>2026-04-15T09:56:11.859Z</time></trkpt><trkpt lat="42.5556267" lon="-7.2890183"><ele>575.0</ele><time>2026-04-15T09:56:12.859Z</time></trkpt><trkpt lat="42.5555117" lon="-7.2890667"><ele>575.0</ele><time>2026-04-15T09:56:13.859Z</time></trkpt><trkpt lat="42.55545" lon="-7.2891017"><ele>575.0</ele><time>2026-04-15T09:56:14.859Z</time></trkpt><trkpt lat="42.5554417" lon="-7.2891983"><ele>575.0</ele><time>2026-04-15T09:56:16.859Z</time></trkpt><trkpt lat="42.5554833" lon="-7.28928"><ele>575.0</ele><time>2026-04-15T09:56:17.859Z</time></trkpt><trkpt lat="42.5555633" lon="-7.2893867"><ele>575.0</ele><time>2026-04-15T09:56:18.86Z</time></trkpt><trkpt lat="42.5556767" lon="-7.289525"><ele>575.0</ele><time>2026-04-15T09:56:19.859Z</time></trkpt><trkpt lat="42.5558067" lon="-7.2897167"><ele>575.0</ele><time>2026-04-15T09:56:20.859Z</time></trkpt><trkpt lat="42.55593" lon="-7.2899183"><ele>575.0</ele><time>2026-04-15T09:56:21.859Z</time></trkpt><trkpt lat="42.55605" lon="-7.2900933"><ele>578.6666666666666</ele><time>2026-04-15T09:56:22.86Z</time></trkpt><trkpt lat="42.556175" lon="-7.2902217"><ele>582.3333333333334</ele><time>2026-04-15T09:56:23.86Z</time></trkpt><trkpt lat="42.556325" lon="-7.2903233"><ele>586.0</ele><time>2026-04-15T09:56:24.859Z</time></trkpt><trkpt lat="42.5564883" lon="-7.2904483"><ele>579.0</ele><time>2026-04-15T09:56:25.86Z</time></trkpt><trkpt lat="42.5566433" lon="-7.2906033"><ele>572.0</ele><time>2026-04-15T09:56:26.859Z</time></trkpt><trkpt lat="42.556765" lon="-7.2907633"><ele>565.0</ele><time>2026-04-15T09:56:27.859Z</time></trkpt><trkpt lat="42.5568583" lon="-7.290905"><ele>565.0</ele><time>2026-04-15T09:56:28.859Z</time></trkpt><trkpt lat="42.5569217" lon="-7.29105"><ele>565.0</ele><time>2026-04-15T09:56:29.859Z</time></trkpt><trkpt lat="42.556955" lon="-7.2912117"><ele>565.0</ele><time>2026-04-15T09:56:30.859Z</time></trkpt><trkpt lat="42.5569467" lon="-7.2913533"><ele>565.0</ele><time>2026-04-15T09:56:31.859Z</time></trkpt><trkpt lat="42.5568967" lon="-7.2915017"><ele>564.75</ele><time>2026-04-15T09:56:32.86Z</time></trkpt><trkpt lat="42.5568367" lon="-7.2916617"><ele>564.5</ele><time>2026-04-15T09:56:33.859Z</time></trkpt><trkpt lat="42.5567883" lon="-7.2918317"><ele>564.25</ele><time>2026-04-15T09:56:34.859Z</time></trkpt><trkpt lat="42.5567717" lon="-7.2920467"><ele>564.0</ele><time>2026-04-15T09:56:35.859Z</time></trkpt><trkpt lat="42.5567817" lon="-7.2922983"><ele>564.0</ele><time>2026-04-15T09:56:36.86Z</time></trkpt><trkpt lat="42.55679" lon="-7.2925617"><ele>564.0</ele><time>2026-04-15T09:56:37.86Z</time></trkpt><trkpt lat="42.5568017" lon="-7.2927817"><ele>564.0</ele><time>2026-04-15T09:56:38.859Z</time></trkpt><trkpt lat="42.556825" lon="-7.29297"><ele>562.3333333333334</ele><time>2026-04-15T09:56:39.859Z</time></trkpt><trkpt lat="42.5568767" lon="-7.293145"><ele>560.6666666666667</ele><time>2026-04-15T09:56:40.859Z</time></trkpt><trkpt lat="42.5569583" lon="-7.29334"><ele>559.0</ele><time>2026-04-15T09:56:41.859Z</time></trkpt><trkpt lat="42.55706" lon="-7.2935533"><ele>571.3333333333334</ele><time>2026-04-15T09:56:42.859Z</time></trkpt><trkpt lat="42.5571667" lon="-7.2937983"><ele>583.6666666666666</ele><time>2026-04-15T09:56:43.859Z</time></trkpt><trkpt lat="42.5572717" lon="-7.294075"><ele>596.0</ele><time>2026-04-15T09:56:44.86Z</time></trkpt><trkpt lat="42.55737" lon="-7.29438"><ele>596.0</ele><time>2026-04-15T09:56:45.859Z</time></trkpt><trkpt lat="42.557455" lon="-7.2946933"><ele>596.0</ele><time>2026-04-15T09:56:46.859Z</time></trkpt><trkpt lat="42.5575233" lon="-7.2950017"><ele>591.6666666666666</ele><time>2026-04-15T09:56:47.86Z</time></trkpt><trkpt lat="42.55758" lon="-7.29529"><ele>587.3333333333334</ele><time>2026-04-15T09:56:48.859Z</time></trkpt><trkpt lat="42.5576333" lon="-7.2955267"><ele>583.0</ele><time>2026-04-15T09:56:49.86Z</time></trkpt><trkpt lat="42.5577017" lon="-7.2957067"><ele>578.0</ele><time>2026-04-15T09:56:50.86Z</time></trkpt><trkpt lat="42.557805" lon="-7.2958767"><ele>573.0</ele><time>2026-04-15T09:56:51.859Z</time></trkpt><trkpt lat="42.557925" lon="-7.29604"><ele>568.0</ele><time>2026-04-15T09:56:52.859Z</time></trkpt><trkpt lat="42.5580717" lon="-7.296215"><ele>574.6666666666667</ele><time>2026-04-15T09:56:53.859Z</time></trkpt><trkpt lat="42.55824" lon="-7.2964017"><ele>581.3333333333334</ele><time>2026-04-15T09:56:54.859Z</time></trkpt><trkpt lat="42.5583833" lon="-7.2965833"><ele>588.0</ele><time>2026-04-15T09:56:55.859Z</time></trkpt><trkpt lat="42.5584983" lon="-7.2967433"><ele>588.0</ele><time>2026-04-15T09:56:56.859Z</time></trkpt><trkpt lat="42.5586167" lon="-7.2968867"><ele>588.0</ele><time>2026-04-15T09:56:57.859Z</time></trkpt><trkpt lat="42.5587467" lon="-7.2970317"><ele>588.0</ele><time>2026-04-15T09:56:58.86Z</time></trkpt><trkpt lat="42.5588833" lon="-7.2971667"><ele>590.3333333333334</ele><time>2026-04-15T09:56:59.859Z</time></trkpt><trkpt lat="42.55904" lon="-7.2972867"><ele>592.6666666666667</ele><time>2026-04-15T09:57:00.86Z</time></trkpt><trkpt lat="42.5591867" lon="-7.2973767"><ele>595.0</ele><time>2026-04-15T09:57:01.86Z</time></trkpt><trkpt lat="42.5593233" lon="-7.2974267"><ele>595.0</ele><time>2026-04-15T09:57:02.859Z</time></trkpt><trkpt lat="42.5594533" lon="-7.297435"><ele>595.0</ele><time>2026-04-15T09:57:03.86Z</time></trkpt><trkpt lat="42.5595933" lon="-7.2973883"><ele>595.0</ele><time>2026-04-15T09:57:04.86Z</time></trkpt><trkpt lat="42.5597517" lon="-7.2973083"><ele>595.0</ele><time>2026-04-15T09:57:05.859Z</time></trkpt><trkpt lat="42.55992" lon="-7.2972267"><ele>605.3333333333334</ele><time>2026-04-15T09:57:06.859Z</time></trkpt><trkpt lat="42.5601167" lon="-7.29715"><ele>615.6666666666666</ele><time>2026-04-15T09:57:07.86Z</time></trkpt><trkpt lat="42.5603283" lon="-7.297085"><ele>626.0</ele><time>2026-04-15T09:57:08.86Z</time></trkpt><trkpt lat="42.56053" lon="-7.29702"><ele>626.0</ele><time>2026-04-15T09:57:09.86Z</time></trkpt><trkpt lat="42.5607067" lon="-7.29697"><ele>626.0</ele><time>2026-04-15T09:57:10.86Z</time></trkpt><trkpt lat="42.560865" lon="-7.2969417"><ele>626.0</ele><time>2026-04-15T09:57:11.86Z</time></trkpt><trkpt lat="42.56102" lon="-7.296955"><ele>626.0</ele><time>2026-04-15T09:57:12.86Z</time></trkpt><trkpt lat="42.5611683" lon="-7.297005"><ele>626.0</ele><time>2026-04-15T09:57:13.859Z</time></trkpt><trkpt lat="42.5613233" lon="-7.2971083"><ele>626.0</ele><time>2026-04-15T09:57:14.86Z</time></trkpt><trkpt lat="42.5614817" lon="-7.2972283"><ele>618.3333333333333</ele><time>2026-04-15T09:57:15.86Z</time></trkpt><trkpt lat="42.5616333" lon="-7.2973317"><ele>610.6666666666666</ele><time>2026-04-15T09:57:16.859Z</time></trkpt><trkpt lat="42.5617783" lon="-7.2973983"><ele>603.0</ele><time>2026-04-15T09:57:17.86Z</time></trkpt><trkpt lat="42.5619317" lon="-7.2974383"><ele>605.0</ele><time>2026-04-15T09:57:18.859Z</time></trkpt><trkpt lat="42.562095" lon="-7.2974483"><ele>607.0</ele><time>2026-04-15T09:57:19.859Z</time></trkpt><trkpt lat="42.56226" lon="-7.29742"><ele>609.0</ele><time>2026-04-15T09:57:20.859Z</time></trkpt><trkpt lat="42.5624317" lon="-7.2973783"><ele>609.0</ele><time>2026-04-15T09:57:21.86Z</time></trkpt><trkpt lat="42.5625883" lon="-7.2973467"><ele>609.0</ele><time>2026-04-15T09:57:22.859Z</time></trkpt><trkpt lat="42.56274" lon="-7.297365"><ele>609.0</ele><time>2026-04-15T09:57:23.86Z</time></trkpt><trkpt lat="42.5628967" lon="-7.2973983"><ele>612.6666666666666</ele><time>2026-04-15T09:57:24.859Z</time></trkpt><trkpt lat="42.5630633" lon="-7.2974467"><ele>616.3333333333333</ele><time>2026-04-15T09:57:25.86Z</time></trkpt><trkpt lat="42.5632383" lon="-7.297505"><ele>620.0</ele><time>2026-04-15T09:57:26.86Z</time></trkpt><trkpt lat="42.563415" lon="-7.2975883"><ele>620.0</ele><time>2026-04-15T09:57:27.859Z</time></trkpt><trkpt lat="42.5635933" lon="-7.2976783"><ele>620.0</ele><time>2026-04-15T09:57:28.859Z</time></trkpt><trkpt lat="42.56377" lon="-7.2977583"><ele>620.0</ele><time>2026-04-15T09:57:29.859Z</time></trkpt><trkpt lat="42.56392" lon="-7.2977983"><ele>622.25</ele><time>2026-04-15T09:57:30.859Z</time></trkpt><trkpt lat="42.5640533" lon="-7.2978033"><ele>624.5</ele><time>2026-04-15T09:57:31.86Z</time></trkpt><trkpt lat="42.56419" lon="-7.2977683"><ele>626.75</ele><time>2026-04-15T09:57:32.859Z</time></trkpt><trkpt lat="42.5643317" lon="-7.2976867"><ele>629.0</ele><time>2026-04-15T09:57:33.86Z</time></trkpt><trkpt lat="42.5644933" lon="-7.2975883"><ele>626.3333333333333</ele><time>2026-04-15T09:57:34.86Z</time></trkpt><trkpt lat="42.5646783" lon="-7.2975033"><ele>623.6666666666666</ele><time>2026-04-15T09:57:35.859Z</time></trkpt><trkpt lat="42.5648733" lon="-7.2973983"><ele>621.0</ele><time>2026-04-15T09:57:36.859Z</time></trkpt><trkpt lat="42.5650833" lon="-7.2972817"><ele>633.5</ele><time>2026-04-15T09:57:37.859Z</time></trkpt><trkpt lat="42.5653117" lon="-7.2971783"><ele>646.0</ele><time>2026-04-15T09:57:38.859Z</time></trkpt><trkpt lat="42.5655367" lon="-7.2970767"><ele>646.0</ele><time>2026-04-15T09:57:39.86Z</time></trkpt><trkpt lat="42.56575" lon="-7.2970017"><ele>646.0</ele><time>2026-04-15T09:57:40.86Z</time></trkpt><trkpt lat="42.5659617" lon="-7.2969433"><ele>646.0</ele><time>2026-04-15T09:57:41.86Z</time></trkpt><trkpt lat="42.566155" lon="-7.2968817"><ele>642.6666666666667</ele><time>2026-04-15T09:57:42.859Z</time></trkpt><trkpt lat="42.5663" lon="-7.2968067"><ele>639.3333333333334</ele><time>2026-04-15T09:57:43.86Z</time></trkpt><trkpt lat="42.5664367" lon="-7.2967183"><ele>636.0</ele><time>2026-04-15T09:57:44.86Z</time></trkpt><trkpt lat="42.5665717" lon="-7.2966117"><ele>636.0</ele><time>2026-04-15T09:57:45.859Z</time></trkpt><trkpt lat="42.5667267" lon="-7.2965267"><ele>636.0</ele><time>2026-04-15T09:57:46.859Z</time></trkpt><trkpt lat="42.5669067" lon="-7.2964667"><ele>636.0</ele><time>2026-04-15T09:57:47.86Z</time></trkpt><trkpt lat="42.5670967" lon="-7.2964017"><ele>647.0</ele><time>2026-04-15T09:57:48.859Z</time></trkpt><trkpt lat="42.5672817" lon="-7.2963383"><ele>658.0</ele><time>2026-04-15T09:57:49.86Z</time></trkpt><trkpt lat="42.567475" lon="-7.2962883"><ele>669.0</ele><time>2026-04-15T09:57:50.86Z</time></trkpt><trkpt lat="42.5676567" lon="-7.2962767"><ele>669.0</ele><time>2026-04-15T09:57:51.859Z</time></trkpt><trkpt lat="42.5678267" lon="-7.2963133"><ele>669.0</ele><time>2026-04-15T09:57:52.859Z</time></trkpt><trkpt lat="42.567995" lon="-7.296355"><ele>669.0</ele><time>2026-04-15T09:57:53.859Z</time></trkpt><trkpt lat="42.5681433" lon="-7.2964067"><ele>669.5</ele><time>2026-04-15T09:57:54.86Z</time></trkpt><trkpt lat="42.5682767" lon="-7.2964183"><ele>670.0</ele><time>2026-04-15T09:57:55.859Z</time></trkpt><trkpt lat="42.568415" lon="-7.2964083"><ele>670.5</ele><time>2026-04-15T09:57:56.86Z</time></trkpt><trkpt lat="42.5685633" lon="-7.296375"><ele>671.0</ele><time>2026-04-15T09:57:57.859Z</time></trkpt><trkpt lat="42.56871" lon="-7.2963"><ele>669.0</ele><time>2026-04-15T09:57:58.86Z</time></trkpt><trkpt lat="42.568855" lon="-7.2961983"><ele>667.0</ele><time>2026-04-15T09:57:59.859Z</time></trkpt><trkpt lat="42.5690067" lon="-7.2960867"><ele>665.0</ele><time>2026-04-15T09:58:00.859Z</time></trkpt><trkpt lat="42.5691717" lon="-7.29598"><ele>665.0</ele><time>2026-04-15T09:58:01.859Z</time></trkpt><trkpt lat="42.5693583" lon="-7.2958783"><ele>665.0</ele><time>2026-04-15T09:58:02.86Z</time></trkpt><trkpt lat="42.56956" lon="-7.2957783"><ele>665.0</ele><time>2026-04-15T09:58:03.859Z</time></trkpt><trkpt lat="42.5697683" lon="-7.2956917"><ele>665.6666666666666</ele><time>2026-04-15T09:58:04.86Z</time></trkpt><trkpt lat="42.569965" lon="-7.2956083"><ele>666.3333333333334</ele><time>2026-04-15T09:58:05.86Z</time></trkpt><trkpt lat="42.57014" lon="-7.2955183"><ele>667.0</ele><time>2026-04-15T09:58:06.86Z</time></trkpt><trkpt lat="42.570285" lon="-7.2954333"><ele>669.1666666666667</ele><time>2026-04-15T09:58:07.859Z</time></trkpt><trkpt lat="42.5703967" lon="-7.295385"><ele>671.3333333333334</ele><time>2026-04-15T09:58:08.86Z</time></trkpt><trkpt lat="42.5704767" lon="-7.2953583"><ele>673.5</ele><time>2026-04-15T09:58:09.86Z</time></trkpt><trkpt lat="42.5705533" lon="-7.2953783"><ele>675.6666666666666</ele><time>2026-04-15T09:58:10.86Z</time></trkpt><trkpt lat="42.5706133" lon="-7.2954333"><ele>677.8333333333333</ele><time>2026-04-15T09:58:11.859Z</time></trkpt><trkpt lat="42.57066" lon="-7.295515"><ele>680.0</ele><time>2026-04-15T09:58:12.859Z</time></trkpt><trkpt lat="42.5706767" lon="-7.295625"><ele>680.2</ele><time>2026-04-15T09:58:13.86Z</time></trkpt><trkpt lat="42.5706683" lon="-7.2957317"><ele>680.4</ele><time>2026-04-15T09:58:14.86Z</time></trkpt><trkpt lat="42.5706283" lon="-7.2958483"><ele>680.5999999999999</ele><time>2026-04-15T09:58:15.859Z</time></trkpt><trkpt lat="42.5705683" lon="-7.295965"><ele>680.8</ele><time>2026-04-15T09:58:16.86Z</time></trkpt><trkpt lat="42.5704683" lon="-7.2960833"><ele>681.0</ele><time>2026-04-15T09:58:17.86Z</time></trkpt><trkpt lat="42.5703267" lon="-7.2962183"><ele>682.6666666666666</ele><time>2026-04-15T09:58:18.86Z</time></trkpt><trkpt lat="42.5701567" lon="-7.2963583"><ele>684.3333333333333</ele><time>2026-04-15T09:58:19.859Z</time></trkpt><trkpt lat="42.5699867" lon="-7.296505"><ele>686.0</ele><time>2026-04-15T09:58:20.859Z</time></trkpt><trkpt lat="42.5698117" lon="-7.2966567"><ele>686.0</ele><time>2026-04-15T09:58:21.859Z</time></trkpt><trkpt lat="42.5696417" lon="-7.2968083"><ele>686.0</ele><time>2026-04-15T09:58:22.859Z</time></trkpt><trkpt lat="42.56948" lon="-7.2969583"><ele>686.0</ele><time>2026-04-15T09:58:23.86Z</time></trkpt><trkpt lat="42.5693167" lon="-7.2971383"><ele>685.6666666666666</ele><time>2026-04-15T09:58:24.86Z</time></trkpt><trkpt lat="42.569155" lon="-7.29732"><ele>685.3333333333334</ele><time>2026-04-15T09:58:25.86Z</time></trkpt><trkpt lat="42.569025" lon="-7.2974833"><ele>685.0</ele><time>2026-04-15T09:58:26.859Z</time></trkpt><trkpt lat="42.5689333" lon="-7.2976017"><ele>685.0</ele><time>2026-04-15T09:58:27.86Z</time></trkpt><trkpt lat="42.5688867" lon="-7.29769"><ele>685.0</ele><time>2026-04-15T09:58:28.86Z</time></trkpt><trkpt lat="42.5688817" lon="-7.2977967"><ele>685.0</ele><time>2026-04-15T09:58:29.86Z</time></trkpt><trkpt lat="42.5689" lon="-7.2979317"><ele>685.0</ele><time>2026-04-15T09:58:30.859Z</time></trkpt><trkpt lat="42.5689217" lon="-7.2980883"><ele>685.0</ele><time>2026-04-15T09:58:31.859Z</time></trkpt><trkpt lat="42.5689333" lon="-7.2982183"><ele>685.6</ele><time>2026-04-15T09:58:32.86Z</time></trkpt><trkpt lat="42.5688883" lon="-7.2983483"><ele>686.2</ele><time>2026-04-15T09:58:34.859Z</time></trkpt><trkpt lat="42.5688233" lon="-7.298355"><ele>686.8</ele><time>2026-04-15T09:58:35.86Z</time></trkpt><trkpt lat="42.5687417" lon="-7.2983267"><ele>687.4</ele><time>2026-04-15T09:58:36.86Z</time></trkpt><trkpt lat="42.5686333" lon="-7.2982667"><ele>688.0</ele><time>2026-04-15T09:58:37.859Z</time></trkpt><trkpt lat="42.568495" lon="-7.298195"><ele>688.0</ele><time>2026-04-15T09:58:38.859Z</time></trkpt><trkpt lat="42.5683417" lon="-7.29814"><ele>688.0</ele><time>2026-04-15T09:58:39.86Z</time></trkpt><trkpt lat="42.56819" lon="-7.298135"><ele>688.0</ele><time>2026-04-15T09:58:40.86Z</time></trkpt><trkpt lat="42.56803" lon="-7.2981917"><ele>688.0</ele><time>2026-04-15T09:58:41.86Z</time></trkpt><trkpt lat="42.567865" lon="-7.29829"><ele>688.0</ele><time>2026-04-15T09:58:42.859Z</time></trkpt><trkpt lat="42.5677083" lon="-7.2984317"><ele>688.0</ele><time>2026-04-15T09:58:43.86Z</time></trkpt><trkpt lat="42.5675667" lon="-7.2985717"><ele>686.0</ele><time>2026-04-15T09:58:44.859Z</time></trkpt><trkpt lat="42.5674433" lon="-7.298725"><ele>684.0</ele><time>2026-04-15T09:58:45.859Z</time></trkpt><trkpt lat="42.56734" lon="-7.2988917"><ele>682.0</ele><time>2026-04-15T09:58:46.859Z</time></trkpt><trkpt lat="42.5672583" lon="-7.299095"><ele>683.25</ele><time>2026-04-15T09:58:47.86Z</time></trkpt><trkpt lat="42.5671933" lon="-7.29929"><ele>684.5</ele><time>2026-04-15T09:58:48.859Z</time></trkpt><trkpt lat="42.5671267" lon="-7.2994333"><ele>685.75</ele><time>2026-04-15T09:58:49.86Z</time></trkpt><trkpt lat="42.5670533" lon="-7.299535"><ele>687.0</ele><time>2026-04-15T09:58:50.859Z</time></trkpt><trkpt lat="42.56697" lon="-7.2995983"><ele>687.0</ele><time>2026-04-15T09:58:51.86Z</time></trkpt><trkpt lat="42.566865" lon="-7.2996233"><ele>687.0</ele><time>2026-04-15T09:58:52.86Z</time></trkpt><trkpt lat="42.5667383" lon="-7.299645"><ele>687.0</ele><time>2026-04-15T09:58:53.859Z</time></trkpt><trkpt lat="42.5666017" lon="-7.2996817"><ele>687.0</ele><time>2026-04-15T09:58:54.859Z</time></trkpt><trkpt lat="42.56646" lon="-7.2997467"><ele>690.0</ele><time>2026-04-15T09:58:55.859Z</time></trkpt><trkpt lat="42.5663133" lon="-7.2998317"><ele>693.0</ele><time>2026-04-15T09:58:56.86Z</time></trkpt><trkpt lat="42.5661883" lon="-7.29992"><ele>696.0</ele><time>2026-04-15T09:58:57.859Z</time></trkpt><trkpt lat="42.5660917" lon="-7.300015"><ele>699.0</ele><time>2026-04-15T09:58:58.859Z</time></trkpt><trkpt lat="42.5659983" lon="-7.30015"><ele>699.0</ele><time>2026-04-15T09:58:59.859Z</time></trkpt><trkpt lat="42.5659017" lon="-7.300315"><ele>699.0</ele><time>2026-04-15T09:59:00.859Z</time></trkpt><trkpt lat="42.565805" lon="-7.30045"><ele>699.0</ele><time>2026-04-15T09:59:01.86Z</time></trkpt><trkpt lat="42.5656883" lon="-7.3005417"><ele>699.0</ele><time>2026-04-15T09:59:02.859Z</time></trkpt><trkpt lat="42.565545" lon="-7.3006233"><ele>705.0</ele><time>2026-04-15T09:59:03.861Z</time></trkpt><trkpt lat="42.5653783" lon="-7.3006917"><ele>711.0</ele><time>2026-04-15T09:59:04.86Z</time></trkpt><trkpt lat="42.5652033" lon="-7.3007783"><ele>717.0</ele><time>2026-04-15T09:59:05.861Z</time></trkpt><trkpt lat="42.565015" lon="-7.3008467"><ele>717.0</ele><time>2026-04-15T09:59:06.861Z</time></trkpt><trkpt lat="42.5648217" lon="-7.3008767"><ele>717.0</ele><time>2026-04-15T09:59:07.86Z</time></trkpt><trkpt lat="42.5646233" lon="-7.3008517"><ele>717.0</ele><time>2026-04-15T09:59:08.861Z</time></trkpt><trkpt lat="42.5644283" lon="-7.3008233"><ele>714.6666666666666</ele><time>2026-04-15T09:59:09.861Z</time></trkpt><trkpt lat="42.5642583" lon="-7.3007867"><ele>712.3333333333333</ele><time>2026-04-15T09:59:10.86Z</time></trkpt><trkpt lat="42.564105" lon="-7.300775"><ele>710.0</ele><time>2026-04-15T09:59:11.86Z</time></trkpt><trkpt lat="42.563965" lon="-7.3007833"><ele>710.0</ele><time>2026-04-15T09:59:12.86Z</time></trkpt><trkpt lat="42.5638217" lon="-7.3008267"><ele>710.0</ele><time>2026-04-15T09:59:13.861Z</time></trkpt><trkpt lat="42.5636767" lon="-7.3008933"><ele>710.0</ele><time>2026-04-15T09:59:14.86Z</time></trkpt><trkpt lat="42.5635233" lon="-7.3009983"><ele>701.6666666666666</ele><time>2026-04-15T09:59:15.861Z</time></trkpt><trkpt lat="42.5633583" lon="-7.30112"><ele>693.3333333333334</ele><time>2026-04-15T09:59:16.861Z</time></trkpt><trkpt lat="42.563205" lon="-7.301235"><ele>685.0</ele><time>2026-04-15T09:59:17.861Z</time></trkpt><trkpt lat="42.5630617" lon="-7.301345"><ele>684.25</ele><time>2026-04-15T09:59:18.86Z</time></trkpt><trkpt lat="42.5629333" lon="-7.3014583"><ele>683.5</ele><time>2026-04-15T09:59:19.86Z</time></trkpt><trkpt lat="42.56282" lon="-7.301555"><ele>682.75</ele><time>2026-04-15T09:59:20.861Z</time></trkpt><trkpt lat="42.5627083" lon="-7.3016317"><ele>682.0</ele><time>2026-04-15T09:59:21.86Z</time></trkpt><trkpt lat="42.562585" lon="-7.3016667"><ele>682.0</ele><time>2026-04-15T09:59:22.861Z</time></trkpt><trkpt lat="42.5624433" lon="-7.3016517"><ele>682.0</ele><time>2026-04-15T09:59:23.86Z</time></trkpt><trkpt lat="42.56229" lon="-7.30161"><ele>682.0</ele><time>2026-04-15T09:59:24.86Z</time></trkpt><trkpt lat="42.5621533" lon="-7.3015883"><ele>682.0</ele><time>2026-04-15T09:59:25.86Z</time></trkpt><trkpt lat="42.56205" lon="-7.301575"><ele>678.8</ele><time>2026-04-15T09:59:26.861Z</time></trkpt><trkpt lat="42.5619683" lon="-7.3015933"><ele>675.6</ele><time>2026-04-15T09:59:27.86Z</time></trkpt><trkpt lat="42.5619017" lon="-7.301655"><ele>672.4</ele><time>2026-04-15T09:59:28.86Z</time></trkpt><trkpt lat="42.561875" lon="-7.301755"><ele>669.1999999999999</ele><time>2026-04-15T09:59:29.861Z</time></trkpt><trkpt lat="42.561885" lon="-7.301885"><ele>666.0</ele><time>2026-04-15T09:59:30.86Z</time></trkpt><trkpt lat="42.56193" lon="-7.3020517"><ele>666.0</ele><time>2026-04-15T09:59:31.86Z</time></trkpt><trkpt lat="42.562005" lon="-7.30223"><ele>666.0</ele><time>2026-04-15T09:59:32.861Z</time></trkpt><trkpt lat="42.5620983" lon="-7.30241"><ele>666.0</ele><time>2026-04-15T09:59:33.86Z</time></trkpt><trkpt lat="42.5622083" lon="-7.3025767"><ele>669.3333333333334</ele><time>2026-04-15T09:59:34.86Z</time></trkpt><trkpt lat="42.5623367" lon="-7.3027233"><ele>672.6666666666667</ele><time>2026-04-15T09:59:35.861Z</time></trkpt><trkpt lat="42.56248" lon="-7.3028533"><ele>676.0</ele><time>2026-04-15T09:59:36.861Z</time></trkpt><trkpt lat="42.5626333" lon="-7.3029867"><ele>678.25</ele><time>2026-04-15T09:59:37.861Z</time></trkpt><trkpt lat="42.5627633" lon="-7.3030967"><ele>680.5</ele><time>2026-04-15T09:59:38.86Z</time></trkpt><trkpt lat="42.5628767" lon="-7.3031967"><ele>682.75</ele><time>2026-04-15T09:59:39.861Z</time></trkpt><trkpt lat="42.5629583" lon="-7.3032833"><ele>685.0</ele><time>2026-04-15T09:59:40.861Z</time></trkpt><trkpt lat="42.56301" lon="-7.3033883"><ele>685.0</ele><time>2026-04-15T09:59:41.861Z</time></trkpt><trkpt lat="42.563025" lon="-7.3035133"><ele>685.0</ele><time>2026-04-15T09:59:42.86Z</time></trkpt><trkpt lat="42.563015" lon="-7.3036433"><ele>685.0</ele><time>2026-04-15T09:59:43.861Z</time></trkpt><trkpt lat="42.5629717" lon="-7.3037867"><ele>685.0</ele><time>2026-04-15T09:59:44.861Z</time></trkpt><trkpt lat="42.5628967" lon="-7.3039383"><ele>685.0</ele><time>2026-04-15T09:59:45.861Z</time></trkpt><trkpt lat="42.5628017" lon="-7.3041017"><ele>676.0</ele><time>2026-04-15T09:59:46.861Z</time></trkpt><trkpt lat="42.5627033" lon="-7.304285"><ele>667.0</ele><time>2026-04-15T09:59:47.86Z</time></trkpt><trkpt lat="42.5626167" lon="-7.3044567"><ele>658.0</ele><time>2026-04-15T09:59:48.861Z</time></trkpt><trkpt lat="42.5625517" lon="-7.3045917"><ele>649.0</ele><time>2026-04-15T09:59:49.861Z</time></trkpt><trkpt lat="42.5625167" lon="-7.3047367"><ele>648.5</ele><time>2026-04-15T09:59:50.86Z</time></trkpt><trkpt lat="42.5625217" lon="-7.30489"><ele>648.0</ele><time>2026-04-15T09:59:51.86Z</time></trkpt><trkpt lat="42.5625567" lon="-7.3050633"><ele>647.5</ele><time>2026-04-15T09:59:52.861Z</time></trkpt><trkpt lat="42.5626317" lon="-7.3052317"><ele>647.0</ele><time>2026-04-15T09:59:53.86Z</time></trkpt><trkpt lat="42.5627367" lon="-7.3054083"><ele>651.6666666666666</ele><time>2026-04-15T09:59:54.861Z</time></trkpt><trkpt lat="42.56288" lon="-7.3056083"><ele>656.3333333333334</ele><time>2026-04-15T09:59:55.86Z</time></trkpt><trkpt lat="42.5630317" lon="-7.305805"><ele>661.0</ele><time>2026-04-15T09:59:56.86Z</time></trkpt><trkpt lat="42.5631633" lon="-7.30598"><ele>661.0</ele><time>2026-04-15T09:59:57.86Z</time></trkpt><trkpt lat="42.5632833" lon="-7.306145"><ele>661.0</ele><time>2026-04-15T09:59:58.86Z</time></trkpt><trkpt lat="42.5633817" lon="-7.3062817"><ele>661.0</ele><time>2026-04-15T09:59:59.86Z</time></trkpt><trkpt lat="42.5634517" lon="-7.3063917"><ele>661.0</ele><time>2026-04-15T10:00:00.861Z</time></trkpt><trkpt lat="42.5634967" lon="-7.3064983"><ele>659.0</ele><time>2026-04-15T10:00:01.861Z</time></trkpt><trkpt lat="42.5635133" lon="-7.3066"><ele>657.0</ele><time>2026-04-15T10:00:02.86Z</time></trkpt><trkpt lat="42.56349" lon="-7.3066983"><ele>655.0</ele><time>2026-04-15T10:00:03.86Z</time></trkpt><trkpt lat="42.5634283" lon="-7.3068033"><ele>653.0</ele><time>2026-04-15T10:00:04.86Z</time></trkpt><trkpt lat="42.5633317" lon="-7.3069017"><ele>651.0</ele><time>2026-04-15T10:00:05.86Z</time></trkpt><trkpt lat="42.5631867" lon="-7.3069833"><ele>651.0</ele><time>2026-04-15T10:00:06.861Z</time></trkpt><trkpt lat="42.5630367" lon="-7.3070833"><ele>651.0</ele><time>2026-04-15T10:00:07.861Z</time></trkpt><trkpt lat="42.5629017" lon="-7.3072167"><ele>651.0</ele><time>2026-04-15T10:00:08.861Z</time></trkpt><trkpt lat="42.56279" lon="-7.3073817"><ele>651.25</ele><time>2026-04-15T10:00:09.861Z</time></trkpt><trkpt lat="42.5626917" lon="-7.30756"><ele>651.5</ele><time>2026-04-15T10:00:10.86Z</time></trkpt><trkpt lat="42.5626217" lon="-7.307725"><ele>651.75</ele><time>2026-04-15T10:00:11.861Z</time></trkpt><trkpt lat="42.562575" lon="-7.3078833"><ele>652.0</ele><time>2026-04-15T10:00:12.861Z</time></trkpt><trkpt lat="42.5625517" lon="-7.3080733"><ele>656.0</ele><time>2026-04-15T10:00:13.861Z</time></trkpt><trkpt lat="42.5625567" lon="-7.3083033"><ele>660.0</ele><time>2026-04-15T10:00:14.861Z</time></trkpt><trkpt lat="42.56257" lon="-7.3085633"><ele>664.0</ele><time>2026-04-15T10:00:15.861Z</time></trkpt><trkpt lat="42.56257" lon="-7.3088367"><ele>667.75</ele><time>2026-04-15T10:00:16.861Z</time></trkpt><trkpt lat="42.56255" lon="-7.3090833"><ele>671.5</ele><time>2026-04-15T10:00:17.861Z</time></trkpt><trkpt lat="42.56252" lon="-7.3092733"><ele>675.25</ele><time>2026-04-15T10:00:18.861Z</time></trkpt><trkpt lat="42.5624867" lon="-7.3094067"><ele>679.0</ele><time>2026-04-15T10:00:19.861Z</time></trkpt><trkpt lat="42.5624217" lon="-7.3094833"><ele>679.0</ele><time>2026-04-15T10:00:20.86Z</time></trkpt><trkpt lat="42.56233" lon="-7.309525"><ele>679.0</ele><time>2026-04-15T10:00:21.86Z</time></trkpt><trkpt lat="42.5622133" lon="-7.3095367"><ele>679.0</ele><time>2026-04-15T10:00:22.861Z</time></trkpt><trkpt lat="42.5620667" lon="-7.3095133"><ele>679.0</ele><time>2026-04-15T10:00:23.86Z</time></trkpt><trkpt lat="42.5619067" lon="-7.3094533"><ele>675.75</ele><time>2026-04-15T10:00:24.86Z</time></trkpt><trkpt lat="42.5617483" lon="-7.30939"><ele>672.5</ele><time>2026-04-15T10:00:25.861Z</time></trkpt><trkpt lat="42.5616017" lon="-7.309365"><ele>669.25</ele><time>2026-04-15T10:00:26.86Z</time></trkpt><trkpt lat="42.5614817" lon="-7.3093983"><ele>666.0</ele><time>2026-04-15T10:00:27.86Z</time></trkpt><trkpt lat="42.5613717" lon="-7.30947"><ele>666.0</ele><time>2026-04-15T10:00:28.861Z</time></trkpt><trkpt lat="42.5612717" lon="-7.3095867"><ele>666.0</ele><time>2026-04-15T10:00:29.861Z</time></trkpt><trkpt lat="42.5611667" lon="-7.3097367"><ele>666.0</ele><time>2026-04-15T10:00:30.861Z</time></trkpt><trkpt lat="42.5610317" lon="-7.3099083"><ele>671.0</ele><time>2026-04-15T10:00:31.86Z</time></trkpt><trkpt lat="42.5608783" lon="-7.3101017"><ele>676.0</ele><time>2026-04-15T10:00:32.86Z</time></trkpt><trkpt lat="42.56071" lon="-7.310305"><ele>681.0</ele><time>2026-04-15T10:00:33.861Z</time></trkpt><trkpt lat="42.5605367" lon="-7.3105033"><ele>684.5</ele><time>2026-04-15T10:00:34.86Z</time></trkpt><trkpt lat="42.5603417" lon="-7.3106883"><ele>688.0</ele><time>2026-04-15T10:00:35.861Z</time></trkpt><trkpt lat="42.56014" lon="-7.310845"><ele>688.0</ele><time>2026-04-15T10:00:36.86Z</time></trkpt><trkpt lat="42.5599583" lon="-7.310965"><ele>688.0</ele><time>2026-04-15T10:00:37.861Z</time></trkpt><trkpt lat="42.559805" lon="-7.311055"><ele>688.0</ele><time>2026-04-15T10:00:38.86Z</time></trkpt><trkpt lat="42.5596883" lon="-7.31115"><ele>688.0</ele><time>2026-04-15T10:00:39.86Z</time></trkpt><trkpt lat="42.5596" lon="-7.311265"><ele>688.0</ele><time>2026-04-15T10:00:40.861Z</time></trkpt><trkpt lat="42.559535" lon="-7.3114233"><ele>688.0</ele><time>2026-04-15T10:00:41.86Z</time></trkpt><trkpt lat="42.559495" lon="-7.3116083"><ele>688.0</ele><time>2026-04-15T10:00:42.86Z</time></trkpt><trkpt lat="42.5594783" lon="-7.3117983"><ele>688.75</ele><time>2026-04-15T10:00:43.86Z</time></trkpt><trkpt lat="42.55949" lon="-7.3119683"><ele>689.5</ele><time>2026-04-15T10:00:44.861Z</time></trkpt><trkpt lat="42.5595317" lon="-7.3121317"><ele>690.25</ele><time>2026-04-15T10:00:45.86Z</time></trkpt><trkpt lat="42.5596017" lon="-7.3122833"><ele>691.0</ele><time>2026-04-15T10:00:46.861Z</time></trkpt><trkpt lat="42.5597117" lon="-7.31244"><ele>693.3333333333334</ele><time>2026-04-15T10:00:47.861Z</time></trkpt><trkpt lat="42.5598583" lon="-7.3125917"><ele>695.6666666666666</ele><time>2026-04-15T10:00:48.861Z</time></trkpt><trkpt lat="42.5600167" lon="-7.3127267"><ele>698.0</ele><time>2026-04-15T10:00:49.861Z</time></trkpt><trkpt lat="42.5601767" lon="-7.3128267"><ele>698.0</ele><time>2026-04-15T10:00:50.861Z</time></trkpt><trkpt lat="42.5603233" lon="-7.3129117"><ele>698.0</ele><time>2026-04-15T10:00:51.861Z</time></trkpt><trkpt lat="42.5604317" lon="-7.3129967"><ele>698.0</ele><time>2026-04-15T10:00:52.86Z</time></trkpt><trkpt lat="42.5605017" lon="-7.31311"><ele>698.0</ele><time>2026-04-15T10:00:53.86Z</time></trkpt><trkpt lat="42.5605483" lon="-7.3132233"><ele>696.5999999999999</ele><time>2026-04-15T10:00:54.861Z</time></trkpt><trkpt lat="42.56055" lon="-7.313335"><ele>695.1999999999999</ele><time>2026-04-15T10:00:55.86Z</time></trkpt><trkpt lat="42.5605283" lon="-7.3134483"><ele>693.8</ele><time>2026-04-15T10:00:56.86Z</time></trkpt><trkpt lat="42.5604833" lon="-7.3135717"><ele>692.4</ele><time>2026-04-15T10:00:57.861Z</time></trkpt><trkpt lat="42.5604067" lon="-7.3137183"><ele>691.0</ele><time>2026-04-15T10:00:58.861Z</time></trkpt><trkpt lat="42.5602667" lon="-7.3138833"><ele>692.3333333333334</ele><time>2026-04-15T10:00:59.86Z</time></trkpt><trkpt lat="42.5601017" lon="-7.314075"><ele>693.6666666666666</ele><time>2026-04-15T10:01:00.86Z</time></trkpt><trkpt lat="42.5599433" lon="-7.31428"><ele>695.0</ele><time>2026-04-15T10:01:01.86Z</time></trkpt><trkpt lat="42.5597983" lon="-7.3144717"><ele>695.0</ele><time>2026-04-15T10:01:02.861Z</time></trkpt><trkpt lat="42.5596717" lon="-7.3146183"><ele>695.0</ele><time>2026-04-15T10:01:03.861Z</time></trkpt><trkpt lat="42.55954" lon="-7.3147333"><ele>695.0</ele><time>2026-04-15T10:01:04.86Z</time></trkpt><trkpt lat="42.55939" lon="-7.3148317"><ele>696.3333333333333</ele><time>2026-04-15T10:01:05.86Z</time></trkpt><trkpt lat="42.5592333" lon="-7.31494"><ele>697.6666666666666</ele><time>2026-04-15T10:01:06.86Z</time></trkpt><trkpt lat="42.5590867" lon="-7.3150683"><ele>699.0</ele><time>2026-04-15T10:01:07.86Z</time></trkpt><trkpt lat="42.558965" lon="-7.315215"><ele>699.0</ele><time>2026-04-15T10:01:08.861Z</time></trkpt><trkpt lat="42.5588533" lon="-7.3153983"><ele>699.0</ele><time>2026-04-15T10:01:09.861Z</time></trkpt><trkpt lat="42.5587633" lon="-7.3156017"><ele>699.0</ele><time>2026-04-15T10:01:10.86Z</time></trkpt><trkpt lat="42.55869" lon="-7.3158433"><ele>693.6666666666666</ele><time>2026-04-15T10:01:11.861Z</time></trkpt><trkpt lat="42.558635" lon="-7.3161167"><ele>688.3333333333333</ele><time>2026-04-15T10:01:12.861Z</time></trkpt><trkpt lat="42.5585967" lon="-7.3164133"><ele>683.0</ele><time>2026-04-15T10:01:13.86Z</time></trkpt><trkpt lat="42.5585717" lon="-7.3167317"><ele>683.0</ele><time>2026-04-15T10:01:14.86Z</time></trkpt><trkpt lat="42.5585717" lon="-7.3170733"><ele>683.0</ele><time>2026-04-15T10:01:15.86Z</time></trkpt><trkpt lat="42.558585" lon="-7.317395"><ele>683.3333333333333</ele><time>2026-04-15T10:01:16.861Z</time></trkpt><trkpt lat="42.5585817" lon="-7.3176967"><ele>683.6666666666666</ele><time>2026-04-15T10:01:17.86Z</time></trkpt><trkpt lat="42.5585617" lon="-7.3179817"><ele>684.0</ele><time>2026-04-15T10:01:18.861Z</time></trkpt><trkpt lat="42.5585433" lon="-7.31826"><ele>684.3333333333334</ele><time>2026-04-15T10:01:19.861Z</time></trkpt><trkpt lat="42.5585333" lon="-7.3185217"><ele>684.6666666666667</ele><time>2026-04-15T10:01:20.86Z</time></trkpt><trkpt lat="42.5585417" lon="-7.318765"><ele>685.0</ele><time>2026-04-15T10:01:21.86Z</time></trkpt><trkpt lat="42.5585667" lon="-7.31902"><ele>685.0</ele><time>2026-04-15T10:01:22.861Z</time></trkpt><trkpt lat="42.558615" lon="-7.3192833"><ele>685.0</ele><time>2026-04-15T10:01:23.861Z</time></trkpt><trkpt lat="42.5586767" lon="-7.3195483"><ele>685.0</ele><time>2026-04-15T10:01:24.861Z</time></trkpt><trkpt lat="42.55876" lon="-7.31982"><ele>691.0</ele><time>2026-04-15T10:01:25.86Z</time></trkpt><trkpt lat="42.5588633" lon="-7.3200867"><ele>697.0</ele><time>2026-04-15T10:01:26.861Z</time></trkpt><trkpt lat="42.558985" lon="-7.3203367"><ele>703.0</ele><time>2026-04-15T10:01:27.861Z</time></trkpt><trkpt lat="42.5591183" lon="-7.32058"><ele>703.0</ele><time>2026-04-15T10:01:28.861Z</time></trkpt><trkpt lat="42.5592617" lon="-7.3208067"><ele>703.0</ele><time>2026-04-15T10:01:29.86Z</time></trkpt><trkpt lat="42.559405" lon="-7.3209933"><ele>703.0</ele><time>2026-04-15T10:01:30.861Z</time></trkpt><trkpt lat="42.559535" lon="-7.3211483"><ele>706.0</ele><time>2026-04-15T10:01:31.86Z</time></trkpt><trkpt lat="42.5596917" lon="-7.32129"><ele>709.0</ele><time>2026-04-15T10:01:32.86Z</time></trkpt><trkpt lat="42.559855" lon="-7.3213933"><ele>712.0</ele><time>2026-04-15T10:01:33.86Z</time></trkpt><trkpt lat="42.5599917" lon="-7.3214817"><ele>712.0</ele><time>2026-04-15T10:01:34.861Z</time></trkpt><trkpt lat="42.5601033" lon="-7.32156"><ele>712.0</ele><time>2026-04-15T10:01:35.86Z</time></trkpt><trkpt lat="42.5601683" lon="-7.321635"><ele>712.0</ele><time>2026-04-15T10:01:36.861Z</time></trkpt><trkpt lat="42.5601917" lon="-7.32173"><ele>712.0</ele><time>2026-04-15T10:01:37.86Z</time></trkpt><trkpt lat="42.5601883" lon="-7.32183"><ele>712.0</ele><time>2026-04-15T10:01:38.86Z</time></trkpt><trkpt lat="42.5601667" lon="-7.3219783"><ele>712.0</ele><time>2026-04-15T10:01:39.86Z</time></trkpt><trkpt lat="42.5601367" lon="-7.3221667"><ele>712.0</ele><time>2026-04-15T10:01:40.86Z</time></trkpt><trkpt lat="42.5601267" lon="-7.322405"><ele>712.0</ele><time>2026-04-15T10:01:41.86Z</time></trkpt><trkpt lat="42.5601217" lon="-7.32266"><ele>712.25</ele><time>2026-04-15T10:01:42.86Z</time></trkpt><trkpt lat="42.56013" lon="-7.3228783"><ele>712.5</ele><time>2026-04-15T10:01:43.861Z</time></trkpt><trkpt lat="42.56016" lon="-7.32304"><ele>712.75</ele><time>2026-04-15T10:01:44.86Z</time></trkpt><trkpt lat="42.5602033" lon="-7.3231583"><ele>713.0</ele><time>2026-04-15T10:01:45.86Z</time></trkpt><trkpt lat="42.5602767" lon="-7.3232517"><ele>717.8</ele><time>2026-04-15T10:01:46.86Z</time></trkpt><trkpt lat="42.5603717" lon="-7.3233383"><ele>722.5999999999999</ele><time>2026-04-15T10:01:47.861Z</time></trkpt><trkpt lat="42.5604483" lon="-7.3234433"><ele>727.4000000000001</ele><time>2026-04-15T10:01:48.86Z</time></trkpt><trkpt lat="42.560475" lon="-7.3235433"><ele>732.2</ele><time>2026-04-15T10:01:49.861Z</time></trkpt><trkpt lat="42.5604633" lon="-7.323645"><ele>737.0</ele><time>2026-04-15T10:01:50.86Z</time></trkpt><trkpt lat="42.5604167" lon="-7.3237433"><ele>734.25</ele><time>2026-04-15T10:01:51.86Z</time></trkpt><trkpt lat="42.5603367" lon="-7.323855"><ele>731.5</ele><time>2026-04-15T10:01:52.861Z</time></trkpt><trkpt lat="42.5602383" lon="-7.324005"><ele>728.75</ele><time>2026-04-15T10:01:53.86Z</time></trkpt><trkpt lat="42.5601367" lon="-7.3241833"><ele>726.0</ele><time>2026-04-15T10:01:54.86Z</time></trkpt><trkpt lat="42.560025" lon="-7.3243783"><ele>726.0</ele><time>2026-04-15T10:01:55.86Z</time></trkpt><trkpt lat="42.5598817" lon="-7.3245567"><ele>726.0</ele><time>2026-04-15T10:01:56.861Z</time></trkpt><trkpt lat="42.5597267" lon="-7.32472"><ele>726.0</ele><time>2026-04-15T10:01:57.86Z</time></trkpt><trkpt lat="42.5595617" lon="-7.324865"><ele>728.3333333333334</ele><time>2026-04-15T10:01:58.861Z</time></trkpt><trkpt lat="42.5594" lon="-7.3249917"><ele>730.6666666666667</ele><time>2026-04-15T10:01:59.86Z</time></trkpt><trkpt lat="42.55925" lon="-7.3250783"><ele>733.0</ele><time>2026-04-15T10:02:00.86Z</time></trkpt><trkpt lat="42.559095" lon="-7.32513"><ele>733.0</ele><time>2026-04-15T10:02:01.86Z</time></trkpt><trkpt lat="42.5589333" lon="-7.3251483"><ele>733.0</ele><time>2026-04-15T10:02:02.861Z</time></trkpt><trkpt lat="42.558755" lon="-7.3251383"><ele>733.0</ele><time>2026-04-15T10:02:03.861Z</time></trkpt><trkpt lat="42.558605" lon="-7.3251333"><ele>732.0</ele><time>2026-04-15T10:02:04.86Z</time></trkpt><trkpt lat="42.5585083" lon="-7.3251467"><ele>731.0</ele><time>2026-04-15T10:02:05.86Z</time></trkpt><trkpt lat="42.5584517" lon="-7.32519"><ele>730.0</ele><time>2026-04-15T10:02:06.86Z</time></trkpt><trkpt lat="42.5584167" lon="-7.3252717"><ele>729.0</ele><time>2026-04-15T10:02:07.861Z</time></trkpt><trkpt lat="42.5583833" lon="-7.325395"><ele>728.0</ele><time>2026-04-15T10:02:08.86Z</time></trkpt><trkpt lat="42.5583783" lon="-7.3255767"><ele>728.0</ele><time>2026-04-15T10:02:09.861Z</time></trkpt><trkpt lat="42.558395" lon="-7.325785"><ele>728.0</ele><time>2026-04-15T10:02:10.861Z</time></trkpt><trkpt lat="42.55844" lon="-7.3259917"><ele>728.0</ele><time>2026-04-15T10:02:11.86Z</time></trkpt><trkpt lat="42.5585" lon="-7.32619"><ele>728.0</ele><time>2026-04-15T10:02:12.861Z</time></trkpt><trkpt lat="42.5585633" lon="-7.326345"><ele>728.0</ele><time>2026-04-15T10:02:13.86Z</time></trkpt><trkpt lat="42.5586283" lon="-7.3264617"><ele>728.0</ele><time>2026-04-15T10:02:14.861Z</time></trkpt><trkpt lat="42.55869" lon="-7.3265533"><ele>728.0</ele><time>2026-04-15T10:02:15.86Z</time></trkpt><trkpt lat="42.5587433" lon="-7.326635"><ele>728.0</ele><time>2026-04-15T10:02:16.861Z</time></trkpt><trkpt lat="42.55879" lon="-7.3267267"><ele>727.2</ele><time>2026-04-15T10:02:17.861Z</time></trkpt><trkpt lat="42.5588367" lon="-7.3268417"><ele>726.4</ele><time>2026-04-15T10:02:18.86Z</time></trkpt><trkpt lat="42.5588783" lon="-7.326965"><ele>725.6</ele><time>2026-04-15T10:02:19.86Z</time></trkpt><trkpt lat="42.5589267" lon="-7.3270867"><ele>724.8000000000001</ele><time>2026-04-15T10:02:20.861Z</time></trkpt><trkpt lat="42.5589733" lon="-7.3272033"><ele>724.0</ele><time>2026-04-15T10:02:21.861Z</time></trkpt><trkpt lat="42.5590167" lon="-7.327325"><ele>724.0</ele><time>2026-04-15T10:02:22.86Z</time></trkpt><trkpt lat="42.559055" lon="-7.3274467"><ele>724.0</ele><time>2026-04-15T10:02:23.86Z</time></trkpt><trkpt lat="42.5591033" lon="-7.3275667"><ele>724.0</ele><time>2026-04-15T10:02:24.86Z</time></trkpt><trkpt lat="42.5591617" lon="-7.3276717"><ele>724.0</ele><time>2026-04-15T10:02:25.86Z</time></trkpt><trkpt lat="42.559225" lon="-7.3277683"><ele>724.0</ele><time>2026-04-15T10:02:26.86Z</time></trkpt><trkpt lat="42.5593" lon="-7.3278517"><ele>724.0</ele><time>2026-04-15T10:02:27.86Z</time></trkpt><trkpt lat="42.5593717" lon="-7.327935"><ele>724.0</ele><time>2026-04-15T10:02:28.86Z</time></trkpt><trkpt lat="42.5594417" lon="-7.3280133"><ele>724.0</ele><time>2026-04-15T10:02:29.86Z</time></trkpt><trkpt lat="42.5595067" lon="-7.3280917"><ele>724.0</ele><time>2026-04-15T10:02:30.861Z</time></trkpt><trkpt lat="42.5595767" lon="-7.3281617"><ele>724.0</ele><time>2026-04-15T10:02:31.86Z</time></trkpt><trkpt lat="42.5596517" lon="-7.3282167"><ele>724.0</ele><time>2026-04-15T10:02:32.86Z</time></trkpt><trkpt lat="42.559725" lon="-7.3282583"><ele>723.0</ele><time>2026-04-15T10:02:33.861Z</time></trkpt><trkpt lat="42.5598017" lon="-7.328285"><ele>722.0</ele><time>2026-04-15T10:02:34.861Z</time></trkpt><trkpt lat="42.559885" lon="-7.32832"><ele>721.0</ele><time>2026-04-15T10:02:35.86Z</time></trkpt><trkpt lat="42.5599767" lon="-7.3283667"><ele>720.0</ele><time>2026-04-15T10:02:36.861Z</time></trkpt><trkpt lat="42.56006" lon="-7.3284267"><ele>719.0</ele><time>2026-04-15T10:02:37.86Z</time></trkpt><trkpt lat="42.5601367" lon="-7.3285033"><ele>719.0</ele><time>2026-04-15T10:02:38.86Z</time></trkpt><trkpt lat="42.5602133" lon="-7.3285933"><ele>719.0</ele><time>2026-04-15T10:02:39.861Z</time></trkpt><trkpt lat="42.56029" lon="-7.3286817"><ele>719.0</ele><time>2026-04-15T10:02:40.861Z</time></trkpt><trkpt lat="42.560365" lon="-7.3287633"><ele>719.0</ele><time>2026-04-15T10:02:41.86Z</time></trkpt><trkpt lat="42.560425" lon="-7.3288467"><ele>719.0</ele><time>2026-04-15T10:02:42.86Z</time></trkpt><trkpt lat="42.560465" lon="-7.3289317"><ele>716.5</ele><time>2026-04-15T10:02:43.861Z</time></trkpt><trkpt lat="42.560465" lon="-7.32908"><ele>714.0</ele><time>2026-04-15T10:02:45.86Z</time></trkpt><trkpt lat="42.56035" lon="-7.3291583"><ele>711.5</ele><time>2026-04-15T10:02:47.861Z</time></trkpt><trkpt lat="42.5602333" lon="-7.32915"><ele>709.0</ele><time>2026-04-15T10:02:48.86Z</time></trkpt><trkpt lat="42.5600833" lon="-7.3291067"><ele>706.5</ele><time>2026-04-15T10:02:49.86Z</time></trkpt><trkpt lat="42.5599317" lon="-7.3290767"><ele>704.0</ele><time>2026-04-15T10:02:50.86Z</time></trkpt><trkpt lat="42.559795" lon="-7.32905"><ele>701.5</ele><time>2026-04-15T10:02:51.86Z</time></trkpt><trkpt lat="42.5596717" lon="-7.3290333"><ele>699.0</ele><time>2026-04-15T10:02:52.861Z</time></trkpt><trkpt lat="42.5595567" lon="-7.3290333"><ele>697.75</ele><time>2026-04-15T10:02:53.861Z</time></trkpt><trkpt lat="42.5594417" lon="-7.329065"><ele>696.5</ele><time>2026-04-15T10:02:54.861Z</time></trkpt><trkpt lat="42.55933" lon="-7.329125"><ele>695.25</ele><time>2026-04-15T10:02:55.86Z</time></trkpt><trkpt lat="42.5592317" lon="-7.3292083"><ele>694.0</ele><time>2026-04-15T10:02:56.861Z</time></trkpt><trkpt lat="42.55914" lon="-7.3293117"><ele>694.0</ele><time>2026-04-15T10:02:57.86Z</time></trkpt><trkpt lat="42.55906" lon="-7.3294217"><ele>694.0</ele><time>2026-04-15T10:02:58.861Z</time></trkpt><trkpt lat="42.5589867" lon="-7.3295467"><ele>694.0</ele><time>2026-04-15T10:02:59.861Z</time></trkpt><trkpt lat="42.55892" lon="-7.329675"><ele>694.0</ele><time>2026-04-15T10:03:00.861Z</time></trkpt><trkpt lat="42.5588533" lon="-7.3298017"><ele>692.0</ele><time>2026-04-15T10:03:01.861Z</time></trkpt><trkpt lat="42.5587833" lon="-7.32992"><ele>690.0</ele><time>2026-04-15T10:03:02.861Z</time></trkpt><trkpt lat="42.558715" lon="-7.3300033"><ele>688.0</ele><time>2026-04-15T10:03:03.86Z</time></trkpt><trkpt lat="42.5586367" lon="-7.3300583"><ele>686.0</ele><time>2026-04-15T10:03:04.86Z</time></trkpt><trkpt lat="42.5585567" lon="-7.33008"><ele>684.0</ele><time>2026-04-15T10:03:05.86Z</time></trkpt><trkpt lat="42.5584567" lon="-7.3300783"><ele>684.0</ele><time>2026-04-15T10:03:06.86Z</time></trkpt><trkpt lat="42.5583567" lon="-7.3300517"><ele>684.0</ele><time>2026-04-15T10:03:07.86Z</time></trkpt><trkpt lat="42.5582433" lon="-7.3300083"><ele>684.0</ele><time>2026-04-15T10:03:08.861Z</time></trkpt><trkpt lat="42.558125" lon="-7.329975"><ele>684.0</ele><time>2026-04-15T10:03:09.86Z</time></trkpt><trkpt lat="42.5580067" lon="-7.3299333"><ele>684.0</ele><time>2026-04-15T10:03:10.861Z</time></trkpt><trkpt lat="42.5578867" lon="-7.32989"><ele>684.0</ele><time>2026-04-15T10:03:11.861Z</time></trkpt><trkpt lat="42.5577767" lon="-7.3298283"><ele>684.0</ele><time>2026-04-15T10:03:12.86Z</time></trkpt><trkpt lat="42.5576717" lon="-7.3297567"><ele>684.0</ele><time>2026-04-15T10:03:13.86Z</time></trkpt><trkpt lat="42.557575" lon="-7.3296783"><ele>683.6</ele><time>2026-04-15T10:03:14.86Z</time></trkpt><trkpt lat="42.5574767" lon="-7.329595"><ele>683.2</ele><time>2026-04-15T10:03:15.86Z</time></trkpt><trkpt lat="42.5573833" lon="-7.3295333"><ele>682.8000000000001</ele><time>2026-04-15T10:03:16.861Z</time></trkpt><trkpt lat="42.5573" lon="-7.329495"><ele>682.4000000000001</ele><time>2026-04-15T10:03:17.861Z</time></trkpt><trkpt lat="42.557225" lon="-7.3294833"><ele>682.0</ele><time>2026-04-15T10:03:18.86Z</time></trkpt><trkpt lat="42.5571367" lon="-7.3295683"><ele>679.75</ele><time>2026-04-15T10:03:20.86Z</time></trkpt><trkpt lat="42.55716" lon="-7.3297683"><ele>677.5</ele><time>2026-04-15T10:03:22.86Z</time></trkpt><trkpt lat="42.5571967" lon="-7.3299067"><ele>675.25</ele><time>2026-04-15T10:03:23.86Z</time></trkpt><trkpt lat="42.557235" lon="-7.3300683"><ele>673.0</ele><time>2026-04-15T10:03:24.86Z</time></trkpt><trkpt lat="42.5572717" lon="-7.33023"><ele>673.0</ele><time>2026-04-15T10:03:25.86Z</time></trkpt><trkpt lat="42.5572933" lon="-7.330395"><ele>673.0</ele><time>2026-04-15T10:03:26.86Z</time></trkpt><trkpt lat="42.5573117" lon="-7.3305583"><ele>673.0</ele><time>2026-04-15T10:03:27.861Z</time></trkpt><trkpt lat="42.5572983" lon="-7.3307317"><ele>673.0</ele><time>2026-04-15T10:03:28.861Z</time></trkpt><trkpt lat="42.5572683" lon="-7.33091"><ele>671.5</ele><time>2026-04-15T10:03:29.86Z</time></trkpt><trkpt lat="42.557235" lon="-7.33109"><ele>670.0</ele><time>2026-04-15T10:03:30.86Z</time></trkpt><trkpt lat="42.5571967" lon="-7.3312583"><ele>668.5</ele><time>2026-04-15T10:03:31.861Z</time></trkpt><trkpt lat="42.5571617" lon="-7.3314183"><ele>667.0</ele><time>2026-04-15T10:03:32.86Z</time></trkpt><trkpt lat="42.5571167" lon="-7.3315617"><ele>666.5</ele><time>2026-04-15T10:03:33.86Z</time></trkpt><trkpt lat="42.557065" lon="-7.33168"><ele>666.0</ele><time>2026-04-15T10:03:34.86Z</time></trkpt><trkpt lat="42.556985" lon="-7.331785"><ele>665.5</ele><time>2026-04-15T10:03:35.861Z</time></trkpt><trkpt lat="42.5568783" lon="-7.331885"><ele>665.0</ele><time>2026-04-15T10:03:36.86Z</time></trkpt><trkpt lat="42.5567667" lon="-7.3319883"><ele>661.0</ele><time>2026-04-15T10:03:37.86Z</time></trkpt><trkpt lat="42.556675" lon="-7.332105"><ele>657.0</ele><time>2026-04-15T10:03:38.86Z</time></trkpt><trkpt lat="42.5565883" lon="-7.3322333"><ele>653.0</ele><time>2026-04-15T10:03:39.86Z</time></trkpt><trkpt lat="42.5564967" lon="-7.3323517"><ele>649.0</ele><time>2026-04-15T10:03:40.861Z</time></trkpt><trkpt lat="42.5564183" lon="-7.33248"><ele>648.75</ele><time>2026-04-15T10:03:41.861Z</time></trkpt><trkpt lat="42.5563317" lon="-7.3326117"><ele>648.5</ele><time>2026-04-15T10:03:42.861Z</time></trkpt><trkpt lat="42.5562383" lon="-7.3327583"><ele>648.25</ele><time>2026-04-15T10:03:43.861Z</time></trkpt><trkpt lat="42.55614" lon="-7.332895"><ele>648.0</ele><time>2026-04-15T10:03:44.86Z</time></trkpt><trkpt lat="42.556045" lon="-7.3330383"><ele>647.5</ele><time>2026-04-15T10:03:45.861Z</time></trkpt><trkpt lat="42.5559483" lon="-7.333175"><ele>647.0</ele><time>2026-04-15T10:03:46.86Z</time></trkpt><trkpt lat="42.5558533" lon="-7.3332917"><ele>646.5</ele><time>2026-04-15T10:03:47.861Z</time></trkpt><trkpt lat="42.55575" lon="-7.3334033"><ele>646.0</ele><time>2026-04-15T10:03:48.861Z</time></trkpt><trkpt lat="42.5556333" lon="-7.3335033"><ele>646.0</ele><time>2026-04-15T10:03:49.861Z</time></trkpt><trkpt lat="42.5555183" lon="-7.3335783"><ele>646.0</ele><time>2026-04-15T10:03:50.86Z</time></trkpt><trkpt lat="42.5553917" lon="-7.3336533"><ele>646.0</ele><time>2026-04-15T10:03:51.861Z</time></trkpt><trkpt lat="42.555265" lon="-7.33371"><ele>646.0</ele><time>2026-04-15T10:03:52.86Z</time></trkpt><trkpt lat="42.5551283" lon="-7.3337367"><ele>645.0</ele><time>2026-04-15T10:03:53.861Z</time></trkpt><trkpt lat="42.5549967" lon="-7.3337467"><ele>644.0</ele><time>2026-04-15T10:03:54.861Z</time></trkpt><trkpt lat="42.5548617" lon="-7.3337517"><ele>643.0</ele><time>2026-04-15T10:03:55.861Z</time></trkpt><trkpt lat="42.5547283" lon="-7.3337633"><ele>642.0</ele><time>2026-04-15T10:03:56.861Z</time></trkpt><trkpt lat="42.5546" lon="-7.3337817"><ele>640.0</ele><time>2026-04-15T10:03:57.86Z</time></trkpt><trkpt lat="42.5544833" lon="-7.3338183"><ele>638.0</ele><time>2026-04-15T10:03:58.861Z</time></trkpt><trkpt lat="42.5543567" lon="-7.3338767"><ele>636.0</ele><time>2026-04-15T10:03:59.861Z</time></trkpt><trkpt lat="42.5542367" lon="-7.3339483"><ele>634.0</ele><time>2026-04-15T10:04:00.86Z</time></trkpt><trkpt lat="42.55412" lon="-7.3340183"><ele>633.5</ele><time>2026-04-15T10:04:01.86Z</time></trkpt><trkpt lat="42.5540067" lon="-7.3340817"><ele>633.0</ele><time>2026-04-15T10:04:02.86Z</time></trkpt><trkpt lat="42.553885" lon="-7.334155"><ele>632.5</ele><time>2026-04-15T10:04:03.86Z</time></trkpt><trkpt lat="42.553765" lon="-7.3342217"><ele>632.0</ele><time>2026-04-15T10:04:04.86Z</time></trkpt><trkpt lat="42.55365" lon="-7.3342933"><ele>630.25</ele><time>2026-04-15T10:04:05.86Z</time></trkpt><trkpt lat="42.553535" lon="-7.3343667"><ele>628.5</ele><time>2026-04-15T10:04:06.86Z</time></trkpt><trkpt lat="42.55342" lon="-7.3344467"><ele>626.75</ele><time>2026-04-15T10:04:07.86Z</time></trkpt><trkpt lat="42.553315" lon="-7.33453"><ele>625.0</ele><time>2026-04-15T10:04:08.86Z</time></trkpt><trkpt lat="42.553215" lon="-7.3346233"><ele>624.6</ele><time>2026-04-15T10:04:09.86Z</time></trkpt><trkpt lat="42.5531333" lon="-7.3347483"><ele>624.2</ele><time>2026-04-15T10:04:10.86Z</time></trkpt><trkpt lat="42.5530717" lon="-7.3348583"><ele>623.8</ele><time>2026-04-15T10:04:11.861Z</time></trkpt><trkpt lat="42.55304" lon="-7.3349433"><ele>623.4</ele><time>2026-04-15T10:04:12.861Z</time></trkpt><trkpt lat="42.5530283" lon="-7.335075"><ele>623.0</ele><time>2026-04-15T10:04:14.86Z</time></trkpt><trkpt lat="42.5530483" lon="-7.3351617"><ele>623.0</ele><time>2026-04-15T10:04:15.86Z</time></trkpt><trkpt lat="42.5530717" lon="-7.3352683"><ele>623.0</ele><time>2026-04-15T10:04:16.86Z</time></trkpt><trkpt lat="42.5530883" lon="-7.3354067"><ele>623.0</ele><time>2026-04-15T10:04:17.86Z</time></trkpt><trkpt lat="42.5530967" lon="-7.335565"><ele>623.0</ele><time>2026-04-15T10:04:18.861Z</time></trkpt><trkpt lat="42.5531017" lon="-7.3357367"><ele>623.0</ele><time>2026-04-15T10:04:19.86Z</time></trkpt><trkpt lat="42.5531133" lon="-7.33592"><ele>622.0</ele><time>2026-04-15T10:04:20.86Z</time></trkpt><trkpt lat="42.553135" lon="-7.3360933"><ele>621.0</ele><time>2026-04-15T10:04:21.86Z</time></trkpt><trkpt lat="42.5531783" lon="-7.336265"><ele>620.0</ele><time>2026-04-15T10:04:22.861Z</time></trkpt><trkpt lat="42.553245" lon="-7.336425"><ele>619.0</ele><time>2026-04-15T10:04:23.861Z</time></trkpt><trkpt lat="42.5533317" lon="-7.3365683"><ele>619.0</ele><time>2026-04-15T10:04:24.86Z</time></trkpt><trkpt lat="42.5534317" lon="-7.3367067"><ele>619.0</ele><time>2026-04-15T10:04:25.861Z</time></trkpt><trkpt lat="42.553545" lon="-7.3368233"><ele>619.0</ele><time>2026-04-15T10:04:26.86Z</time></trkpt><trkpt lat="42.55366" lon="-7.3369383"><ele>619.0</ele><time>2026-04-15T10:04:27.861Z</time></trkpt><trkpt lat="42.553765" lon="-7.3370133"><ele>617.5</ele><time>2026-04-15T10:04:28.861Z</time></trkpt><trkpt lat="42.553875" lon="-7.33713"><ele>616.0</ele><time>2026-04-15T10:04:29.86Z</time></trkpt><trkpt lat="42.553985" lon="-7.337245"><ele>614.5</ele><time>2026-04-15T10:04:30.86Z</time></trkpt><trkpt lat="42.5540767" lon="-7.337355"><ele>613.0</ele><time>2026-04-15T10:04:31.86Z</time></trkpt><trkpt lat="42.5541683" lon="-7.3374867"><ele>613.0</ele><time>2026-04-15T10:04:32.86Z</time></trkpt><trkpt lat="42.5542483" lon="-7.3376033"><ele>613.0</ele><time>2026-04-15T10:04:33.86Z</time></trkpt><trkpt lat="42.5543317" lon="-7.3377333"><ele>613.0</ele><time>2026-04-15T10:04:34.861Z</time></trkpt><trkpt lat="42.554405" lon="-7.3378383"><ele>613.0</ele><time>2026-04-15T10:04:35.86Z</time></trkpt><trkpt lat="42.5545" lon="-7.337985"><ele>609.0</ele><time>2026-04-15T10:04:36.861Z</time></trkpt><trkpt lat="42.5545917" lon="-7.338115"><ele>605.0</ele><time>2026-04-15T10:04:37.86Z</time></trkpt><trkpt lat="42.5546783" lon="-7.3382483"><ele>601.0</ele><time>2026-04-15T10:04:38.861Z</time></trkpt><trkpt lat="42.5547533" lon="-7.33838"><ele>597.0</ele><time>2026-04-15T10:04:39.86Z</time></trkpt><trkpt lat="42.5548083" lon="-7.3385217"><ele>597.0</ele><time>2026-04-15T10:04:40.86Z</time></trkpt><trkpt lat="42.5548617" lon="-7.3386867"><ele>597.0</ele><time>2026-04-15T10:04:41.86Z</time></trkpt><trkpt lat="42.5549033" lon="-7.3388367"><ele>597.0</ele><time>2026-04-15T10:04:42.861Z</time></trkpt><trkpt lat="42.5549367" lon="-7.338985"><ele>597.0</ele><time>2026-04-15T10:04:43.861Z</time></trkpt><trkpt lat="42.5549517" lon="-7.3391317"><ele>595.5</ele><time>2026-04-15T10:04:44.861Z</time></trkpt><trkpt lat="42.5549533" lon="-7.339275"><ele>594.0</ele><time>2026-04-15T10:04:45.86Z</time></trkpt><trkpt lat="42.5549183" lon="-7.3394367"><ele>592.5</ele><time>2026-04-15T10:04:46.86Z</time></trkpt><trkpt lat="42.5548617" lon="-7.3395833"><ele>591.0</ele><time>2026-04-15T10:04:47.861Z</time></trkpt><trkpt lat="42.5548067" lon="-7.3397333"><ele>589.5</ele><time>2026-04-15T10:04:48.861Z</time></trkpt><trkpt lat="42.55476" lon="-7.3398883"><ele>588.0</ele><time>2026-04-15T10:04:49.86Z</time></trkpt><trkpt lat="42.55473" lon="-7.34005"><ele>586.5</ele><time>2026-04-15T10:04:50.86Z</time></trkpt><trkpt lat="42.5547383" lon="-7.3402083"><ele>585.0</ele><time>2026-04-15T10:04:51.86Z</time></trkpt><trkpt lat="42.55475" lon="-7.340375"><ele>585.0</ele><time>2026-04-15T10:04:52.861Z</time></trkpt><trkpt lat="42.5547483" lon="-7.340535"><ele>585.0</ele><time>2026-04-15T10:04:53.86Z</time></trkpt><trkpt lat="42.5547267" lon="-7.3406783"><ele>585.0</ele><time>2026-04-15T10:04:54.861Z</time></trkpt><trkpt lat="42.5546817" lon="-7.3408133"><ele>585.0</ele><time>2026-04-15T10:04:55.86Z</time></trkpt><trkpt lat="42.554635" lon="-7.3409583"><ele>585.75</ele><time>2026-04-15T10:04:56.861Z</time></trkpt><trkpt lat="42.554575" lon="-7.3411117"><ele>586.5</ele><time>2026-04-15T10:04:57.861Z</time></trkpt><trkpt lat="42.55452" lon="-7.3412783"><ele>587.25</ele><time>2026-04-15T10:04:58.86Z</time></trkpt><trkpt lat="42.5544717" lon="-7.34144"><ele>588.0</ele><time>2026-04-15T10:04:59.861Z</time></trkpt><trkpt lat="42.55444" lon="-7.3416183"><ele>585.0</ele><time>2026-04-15T10:05:00.861Z</time></trkpt><trkpt lat="42.5544217" lon="-7.3418117"><ele>582.0</ele><time>2026-04-15T10:05:01.861Z</time></trkpt><trkpt lat="42.554405" lon="-7.3420217"><ele>579.0</ele><time>2026-04-15T10:05:02.86Z</time></trkpt><trkpt lat="42.5543967" lon="-7.3422267"><ele>577.0</ele><time>2026-04-15T10:05:03.861Z</time></trkpt><trkpt lat="42.5543883" lon="-7.3424333"><ele>575.0</ele><time>2026-04-15T10:05:04.861Z</time></trkpt><trkpt lat="42.5543783" lon="-7.3426417"><ele>573.0</ele><time>2026-04-15T10:05:05.86Z</time></trkpt><trkpt lat="42.55437" lon="-7.34285"><ele>573.0</ele><time>2026-04-15T10:05:06.861Z</time></trkpt><trkpt lat="42.55438" lon="-7.3430417"><ele>573.0</ele><time>2026-04-15T10:05:07.86Z</time></trkpt><trkpt lat="42.5544033" lon="-7.3432283"><ele>573.0</ele><time>2026-04-15T10:05:08.86Z</time></trkpt><trkpt lat="42.55445" lon="-7.3434133"><ele>573.0</ele><time>2026-04-15T10:05:09.861Z</time></trkpt><trkpt lat="42.5545017" lon="-7.3436017"><ele>571.0</ele><time>2026-04-15T10:05:10.86Z</time></trkpt><trkpt lat="42.5545583" lon="-7.343795"><ele>569.0</ele><time>2026-04-15T10:05:11.86Z</time></trkpt><trkpt lat="42.554605" lon="-7.3439833"><ele>567.0</ele><time>2026-04-15T10:05:12.86Z</time></trkpt><trkpt lat="42.554635" lon="-7.3441617"><ele>565.0</ele><time>2026-04-15T10:05:13.86Z</time></trkpt><trkpt lat="42.5546517" lon="-7.344345"><ele>564.5</ele><time>2026-04-15T10:05:14.86Z</time></trkpt><trkpt lat="42.5546583" lon="-7.3445333"><ele>564.0</ele><time>2026-04-15T10:05:15.861Z</time></trkpt><trkpt lat="42.5546483" lon="-7.34471"><ele>563.5</ele><time>2026-04-15T10:05:16.86Z</time></trkpt><trkpt lat="42.5546417" lon="-7.3448867"><ele>563.0</ele><time>2026-04-15T10:05:17.86Z</time></trkpt><trkpt lat="42.5546467" lon="-7.3450683"><ele>562.0</ele><time>2026-04-15T10:05:18.86Z</time></trkpt><trkpt lat="42.5546483" lon="-7.3452467"><ele>561.0</ele><time>2026-04-15T10:05:19.861Z</time></trkpt><trkpt lat="42.5546617" lon="-7.3454367"><ele>560.0</ele><time>2026-04-15T10:05:20.86Z</time></trkpt><trkpt lat="42.5546683" lon="-7.3456267"><ele>559.0</ele><time>2026-04-15T10:05:21.861Z</time></trkpt><trkpt lat="42.5546817" lon="-7.3458183"><ele>558.5</ele><time>2026-04-15T10:05:22.861Z</time></trkpt><trkpt lat="42.5546933" lon="-7.3460117"><ele>558.0</ele><time>2026-04-15T10:05:23.86Z</time></trkpt><trkpt lat="42.5547" lon="-7.3461967"><ele>557.5</ele><time>2026-04-15T10:05:24.861Z</time></trkpt><trkpt lat="42.5546933" lon="-7.3463667"><ele>557.0</ele><time>2026-04-15T10:05:25.86Z</time></trkpt><trkpt lat="42.5546717" lon="-7.346525"><ele>557.0</ele><time>2026-04-15T10:05:26.861Z</time></trkpt><trkpt lat="42.5546217" lon="-7.3467"><ele>557.0</ele><time>2026-04-15T10:05:27.86Z</time></trkpt><trkpt lat="42.554555" lon="-7.3468667"><ele>557.0</ele><time>2026-04-15T10:05:28.86Z</time></trkpt><trkpt lat="42.55449" lon="-7.34704"><ele>557.0</ele><time>2026-04-15T10:05:29.86Z</time></trkpt><trkpt lat="42.554425" lon="-7.3472133"><ele>556.5</ele><time>2026-04-15T10:05:30.86Z</time></trkpt><trkpt lat="42.5543667" lon="-7.3473967"><ele>556.0</ele><time>2026-04-15T10:05:31.861Z</time></trkpt><trkpt lat="42.5543267" lon="-7.347565"><ele>555.5</ele><time>2026-04-15T10:05:32.861Z</time></trkpt><trkpt lat="42.5543167" lon="-7.3477417"><ele>555.0</ele><time>2026-04-15T10:05:33.861Z</time></trkpt><trkpt lat="42.5543333" lon="-7.34792"><ele>554.75</ele><time>2026-04-15T10:05:34.861Z</time></trkpt><trkpt lat="42.5543667" lon="-7.3481083"><ele>554.5</ele><time>2026-04-15T10:05:35.86Z</time></trkpt><trkpt lat="42.5544033" lon="-7.3483"><ele>554.25</ele><time>2026-04-15T10:05:36.86Z</time></trkpt><trkpt lat="42.5544367" lon="-7.3484933"><ele>554.0</ele><time>2026-04-15T10:05:37.86Z</time></trkpt><trkpt lat="42.5544683" lon="-7.34867"><ele>554.0</ele><time>2026-04-15T10:05:38.861Z</time></trkpt><trkpt lat="42.5544933" lon="-7.348845"><ele>554.0</ele><time>2026-04-15T10:05:39.861Z</time></trkpt><trkpt lat="42.554505" lon="-7.3490167"><ele>554.0</ele><time>2026-04-15T10:05:40.86Z</time></trkpt><trkpt lat="42.55449" lon="-7.34918"><ele>554.0</ele><time>2026-04-15T10:05:41.86Z</time></trkpt><trkpt lat="42.5544567" lon="-7.3493383"><ele>553.0</ele><time>2026-04-15T10:05:42.861Z</time></trkpt><trkpt lat="42.554395" lon="-7.349485"><ele>552.0</ele><time>2026-04-15T10:05:43.86Z</time></trkpt><trkpt lat="42.5543217" lon="-7.3496433"><ele>551.0</ele><time>2026-04-15T10:05:44.86Z</time></trkpt><trkpt lat="42.5542467" lon="-7.3498033"><ele>550.0</ele><time>2026-04-15T10:05:45.861Z</time></trkpt><trkpt lat="42.5541683" lon="-7.3499583"><ele>549.0</ele><time>2026-04-15T10:05:46.86Z</time></trkpt><trkpt lat="42.5540967" lon="-7.35012"><ele>548.0</ele><time>2026-04-15T10:05:47.861Z</time></trkpt><trkpt lat="42.55403" lon="-7.3502867"><ele>547.0</ele><time>2026-04-15T10:05:48.86Z</time></trkpt><trkpt lat="42.5539833" lon="-7.350465"><ele>546.0</ele><time>2026-04-15T10:05:49.86Z</time></trkpt><trkpt lat="42.5539383" lon="-7.3506417"><ele>545.0</ele><time>2026-04-15T10:05:50.86Z</time></trkpt><trkpt lat="42.55391" lon="-7.350825"><ele>544.0</ele><time>2026-04-15T10:05:51.86Z</time></trkpt><trkpt lat="42.5538883" lon="-7.3509983"><ele>543.0</ele><time>2026-04-15T10:05:52.86Z</time></trkpt><trkpt lat="42.5538783" lon="-7.351175"><ele>542.0</ele><time>2026-04-15T10:05:53.86Z</time></trkpt><trkpt lat="42.55388" lon="-7.351355"><ele>541.25</ele><time>2026-04-15T10:05:54.861Z</time></trkpt><trkpt lat="42.5538817" lon="-7.351545"><ele>540.5</ele><time>2026-04-15T10:05:55.861Z</time></trkpt><trkpt lat="42.5538733" lon="-7.351725"><ele>539.75</ele><time>2026-04-15T10:05:56.861Z</time></trkpt><trkpt lat="42.5538433" lon="-7.3518917"><ele>539.0</ele><time>2026-04-15T10:05:57.861Z</time></trkpt><trkpt lat="42.5538167" lon="-7.3520717"><ele>538.25</ele><time>2026-04-15T10:05:58.861Z</time></trkpt><trkpt lat="42.5537717" lon="-7.3522467"><ele>537.5</ele><time>2026-04-15T10:05:59.86Z</time></trkpt><trkpt lat="42.5537083" lon="-7.3524"><ele>536.75</ele><time>2026-04-15T10:06:00.86Z</time></trkpt><trkpt lat="42.5536483" lon="-7.3525383"><ele>536.0</ele><time>2026-04-15T10:06:01.86Z</time></trkpt><trkpt lat="42.553595" lon="-7.3526583"><ele>535.2</ele><time>2026-04-15T10:06:02.86Z</time></trkpt><trkpt lat="42.5535467" lon="-7.3527467"><ele>534.4000000000001</ele><time>2026-04-15T10:06:03.861Z</time></trkpt><trkpt lat="42.5534983" lon="-7.352815"><ele>533.6</ele><time>2026-04-15T10:06:04.861Z</time></trkpt><trkpt lat="42.5534083" lon="-7.3528583"><ele>532.8000000000001</ele><time>2026-04-15T10:06:06.86Z</time></trkpt><trkpt lat="42.55333" lon="-7.3528067"><ele>532.0</ele><time>2026-04-15T10:06:08.861Z</time></trkpt><trkpt lat="42.5532583" lon="-7.35266"><ele>532.0</ele><time>2026-04-15T10:06:10.861Z</time></trkpt><trkpt lat="42.553205" lon="-7.35255"><ele>532.0</ele><time>2026-04-15T10:06:11.861Z</time></trkpt><trkpt lat="42.55313" lon="-7.352415"><ele>532.0</ele><time>2026-04-15T10:06:12.86Z</time></trkpt><trkpt lat="42.55303" lon="-7.3522767"><ele>532.0</ele><time>2026-04-15T10:06:13.861Z</time></trkpt><trkpt lat="42.5529133" lon="-7.352145"><ele>531.3333333333334</ele><time>2026-04-15T10:06:14.86Z</time></trkpt><trkpt lat="42.5527917" lon="-7.3520067"><ele>530.6666666666666</ele><time>2026-04-15T10:06:15.86Z</time></trkpt><trkpt lat="42.5526817" lon="-7.351865"><ele>530.0</ele><time>2026-04-15T10:06:16.861Z</time></trkpt><trkpt lat="42.5525733" lon="-7.3517133"><ele>530.0</ele><time>2026-04-15T10:06:17.862Z</time></trkpt><trkpt lat="42.55247" lon="-7.3515567"><ele>530.0</ele><time>2026-04-15T10:06:18.862Z</time></trkpt><trkpt lat="42.55237" lon="-7.351395"><ele>530.0</ele><time>2026-04-15T10:06:19.862Z</time></trkpt><trkpt lat="42.5522817" lon="-7.3512283"><ele>530.75</ele><time>2026-04-15T10:06:20.862Z</time></trkpt><trkpt lat="42.552205" lon="-7.35106"><ele>531.5</ele><time>2026-04-15T10:06:21.861Z</time></trkpt><trkpt lat="42.55213" lon="-7.35088"><ele>532.25</ele><time>2026-04-15T10:06:22.861Z</time></trkpt><trkpt lat="42.5520583" lon="-7.3507"><ele>533.0</ele><time>2026-04-15T10:06:23.861Z</time></trkpt><trkpt lat="42.5519867" lon="-7.350525"><ele>533.0</ele><time>2026-04-15T10:06:24.862Z</time></trkpt><trkpt lat="42.5519117" lon="-7.3503433"><ele>533.0</ele><time>2026-04-15T10:06:25.862Z</time></trkpt><trkpt lat="42.5518267" lon="-7.3501617"><ele>533.0</ele><time>2026-04-15T10:06:26.862Z</time></trkpt><trkpt lat="42.55173" lon="-7.3499783"><ele>533.0</ele><time>2026-04-15T10:06:27.862Z</time></trkpt><trkpt lat="42.5516217" lon="-7.3497983"><ele>533.0</ele><time>2026-04-15T10:06:28.862Z</time></trkpt><trkpt lat="42.55151" lon="-7.349605"><ele>533.0</ele><time>2026-04-15T10:06:29.862Z</time></trkpt><trkpt lat="42.5514083" lon="-7.3494033"><ele>532.6666666666666</ele><time>2026-04-15T10:06:30.861Z</time></trkpt><trkpt lat="42.5512983" lon="-7.3491767"><ele>532.3333333333334</ele><time>2026-04-15T10:06:31.862Z</time></trkpt><trkpt lat="42.55119" lon="-7.3489467"><ele>532.0</ele><time>2026-04-15T10:06:32.861Z</time></trkpt><trkpt lat="42.5510967" lon="-7.3487017"><ele>535.0</ele><time>2026-04-15T10:06:33.862Z</time></trkpt><trkpt lat="42.5510067" lon="-7.3484583"><ele>538.0</ele><time>2026-04-15T10:06:34.861Z</time></trkpt><trkpt lat="42.55092" lon="-7.3481983"><ele>541.0</ele><time>2026-04-15T10:06:35.861Z</time></trkpt><trkpt lat="42.5508333" lon="-7.347955"><ele>542.3333333333334</ele><time>2026-04-15T10:06:36.861Z</time></trkpt><trkpt lat="42.550745" lon="-7.3477033"><ele>543.6666666666666</ele><time>2026-04-15T10:06:37.861Z</time></trkpt><trkpt lat="42.5506567" lon="-7.3474667"><ele>545.0</ele><time>2026-04-15T10:06:38.861Z</time></trkpt><trkpt lat="42.5505667" lon="-7.3472383"><ele>544.6666666666666</ele><time>2026-04-15T10:06:39.861Z</time></trkpt><trkpt lat="42.5504717" lon="-7.3470433"><ele>544.3333333333334</ele><time>2026-04-15T10:06:40.862Z</time></trkpt><trkpt lat="42.5503733" lon="-7.3468517"><ele>544.0</ele><time>2026-04-15T10:06:41.862Z</time></trkpt><trkpt lat="42.55028" lon="-7.3466533"><ele>544.0</ele><time>2026-04-15T10:06:42.861Z</time></trkpt><trkpt lat="42.550185" lon="-7.3464583"><ele>544.0</ele><time>2026-04-15T10:06:43.861Z</time></trkpt><trkpt lat="42.55011" lon="-7.3462667"><ele>544.0</ele><time>2026-04-15T10:06:44.861Z</time></trkpt><trkpt lat="42.5500483" lon="-7.346065"><ele>545.25</ele><time>2026-04-15T10:06:45.862Z</time></trkpt><trkpt lat="42.550005" lon="-7.3458883"><ele>546.5</ele><time>2026-04-15T10:06:46.861Z</time></trkpt><trkpt lat="42.5499467" lon="-7.345725"><ele>547.75</ele><time>2026-04-15T10:06:47.861Z</time></trkpt><trkpt lat="42.5498733" lon="-7.34558"><ele>549.0</ele><time>2026-04-15T10:06:48.862Z</time></trkpt><trkpt lat="42.5497833" lon="-7.3454433"><ele>549.0</ele><time>2026-04-15T10:06:49.862Z</time></trkpt><trkpt lat="42.5496967" lon="-7.345305"><ele>549.0</ele><time>2026-04-15T10:06:50.862Z</time></trkpt><trkpt lat="42.5496183" lon="-7.3451567"><ele>549.0</ele><time>2026-04-15T10:06:51.862Z</time></trkpt><trkpt lat="42.5495483" lon="-7.3449817"><ele>549.0</ele><time>2026-04-15T10:06:52.862Z</time></trkpt><trkpt lat="42.5494917" lon="-7.344795"><ele>550.5</ele><time>2026-04-15T10:06:53.861Z</time></trkpt><trkpt lat="42.549445" lon="-7.3446067"><ele>552.0</ele><time>2026-04-15T10:06:54.862Z</time></trkpt><trkpt lat="42.549395" lon="-7.3444533"><ele>553.5</ele><time>2026-04-15T10:06:55.861Z</time></trkpt><trkpt lat="42.549315" lon="-7.344355"><ele>555.0</ele><time>2026-04-15T10:06:56.861Z</time></trkpt><trkpt lat="42.5492167" lon="-7.344285"><ele>555.0</ele><time>2026-04-15T10:06:57.861Z</time></trkpt><trkpt lat="42.5491117" lon="-7.34424"><ele>555.0</ele><time>2026-04-15T10:06:58.861Z</time></trkpt><trkpt lat="42.5489933" lon="-7.3442033"><ele>555.0</ele><time>2026-04-15T10:06:59.861Z</time></trkpt><trkpt lat="42.548885" lon="-7.3441617"><ele>555.0</ele><time>2026-04-15T10:07:00.861Z</time></trkpt><trkpt lat="42.54878" lon="-7.3440983"><ele>556.0</ele><time>2026-04-15T10:07:01.862Z</time></trkpt><trkpt lat="42.5486783" lon="-7.344005"><ele>557.0</ele><time>2026-04-15T10:07:02.862Z</time></trkpt><trkpt lat="42.5485783" lon="-7.3438917"><ele>558.0</ele><time>2026-04-15T10:07:03.861Z</time></trkpt><trkpt lat="42.5484783" lon="-7.3437667"><ele>559.0</ele><time>2026-04-15T10:07:04.861Z</time></trkpt><trkpt lat="42.548375" lon="-7.34364"><ele>560.75</ele><time>2026-04-15T10:07:05.862Z</time></trkpt><trkpt lat="42.54827" lon="-7.3435083"><ele>562.5</ele><time>2026-04-15T10:07:06.862Z</time></trkpt><trkpt lat="42.548165" lon="-7.343365"><ele>564.25</ele><time>2026-04-15T10:07:07.862Z</time></trkpt><trkpt lat="42.548055" lon="-7.343225"><ele>566.0</ele><time>2026-04-15T10:07:08.861Z</time></trkpt><trkpt lat="42.5479383" lon="-7.3431017"><ele>568.6666666666666</ele><time>2026-04-15T10:07:09.862Z</time></trkpt><trkpt lat="42.5478267" lon="-7.3429783"><ele>571.3333333333334</ele><time>2026-04-15T10:07:10.861Z</time></trkpt><trkpt lat="42.5476967" lon="-7.3428583"><ele>574.0</ele><time>2026-04-15T10:07:11.861Z</time></trkpt><trkpt lat="42.5475533" lon="-7.3427483"><ele>574.0</ele><time>2026-04-15T10:07:12.861Z</time></trkpt><trkpt lat="42.547405" lon="-7.3426383"><ele>574.0</ele><time>2026-04-15T10:07:13.861Z</time></trkpt><trkpt lat="42.5472467" lon="-7.3425233"><ele>574.0</ele><time>2026-04-15T10:07:14.861Z</time></trkpt><trkpt lat="42.547085" lon="-7.3424183"><ele>573.75</ele><time>2026-04-15T10:07:15.862Z</time></trkpt><trkpt lat="42.5469383" lon="-7.3423267"><ele>573.5</ele><time>2026-04-15T10:07:16.861Z</time></trkpt><trkpt lat="42.5468033" lon="-7.34223"><ele>573.25</ele><time>2026-04-15T10:07:17.861Z</time></trkpt><trkpt lat="42.546695" lon="-7.3421483"><ele>573.0</ele><time>2026-04-15T10:07:18.861Z</time></trkpt><trkpt lat="42.54662" lon="-7.3420833"><ele>573.0</ele><time>2026-04-15T10:07:19.861Z</time></trkpt><trkpt lat="42.546525" lon="-7.34205"><ele>573.0</ele><time>2026-04-15T10:07:21.862Z</time></trkpt><trkpt lat="42.5465" lon="-7.3421333"><ele>573.0</ele><time>2026-04-15T10:07:23.861Z</time></trkpt><trkpt lat="42.5465067" lon="-7.34225"><ele>573.0</ele><time>2026-04-15T10:07:24.862Z</time></trkpt><trkpt lat="42.5465117" lon="-7.3424017"><ele>573.0</ele><time>2026-04-15T10:07:25.861Z</time></trkpt><trkpt lat="42.5465017" lon="-7.3425917"><ele>573.0</ele><time>2026-04-15T10:07:26.862Z</time></trkpt><trkpt lat="42.5464667" lon="-7.3427833"><ele>573.0</ele><time>2026-04-15T10:07:27.861Z</time></trkpt><trkpt lat="42.5464133" lon="-7.3429683"><ele>573.0</ele><time>2026-04-15T10:07:28.862Z</time></trkpt><trkpt lat="42.5463433" lon="-7.34314"><ele>573.0</ele><time>2026-04-15T10:07:29.862Z</time></trkpt><trkpt lat="42.5462517" lon="-7.34332"><ele>569.6666666666666</ele><time>2026-04-15T10:07:30.861Z</time></trkpt><trkpt lat="42.5461483" lon="-7.343495"><ele>566.3333333333333</ele><time>2026-04-15T10:07:31.861Z</time></trkpt><trkpt lat="42.54607" lon="-7.3436817"><ele>563.0</ele><time>2026-04-15T10:07:32.862Z</time></trkpt><trkpt lat="42.546" lon="-7.3438867"><ele>562.0</ele><time>2026-04-15T10:07:33.861Z</time></trkpt><trkpt lat="42.5459417" lon="-7.3441117"><ele>561.0</ele><time>2026-04-15T10:07:34.862Z</time></trkpt><trkpt lat="42.54588" lon="-7.3443467"><ele>560.0</ele><time>2026-04-15T10:07:35.861Z</time></trkpt><trkpt lat="42.545815" lon="-7.3445867"><ele>559.0</ele><time>2026-04-15T10:07:36.862Z</time></trkpt><trkpt lat="42.5457467" lon="-7.3448333"><ele>558.0</ele><time>2026-04-15T10:07:37.861Z</time></trkpt><trkpt lat="42.545685" lon="-7.3450783"><ele>557.0</ele><time>2026-04-15T10:07:38.861Z</time></trkpt><trkpt lat="42.545625" lon="-7.345325"><ele>556.3333333333333</ele><time>2026-04-15T10:07:39.862Z</time></trkpt><trkpt lat="42.545555" lon="-7.3455583"><ele>555.6666666666666</ele><time>2026-04-15T10:07:40.861Z</time></trkpt><trkpt lat="42.5454967" lon="-7.3457883"><ele>555.0</ele><time>2026-04-15T10:07:41.861Z</time></trkpt><trkpt lat="42.5454367" lon="-7.3460133"><ele>555.0</ele><time>2026-04-15T10:07:42.862Z</time></trkpt><trkpt lat="42.5453967" lon="-7.34623"><ele>555.0</ele><time>2026-04-15T10:07:43.861Z</time></trkpt><trkpt lat="42.54536" lon="-7.3464433"><ele>555.0</ele><time>2026-04-15T10:07:44.861Z</time></trkpt><trkpt lat="42.5453483" lon="-7.3466533"><ele>554.6666666666666</ele><time>2026-04-15T10:07:45.861Z</time></trkpt><trkpt lat="42.5453683" lon="-7.346855"><ele>554.3333333333333</ele><time>2026-04-15T10:07:46.862Z</time></trkpt><trkpt lat="42.5454117" lon="-7.3470517"><ele>554.0</ele><time>2026-04-15T10:07:47.862Z</time></trkpt><trkpt lat="42.5454883" lon="-7.34724"><ele>554.0</ele><time>2026-04-15T10:07:48.862Z</time></trkpt><trkpt lat="42.5455667" lon="-7.347425"><ele>554.0</ele><time>2026-04-15T10:07:49.861Z</time></trkpt><trkpt lat="42.5456483" lon="-7.347615"><ele>554.0</ele><time>2026-04-15T10:07:50.862Z</time></trkpt><trkpt lat="42.5457317" lon="-7.34781"><ele>554.0</ele><time>2026-04-15T10:07:51.862Z</time></trkpt><trkpt lat="42.5458083" lon="-7.34801"><ele>554.0</ele><time>2026-04-15T10:07:52.862Z</time></trkpt><trkpt lat="42.545875" lon="-7.348215"><ele>554.0</ele><time>2026-04-15T10:07:53.862Z</time></trkpt><trkpt lat="42.5459317" lon="-7.3484233"><ele>554.3333333333333</ele><time>2026-04-15T10:07:54.862Z</time></trkpt><trkpt lat="42.54599" lon="-7.3486283"><ele>554.6666666666666</ele><time>2026-04-15T10:07:55.862Z</time></trkpt><trkpt lat="42.5460467" lon="-7.34883"><ele>555.0</ele><time>2026-04-15T10:07:56.861Z</time></trkpt><trkpt lat="42.54612" lon="-7.3490167"><ele>555.0</ele><time>2026-04-15T10:07:57.861Z</time></trkpt><trkpt lat="42.5462083" lon="-7.3492033"><ele>555.0</ele><time>2026-04-15T10:07:58.862Z</time></trkpt><trkpt lat="42.5463067" lon="-7.34939"><ele>555.0</ele><time>2026-04-15T10:07:59.862Z</time></trkpt><trkpt lat="42.5464183" lon="-7.349575"><ele>554.0</ele><time>2026-04-15T10:08:00.862Z</time></trkpt><trkpt lat="42.5465367" lon="-7.34976"><ele>553.0</ele><time>2026-04-15T10:08:01.862Z</time></trkpt><trkpt lat="42.54665" lon="-7.34995"><ele>552.0</ele><time>2026-04-15T10:08:02.862Z</time></trkpt><trkpt lat="42.546755" lon="-7.3501333"><ele>552.0</ele><time>2026-04-15T10:08:03.862Z</time></trkpt><trkpt lat="42.54686" lon="-7.3503167"><ele>552.0</ele><time>2026-04-15T10:08:04.861Z</time></trkpt><trkpt lat="42.5469617" lon="-7.3504933"><ele>552.0</ele><time>2026-04-15T10:08:05.862Z</time></trkpt><trkpt lat="42.5470517" lon="-7.3506683"><ele>551.5</ele><time>2026-04-15T10:08:06.861Z</time></trkpt><trkpt lat="42.5471183" lon="-7.3508383"><ele>551.0</ele><time>2026-04-15T10:08:07.861Z</time></trkpt><trkpt lat="42.5471683" lon="-7.3510183"><ele>550.5</ele><time>2026-04-15T10:08:08.862Z</time></trkpt><trkpt lat="42.54719" lon="-7.3512283"><ele>550.0</ele><time>2026-04-15T10:08:09.861Z</time></trkpt><trkpt lat="42.547185" lon="-7.3514467"><ele>549.0</ele><time>2026-04-15T10:08:10.861Z</time></trkpt><trkpt lat="42.5471767" lon="-7.35168"><ele>548.0</ele><time>2026-04-15T10:08:11.862Z</time></trkpt><trkpt lat="42.5471717" lon="-7.3519233"><ele>547.0</ele><time>2026-04-15T10:08:12.862Z</time></trkpt><trkpt lat="42.547165" lon="-7.3521633"><ele>546.0</ele><time>2026-04-15T10:08:13.861Z</time></trkpt><trkpt lat="42.5471467" lon="-7.352415"><ele>545.0</ele><time>2026-04-15T10:08:14.862Z</time></trkpt><trkpt lat="42.54711" lon="-7.3526683"><ele>544.0</ele><time>2026-04-15T10:08:15.862Z</time></trkpt><trkpt lat="42.5470617" lon="-7.3529167"><ele>542.0</ele><time>2026-04-15T10:08:16.861Z</time></trkpt><trkpt lat="42.5470317" lon="-7.3531683"><ele>540.0</ele><time>2026-04-15T10:08:17.862Z</time></trkpt><trkpt lat="42.5470033" lon="-7.3534233"><ele>538.0</ele><time>2026-04-15T10:08:18.862Z</time></trkpt><trkpt lat="42.5469867" lon="-7.3536867"><ele>537.0</ele><time>2026-04-15T10:08:19.861Z</time></trkpt><trkpt lat="42.5469767" lon="-7.3539467"><ele>536.0</ele><time>2026-04-15T10:08:20.861Z</time></trkpt><trkpt lat="42.546975" lon="-7.3542067"><ele>535.0</ele><time>2026-04-15T10:08:21.861Z</time></trkpt><trkpt lat="42.5469667" lon="-7.354445"><ele>535.0</ele><time>2026-04-15T10:08:22.862Z</time></trkpt><trkpt lat="42.5469583" lon="-7.3546783"><ele>535.0</ele><time>2026-04-15T10:08:23.861Z</time></trkpt><trkpt lat="42.5469367" lon="-7.3548917"><ele>535.0</ele><time>2026-04-15T10:08:24.861Z</time></trkpt><trkpt lat="42.5468867" lon="-7.355105"><ele>534.6666666666667</ele><time>2026-04-15T10:08:25.862Z</time></trkpt><trkpt lat="42.54681" lon="-7.3553117"><ele>534.3333333333334</ele><time>2026-04-15T10:08:26.862Z</time></trkpt><trkpt lat="42.5467133" lon="-7.355505"><ele>534.0</ele><time>2026-04-15T10:08:27.861Z</time></trkpt><trkpt lat="42.546605" lon="-7.3556917"><ele>535.0</ele><time>2026-04-15T10:08:28.861Z</time></trkpt><trkpt lat="42.546495" lon="-7.3558883"><ele>536.0</ele><time>2026-04-15T10:08:29.862Z</time></trkpt><trkpt lat="42.5463817" lon="-7.356075"><ele>537.0</ele><time>2026-04-15T10:08:30.861Z</time></trkpt><trkpt lat="42.5462717" lon="-7.356275"><ele>537.3333333333334</ele><time>2026-04-15T10:08:31.862Z</time></trkpt><trkpt lat="42.5461533" lon="-7.356475"><ele>537.6666666666667</ele><time>2026-04-15T10:08:32.862Z</time></trkpt><trkpt lat="42.54604" lon="-7.3566717"><ele>538.0</ele><time>2026-04-15T10:08:33.861Z</time></trkpt><trkpt lat="42.5459383" lon="-7.3568633"><ele>538.0</ele><time>2026-04-15T10:08:34.862Z</time></trkpt><trkpt lat="42.5458333" lon="-7.3570667"><ele>538.0</ele><time>2026-04-15T10:08:35.862Z</time></trkpt><trkpt lat="42.5457233" lon="-7.357275"><ele>538.0</ele><time>2026-04-15T10:08:36.862Z</time></trkpt><trkpt lat="42.5456133" lon="-7.3574867"><ele>537.0</ele><time>2026-04-15T10:08:37.861Z</time></trkpt><trkpt lat="42.5454983" lon="-7.3577"><ele>536.0</ele><time>2026-04-15T10:08:38.862Z</time></trkpt><trkpt lat="42.5453833" lon="-7.3579233"><ele>535.0</ele><time>2026-04-15T10:08:39.861Z</time></trkpt><trkpt lat="42.5452567" lon="-7.3581467"><ele>532.6666666666667</ele><time>2026-04-15T10:08:40.861Z</time></trkpt><trkpt lat="42.5451383" lon="-7.358365"><ele>530.3333333333334</ele><time>2026-04-15T10:08:41.861Z</time></trkpt><trkpt lat="42.5450217" lon="-7.358585"><ele>528.0</ele><time>2026-04-15T10:08:42.862Z</time></trkpt><trkpt lat="42.5449083" lon="-7.3588083"><ele>525.3333333333334</ele><time>2026-04-15T10:08:43.861Z</time></trkpt><trkpt lat="42.5448" lon="-7.3590317"><ele>522.6666666666667</ele><time>2026-04-15T10:08:44.861Z</time></trkpt><trkpt lat="42.5446833" lon="-7.3592467"><ele>520.0</ele><time>2026-04-15T10:08:45.861Z</time></trkpt><trkpt lat="42.5445683" lon="-7.3594617"><ele>520.0</ele><time>2026-04-15T10:08:46.861Z</time></trkpt><trkpt lat="42.5444583" lon="-7.3596667"><ele>520.0</ele><time>2026-04-15T10:08:47.861Z</time></trkpt><trkpt lat="42.54435" lon="-7.3598633"><ele>520.0</ele><time>2026-04-15T10:08:48.862Z</time></trkpt><trkpt lat="42.5442433" lon="-7.3600633"><ele>517.6666666666667</ele><time>2026-04-15T10:08:49.861Z</time></trkpt><trkpt lat="42.544135" lon="-7.3602683"><ele>515.3333333333334</ele><time>2026-04-15T10:08:50.862Z</time></trkpt><trkpt lat="42.5440167" lon="-7.3604733"><ele>513.0</ele><time>2026-04-15T10:08:51.861Z</time></trkpt><trkpt lat="42.5439083" lon="-7.3606833"><ele>512.3333333333334</ele><time>2026-04-15T10:08:52.861Z</time></trkpt><trkpt lat="42.543795" lon="-7.3608833"><ele>511.6666666666667</ele><time>2026-04-15T10:08:53.861Z</time></trkpt><trkpt lat="42.54369" lon="-7.361085"><ele>511.0</ele><time>2026-04-15T10:08:54.861Z</time></trkpt><trkpt lat="42.5435817" lon="-7.361285"><ele>509.6666666666667</ele><time>2026-04-15T10:08:55.861Z</time></trkpt><trkpt lat="42.5434733" lon="-7.3614767"><ele>508.33333333333337</ele><time>2026-04-15T10:08:56.862Z</time></trkpt><trkpt lat="42.5433767" lon="-7.3616767"><ele>507.0</ele><time>2026-04-15T10:08:57.861Z</time></trkpt><trkpt lat="42.5432817" lon="-7.3618733"><ele>507.0</ele><time>2026-04-15T10:08:58.862Z</time></trkpt><trkpt lat="42.5431983" lon="-7.3620583"><ele>507.0</ele><time>2026-04-15T10:08:59.861Z</time></trkpt><trkpt lat="42.5431183" lon="-7.3622383"><ele>507.0</ele><time>2026-04-15T10:09:00.862Z</time></trkpt><trkpt lat="42.54305" lon="-7.362415"><ele>506.0</ele><time>2026-04-15T10:09:01.861Z</time></trkpt><trkpt lat="42.5429817" lon="-7.3625917"><ele>505.0</ele><time>2026-04-15T10:09:02.862Z</time></trkpt><trkpt lat="42.54292" lon="-7.3627633"><ele>504.0</ele><time>2026-04-15T10:09:03.862Z</time></trkpt><trkpt lat="42.5428583" lon="-7.3629267"><ele>503.0</ele><time>2026-04-15T10:09:04.862Z</time></trkpt><trkpt lat="42.5427867" lon="-7.363085"><ele>501.75</ele><time>2026-04-15T10:09:05.862Z</time></trkpt><trkpt lat="42.5427033" lon="-7.3632367"><ele>500.5</ele><time>2026-04-15T10:09:06.861Z</time></trkpt><trkpt lat="42.542615" lon="-7.3633833"><ele>499.25</ele><time>2026-04-15T10:09:07.862Z</time></trkpt><trkpt lat="42.542525" lon="-7.36351"><ele>498.0</ele><time>2026-04-15T10:09:08.862Z</time></trkpt><trkpt lat="42.5424283" lon="-7.3636267"><ele>498.0</ele><time>2026-04-15T10:09:09.862Z</time></trkpt><trkpt lat="42.5423267" lon="-7.3637417"><ele>498.0</ele><time>2026-04-15T10:09:10.861Z</time></trkpt><trkpt lat="42.54222" lon="-7.3638467"><ele>498.0</ele><time>2026-04-15T10:09:11.862Z</time></trkpt><trkpt lat="42.5421" lon="-7.363945"><ele>498.0</ele><time>2026-04-15T10:09:12.861Z</time></trkpt><trkpt lat="42.541975" lon="-7.364035"><ele>497.5</ele><time>2026-04-15T10:09:13.861Z</time></trkpt><trkpt lat="42.5418433" lon="-7.3641367"><ele>497.0</ele><time>2026-04-15T10:09:14.862Z</time></trkpt><trkpt lat="42.5417267" lon="-7.3642517"><ele>496.5</ele><time>2026-04-15T10:09:15.861Z</time></trkpt><trkpt lat="42.54162" lon="-7.36438"><ele>496.0</ele><time>2026-04-15T10:09:16.861Z</time></trkpt><trkpt lat="42.5415417" lon="-7.3645183"><ele>496.0</ele><time>2026-04-15T10:09:17.861Z</time></trkpt><trkpt lat="42.5414833" lon="-7.36467"><ele>496.0</ele><time>2026-04-15T10:09:18.861Z</time></trkpt><trkpt lat="42.5414483" lon="-7.3648283"><ele>496.0</ele><time>2026-04-15T10:09:19.862Z</time></trkpt><trkpt lat="42.5414417" lon="-7.36498"><ele>496.0</ele><time>2026-04-15T10:09:20.861Z</time></trkpt><trkpt lat="42.541445" lon="-7.3651383"><ele>495.0</ele><time>2026-04-15T10:09:21.861Z</time></trkpt><trkpt lat="42.54146" lon="-7.3653117"><ele>494.0</ele><time>2026-04-15T10:09:22.862Z</time></trkpt><trkpt lat="42.5414883" lon="-7.3654917"><ele>493.0</ele><time>2026-04-15T10:09:23.861Z</time></trkpt><trkpt lat="42.5415333" lon="-7.3656733"><ele>492.0</ele><time>2026-04-15T10:09:24.861Z</time></trkpt><trkpt lat="42.541575" lon="-7.3658583"><ele>491.0</ele><time>2026-04-15T10:09:25.861Z</time></trkpt><trkpt lat="42.54161" lon="-7.366065"><ele>490.0</ele><time>2026-04-15T10:09:26.861Z</time></trkpt><trkpt lat="42.541625" lon="-7.366275"><ele>489.0</ele><time>2026-04-15T10:09:27.862Z</time></trkpt><trkpt lat="42.5416333" lon="-7.3664817"><ele>488.0</ele><time>2026-04-15T10:09:28.862Z</time></trkpt><trkpt lat="42.5416267" lon="-7.3666883"><ele>487.0</ele><time>2026-04-15T10:09:29.862Z</time></trkpt><trkpt lat="42.5416117" lon="-7.3668967"><ele>486.0</ele><time>2026-04-15T10:09:30.861Z</time></trkpt><trkpt lat="42.541595" lon="-7.3671017"><ele>486.0</ele><time>2026-04-15T10:09:31.862Z</time></trkpt><trkpt lat="42.5415867" lon="-7.36731"><ele>486.0</ele><time>2026-04-15T10:09:32.862Z</time></trkpt><trkpt lat="42.541575" lon="-7.36752"><ele>486.0</ele><time>2026-04-15T10:09:33.861Z</time></trkpt><trkpt lat="42.541575" lon="-7.3677333"><ele>486.0</ele><time>2026-04-15T10:09:34.862Z</time></trkpt><trkpt lat="42.541575" lon="-7.3679483"><ele>486.0</ele><time>2026-04-15T10:09:35.861Z</time></trkpt><trkpt lat="42.5415867" lon="-7.3681583"><ele>486.0</ele><time>2026-04-15T10:09:36.861Z</time></trkpt><trkpt lat="42.54161" lon="-7.3683567"><ele>486.66666666666663</ele><time>2026-04-15T10:09:37.862Z</time></trkpt><trkpt lat="42.5416517" lon="-7.3685617"><ele>487.3333333333333</ele><time>2026-04-15T10:09:38.862Z</time></trkpt><trkpt lat="42.5417033" lon="-7.3687683"><ele>488.0</ele><time>2026-04-15T10:09:39.861Z</time></trkpt><trkpt lat="42.5417533" lon="-7.36897"><ele>488.0</ele><time>2026-04-15T10:09:40.861Z</time></trkpt><trkpt lat="42.541795" lon="-7.3691533"><ele>488.0</ele><time>2026-04-15T10:09:41.861Z</time></trkpt><trkpt lat="42.54183" lon="-7.3693517"><ele>488.0</ele><time>2026-04-15T10:09:42.861Z</time></trkpt><trkpt lat="42.5418467" lon="-7.36955"><ele>488.0</ele><time>2026-04-15T10:09:43.861Z</time></trkpt><trkpt lat="42.54185" lon="-7.369755"><ele>488.0</ele><time>2026-04-15T10:09:44.861Z</time></trkpt><trkpt lat="42.5418433" lon="-7.369975"><ele>488.0</ele><time>2026-04-15T10:09:45.862Z</time></trkpt><trkpt lat="42.541805" lon="-7.3701767"><ele>488.0</ele><time>2026-04-15T10:09:46.861Z</time></trkpt><trkpt lat="42.54175" lon="-7.3703783"><ele>486.0</ele><time>2026-04-15T10:09:47.861Z</time></trkpt><trkpt lat="42.54167" lon="-7.3705633"><ele>484.0</ele><time>2026-04-15T10:09:48.861Z</time></trkpt><trkpt lat="42.5415667" lon="-7.370725"><ele>482.0</ele><time>2026-04-15T10:09:49.861Z</time></trkpt><trkpt lat="42.54145" lon="-7.3708833"><ele>482.0</ele><time>2026-04-15T10:09:50.861Z</time></trkpt><trkpt lat="42.5413483" lon="-7.37104"><ele>482.0</ele><time>2026-04-15T10:09:51.862Z</time></trkpt><trkpt lat="42.541235" lon="-7.3712133"><ele>482.0</ele><time>2026-04-15T10:09:52.861Z</time></trkpt><trkpt lat="42.5411283" lon="-7.3713983"><ele>481.0</ele><time>2026-04-15T10:09:53.862Z</time></trkpt><trkpt lat="42.54102" lon="-7.3715833"><ele>480.0</ele><time>2026-04-15T10:09:54.861Z</time></trkpt><trkpt lat="42.5409267" lon="-7.371765"><ele>479.0</ele><time>2026-04-15T10:09:55.861Z</time></trkpt><trkpt lat="42.5408467" lon="-7.3719467"><ele>479.0</ele><time>2026-04-15T10:09:56.862Z</time></trkpt><trkpt lat="42.54078" lon="-7.3721333"><ele>479.0</ele><time>2026-04-15T10:09:57.861Z</time></trkpt><trkpt lat="42.5407467" lon="-7.372345"><ele>479.0</ele><time>2026-04-15T10:09:58.861Z</time></trkpt><trkpt lat="42.5407317" lon="-7.3725633"><ele>479.0</ele><time>2026-04-15T10:09:59.861Z</time></trkpt><trkpt lat="42.54071" lon="-7.37279"><ele>479.0</ele><time>2026-04-15T10:10:00.861Z</time></trkpt><trkpt lat="42.5407017" lon="-7.37302"><ele>479.0</ele><time>2026-04-15T10:10:01.862Z</time></trkpt><trkpt lat="42.5406767" lon="-7.3732517"><ele>479.0</ele><time>2026-04-15T10:10:02.861Z</time></trkpt><trkpt lat="42.540655" lon="-7.3734733"><ele>479.0</ele><time>2026-04-15T10:10:03.861Z</time></trkpt><trkpt lat="42.5406367" lon="-7.3736967"><ele>479.0</ele><time>2026-04-15T10:10:04.861Z</time></trkpt><trkpt lat="42.54061" lon="-7.3739183"><ele>480.0</ele><time>2026-04-15T10:10:05.861Z</time></trkpt><trkpt lat="42.5405783" lon="-7.3741317"><ele>481.0</ele><time>2026-04-15T10:10:06.861Z</time></trkpt><trkpt lat="42.5405317" lon="-7.3743483"><ele>482.0</ele><time>2026-04-15T10:10:07.862Z</time></trkpt><trkpt lat="42.5404683" lon="-7.3745533"><ele>483.66666666666663</ele><time>2026-04-15T10:10:08.862Z</time></trkpt><trkpt lat="42.5404017" lon="-7.374765"><ele>485.33333333333337</ele><time>2026-04-15T10:10:09.861Z</time></trkpt><trkpt lat="42.5403433" lon="-7.37498"><ele>487.0</ele><time>2026-04-15T10:10:10.862Z</time></trkpt><trkpt lat="42.5402767" lon="-7.37519"><ele>488.0</ele><time>2026-04-15T10:10:11.862Z</time></trkpt><trkpt lat="42.5402183" lon="-7.3754267"><ele>489.0</ele><time>2026-04-15T10:10:12.862Z</time></trkpt><trkpt lat="42.5401617" lon="-7.3756717"><ele>490.0</ele><time>2026-04-15T10:10:13.862Z</time></trkpt><trkpt lat="42.540105" lon="-7.37592"><ele>491.0</ele><time>2026-04-15T10:10:14.861Z</time></trkpt><trkpt lat="42.54005" lon="-7.3761667"><ele>492.0</ele><time>2026-04-15T10:10:15.862Z</time></trkpt><trkpt lat="42.540005" lon="-7.376415"><ele>493.0</ele><time>2026-04-15T10:10:16.861Z</time></trkpt><trkpt lat="42.5399667" lon="-7.376645"><ele>493.0</ele><time>2026-04-15T10:10:17.862Z</time></trkpt><trkpt lat="42.5399267" lon="-7.3768683"><ele>493.0</ele><time>2026-04-15T10:10:18.861Z</time></trkpt><trkpt lat="42.53989" lon="-7.377095"><ele>493.0</ele><time>2026-04-15T10:10:19.862Z</time></trkpt><trkpt lat="42.53985" lon="-7.3773183"><ele>493.0</ele><time>2026-04-15T10:10:20.862Z</time></trkpt><trkpt lat="42.5398167" lon="-7.3775283"><ele>493.0</ele><time>2026-04-15T10:10:21.861Z</time></trkpt><trkpt lat="42.5397933" lon="-7.3777383"><ele>493.0</ele><time>2026-04-15T10:10:22.861Z</time></trkpt><trkpt lat="42.53979" lon="-7.3779317"><ele>492.25</ele><time>2026-04-15T10:10:23.861Z</time></trkpt><trkpt lat="42.5397933" lon="-7.3781117"><ele>491.5</ele><time>2026-04-15T10:10:24.862Z</time></trkpt><trkpt lat="42.5397983" lon="-7.3782733"><ele>490.75</ele><time>2026-04-15T10:10:25.861Z</time></trkpt><trkpt lat="42.5397733" lon="-7.378415"><ele>490.0</ele><time>2026-04-15T10:10:26.862Z</time></trkpt><trkpt lat="42.5397133" lon="-7.3785583"><ele>490.0</ele><time>2026-04-15T10:10:27.861Z</time></trkpt><trkpt lat="42.5396167" lon="-7.3786967"><ele>490.0</ele><time>2026-04-15T10:10:28.862Z</time></trkpt><trkpt lat="42.5395067" lon="-7.3788433"><ele>490.0</ele><time>2026-04-15T10:10:29.862Z</time></trkpt><trkpt lat="42.5394017" lon="-7.379"><ele>488.25</ele><time>2026-04-15T10:10:30.861Z</time></trkpt><trkpt lat="42.5392983" lon="-7.3791517"><ele>486.5</ele><time>2026-04-15T10:10:31.862Z</time></trkpt><trkpt lat="42.53922" lon="-7.3793117"><ele>484.75</ele><time>2026-04-15T10:10:32.861Z</time></trkpt><trkpt lat="42.5391733" lon="-7.3794917"><ele>483.0</ele><time>2026-04-15T10:10:33.862Z</time></trkpt><trkpt lat="42.5391683" lon="-7.3796867"><ele>481.33333333333337</ele><time>2026-04-15T10:10:34.861Z</time></trkpt><trkpt lat="42.539195" lon="-7.3799017"><ele>479.6666666666667</ele><time>2026-04-15T10:10:35.862Z</time></trkpt><trkpt lat="42.5392017" lon="-7.3801017"><ele>478.0</ele><time>2026-04-15T10:10:36.861Z</time></trkpt><trkpt lat="42.5391817" lon="-7.3802983"><ele>478.0</ele><time>2026-04-15T10:10:37.861Z</time></trkpt><trkpt lat="42.5391267" lon="-7.3805"><ele>478.0</ele><time>2026-04-15T10:10:38.861Z</time></trkpt><trkpt lat="42.5390483" lon="-7.3806933"><ele>478.0</ele><time>2026-04-15T10:10:39.861Z</time></trkpt><trkpt lat="42.538955" lon="-7.3808867"><ele>477.0</ele><time>2026-04-15T10:10:40.862Z</time></trkpt><trkpt lat="42.53887" lon="-7.38107"><ele>476.0</ele><time>2026-04-15T10:10:41.861Z</time></trkpt><trkpt lat="42.538785" lon="-7.3812517"><ele>475.0</ele><time>2026-04-15T10:10:42.861Z</time></trkpt><trkpt lat="42.5387133" lon="-7.3814433"><ele>471.6666666666667</ele><time>2026-04-15T10:10:43.861Z</time></trkpt><trkpt lat="42.5386483" lon="-7.381635"><ele>468.33333333333337</ele><time>2026-04-15T10:10:44.861Z</time></trkpt><trkpt lat="42.5385967" lon="-7.3818533"><ele>465.0</ele><time>2026-04-15T10:10:45.861Z</time></trkpt><trkpt lat="42.5385467" lon="-7.3820633"><ele>462.33333333333337</ele><time>2026-04-15T10:10:46.861Z</time></trkpt><trkpt lat="42.5385117" lon="-7.3823"><ele>459.6666666666667</ele><time>2026-04-15T10:10:47.861Z</time></trkpt><trkpt lat="42.5384617" lon="-7.3825367"><ele>457.0</ele><time>2026-04-15T10:10:48.861Z</time></trkpt><trkpt lat="42.5384217" lon="-7.3827333"><ele>457.0</ele><time>2026-04-15T10:10:49.862Z</time></trkpt><trkpt lat="42.5383717" lon="-7.3829417"><ele>457.0</ele><time>2026-04-15T10:10:50.861Z</time></trkpt><trkpt lat="42.5383233" lon="-7.3831433"><ele>457.0</ele><time>2026-04-15T10:10:51.862Z</time></trkpt><trkpt lat="42.5382667" lon="-7.38333"><ele>454.33333333333337</ele><time>2026-04-15T10:10:52.861Z</time></trkpt><trkpt lat="42.5382133" lon="-7.3835317"><ele>451.66666666666663</ele><time>2026-04-15T10:10:53.861Z</time></trkpt><trkpt lat="42.538155" lon="-7.3837333"><ele>449.0</ele><time>2026-04-15T10:10:54.861Z</time></trkpt><trkpt lat="42.5381033" lon="-7.383925"><ele>447.5</ele><time>2026-04-15T10:10:55.862Z</time></trkpt><trkpt lat="42.5380617" lon="-7.384115"><ele>446.0</ele><time>2026-04-15T10:10:56.861Z</time></trkpt><trkpt lat="42.5380217" lon="-7.3842983"><ele>444.5</ele><time>2026-04-15T10:10:57.862Z</time></trkpt><trkpt lat="42.5379883" lon="-7.38447"><ele>443.0</ele><time>2026-04-15T10:10:58.862Z</time></trkpt><trkpt lat="42.537965" lon="-7.38466"><ele>441.5</ele><time>2026-04-15T10:10:59.862Z</time></trkpt><trkpt lat="42.537935" lon="-7.38484"><ele>440.0</ele><time>2026-04-15T10:11:00.862Z</time></trkpt><trkpt lat="42.5379" lon="-7.3850167"><ele>438.5</ele><time>2026-04-15T10:11:01.861Z</time></trkpt><trkpt lat="42.537885" lon="-7.3851817"><ele>437.0</ele><time>2026-04-15T10:11:02.862Z</time></trkpt><trkpt lat="42.5378967" lon="-7.385355"><ele>436.75</ele><time>2026-04-15T10:11:03.862Z</time></trkpt><trkpt lat="42.5379383" lon="-7.3855217"><ele>436.5</ele><time>2026-04-15T10:11:04.861Z</time></trkpt><trkpt lat="42.537995" lon="-7.3856883"><ele>436.25</ele><time>2026-04-15T10:11:05.862Z</time></trkpt><trkpt lat="42.5380383" lon="-7.38586"><ele>436.0</ele><time>2026-04-15T10:11:06.861Z</time></trkpt><trkpt lat="42.5380733" lon="-7.3860283"><ele>436.0</ele><time>2026-04-15T10:11:07.861Z</time></trkpt><trkpt lat="42.538115" lon="-7.3862133"><ele>436.0</ele><time>2026-04-15T10:11:08.862Z</time></trkpt><trkpt lat="42.53815" lon="-7.3864183"><ele>436.0</ele><time>2026-04-15T10:11:09.861Z</time></trkpt><trkpt lat="42.5381983" lon="-7.3866233"><ele>435.6666666666667</ele><time>2026-04-15T10:11:10.862Z</time></trkpt><trkpt lat="42.5382383" lon="-7.3868267"><ele>435.33333333333337</ele><time>2026-04-15T10:11:11.862Z</time></trkpt><trkpt lat="42.5382833" lon="-7.3870267"><ele>435.0</ele><time>2026-04-15T10:11:12.861Z</time></trkpt><trkpt lat="42.5383267" lon="-7.3872167"><ele>434.25</ele><time>2026-04-15T10:11:13.862Z</time></trkpt><trkpt lat="42.53837" lon="-7.3874017"><ele>433.5</ele><time>2026-04-15T10:11:14.862Z</time></trkpt><trkpt lat="42.5384067" lon="-7.3875917"><ele>432.75</ele><time>2026-04-15T10:11:15.862Z</time></trkpt><trkpt lat="42.53843" lon="-7.3877933"><ele>432.0</ele><time>2026-04-15T10:11:16.862Z</time></trkpt><trkpt lat="42.5384517" lon="-7.38798"><ele>431.5</ele><time>2026-04-15T10:11:17.862Z</time></trkpt><trkpt lat="42.53846" lon="-7.3881783"><ele>431.0</ele><time>2026-04-15T10:11:18.862Z</time></trkpt><trkpt lat="42.53847" lon="-7.38838"><ele>430.5</ele><time>2026-04-15T10:11:19.862Z</time></trkpt><trkpt lat="42.5384733" lon="-7.38858"><ele>430.0</ele><time>2026-04-15T10:11:20.861Z</time></trkpt><trkpt lat="42.5384717" lon="-7.3887833"><ele>429.33333333333337</ele><time>2026-04-15T10:11:21.862Z</time></trkpt><trkpt lat="42.5384717" lon="-7.3889917"><ele>428.66666666666663</ele><time>2026-04-15T10:11:22.861Z</time></trkpt><trkpt lat="42.5384717" lon="-7.3892067"><ele>428.0</ele><time>2026-04-15T10:11:23.862Z</time></trkpt><trkpt lat="42.53847" lon="-7.3894233"><ele>428.0</ele><time>2026-04-15T10:11:24.862Z</time></trkpt><trkpt lat="42.5384633" lon="-7.389635"><ele>428.0</ele><time>2026-04-15T10:11:25.861Z</time></trkpt><trkpt lat="42.5384617" lon="-7.3898433"><ele>428.0</ele><time>2026-04-15T10:11:26.861Z</time></trkpt><trkpt lat="42.53846" lon="-7.390045"><ele>427.3333333333333</ele><time>2026-04-15T10:11:27.861Z</time></trkpt><trkpt lat="42.538455" lon="-7.3902483"><ele>426.66666666666663</ele><time>2026-04-15T10:11:28.862Z</time></trkpt><trkpt lat="42.538445" lon="-7.3904633"><ele>426.0</ele><time>2026-04-15T10:11:29.861Z</time></trkpt><trkpt lat="42.5384333" lon="-7.3906717"><ele>425.5</ele><time>2026-04-15T10:11:30.861Z</time></trkpt><trkpt lat="42.5384217" lon="-7.3908717"><ele>425.0</ele><time>2026-04-15T10:11:31.861Z</time></trkpt><trkpt lat="42.538425" lon="-7.3910783"><ele>424.5</ele><time>2026-04-15T10:11:32.862Z</time></trkpt><trkpt lat="42.538425" lon="-7.391275"><ele>424.0</ele><time>2026-04-15T10:11:33.861Z</time></trkpt><trkpt lat="42.538425" lon="-7.391475"><ele>423.33333333333337</ele><time>2026-04-15T10:11:34.861Z</time></trkpt><trkpt lat="42.5384167" lon="-7.3916917"><ele>422.66666666666663</ele><time>2026-04-15T10:11:35.861Z</time></trkpt><trkpt lat="42.538405" lon="-7.39193"><ele>422.0</ele><time>2026-04-15T10:11:36.861Z</time></trkpt><trkpt lat="42.5384017" lon="-7.3921733"><ele>421.0</ele><time>2026-04-15T10:11:37.861Z</time></trkpt><trkpt lat="42.5384017" lon="-7.3924383"><ele>420.0</ele><time>2026-04-15T10:11:38.861Z</time></trkpt><trkpt lat="42.5384067" lon="-7.3927167"><ele>419.0</ele><time>2026-04-15T10:11:39.862Z</time></trkpt><trkpt lat="42.5384117" lon="-7.3929983"><ele>418.0</ele><time>2026-04-15T10:11:40.862Z</time></trkpt><trkpt lat="42.53842" lon="-7.39328"><ele>417.0</ele><time>2026-04-15T10:11:41.862Z</time></trkpt><trkpt lat="42.5384283" lon="-7.3935567"><ele>416.0</ele><time>2026-04-15T10:11:42.862Z</time></trkpt><trkpt lat="42.5384333" lon="-7.3938217"><ele>414.0</ele><time>2026-04-15T10:11:43.861Z</time></trkpt><trkpt lat="42.5384383" lon="-7.394085"><ele>412.0</ele><time>2026-04-15T10:11:44.861Z</time></trkpt><trkpt lat="42.5384483" lon="-7.394345"><ele>410.0</ele><time>2026-04-15T10:11:45.862Z</time></trkpt><trkpt lat="42.5384617" lon="-7.3946083"><ele>408.66666666666663</ele><time>2026-04-15T10:11:46.861Z</time></trkpt><trkpt lat="42.5384767" lon="-7.3948733"><ele>407.33333333333337</ele><time>2026-04-15T10:11:47.862Z</time></trkpt><trkpt lat="42.538495" lon="-7.39513"><ele>406.0</ele><time>2026-04-15T10:11:48.862Z</time></trkpt><trkpt lat="42.5385183" lon="-7.395385"><ele>405.6666666666667</ele><time>2026-04-15T10:11:49.862Z</time></trkpt><trkpt lat="42.538535" lon="-7.395645"><ele>405.33333333333337</ele><time>2026-04-15T10:11:50.862Z</time></trkpt><trkpt lat="42.5385533" lon="-7.3958933"><ele>405.0</ele><time>2026-04-15T10:11:51.861Z</time></trkpt><trkpt lat="42.5385717" lon="-7.39613"><ele>404.5</ele><time>2026-04-15T10:11:52.862Z</time></trkpt><trkpt lat="42.5385833" lon="-7.3963467"><ele>404.0</ele><time>2026-04-15T10:11:53.862Z</time></trkpt><trkpt lat="42.5385767" lon="-7.3965383"><ele>403.5</ele><time>2026-04-15T10:11:54.862Z</time></trkpt><trkpt lat="42.53855" lon="-7.3967017"><ele>403.0</ele><time>2026-04-15T10:11:55.861Z</time></trkpt><trkpt lat="42.5385033" lon="-7.3968633"><ele>403.0</ele><time>2026-04-15T10:11:56.861Z</time></trkpt><trkpt lat="42.5384217" lon="-7.3970167"><ele>403.0</ele><time>2026-04-15T10:11:57.861Z</time></trkpt><trkpt lat="42.5383317" lon="-7.3971483"><ele>403.0</ele><time>2026-04-15T10:11:58.861Z</time></trkpt><trkpt lat="42.5382517" lon="-7.397255"><ele>403.0</ele><time>2026-04-15T10:11:59.861Z</time></trkpt><trkpt lat="42.5381967" lon="-7.39734"><ele>402.0</ele><time>2026-04-15T10:12:00.861Z</time></trkpt><trkpt lat="42.5381817" lon="-7.3974883"><ele>401.0</ele><time>2026-04-15T10:12:02.861Z</time></trkpt><trkpt lat="42.538225" lon="-7.3975617"><ele>400.0</ele><time>2026-04-15T10:12:03.861Z</time></trkpt><trkpt lat="42.5382917" lon="-7.3976533"><ele>399.0</ele><time>2026-04-15T10:12:04.861Z</time></trkpt><trkpt lat="42.5383733" lon="-7.397775"><ele>398.0</ele><time>2026-04-15T10:12:05.862Z</time></trkpt><trkpt lat="42.5384633" lon="-7.3979217"><ele>397.5</ele><time>2026-04-15T10:12:06.862Z</time></trkpt><trkpt lat="42.5385483" lon="-7.3980833"><ele>397.0</ele><time>2026-04-15T10:12:07.861Z</time></trkpt><trkpt lat="42.5386367" lon="-7.3982333"><ele>396.5</ele><time>2026-04-15T10:12:08.861Z</time></trkpt><trkpt lat="42.53872" lon="-7.3983817"><ele>396.0</ele><time>2026-04-15T10:12:09.861Z</time></trkpt><trkpt lat="42.5387983" lon="-7.3985"><ele>395.8</ele><time>2026-04-15T10:12:10.861Z</time></trkpt><trkpt lat="42.5388667" lon="-7.3985917"><ele>395.6</ele><time>2026-04-15T10:12:11.862Z</time></trkpt><trkpt lat="42.53893" lon="-7.3986933"><ele>395.4</ele><time>2026-04-15T10:12:12.861Z</time></trkpt><trkpt lat="42.5389817" lon="-7.3988017"><ele>395.2</ele><time>2026-04-15T10:12:13.861Z</time></trkpt><trkpt lat="42.53905" lon="-7.3989133"><ele>395.0</ele><time>2026-04-15T10:12:14.862Z</time></trkpt><trkpt lat="42.5391167" lon="-7.3990183"><ele>394.66666666666663</ele><time>2026-04-15T10:12:15.862Z</time></trkpt><trkpt lat="42.539185" lon="-7.3991317"><ele>394.3333333333333</ele><time>2026-04-15T10:12:16.861Z</time></trkpt><trkpt lat="42.5392517" lon="-7.3992333"><ele>394.0</ele><time>2026-04-15T10:12:17.862Z</time></trkpt><trkpt lat="42.5392917" lon="-7.39932"><ele>393.66666666666663</ele><time>2026-04-15T10:12:18.862Z</time></trkpt><trkpt lat="42.5393233" lon="-7.3994167"><ele>393.3333333333333</ele><time>2026-04-15T10:12:20.861Z</time></trkpt><trkpt lat="42.539255" lon="-7.3993583"><ele>393.0</ele><time>2026-04-15T10:12:23.862Z</time></trkpt><trkpt lat="42.5392133" lon="-7.3992567"><ele>393.0</ele><time>2026-04-15T10:12:24.861Z</time></trkpt><trkpt lat="42.5391567" lon="-7.3991333"><ele>393.0</ele><time>2026-04-15T10:12:25.861Z</time></trkpt><trkpt lat="42.5390783" lon="-7.3989883"><ele>393.0</ele><time>2026-04-15T10:12:26.861Z</time></trkpt><trkpt lat="42.5389733" lon="-7.39883"><ele>393.0</ele><time>2026-04-15T10:12:27.861Z</time></trkpt><trkpt lat="42.5388683" lon="-7.3986667"><ele>393.5</ele><time>2026-04-15T10:12:28.861Z</time></trkpt><trkpt lat="42.5387733" lon="-7.3985"><ele>394.0</ele><time>2026-04-15T10:12:29.861Z</time></trkpt><trkpt lat="42.5386883" lon="-7.3983583"><ele>394.5</ele><time>2026-04-15T10:12:30.861Z</time></trkpt><trkpt lat="42.5386117" lon="-7.3982333"><ele>395.0</ele><time>2026-04-15T10:12:31.861Z</time></trkpt><trkpt lat="42.5385517" lon="-7.3981317"><ele>395.2</ele><time>2026-04-15T10:12:32.861Z</time></trkpt><trkpt lat="42.538505" lon="-7.3980517"><ele>395.4</ele><time>2026-04-15T10:12:33.862Z</time></trkpt><trkpt lat="42.538415" lon="-7.3980117"><ele>395.6</ele><time>2026-04-15T10:12:35.861Z</time></trkpt><trkpt lat="42.5382817" lon="-7.398105"><ele>395.8</ele><time>2026-04-15T10:12:37.861Z</time></trkpt><trkpt lat="42.5381833" lon="-7.398195"><ele>396.0</ele><time>2026-04-15T10:12:38.862Z</time></trkpt><trkpt lat="42.5380767" lon="-7.3982883"><ele>396.0</ele><time>2026-04-15T10:12:39.862Z</time></trkpt><trkpt lat="42.5379583" lon="-7.3983667"><ele>396.0</ele><time>2026-04-15T10:12:40.861Z</time></trkpt><trkpt lat="42.537835" lon="-7.398455"><ele>396.0</ele><time>2026-04-15T10:12:41.861Z</time></trkpt><trkpt lat="42.5377" lon="-7.3985467"><ele>396.0</ele><time>2026-04-15T10:12:42.861Z</time></trkpt><trkpt lat="42.5375617" lon="-7.398635"><ele>396.0</ele><time>2026-04-15T10:12:43.861Z</time></trkpt><trkpt lat="42.5374217" lon="-7.398735"><ele>396.0</ele><time>2026-04-15T10:12:44.862Z</time></trkpt><trkpt lat="42.5372767" lon="-7.3988283"><ele>396.0</ele><time>2026-04-15T10:12:45.862Z</time></trkpt><trkpt lat="42.5371233" lon="-7.398925"><ele>396.66666666666663</ele><time>2026-04-15T10:12:46.861Z</time></trkpt><trkpt lat="42.5369667" lon="-7.3990283"><ele>397.3333333333333</ele><time>2026-04-15T10:12:47.861Z</time></trkpt><trkpt lat="42.53682" lon="-7.3991317"><ele>398.0</ele><time>2026-04-15T10:12:48.861Z</time></trkpt><trkpt lat="42.536665" lon="-7.39924"><ele>398.0</ele><time>2026-04-15T10:12:49.862Z</time></trkpt><trkpt lat="42.5365083" lon="-7.3993517"><ele>398.0</ele><time>2026-04-15T10:12:50.861Z</time></trkpt><trkpt lat="42.53634" lon="-7.399455"><ele>398.0</ele><time>2026-04-15T10:12:51.861Z</time></trkpt><trkpt lat="42.536175" lon="-7.399565"><ele>400.0</ele><time>2026-04-15T10:12:52.862Z</time></trkpt><trkpt lat="42.536015" lon="-7.399675"><ele>402.0</ele><time>2026-04-15T10:12:53.862Z</time></trkpt><trkpt lat="42.5358617" lon="-7.399785"><ele>404.0</ele><time>2026-04-15T10:12:54.862Z</time></trkpt><trkpt lat="42.5357133" lon="-7.3998867"><ele>404.0</ele><time>2026-04-15T10:12:55.861Z</time></trkpt><trkpt lat="42.5355633" lon="-7.399985"><ele>404.0</ele><time>2026-04-15T10:12:56.862Z</time></trkpt><trkpt lat="42.5354133" lon="-7.400085"><ele>404.0</ele><time>2026-04-15T10:12:57.861Z</time></trkpt><trkpt lat="42.5352667" lon="-7.4001917"><ele>405.0</ele><time>2026-04-15T10:12:58.862Z</time></trkpt><trkpt lat="42.5351183" lon="-7.4002917"><ele>406.0</ele><time>2026-04-15T10:12:59.861Z</time></trkpt><trkpt lat="42.5349883" lon="-7.400385"><ele>407.0</ele><time>2026-04-15T10:13:00.861Z</time></trkpt><trkpt lat="42.5348867" lon="-7.4004567"><ele>408.0</ele><time>2026-04-15T10:13:01.861Z</time></trkpt><trkpt lat="42.5348167" lon="-7.4005133"><ele>409.2</ele><time>2026-04-15T10:13:02.861Z</time></trkpt><trkpt lat="42.5347567" lon="-7.4005483"><ele>410.4</ele><time>2026-04-15T10:13:04.862Z</time></trkpt><trkpt lat="42.5348333" lon="-7.4006683"><ele>411.59999999999997</ele><time>2026-04-15T10:13:13.862Z</time></trkpt><trkpt lat="42.5348833" lon="-7.4007483"><ele>412.79999999999995</ele><time>2026-04-15T10:13:14.861Z</time></trkpt><trkpt lat="42.5349583" lon="-7.40084"><ele>414.0</ele><time>2026-04-15T10:13:15.861Z</time></trkpt><trkpt lat="42.5350433" lon="-7.400945"><ele>414.0</ele><time>2026-04-15T10:13:16.861Z</time></trkpt><trkpt lat="42.5351233" lon="-7.4010767"><ele>414.0</ele><time>2026-04-15T10:13:17.862Z</time></trkpt><trkpt lat="42.5352067" lon="-7.40122"><ele>414.0</ele><time>2026-04-15T10:13:18.862Z</time></trkpt><trkpt lat="42.5352933" lon="-7.401355"><ele>414.0</ele><time>2026-04-15T10:13:19.861Z</time></trkpt><trkpt lat="42.5353683" lon="-7.4014917"><ele>414.0</ele><time>2026-04-15T10:13:20.861Z</time></trkpt><trkpt lat="42.53541" lon="-7.401615"><ele>414.0</ele><time>2026-04-15T10:13:21.861Z</time></trkpt><trkpt lat="42.5354217" lon="-7.4017267"><ele>414.0</ele><time>2026-04-15T10:13:22.861Z</time></trkpt><trkpt lat="42.5353933" lon="-7.4018367"><ele>414.0</ele><time>2026-04-15T10:13:23.862Z</time></trkpt><trkpt lat="42.53533" lon="-7.4019417"><ele>414.0</ele><time>2026-04-15T10:13:24.861Z</time></trkpt><trkpt lat="42.5352567" lon="-7.4020283"><ele>414.79999999999995</ele><time>2026-04-15T10:13:25.862Z</time></trkpt><trkpt lat="42.535175" lon="-7.40209"><ele>415.59999999999997</ele><time>2026-04-15T10:13:26.862Z</time></trkpt><trkpt lat="42.53509" lon="-7.4021017"><ele>416.4</ele><time>2026-04-15T10:13:27.861Z</time></trkpt><trkpt lat="42.5350067" lon="-7.4020533"><ele>417.2</ele><time>2026-04-15T10:13:28.861Z</time></trkpt><trkpt lat="42.534915" lon="-7.40196"><ele>418.0</ele><time>2026-04-15T10:13:29.861Z</time></trkpt><trkpt lat="42.5348133" lon="-7.4018383"><ele>418.0</ele><time>2026-04-15T10:13:30.862Z</time></trkpt><trkpt lat="42.53471" lon="-7.4017217"><ele>418.0</ele><time>2026-04-15T10:13:31.862Z</time></trkpt><trkpt lat="42.5345983" lon="-7.401615"><ele>418.0</ele><time>2026-04-15T10:13:32.861Z</time></trkpt><trkpt lat="42.5344783" lon="-7.4015133"><ele>418.0</ele><time>2026-04-15T10:13:33.862Z</time></trkpt><trkpt lat="42.5343517" lon="-7.4014217"><ele>418.0</ele><time>2026-04-15T10:13:34.861Z</time></trkpt><trkpt lat="42.534235" lon="-7.40133"><ele>418.0</ele><time>2026-04-15T10:13:35.861Z</time></trkpt><trkpt lat="42.5341267" lon="-7.4012517"><ele>418.0</ele><time>2026-04-15T10:13:36.861Z</time></trkpt><trkpt lat="42.5340383" lon="-7.4011967"><ele>418.0</ele><time>2026-04-15T10:13:37.861Z</time></trkpt><trkpt lat="42.5339667" lon="-7.4011583"><ele>418.0</ele><time>2026-04-15T10:13:38.861Z</time></trkpt><trkpt lat="42.5339033" lon="-7.4011467"><ele>418.00000000000006</ele><time>2026-04-15T10:13:39.861Z</time></trkpt><trkpt lat="42.5338383" lon="-7.4011467"><ele>418.0</ele><time>2026-04-15T10:13:40.862Z</time></trkpt><trkpt lat="42.5337733" lon="-7.401135"><ele>418.0</ele><time>2026-04-15T10:13:41.861Z</time></trkpt><trkpt lat="42.5337" lon="-7.40109"><ele>418.0</ele><time>2026-04-15T10:13:42.862Z</time></trkpt><trkpt lat="42.5336217" lon="-7.4010183"><ele>418.00000000000006</ele><time>2026-04-15T10:13:43.862Z</time></trkpt><trkpt lat="42.533535" lon="-7.40094"><ele>418.0</ele><time>2026-04-15T10:13:44.862Z</time></trkpt><trkpt lat="42.5334367" lon="-7.40086"><ele>421.0</ele><time>2026-04-15T10:13:45.861Z</time></trkpt><trkpt lat="42.5333183" lon="-7.4007917"><ele>424.0</ele><time>2026-04-15T10:13:46.861Z</time></trkpt><trkpt lat="42.5331817" lon="-7.4007383"><ele>427.0</ele><time>2026-04-15T10:13:47.861Z</time></trkpt><trkpt lat="42.533035" lon="-7.4006967"><ele>430.0</ele><time>2026-04-15T10:13:48.861Z</time></trkpt><trkpt lat="42.5328817" lon="-7.4006533"><ele>432.33333333333337</ele><time>2026-04-15T10:13:49.861Z</time></trkpt><trkpt lat="42.5327133" lon="-7.4006133"><ele>434.66666666666663</ele><time>2026-04-15T10:13:50.862Z</time></trkpt><trkpt lat="42.5325417" lon="-7.40058"><ele>437.0</ele><time>2026-04-15T10:13:51.861Z</time></trkpt><trkpt lat="42.5323667" lon="-7.4005467"><ele>437.0</ele><time>2026-04-15T10:13:52.862Z</time></trkpt><trkpt lat="42.53218" lon="-7.4005083"><ele>437.0</ele><time>2026-04-15T10:13:53.862Z</time></trkpt><trkpt lat="42.5319883" lon="-7.4004683"><ele>437.0</ele><time>2026-04-15T10:13:54.862Z</time></trkpt><trkpt lat="42.5318" lon="-7.400425"><ele>438.0</ele><time>2026-04-15T10:13:55.863Z</time></trkpt><trkpt lat="42.531605" lon="-7.4003767"><ele>439.0</ele><time>2026-04-15T10:13:56.863Z</time></trkpt><trkpt lat="42.5314167" lon="-7.4003217"><ele>440.0</ele><time>2026-04-15T10:13:57.862Z</time></trkpt><trkpt lat="42.5312217" lon="-7.400255"><ele>442.0</ele><time>2026-04-15T10:13:58.862Z</time></trkpt><trkpt lat="42.5310317" lon="-7.4001717"><ele>444.0</ele><time>2026-04-15T10:13:59.863Z</time></trkpt><trkpt lat="42.53084" lon="-7.4000783"><ele>446.0</ele><time>2026-04-15T10:14:00.863Z</time></trkpt><trkpt lat="42.5306533" lon="-7.3999667"><ele>446.0</ele><time>2026-04-15T10:14:01.863Z</time></trkpt><trkpt lat="42.5304533" lon="-7.3998267"><ele>446.0</ele><time>2026-04-15T10:14:02.862Z</time></trkpt><trkpt lat="42.5302517" lon="-7.3996833"><ele>443.0</ele><time>2026-04-15T10:14:03.863Z</time></trkpt><trkpt lat="42.5300517" lon="-7.3995333"><ele>440.0</ele><time>2026-04-15T10:14:04.862Z</time></trkpt><trkpt lat="42.529855" lon="-7.3993867"><ele>440.0</ele><time>2026-04-15T10:14:05.862Z</time></trkpt><trkpt lat="42.5296617" lon="-7.3992283"><ele>440.0</ele><time>2026-04-15T10:14:06.863Z</time></trkpt><trkpt lat="42.5294833" lon="-7.39906"><ele>440.0</ele><time>2026-04-15T10:14:07.863Z</time></trkpt><trkpt lat="42.5293133" lon="-7.3988867"><ele>440.66666666666663</ele><time>2026-04-15T10:14:08.862Z</time></trkpt><trkpt lat="42.529155" lon="-7.398705"><ele>441.33333333333337</ele><time>2026-04-15T10:14:09.863Z</time></trkpt><trkpt lat="42.5290117" lon="-7.3985317"><ele>442.0</ele><time>2026-04-15T10:14:10.862Z</time></trkpt><trkpt lat="42.5288783" lon="-7.3984"><ele>442.0</ele><time>2026-04-15T10:14:11.863Z</time></trkpt><trkpt lat="42.52873" lon="-7.39832"><ele>442.0</ele><time>2026-04-15T10:14:12.863Z</time></trkpt><trkpt lat="42.5285783" lon="-7.3982617"><ele>442.0</ele><time>2026-04-15T10:14:13.862Z</time></trkpt><trkpt lat="42.5284517" lon="-7.3982233"><ele>442.0</ele><time>2026-04-15T10:14:14.862Z</time></trkpt><trkpt lat="42.5283333" lon="-7.3981733"><ele>443.20000000000005</ele><time>2026-04-15T10:14:15.862Z</time></trkpt><trkpt lat="42.528225" lon="-7.3981167"><ele>444.40000000000003</ele><time>2026-04-15T10:14:16.863Z</time></trkpt><trkpt lat="42.5281383" lon="-7.398065"><ele>445.59999999999997</ele><time>2026-04-15T10:14:17.862Z</time></trkpt><trkpt lat="42.5280517" lon="-7.3980183"><ele>446.79999999999995</ele><time>2026-04-15T10:14:18.862Z</time></trkpt><trkpt lat="42.5279683" lon="-7.3980083"><ele>448.0</ele><time>2026-04-15T10:14:19.862Z</time></trkpt><trkpt lat="42.5279017" lon="-7.398005"><ele>448.33333333333337</ele><time>2026-04-15T10:14:20.862Z</time></trkpt><trkpt lat="42.5278317" lon="-7.397985"><ele>448.6666666666667</ele><time>2026-04-15T10:14:22.862Z</time></trkpt><trkpt lat="42.5277733" lon="-7.397945"><ele>449.0</ele><time>2026-04-15T10:14:29.863Z</time></trkpt><trkpt lat="42.52769" lon="-7.3979167"><ele>449.33333333333337</ele><time>2026-04-15T10:33:51.865Z</time></trkpt><trkpt lat="42.5276383" lon="-7.3978633"><ele>449.6666666666667</ele><time>2026-04-15T10:33:53.865Z</time></trkpt><trkpt lat="42.5275933" lon="-7.3977533"><ele>450.0</ele><time>2026-04-15T10:34:10.864Z</time></trkpt><trkpt lat="42.5276133" lon="-7.397605"><ele>450.0</ele><time>2026-04-15T10:34:12.864Z</time></trkpt><trkpt lat="42.5276617" lon="-7.3975083"><ele>450.0</ele><time>2026-04-15T10:34:13.865Z</time></trkpt><trkpt lat="42.5277383" lon="-7.3974383"><ele>450.0</ele><time>2026-04-15T10:34:14.864Z</time></trkpt><trkpt lat="42.5278233" lon="-7.3974133"><ele>450.0</ele><time>2026-04-15T10:34:15.864Z</time></trkpt><trkpt lat="42.5279117" lon="-7.3974417"><ele>450.0</ele><time>2026-04-15T10:34:16.864Z</time></trkpt><trkpt lat="42.5280067" lon="-7.397505"><ele>448.0</ele><time>2026-04-15T10:34:17.864Z</time></trkpt><trkpt lat="42.5281067" lon="-7.3975817"><ele>446.0</ele><time>2026-04-15T10:34:18.864Z</time></trkpt><trkpt lat="42.5282067" lon="-7.397665"><ele>444.0</ele><time>2026-04-15T10:34:19.864Z</time></trkpt><trkpt lat="42.5283083" lon="-7.3977467"><ele>442.0</ele><time>2026-04-15T10:34:20.864Z</time></trkpt><trkpt lat="42.528405" lon="-7.39785"><ele>442.0</ele><time>2026-04-15T10:34:21.865Z</time></trkpt><trkpt lat="42.5284833" lon="-7.3979567"><ele>442.00000000000006</ele><time>2026-04-15T10:34:22.865Z</time></trkpt><trkpt lat="42.5285533" lon="-7.3980567"><ele>442.00000000000006</ele><time>2026-04-15T10:34:23.865Z</time></trkpt><trkpt lat="42.528615" lon="-7.3981417"><ele>442.0</ele><time>2026-04-15T10:34:24.864Z</time></trkpt><trkpt lat="42.5286717" lon="-7.398195"><ele>442.0</ele><time>2026-04-15T10:34:25.864Z</time></trkpt><trkpt lat="42.5287467" lon="-7.398235"><ele>442.0</ele><time>2026-04-15T10:34:26.865Z</time></trkpt><trkpt lat="42.5288333" lon="-7.3982667"><ele>442.00000000000006</ele><time>2026-04-15T10:34:27.864Z</time></trkpt><trkpt lat="42.52893" lon="-7.3983233"><ele>442.00000000000006</ele><time>2026-04-15T10:34:28.864Z</time></trkpt><trkpt lat="42.5290183" lon="-7.3984167"><ele>442.0</ele><time>2026-04-15T10:34:29.864Z</time></trkpt><trkpt lat="42.529095" lon="-7.3985317"><ele>442.0</ele><time>2026-04-15T10:34:30.865Z</time></trkpt><trkpt lat="42.52918" lon="-7.3986517"><ele>442.0</ele><time>2026-04-15T10:34:31.864Z</time></trkpt><trkpt lat="42.52927" lon="-7.39877"><ele>442.0</ele><time>2026-04-15T10:34:32.864Z</time></trkpt><trkpt lat="42.5293733" lon="-7.398885"><ele>442.0</ele><time>2026-04-15T10:34:33.864Z</time></trkpt><trkpt lat="42.529485" lon="-7.3989983"><ele>442.0</ele><time>2026-04-15T10:34:34.865Z</time></trkpt><trkpt lat="42.5296" lon="-7.39911"><ele>441.5</ele><time>2026-04-15T10:34:35.864Z</time></trkpt><trkpt lat="42.5297233" lon="-7.3992133"><ele>441.0</ele><time>2026-04-15T10:34:36.864Z</time></trkpt><trkpt lat="42.52986" lon="-7.3993133"><ele>440.5</ele><time>2026-04-15T10:34:37.865Z</time></trkpt><trkpt lat="42.529985" lon="-7.399415"><ele>440.0</ele><time>2026-04-15T10:34:38.864Z</time></trkpt><trkpt lat="42.5301117" lon="-7.39951"><ele>440.0</ele><time>2026-04-15T10:34:39.865Z</time></trkpt><trkpt lat="42.5302367" lon="-7.399615"><ele>440.0</ele><time>2026-04-15T10:34:40.865Z</time></trkpt><trkpt lat="42.5303717" lon="-7.3997133"><ele>440.0</ele><time>2026-04-15T10:34:41.864Z</time></trkpt><trkpt lat="42.5305083" lon="-7.3998017"><ele>441.5</ele><time>2026-04-15T10:34:42.864Z</time></trkpt><trkpt lat="42.530645" lon="-7.399885"><ele>443.0</ele><time>2026-04-15T10:34:43.864Z</time></trkpt><trkpt lat="42.5307733" lon="-7.3999617"><ele>444.5</ele><time>2026-04-15T10:34:44.865Z</time></trkpt><trkpt lat="42.53091" lon="-7.4000383"><ele>446.0</ele><time>2026-04-15T10:34:45.864Z</time></trkpt><trkpt lat="42.53105" lon="-7.4001017"><ele>446.0</ele><time>2026-04-15T10:34:46.864Z</time></trkpt><trkpt lat="42.5311917" lon="-7.4001717"><ele>446.0</ele><time>2026-04-15T10:34:47.865Z</time></trkpt><trkpt lat="42.531335" lon="-7.4002383"><ele>446.0</ele><time>2026-04-15T10:34:48.865Z</time></trkpt><trkpt lat="42.5314733" lon="-7.4002783"><ele>446.0</ele><time>2026-04-15T10:34:49.864Z</time></trkpt><trkpt lat="42.5316117" lon="-7.4003217"><ele>444.5</ele><time>2026-04-15T10:34:50.865Z</time></trkpt><trkpt lat="42.5317467" lon="-7.4003617"><ele>443.0</ele><time>2026-04-15T10:34:51.864Z</time></trkpt><trkpt lat="42.5318783" lon="-7.4004"><ele>441.5</ele><time>2026-04-15T10:34:52.864Z</time></trkpt><trkpt lat="42.5320167" lon="-7.4004283"><ele>440.0</ele><time>2026-04-15T10:34:53.864Z</time></trkpt><trkpt lat="42.5321533" lon="-7.40046"><ele>439.25</ele><time>2026-04-15T10:34:54.865Z</time></trkpt><trkpt lat="42.532285" lon="-7.400485"><ele>438.5</ele><time>2026-04-15T10:34:55.865Z</time></trkpt><trkpt lat="42.5324233" lon="-7.40052"><ele>437.75</ele><time>2026-04-15T10:34:56.865Z</time></trkpt><trkpt lat="42.5325533" lon="-7.4005383"><ele>437.0</ele><time>2026-04-15T10:34:57.864Z</time></trkpt><trkpt lat="42.532685" lon="-7.400555"><ele>437.0</ele><time>2026-04-15T10:34:58.865Z</time></trkpt><trkpt lat="42.5328117" lon="-7.40058"><ele>437.0</ele><time>2026-04-15T10:34:59.865Z</time></trkpt><trkpt lat="42.5329417" lon="-7.4006133"><ele>437.0</ele><time>2026-04-15T10:35:00.865Z</time></trkpt><trkpt lat="42.5330733" lon="-7.40065"><ele>437.0</ele><time>2026-04-15T10:35:01.864Z</time></trkpt><trkpt lat="42.5332067" lon="-7.4006983"><ele>435.25</ele><time>2026-04-15T10:35:02.865Z</time></trkpt><trkpt lat="42.53334" lon="-7.40075"><ele>433.5</ele><time>2026-04-15T10:35:03.865Z</time></trkpt><trkpt lat="42.5334633" lon="-7.4008117"><ele>431.75</ele><time>2026-04-15T10:35:04.864Z</time></trkpt><trkpt lat="42.5335783" lon="-7.4008817"><ele>430.0</ele><time>2026-04-15T10:35:05.864Z</time></trkpt><trkpt lat="42.53367" lon="-7.40095"><ele>428.00000000000006</ele><time>2026-04-15T10:35:06.864Z</time></trkpt><trkpt lat="42.5337283" lon="-7.4009967"><ele>426.0</ele><time>2026-04-15T10:35:07.864Z</time></trkpt><trkpt lat="42.533795" lon="-7.4010283"><ele>424.0</ele><time>2026-04-15T10:35:09.865Z</time></trkpt><trkpt lat="42.533855" lon="-7.4010817"><ele>422.0</ele><time>2026-04-15T10:35:11.865Z</time></trkpt><trkpt lat="42.5339717" lon="-7.4011683"><ele>420.00000000000006</ele><time>2026-04-15T10:35:13.864Z</time></trkpt><trkpt lat="42.534055" lon="-7.4012033"><ele>418.0</ele><time>2026-04-15T10:35:14.865Z</time></trkpt><trkpt lat="42.5341433" lon="-7.4012483"><ele>418.0</ele><time>2026-04-15T10:35:15.865Z</time></trkpt><trkpt lat="42.5342383" lon="-7.4013133"><ele>418.0</ele><time>2026-04-15T10:35:16.865Z</time></trkpt><trkpt lat="42.53434" lon="-7.40138"><ele>418.0</ele><time>2026-04-15T10:35:17.865Z</time></trkpt><trkpt lat="42.5344417" lon="-7.4014567"><ele>418.0</ele><time>2026-04-15T10:35:18.865Z</time></trkpt><trkpt lat="42.5345433" lon="-7.40154"><ele>418.0</ele><time>2026-04-15T10:35:19.865Z</time></trkpt><trkpt lat="42.5346417" lon="-7.401635"><ele>418.0</ele><time>2026-04-15T10:35:20.865Z</time></trkpt><trkpt lat="42.5347367" lon="-7.4017383"><ele>418.0</ele><time>2026-04-15T10:35:21.865Z</time></trkpt><trkpt lat="42.5348317" lon="-7.4018317"><ele>418.0</ele><time>2026-04-15T10:35:22.865Z</time></trkpt><trkpt lat="42.5349233" lon="-7.4019167"><ele>418.00000000000006</ele><time>2026-04-15T10:35:23.864Z</time></trkpt><trkpt lat="42.53501" lon="-7.4019917"><ele>418.0</ele><time>2026-04-15T10:35:24.864Z</time></trkpt><trkpt lat="42.5350983" lon="-7.40204"><ele>418.0</ele><time>2026-04-15T10:35:25.864Z</time></trkpt><trkpt lat="42.5351767" lon="-7.4020433"><ele>418.0</ele><time>2026-04-15T10:35:26.864Z</time></trkpt><trkpt lat="42.53524" lon="-7.402015"><ele>418.00000000000006</ele><time>2026-04-15T10:35:27.865Z</time></trkpt><trkpt lat="42.53529" lon="-7.4019433"><ele>418.0</ele><time>2026-04-15T10:35:28.865Z</time></trkpt><trkpt lat="42.5353383" lon="-7.4018667"><ele>418.0</ele><time>2026-04-15T10:35:29.864Z</time></trkpt><trkpt lat="42.5353717" lon="-7.4017683"><ele>418.0</ele><time>2026-04-15T10:35:30.864Z</time></trkpt><trkpt lat="42.53539" lon="-7.4016567"><ele>418.0</ele><time>2026-04-15T10:35:31.864Z</time></trkpt><trkpt lat="42.5353717" lon="-7.4015383"><ele>418.0</ele><time>2026-04-15T10:35:32.865Z</time></trkpt><trkpt lat="42.535325" lon="-7.4014067"><ele>418.0</ele><time>2026-04-15T10:35:33.865Z</time></trkpt><trkpt lat="42.53525" lon="-7.401285"><ele>417.0</ele><time>2026-04-15T10:35:34.865Z</time></trkpt><trkpt lat="42.535145" lon="-7.4011667"><ele>416.0</ele><time>2026-04-15T10:35:35.865Z</time></trkpt><trkpt lat="42.5350517" lon="-7.40105"><ele>415.0</ele><time>2026-04-15T10:35:36.864Z</time></trkpt><trkpt lat="42.5349683" lon="-7.4009417"><ele>414.0</ele><time>2026-04-15T10:35:37.865Z</time></trkpt><trkpt lat="42.5348867" lon="-7.4008367"><ele>414.0</ele><time>2026-04-15T10:35:38.865Z</time></trkpt><trkpt lat="42.534815" lon="-7.4007383"><ele>414.0</ele><time>2026-04-15T10:35:39.865Z</time></trkpt><trkpt lat="42.5347633" lon="-7.400655"><ele>414.0</ele><time>2026-04-15T10:35:40.865Z</time></trkpt><trkpt lat="42.5347167" lon="-7.4005517"><ele>414.0</ele><time>2026-04-15T10:35:42.865Z</time></trkpt><trkpt lat="42.534775" lon="-7.4004567"><ele>414.0</ele><time>2026-04-15T10:35:44.865Z</time></trkpt><trkpt lat="42.5348383" lon="-7.4004033"><ele>414.0</ele><time>2026-04-15T10:35:45.865Z</time></trkpt><trkpt lat="42.5349333" lon="-7.400355"><ele>412.5</ele><time>2026-04-15T10:35:46.864Z</time></trkpt><trkpt lat="42.5350483" lon="-7.4002917"><ele>411.0</ele><time>2026-04-15T10:35:47.865Z</time></trkpt><trkpt lat="42.5351667" lon="-7.400215"><ele>409.5</ele><time>2026-04-15T10:35:48.864Z</time></trkpt><trkpt lat="42.53528" lon="-7.400135"><ele>408.0</ele><time>2026-04-15T10:35:49.864Z</time></trkpt><trkpt lat="42.5353817" lon="-7.4000617"><ele>407.0</ele><time>2026-04-15T10:35:50.865Z</time></trkpt><trkpt lat="42.5354817" lon="-7.4000067"><ele>406.0</ele><time>2026-04-15T10:35:51.865Z</time></trkpt><trkpt lat="42.5355833" lon="-7.3999467"><ele>405.0</ele><time>2026-04-15T10:35:52.864Z</time></trkpt><trkpt lat="42.53568" lon="-7.39987"><ele>404.0</ele><time>2026-04-15T10:35:53.865Z</time></trkpt><trkpt lat="42.535795" lon="-7.3997917"><ele>404.0</ele><time>2026-04-15T10:35:54.864Z</time></trkpt><trkpt lat="42.5359183" lon="-7.399705"><ele>404.0</ele><time>2026-04-15T10:35:55.864Z</time></trkpt><trkpt lat="42.53605" lon="-7.3996117"><ele>404.0</ele><time>2026-04-15T10:35:56.865Z</time></trkpt><trkpt lat="42.536195" lon="-7.3995117"><ele>402.0</ele><time>2026-04-15T10:35:57.865Z</time></trkpt><trkpt lat="42.5363417" lon="-7.39941"><ele>400.0</ele><time>2026-04-15T10:35:58.865Z</time></trkpt><trkpt lat="42.5364983" lon="-7.3993133"><ele>398.0</ele><time>2026-04-15T10:35:59.865Z</time></trkpt><trkpt lat="42.5366567" lon="-7.3991983"><ele>398.0</ele><time>2026-04-15T10:36:00.865Z</time></trkpt><trkpt lat="42.53682" lon="-7.3990933"><ele>398.0</ele><time>2026-04-15T10:36:01.864Z</time></trkpt><trkpt lat="42.5369817" lon="-7.39899"><ele>398.0</ele><time>2026-04-15T10:36:02.864Z</time></trkpt><trkpt lat="42.537135" lon="-7.3988883"><ele>397.66666666666663</ele><time>2026-04-15T10:36:03.865Z</time></trkpt><trkpt lat="42.53728" lon="-7.398785"><ele>397.33333333333337</ele><time>2026-04-15T10:36:04.865Z</time></trkpt><trkpt lat="42.537425" lon="-7.3986733"><ele>397.0</ele><time>2026-04-15T10:36:05.864Z</time></trkpt><trkpt lat="42.53758" lon="-7.3985733"><ele>397.0</ele><time>2026-04-15T10:36:06.864Z</time></trkpt><trkpt lat="42.5377267" lon="-7.398475"><ele>397.0</ele><time>2026-04-15T10:36:07.864Z</time></trkpt><trkpt lat="42.53787" lon="-7.398365"><ele>397.0</ele><time>2026-04-15T10:36:08.864Z</time></trkpt><trkpt lat="42.5380217" lon="-7.3982683"><ele>396.75</ele><time>2026-04-15T10:36:09.864Z</time></trkpt><trkpt lat="42.53815" lon="-7.398175"><ele>396.5</ele><time>2026-04-15T10:36:10.865Z</time></trkpt><trkpt lat="42.5382633" lon="-7.3981033"><ele>396.25</ele><time>2026-04-15T10:36:11.865Z</time></trkpt><trkpt lat="42.5383633" lon="-7.398045"><ele>396.0</ele><time>2026-04-15T10:36:12.865Z</time></trkpt><trkpt lat="42.5384267" lon="-7.3980017"><ele>396.4</ele><time>2026-04-15T10:36:13.865Z</time></trkpt><trkpt lat="42.5384817" lon="-7.39796"><ele>396.8</ele><time>2026-04-15T10:36:15.864Z</time></trkpt><trkpt lat="42.5385817" lon="-7.397885"><ele>397.2</ele><time>2026-04-15T10:36:17.864Z</time></trkpt><trkpt lat="42.538665" lon="-7.3978317"><ele>397.59999999999997</ele><time>2026-04-15T10:36:18.864Z</time></trkpt><trkpt lat="42.5387767" lon="-7.397765"><ele>398.0</ele><time>2026-04-15T10:36:19.864Z</time></trkpt><trkpt lat="42.5389117" lon="-7.3976883"><ele>398.3333333333333</ele><time>2026-04-15T10:36:20.864Z</time></trkpt><trkpt lat="42.5390683" lon="-7.3975833"><ele>398.66666666666663</ele><time>2026-04-15T10:36:21.864Z</time></trkpt><trkpt lat="42.5392433" lon="-7.3974517"><ele>399.0</ele><time>2026-04-15T10:36:22.865Z</time></trkpt><trkpt lat="42.5394417" lon="-7.3973267"><ele>399.0</ele><time>2026-04-15T10:36:23.864Z</time></trkpt><trkpt lat="42.539655" lon="-7.3971967"><ele>399.0</ele><time>2026-04-15T10:36:24.865Z</time></trkpt><trkpt lat="42.5398717" lon="-7.3970483"><ele>400.5</ele><time>2026-04-15T10:36:25.865Z</time></trkpt><trkpt lat="42.5400867" lon="-7.39689"><ele>402.0</ele><time>2026-04-15T10:36:26.864Z</time></trkpt><trkpt lat="42.54031" lon="-7.3967667"><ele>403.0</ele><time>2026-04-15T10:36:27.864Z</time></trkpt><trkpt lat="42.54055" lon="-7.396655"><ele>404.0</ele><time>2026-04-15T10:36:28.864Z</time></trkpt><trkpt lat="42.5408033" lon="-7.3965683"><ele>404.0</ele><time>2026-04-15T10:36:29.865Z</time></trkpt><trkpt lat="42.5410583" lon="-7.3965133"><ele>404.0</ele><time>2026-04-15T10:36:30.865Z</time></trkpt><trkpt lat="42.54132" lon="-7.3964583"><ele>403.0</ele><time>2026-04-15T10:36:31.864Z</time></trkpt><trkpt lat="42.541595" lon="-7.3963917"><ele>402.0</ele><time>2026-04-15T10:36:32.864Z</time></trkpt><trkpt lat="42.541885" lon="-7.3963267"><ele>405.0</ele><time>2026-04-15T10:36:33.864Z</time></trkpt><trkpt lat="42.5421667" lon="-7.396255"><ele>408.0</ele><time>2026-04-15T10:36:34.864Z</time></trkpt><trkpt lat="42.5424183" lon="-7.3961883"><ele>408.0</ele><time>2026-04-15T10:36:35.864Z</time></trkpt><trkpt lat="42.5426567" lon="-7.39614"><ele>408.0</ele><time>2026-04-15T10:36:36.864Z</time></trkpt><trkpt lat="42.542895" lon="-7.39609"><ele>408.0</ele><time>2026-04-15T10:36:37.864Z</time></trkpt><trkpt lat="42.5431183" lon="-7.3960333"><ele>408.0</ele><time>2026-04-15T10:36:38.864Z</time></trkpt><trkpt lat="42.5433483" lon="-7.3959733"><ele>408.0</ele><time>2026-04-15T10:36:39.865Z</time></trkpt><trkpt lat="42.5435867" lon="-7.3959233"><ele>408.0</ele><time>2026-04-15T10:36:40.864Z</time></trkpt><trkpt lat="42.5438333" lon="-7.39587"><ele>406.5</ele><time>2026-04-15T10:36:41.864Z</time></trkpt><trkpt lat="42.544075" lon="-7.3958083"><ele>405.0</ele><time>2026-04-15T10:36:42.865Z</time></trkpt><trkpt lat="42.5443283" lon="-7.3957467"><ele>403.5</ele><time>2026-04-15T10:36:43.865Z</time></trkpt><trkpt lat="42.544585" lon="-7.395685"><ele>402.0</ele><time>2026-04-15T10:36:44.864Z</time></trkpt><trkpt lat="42.5448333" lon="-7.3956167"><ele>402.0</ele><time>2026-04-15T10:36:45.865Z</time></trkpt><trkpt lat="42.5450867" lon="-7.3955483"><ele>402.0</ele><time>2026-04-15T10:36:46.864Z</time></trkpt><trkpt lat="42.5453317" lon="-7.395495"><ele>401.0</ele><time>2026-04-15T10:36:47.864Z</time></trkpt><trkpt lat="42.5455717" lon="-7.395445"><ele>400.0</ele><time>2026-04-15T10:36:48.864Z</time></trkpt><trkpt lat="42.5458" lon="-7.39539"><ele>400.0</ele><time>2026-04-15T10:36:49.865Z</time></trkpt><trkpt lat="42.54604" lon="-7.395335"><ele>400.0</ele><time>2026-04-15T10:36:50.865Z</time></trkpt><trkpt lat="42.5462733" lon="-7.3952767"><ele>400.5</ele><time>2026-04-15T10:36:51.865Z</time></trkpt><trkpt lat="42.546495" lon="-7.3952183"><ele>401.0</ele><time>2026-04-15T10:36:52.865Z</time></trkpt><trkpt lat="42.546725" lon="-7.3951667"><ele>401.0</ele><time>2026-04-15T10:36:53.864Z</time></trkpt><trkpt lat="42.5469483" lon="-7.3951083"><ele>401.0</ele><time>2026-04-15T10:36:54.864Z</time></trkpt><trkpt lat="42.5471783" lon="-7.39505"><ele>402.0</ele><time>2026-04-15T10:36:55.865Z</time></trkpt><trkpt lat="42.5474" lon="-7.395005"><ele>403.0</ele><time>2026-04-15T10:36:56.865Z</time></trkpt><trkpt lat="42.5476167" lon="-7.3949617"><ele>404.0</ele><time>2026-04-15T10:36:57.864Z</time></trkpt><trkpt lat="42.5478367" lon="-7.39491"><ele>404.0</ele><time>2026-04-15T10:36:58.864Z</time></trkpt><trkpt lat="42.54806" lon="-7.3948533"><ele>404.0</ele><time>2026-04-15T10:36:59.864Z</time></trkpt><trkpt lat="42.5482867" lon="-7.394805"><ele>404.0</ele><time>2026-04-15T10:37:00.864Z</time></trkpt><trkpt lat="42.548505" lon="-7.3947533"><ele>404.0</ele><time>2026-04-15T10:37:01.864Z</time></trkpt><trkpt lat="42.5487167" lon="-7.3947067"><ele>404.0</ele><time>2026-04-15T10:37:02.864Z</time></trkpt><trkpt lat="42.5489133" lon="-7.39466"><ele>404.66666666666663</ele><time>2026-04-15T10:37:03.864Z</time></trkpt><trkpt lat="42.5490833" lon="-7.3946067"><ele>405.33333333333337</ele><time>2026-04-15T10:37:04.865Z</time></trkpt><trkpt lat="42.549255" lon="-7.3945667"><ele>406.0</ele><time>2026-04-15T10:37:05.864Z</time></trkpt><trkpt lat="42.549435" lon="-7.3945283"><ele>405.6666666666667</ele><time>2026-04-15T10:37:06.865Z</time></trkpt><trkpt lat="42.549625" lon="-7.3944933"><ele>405.33333333333337</ele><time>2026-04-15T10:37:07.865Z</time></trkpt><trkpt lat="42.549825" lon="-7.3944283"><ele>405.0</ele><time>2026-04-15T10:37:08.865Z</time></trkpt><trkpt lat="42.5500317" lon="-7.394375"><ele>405.0</ele><time>2026-04-15T10:37:09.864Z</time></trkpt><trkpt lat="42.55025" lon="-7.394325"><ele>405.0</ele><time>2026-04-15T10:37:10.865Z</time></trkpt><trkpt lat="42.5504667" lon="-7.3942717"><ele>405.0</ele><time>2026-04-15T10:37:11.864Z</time></trkpt><trkpt lat="42.5506767" lon="-7.394235"><ele>404.33333333333337</ele><time>2026-04-15T10:37:12.865Z</time></trkpt><trkpt lat="42.550875" lon="-7.3941867"><ele>403.6666666666667</ele><time>2026-04-15T10:37:13.865Z</time></trkpt><trkpt lat="42.5510633" lon="-7.3941283"><ele>403.0</ele><time>2026-04-15T10:37:14.865Z</time></trkpt><trkpt lat="42.551245" lon="-7.3940667"><ele>403.6666666666667</ele><time>2026-04-15T10:37:15.864Z</time></trkpt><trkpt lat="42.5514317" lon="-7.3939883"><ele>404.33333333333337</ele><time>2026-04-15T10:37:16.864Z</time></trkpt><trkpt lat="42.5516217" lon="-7.3939067"><ele>405.0</ele><time>2026-04-15T10:37:17.865Z</time></trkpt><trkpt lat="42.5518217" lon="-7.39382"><ele>405.0</ele><time>2026-04-15T10:37:18.864Z</time></trkpt><trkpt lat="42.5520333" lon="-7.3937167"><ele>405.0</ele><time>2026-04-15T10:37:19.864Z</time></trkpt><trkpt lat="42.5522533" lon="-7.393605"><ele>400.0</ele><time>2026-04-15T10:37:20.865Z</time></trkpt><trkpt lat="42.5524717" lon="-7.3935017"><ele>395.0</ele><time>2026-04-15T10:37:21.864Z</time></trkpt><trkpt lat="42.552695" lon="-7.3934067"><ele>391.5</ele><time>2026-04-15T10:37:22.864Z</time></trkpt><trkpt lat="42.5529183" lon="-7.3932967"><ele>388.0</ele><time>2026-04-15T10:37:23.865Z</time></trkpt><trkpt lat="42.5531283" lon="-7.393195"><ele>388.0</ele><time>2026-04-15T10:37:24.864Z</time></trkpt><trkpt lat="42.5533233" lon="-7.3930983"><ele>388.0</ele><time>2026-04-15T10:37:25.865Z</time></trkpt><trkpt lat="42.553525" lon="-7.3929983"><ele>388.0</ele><time>2026-04-15T10:37:26.864Z</time></trkpt><trkpt lat="42.5537117" lon="-7.3929033"><ele>387.6666666666667</ele><time>2026-04-15T10:37:27.864Z</time></trkpt><trkpt lat="42.5538917" lon="-7.3928133"><ele>387.33333333333337</ele><time>2026-04-15T10:37:28.864Z</time></trkpt><trkpt lat="42.554055" lon="-7.3927333"><ele>387.0</ele><time>2026-04-15T10:37:29.864Z</time></trkpt><trkpt lat="42.5542" lon="-7.39266"><ele>387.0</ele><time>2026-04-15T10:37:30.864Z</time></trkpt><trkpt lat="42.554325" lon="-7.39258"><ele>387.0</ele><time>2026-04-15T10:37:31.865Z</time></trkpt><trkpt lat="42.5544417" lon="-7.392535"><ele>387.0</ele><time>2026-04-15T10:37:32.865Z</time></trkpt><trkpt lat="42.554555" lon="-7.392525"><ele>387.0</ele><time>2026-04-15T10:37:33.865Z</time></trkpt><trkpt lat="42.55467" lon="-7.3925433"><ele>386.75</ele><time>2026-04-15T10:37:34.865Z</time></trkpt><trkpt lat="42.554785" lon="-7.392595"><ele>386.5</ele><time>2026-04-15T10:37:35.865Z</time></trkpt><trkpt lat="42.5549133" lon="-7.392675"><ele>386.25</ele><time>2026-04-15T10:37:36.865Z</time></trkpt><trkpt lat="42.5550367" lon="-7.392755"><ele>386.0</ele><time>2026-04-15T10:37:37.864Z</time></trkpt><trkpt lat="42.5551667" lon="-7.3928517"><ele>386.0</ele><time>2026-04-15T10:37:38.864Z</time></trkpt><trkpt lat="42.5553067" lon="-7.3929367"><ele>386.0</ele><time>2026-04-15T10:37:39.864Z</time></trkpt><trkpt lat="42.5554467" lon="-7.392995"><ele>386.0</ele><time>2026-04-15T10:37:40.864Z</time></trkpt><trkpt lat="42.55557" lon="-7.3930267"><ele>386.0</ele><time>2026-04-15T10:37:41.864Z</time></trkpt><trkpt lat="42.5556967" lon="-7.3930417"><ele>385.5</ele><time>2026-04-15T10:37:42.864Z</time></trkpt><trkpt lat="42.55582" lon="-7.393055"><ele>385.0</ele><time>2026-04-15T10:37:43.864Z</time></trkpt><trkpt lat="42.5559467" lon="-7.39308"><ele>384.5</ele><time>2026-04-15T10:37:44.865Z</time></trkpt><trkpt lat="42.5560717" lon="-7.3931067"><ele>384.0</ele><time>2026-04-15T10:37:45.865Z</time></trkpt><trkpt lat="42.5561917" lon="-7.3931283"><ele>384.0</ele><time>2026-04-15T10:37:46.864Z</time></trkpt><trkpt lat="42.5563017" lon="-7.3931667"><ele>384.0</ele><time>2026-04-15T10:37:47.864Z</time></trkpt><trkpt lat="42.5564183" lon="-7.393195"><ele>384.0</ele><time>2026-04-15T10:37:48.864Z</time></trkpt><trkpt lat="42.5565367" lon="-7.3932283"><ele>384.0</ele><time>2026-04-15T10:37:49.864Z</time></trkpt><trkpt lat="42.5566567" lon="-7.3932633"><ele>384.0</ele><time>2026-04-15T10:37:50.864Z</time></trkpt><trkpt lat="42.5567883" lon="-7.3932667"><ele>384.0</ele><time>2026-04-15T10:37:51.864Z</time></trkpt><trkpt lat="42.5569133" lon="-7.3932883"><ele>384.0</ele><time>2026-04-15T10:37:52.864Z</time></trkpt><trkpt lat="42.5570367" lon="-7.39331"><ele>384.0</ele><time>2026-04-15T10:37:53.865Z</time></trkpt><trkpt lat="42.5571567" lon="-7.3933283"><ele>384.25</ele><time>2026-04-15T10:37:54.865Z</time></trkpt><trkpt lat="42.557275" lon="-7.3933517"><ele>384.5</ele><time>2026-04-15T10:37:55.864Z</time></trkpt><trkpt lat="42.557385" lon="-7.3933733"><ele>384.75</ele><time>2026-04-15T10:37:56.865Z</time></trkpt><trkpt lat="42.5575117" lon="-7.393415"><ele>385.0</ele><time>2026-04-15T10:37:57.865Z</time></trkpt><trkpt lat="42.557645" lon="-7.3934583"><ele>385.0</ele><time>2026-04-15T10:37:58.865Z</time></trkpt><trkpt lat="42.5577917" lon="-7.3935083"><ele>385.0</ele><time>2026-04-15T10:37:59.864Z</time></trkpt><trkpt lat="42.5579533" lon="-7.39356"><ele>385.0</ele><time>2026-04-15T10:38:00.864Z</time></trkpt><trkpt lat="42.55812" lon="-7.3936333"><ele>385.33333333333337</ele><time>2026-04-15T10:38:01.864Z</time></trkpt><trkpt lat="42.5582717" lon="-7.3936783"><ele>385.66666666666663</ele><time>2026-04-15T10:38:02.864Z</time></trkpt><trkpt lat="42.5584333" lon="-7.3937333"><ele>386.0</ele><time>2026-04-15T10:38:03.865Z</time></trkpt><trkpt lat="42.5585867" lon="-7.3937817"><ele>386.3333333333333</ele><time>2026-04-15T10:38:04.865Z</time></trkpt><trkpt lat="42.558755" lon="-7.3938433"><ele>386.66666666666663</ele><time>2026-04-15T10:38:05.865Z</time></trkpt><trkpt lat="42.558915" lon="-7.3939033"><ele>387.0</ele><time>2026-04-15T10:38:06.864Z</time></trkpt><trkpt lat="42.5590733" lon="-7.3939533"><ele>387.0</ele><time>2026-04-15T10:38:07.865Z</time></trkpt><trkpt lat="42.5592117" lon="-7.3940017"><ele>387.0</ele><time>2026-04-15T10:38:08.865Z</time></trkpt><trkpt lat="42.5593383" lon="-7.3940383"><ele>387.0</ele><time>2026-04-15T10:38:09.864Z</time></trkpt><trkpt lat="42.55947" lon="-7.3940883"><ele>387.0</ele><time>2026-04-15T10:38:10.865Z</time></trkpt><trkpt lat="42.5596033" lon="-7.394135"><ele>387.66666666666663</ele><time>2026-04-15T10:38:11.865Z</time></trkpt><trkpt lat="42.5597483" lon="-7.3941867"><ele>388.3333333333333</ele><time>2026-04-15T10:38:12.865Z</time></trkpt><trkpt lat="42.55991" lon="-7.3942433"><ele>389.0</ele><time>2026-04-15T10:38:13.865Z</time></trkpt><trkpt lat="42.5600617" lon="-7.394295"><ele>389.0</ele><time>2026-04-15T10:38:14.864Z</time></trkpt><trkpt lat="42.5601933" lon="-7.3943483"><ele>389.0</ele><time>2026-04-15T10:38:15.864Z</time></trkpt><trkpt lat="42.5603233" lon="-7.3944033"><ele>389.0</ele><time>2026-04-15T10:38:16.864Z</time></trkpt><trkpt lat="42.5604483" lon="-7.394445"><ele>389.0</ele><time>2026-04-15T10:38:17.864Z</time></trkpt><trkpt lat="42.560565" lon="-7.3944917"><ele>389.0</ele><time>2026-04-15T10:38:18.865Z</time></trkpt><trkpt lat="42.5606683" lon="-7.3945283"><ele>389.0</ele><time>2026-04-15T10:38:19.864Z</time></trkpt><trkpt lat="42.5607617" lon="-7.3945417"><ele>389.0</ele><time>2026-04-15T10:38:20.864Z</time></trkpt><trkpt lat="42.5608517" lon="-7.3944967"><ele>389.0</ele><time>2026-04-15T10:38:21.865Z</time></trkpt><trkpt lat="42.5609383" lon="-7.3944217"><ele>389.0</ele><time>2026-04-15T10:38:22.864Z</time></trkpt><trkpt lat="42.5610333" lon="-7.3943183"><ele>389.0</ele><time>2026-04-15T10:38:23.865Z</time></trkpt><trkpt lat="42.5611433" lon="-7.394215"><ele>389.0</ele><time>2026-04-15T10:38:24.865Z</time></trkpt><trkpt lat="42.5612733" lon="-7.394095"><ele>389.0</ele><time>2026-04-15T10:38:25.864Z</time></trkpt><trkpt lat="42.5614083" lon="-7.3939617"><ele>390.0</ele><time>2026-04-15T10:38:26.865Z</time></trkpt><trkpt lat="42.5615467" lon="-7.393825"><ele>391.0</ele><time>2026-04-15T10:38:27.864Z</time></trkpt><trkpt lat="42.561685" lon="-7.3937017"><ele>392.0</ele><time>2026-04-15T10:38:28.865Z</time></trkpt><trkpt lat="42.5618467" lon="-7.393545"><ele>392.0</ele><time>2026-04-15T10:38:29.864Z</time></trkpt><trkpt lat="42.5620083" lon="-7.3933867"><ele>392.0</ele><time>2026-04-15T10:38:30.865Z</time></trkpt><trkpt lat="42.5621767" lon="-7.3932333"><ele>392.0</ele><time>2026-04-15T10:38:31.865Z</time></trkpt><trkpt lat="42.5623467" lon="-7.3930683"><ele>392.3333333333333</ele><time>2026-04-15T10:38:32.864Z</time></trkpt><trkpt lat="42.5625217" lon="-7.3929017"><ele>392.66666666666663</ele><time>2026-04-15T10:38:33.864Z</time></trkpt><trkpt lat="42.56269" lon="-7.39274"><ele>393.0</ele><time>2026-04-15T10:38:34.864Z</time></trkpt><trkpt lat="42.5628583" lon="-7.39259"><ele>393.33333333333337</ele><time>2026-04-15T10:38:35.864Z</time></trkpt><trkpt lat="42.5630233" lon="-7.3924317"><ele>393.6666666666667</ele><time>2026-04-15T10:38:36.864Z</time></trkpt><trkpt lat="42.563185" lon="-7.3922817"><ele>394.0</ele><time>2026-04-15T10:38:37.865Z</time></trkpt><trkpt lat="42.5633483" lon="-7.392135"><ele>394.33333333333337</ele><time>2026-04-15T10:38:38.864Z</time></trkpt><trkpt lat="42.5635133" lon="-7.3919833"><ele>394.66666666666663</ele><time>2026-04-15T10:38:39.864Z</time></trkpt><trkpt lat="42.5636783" lon="-7.3918317"><ele>395.0</ele><time>2026-04-15T10:38:40.864Z</time></trkpt><trkpt lat="42.5638467" lon="-7.3916767"><ele>395.3333333333333</ele><time>2026-04-15T10:38:41.865Z</time></trkpt><trkpt lat="42.5640217" lon="-7.3915283"><ele>395.66666666666663</ele><time>2026-04-15T10:38:42.864Z</time></trkpt><trkpt lat="42.5641933" lon="-7.391385"><ele>396.0</ele><time>2026-04-15T10:38:43.865Z</time></trkpt><trkpt lat="42.5643617" lon="-7.3912417"><ele>396.66666666666663</ele><time>2026-04-15T10:38:44.865Z</time></trkpt><trkpt lat="42.564535" lon="-7.3911183"><ele>397.3333333333333</ele><time>2026-04-15T10:38:45.864Z</time></trkpt><trkpt lat="42.5647017" lon="-7.391"><ele>398.0</ele><time>2026-04-15T10:38:46.865Z</time></trkpt><trkpt lat="42.56485" lon="-7.3908817"><ele>398.0</ele><time>2026-04-15T10:38:47.865Z</time></trkpt><trkpt lat="42.5649917" lon="-7.3907867"><ele>398.0</ele><time>2026-04-15T10:38:48.864Z</time></trkpt><trkpt lat="42.5651333" lon="-7.3907033"><ele>398.0</ele><time>2026-04-15T10:38:49.864Z</time></trkpt><trkpt lat="42.565285" lon="-7.390655"><ele>398.66666666666663</ele><time>2026-04-15T10:38:50.865Z</time></trkpt><trkpt lat="42.5654317" lon="-7.3906083"><ele>399.33333333333337</ele><time>2026-04-15T10:38:51.864Z</time></trkpt><trkpt lat="42.5655867" lon="-7.3905567"><ele>400.0</ele><time>2026-04-15T10:38:52.864Z</time></trkpt><trkpt lat="42.56571" lon="-7.39046"><ele>400.0</ele><time>2026-04-15T10:38:53.864Z</time></trkpt><trkpt lat="42.56584" lon="-7.3903283"><ele>400.0</ele><time>2026-04-15T10:38:54.864Z</time></trkpt><trkpt lat="42.56597" lon="-7.3901917"><ele>400.0</ele><time>2026-04-15T10:38:55.864Z</time></trkpt><trkpt lat="42.5661033" lon="-7.3900667"><ele>400.33333333333337</ele><time>2026-04-15T10:38:56.864Z</time></trkpt><trkpt lat="42.56626" lon="-7.3899817"><ele>400.66666666666663</ele><time>2026-04-15T10:38:57.864Z</time></trkpt><trkpt lat="42.56643" lon="-7.3899233"><ele>401.0</ele><time>2026-04-15T10:38:58.864Z</time></trkpt><trkpt lat="42.56661" lon="-7.3899017"><ele>401.0</ele><time>2026-04-15T10:38:59.865Z</time></trkpt><trkpt lat="42.5668017" lon="-7.3898717"><ele>401.0</ele><time>2026-04-15T10:39:00.864Z</time></trkpt><trkpt lat="42.566995" lon="-7.3898433"><ele>401.0</ele><time>2026-04-15T10:39:01.865Z</time></trkpt><trkpt lat="42.5671883" lon="-7.3898183"><ele>401.66666666666663</ele><time>2026-04-15T10:39:02.864Z</time></trkpt><trkpt lat="42.5673833" lon="-7.38977"><ele>402.33333333333337</ele><time>2026-04-15T10:39:03.864Z</time></trkpt><trkpt lat="42.567565" lon="-7.3897433"><ele>403.0</ele><time>2026-04-15T10:39:04.864Z</time></trkpt><trkpt lat="42.5677133" lon="-7.3897283"><ele>403.00000000000006</ele><time>2026-04-15T10:39:05.865Z</time></trkpt><trkpt lat="42.5678167" lon="-7.389715"><ele>403.0</ele><time>2026-04-15T10:39:06.864Z</time></trkpt><trkpt lat="42.5678833" lon="-7.3897117"><ele>403.0</ele><time>2026-04-15T10:39:07.864Z</time></trkpt><trkpt lat="42.5679483" lon="-7.3897117"><ele>403.0</ele><time>2026-04-15T10:39:10.864Z</time></trkpt><trkpt lat="42.56788" lon="-7.3897567"><ele>403.00000000000006</ele><time>2026-04-15T10:39:15.864Z</time></trkpt><trkpt lat="42.567815" lon="-7.3897583"><ele>403.0</ele><time>2026-04-15T10:39:16.864Z</time></trkpt><trkpt lat="42.5677267" lon="-7.38977"><ele>403.0</ele><time>2026-04-15T10:39:17.864Z</time></trkpt><trkpt lat="42.5676133" lon="-7.3898"><ele>403.0</ele><time>2026-04-15T10:39:18.865Z</time></trkpt><trkpt lat="42.5674683" lon="-7.38982"><ele>403.0</ele><time>2026-04-15T10:39:19.864Z</time></trkpt><trkpt lat="42.5672983" lon="-7.3898483"><ele>403.0</ele><time>2026-04-15T10:39:20.864Z</time></trkpt><trkpt lat="42.5671217" lon="-7.3898683"><ele>402.33333333333337</ele><time>2026-04-15T10:39:21.864Z</time></trkpt><trkpt lat="42.5669417" lon="-7.3899067"><ele>401.66666666666663</ele><time>2026-04-15T10:39:22.865Z</time></trkpt><trkpt lat="42.5667767" lon="-7.3899217"><ele>401.0</ele><time>2026-04-15T10:39:23.865Z</time></trkpt><trkpt lat="42.566625" lon="-7.389945"><ele>401.0</ele><time>2026-04-15T10:39:24.864Z</time></trkpt><trkpt lat="42.5664833" lon="-7.389965"><ele>401.0</ele><time>2026-04-15T10:39:25.864Z</time></trkpt><trkpt lat="42.5663583" lon="-7.389995"><ele>401.0</ele><time>2026-04-15T10:39:26.865Z</time></trkpt><trkpt lat="42.566245" lon="-7.3900217"><ele>401.0</ele><time>2026-04-15T10:39:27.864Z</time></trkpt><trkpt lat="42.5661483" lon="-7.390075"><ele>400.8571428571429</ele><time>2026-04-15T10:39:28.864Z</time></trkpt><trkpt lat="42.56609" lon="-7.3901167"><ele>400.7142857142857</ele><time>2026-04-15T10:39:29.865Z</time></trkpt><trkpt lat="42.56602" lon="-7.39016"><ele>400.57142857142856</ele><time>2026-04-15T10:39:31.865Z</time></trkpt><trkpt lat="42.5659833" lon="-7.3900733"><ele>400.42857142857144</ele><time>2026-04-15T10:39:36.865Z</time></trkpt><trkpt lat="42.565965" lon="-7.3899617"><ele>400.2857142857143</ele><time>2026-04-15T10:39:38.864Z</time></trkpt><trkpt lat="42.5659367" lon="-7.38988"><ele>400.14285714285717</ele><time>2026-04-15T10:39:39.865Z</time></trkpt><trkpt lat="42.5659067" lon="-7.3898033"><ele>400.0</ele><time>2026-04-15T10:39:40.866Z</time></trkpt><trkpt lat="42.5658833" lon="-7.3897217"><ele>400.00000000000006</ele><time>2026-04-15T10:39:41.866Z</time></trkpt><trkpt lat="42.5658483" lon="-7.38959"><ele>400.0</ele><time>2026-04-15T10:39:43.866Z</time></trkpt><trkpt lat="42.565825" lon="-7.389495"><ele>400.0</ele><time>2026-04-15T10:39:46.866Z</time></trkpt><trkpt lat="42.56586" lon="-7.389575"><ele>400.0</ele><time>2026-04-15T10:39:50.865Z</time></trkpt><trkpt lat="42.56589" lon="-7.3897383"><ele>400.00000000000006</ele><time>2026-04-15T10:39:52.865Z</time></trkpt><trkpt lat="42.5659267" lon="-7.389835"><ele>400.0</ele><time>2026-04-15T10:39:53.866Z</time></trkpt><trkpt lat="42.5659733" lon="-7.389935"><ele>400.00000000000006</ele><time>2026-04-15T10:39:54.865Z</time></trkpt><trkpt lat="42.566005" lon="-7.3900133"><ele>400.0</ele><time>2026-04-15T10:39:55.865Z</time></trkpt><trkpt lat="42.56601" lon="-7.3901317"><ele>400.0</ele><time>2026-04-15T10:39:57.865Z</time></trkpt><trkpt lat="42.565935" lon="-7.39023"><ele>400.0</ele><time>2026-04-15T10:39:59.866Z</time></trkpt><trkpt lat="42.5658717" lon="-7.3902817"><ele>400.00000000000006</ele><time>2026-04-15T10:40:01.865Z</time></trkpt><trkpt lat="42.5657767" lon="-7.3902117"><ele>400.0</ele><time>2026-04-15T10:40:09.865Z</time></trkpt><trkpt lat="42.5656733" lon="-7.390145"><ele>400.00000000000006</ele><time>2026-04-15T10:40:11.866Z</time></trkpt><trkpt lat="42.5656133" lon="-7.390105"><ele>400.0</ele><time>2026-04-15T10:40:12.866Z</time></trkpt><trkpt lat="42.5655517" lon="-7.390055"><ele>400.0</ele><time>2026-04-15T10:40:13.865Z</time></trkpt><trkpt lat="42.565495" lon="-7.3900133"><ele>400.0</ele><time>2026-04-15T10:40:14.866Z</time></trkpt><trkpt lat="42.5654183" lon="-7.389945"><ele>400.00000000000006</ele><time>2026-04-15T10:40:16.866Z</time></trkpt><trkpt lat="42.5653333" lon="-7.3899017"><ele>400.0</ele><time>2026-04-15T10:40:21.865Z</time></trkpt><trkpt lat="42.5652767" lon="-7.3898517"><ele>399.5</ele><time>2026-04-15T10:41:34.865Z</time></trkpt><trkpt lat="42.5652233" lon="-7.3898033"><ele>399.0</ele><time>2026-04-15T10:41:37.866Z</time></trkpt><trkpt lat="42.5651067" lon="-7.3897033"><ele>398.5</ele><time>2026-04-15T10:42:17.865Z</time></trkpt><trkpt lat="42.56499" lon="-7.3895967"><ele>398.0</ele><time>2026-04-15T10:42:18.866Z</time></trkpt><trkpt lat="42.5648867" lon="-7.38947"><ele>397.8333333333333</ele><time>2026-04-15T10:42:19.865Z</time></trkpt><trkpt lat="42.5647933" lon="-7.38937"><ele>397.66666666666663</ele><time>2026-04-15T10:42:20.866Z</time></trkpt><trkpt lat="42.564715" lon="-7.3893133"><ele>397.5</ele><time>2026-04-15T10:42:21.866Z</time></trkpt><trkpt lat="42.56465" lon="-7.3892583"><ele>397.33333333333337</ele><time>2026-04-15T10:42:22.866Z</time></trkpt><trkpt lat="42.5645883" lon="-7.38918"><ele>397.1666666666667</ele><time>2026-04-15T10:42:23.866Z</time></trkpt><trkpt lat="42.564535" lon="-7.389125"><ele>397.0</ele><time>2026-04-15T10:42:24.865Z</time></trkpt><trkpt lat="42.5644817" lon="-7.3890383"><ele>397.0</ele><time>2026-04-15T10:42:26.865Z</time></trkpt><trkpt lat="42.564475" lon="-7.3888933"><ele>397.0</ele><time>2026-04-15T10:42:28.865Z</time></trkpt><trkpt lat="42.564475" lon="-7.3887917"><ele>397.0</ele><time>2026-04-15T10:42:29.866Z</time></trkpt><trkpt lat="42.564495" lon="-7.3886617"><ele>397.0</ele><time>2026-04-15T10:42:30.866Z</time></trkpt><trkpt lat="42.564545" lon="-7.3885317"><ele>397.0</ele><time>2026-04-15T10:42:31.865Z</time></trkpt><trkpt lat="42.5646217" lon="-7.3883967"><ele>397.6</ele><time>2026-04-15T10:42:32.865Z</time></trkpt><trkpt lat="42.5646933" lon="-7.388265"><ele>398.20000000000005</ele><time>2026-04-15T10:42:33.866Z</time></trkpt><trkpt lat="42.5647317" lon="-7.388135"><ele>398.8</ele><time>2026-04-15T10:42:34.865Z</time></trkpt><trkpt lat="42.564735" lon="-7.3879933"><ele>399.4</ele><time>2026-04-15T10:42:35.865Z</time></trkpt><trkpt lat="42.5647067" lon="-7.3878467"><ele>400.0</ele><time>2026-04-15T10:42:36.866Z</time></trkpt><trkpt lat="42.5646567" lon="-7.3876667"><ele>400.25</ele><time>2026-04-15T10:42:37.865Z</time></trkpt><trkpt lat="42.5646283" lon="-7.38749"><ele>400.5</ele><time>2026-04-15T10:42:38.866Z</time></trkpt><trkpt lat="42.5646333" lon="-7.3873283"><ele>400.75</ele><time>2026-04-15T10:42:39.866Z</time></trkpt><trkpt lat="42.5646733" lon="-7.3871583"><ele>401.0</ele><time>2026-04-15T10:42:40.865Z</time></trkpt><trkpt lat="42.5647333" lon="-7.3870217"><ele>402.0</ele><time>2026-04-15T10:42:41.865Z</time></trkpt><trkpt lat="42.5647833" lon="-7.3869083"><ele>403.0</ele><time>2026-04-15T10:42:42.865Z</time></trkpt><trkpt lat="42.5648317" lon="-7.3867633"><ele>404.0</ele><time>2026-04-15T10:42:43.866Z</time></trkpt><trkpt lat="42.56487" lon="-7.3866117"><ele>405.0</ele><time>2026-04-15T10:42:44.866Z</time></trkpt><trkpt lat="42.5649133" lon="-7.386475"><ele>406.0</ele><time>2026-04-15T10:42:45.866Z</time></trkpt><trkpt lat="42.5649633" lon="-7.3863333"><ele>408.25</ele><time>2026-04-15T10:42:46.865Z</time></trkpt><trkpt lat="42.5650217" lon="-7.3861867"><ele>410.5</ele><time>2026-04-15T10:42:47.865Z</time></trkpt><trkpt lat="42.5650817" lon="-7.38603"><ele>412.75</ele><time>2026-04-15T10:42:48.865Z</time></trkpt><trkpt lat="42.5651217" lon="-7.38586"><ele>415.0</ele><time>2026-04-15T10:42:49.866Z</time></trkpt><trkpt lat="42.56516" lon="-7.3857233"><ele>415.0</ele><time>2026-04-15T10:42:50.865Z</time></trkpt><trkpt lat="42.5652083" lon="-7.38558"><ele>415.0</ele><time>2026-04-15T10:42:51.866Z</time></trkpt><trkpt lat="42.5652567" lon="-7.385425"><ele>415.0</ele><time>2026-04-15T10:42:52.866Z</time></trkpt><trkpt lat="42.5653083" lon="-7.3852917"><ele>415.0</ele><time>2026-04-15T10:42:53.866Z</time></trkpt><trkpt lat="42.5653483" lon="-7.3851633"><ele>414.83333333333337</ele><time>2026-04-15T10:42:54.865Z</time></trkpt><trkpt lat="42.5653683" lon="-7.3850467"><ele>414.6666666666667</ele><time>2026-04-15T10:42:55.866Z</time></trkpt><trkpt lat="42.5653833" lon="-7.38493"><ele>414.5</ele><time>2026-04-15T10:42:56.866Z</time></trkpt><trkpt lat="42.5653967" lon="-7.38482"><ele>414.33333333333337</ele><time>2026-04-15T10:42:57.866Z</time></trkpt><trkpt lat="42.56543" lon="-7.384715"><ele>414.1666666666667</ele><time>2026-04-15T10:42:58.866Z</time></trkpt><trkpt lat="42.5654667" lon="-7.3845933"><ele>414.0</ele><time>2026-04-15T10:42:59.866Z</time></trkpt><trkpt lat="42.5655167" lon="-7.3844383"><ele>415.5</ele><time>2026-04-15T10:43:00.865Z</time></trkpt><trkpt lat="42.5655733" lon="-7.384275"><ele>417.0</ele><time>2026-04-15T10:43:01.866Z</time></trkpt><trkpt lat="42.5656383" lon="-7.3840933"><ele>418.5</ele><time>2026-04-15T10:43:02.865Z</time></trkpt><trkpt lat="42.5657117" lon="-7.3839283"><ele>420.0</ele><time>2026-04-15T10:43:03.866Z</time></trkpt><trkpt lat="42.5657867" lon="-7.383795"><ele>421.0</ele><time>2026-04-15T10:43:04.866Z</time></trkpt><trkpt lat="42.5658617" lon="-7.3837233"><ele>422.0</ele><time>2026-04-15T10:43:05.865Z</time></trkpt><trkpt lat="42.5659667" lon="-7.38369"><ele>423.0</ele><time>2026-04-15T10:43:07.866Z</time></trkpt><trkpt lat="42.56603" lon="-7.3837167"><ele>424.0</ele><time>2026-04-15T10:43:08.865Z</time></trkpt><trkpt lat="42.5660983" lon="-7.3837333"><ele>425.0</ele><time>2026-04-15T10:43:09.865Z</time></trkpt><trkpt lat="42.5661617" lon="-7.3837483"><ele>426.0</ele><time>2026-04-15T10:43:10.866Z</time></trkpt><trkpt lat="42.5662533" lon="-7.3835967"><ele>428.75</ele><time>2026-04-15T10:43:12.865Z</time></trkpt><trkpt lat="42.5663117" lon="-7.3834733"><ele>431.5</ele><time>2026-04-15T10:43:13.866Z</time></trkpt><trkpt lat="42.5663833" lon="-7.383345"><ele>434.25</ele><time>2026-04-15T10:43:14.866Z</time></trkpt><trkpt lat="42.56646" lon="-7.383215"><ele>437.0</ele><time>2026-04-15T10:43:15.865Z</time></trkpt><trkpt lat="42.566545" lon="-7.3831017"><ele>437.0</ele><time>2026-04-15T10:43:16.866Z</time></trkpt><trkpt lat="42.566625" lon="-7.3829933"><ele>437.00000000000006</ele><time>2026-04-15T10:43:17.865Z</time></trkpt><trkpt lat="42.5666983" lon="-7.3828783"><ele>437.00000000000006</ele><time>2026-04-15T10:43:18.866Z</time></trkpt><trkpt lat="42.5667617" lon="-7.3827683"><ele>437.0</ele><time>2026-04-15T10:43:19.865Z</time></trkpt><trkpt lat="42.5668217" lon="-7.3826583"><ele>437.0</ele><time>2026-04-15T10:43:20.865Z</time></trkpt><trkpt lat="42.5668817" lon="-7.3825433"><ele>437.0</ele><time>2026-04-15T10:43:21.866Z</time></trkpt><trkpt lat="42.56694" lon="-7.382435"><ele>437.00000000000006</ele><time>2026-04-15T10:43:22.865Z</time></trkpt><trkpt lat="42.567015" lon="-7.3823267"><ele>437.00000000000006</ele><time>2026-04-15T10:43:23.866Z</time></trkpt><trkpt lat="42.56708" lon="-7.382215"><ele>437.0</ele><time>2026-04-15T10:43:24.865Z</time></trkpt><trkpt lat="42.567155" lon="-7.3820967"><ele>437.0</ele><time>2026-04-15T10:43:25.866Z</time></trkpt><trkpt lat="42.56723" lon="-7.3819767"><ele>438.5</ele><time>2026-04-15T10:43:26.865Z</time></trkpt><trkpt lat="42.5673167" lon="-7.38187"><ele>440.0</ele><time>2026-04-15T10:43:27.865Z</time></trkpt><trkpt lat="42.56742" lon="-7.381775"><ele>441.5</ele><time>2026-04-15T10:43:28.866Z</time></trkpt><trkpt lat="42.56752" lon="-7.381685"><ele>443.0</ele><time>2026-04-15T10:43:29.865Z</time></trkpt><trkpt lat="42.567635" lon="-7.38161"><ele>443.0</ele><time>2026-04-15T10:43:30.866Z</time></trkpt><trkpt lat="42.56776" lon="-7.3815517"><ele>443.0</ele><time>2026-04-15T10:43:31.866Z</time></trkpt><trkpt lat="42.5679033" lon="-7.3815067"><ele>443.0</ele><time>2026-04-15T10:43:32.866Z</time></trkpt><trkpt lat="42.5680617" lon="-7.3814617"><ele>443.0</ele><time>2026-04-15T10:43:33.866Z</time></trkpt><trkpt lat="42.568235" lon="-7.38141"><ele>444.66666666666663</ele><time>2026-04-15T10:43:34.866Z</time></trkpt><trkpt lat="42.5683983" lon="-7.38134"><ele>446.33333333333337</ele><time>2026-04-15T10:43:35.865Z</time></trkpt><trkpt lat="42.5685517" lon="-7.381245"><ele>448.0</ele><time>2026-04-15T10:43:36.865Z</time></trkpt><trkpt lat="42.5687133" lon="-7.38112"><ele>449.0</ele><time>2026-04-15T10:43:37.865Z</time></trkpt><trkpt lat="42.5688767" lon="-7.3809733"><ele>450.0</ele><time>2026-04-15T10:43:38.865Z</time></trkpt><trkpt lat="42.5690517" lon="-7.3808317"><ele>451.0</ele><time>2026-04-15T10:43:39.865Z</time></trkpt><trkpt lat="42.5692367" lon="-7.3806983"><ele>451.0</ele><time>2026-04-15T10:43:40.865Z</time></trkpt><trkpt lat="42.5694283" lon="-7.3805833"><ele>451.0</ele><time>2026-04-15T10:43:41.865Z</time></trkpt><trkpt lat="42.569625" lon="-7.3804383"><ele>451.0</ele><time>2026-04-15T10:43:42.865Z</time></trkpt><trkpt lat="42.5698383" lon="-7.380305"><ele>451.6666666666667</ele><time>2026-04-15T10:43:43.866Z</time></trkpt><trkpt lat="42.57004" lon="-7.38017"><ele>452.33333333333337</ele><time>2026-04-15T10:43:44.866Z</time></trkpt><trkpt lat="42.5702417" lon="-7.3800417"><ele>453.0</ele><time>2026-04-15T10:43:45.865Z</time></trkpt><trkpt lat="42.570435" lon="-7.3798983"><ele>453.0</ele><time>2026-04-15T10:43:46.865Z</time></trkpt><trkpt lat="42.5706417" lon="-7.3797767"><ele>453.0</ele><time>2026-04-15T10:43:47.865Z</time></trkpt><trkpt lat="42.5708367" lon="-7.3796733"><ele>453.0</ele><time>2026-04-15T10:43:48.865Z</time></trkpt><trkpt lat="42.5710233" lon="-7.379575"><ele>453.66666666666663</ele><time>2026-04-15T10:43:49.865Z</time></trkpt><trkpt lat="42.5712033" lon="-7.379495"><ele>454.3333333333333</ele><time>2026-04-15T10:43:50.866Z</time></trkpt><trkpt lat="42.5713833" lon="-7.37942"><ele>455.0</ele><time>2026-04-15T10:43:51.866Z</time></trkpt><trkpt lat="42.571555" lon="-7.37934"><ele>455.0</ele><time>2026-04-15T10:43:52.866Z</time></trkpt><trkpt lat="42.57173" lon="-7.3792367"><ele>455.0</ele><time>2026-04-15T10:43:53.865Z</time></trkpt><trkpt lat="42.5718967" lon="-7.3791117"><ele>455.0</ele><time>2026-04-15T10:43:54.866Z</time></trkpt><trkpt lat="42.5720583" lon="-7.3789767"><ele>456.0</ele><time>2026-04-15T10:43:55.866Z</time></trkpt><trkpt lat="42.57223" lon="-7.3788367"><ele>457.0</ele><time>2026-04-15T10:43:56.865Z</time></trkpt><trkpt lat="42.5723817" lon="-7.3786983"><ele>458.0</ele><time>2026-04-15T10:43:57.865Z</time></trkpt><trkpt lat="42.572515" lon="-7.3785433"><ele>458.0</ele><time>2026-04-15T10:43:58.865Z</time></trkpt><trkpt lat="42.5726167" lon="-7.3784067"><ele>458.0</ele><time>2026-04-15T10:43:59.865Z</time></trkpt><trkpt lat="42.5727033" lon="-7.3783017"><ele>458.0</ele><time>2026-04-15T10:44:00.865Z</time></trkpt><trkpt lat="42.5727883" lon="-7.3782617"><ele>458.0</ele><time>2026-04-15T10:44:01.866Z</time></trkpt><trkpt lat="42.5728983" lon="-7.3782733"><ele>456.75</ele><time>2026-04-15T10:44:02.865Z</time></trkpt><trkpt lat="42.5730217" lon="-7.378315"><ele>455.5</ele><time>2026-04-15T10:44:03.865Z</time></trkpt><trkpt lat="42.5731533" lon="-7.37838"><ele>454.25</ele><time>2026-04-15T10:44:04.866Z</time></trkpt><trkpt lat="42.5733117" lon="-7.3784567"><ele>453.0</ele><time>2026-04-15T10:44:05.865Z</time></trkpt><trkpt lat="42.5734783" lon="-7.3785633"><ele>453.0</ele><time>2026-04-15T10:44:06.865Z</time></trkpt><trkpt lat="42.5736417" lon="-7.3786717"><ele>453.0</ele><time>2026-04-15T10:44:07.865Z</time></trkpt><trkpt lat="42.57379" lon="-7.3787667"><ele>453.0</ele><time>2026-04-15T10:44:08.865Z</time></trkpt><trkpt lat="42.57393" lon="-7.3788633"><ele>450.5</ele><time>2026-04-15T10:44:09.865Z</time></trkpt><trkpt lat="42.5740633" lon="-7.3789517"><ele>448.0</ele><time>2026-04-15T10:44:10.866Z</time></trkpt><trkpt lat="42.5742017" lon="-7.3790083"><ele>445.5</ele><time>2026-04-15T10:44:11.866Z</time></trkpt><trkpt lat="42.5743383" lon="-7.379005"><ele>443.0</ele><time>2026-04-15T10:44:12.865Z</time></trkpt><trkpt lat="42.574485" lon="-7.3789717"><ele>443.0</ele><time>2026-04-15T10:44:13.866Z</time></trkpt><trkpt lat="42.57464" lon="-7.378915"><ele>443.0</ele><time>2026-04-15T10:44:14.866Z</time></trkpt><trkpt lat="42.574815" lon="-7.3788567"><ele>443.0</ele><time>2026-04-15T10:44:15.865Z</time></trkpt><trkpt lat="42.5749833" lon="-7.3787933"><ele>444.25</ele><time>2026-04-15T10:44:16.865Z</time></trkpt><trkpt lat="42.575135" lon="-7.3787283"><ele>445.5</ele><time>2026-04-15T10:44:17.865Z</time></trkpt><trkpt lat="42.5752467" lon="-7.378635"><ele>446.75</ele><time>2026-04-15T10:44:18.865Z</time></trkpt><trkpt lat="42.57532" lon="-7.3785383"><ele>448.0</ele><time>2026-04-15T10:44:19.865Z</time></trkpt><trkpt lat="42.575355" lon="-7.3784617"><ele>448.0</ele><time>2026-04-15T10:44:20.866Z</time></trkpt><trkpt lat="42.5754" lon="-7.3783167"><ele>447.99999999999994</ele><time>2026-04-15T10:44:22.865Z</time></trkpt><trkpt lat="42.5754267" lon="-7.3782217"><ele>447.99999999999994</ele><time>2026-04-15T10:44:23.865Z</time></trkpt><trkpt lat="42.5754767" lon="-7.378095"><ele>448.0</ele><time>2026-04-15T10:44:24.866Z</time></trkpt><trkpt lat="42.5755567" lon="-7.377955"><ele>448.0</ele><time>2026-04-15T10:44:25.866Z</time></trkpt><trkpt lat="42.5756333" lon="-7.37781"><ele>448.83333333333337</ele><time>2026-04-15T10:44:26.866Z</time></trkpt><trkpt lat="42.57569" lon="-7.3777067"><ele>449.6666666666667</ele><time>2026-04-15T10:44:27.866Z</time></trkpt><trkpt lat="42.5757267" lon="-7.377625"><ele>450.5</ele><time>2026-04-15T10:44:28.865Z</time></trkpt><trkpt lat="42.5757367" lon="-7.37752"><ele>451.33333333333337</ele><time>2026-04-15T10:44:32.866Z</time></trkpt><trkpt lat="42.57566" lon="-7.377375"><ele>452.1666666666667</ele><time>2026-04-15T10:44:34.865Z</time></trkpt><trkpt lat="42.5756283" lon="-7.377285"><ele>453.0</ele><time>2026-04-15T10:44:35.865Z</time></trkpt><trkpt lat="42.5756033" lon="-7.3771733"><ele>454.0</ele><time>2026-04-15T10:44:36.865Z</time></trkpt><trkpt lat="42.5755817" lon="-7.37706"><ele>455.0</ele><time>2026-04-15T10:44:37.866Z</time></trkpt><trkpt lat="42.5755683" lon="-7.376955"><ele>456.0</ele><time>2026-04-15T10:44:38.865Z</time></trkpt><trkpt lat="42.575545" lon="-7.3768517"><ele>457.0</ele><time>2026-04-15T10:44:39.866Z</time></trkpt><trkpt lat="42.5755117" lon="-7.3767617"><ele>458.0</ele><time>2026-04-15T10:44:40.866Z</time></trkpt><trkpt lat="42.5754767" lon="-7.3766833"><ele>459.0</ele><time>2026-04-15T10:44:41.865Z</time></trkpt><trkpt lat="42.5754217" lon="-7.376615"><ele>459.0</ele><time>2026-04-15T10:44:42.866Z</time></trkpt><trkpt lat="42.575365" lon="-7.3765633"><ele>459.0</ele><time>2026-04-15T10:44:43.866Z</time></trkpt><trkpt lat="42.5753017" lon="-7.3765367"><ele>459.0</ele><time>2026-04-15T10:44:44.866Z</time></trkpt><trkpt lat="42.5752017" lon="-7.376515"><ele>459.0</ele><time>2026-04-15T10:44:46.866Z</time></trkpt><trkpt lat="42.5751133" lon="-7.3764183"><ele>459.0</ele><time>2026-04-15T10:44:48.865Z</time></trkpt><trkpt lat="42.5750667" lon="-7.3763417"><ele>459.0</ele><time>2026-04-15T10:44:49.866Z</time></trkpt><trkpt lat="42.575005" lon="-7.3762733"><ele>463.6</ele><time>2026-04-15T10:44:50.865Z</time></trkpt><trkpt lat="42.5749417" lon="-7.376225"><ele>468.2</ele><time>2026-04-15T10:44:51.865Z</time></trkpt><trkpt lat="42.5748633" lon="-7.3761883"><ele>472.80000000000007</ele><time>2026-04-15T10:44:52.866Z</time></trkpt><trkpt lat="42.574765" lon="-7.37616"><ele>477.40000000000003</ele><time>2026-04-15T10:44:53.866Z</time></trkpt><trkpt lat="42.5746483" lon="-7.376135"><ele>482.0</ele><time>2026-04-15T10:44:54.866Z</time></trkpt><trkpt lat="42.5745267" lon="-7.3760817"><ele>482.3333333333333</ele><time>2026-04-15T10:44:55.866Z</time></trkpt><trkpt lat="42.5744133" lon="-7.37598"><ele>482.66666666666663</ele><time>2026-04-15T10:44:56.865Z</time></trkpt><trkpt lat="42.5742867" lon="-7.3758483"><ele>483.0</ele><time>2026-04-15T10:44:57.865Z</time></trkpt><trkpt lat="42.57415" lon="-7.3757"><ele>483.0</ele><time>2026-04-15T10:44:58.865Z</time></trkpt><trkpt lat="42.5740017" lon="-7.3755717"><ele>483.0</ele><time>2026-04-15T10:44:59.866Z</time></trkpt><trkpt lat="42.5738417" lon="-7.3754483"><ele>483.0</ele><time>2026-04-15T10:45:00.865Z</time></trkpt><trkpt lat="42.5736983" lon="-7.3753283"><ele>485.33333333333337</ele><time>2026-04-15T10:45:01.865Z</time></trkpt><trkpt lat="42.5735783" lon="-7.3751733"><ele>487.6666666666667</ele><time>2026-04-15T10:45:02.865Z</time></trkpt><trkpt lat="42.5734667" lon="-7.3749983"><ele>490.0</ele><time>2026-04-15T10:45:03.865Z</time></trkpt><trkpt lat="42.5733983" lon="-7.3748583"><ele>490.00000000000006</ele><time>2026-04-15T10:45:04.866Z</time></trkpt><trkpt lat="42.5733667" lon="-7.374765"><ele>490.0</ele><time>2026-04-15T10:45:05.866Z</time></trkpt><trkpt lat="42.573375" lon="-7.3746617"><ele>490.0</ele><time>2026-04-15T10:45:07.866Z</time></trkpt><trkpt lat="42.5734567" lon="-7.3745867"><ele>490.0</ele><time>2026-04-15T10:45:09.866Z</time></trkpt><trkpt lat="42.5735367" lon="-7.3745217"><ele>490.00000000000006</ele><time>2026-04-15T10:45:10.865Z</time></trkpt><trkpt lat="42.57362" lon="-7.3744483"><ele>490.0</ele><time>2026-04-15T10:45:11.865Z</time></trkpt><trkpt lat="42.5736833" lon="-7.374335"><ele>492.8</ele><time>2026-04-15T10:45:12.866Z</time></trkpt><trkpt lat="42.5737133" lon="-7.3741783"><ele>495.6</ele><time>2026-04-15T10:45:13.865Z</time></trkpt><trkpt lat="42.5737217" lon="-7.37403"><ele>498.4</ele><time>2026-04-15T10:45:14.866Z</time></trkpt><trkpt lat="42.57373" lon="-7.3739117"><ele>501.2</ele><time>2026-04-15T10:45:15.865Z</time></trkpt><trkpt lat="42.5737483" lon="-7.3738183"><ele>504.0</ele><time>2026-04-15T10:45:16.866Z</time></trkpt><trkpt lat="42.57381" lon="-7.37372"><ele>505.79999999999995</ele><time>2026-04-15T10:45:18.866Z</time></trkpt><trkpt lat="42.57391" lon="-7.37372"><ele>507.59999999999997</ele><time>2026-04-15T10:45:20.866Z</time></trkpt><trkpt lat="42.5739883" lon="-7.3737433"><ele>509.4</ele><time>2026-04-15T10:45:21.865Z</time></trkpt><trkpt lat="42.57409" lon="-7.3737633"><ele>511.2</ele><time>2026-04-15T10:45:22.865Z</time></trkpt><trkpt lat="42.5741833" lon="-7.373735"><ele>513.0</ele><time>2026-04-15T10:45:23.866Z</time></trkpt><trkpt lat="42.57427" lon="-7.37366"><ele>513.0</ele><time>2026-04-15T10:45:24.866Z</time></trkpt><trkpt lat="42.5743417" lon="-7.373555"><ele>513.0</ele><time>2026-04-15T10:45:25.865Z</time></trkpt><trkpt lat="42.5743717" lon="-7.3734333"><ele>513.0</ele><time>2026-04-15T10:45:26.866Z</time></trkpt><trkpt lat="42.5743717" lon="-7.3732883"><ele>513.0</ele><time>2026-04-15T10:45:27.866Z</time></trkpt><trkpt lat="42.574345" lon="-7.373125"><ele>513.0</ele><time>2026-04-15T10:45:28.865Z</time></trkpt><trkpt lat="42.57432" lon="-7.3729233"><ele>515.3333333333334</ele><time>2026-04-15T10:45:29.866Z</time></trkpt><trkpt lat="42.57433" lon="-7.3727233"><ele>517.6666666666667</ele><time>2026-04-15T10:45:30.866Z</time></trkpt><trkpt lat="42.574365" lon="-7.3725133"><ele>520.0</ele><time>2026-04-15T10:45:31.865Z</time></trkpt><trkpt lat="42.574435" lon="-7.3723083"><ele>524.0</ele><time>2026-04-15T10:45:32.866Z</time></trkpt><trkpt lat="42.5745283" lon="-7.3721217"><ele>528.0</ele><time>2026-04-15T10:45:33.866Z</time></trkpt><trkpt lat="42.5746333" lon="-7.3719467"><ele>532.0</ele><time>2026-04-15T10:45:34.866Z</time></trkpt><trkpt lat="42.5747517" lon="-7.3718"><ele>532.0</ele><time>2026-04-15T10:45:35.866Z</time></trkpt><trkpt lat="42.5748517" lon="-7.371645"><ele>532.0</ele><time>2026-04-15T10:45:36.866Z</time></trkpt><trkpt lat="42.57494" lon="-7.3714567"><ele>532.0</ele><time>2026-04-15T10:45:37.865Z</time></trkpt><trkpt lat="42.5750067" lon="-7.371295"><ele>533.0</ele><time>2026-04-15T10:45:38.865Z</time></trkpt><trkpt lat="42.5750517" lon="-7.3711533"><ele>534.0</ele><time>2026-04-15T10:45:39.866Z</time></trkpt><trkpt lat="42.5750833" lon="-7.3709917"><ele>535.0</ele><time>2026-04-15T10:45:40.865Z</time></trkpt><trkpt lat="42.5751133" lon="-7.3707917"><ele>536.0</ele><time>2026-04-15T10:45:41.866Z</time></trkpt><trkpt lat="42.57516" lon="-7.3705783"><ele>536.8</ele><time>2026-04-15T10:45:42.866Z</time></trkpt><trkpt lat="42.5752" lon="-7.370395"><ele>537.6</ele><time>2026-04-15T10:45:43.865Z</time></trkpt><trkpt lat="42.5752283" lon="-7.3702483"><ele>538.4</ele><time>2026-04-15T10:45:44.866Z</time></trkpt><trkpt lat="42.5752417" lon="-7.3701433"><ele>539.2</ele><time>2026-04-15T10:45:45.865Z</time></trkpt><trkpt lat="42.57526" lon="-7.37006"><ele>540.0</ele><time>2026-04-15T10:45:46.866Z</time></trkpt><trkpt lat="42.5752917" lon="-7.3699767"><ele>540.0</ele><time>2026-04-15T10:45:47.865Z</time></trkpt><trkpt lat="42.5753817" lon="-7.3698717"><ele>540.0</ele><time>2026-04-15T10:45:49.866Z</time></trkpt><trkpt lat="42.575455" lon="-7.3697417"><ele>540.0</ele><time>2026-04-15T10:45:51.866Z</time></trkpt><trkpt lat="42.57548" lon="-7.3696017"><ele>540.0</ele><time>2026-04-15T10:45:53.865Z</time></trkpt><trkpt lat="42.5754667" lon="-7.3694867"><ele>540.0</ele><time>2026-04-15T10:45:55.866Z</time></trkpt><trkpt lat="42.5755067" lon="-7.3694167"><ele>540.0</ele><time>2026-04-15T10:45:57.865Z</time></trkpt><trkpt lat="42.5754117" lon="-7.3693267"><ele>540.0</ele><time>2026-04-15T10:46:03.865Z</time></trkpt><trkpt lat="42.575375" lon="-7.369215"><ele>540.0</ele><time>2026-04-15T10:46:04.866Z</time></trkpt><trkpt lat="42.5753467" lon="-7.3690933"><ele>540.0</ele><time>2026-04-15T10:46:05.866Z</time></trkpt><trkpt lat="42.575325" lon="-7.3689667"><ele>540.0</ele><time>2026-04-15T10:46:06.865Z</time></trkpt><trkpt lat="42.57531" lon="-7.3688617"><ele>542.0</ele><time>2026-04-15T10:46:07.865Z</time></trkpt><trkpt lat="42.5753017" lon="-7.3687717"><ele>544.0</ele><time>2026-04-15T10:46:08.866Z</time></trkpt><trkpt lat="42.5752867" lon="-7.3686883"><ele>546.0</ele><time>2026-04-15T10:46:09.866Z</time></trkpt><trkpt lat="42.575275" lon="-7.3686033"><ele>548.0</ele><time>2026-04-15T10:46:10.865Z</time></trkpt><trkpt lat="42.5752467" lon="-7.368465"><ele>550.0</ele><time>2026-04-15T10:46:12.865Z</time></trkpt><trkpt lat="42.5751683" lon="-7.3684017"><ele>552.0</ele><time>2026-04-15T10:46:14.866Z</time></trkpt><trkpt lat="42.5750367" lon="-7.3684417"><ele>552.0</ele><time>2026-04-15T10:46:16.865Z</time></trkpt><trkpt lat="42.5749517" lon="-7.368455"><ele>552.0</ele><time>2026-04-15T10:46:17.866Z</time></trkpt><trkpt lat="42.57488" lon="-7.3684433"><ele>552.0</ele><time>2026-04-15T10:46:18.865Z</time></trkpt><trkpt lat="42.57481" lon="-7.3684"><ele>552.0</ele><time>2026-04-15T10:46:19.866Z</time></trkpt><trkpt lat="42.5747433" lon="-7.3683233"><ele>552.0</ele><time>2026-04-15T10:46:20.866Z</time></trkpt><trkpt lat="42.5746783" lon="-7.368245"><ele>552.0</ele><time>2026-04-15T10:46:21.865Z</time></trkpt><trkpt lat="42.5746133" lon="-7.3681683"><ele>552.0</ele><time>2026-04-15T10:46:22.865Z</time></trkpt><trkpt lat="42.5745483" lon="-7.3680983"><ele>552.0</ele><time>2026-04-15T10:46:23.866Z</time></trkpt><trkpt lat="42.5744867" lon="-7.36804"><ele>552.0</ele><time>2026-04-15T10:46:24.865Z</time></trkpt><trkpt lat="42.5744233" lon="-7.3679833"><ele>552.0</ele><time>2026-04-15T10:46:25.866Z</time></trkpt><trkpt lat="42.57436" lon="-7.36792"><ele>552.0</ele><time>2026-04-15T10:46:26.865Z</time></trkpt><trkpt lat="42.5742883" lon="-7.3678583"><ele>552.0</ele><time>2026-04-15T10:46:27.865Z</time></trkpt><trkpt lat="42.574205" lon="-7.367785"><ele>554.4</ele><time>2026-04-15T10:46:28.865Z</time></trkpt><trkpt lat="42.57411" lon="-7.36772"><ele>556.8000000000001</ele><time>2026-04-15T10:46:29.866Z</time></trkpt><trkpt lat="42.5740167" lon="-7.3676633"><ele>559.2</ele><time>2026-04-15T10:46:30.866Z</time></trkpt><trkpt lat="42.5739233" lon="-7.3676117"><ele>561.6</ele><time>2026-04-15T10:46:31.866Z</time></trkpt><trkpt lat="42.57384" lon="-7.3675583"><ele>564.0</ele><time>2026-04-15T10:46:32.865Z</time></trkpt><trkpt lat="42.573755" lon="-7.367505"><ele>565.2</ele><time>2026-04-15T10:46:33.866Z</time></trkpt><trkpt lat="42.5736783" lon="-7.3674617"><ele>566.4</ele><time>2026-04-15T10:46:34.865Z</time></trkpt><trkpt lat="42.5735917" lon="-7.367415"><ele>567.6</ele><time>2026-04-15T10:46:35.866Z</time></trkpt><trkpt lat="42.57351" lon="-7.3673667"><ele>568.8</ele><time>2026-04-15T10:46:36.865Z</time></trkpt><trkpt lat="42.573425" lon="-7.3673233"><ele>570.0</ele><time>2026-04-15T10:46:37.865Z</time></trkpt><trkpt lat="42.57333" lon="-7.3672583"><ele>571.8</ele><time>2026-04-15T10:46:38.866Z</time></trkpt><trkpt lat="42.5732367" lon="-7.36719"><ele>573.6</ele><time>2026-04-15T10:46:39.865Z</time></trkpt><trkpt lat="42.57315" lon="-7.3671017"><ele>575.4</ele><time>2026-04-15T10:46:40.866Z</time></trkpt><trkpt lat="42.57308" lon="-7.367005"><ele>577.2</ele><time>2026-04-15T10:46:41.865Z</time></trkpt><trkpt lat="42.5730183" lon="-7.366895"><ele>579.0</ele><time>2026-04-15T10:46:42.865Z</time></trkpt><trkpt lat="42.5729617" lon="-7.366785"><ele>579.0</ele><time>2026-04-15T10:46:43.865Z</time></trkpt><trkpt lat="42.572925" lon="-7.36668"><ele>579.0</ele><time>2026-04-15T10:46:44.865Z</time></trkpt><trkpt lat="42.5729167" lon="-7.3665483"><ele>579.0</ele><time>2026-04-15T10:46:45.866Z</time></trkpt><trkpt lat="42.5729183" lon="-7.3664133"><ele>579.0</ele><time>2026-04-15T10:46:46.865Z</time></trkpt><trkpt lat="42.5729267" lon="-7.36628"><ele>579.0</ele><time>2026-04-15T10:46:47.865Z</time></trkpt><trkpt lat="42.5729267" lon="-7.3661383"><ele>581.0</ele><time>2026-04-15T10:46:48.865Z</time></trkpt><trkpt lat="42.57293" lon="-7.36599"><ele>583.0</ele><time>2026-04-15T10:46:49.866Z</time></trkpt><trkpt lat="42.5729483" lon="-7.3658633"><ele>585.0</ele><time>2026-04-15T10:46:50.865Z</time></trkpt><trkpt lat="42.5729767" lon="-7.36573"><ele>587.0</ele><time>2026-04-15T10:46:51.866Z</time></trkpt><trkpt lat="42.5730117" lon="-7.3655967"><ele>589.0</ele><time>2026-04-15T10:46:52.866Z</time></trkpt><trkpt lat="42.5730483" lon="-7.3654583"><ele>590.75</ele><time>2026-04-15T10:46:53.865Z</time></trkpt><trkpt lat="42.57308" lon="-7.3653133"><ele>592.5</ele><time>2026-04-15T10:46:54.866Z</time></trkpt><trkpt lat="42.5731033" lon="-7.3651617"><ele>594.25</ele><time>2026-04-15T10:46:55.865Z</time></trkpt><trkpt lat="42.5731267" lon="-7.36501"><ele>596.0</ele><time>2026-04-15T10:46:56.865Z</time></trkpt><trkpt lat="42.5731517" lon="-7.3648567"><ele>597.5</ele><time>2026-04-15T10:46:57.866Z</time></trkpt><trkpt lat="42.5731817" lon="-7.3646933"><ele>599.0</ele><time>2026-04-15T10:46:58.865Z</time></trkpt><trkpt lat="42.5731983" lon="-7.3645283"><ele>600.5</ele><time>2026-04-15T10:46:59.865Z</time></trkpt><trkpt lat="42.5732133" lon="-7.3643667"><ele>602.0</ele><time>2026-04-15T10:47:00.866Z</time></trkpt><trkpt lat="42.5732283" lon="-7.3642067"><ele>602.0</ele><time>2026-04-15T10:47:01.866Z</time></trkpt><trkpt lat="42.57324" lon="-7.3640433"><ele>602.0</ele><time>2026-04-15T10:47:02.865Z</time></trkpt><trkpt lat="42.573255" lon="-7.363885"><ele>602.0</ele><time>2026-04-15T10:47:03.866Z</time></trkpt><trkpt lat="42.573275" lon="-7.3637233"><ele>602.0</ele><time>2026-04-15T10:47:04.866Z</time></trkpt><trkpt lat="42.5733" lon="-7.3635533"><ele>601.75</ele><time>2026-04-15T10:47:05.866Z</time></trkpt><trkpt lat="42.573335" lon="-7.363405"><ele>601.5</ele><time>2026-04-15T10:47:06.866Z</time></trkpt><trkpt lat="42.5733817" lon="-7.363255"><ele>601.25</ele><time>2026-04-15T10:47:07.866Z</time></trkpt><trkpt lat="42.573435" lon="-7.3631183"><ele>601.0</ele><time>2026-04-15T10:47:08.866Z</time></trkpt><trkpt lat="42.5735033" lon="-7.3629717"><ele>601.0</ele><time>2026-04-15T10:47:09.865Z</time></trkpt><trkpt lat="42.5735683" lon="-7.36283"><ele>601.0</ele><time>2026-04-15T10:47:10.866Z</time></trkpt><trkpt lat="42.573625" lon="-7.3626883"><ele>601.0</ele><time>2026-04-15T10:47:11.865Z</time></trkpt><trkpt lat="42.573685" lon="-7.3625467"><ele>601.0</ele><time>2026-04-15T10:47:12.866Z</time></trkpt><trkpt lat="42.5737317" lon="-7.3623917"><ele>604.75</ele><time>2026-04-15T10:47:13.865Z</time></trkpt><trkpt lat="42.5737783" lon="-7.3622167"><ele>608.5</ele><time>2026-04-15T10:47:14.865Z</time></trkpt><trkpt lat="42.573795" lon="-7.3620733"><ele>612.25</ele><time>2026-04-15T10:47:15.865Z</time></trkpt><trkpt lat="42.5738017" lon="-7.3619183"><ele>616.0</ele><time>2026-04-15T10:47:16.865Z</time></trkpt><trkpt lat="42.5738167" lon="-7.3617633"><ele>616.0</ele><time>2026-04-15T10:47:17.865Z</time></trkpt><trkpt lat="42.5738383" lon="-7.3616133"><ele>616.0</ele><time>2026-04-15T10:47:18.865Z</time></trkpt><trkpt lat="42.5738833" lon="-7.36147"><ele>616.0</ele><time>2026-04-15T10:47:19.865Z</time></trkpt><trkpt lat="42.57393" lon="-7.36132"><ele>616.0</ele><time>2026-04-15T10:47:20.866Z</time></trkpt><trkpt lat="42.5740017" lon="-7.3611683"><ele>614.0</ele><time>2026-04-15T10:47:21.866Z</time></trkpt><trkpt lat="42.5740733" lon="-7.3610217"><ele>612.0</ele><time>2026-04-15T10:47:22.866Z</time></trkpt><trkpt lat="42.574125" lon="-7.3608667"><ele>610.0</ele><time>2026-04-15T10:47:23.866Z</time></trkpt><trkpt lat="42.5741583" lon="-7.3607117"><ele>608.0</ele><time>2026-04-15T10:47:24.865Z</time></trkpt><trkpt lat="42.5741667" lon="-7.3605567"><ele>608.25</ele><time>2026-04-15T10:47:25.865Z</time></trkpt><trkpt lat="42.57417" lon="-7.3603933"><ele>608.5</ele><time>2026-04-15T10:47:26.866Z</time></trkpt><trkpt lat="42.5741567" lon="-7.360235"><ele>608.75</ele><time>2026-04-15T10:47:27.865Z</time></trkpt><trkpt lat="42.5741317" lon="-7.3600717"><ele>609.0</ele><time>2026-04-15T10:47:28.865Z</time></trkpt><trkpt lat="42.5741067" lon="-7.3599117"><ele>609.0</ele><time>2026-04-15T10:47:29.865Z</time></trkpt><trkpt lat="42.5740783" lon="-7.35976"><ele>609.0</ele><time>2026-04-15T10:47:30.865Z</time></trkpt><trkpt lat="42.57404" lon="-7.3596033"><ele>609.0</ele><time>2026-04-15T10:47:31.865Z</time></trkpt><trkpt lat="42.5739983" lon="-7.359455"><ele>609.0</ele><time>2026-04-15T10:47:32.865Z</time></trkpt><trkpt lat="42.5739633" lon="-7.3593033"><ele>610.0</ele><time>2026-04-15T10:47:33.865Z</time></trkpt><trkpt lat="42.573935" lon="-7.35915"><ele>611.0</ele><time>2026-04-15T10:47:34.865Z</time></trkpt><trkpt lat="42.5739267" lon="-7.3589867"><ele>612.0</ele><time>2026-04-15T10:47:35.866Z</time></trkpt><trkpt lat="42.57394" lon="-7.3588417"><ele>613.0</ele><time>2026-04-15T10:47:36.865Z</time></trkpt><trkpt lat="42.5739683" lon="-7.358695"><ele>613.5</ele><time>2026-04-15T10:47:37.866Z</time></trkpt><trkpt lat="42.5740117" lon="-7.3585467"><ele>614.0</ele><time>2026-04-15T10:47:38.865Z</time></trkpt><trkpt lat="42.5740717" lon="-7.3584167"><ele>614.5</ele><time>2026-04-15T10:47:39.865Z</time></trkpt><trkpt lat="42.5741533" lon="-7.3582967"><ele>615.0</ele><time>2026-04-15T10:47:40.865Z</time></trkpt><trkpt lat="42.57426" lon="-7.3581983"><ele>615.0</ele><time>2026-04-15T10:47:41.865Z</time></trkpt><trkpt lat="42.5743717" lon="-7.3581233"><ele>615.0</ele><time>2026-04-15T10:47:42.865Z</time></trkpt><trkpt lat="42.5744917" lon="-7.3580467"><ele>615.0</ele><time>2026-04-15T10:47:43.866Z</time></trkpt><trkpt lat="42.5746033" lon="-7.3579583"><ele>615.0</ele><time>2026-04-15T10:47:44.865Z</time></trkpt><trkpt lat="42.5747067" lon="-7.35787"><ele>613.75</ele><time>2026-04-15T10:47:45.865Z</time></trkpt><trkpt lat="42.5748033" lon="-7.3577917"><ele>612.5</ele><time>2026-04-15T10:47:46.866Z</time></trkpt><trkpt lat="42.57489" lon="-7.3576933"><ele>611.25</ele><time>2026-04-15T10:47:47.865Z</time></trkpt><trkpt lat="42.5749683" lon="-7.3575667"><ele>610.0</ele><time>2026-04-15T10:47:48.866Z</time></trkpt><trkpt lat="42.5750283" lon="-7.3574267"><ele>610.0</ele><time>2026-04-15T10:47:49.866Z</time></trkpt><trkpt lat="42.5750883" lon="-7.357285"><ele>610.0</ele><time>2026-04-15T10:47:50.865Z</time></trkpt><trkpt lat="42.5751483" lon="-7.35714"><ele>610.0</ele><time>2026-04-15T10:47:51.865Z</time></trkpt><trkpt lat="42.5752183" lon="-7.3569917"><ele>610.0</ele><time>2026-04-15T10:47:52.866Z</time></trkpt><trkpt lat="42.5752867" lon="-7.3568517"><ele>610.0</ele><time>2026-04-15T10:47:53.866Z</time></trkpt><trkpt lat="42.57534" lon="-7.3567217"><ele>610.0</ele><time>2026-04-15T10:47:54.866Z</time></trkpt><trkpt lat="42.5753717" lon="-7.3565683"><ele>610.0</ele><time>2026-04-15T10:47:55.865Z</time></trkpt><trkpt lat="42.5753917" lon="-7.35642"><ele>610.0</ele><time>2026-04-15T10:47:56.865Z</time></trkpt><trkpt lat="42.5753967" lon="-7.356265"><ele>611.25</ele><time>2026-04-15T10:47:57.866Z</time></trkpt><trkpt lat="42.575405" lon="-7.3561"><ele>612.5</ele><time>2026-04-15T10:47:58.865Z</time></trkpt><trkpt lat="42.5754317" lon="-7.3559367"><ele>613.75</ele><time>2026-04-15T10:47:59.866Z</time></trkpt><trkpt lat="42.5754683" lon="-7.3557717"><ele>615.0</ele><time>2026-04-15T10:48:00.865Z</time></trkpt><trkpt lat="42.5755117" lon="-7.355605"><ele>616.5</ele><time>2026-04-15T10:48:01.865Z</time></trkpt><trkpt lat="42.57554" lon="-7.3554417"><ele>618.0</ele><time>2026-04-15T10:48:02.865Z</time></trkpt><trkpt lat="42.5755717" lon="-7.3552817"><ele>619.5</ele><time>2026-04-15T10:48:03.866Z</time></trkpt><trkpt lat="42.575605" lon="-7.3551317"><ele>621.0</ele><time>2026-04-15T10:48:04.866Z</time></trkpt><trkpt lat="42.57564" lon="-7.3549717"><ele>621.0</ele><time>2026-04-15T10:48:05.865Z</time></trkpt><trkpt lat="42.5756817" lon="-7.3548183"><ele>621.0</ele><time>2026-04-15T10:48:06.865Z</time></trkpt><trkpt lat="42.5757217" lon="-7.3546633"><ele>621.0</ele><time>2026-04-15T10:48:07.866Z</time></trkpt><trkpt lat="42.575765" lon="-7.35451"><ele>621.0</ele><time>2026-04-15T10:48:08.866Z</time></trkpt><trkpt lat="42.5758183" lon="-7.35436"><ele>621.25</ele><time>2026-04-15T10:48:09.865Z</time></trkpt><trkpt lat="42.575865" lon="-7.3542067"><ele>621.5</ele><time>2026-04-15T10:48:10.865Z</time></trkpt><trkpt lat="42.5759083" lon="-7.35406"><ele>621.75</ele><time>2026-04-15T10:48:11.865Z</time></trkpt><trkpt lat="42.575955" lon="-7.353915"><ele>622.0</ele><time>2026-04-15T10:48:12.865Z</time></trkpt><trkpt lat="42.576" lon="-7.35377"><ele>621.25</ele><time>2026-04-15T10:48:13.865Z</time></trkpt><trkpt lat="42.576045" lon="-7.3536267"><ele>620.5</ele><time>2026-04-15T10:48:14.865Z</time></trkpt><trkpt lat="42.5760933" lon="-7.3534817"><ele>619.75</ele><time>2026-04-15T10:48:15.866Z</time></trkpt><trkpt lat="42.5761417" lon="-7.3533433"><ele>619.0</ele><time>2026-04-15T10:48:16.866Z</time></trkpt><trkpt lat="42.57619" lon="-7.3532083"><ele>621.8</ele><time>2026-04-15T10:48:17.866Z</time></trkpt><trkpt lat="42.57624" lon="-7.353075"><ele>624.5999999999999</ele><time>2026-04-15T10:48:18.865Z</time></trkpt><trkpt lat="42.5762917" lon="-7.3529417"><ele>627.4</ele><time>2026-04-15T10:48:19.866Z</time></trkpt><trkpt lat="42.5763383" lon="-7.35281"><ele>630.1999999999999</ele><time>2026-04-15T10:48:20.866Z</time></trkpt><trkpt lat="42.5763867" lon="-7.3526767"><ele>633.0</ele><time>2026-04-15T10:48:21.866Z</time></trkpt><trkpt lat="42.5764417" lon="-7.3525517"><ele>634.25</ele><time>2026-04-15T10:48:22.865Z</time></trkpt><trkpt lat="42.576485" lon="-7.3524117"><ele>635.5</ele><time>2026-04-15T10:48:23.865Z</time></trkpt><trkpt lat="42.5765283" lon="-7.35227"><ele>636.75</ele><time>2026-04-15T10:48:24.866Z</time></trkpt><trkpt lat="42.5765733" lon="-7.3521333"><ele>638.0</ele><time>2026-04-15T10:48:25.865Z</time></trkpt><trkpt lat="42.5766133" lon="-7.351985"><ele>638.0</ele><time>2026-04-15T10:48:26.866Z</time></trkpt><trkpt lat="42.57665" lon="-7.3518383"><ele>638.0</ele><time>2026-04-15T10:48:27.866Z</time></trkpt><trkpt lat="42.5767" lon="-7.3516867"><ele>638.0</ele><time>2026-04-15T10:48:28.866Z</time></trkpt><trkpt lat="42.5767533" lon="-7.35154"><ele>638.0</ele><time>2026-04-15T10:48:29.866Z</time></trkpt><trkpt lat="42.5768" lon="-7.3513983"><ele>636.0</ele><time>2026-04-15T10:48:30.865Z</time></trkpt><trkpt lat="42.576845" lon="-7.351265"><ele>634.0</ele><time>2026-04-15T10:48:31.866Z</time></trkpt><trkpt lat="42.5768933" lon="-7.3511217"><ele>632.0</ele><time>2026-04-15T10:48:32.865Z</time></trkpt><trkpt lat="42.576955" lon="-7.35098"><ele>630.0</ele><time>2026-04-15T10:48:33.865Z</time></trkpt><trkpt lat="42.577005" lon="-7.35085"><ele>632.5</ele><time>2026-04-15T10:48:34.865Z</time></trkpt><trkpt lat="42.577065" lon="-7.3507217"><ele>635.0</ele><time>2026-04-15T10:48:35.866Z</time></trkpt><trkpt lat="42.577125" lon="-7.3505817"><ele>637.5</ele><time>2026-04-15T10:48:36.865Z</time></trkpt><trkpt lat="42.5771883" lon="-7.35045"><ele>640.0</ele><time>2026-04-15T10:48:37.866Z</time></trkpt><trkpt lat="42.5772483" lon="-7.350315"><ele>640.0</ele><time>2026-04-15T10:48:38.866Z</time></trkpt><trkpt lat="42.5773" lon="-7.3501767"><ele>640.0</ele><time>2026-04-15T10:48:39.865Z</time></trkpt><trkpt lat="42.5773517" lon="-7.350045"><ele>640.0</ele><time>2026-04-15T10:48:40.865Z</time></trkpt><trkpt lat="42.5774133" lon="-7.3499117"><ele>640.0</ele><time>2026-04-15T10:48:41.865Z</time></trkpt><trkpt lat="42.5774767" lon="-7.3497917"><ele>640.0</ele><time>2026-04-15T10:48:42.866Z</time></trkpt><trkpt lat="42.5775533" lon="-7.3496767"><ele>637.5</ele><time>2026-04-15T10:48:43.866Z</time></trkpt><trkpt lat="42.57763" lon="-7.3495567"><ele>635.0</ele><time>2026-04-15T10:48:44.865Z</time></trkpt><trkpt lat="42.5776917" lon="-7.349435"><ele>632.5</ele><time>2026-04-15T10:48:45.865Z</time></trkpt><trkpt lat="42.57775" lon="-7.3493"><ele>630.0</ele><time>2026-04-15T10:48:46.866Z</time></trkpt><trkpt lat="42.5778117" lon="-7.3491633"><ele>633.0</ele><time>2026-04-15T10:48:47.866Z</time></trkpt><trkpt lat="42.5778717" lon="-7.3490267"><ele>636.0</ele><time>2026-04-15T10:48:48.866Z</time></trkpt><trkpt lat="42.5779367" lon="-7.3488967"><ele>639.0</ele><time>2026-04-15T10:48:49.866Z</time></trkpt><trkpt lat="42.5780033" lon="-7.34877"><ele>642.0</ele><time>2026-04-15T10:48:50.865Z</time></trkpt><trkpt lat="42.5780433" lon="-7.3486367"><ele>642.0</ele><time>2026-04-15T10:48:51.866Z</time></trkpt><trkpt lat="42.5780617" lon="-7.348485"><ele>642.0</ele><time>2026-04-15T10:48:52.866Z</time></trkpt><trkpt lat="42.5780783" lon="-7.3483333"><ele>642.0</ele><time>2026-04-15T10:48:53.866Z</time></trkpt><trkpt lat="42.5780717" lon="-7.3481717"><ele>642.0</ele><time>2026-04-15T10:48:54.866Z</time></trkpt><trkpt lat="42.5780667" lon="-7.3480233"><ele>642.4000000000001</ele><time>2026-04-15T10:48:55.865Z</time></trkpt><trkpt lat="42.57806" lon="-7.347875"><ele>642.8000000000001</ele><time>2026-04-15T10:48:56.865Z</time></trkpt><trkpt lat="42.57806" lon="-7.3477217"><ele>643.2</ele><time>2026-04-15T10:48:57.865Z</time></trkpt><trkpt lat="42.5780683" lon="-7.3475667"><ele>643.6</ele><time>2026-04-15T10:48:58.865Z</time></trkpt><trkpt lat="42.5780783" lon="-7.3474167"><ele>644.0</ele><time>2026-04-15T10:48:59.866Z</time></trkpt><trkpt lat="42.5780883" lon="-7.3472633"><ele>644.4000000000001</ele><time>2026-04-15T10:49:00.865Z</time></trkpt><trkpt lat="42.5781" lon="-7.3471133"><ele>644.8</ele><time>2026-04-15T10:49:01.865Z</time></trkpt><trkpt lat="42.5781133" lon="-7.3469667"><ele>645.2</ele><time>2026-04-15T10:49:02.866Z</time></trkpt><trkpt lat="42.578125" lon="-7.3468083"><ele>645.5999999999999</ele><time>2026-04-15T10:49:03.865Z</time></trkpt><trkpt lat="42.5781367" lon="-7.3466633"><ele>646.0</ele><time>2026-04-15T10:49:04.866Z</time></trkpt><trkpt lat="42.5781433" lon="-7.3465067"><ele>646.5</ele><time>2026-04-15T10:49:05.866Z</time></trkpt><trkpt lat="42.5781467" lon="-7.3463467"><ele>647.0</ele><time>2026-04-15T10:49:06.866Z</time></trkpt><trkpt lat="42.5781433" lon="-7.3461833"><ele>647.5</ele><time>2026-04-15T10:49:07.865Z</time></trkpt><trkpt lat="42.5781317" lon="-7.3460233"><ele>648.0</ele><time>2026-04-15T10:49:08.866Z</time></trkpt><trkpt lat="42.57812" lon="-7.3458617"><ele>648.0</ele><time>2026-04-15T10:49:09.866Z</time></trkpt><trkpt lat="42.5781083" lon="-7.3456967"><ele>648.0</ele><time>2026-04-15T10:49:10.865Z</time></trkpt><trkpt lat="42.5780983" lon="-7.345535"><ele>648.0</ele><time>2026-04-15T10:49:11.866Z</time></trkpt><trkpt lat="42.5780967" lon="-7.3453683"><ele>648.0</ele><time>2026-04-15T10:49:12.866Z</time></trkpt><trkpt lat="42.57809" lon="-7.3452083"><ele>647.75</ele><time>2026-04-15T10:49:13.865Z</time></trkpt><trkpt lat="42.57807" lon="-7.3450383"><ele>647.5</ele><time>2026-04-15T10:49:14.866Z</time></trkpt><trkpt lat="42.578045" lon="-7.3448783"><ele>647.25</ele><time>2026-04-15T10:49:15.866Z</time></trkpt><trkpt lat="42.5780167" lon="-7.3447283"><ele>647.0</ele><time>2026-04-15T10:49:16.865Z</time></trkpt><trkpt lat="42.577995" lon="-7.3445633"><ele>647.0</ele><time>2026-04-15T10:49:17.865Z</time></trkpt><trkpt lat="42.5779867" lon="-7.3444133"><ele>647.0</ele><time>2026-04-15T10:49:18.866Z</time></trkpt><trkpt lat="42.5779817" lon="-7.3442517"><ele>647.0</ele><time>2026-04-15T10:49:19.866Z</time></trkpt><trkpt lat="42.577985" lon="-7.3440933"><ele>647.0</ele><time>2026-04-15T10:49:20.866Z</time></trkpt><trkpt lat="42.5779933" lon="-7.343945"><ele>648.5</ele><time>2026-04-15T10:49:21.865Z</time></trkpt><trkpt lat="42.578005" lon="-7.34378"><ele>650.0</ele><time>2026-04-15T10:49:22.866Z</time></trkpt><trkpt lat="42.5780117" lon="-7.343615"><ele>651.5</ele><time>2026-04-15T10:49:23.865Z</time></trkpt><trkpt lat="42.5780083" lon="-7.34345"><ele>653.0</ele><time>2026-04-15T10:49:24.865Z</time></trkpt><trkpt lat="42.5779983" lon="-7.3432917"><ele>653.0</ele><time>2026-04-15T10:49:25.866Z</time></trkpt><trkpt lat="42.5779917" lon="-7.3431267"><ele>653.0</ele><time>2026-04-15T10:49:26.866Z</time></trkpt><trkpt lat="42.5779817" lon="-7.342955"><ele>653.0</ele><time>2026-04-15T10:49:27.866Z</time></trkpt><trkpt lat="42.5779717" lon="-7.342785"><ele>653.0</ele><time>2026-04-15T10:49:28.866Z</time></trkpt><trkpt lat="42.5779567" lon="-7.342615"><ele>655.25</ele><time>2026-04-15T10:49:29.866Z</time></trkpt><trkpt lat="42.5779467" lon="-7.3424617"><ele>657.5</ele><time>2026-04-15T10:49:30.866Z</time></trkpt><trkpt lat="42.57794" lon="-7.3423067"><ele>659.75</ele><time>2026-04-15T10:49:31.865Z</time></trkpt><trkpt lat="42.5779317" lon="-7.34214"><ele>662.0</ele><time>2026-04-15T10:49:32.866Z</time></trkpt><trkpt lat="42.5779317" lon="-7.3419733"><ele>663.5</ele><time>2026-04-15T10:49:33.865Z</time></trkpt><trkpt lat="42.5779333" lon="-7.3418167"><ele>665.0</ele><time>2026-04-15T10:49:34.865Z</time></trkpt><trkpt lat="42.5779317" lon="-7.34165"><ele>666.5</ele><time>2026-04-15T10:49:35.865Z</time></trkpt><trkpt lat="42.5779333" lon="-7.3414967"><ele>668.0</ele><time>2026-04-15T10:49:36.866Z</time></trkpt><trkpt lat="42.5779267" lon="-7.3413533"><ele>670.5</ele><time>2026-04-15T10:49:37.866Z</time></trkpt><trkpt lat="42.5779267" lon="-7.34119"><ele>673.0</ele><time>2026-04-15T10:49:38.865Z</time></trkpt><trkpt lat="42.577925" lon="-7.3410317"><ele>675.5</ele><time>2026-04-15T10:49:39.865Z</time></trkpt><trkpt lat="42.5779267" lon="-7.3408733"><ele>678.0</ele><time>2026-04-15T10:49:40.866Z</time></trkpt><trkpt lat="42.577935" lon="-7.34072"><ele>678.0</ele><time>2026-04-15T10:49:41.865Z</time></trkpt><trkpt lat="42.5779533" lon="-7.3405683"><ele>678.0</ele><time>2026-04-15T10:49:42.865Z</time></trkpt><trkpt lat="42.57799" lon="-7.34042"><ele>678.0</ele><time>2026-04-15T10:49:43.866Z</time></trkpt><trkpt lat="42.5780433" lon="-7.3402767"><ele>678.0</ele><time>2026-04-15T10:49:44.865Z</time></trkpt><trkpt lat="42.5780967" lon="-7.3401317"><ele>681.75</ele><time>2026-04-15T10:49:45.866Z</time></trkpt><trkpt lat="42.5781533" lon="-7.3399867"><ele>685.5</ele><time>2026-04-15T10:49:46.866Z</time></trkpt><trkpt lat="42.5782067" lon="-7.33984"><ele>689.25</ele><time>2026-04-15T10:49:47.865Z</time></trkpt><trkpt lat="42.578245" lon="-7.33968"><ele>693.0</ele><time>2026-04-15T10:49:48.866Z</time></trkpt><trkpt lat="42.5782883" lon="-7.339525"><ele>696.25</ele><time>2026-04-15T10:49:49.866Z</time></trkpt><trkpt lat="42.5783333" lon="-7.3393733"><ele>699.5</ele><time>2026-04-15T10:49:50.865Z</time></trkpt><trkpt lat="42.5783767" lon="-7.3392133"><ele>702.75</ele><time>2026-04-15T10:49:51.866Z</time></trkpt><trkpt lat="42.5784067" lon="-7.3390583"><ele>706.0</ele><time>2026-04-15T10:49:52.865Z</time></trkpt><trkpt lat="42.5784333" lon="-7.3388933"><ele>709.75</ele><time>2026-04-15T10:49:53.866Z</time></trkpt><trkpt lat="42.5784483" lon="-7.3387367"><ele>713.5</ele><time>2026-04-15T10:49:54.866Z</time></trkpt><trkpt lat="42.57847" lon="-7.3385717"><ele>717.25</ele><time>2026-04-15T10:49:55.865Z</time></trkpt><trkpt lat="42.57848" lon="-7.3384133"><ele>721.0</ele><time>2026-04-15T10:49:56.865Z</time></trkpt><trkpt lat="42.578495" lon="-7.3382483"><ele>721.0</ele><time>2026-04-15T10:49:57.866Z</time></trkpt><trkpt lat="42.5785167" lon="-7.3380933"><ele>721.0</ele><time>2026-04-15T10:49:58.866Z</time></trkpt><trkpt lat="42.578535" lon="-7.33792"><ele>721.0</ele><time>2026-04-15T10:49:59.866Z</time></trkpt><trkpt lat="42.5785617" lon="-7.33775"><ele>721.0</ele><time>2026-04-15T10:50:00.865Z</time></trkpt><trkpt lat="42.578595" lon="-7.3375883"><ele>719.5</ele><time>2026-04-15T10:50:01.866Z</time></trkpt><trkpt lat="42.5786467" lon="-7.3374417"><ele>718.0</ele><time>2026-04-15T10:50:02.866Z</time></trkpt><trkpt lat="42.5787083" lon="-7.3372917"><ele>716.5</ele><time>2026-04-15T10:50:03.865Z</time></trkpt><trkpt lat="42.578775" lon="-7.337145"><ele>715.0</ele><time>2026-04-15T10:50:04.866Z</time></trkpt><trkpt lat="42.5788383" lon="-7.3369967"><ele>718.5</ele><time>2026-04-15T10:50:05.865Z</time></trkpt><trkpt lat="42.5789" lon="-7.3368583"><ele>722.0</ele><time>2026-04-15T10:50:06.866Z</time></trkpt><trkpt lat="42.5789567" lon="-7.3367133"><ele>725.5</ele><time>2026-04-15T10:50:07.865Z</time></trkpt><trkpt lat="42.5790217" lon="-7.3365667"><ele>729.0</ele><time>2026-04-15T10:50:08.866Z</time></trkpt><trkpt lat="42.579085" lon="-7.3364133"><ele>732.25</ele><time>2026-04-15T10:50:09.865Z</time></trkpt><trkpt lat="42.57913" lon="-7.33625"><ele>735.5</ele><time>2026-04-15T10:50:10.866Z</time></trkpt><trkpt lat="42.57915" lon="-7.33609"><ele>738.75</ele><time>2026-04-15T10:50:11.865Z</time></trkpt><trkpt lat="42.579155" lon="-7.3359267"><ele>742.0</ele><time>2026-04-15T10:50:12.865Z</time></trkpt><trkpt lat="42.5791517" lon="-7.3357683"><ele>742.0</ele><time>2026-04-15T10:50:13.865Z</time></trkpt><trkpt lat="42.579135" lon="-7.3356017"><ele>742.0</ele><time>2026-04-15T10:50:14.865Z</time></trkpt><trkpt lat="42.579115" lon="-7.3354317"><ele>742.0</ele><time>2026-04-15T10:50:15.866Z</time></trkpt><trkpt lat="42.5791067" lon="-7.33526"><ele>742.0</ele><time>2026-04-15T10:50:16.865Z</time></trkpt><trkpt lat="42.57911" lon="-7.3350967"><ele>744.0</ele><time>2026-04-15T10:50:17.866Z</time></trkpt><trkpt lat="42.57911" lon="-7.334935"><ele>746.0</ele><time>2026-04-15T10:50:18.866Z</time></trkpt><trkpt lat="42.579105" lon="-7.3347633"><ele>748.0</ele><time>2026-04-15T10:50:19.865Z</time></trkpt><trkpt lat="42.5790967" lon="-7.3345917"><ele>750.0</ele><time>2026-04-15T10:50:20.865Z</time></trkpt><trkpt lat="42.579105" lon="-7.3344167"><ele>750.75</ele><time>2026-04-15T10:50:21.865Z</time></trkpt><trkpt lat="42.5791217" lon="-7.33425"><ele>751.5</ele><time>2026-04-15T10:50:22.866Z</time></trkpt><trkpt lat="42.579165" lon="-7.3340917"><ele>752.25</ele><time>2026-04-15T10:50:23.866Z</time></trkpt><trkpt lat="42.5792117" lon="-7.3339417"><ele>753.0</ele><time>2026-04-15T10:50:24.866Z</time></trkpt><trkpt lat="42.579255" lon="-7.3337917"><ele>751.5</ele><time>2026-04-15T10:50:25.866Z</time></trkpt><trkpt lat="42.579295" lon="-7.333635"><ele>750.0</ele><time>2026-04-15T10:50:26.865Z</time></trkpt><trkpt lat="42.579335" lon="-7.3334917"><ele>748.5</ele><time>2026-04-15T10:50:27.865Z</time></trkpt><trkpt lat="42.579375" lon="-7.33335"><ele>747.0</ele><time>2026-04-15T10:50:28.866Z</time></trkpt><trkpt lat="42.5794083" lon="-7.33321"><ele>747.0</ele><time>2026-04-15T10:50:29.866Z</time></trkpt><trkpt lat="42.57943" lon="-7.3330633"><ele>747.0</ele><time>2026-04-15T10:50:30.866Z</time></trkpt><trkpt lat="42.5794283" lon="-7.3329117"><ele>747.0</ele><time>2026-04-15T10:50:31.866Z</time></trkpt><trkpt lat="42.579425" lon="-7.33276"><ele>747.0</ele><time>2026-04-15T10:50:32.867Z</time></trkpt><trkpt lat="42.57942" lon="-7.3326167"><ele>747.0</ele><time>2026-04-15T10:50:33.867Z</time></trkpt><trkpt lat="42.5793983" lon="-7.33246"><ele>746.5</ele><time>2026-04-15T10:50:34.867Z</time></trkpt><trkpt lat="42.5793783" lon="-7.3322983"><ele>746.0</ele><time>2026-04-15T10:50:35.866Z</time></trkpt><trkpt lat="42.5793517" lon="-7.3321333"><ele>745.5</ele><time>2026-04-15T10:50:36.866Z</time></trkpt><trkpt lat="42.5793267" lon="-7.33198"><ele>745.0</ele><time>2026-04-15T10:50:37.866Z</time></trkpt><trkpt lat="42.5792933" lon="-7.3318317"><ele>744.75</ele><time>2026-04-15T10:50:38.866Z</time></trkpt><trkpt lat="42.5792583" lon="-7.3316617"><ele>744.5</ele><time>2026-04-15T10:50:39.867Z</time></trkpt><trkpt lat="42.579235" lon="-7.331505"><ele>744.25</ele><time>2026-04-15T10:50:40.866Z</time></trkpt><trkpt lat="42.5792133" lon="-7.3313517"><ele>744.0</ele><time>2026-04-15T10:50:41.866Z</time></trkpt><trkpt lat="42.5791983" lon="-7.3312033"><ele>743.2</ele><time>2026-04-15T10:50:42.866Z</time></trkpt><trkpt lat="42.5791983" lon="-7.3310583"><ele>742.4000000000001</ele><time>2026-04-15T10:50:43.866Z</time></trkpt><trkpt lat="42.5792217" lon="-7.3309083"><ele>741.6</ele><time>2026-04-15T10:50:44.867Z</time></trkpt><trkpt lat="42.5792617" lon="-7.33077"><ele>740.8</ele><time>2026-04-15T10:50:45.866Z</time></trkpt><trkpt lat="42.5793217" lon="-7.33065"><ele>740.0</ele><time>2026-04-15T10:50:46.866Z</time></trkpt><trkpt lat="42.5794033" lon="-7.33054"><ele>739.5</ele><time>2026-04-15T10:50:47.866Z</time></trkpt><trkpt lat="42.5795" lon="-7.3304583"><ele>739.0</ele><time>2026-04-15T10:50:48.866Z</time></trkpt><trkpt lat="42.579605" lon="-7.3303783"><ele>738.5</ele><time>2026-04-15T10:50:49.867Z</time></trkpt><trkpt lat="42.5797" lon="-7.33029"><ele>738.0</ele><time>2026-04-15T10:50:50.866Z</time></trkpt><trkpt lat="42.5797833" lon="-7.3301883"><ele>738.0</ele><time>2026-04-15T10:50:51.867Z</time></trkpt><trkpt lat="42.5798567" lon="-7.3300617"><ele>738.0</ele><time>2026-04-15T10:50:52.867Z</time></trkpt><trkpt lat="42.5799383" lon="-7.3299017"><ele>738.0</ele><time>2026-04-15T10:50:53.867Z</time></trkpt><trkpt lat="42.5800317" lon="-7.3297167"><ele>738.0</ele><time>2026-04-15T10:50:54.867Z</time></trkpt><trkpt lat="42.5801617" lon="-7.3295317"><ele>737.3333333333334</ele><time>2026-04-15T10:50:55.866Z</time></trkpt><trkpt lat="42.5803233" lon="-7.329345"><ele>736.6666666666667</ele><time>2026-04-15T10:50:56.867Z</time></trkpt><trkpt lat="42.5804917" lon="-7.3291567"><ele>736.0</ele><time>2026-04-15T10:50:57.866Z</time></trkpt><trkpt lat="42.5806533" lon="-7.3289667"><ele>739.0</ele><time>2026-04-15T10:50:58.866Z</time></trkpt><trkpt lat="42.5808067" lon="-7.3287667"><ele>742.0</ele><time>2026-04-15T10:50:59.867Z</time></trkpt><trkpt lat="42.5809617" lon="-7.3285433"><ele>745.0</ele><time>2026-04-15T10:51:00.866Z</time></trkpt><trkpt lat="42.58113" lon="-7.3282983"><ele>744.0</ele><time>2026-04-15T10:51:01.867Z</time></trkpt><trkpt lat="42.5813067" lon="-7.3280367"><ele>743.0</ele><time>2026-04-15T10:51:02.866Z</time></trkpt><trkpt lat="42.5814567" lon="-7.3277867"><ele>743.0</ele><time>2026-04-15T10:51:03.866Z</time></trkpt><trkpt lat="42.5815867" lon="-7.327565"><ele>743.0</ele><time>2026-04-15T10:51:04.866Z</time></trkpt><trkpt lat="42.5816967" lon="-7.3273817"><ele>743.0</ele><time>2026-04-15T10:51:05.867Z</time></trkpt><trkpt lat="42.5817983" lon="-7.327235"><ele>745.0</ele><time>2026-04-15T10:51:06.867Z</time></trkpt><trkpt lat="42.5818917" lon="-7.327165"><ele>747.0</ele><time>2026-04-15T10:51:07.867Z</time></trkpt><trkpt lat="42.5819633" lon="-7.3271533"><ele>749.0</ele><time>2026-04-15T10:51:08.866Z</time></trkpt><trkpt lat="42.582035" lon="-7.3271817"><ele>751.0</ele><time>2026-04-15T10:51:09.866Z</time></trkpt><trkpt lat="42.5821017" lon="-7.3272417"><ele>753.0</ele><time>2026-04-15T10:51:10.867Z</time></trkpt><trkpt lat="42.58217" lon="-7.3273367"><ele>755.0</ele><time>2026-04-15T10:51:11.867Z</time></trkpt><trkpt lat="42.5822483" lon="-7.3274667"><ele>755.0</ele><time>2026-04-15T10:51:12.866Z</time></trkpt><trkpt lat="42.5823517" lon="-7.3276333"><ele>755.0</ele><time>2026-04-15T10:51:13.866Z</time></trkpt><trkpt lat="42.5824567" lon="-7.327785"><ele>755.0</ele><time>2026-04-15T10:51:14.867Z</time></trkpt><trkpt lat="42.5825817" lon="-7.3279483"><ele>755.0</ele><time>2026-04-15T10:51:15.867Z</time></trkpt><trkpt lat="42.5827183" lon="-7.32805"><ele>755.0</ele><time>2026-04-15T10:51:16.867Z</time></trkpt><trkpt lat="42.5828667" lon="-7.3281033"><ele>755.0</ele><time>2026-04-15T10:51:17.866Z</time></trkpt><trkpt lat="42.583035" lon="-7.3281383"><ele>754.6666666666666</ele><time>2026-04-15T10:51:18.866Z</time></trkpt><trkpt lat="42.5832233" lon="-7.328175"><ele>754.3333333333334</ele><time>2026-04-15T10:51:19.866Z</time></trkpt><trkpt lat="42.5834267" lon="-7.328235"><ele>754.0</ele><time>2026-04-15T10:51:20.867Z</time></trkpt><trkpt lat="42.5836417" lon="-7.3283283"><ele>758.3333333333334</ele><time>2026-04-15T10:51:21.867Z</time></trkpt><trkpt lat="42.5838367" lon="-7.328445"><ele>762.6666666666666</ele><time>2026-04-15T10:51:22.866Z</time></trkpt><trkpt lat="42.5839933" lon="-7.32858"><ele>767.0</ele><time>2026-04-15T10:51:23.867Z</time></trkpt><trkpt lat="42.58412" lon="-7.3287167"><ele>767.0</ele><time>2026-04-15T10:51:24.867Z</time></trkpt><trkpt lat="42.5842133" lon="-7.3288217"><ele>767.0</ele><time>2026-04-15T10:51:25.867Z</time></trkpt><trkpt lat="42.5842867" lon="-7.328865"><ele>767.0</ele><time>2026-04-15T10:51:26.866Z</time></trkpt><trkpt lat="42.58435" lon="-7.3288483"><ele>767.0</ele><time>2026-04-15T10:51:27.867Z</time></trkpt><trkpt lat="42.584415" lon="-7.328795"><ele>767.0</ele><time>2026-04-15T10:51:28.866Z</time></trkpt><trkpt lat="42.5844883" lon="-7.3287133"><ele>767.0</ele><time>2026-04-15T10:51:29.866Z</time></trkpt><trkpt lat="42.5845767" lon="-7.3285883"><ele>768.0</ele><time>2026-04-15T10:51:30.866Z</time></trkpt><trkpt lat="42.584685" lon="-7.3284183"><ele>769.0</ele><time>2026-04-15T10:51:31.866Z</time></trkpt><trkpt lat="42.5847967" lon="-7.328205"><ele>770.0</ele><time>2026-04-15T10:51:32.866Z</time></trkpt><trkpt lat="42.5849033" lon="-7.327975"><ele>770.0</ele><time>2026-04-15T10:51:33.867Z</time></trkpt><trkpt lat="42.5850083" lon="-7.32771"><ele>770.0</ele><time>2026-04-15T10:51:34.867Z</time></trkpt><trkpt lat="42.585095" lon="-7.3274383"><ele>770.0</ele><time>2026-04-15T10:51:35.866Z</time></trkpt><trkpt lat="42.58521" lon="-7.3271533"><ele>776.5</ele><time>2026-04-15T10:51:36.867Z</time></trkpt><trkpt lat="42.585345" lon="-7.3268883"><ele>783.0</ele><time>2026-04-15T10:51:37.866Z</time></trkpt><trkpt lat="42.5854833" lon="-7.326645"><ele>778.6666666666667</ele><time>2026-04-15T10:51:38.867Z</time></trkpt><trkpt lat="42.5855917" lon="-7.326425"><ele>774.3333333333334</ele><time>2026-04-15T10:51:39.866Z</time></trkpt><trkpt lat="42.5856633" lon="-7.326245"><ele>770.0</ele><time>2026-04-15T10:51:40.866Z</time></trkpt><trkpt lat="42.5857233" lon="-7.3261"><ele>770.0</ele><time>2026-04-15T10:51:41.867Z</time></trkpt><trkpt lat="42.58579" lon="-7.3260017"><ele>770.0</ele><time>2026-04-15T10:51:42.866Z</time></trkpt><trkpt lat="42.585875" lon="-7.3259533"><ele>770.0</ele><time>2026-04-15T10:51:43.867Z</time></trkpt><trkpt lat="42.58598" lon="-7.32594"><ele>770.0</ele><time>2026-04-15T10:51:44.867Z</time></trkpt><trkpt lat="42.586105" lon="-7.3259567"><ele>770.0</ele><time>2026-04-15T10:51:45.866Z</time></trkpt><trkpt lat="42.5862633" lon="-7.325945"><ele>767.3333333333334</ele><time>2026-04-15T10:51:46.867Z</time></trkpt><trkpt lat="42.5864467" lon="-7.32589"><ele>764.6666666666667</ele><time>2026-04-15T10:51:47.867Z</time></trkpt><trkpt lat="42.586635" lon="-7.3258"><ele>762.0</ele><time>2026-04-15T10:51:48.866Z</time></trkpt><trkpt lat="42.5868117" lon="-7.32566"><ele>764.6666666666667</ele><time>2026-04-15T10:51:49.867Z</time></trkpt><trkpt lat="42.58698" lon="-7.3254933"><ele>767.3333333333334</ele><time>2026-04-15T10:51:50.867Z</time></trkpt><trkpt lat="42.587135" lon="-7.3253417"><ele>770.0</ele><time>2026-04-15T10:51:51.867Z</time></trkpt><trkpt lat="42.5872717" lon="-7.3252183"><ele>770.0</ele><time>2026-04-15T10:51:52.867Z</time></trkpt><trkpt lat="42.5874033" lon="-7.325155"><ele>770.0</ele><time>2026-04-15T10:51:53.866Z</time></trkpt><trkpt lat="42.5875433" lon="-7.32515"><ele>770.0</ele><time>2026-04-15T10:51:54.867Z</time></trkpt><trkpt lat="42.5876917" lon="-7.3251783"><ele>770.0</ele><time>2026-04-15T10:51:55.866Z</time></trkpt><trkpt lat="42.5878517" lon="-7.3251783"><ele>767.3333333333334</ele><time>2026-04-15T10:51:56.866Z</time></trkpt><trkpt lat="42.588015" lon="-7.3251367"><ele>764.6666666666667</ele><time>2026-04-15T10:51:57.867Z</time></trkpt><trkpt lat="42.588185" lon="-7.3250483"><ele>762.0</ele><time>2026-04-15T10:51:58.866Z</time></trkpt><trkpt lat="42.588355" lon="-7.3249233"><ele>762.0</ele><time>2026-04-15T10:51:59.867Z</time></trkpt><trkpt lat="42.588525" lon="-7.3247933"><ele>762.0</ele><time>2026-04-15T10:52:00.866Z</time></trkpt><trkpt lat="42.5886883" lon="-7.324645"><ele>762.0</ele><time>2026-04-15T10:52:01.867Z</time></trkpt><trkpt lat="42.5888417" lon="-7.3244867"><ele>764.25</ele><time>2026-04-15T10:52:02.866Z</time></trkpt><trkpt lat="42.588965" lon="-7.3243283"><ele>766.5</ele><time>2026-04-15T10:52:03.867Z</time></trkpt><trkpt lat="42.5890567" lon="-7.32417"><ele>768.75</ele><time>2026-04-15T10:52:04.866Z</time></trkpt><trkpt lat="42.58913" lon="-7.3240533"><ele>771.0</ele><time>2026-04-15T10:52:05.866Z</time></trkpt><trkpt lat="42.5891767" lon="-7.32398"><ele>771.0</ele><time>2026-04-15T10:52:06.866Z</time></trkpt><trkpt lat="42.58926" lon="-7.3240433"><ele>771.0</ele><time>2026-04-15T10:52:09.866Z</time></trkpt><trkpt lat="42.589285" lon="-7.324155"><ele>771.0</ele><time>2026-04-15T10:52:10.867Z</time></trkpt><trkpt lat="42.5892983" lon="-7.3243217"><ele>771.0</ele><time>2026-04-15T10:52:11.866Z</time></trkpt><trkpt lat="42.5892967" lon="-7.324535"><ele>769.3333333333334</ele><time>2026-04-15T10:52:12.866Z</time></trkpt><trkpt lat="42.5892617" lon="-7.3247817"><ele>767.6666666666667</ele><time>2026-04-15T10:52:13.867Z</time></trkpt><trkpt lat="42.5891833" lon="-7.325025"><ele>766.0</ele><time>2026-04-15T10:52:14.867Z</time></trkpt><trkpt lat="42.5890683" lon="-7.3252683"><ele>766.0</ele><time>2026-04-15T10:52:15.866Z</time></trkpt><trkpt lat="42.5889417" lon="-7.325525"><ele>766.0</ele><time>2026-04-15T10:52:16.866Z</time></trkpt><trkpt lat="42.5888117" lon="-7.3258033"><ele>768.3333333333334</ele><time>2026-04-15T10:52:17.867Z</time></trkpt><trkpt lat="42.5886783" lon="-7.326075"><ele>770.6666666666667</ele><time>2026-04-15T10:52:18.867Z</time></trkpt><trkpt lat="42.5885617" lon="-7.3262833"><ele>773.0</ele><time>2026-04-15T10:52:19.867Z</time></trkpt><trkpt lat="42.588435" lon="-7.326445"><ele>767.3333333333334</ele><time>2026-04-15T10:52:20.866Z</time></trkpt><trkpt lat="42.58829" lon="-7.3265767"><ele>761.6666666666667</ele><time>2026-04-15T10:52:21.867Z</time></trkpt><trkpt lat="42.5881667" lon="-7.3267067"><ele>756.0</ele><time>2026-04-15T10:52:22.867Z</time></trkpt><trkpt lat="42.5880683" lon="-7.326865"><ele>756.0</ele><time>2026-04-15T10:52:23.867Z</time></trkpt><trkpt lat="42.58799" lon="-7.32705"><ele>756.0</ele><time>2026-04-15T10:52:24.867Z</time></trkpt><trkpt lat="42.5879517" lon="-7.3272667"><ele>756.0</ele><time>2026-04-15T10:52:25.867Z</time></trkpt><trkpt lat="42.5879433" lon="-7.3274917"><ele>755.6666666666666</ele><time>2026-04-15T10:52:26.866Z</time></trkpt><trkpt lat="42.5879817" lon="-7.3277017"><ele>755.3333333333333</ele><time>2026-04-15T10:52:27.867Z</time></trkpt><trkpt lat="42.588045" lon="-7.3278883"><ele>755.0</ele><time>2026-04-15T10:52:28.866Z</time></trkpt><trkpt lat="42.5881317" lon="-7.3280417"><ele>751.75</ele><time>2026-04-15T10:52:29.867Z</time></trkpt><trkpt lat="42.5882383" lon="-7.3281733"><ele>748.5</ele><time>2026-04-15T10:52:30.867Z</time></trkpt><trkpt lat="42.588345" lon="-7.328275"><ele>745.25</ele><time>2026-04-15T10:52:31.866Z</time></trkpt><trkpt lat="42.588445" lon="-7.32839"><ele>742.0</ele><time>2026-04-15T10:52:32.866Z</time></trkpt><trkpt lat="42.5885083" lon="-7.3285067"><ele>742.0</ele><time>2026-04-15T10:52:33.866Z</time></trkpt><trkpt lat="42.588525" lon="-7.328625"><ele>742.0</ele><time>2026-04-15T10:52:34.867Z</time></trkpt><trkpt lat="42.5885067" lon="-7.328745"><ele>742.0</ele><time>2026-04-15T10:52:35.867Z</time></trkpt><trkpt lat="42.5884667" lon="-7.3288683"><ele>742.0</ele><time>2026-04-15T10:52:36.867Z</time></trkpt><trkpt lat="42.5884083" lon="-7.329015"><ele>742.0</ele><time>2026-04-15T10:52:37.866Z</time></trkpt><trkpt lat="42.5883017" lon="-7.32921"><ele>744.0</ele><time>2026-04-15T10:52:38.866Z</time></trkpt><trkpt lat="42.5881933" lon="-7.3294167"><ele>746.0</ele><time>2026-04-15T10:52:39.866Z</time></trkpt><trkpt lat="42.5881067" lon="-7.32962"><ele>748.0</ele><time>2026-04-15T10:52:40.866Z</time></trkpt><trkpt lat="42.5880517" lon="-7.329805"><ele>750.25</ele><time>2026-04-15T10:52:41.867Z</time></trkpt><trkpt lat="42.588035" lon="-7.32998"><ele>752.5</ele><time>2026-04-15T10:52:42.866Z</time></trkpt><trkpt lat="42.5880633" lon="-7.3301433"><ele>754.75</ele><time>2026-04-15T10:52:43.867Z</time></trkpt><trkpt lat="42.588115" lon="-7.3303183"><ele>757.0</ele><time>2026-04-15T10:52:44.866Z</time></trkpt><trkpt lat="42.5881783" lon="-7.33051"><ele>755.6666666666667</ele><time>2026-04-15T10:52:45.866Z</time></trkpt><trkpt lat="42.5882417" lon="-7.3307267"><ele>754.3333333333334</ele><time>2026-04-15T10:52:46.867Z</time></trkpt><trkpt lat="42.588315" lon="-7.330945"><ele>753.0</ele><time>2026-04-15T10:52:47.866Z</time></trkpt><trkpt lat="42.5883917" lon="-7.3311433"><ele>753.0</ele><time>2026-04-15T10:52:48.867Z</time></trkpt><trkpt lat="42.5884767" lon="-7.3313117"><ele>753.0</ele><time>2026-04-15T10:52:49.866Z</time></trkpt><trkpt lat="42.5885733" lon="-7.3314483"><ele>753.0</ele><time>2026-04-15T10:52:50.867Z</time></trkpt><trkpt lat="42.5886933" lon="-7.331565"><ele>753.0</ele><time>2026-04-15T10:52:51.866Z</time></trkpt><trkpt lat="42.5888317" lon="-7.3316283"><ele>753.3333333333334</ele><time>2026-04-15T10:52:52.866Z</time></trkpt><trkpt lat="42.5889917" lon="-7.3316533"><ele>753.6666666666667</ele><time>2026-04-15T10:52:53.867Z</time></trkpt><trkpt lat="42.5891583" lon="-7.3316533"><ele>754.0</ele><time>2026-04-15T10:52:54.866Z</time></trkpt><trkpt lat="42.5893233" lon="-7.3316717"><ele>754.0</ele><time>2026-04-15T10:52:55.867Z</time></trkpt><trkpt lat="42.58946" lon="-7.3317417"><ele>754.0</ele><time>2026-04-15T10:52:56.866Z</time></trkpt><trkpt lat="42.58957" lon="-7.3318517"><ele>754.0</ele><time>2026-04-15T10:52:57.866Z</time></trkpt><trkpt lat="42.5896583" lon="-7.3320067"><ele>754.0</ele><time>2026-04-15T10:52:58.867Z</time></trkpt><trkpt lat="42.5897333" lon="-7.33221"><ele>757.6666666666667</ele><time>2026-04-15T10:52:59.866Z</time></trkpt><trkpt lat="42.5897833" lon="-7.3324533"><ele>761.3333333333334</ele><time>2026-04-15T10:53:00.867Z</time></trkpt><trkpt lat="42.5898083" lon="-7.33272"><ele>765.0</ele><time>2026-04-15T10:53:01.866Z</time></trkpt><trkpt lat="42.5898267" lon="-7.33302"><ele>763.3333333333334</ele><time>2026-04-15T10:53:02.867Z</time></trkpt><trkpt lat="42.58985" lon="-7.3332867"><ele>761.6666666666667</ele><time>2026-04-15T10:53:03.866Z</time></trkpt><trkpt lat="42.589875" lon="-7.3335117"><ele>760.0</ele><time>2026-04-15T10:53:04.866Z</time></trkpt><trkpt lat="42.5899033" lon="-7.3337167"><ele>758.75</ele><time>2026-04-15T10:53:05.866Z</time></trkpt><trkpt lat="42.589955" lon="-7.3338933"><ele>757.5</ele><time>2026-04-15T10:53:06.867Z</time></trkpt><trkpt lat="42.5900383" lon="-7.3340267"><ele>756.25</ele><time>2026-04-15T10:53:07.867Z</time></trkpt><trkpt lat="42.59016" lon="-7.3341367"><ele>755.0</ele><time>2026-04-15T10:53:08.866Z</time></trkpt><trkpt lat="42.59032" lon="-7.3342183"><ele>757.0</ele><time>2026-04-15T10:53:09.867Z</time></trkpt><trkpt lat="42.590505" lon="-7.3342883"><ele>759.0</ele><time>2026-04-15T10:53:10.867Z</time></trkpt><trkpt lat="42.5907017" lon="-7.33438"><ele>761.0</ele><time>2026-04-15T10:53:11.867Z</time></trkpt><trkpt lat="42.5908967" lon="-7.3345033"><ele>761.0</ele><time>2026-04-15T10:53:12.867Z</time></trkpt><trkpt lat="42.591095" lon="-7.3346633"><ele>761.0</ele><time>2026-04-15T10:53:13.867Z</time></trkpt><trkpt lat="42.5912567" lon="-7.3348383"><ele>761.0</ele><time>2026-04-15T10:53:14.867Z</time></trkpt><trkpt lat="42.5913767" lon="-7.33501"><ele>761.25</ele><time>2026-04-15T10:53:15.866Z</time></trkpt><trkpt lat="42.5914683" lon="-7.3351733"><ele>761.5</ele><time>2026-04-15T10:53:16.867Z</time></trkpt><trkpt lat="42.59151" lon="-7.3353317"><ele>761.75</ele><time>2026-04-15T10:53:17.866Z</time></trkpt><trkpt lat="42.5915267" lon="-7.3355217"><ele>762.0</ele><time>2026-04-15T10:53:18.866Z</time></trkpt><trkpt lat="42.5915283" lon="-7.3357333"><ele>762.6666666666666</ele><time>2026-04-15T10:53:19.866Z</time></trkpt><trkpt lat="42.5915183" lon="-7.3359783"><ele>763.3333333333333</ele><time>2026-04-15T10:53:20.866Z</time></trkpt><trkpt lat="42.5914817" lon="-7.3362183"><ele>764.0</ele><time>2026-04-15T10:53:21.867Z</time></trkpt><trkpt lat="42.5914217" lon="-7.3364683"><ele>764.3333333333333</ele><time>2026-04-15T10:53:22.866Z</time></trkpt><trkpt lat="42.591345" lon="-7.3367317"><ele>764.6666666666666</ele><time>2026-04-15T10:53:23.866Z</time></trkpt><trkpt lat="42.5912733" lon="-7.33701"><ele>765.0</ele><time>2026-04-15T10:53:24.867Z</time></trkpt><trkpt lat="42.5912333" lon="-7.337265"><ele>765.0</ele><time>2026-04-15T10:53:25.867Z</time></trkpt><trkpt lat="42.591215" lon="-7.33748"><ele>765.0</ele><time>2026-04-15T10:53:26.867Z</time></trkpt><trkpt lat="42.5912233" lon="-7.33767"><ele>765.0</ele><time>2026-04-15T10:53:27.866Z</time></trkpt><trkpt lat="42.5912683" lon="-7.3378433"><ele>765.0</ele><time>2026-04-15T10:53:28.866Z</time></trkpt><trkpt lat="42.5913467" lon="-7.337995"><ele>761.5</ele><time>2026-04-15T10:53:29.866Z</time></trkpt><trkpt lat="42.5914517" lon="-7.338115"><ele>758.0</ele><time>2026-04-15T10:53:30.866Z</time></trkpt><trkpt lat="42.5915817" lon="-7.3381967"><ele>754.5</ele><time>2026-04-15T10:53:31.866Z</time></trkpt><trkpt lat="42.5917433" lon="-7.33825"><ele>751.0</ele><time>2026-04-15T10:53:32.867Z</time></trkpt><trkpt lat="42.591925" lon="-7.33829"><ele>755.3333333333334</ele><time>2026-04-15T10:53:33.867Z</time></trkpt><trkpt lat="42.5921183" lon="-7.3383183"><ele>759.6666666666666</ele><time>2026-04-15T10:53:34.866Z</time></trkpt><trkpt lat="42.592315" lon="-7.3383617"><ele>764.0</ele><time>2026-04-15T10:53:35.867Z</time></trkpt><trkpt lat="42.5924983" lon="-7.3384383"><ele>764.0</ele><time>2026-04-15T10:53:36.867Z</time></trkpt><trkpt lat="42.592675" lon="-7.33856"><ele>764.0</ele><time>2026-04-15T10:53:37.866Z</time></trkpt><trkpt lat="42.5928467" lon="-7.3387033"><ele>764.0</ele><time>2026-04-15T10:53:38.866Z</time></trkpt><trkpt lat="42.5930067" lon="-7.338835"><ele>760.3333333333333</ele><time>2026-04-15T10:53:39.867Z</time></trkpt><trkpt lat="42.593165" lon="-7.3389333"><ele>756.6666666666666</ele><time>2026-04-15T10:53:40.866Z</time></trkpt><trkpt lat="42.5933067" lon="-7.3389833"><ele>753.0</ele><time>2026-04-15T10:53:41.866Z</time></trkpt><trkpt lat="42.5934383" lon="-7.3389717"><ele>753.0</ele><time>2026-04-15T10:53:42.867Z</time></trkpt><trkpt lat="42.5935767" lon="-7.3389183"><ele>753.0</ele><time>2026-04-15T10:53:43.867Z</time></trkpt><trkpt lat="42.59372" lon="-7.338835"><ele>753.0</ele><time>2026-04-15T10:53:44.866Z</time></trkpt><trkpt lat="42.5938767" lon="-7.3387183"><ele>755.3333333333334</ele><time>2026-04-15T10:53:45.867Z</time></trkpt><trkpt lat="42.5940317" lon="-7.33855"><ele>757.6666666666667</ele><time>2026-04-15T10:53:46.867Z</time></trkpt><trkpt lat="42.5942" lon="-7.3383583"><ele>760.0</ele><time>2026-04-15T10:53:47.867Z</time></trkpt><trkpt lat="42.5943967" lon="-7.33816"><ele>758.5</ele><time>2026-04-15T10:53:48.867Z</time></trkpt><trkpt lat="42.5946117" lon="-7.3379683"><ele>757.0</ele><time>2026-04-15T10:53:49.866Z</time></trkpt><trkpt lat="42.5948383" lon="-7.33781"><ele>757.0</ele><time>2026-04-15T10:53:50.866Z</time></trkpt><trkpt lat="42.59506" lon="-7.3376667"><ele>757.0</ele><time>2026-04-15T10:53:51.866Z</time></trkpt><trkpt lat="42.595285" lon="-7.337525"><ele>755.6666666666667</ele><time>2026-04-15T10:53:52.866Z</time></trkpt><trkpt lat="42.5954783" lon="-7.3373883"><ele>754.3333333333334</ele><time>2026-04-15T10:53:53.867Z</time></trkpt><trkpt lat="42.59564" lon="-7.337245"><ele>753.0</ele><time>2026-04-15T10:53:54.867Z</time></trkpt><trkpt lat="42.5957733" lon="-7.3371067"><ele>753.0</ele><time>2026-04-15T10:53:55.867Z</time></trkpt><trkpt lat="42.5958967" lon="-7.3369767"><ele>753.0</ele><time>2026-04-15T10:53:56.867Z</time></trkpt><trkpt lat="42.59599" lon="-7.336825"><ele>753.0</ele><time>2026-04-15T10:53:57.867Z</time></trkpt><trkpt lat="42.5960617" lon="-7.3366667"><ele>753.0</ele><time>2026-04-15T10:53:58.866Z</time></trkpt><trkpt lat="42.59611" lon="-7.3364967"><ele>754.3333333333334</ele><time>2026-04-15T10:53:59.866Z</time></trkpt><trkpt lat="42.5961333" lon="-7.336295"><ele>755.6666666666667</ele><time>2026-04-15T10:54:00.867Z</time></trkpt><trkpt lat="42.5961233" lon="-7.3360617"><ele>757.0</ele><time>2026-04-15T10:54:01.866Z</time></trkpt><trkpt lat="42.5961" lon="-7.3358167"><ele>757.0</ele><time>2026-04-15T10:54:02.866Z</time></trkpt><trkpt lat="42.5960667" lon="-7.3355867"><ele>757.0</ele><time>2026-04-15T10:54:03.867Z</time></trkpt><trkpt lat="42.5960217" lon="-7.3353817"><ele>757.0</ele><time>2026-04-15T10:54:04.866Z</time></trkpt><trkpt lat="42.595965" lon="-7.335205"><ele>752.3333333333334</ele><time>2026-04-15T10:54:05.866Z</time></trkpt><trkpt lat="42.5958867" lon="-7.3350333"><ele>747.6666666666666</ele><time>2026-04-15T10:54:06.867Z</time></trkpt><trkpt lat="42.5957917" lon="-7.33486"><ele>743.0</ele><time>2026-04-15T10:54:07.867Z</time></trkpt><trkpt lat="42.5956867" lon="-7.3346433"><ele>738.0</ele><time>2026-04-15T10:54:08.866Z</time></trkpt><trkpt lat="42.5956017" lon="-7.3344017"><ele>733.0</ele><time>2026-04-15T10:54:09.866Z</time></trkpt><trkpt lat="42.5955317" lon="-7.3341333"><ele>728.0</ele><time>2026-04-15T10:54:10.867Z</time></trkpt><trkpt lat="42.5954817" lon="-7.33385"><ele>725.3333333333333</ele><time>2026-04-15T10:54:11.866Z</time></trkpt><trkpt lat="42.5954483" lon="-7.3335583"><ele>722.6666666666666</ele><time>2026-04-15T10:54:12.867Z</time></trkpt><trkpt lat="42.5954317" lon="-7.3332683"><ele>720.0</ele><time>2026-04-15T10:54:13.866Z</time></trkpt><trkpt lat="42.5954283" lon="-7.3330017"><ele>718.25</ele><time>2026-04-15T10:54:14.866Z</time></trkpt><trkpt lat="42.5954267" lon="-7.33279"><ele>716.5</ele><time>2026-04-15T10:54:15.866Z</time></trkpt><trkpt lat="42.595415" lon="-7.3325983"><ele>714.75</ele><time>2026-04-15T10:54:16.867Z</time></trkpt><trkpt lat="42.59538" lon="-7.33241"><ele>713.0</ele><time>2026-04-15T10:54:17.867Z</time></trkpt><trkpt lat="42.59535" lon="-7.3322017"><ele>711.0</ele><time>2026-04-15T10:54:18.867Z</time></trkpt><trkpt lat="42.5953417" lon="-7.3319767"><ele>709.0</ele><time>2026-04-15T10:54:19.867Z</time></trkpt><trkpt lat="42.5953417" lon="-7.33174"><ele>707.0</ele><time>2026-04-15T10:54:20.866Z</time></trkpt><trkpt lat="42.5953317" lon="-7.33151"><ele>721.6666666666666</ele><time>2026-04-15T10:54:21.867Z</time></trkpt><trkpt lat="42.5953" lon="-7.3312767"><ele>736.3333333333334</ele><time>2026-04-15T10:54:22.867Z</time></trkpt><trkpt lat="42.595245" lon="-7.33105"><ele>751.0</ele><time>2026-04-15T10:54:23.866Z</time></trkpt><trkpt lat="42.595175" lon="-7.3308283"><ele>751.0</ele><time>2026-04-15T10:54:24.866Z</time></trkpt><trkpt lat="42.5950967" lon="-7.330615"><ele>751.0</ele><time>2026-04-15T10:54:25.866Z</time></trkpt><trkpt lat="42.595015" lon="-7.3303867"><ele>751.0</ele><time>2026-04-15T10:54:26.867Z</time></trkpt><trkpt lat="42.594945" lon="-7.330165"><ele>750.25</ele><time>2026-04-15T10:54:27.867Z</time></trkpt><trkpt lat="42.5948683" lon="-7.3299633"><ele>749.5</ele><time>2026-04-15T10:54:28.866Z</time></trkpt><trkpt lat="42.594795" lon="-7.32979"><ele>748.75</ele><time>2026-04-15T10:54:29.866Z</time></trkpt><trkpt lat="42.59473" lon="-7.3296583"><ele>748.0</ele><time>2026-04-15T10:54:30.867Z</time></trkpt><trkpt lat="42.5946917" lon="-7.3295567"><ele>748.0</ele><time>2026-04-15T10:54:31.866Z</time></trkpt><trkpt lat="42.5947083" lon="-7.3294183"><ele>748.0</ele><time>2026-04-15T10:54:33.867Z</time></trkpt><trkpt lat="42.59485" lon="-7.3293483"><ele>748.0</ele><time>2026-04-15T10:54:35.866Z</time></trkpt><trkpt lat="42.5949883" lon="-7.3293583"><ele>748.0</ele><time>2026-04-15T10:54:36.867Z</time></trkpt><trkpt lat="42.595165" lon="-7.3293983"><ele>739.25</ele><time>2026-04-15T10:54:37.866Z</time></trkpt><trkpt lat="42.5953433" lon="-7.3294433"><ele>730.5</ele><time>2026-04-15T10:54:38.867Z</time></trkpt><trkpt lat="42.5954817" lon="-7.3294467"><ele>721.75</ele><time>2026-04-15T10:54:39.866Z</time></trkpt><trkpt lat="42.5955683" lon="-7.3294183"><ele>713.0</ele><time>2026-04-15T10:54:40.867Z</time></trkpt><trkpt lat="42.5956283" lon="-7.32936"><ele>713.0</ele><time>2026-04-15T10:54:41.867Z</time></trkpt><trkpt lat="42.5956467" lon="-7.3292617"><ele>713.0</ele><time>2026-04-15T10:54:42.867Z</time></trkpt><trkpt lat="42.5956467" lon="-7.3291183"><ele>713.0</ele><time>2026-04-15T10:54:43.866Z</time></trkpt><trkpt lat="42.5956417" lon="-7.32895"><ele>713.0</ele><time>2026-04-15T10:54:44.867Z</time></trkpt><trkpt lat="42.5956467" lon="-7.3287683"><ele>713.0</ele><time>2026-04-15T10:54:45.866Z</time></trkpt><trkpt lat="42.595685" lon="-7.3285717"><ele>716.6666666666666</ele><time>2026-04-15T10:54:46.866Z</time></trkpt><trkpt lat="42.5957383" lon="-7.3283767"><ele>720.3333333333334</ele><time>2026-04-15T10:54:47.866Z</time></trkpt><trkpt lat="42.5958183" lon="-7.3281733"><ele>724.0</ele><time>2026-04-15T10:54:48.867Z</time></trkpt><trkpt lat="42.5959067" lon="-7.3279467"><ele>728.3333333333334</ele><time>2026-04-15T10:54:49.867Z</time></trkpt><trkpt lat="42.59599" lon="-7.3277117"><ele>732.6666666666666</ele><time>2026-04-15T10:54:50.866Z</time></trkpt><trkpt lat="42.5960683" lon="-7.32746"><ele>737.0</ele><time>2026-04-15T10:54:51.867Z</time></trkpt><trkpt lat="42.5961317" lon="-7.3271933"><ele>724.3333333333333</ele><time>2026-04-15T10:54:52.867Z</time></trkpt><trkpt lat="42.5961783" lon="-7.3269233"><ele>711.6666666666666</ele><time>2026-04-15T10:54:53.867Z</time></trkpt><trkpt lat="42.5962083" lon="-7.3266633"><ele>699.0</ele><time>2026-04-15T10:54:54.866Z</time></trkpt><trkpt lat="42.596235" lon="-7.326415"><ele>701.75</ele><time>2026-04-15T10:54:55.866Z</time></trkpt><trkpt lat="42.59624" lon="-7.326185"><ele>704.5</ele><time>2026-04-15T10:54:56.866Z</time></trkpt><trkpt lat="42.596245" lon="-7.325985"><ele>707.25</ele><time>2026-04-15T10:54:57.866Z</time></trkpt><trkpt lat="42.5962467" lon="-7.3258317"><ele>710.0</ele><time>2026-04-15T10:54:58.866Z</time></trkpt><trkpt lat="42.5962617" lon="-7.325725"><ele>710.0</ele><time>2026-04-15T10:54:59.867Z</time></trkpt><trkpt lat="42.5963317" lon="-7.3256017"><ele>710.0</ele><time>2026-04-15T10:55:01.866Z</time></trkpt><trkpt lat="42.596415" lon="-7.3255833"><ele>710.0</ele><time>2026-04-15T10:55:02.867Z</time></trkpt><trkpt lat="42.5965217" lon="-7.325595"><ele>710.0</ele><time>2026-04-15T10:55:03.867Z</time></trkpt><trkpt lat="42.5966483" lon="-7.325605"><ele>710.0</ele><time>2026-04-15T10:55:04.866Z</time></trkpt><trkpt lat="42.5967717" lon="-7.325565"><ele>709.25</ele><time>2026-04-15T10:55:05.866Z</time></trkpt><trkpt lat="42.5968717" lon="-7.3254517"><ele>708.5</ele><time>2026-04-15T10:55:06.866Z</time></trkpt><trkpt lat="42.5969467" lon="-7.3252983"><ele>707.75</ele><time>2026-04-15T10:55:07.866Z</time></trkpt><trkpt lat="42.5970017" lon="-7.3251033"><ele>707.0</ele><time>2026-04-15T10:55:08.867Z</time></trkpt><trkpt lat="42.59706" lon="-7.3248783"><ele>709.0</ele><time>2026-04-15T10:55:09.866Z</time></trkpt><trkpt lat="42.5971467" lon="-7.3246417"><ele>711.0</ele><time>2026-04-15T10:55:10.866Z</time></trkpt><trkpt lat="42.5972333" lon="-7.3243817"><ele>713.0</ele><time>2026-04-15T10:55:11.866Z</time></trkpt><trkpt lat="42.5973017" lon="-7.3241233"><ele>715.0</ele><time>2026-04-15T10:55:12.866Z</time></trkpt><trkpt lat="42.5973633" lon="-7.3238867"><ele>717.0</ele><time>2026-04-15T10:55:13.867Z</time></trkpt><trkpt lat="42.5974017" lon="-7.3236617"><ele>719.0</ele><time>2026-04-15T10:55:14.867Z</time></trkpt><trkpt lat="42.597445" lon="-7.3234817"><ele>719.0</ele><time>2026-04-15T10:55:15.866Z</time></trkpt><trkpt lat="42.5974917" lon="-7.3233567"><ele>719.0</ele><time>2026-04-15T10:55:16.866Z</time></trkpt><trkpt lat="42.5975483" lon="-7.3233117"><ele>719.0</ele><time>2026-04-15T10:55:17.867Z</time></trkpt><trkpt lat="42.597665" lon="-7.323315"><ele>719.0</ele><time>2026-04-15T10:55:19.866Z</time></trkpt><trkpt lat="42.5977283" lon="-7.3233867"><ele>719.0</ele><time>2026-04-15T10:55:20.867Z</time></trkpt><trkpt lat="42.5977867" lon="-7.323495"><ele>719.0</ele><time>2026-04-15T10:55:21.867Z</time></trkpt><trkpt lat="42.597835" lon="-7.323645"><ele>719.0</ele><time>2026-04-15T10:55:22.867Z</time></trkpt><trkpt lat="42.5978783" lon="-7.3238583"><ele>719.0</ele><time>2026-04-15T10:55:23.867Z</time></trkpt><trkpt lat="42.5978983" lon="-7.3240983"><ele>715.0</ele><time>2026-04-15T10:55:24.867Z</time></trkpt><trkpt lat="42.5979033" lon="-7.324335"><ele>711.0</ele><time>2026-04-15T10:55:25.867Z</time></trkpt><trkpt lat="42.59786" lon="-7.3245667"><ele>707.0</ele><time>2026-04-15T10:55:26.866Z</time></trkpt><trkpt lat="42.597785" lon="-7.3247867"><ele>707.0</ele><time>2026-04-15T10:55:27.866Z</time></trkpt><trkpt lat="42.5977267" lon="-7.3250133"><ele>707.0</ele><time>2026-04-15T10:55:28.867Z</time></trkpt><trkpt lat="42.5976983" lon="-7.325245"><ele>707.0</ele><time>2026-04-15T10:55:29.867Z</time></trkpt><trkpt lat="42.5976833" lon="-7.3254967"><ele>705.6666666666666</ele><time>2026-04-15T10:55:30.867Z</time></trkpt><trkpt lat="42.597655" lon="-7.325755"><ele>704.3333333333334</ele><time>2026-04-15T10:55:31.867Z</time></trkpt><trkpt lat="42.5976133" lon="-7.32599"><ele>703.0</ele><time>2026-04-15T10:55:32.867Z</time></trkpt><trkpt lat="42.59753" lon="-7.326215"><ele>705.3333333333334</ele><time>2026-04-15T10:55:33.866Z</time></trkpt><trkpt lat="42.5974" lon="-7.3264283"><ele>707.6666666666666</ele><time>2026-04-15T10:55:34.867Z</time></trkpt><trkpt lat="42.5972667" lon="-7.3266183"><ele>710.0</ele><time>2026-04-15T10:55:35.866Z</time></trkpt><trkpt lat="42.59716" lon="-7.32679"><ele>710.0</ele><time>2026-04-15T10:55:36.866Z</time></trkpt><trkpt lat="42.5970883" lon="-7.3269483"><ele>710.0</ele><time>2026-04-15T10:55:37.866Z</time></trkpt><trkpt lat="42.5970483" lon="-7.3271183"><ele>710.0</ele><time>2026-04-15T10:55:38.867Z</time></trkpt><trkpt lat="42.597055" lon="-7.3273017"><ele>710.0</ele><time>2026-04-15T10:55:39.867Z</time></trkpt><trkpt lat="42.5970983" lon="-7.3275117"><ele>711.0</ele><time>2026-04-15T10:55:40.867Z</time></trkpt><trkpt lat="42.5971517" lon="-7.3277667"><ele>712.0</ele><time>2026-04-15T10:55:41.867Z</time></trkpt><trkpt lat="42.597175" lon="-7.3280367"><ele>713.0</ele><time>2026-04-15T10:55:42.867Z</time></trkpt><trkpt lat="42.5971617" lon="-7.3282883"><ele>713.0</ele><time>2026-04-15T10:55:43.866Z</time></trkpt><trkpt lat="42.5971167" lon="-7.3285217"><ele>713.0</ele><time>2026-04-15T10:55:44.866Z</time></trkpt><trkpt lat="42.5970483" lon="-7.3287267"><ele>713.0</ele><time>2026-04-15T10:55:45.866Z</time></trkpt><trkpt lat="42.5970033" lon="-7.3289167"><ele>712.25</ele><time>2026-04-15T10:55:46.867Z</time></trkpt><trkpt lat="42.596985" lon="-7.3290733"><ele>711.5</ele><time>2026-04-15T10:55:47.866Z</time></trkpt><trkpt lat="42.597005" lon="-7.3292283"><ele>710.75</ele><time>2026-04-15T10:55:48.866Z</time></trkpt><trkpt lat="42.5970617" lon="-7.329405"><ele>710.0</ele><time>2026-04-15T10:55:49.866Z</time></trkpt><trkpt lat="42.597135" lon="-7.3296"><ele>709.75</ele><time>2026-04-15T10:55:50.867Z</time></trkpt><trkpt lat="42.59718" lon="-7.329795"><ele>709.5</ele><time>2026-04-15T10:55:51.866Z</time></trkpt><trkpt lat="42.5972117" lon="-7.3299917"><ele>709.25</ele><time>2026-04-15T10:55:52.866Z</time></trkpt><trkpt lat="42.5972267" lon="-7.3301783"><ele>709.0</ele><time>2026-04-15T10:55:53.867Z</time></trkpt><trkpt lat="42.5972217" lon="-7.330365"><ele>709.0</ele><time>2026-04-15T10:55:54.867Z</time></trkpt><trkpt lat="42.5972233" lon="-7.33054"><ele>709.0</ele><time>2026-04-15T10:55:55.866Z</time></trkpt><trkpt lat="42.5972233" lon="-7.3307117"><ele>709.0</ele><time>2026-04-15T10:55:56.866Z</time></trkpt><trkpt lat="42.597235" lon="-7.3308817"><ele>709.0</ele><time>2026-04-15T10:55:57.866Z</time></trkpt><trkpt lat="42.5972667" lon="-7.3310717"><ele>709.6666666666667</ele><time>2026-04-15T10:55:58.866Z</time></trkpt><trkpt lat="42.5973133" lon="-7.3312667"><ele>710.3333333333334</ele><time>2026-04-15T10:55:59.866Z</time></trkpt><trkpt lat="42.5973817" lon="-7.331465"><ele>711.0</ele><time>2026-04-15T10:56:00.867Z</time></trkpt><trkpt lat="42.59747" lon="-7.33166"><ele>709.5</ele><time>2026-04-15T10:56:01.867Z</time></trkpt><trkpt lat="42.597555" lon="-7.33184"><ele>708.0</ele><time>2026-04-15T10:56:02.867Z</time></trkpt><trkpt lat="42.597635" lon="-7.3319867"><ele>706.5</ele><time>2026-04-15T10:56:03.867Z</time></trkpt><trkpt lat="42.5977183" lon="-7.332135"><ele>705.0</ele><time>2026-04-15T10:56:04.866Z</time></trkpt><trkpt lat="42.5978167" lon="-7.3322817"><ele>714.75</ele><time>2026-04-15T10:56:05.867Z</time></trkpt><trkpt lat="42.5979083" lon="-7.33242"><ele>724.5</ele><time>2026-04-15T10:56:06.867Z</time></trkpt><trkpt lat="42.5979967" lon="-7.3325683"><ele>734.25</ele><time>2026-04-15T10:56:07.867Z</time></trkpt><trkpt lat="42.5980733" lon="-7.3327467"><ele>744.0</ele><time>2026-04-15T10:56:08.867Z</time></trkpt><trkpt lat="42.598155" lon="-7.3329233"><ele>739.0</ele><time>2026-04-15T10:56:09.866Z</time></trkpt><trkpt lat="42.59823" lon="-7.3331117"><ele>734.0</ele><time>2026-04-15T10:56:10.867Z</time></trkpt><trkpt lat="42.5983033" lon="-7.3333067"><ele>729.0</ele><time>2026-04-15T10:56:11.866Z</time></trkpt><trkpt lat="42.598395" lon="-7.333485"><ele>729.0</ele><time>2026-04-15T10:56:12.866Z</time></trkpt><trkpt lat="42.5984733" lon="-7.3336417"><ele>729.0</ele><time>2026-04-15T10:56:13.867Z</time></trkpt><trkpt lat="42.5985433" lon="-7.3337617"><ele>729.0</ele><time>2026-04-15T10:56:14.867Z</time></trkpt><trkpt lat="42.5986183" lon="-7.333825"><ele>729.0</ele><time>2026-04-15T10:56:15.866Z</time></trkpt><trkpt lat="42.5986933" lon="-7.33385"><ele>729.0</ele><time>2026-04-15T10:56:16.866Z</time></trkpt><trkpt lat="42.598785" lon="-7.3338367"><ele>734.0</ele><time>2026-04-15T10:56:17.867Z</time></trkpt><trkpt lat="42.5988767" lon="-7.3337933"><ele>739.0</ele><time>2026-04-15T10:56:18.867Z</time></trkpt><trkpt lat="42.5989717" lon="-7.33373"><ele>744.0</ele><time>2026-04-15T10:56:19.866Z</time></trkpt><trkpt lat="42.5990583" lon="-7.3336467"><ele>749.0</ele><time>2026-04-15T10:56:20.866Z</time></trkpt><trkpt lat="42.59915" lon="-7.3335383"><ele>754.0</ele><time>2026-04-15T10:56:21.866Z</time></trkpt><trkpt lat="42.5992567" lon="-7.3334183"><ele>754.0</ele><time>2026-04-15T10:56:22.866Z</time></trkpt><trkpt lat="42.5993583" lon="-7.3333067"><ele>754.0</ele><time>2026-04-15T10:56:23.866Z</time></trkpt><trkpt lat="42.5994533" lon="-7.3331917"><ele>754.0</ele><time>2026-04-15T10:56:24.866Z</time></trkpt><trkpt lat="42.59954" lon="-7.333065"><ele>754.0</ele><time>2026-04-15T10:56:25.866Z</time></trkpt><trkpt lat="42.5996333" lon="-7.332935"><ele>757.5</ele><time>2026-04-15T10:56:26.867Z</time></trkpt><trkpt lat="42.5997317" lon="-7.3328133"><ele>761.0</ele><time>2026-04-15T10:56:27.866Z</time></trkpt><trkpt lat="42.5998283" lon="-7.33269"><ele>764.5</ele><time>2026-04-15T10:56:28.867Z</time></trkpt><trkpt lat="42.5999317" lon="-7.3325583"><ele>768.0</ele><time>2026-04-15T10:56:29.866Z</time></trkpt><trkpt lat="42.6000367" lon="-7.33242"><ele>768.0</ele><time>2026-04-15T10:56:30.866Z</time></trkpt><trkpt lat="42.6001567" lon="-7.332275"><ele>768.0</ele><time>2026-04-15T10:56:31.867Z</time></trkpt><trkpt lat="42.6002633" lon="-7.3321083"><ele>768.0</ele><time>2026-04-15T10:56:32.866Z</time></trkpt><trkpt lat="42.6003617" lon="-7.3319317"><ele>767.6666666666666</ele><time>2026-04-15T10:56:33.866Z</time></trkpt><trkpt lat="42.6004517" lon="-7.331745"><ele>767.3333333333333</ele><time>2026-04-15T10:56:34.866Z</time></trkpt><trkpt lat="42.6005367" lon="-7.331525"><ele>767.0</ele><time>2026-04-15T10:56:35.866Z</time></trkpt><trkpt lat="42.600615" lon="-7.33128"><ele>772.6666666666666</ele><time>2026-04-15T10:56:36.866Z</time></trkpt><trkpt lat="42.600695" lon="-7.3310467"><ele>778.3333333333333</ele><time>2026-04-15T10:56:37.866Z</time></trkpt><trkpt lat="42.6007783" lon="-7.3308033"><ele>784.0</ele><time>2026-04-15T10:56:38.867Z</time></trkpt><trkpt lat="42.600865" lon="-7.33054"><ele>790.3333333333333</ele><time>2026-04-15T10:56:39.867Z</time></trkpt><trkpt lat="42.6009667" lon="-7.330275"><ele>796.6666666666667</ele><time>2026-04-15T10:56:40.867Z</time></trkpt><trkpt lat="42.6010683" lon="-7.33003"><ele>803.0</ele><time>2026-04-15T10:56:41.867Z</time></trkpt><trkpt lat="42.6011633" lon="-7.3298033"><ele>800.6666666666667</ele><time>2026-04-15T10:56:42.867Z</time></trkpt><trkpt lat="42.6012667" lon="-7.3295917"><ele>798.3333333333333</ele><time>2026-04-15T10:56:43.866Z</time></trkpt><trkpt lat="42.6013883" lon="-7.3293983"><ele>796.0</ele><time>2026-04-15T10:56:44.867Z</time></trkpt><trkpt lat="42.6015317" lon="-7.3292217"><ele>796.0</ele><time>2026-04-15T10:56:45.866Z</time></trkpt><trkpt lat="42.6016983" lon="-7.32906"><ele>796.0</ele><time>2026-04-15T10:56:46.866Z</time></trkpt><trkpt lat="42.6018683" lon="-7.32892"><ele>796.0</ele><time>2026-04-15T10:56:47.867Z</time></trkpt><trkpt lat="42.6020483" lon="-7.328795"><ele>799.0</ele><time>2026-04-15T10:56:48.866Z</time></trkpt><trkpt lat="42.602235" lon="-7.32869"><ele>802.0</ele><time>2026-04-15T10:56:49.866Z</time></trkpt><trkpt lat="42.6024417" lon="-7.328595"><ele>805.0</ele><time>2026-04-15T10:56:50.867Z</time></trkpt><trkpt lat="42.6026467" lon="-7.328515"><ele>799.3333333333333</ele><time>2026-04-15T10:56:51.866Z</time></trkpt><trkpt lat="42.602835" lon="-7.3284433"><ele>793.6666666666667</ele><time>2026-04-15T10:56:52.867Z</time></trkpt><trkpt lat="42.6030033" lon="-7.32838"><ele>788.0</ele><time>2026-04-15T10:56:53.867Z</time></trkpt><trkpt lat="42.603145" lon="-7.32832"><ele>788.0</ele><time>2026-04-15T10:56:54.867Z</time></trkpt><trkpt lat="42.6032617" lon="-7.328265"><ele>788.0</ele><time>2026-04-15T10:56:55.867Z</time></trkpt><trkpt lat="42.603365" lon="-7.32821"><ele>788.0</ele><time>2026-04-15T10:56:56.867Z</time></trkpt><trkpt lat="42.6034767" lon="-7.3281633"><ele>788.0</ele><time>2026-04-15T10:56:57.866Z</time></trkpt><trkpt lat="42.6035817" lon="-7.328095"><ele>786.5</ele><time>2026-04-15T10:56:58.867Z</time></trkpt><trkpt lat="42.6036917" lon="-7.3280067"><ele>785.0</ele><time>2026-04-15T10:56:59.867Z</time></trkpt><trkpt lat="42.603805" lon="-7.327925"><ele>783.5</ele><time>2026-04-15T10:57:00.866Z</time></trkpt><trkpt lat="42.6039217" lon="-7.3278317"><ele>782.0</ele><time>2026-04-15T10:57:01.866Z</time></trkpt><trkpt lat="42.604035" lon="-7.3277383"><ele>782.0</ele><time>2026-04-15T10:57:02.866Z</time></trkpt><trkpt lat="42.6041567" lon="-7.3276517"><ele>782.0</ele><time>2026-04-15T10:57:03.866Z</time></trkpt><trkpt lat="42.604265" lon="-7.3275783"><ele>782.0</ele><time>2026-04-15T10:57:04.866Z</time></trkpt><trkpt lat="42.60436" lon="-7.3275133"><ele>782.0</ele><time>2026-04-15T10:57:05.867Z</time></trkpt><trkpt lat="42.6044433" lon="-7.3274717"><ele>782.0</ele><time>2026-04-15T10:57:06.867Z</time></trkpt><trkpt lat="42.60451" lon="-7.3274683"><ele>782.0</ele><time>2026-04-15T10:57:07.867Z</time></trkpt><trkpt lat="42.60458" lon="-7.3275617"><ele>782.0</ele><time>2026-04-15T10:57:09.867Z</time></trkpt><trkpt lat="42.6045567" lon="-7.3276833"><ele>782.0</ele><time>2026-04-15T10:57:10.867Z</time></trkpt><trkpt lat="42.60452" lon="-7.327805"><ele>782.0</ele><time>2026-04-15T10:57:11.866Z</time></trkpt><trkpt lat="42.6044633" lon="-7.327935"><ele>777.6666666666667</ele><time>2026-04-15T10:57:12.866Z</time></trkpt><trkpt lat="42.6044067" lon="-7.32811"><ele>773.3333333333333</ele><time>2026-04-15T10:57:13.866Z</time></trkpt><trkpt lat="42.6043717" lon="-7.32832"><ele>769.0</ele><time>2026-04-15T10:57:14.866Z</time></trkpt><trkpt lat="42.6043517" lon="-7.328525"><ele>769.0</ele><time>2026-04-15T10:57:15.866Z</time></trkpt><trkpt lat="42.604355" lon="-7.3286783"><ele>769.0</ele><time>2026-04-15T10:57:16.867Z</time></trkpt><trkpt lat="42.604395" lon="-7.3287817"><ele>769.0</ele><time>2026-04-15T10:57:17.866Z</time></trkpt><trkpt lat="42.6044667" lon="-7.3288483"><ele>769.0</ele><time>2026-04-15T10:57:18.866Z</time></trkpt><trkpt lat="42.60456" lon="-7.3288767"><ele>769.0</ele><time>2026-04-15T10:57:19.867Z</time></trkpt><trkpt lat="42.6046783" lon="-7.3289017"><ele>770.0</ele><time>2026-04-15T10:57:20.866Z</time></trkpt><trkpt lat="42.6048117" lon="-7.328935"><ele>771.0</ele><time>2026-04-15T10:57:21.866Z</time></trkpt><trkpt lat="42.6049383" lon="-7.3289717"><ele>772.0</ele><time>2026-04-15T10:57:22.866Z</time></trkpt><trkpt lat="42.6050517" lon="-7.3290267"><ele>773.0</ele><time>2026-04-15T10:57:23.867Z</time></trkpt><trkpt lat="42.6051517" lon="-7.3290833"><ele>773.0</ele><time>2026-04-15T10:57:24.866Z</time></trkpt><trkpt lat="42.6052267" lon="-7.329165"><ele>773.0</ele><time>2026-04-15T10:57:25.866Z</time></trkpt><trkpt lat="42.605275" lon="-7.3292367"><ele>773.0</ele><time>2026-04-15T10:57:26.866Z</time></trkpt><trkpt lat="42.60529" lon="-7.32937"><ele>773.0</ele><time>2026-04-15T10:57:28.867Z</time></trkpt><trkpt lat="42.605205" lon="-7.329515"><ele>773.0</ele><time>2026-04-15T10:57:30.867Z</time></trkpt><trkpt lat="42.60513" lon="-7.3296017"><ele>773.0</ele><time>2026-04-15T10:57:31.867Z</time></trkpt><trkpt lat="42.6050367" lon="-7.3297033"><ele>773.0</ele><time>2026-04-15T10:57:32.867Z</time></trkpt><trkpt lat="42.6049283" lon="-7.3298033"><ele>773.0</ele><time>2026-04-15T10:57:33.867Z</time></trkpt><trkpt lat="42.604825" lon="-7.3298983"><ele>773.0</ele><time>2026-04-15T10:57:34.866Z</time></trkpt><trkpt lat="42.604735" lon="-7.3299817"><ele>774.25</ele><time>2026-04-15T10:57:35.866Z</time></trkpt><trkpt lat="42.6046317" lon="-7.330055"><ele>775.5</ele><time>2026-04-15T10:57:36.867Z</time></trkpt><trkpt lat="42.604505" lon="-7.33014"><ele>776.75</ele><time>2026-04-15T10:57:37.867Z</time></trkpt><trkpt lat="42.6043767" lon="-7.3302517"><ele>778.0</ele><time>2026-04-15T10:57:38.867Z</time></trkpt><trkpt lat="42.604245" lon="-7.3303833"><ele>778.75</ele><time>2026-04-15T10:57:39.867Z</time></trkpt><trkpt lat="42.60412" lon="-7.33051"><ele>779.5</ele><time>2026-04-15T10:57:40.866Z</time></trkpt><trkpt lat="42.6040117" lon="-7.3306317"><ele>780.25</ele><time>2026-04-15T10:57:41.866Z</time></trkpt><trkpt lat="42.6039217" lon="-7.330745"><ele>781.0</ele><time>2026-04-15T10:57:42.867Z</time></trkpt><trkpt lat="42.6038517" lon="-7.33087"><ele>781.0</ele><time>2026-04-15T10:57:43.867Z</time></trkpt><trkpt lat="42.6037917" lon="-7.3310483"><ele>781.0</ele><time>2026-04-15T10:57:44.866Z</time></trkpt><trkpt lat="42.6037567" lon="-7.3312633"><ele>781.0</ele><time>2026-04-15T10:57:45.867Z</time></trkpt><trkpt lat="42.603745" lon="-7.33146"><ele>782.75</ele><time>2026-04-15T10:57:46.867Z</time></trkpt><trkpt lat="42.6037417" lon="-7.3316417"><ele>784.5</ele><time>2026-04-15T10:57:47.866Z</time></trkpt><trkpt lat="42.60377" lon="-7.331815"><ele>786.25</ele><time>2026-04-15T10:57:48.866Z</time></trkpt><trkpt lat="42.6038333" lon="-7.3319917"><ele>788.0</ele><time>2026-04-15T10:57:49.867Z</time></trkpt><trkpt lat="42.6039117" lon="-7.33219"><ele>788.3333333333334</ele><time>2026-04-15T10:57:50.867Z</time></trkpt><trkpt lat="42.6039883" lon="-7.3324017"><ele>788.6666666666667</ele><time>2026-04-15T10:57:51.867Z</time></trkpt><trkpt lat="42.6040667" lon="-7.3326083"><ele>789.0</ele><time>2026-04-15T10:57:52.867Z</time></trkpt><trkpt lat="42.6041467" lon="-7.3327833"><ele>789.0</ele><time>2026-04-15T10:57:53.866Z</time></trkpt><trkpt lat="42.6042317" lon="-7.3328933"><ele>789.0</ele><time>2026-04-15T10:57:54.867Z</time></trkpt><trkpt lat="42.6043167" lon="-7.33294"><ele>789.0</ele><time>2026-04-15T10:57:55.867Z</time></trkpt><trkpt lat="42.6044117" lon="-7.332935"><ele>789.0</ele><time>2026-04-15T10:57:56.867Z</time></trkpt><trkpt lat="42.6045383" lon="-7.332905"><ele>789.0</ele><time>2026-04-15T10:57:57.867Z</time></trkpt><trkpt lat="42.604685" lon="-7.332855"><ele>791.6666666666667</ele><time>2026-04-15T10:57:58.867Z</time></trkpt><trkpt lat="42.6048517" lon="-7.3328133"><ele>794.3333333333334</ele><time>2026-04-15T10:57:59.866Z</time></trkpt><trkpt lat="42.605045" lon="-7.3328083"><ele>797.0</ele><time>2026-04-15T10:58:00.866Z</time></trkpt><trkpt lat="42.60526" lon="-7.3328367"><ele>799.6666666666667</ele><time>2026-04-15T10:58:01.867Z</time></trkpt><trkpt lat="42.6054683" lon="-7.3328783"><ele>802.3333333333333</ele><time>2026-04-15T10:58:02.866Z</time></trkpt><trkpt lat="42.6056417" lon="-7.3329217"><ele>805.0</ele><time>2026-04-15T10:58:03.867Z</time></trkpt><trkpt lat="42.6057817" lon="-7.333"><ele>805.0</ele><time>2026-04-15T10:58:04.866Z</time></trkpt><trkpt lat="42.6059183" lon="-7.3331133"><ele>805.0</ele><time>2026-04-15T10:58:05.867Z</time></trkpt><trkpt lat="42.606055" lon="-7.3332483"><ele>805.0</ele><time>2026-04-15T10:58:06.866Z</time></trkpt><trkpt lat="42.6061983" lon="-7.333375"><ele>808.25</ele><time>2026-04-15T10:58:07.867Z</time></trkpt><trkpt lat="42.606325" lon="-7.3334867"><ele>811.5</ele><time>2026-04-15T10:58:08.866Z</time></trkpt><trkpt lat="42.6064333" lon="-7.3336017"><ele>814.75</ele><time>2026-04-15T10:58:09.866Z</time></trkpt><trkpt lat="42.606515" lon="-7.3337283"><ele>818.0</ele><time>2026-04-15T10:58:10.866Z</time></trkpt><trkpt lat="42.6065683" lon="-7.33386"><ele>817.75</ele><time>2026-04-15T10:58:11.866Z</time></trkpt><trkpt lat="42.6065967" lon="-7.334005"><ele>817.5</ele><time>2026-04-15T10:58:12.867Z</time></trkpt><trkpt lat="42.606595" lon="-7.3341633"><ele>817.25</ele><time>2026-04-15T10:58:13.866Z</time></trkpt><trkpt lat="42.606575" lon="-7.33434"><ele>817.0</ele><time>2026-04-15T10:58:14.866Z</time></trkpt><trkpt lat="42.6065367" lon="-7.3345483"><ele>817.6666666666666</ele><time>2026-04-15T10:58:15.867Z</time></trkpt><trkpt lat="42.606475" lon="-7.3347633"><ele>818.3333333333333</ele><time>2026-04-15T10:58:16.866Z</time></trkpt><trkpt lat="42.6064033" lon="-7.3349867"><ele>819.0</ele><time>2026-04-15T10:58:17.866Z</time></trkpt><trkpt lat="42.6063333" lon="-7.335235"><ele>819.0</ele><time>2026-04-15T10:58:18.866Z</time></trkpt><trkpt lat="42.6062733" lon="-7.33549"><ele>819.0</ele><time>2026-04-15T10:58:19.867Z</time></trkpt><trkpt lat="42.6062333" lon="-7.3357333"><ele>819.0</ele><time>2026-04-15T10:58:20.866Z</time></trkpt><trkpt lat="42.606225" lon="-7.3359683"><ele>818.5</ele><time>2026-04-15T10:58:21.867Z</time></trkpt><trkpt lat="42.606225" lon="-7.3361817"><ele>818.0</ele><time>2026-04-15T10:58:22.866Z</time></trkpt><trkpt lat="42.60625" lon="-7.336385"><ele>817.5</ele><time>2026-04-15T10:58:23.867Z</time></trkpt><trkpt lat="42.6062933" lon="-7.33655"><ele>817.0</ele><time>2026-04-15T10:58:24.867Z</time></trkpt><trkpt lat="42.606345" lon="-7.3366767"><ele>816.5</ele><time>2026-04-15T10:58:25.866Z</time></trkpt><trkpt lat="42.60638" lon="-7.336775"><ele>816.0</ele><time>2026-04-15T10:58:26.866Z</time></trkpt><trkpt lat="42.6063883" lon="-7.3369217"><ele>815.5</ele><time>2026-04-15T10:58:28.866Z</time></trkpt><trkpt lat="42.60628" lon="-7.3370683"><ele>815.0</ele><time>2026-04-15T10:58:30.866Z</time></trkpt><trkpt lat="42.6061833" lon="-7.3371483"><ele>813.8</ele><time>2026-04-15T10:58:31.867Z</time></trkpt><trkpt lat="42.6060983" lon="-7.3372367"><ele>812.6</ele><time>2026-04-15T10:58:32.867Z</time></trkpt><trkpt lat="42.6060183" lon="-7.3373183"><ele>811.4000000000001</ele><time>2026-04-15T10:58:33.867Z</time></trkpt><trkpt lat="42.60595" lon="-7.337405"><ele>810.2</ele><time>2026-04-15T10:58:34.867Z</time></trkpt><trkpt lat="42.6058817" lon="-7.337505"><ele>809.0</ele><time>2026-04-15T10:58:35.866Z</time></trkpt><trkpt lat="42.6058083" lon="-7.3376167"><ele>809.0</ele><time>2026-04-15T10:58:36.866Z</time></trkpt><trkpt lat="42.6057383" lon="-7.3377467"><ele>809.0</ele><time>2026-04-15T10:58:37.867Z</time></trkpt><trkpt lat="42.6056767" lon="-7.3378767"><ele>809.0</ele><time>2026-04-15T10:58:38.866Z</time></trkpt><trkpt lat="42.6056217" lon="-7.3380117"><ele>809.0</ele><time>2026-04-15T10:58:39.866Z</time></trkpt><trkpt lat="42.6055733" lon="-7.3381567"><ele>807.25</ele><time>2026-04-15T10:58:40.867Z</time></trkpt><trkpt lat="42.6055283" lon="-7.3383033"><ele>805.5</ele><time>2026-04-15T10:58:41.867Z</time></trkpt><trkpt lat="42.6054867" lon="-7.3384483"><ele>803.75</ele><time>2026-04-15T10:58:42.866Z</time></trkpt><trkpt lat="42.60545" lon="-7.3385933"><ele>802.0</ele><time>2026-04-15T10:58:43.867Z</time></trkpt><trkpt lat="42.60541" lon="-7.33874"><ele>802.25</ele><time>2026-04-15T10:58:44.866Z</time></trkpt><trkpt lat="42.60538" lon="-7.3389033"><ele>802.5</ele><time>2026-04-15T10:58:45.867Z</time></trkpt><trkpt lat="42.6053533" lon="-7.3390583"><ele>802.75</ele><time>2026-04-15T10:58:46.866Z</time></trkpt><trkpt lat="42.6053167" lon="-7.3392167"><ele>803.0</ele><time>2026-04-15T10:58:47.866Z</time></trkpt><trkpt lat="42.60528" lon="-7.3393683"><ele>803.0</ele><time>2026-04-15T10:58:48.866Z</time></trkpt><trkpt lat="42.60525" lon="-7.33952"><ele>803.0</ele><time>2026-04-15T10:58:49.867Z</time></trkpt><trkpt lat="42.6052167" lon="-7.3396667"><ele>803.0</ele><time>2026-04-15T10:58:50.867Z</time></trkpt><trkpt lat="42.6051833" lon="-7.33981"><ele>803.0</ele><time>2026-04-15T10:58:51.867Z</time></trkpt><trkpt lat="42.6051383" lon="-7.3399433"><ele>803.0</ele><time>2026-04-15T10:58:52.866Z</time></trkpt><trkpt lat="42.6050917" lon="-7.34007"><ele>802.0</ele><time>2026-04-15T10:58:53.867Z</time></trkpt><trkpt lat="42.6050283" lon="-7.340185"><ele>801.0</ele><time>2026-04-15T10:58:54.866Z</time></trkpt><trkpt lat="42.6049483" lon="-7.3403117"><ele>800.0</ele><time>2026-04-15T10:58:55.867Z</time></trkpt><trkpt lat="42.60486" lon="-7.3404267"><ele>799.0</ele><time>2026-04-15T10:58:56.866Z</time></trkpt><trkpt lat="42.6047683" lon="-7.340525"><ele>798.75</ele><time>2026-04-15T10:58:57.866Z</time></trkpt><trkpt lat="42.6046783" lon="-7.3406417"><ele>798.5</ele><time>2026-04-15T10:58:58.866Z</time></trkpt><trkpt lat="42.6045917" lon="-7.3407567"><ele>798.25</ele><time>2026-04-15T10:58:59.866Z</time></trkpt><trkpt lat="42.6045133" lon="-7.34087"><ele>798.0</ele><time>2026-04-15T10:59:00.866Z</time></trkpt><trkpt lat="42.6044317" lon="-7.3409883"><ele>798.0</ele><time>2026-04-15T10:59:01.866Z</time></trkpt><trkpt lat="42.60435" lon="-7.3411167"><ele>798.0</ele><time>2026-04-15T10:59:02.867Z</time></trkpt><trkpt lat="42.60427" lon="-7.3412467"><ele>798.0</ele><time>2026-04-15T10:59:03.866Z</time></trkpt><trkpt lat="42.604195" lon="-7.341375"><ele>798.0</ele><time>2026-04-15T10:59:04.866Z</time></trkpt><trkpt lat="42.60412" lon="-7.341515"><ele>794.0</ele><time>2026-04-15T10:59:05.866Z</time></trkpt><trkpt lat="42.6040517" lon="-7.3416583"><ele>790.0</ele><time>2026-04-15T10:59:06.866Z</time></trkpt><trkpt lat="42.6039817" lon="-7.341795"><ele>786.0</ele><time>2026-04-15T10:59:07.866Z</time></trkpt><trkpt lat="42.6039233" lon="-7.3419367"><ele>782.0</ele><time>2026-04-15T10:59:08.867Z</time></trkpt><trkpt lat="42.6038683" lon="-7.3420783"><ele>782.5</ele><time>2026-04-15T10:59:09.866Z</time></trkpt><trkpt lat="42.603805" lon="-7.3422167"><ele>783.0</ele><time>2026-04-15T10:59:10.866Z</time></trkpt><trkpt lat="42.6037367" lon="-7.3423617"><ele>783.5</ele><time>2026-04-15T10:59:11.866Z</time></trkpt><trkpt lat="42.6036683" lon="-7.3425067"><ele>784.0</ele><time>2026-04-15T10:59:12.866Z</time></trkpt><trkpt lat="42.6035983" lon="-7.3426467"><ele>784.0</ele><time>2026-04-15T10:59:13.866Z</time></trkpt><trkpt lat="42.6035283" lon="-7.3427733"><ele>784.0</ele><time>2026-04-15T10:59:14.866Z</time></trkpt><trkpt lat="42.6034517" lon="-7.3429033"><ele>784.0</ele><time>2026-04-15T10:59:15.867Z</time></trkpt><trkpt lat="42.6033783" lon="-7.3430367"><ele>784.0</ele><time>2026-04-15T10:59:16.866Z</time></trkpt><trkpt lat="42.6033033" lon="-7.34316"><ele>780.75</ele><time>2026-04-15T10:59:17.867Z</time></trkpt><trkpt lat="42.6032233" lon="-7.3432733"><ele>777.5</ele><time>2026-04-15T10:59:18.867Z</time></trkpt><trkpt lat="42.603135" lon="-7.34338"><ele>774.25</ele><time>2026-04-15T10:59:19.867Z</time></trkpt><trkpt lat="42.6030417" lon="-7.343485"><ele>771.0</ele><time>2026-04-15T10:59:20.867Z</time></trkpt><trkpt lat="42.60294" lon="-7.343575"><ele>771.0</ele><time>2026-04-15T10:59:21.867Z</time></trkpt><trkpt lat="42.60284" lon="-7.343665"><ele>771.0</ele><time>2026-04-15T10:59:22.867Z</time></trkpt><trkpt lat="42.6027283" lon="-7.3437383"><ele>771.0</ele><time>2026-04-15T10:59:23.867Z</time></trkpt><trkpt lat="42.6026133" lon="-7.343805"><ele>771.0</ele><time>2026-04-15T10:59:24.866Z</time></trkpt><trkpt lat="42.602495" lon="-7.34387"><ele>768.0</ele><time>2026-04-15T10:59:25.866Z</time></trkpt><trkpt lat="42.602385" lon="-7.3439367"><ele>765.0</ele><time>2026-04-15T10:59:26.867Z</time></trkpt><trkpt lat="42.6022783" lon="-7.3440083"><ele>762.0</ele><time>2026-04-15T10:59:27.867Z</time></trkpt><trkpt lat="42.60216" lon="-7.3440683"><ele>759.0</ele><time>2026-04-15T10:59:28.866Z</time></trkpt><trkpt lat="42.6020467" lon="-7.3441267"><ele>759.5</ele><time>2026-04-15T10:59:29.866Z</time></trkpt><trkpt lat="42.6019283" lon="-7.3441983"><ele>760.0</ele><time>2026-04-15T10:59:30.867Z</time></trkpt><trkpt lat="42.6018133" lon="-7.3442567"><ele>760.5</ele><time>2026-04-15T10:59:31.866Z</time></trkpt><trkpt lat="42.6016983" lon="-7.344315"><ele>761.0</ele><time>2026-04-15T10:59:32.867Z</time></trkpt><trkpt lat="42.60158" lon="-7.3443667"><ele>761.0</ele><time>2026-04-15T10:59:33.866Z</time></trkpt><trkpt lat="42.60146" lon="-7.3444117"><ele>761.0</ele><time>2026-04-15T10:59:34.866Z</time></trkpt><trkpt lat="42.60134" lon="-7.3444567"><ele>761.0</ele><time>2026-04-15T10:59:35.866Z</time></trkpt><trkpt lat="42.6012317" lon="-7.344505"><ele>761.0</ele><time>2026-04-15T10:59:36.867Z</time></trkpt><trkpt lat="42.6011233" lon="-7.344555"><ele>759.5999999999999</ele><time>2026-04-15T10:59:37.866Z</time></trkpt><trkpt lat="42.601015" lon="-7.344605"><ele>758.2</ele><time>2026-04-15T10:59:38.866Z</time></trkpt><trkpt lat="42.6009133" lon="-7.3446533"><ele>756.8</ele><time>2026-04-15T10:59:39.866Z</time></trkpt><trkpt lat="42.60082" lon="-7.3447167"><ele>755.4000000000001</ele><time>2026-04-15T10:59:40.867Z</time></trkpt><trkpt lat="42.6007267" lon="-7.34478"><ele>754.0</ele><time>2026-04-15T10:59:41.866Z</time></trkpt><trkpt lat="42.6006333" lon="-7.344855"><ele>751.6</ele><time>2026-04-15T10:59:42.866Z</time></trkpt><trkpt lat="42.60055" lon="-7.3449317"><ele>749.2</ele><time>2026-04-15T10:59:43.866Z</time></trkpt><trkpt lat="42.6004917" lon="-7.3450133"><ele>746.8000000000001</ele><time>2026-04-15T10:59:44.867Z</time></trkpt><trkpt lat="42.6004583" lon="-7.3450917"><ele>744.4000000000001</ele><time>2026-04-15T10:59:45.866Z</time></trkpt><trkpt lat="42.6005383" lon="-7.3451467"><ele>742.0</ele><time>2026-04-15T10:59:48.866Z</time></trkpt><trkpt lat="42.6006483" lon="-7.3451067"><ele>742.0</ele><time>2026-04-15T10:59:49.866Z</time></trkpt><trkpt lat="42.6008117" lon="-7.345055"><ele>742.0</ele><time>2026-04-15T10:59:50.866Z</time></trkpt><trkpt lat="42.601025" lon="-7.3450133"><ele>742.0</ele><time>2026-04-15T10:59:51.866Z</time></trkpt><trkpt lat="42.6012667" lon="-7.3449933"><ele>739.0</ele><time>2026-04-15T10:59:52.866Z</time></trkpt><trkpt lat="42.6015017" lon="-7.3449767"><ele>736.0</ele><time>2026-04-15T10:59:53.866Z</time></trkpt><trkpt lat="42.601725" lon="-7.3449667"><ele>736.0</ele><time>2026-04-15T10:59:54.867Z</time></trkpt><trkpt lat="42.6019483" lon="-7.3449467"><ele>736.0</ele><time>2026-04-15T10:59:55.867Z</time></trkpt><trkpt lat="42.6021883" lon="-7.34491"><ele>732.0</ele><time>2026-04-15T10:59:56.866Z</time></trkpt><trkpt lat="42.6024367" lon="-7.34486"><ele>728.0</ele><time>2026-04-15T10:59:57.866Z</time></trkpt><trkpt lat="42.6026833" lon="-7.34481"><ele>724.0</ele><time>2026-04-15T10:59:58.867Z</time></trkpt><trkpt lat="42.6029117" lon="-7.3447867"><ele>720.0</ele><time>2026-04-15T10:59:59.867Z</time></trkpt><trkpt lat="42.6031283" lon="-7.344755"><ele>716.0</ele><time>2026-04-15T11:00:00.867Z</time></trkpt><trkpt lat="42.6033417" lon="-7.3447233"><ele>721.0</ele><time>2026-04-15T11:00:01.867Z</time></trkpt><trkpt lat="42.6035467" lon="-7.3446867"><ele>726.0</ele><time>2026-04-15T11:00:02.866Z</time></trkpt><trkpt lat="42.6037417" lon="-7.3446317"><ele>731.0</ele><time>2026-04-15T11:00:03.867Z</time></trkpt><trkpt lat="42.6039333" lon="-7.3445517"><ele>731.0</ele><time>2026-04-15T11:00:04.867Z</time></trkpt><trkpt lat="42.604125" lon="-7.3444667"><ele>731.0</ele><time>2026-04-15T11:00:05.867Z</time></trkpt><trkpt lat="42.6043183" lon="-7.3443683"><ele>731.0</ele><time>2026-04-15T11:00:06.867Z</time></trkpt><trkpt lat="42.604515" lon="-7.3442567"><ele>722.6666666666666</ele><time>2026-04-15T11:00:07.866Z</time></trkpt><trkpt lat="42.6047083" lon="-7.34414"><ele>714.3333333333334</ele><time>2026-04-15T11:00:08.866Z</time></trkpt><trkpt lat="42.6048833" lon="-7.3440367"><ele>706.0</ele><time>2026-04-15T11:00:09.866Z</time></trkpt><trkpt lat="42.605035" lon="-7.3439483"><ele>708.3333333333334</ele><time>2026-04-15T11:00:10.867Z</time></trkpt><trkpt lat="42.6051867" lon="-7.343875"><ele>710.6666666666666</ele><time>2026-04-15T11:00:11.866Z</time></trkpt><trkpt lat="42.6053333" lon="-7.3438317"><ele>713.0</ele><time>2026-04-15T11:00:12.866Z</time></trkpt><trkpt lat="42.6054767" lon="-7.3438083"><ele>713.0</ele><time>2026-04-15T11:00:13.867Z</time></trkpt><trkpt lat="42.60562" lon="-7.343795"><ele>713.0</ele><time>2026-04-15T11:00:14.867Z</time></trkpt><trkpt lat="42.605765" lon="-7.3437633"><ele>713.0</ele><time>2026-04-15T11:00:15.866Z</time></trkpt><trkpt lat="42.6059033" lon="-7.3437217"><ele>713.0</ele><time>2026-04-15T11:00:16.866Z</time></trkpt><trkpt lat="42.6060533" lon="-7.34366"><ele>703.3333333333333</ele><time>2026-04-15T11:00:17.867Z</time></trkpt><trkpt lat="42.6062017" lon="-7.343585"><ele>693.6666666666666</ele><time>2026-04-15T11:00:18.866Z</time></trkpt><trkpt lat="42.606345" lon="-7.3434983"><ele>684.0</ele><time>2026-04-15T11:00:19.867Z</time></trkpt><trkpt lat="42.6064733" lon="-7.3434283"><ele>684.0</ele><time>2026-04-15T11:00:20.866Z</time></trkpt><trkpt lat="42.6065967" lon="-7.3433533"><ele>684.0</ele><time>2026-04-15T11:00:21.866Z</time></trkpt><trkpt lat="42.6066883" lon="-7.3432483"><ele>684.0</ele><time>2026-04-15T11:00:22.867Z</time></trkpt><trkpt lat="42.6067783" lon="-7.343155"><ele>684.0</ele><time>2026-04-15T11:00:23.866Z</time></trkpt><trkpt lat="42.6068517" lon="-7.3430833"><ele>684.1666666666666</ele><time>2026-04-15T11:00:24.867Z</time></trkpt><trkpt lat="42.606925" lon="-7.3430233"><ele>684.3333333333334</ele><time>2026-04-15T11:00:25.867Z</time></trkpt><trkpt lat="42.60699" lon="-7.34295"><ele>684.5</ele><time>2026-04-15T11:00:26.866Z</time></trkpt><trkpt lat="42.6070433" lon="-7.3428817"><ele>684.6666666666667</ele><time>2026-04-15T11:00:27.866Z</time></trkpt><trkpt lat="42.6071167" lon="-7.3428467"><ele>684.8333333333334</ele><time>2026-04-15T11:00:28.867Z</time></trkpt><trkpt lat="42.6072083" lon="-7.3428233"><ele>685.0</ele><time>2026-04-15T11:00:29.866Z</time></trkpt><trkpt lat="42.6073283" lon="-7.3428217"><ele>685.0</ele><time>2026-04-15T11:00:30.867Z</time></trkpt><trkpt lat="42.6074617" lon="-7.3428117"><ele>685.0</ele><time>2026-04-15T11:00:31.867Z</time></trkpt><trkpt lat="42.6075917" lon="-7.342795"><ele>685.0</ele><time>2026-04-15T11:00:32.866Z</time></trkpt><trkpt lat="42.6077083" lon="-7.3427867"><ele>685.0</ele><time>2026-04-15T11:00:33.867Z</time></trkpt><trkpt lat="42.6078217" lon="-7.3427933"><ele>686.25</ele><time>2026-04-15T11:00:34.866Z</time></trkpt><trkpt lat="42.6079133" lon="-7.342825"><ele>687.5</ele><time>2026-04-15T11:00:35.867Z</time></trkpt><trkpt lat="42.6080083" lon="-7.342895"><ele>688.75</ele><time>2026-04-15T11:00:36.866Z</time></trkpt><trkpt lat="42.608125" lon="-7.3429983"><ele>690.0</ele><time>2026-04-15T11:00:37.866Z</time></trkpt><trkpt lat="42.6082483" lon="-7.3431367"><ele>682.75</ele><time>2026-04-15T11:00:38.866Z</time></trkpt><trkpt lat="42.6083617" lon="-7.3432817"><ele>675.5</ele><time>2026-04-15T11:00:39.866Z</time></trkpt><trkpt lat="42.6084617" lon="-7.34341"><ele>668.25</ele><time>2026-04-15T11:00:40.867Z</time></trkpt><trkpt lat="42.6085367" lon="-7.3434917"><ele>661.0</ele><time>2026-04-15T11:00:41.867Z</time></trkpt><trkpt lat="42.6086183" lon="-7.3435317"><ele>662.8</ele><time>2026-04-15T11:00:42.867Z</time></trkpt><trkpt lat="42.6087133" lon="-7.343535"><ele>664.5999999999999</ele><time>2026-04-15T11:00:43.867Z</time></trkpt><trkpt lat="42.6088117" lon="-7.343525"><ele>666.4</ele><time>2026-04-15T11:00:44.867Z</time></trkpt><trkpt lat="42.6089283" lon="-7.343505"><ele>668.2</ele><time>2026-04-15T11:00:45.867Z</time></trkpt><trkpt lat="42.6090483" lon="-7.3434817"><ele>670.0</ele><time>2026-04-15T11:00:46.867Z</time></trkpt><trkpt lat="42.60917" lon="-7.3434433"><ele>670.0</ele><time>2026-04-15T11:00:47.866Z</time></trkpt><trkpt lat="42.6092867" lon="-7.34339"><ele>670.0</ele><time>2026-04-15T11:00:48.867Z</time></trkpt><trkpt lat="42.6093783" lon="-7.343325"><ele>670.0</ele><time>2026-04-15T11:00:49.867Z</time></trkpt><trkpt lat="42.60947" lon="-7.3432283"><ele>670.0</ele><time>2026-04-15T11:00:50.866Z</time></trkpt><trkpt lat="42.60958" lon="-7.3431067"><ele>672.6666666666667</ele><time>2026-04-15T11:00:51.867Z</time></trkpt><trkpt lat="42.609705" lon="-7.34298"><ele>675.3333333333334</ele><time>2026-04-15T11:00:52.866Z</time></trkpt><trkpt lat="42.6098383" lon="-7.3428617"><ele>678.0</ele><time>2026-04-15T11:00:53.867Z</time></trkpt><trkpt lat="42.60997" lon="-7.34273"><ele>678.0</ele><time>2026-04-15T11:00:54.867Z</time></trkpt><trkpt lat="42.610095" lon="-7.3426033"><ele>678.0</ele><time>2026-04-15T11:00:55.866Z</time></trkpt><trkpt lat="42.61021" lon="-7.3424983"><ele>678.0</ele><time>2026-04-15T11:00:56.867Z</time></trkpt><trkpt lat="42.61031" lon="-7.342395"><ele>678.0</ele><time>2026-04-15T11:00:57.867Z</time></trkpt><trkpt lat="42.6103983" lon="-7.34232"><ele>678.5999999999999</ele><time>2026-04-15T11:00:58.867Z</time></trkpt><trkpt lat="42.6105017" lon="-7.3422733"><ele>679.1999999999999</ele><time>2026-04-15T11:00:59.866Z</time></trkpt><trkpt lat="42.61061" lon="-7.34227"><ele>679.8</ele><time>2026-04-15T11:01:00.867Z</time></trkpt><trkpt lat="42.6107167" lon="-7.34229"><ele>680.4</ele><time>2026-04-15T11:01:01.867Z</time></trkpt><trkpt lat="42.6108267" lon="-7.3423533"><ele>681.0</ele><time>2026-04-15T11:01:02.866Z</time></trkpt><trkpt lat="42.6109533" lon="-7.3423983"><ele>681.0</ele><time>2026-04-15T11:01:03.866Z</time></trkpt><trkpt lat="42.6110967" lon="-7.3424183"><ele>681.0</ele><time>2026-04-15T11:01:04.866Z</time></trkpt><trkpt lat="42.6112517" lon="-7.342395"><ele>681.0</ele><time>2026-04-15T11:01:05.867Z</time></trkpt><trkpt lat="42.6113933" lon="-7.3423467"><ele>681.0</ele><time>2026-04-15T11:01:06.867Z</time></trkpt><trkpt lat="42.6115167" lon="-7.3422883"><ele>682.1999999999999</ele><time>2026-04-15T11:01:07.867Z</time></trkpt><trkpt lat="42.61162" lon="-7.3422383"><ele>683.4</ele><time>2026-04-15T11:01:08.866Z</time></trkpt><trkpt lat="42.61172" lon="-7.342225"><ele>684.6</ele><time>2026-04-15T11:01:09.867Z</time></trkpt><trkpt lat="42.6118333" lon="-7.34225"><ele>685.8</ele><time>2026-04-15T11:01:10.866Z</time></trkpt><trkpt lat="42.6119283" lon="-7.342285"><ele>687.0</ele><time>2026-04-15T11:01:11.867Z</time></trkpt><trkpt lat="42.6119517" lon="-7.3424083"><ele>688.0</ele><time>2026-04-15T11:01:23.866Z</time></trkpt><trkpt lat="42.6119933" lon="-7.3425383"><ele>689.0</ele><time>2026-04-15T11:01:24.866Z</time></trkpt><trkpt lat="42.612045" lon="-7.342695"><ele>690.0</ele><time>2026-04-15T11:01:25.867Z</time></trkpt><trkpt lat="42.6120817" lon="-7.34285"><ele>691.0</ele><time>2026-04-15T11:01:26.867Z</time></trkpt><trkpt lat="42.61211" lon="-7.342985"><ele>691.8</ele><time>2026-04-15T11:01:27.866Z</time></trkpt><trkpt lat="42.6121433" lon="-7.3430933"><ele>692.5999999999999</ele><time>2026-04-15T11:01:28.867Z</time></trkpt><trkpt lat="42.612215" lon="-7.3431883"><ele>693.4</ele><time>2026-04-15T11:01:30.866Z</time></trkpt><trkpt lat="42.6122967" lon="-7.343235"><ele>694.2</ele><time>2026-04-15T11:01:32.866Z</time></trkpt><trkpt lat="42.6123667" lon="-7.3432533"><ele>695.0</ele><time>2026-04-15T11:01:34.866Z</time></trkpt><trkpt lat="42.612475" lon="-7.3432267"><ele>695.0</ele><time>2026-04-15T11:01:36.867Z</time></trkpt><trkpt lat="42.6125583" lon="-7.3431767"><ele>695.0</ele><time>2026-04-15T11:01:37.867Z</time></trkpt><trkpt lat="42.6126633" lon="-7.343115"><ele>695.0</ele><time>2026-04-15T11:01:38.866Z</time></trkpt><trkpt lat="42.612785" lon="-7.34306"><ele>695.0</ele><time>2026-04-15T11:01:39.866Z</time></trkpt><trkpt lat="42.6128633" lon="-7.3430333"><ele>695.0</ele><time>2026-04-15T11:01:40.867Z</time></trkpt><trkpt lat="42.612935" lon="-7.343005"><ele>695.3333333333333</ele><time>2026-04-15T11:01:41.866Z</time></trkpt><trkpt lat="42.613005" lon="-7.3429617"><ele>695.6666666666666</ele><time>2026-04-15T11:01:42.867Z</time></trkpt><trkpt lat="42.613075" lon="-7.3429233"><ele>696.0</ele><time>2026-04-15T11:01:43.866Z</time></trkpt><trkpt lat="42.613155" lon="-7.34289"><ele>696.3333333333334</ele><time>2026-04-15T11:01:44.867Z</time></trkpt><trkpt lat="42.6132383" lon="-7.3428833"><ele>696.6666666666667</ele><time>2026-04-15T11:01:45.866Z</time></trkpt><trkpt lat="42.6133367" lon="-7.3428917"><ele>697.0</ele><time>2026-04-15T11:01:46.866Z</time></trkpt><trkpt lat="42.613435" lon="-7.3428867"><ele>697.0</ele><time>2026-04-15T11:01:47.867Z</time></trkpt><trkpt lat="42.61353" lon="-7.3428317"><ele>697.0</ele><time>2026-04-15T11:01:48.867Z</time></trkpt><trkpt lat="42.6136483" lon="-7.3427717"><ele>697.0</ele><time>2026-04-15T11:01:49.866Z</time></trkpt><trkpt lat="42.6137683" lon="-7.3427167"><ele>697.0</ele><time>2026-04-15T11:01:50.867Z</time></trkpt><trkpt lat="42.6138967" lon="-7.342655"><ele>701.0</ele><time>2026-04-15T11:01:51.867Z</time></trkpt><trkpt lat="42.6140167" lon="-7.3425867"><ele>705.0</ele><time>2026-04-15T11:01:52.867Z</time></trkpt><trkpt lat="42.6141483" lon="-7.342535"><ele>709.0</ele><time>2026-04-15T11:01:53.866Z</time></trkpt><trkpt lat="42.6142867" lon="-7.34248"><ele>713.0</ele><time>2026-04-15T11:01:54.866Z</time></trkpt><trkpt lat="42.6144117" lon="-7.3424267"><ele>712.6666666666666</ele><time>2026-04-15T11:01:55.867Z</time></trkpt><trkpt lat="42.6145383" lon="-7.3423617"><ele>712.3333333333334</ele><time>2026-04-15T11:01:56.867Z</time></trkpt><trkpt lat="42.6146767" lon="-7.3422717"><ele>712.0</ele><time>2026-04-15T11:01:57.867Z</time></trkpt><trkpt lat="42.6148367" lon="-7.34217"><ele>712.0</ele><time>2026-04-15T11:01:58.866Z</time></trkpt><trkpt lat="42.6150083" lon="-7.3420883"><ele>712.0</ele><time>2026-04-15T11:01:59.867Z</time></trkpt><trkpt lat="42.6151783" lon="-7.3419983"><ele>712.0</ele><time>2026-04-15T11:02:00.866Z</time></trkpt><trkpt lat="42.6153317" lon="-7.3419033"><ele>722.3333333333334</ele><time>2026-04-15T11:02:01.867Z</time></trkpt><trkpt lat="42.615475" lon="-7.3418233"><ele>732.6666666666666</ele><time>2026-04-15T11:02:02.867Z</time></trkpt><trkpt lat="42.6156217" lon="-7.341755"><ele>743.0</ele><time>2026-04-15T11:02:03.866Z</time></trkpt><trkpt lat="42.6157517" lon="-7.341665"><ele>743.0</ele><time>2026-04-15T11:02:04.867Z</time></trkpt><trkpt lat="42.615885" lon="-7.3415767"><ele>743.0</ele><time>2026-04-15T11:02:05.866Z</time></trkpt><trkpt lat="42.6160167" lon="-7.3414967"><ele>743.0</ele><time>2026-04-15T11:02:06.866Z</time></trkpt><trkpt lat="42.616145" lon="-7.3414033"><ele>743.0</ele><time>2026-04-15T11:02:07.867Z</time></trkpt><trkpt lat="42.6162667" lon="-7.3413117"><ele>743.8</ele><time>2026-04-15T11:02:08.867Z</time></trkpt><trkpt lat="42.6163633" lon="-7.3412283"><ele>744.5999999999999</ele><time>2026-04-15T11:02:09.866Z</time></trkpt><trkpt lat="42.6164383" lon="-7.3411933"><ele>745.4000000000001</ele><time>2026-04-15T11:02:11.867Z</time></trkpt><trkpt lat="42.616405" lon="-7.341285"><ele>746.2</ele><time>2026-04-15T11:02:14.867Z</time></trkpt><trkpt lat="42.6163" lon="-7.34142"><ele>747.0</ele><time>2026-04-15T11:02:16.867Z</time></trkpt><trkpt lat="42.6162167" lon="-7.3415483"><ele>745.6666666666666</ele><time>2026-04-15T11:02:17.866Z</time></trkpt><trkpt lat="42.616115" lon="-7.3417183"><ele>744.3333333333333</ele><time>2026-04-15T11:02:18.866Z</time></trkpt><trkpt lat="42.6159867" lon="-7.341905"><ele>743.0</ele><time>2026-04-15T11:02:19.867Z</time></trkpt><trkpt lat="42.6158783" lon="-7.3420933"><ele>751.3333333333333</ele><time>2026-04-15T11:02:20.867Z</time></trkpt><trkpt lat="42.6157617" lon="-7.3422783"><ele>759.6666666666666</ele><time>2026-04-15T11:02:21.866Z</time></trkpt><trkpt lat="42.61566" lon="-7.3424617"><ele>768.0</ele><time>2026-04-15T11:02:22.866Z</time></trkpt><trkpt lat="42.61557" lon="-7.3426483"><ele>768.0</ele><time>2026-04-15T11:02:23.867Z</time></trkpt><trkpt lat="42.6154783" lon="-7.342865"><ele>768.0</ele><time>2026-04-15T11:02:24.867Z</time></trkpt><trkpt lat="42.61539" lon="-7.34309"><ele>768.0</ele><time>2026-04-15T11:02:25.866Z</time></trkpt><trkpt lat="42.61528" lon="-7.34331"><ele>765.6666666666666</ele><time>2026-04-15T11:02:26.867Z</time></trkpt><trkpt lat="42.6151617" lon="-7.34354"><ele>763.3333333333333</ele><time>2026-04-15T11:02:27.867Z</time></trkpt><trkpt lat="42.6150483" lon="-7.343755"><ele>761.0</ele><time>2026-04-15T11:02:28.866Z</time></trkpt><trkpt lat="42.61492" lon="-7.343945"><ele>769.0</ele><time>2026-04-15T11:02:29.866Z</time></trkpt><trkpt lat="42.6147967" lon="-7.344125"><ele>777.0</ele><time>2026-04-15T11:02:30.866Z</time></trkpt><trkpt lat="42.6146733" lon="-7.3443117"><ele>785.0</ele><time>2026-04-15T11:02:31.867Z</time></trkpt><trkpt lat="42.6145667" lon="-7.3445267"><ele>783.6666666666667</ele><time>2026-04-15T11:02:32.868Z</time></trkpt><trkpt lat="42.6144583" lon="-7.3447517"><ele>782.3333333333333</ele><time>2026-04-15T11:02:33.867Z</time></trkpt><trkpt lat="42.6143383" lon="-7.34496"><ele>781.0</ele><time>2026-04-15T11:02:34.867Z</time></trkpt><trkpt lat="42.6142033" lon="-7.34515"><ele>781.0</ele><time>2026-04-15T11:02:35.868Z</time></trkpt><trkpt lat="42.6140783" lon="-7.3453067"><ele>781.0</ele><time>2026-04-15T11:02:36.868Z</time></trkpt><trkpt lat="42.613975" lon="-7.34549"><ele>781.0</ele><time>2026-04-15T11:02:37.868Z</time></trkpt><trkpt lat="42.6139" lon="-7.34572"><ele>785.6666666666666</ele><time>2026-04-15T11:02:38.867Z</time></trkpt><trkpt lat="42.613825" lon="-7.3459667"><ele>790.3333333333333</ele><time>2026-04-15T11:02:39.867Z</time></trkpt><trkpt lat="42.613775" lon="-7.34621"><ele>795.0</ele><time>2026-04-15T11:02:40.868Z</time></trkpt><trkpt lat="42.61374" lon="-7.3464167"><ele>795.25</ele><time>2026-04-15T11:02:41.868Z</time></trkpt><trkpt lat="42.61373" lon="-7.3466183"><ele>795.5</ele><time>2026-04-15T11:02:42.868Z</time></trkpt><trkpt lat="42.6137433" lon="-7.346805"><ele>795.75</ele><time>2026-04-15T11:02:43.868Z</time></trkpt><trkpt lat="42.6137817" lon="-7.346995"><ele>796.0</ele><time>2026-04-15T11:02:44.868Z</time></trkpt><trkpt lat="42.613845" lon="-7.347185"><ele>793.6666666666666</ele><time>2026-04-15T11:02:45.867Z</time></trkpt><trkpt lat="42.6139417" lon="-7.347375"><ele>791.3333333333333</ele><time>2026-04-15T11:02:46.867Z</time></trkpt><trkpt lat="42.6140667" lon="-7.347565"><ele>789.0</ele><time>2026-04-15T11:02:47.868Z</time></trkpt><trkpt lat="42.6141983" lon="-7.3477617"><ele>789.0</ele><time>2026-04-15T11:02:48.867Z</time></trkpt><trkpt lat="42.61431" lon="-7.3479417"><ele>789.0</ele><time>2026-04-15T11:02:49.867Z</time></trkpt><trkpt lat="42.6144" lon="-7.3480917"><ele>789.0</ele><time>2026-04-15T11:02:50.867Z</time></trkpt><trkpt lat="42.6144667" lon="-7.34821"><ele>789.0</ele><time>2026-04-15T11:02:51.868Z</time></trkpt><trkpt lat="42.6145217" lon="-7.3483267"><ele>787.75</ele><time>2026-04-15T11:02:52.868Z</time></trkpt><trkpt lat="42.6145417" lon="-7.3484367"><ele>786.5</ele><time>2026-04-15T11:02:53.868Z</time></trkpt><trkpt lat="42.6145167" lon="-7.34856"><ele>785.25</ele><time>2026-04-15T11:02:54.868Z</time></trkpt><trkpt lat="42.6144517" lon="-7.3487067"><ele>784.0</ele><time>2026-04-15T11:02:55.868Z</time></trkpt><trkpt lat="42.6143667" lon="-7.3488733"><ele>780.0</ele><time>2026-04-15T11:02:56.868Z</time></trkpt><trkpt lat="42.6142783" lon="-7.3490683"><ele>776.0</ele><time>2026-04-15T11:02:57.868Z</time></trkpt><trkpt lat="42.6141933" lon="-7.3492783"><ele>772.0</ele><time>2026-04-15T11:02:58.867Z</time></trkpt><trkpt lat="42.6141033" lon="-7.34946"><ele>772.0</ele><time>2026-04-15T11:02:59.867Z</time></trkpt><trkpt lat="42.6140233" lon="-7.3496183"><ele>772.0</ele><time>2026-04-15T11:03:00.868Z</time></trkpt><trkpt lat="42.6139133" lon="-7.349725"><ele>772.0</ele><time>2026-04-15T11:03:01.867Z</time></trkpt><trkpt lat="42.6137883" lon="-7.3498283"><ele>772.0</ele><time>2026-04-15T11:03:02.868Z</time></trkpt><trkpt lat="42.6136617" lon="-7.349945"><ele>771.3333333333333</ele><time>2026-04-15T11:03:03.867Z</time></trkpt><trkpt lat="42.6135333" lon="-7.3500783"><ele>770.6666666666667</ele><time>2026-04-15T11:03:04.868Z</time></trkpt><trkpt lat="42.613405" lon="-7.3502233"><ele>770.0</ele><time>2026-04-15T11:03:05.868Z</time></trkpt><trkpt lat="42.61327" lon="-7.3503667"><ele>770.0</ele><time>2026-04-15T11:03:06.867Z</time></trkpt><trkpt lat="42.6131117" lon="-7.3504917"><ele>770.0</ele><time>2026-04-15T11:03:07.867Z</time></trkpt><trkpt lat="42.612935" lon="-7.3506"><ele>770.0</ele><time>2026-04-15T11:03:08.867Z</time></trkpt><trkpt lat="42.6127483" lon="-7.3506983"><ele>771.0</ele><time>2026-04-15T11:03:09.868Z</time></trkpt><trkpt lat="42.6125683" lon="-7.3508033"><ele>772.0</ele><time>2026-04-15T11:03:10.867Z</time></trkpt><trkpt lat="42.6123867" lon="-7.3509283"><ele>773.0</ele><time>2026-04-15T11:03:11.867Z</time></trkpt><trkpt lat="42.6122167" lon="-7.35109"><ele>773.0</ele><time>2026-04-15T11:03:12.868Z</time></trkpt><trkpt lat="42.6120383" lon="-7.3512767"><ele>773.0</ele><time>2026-04-15T11:03:13.868Z</time></trkpt><trkpt lat="42.6118617" lon="-7.35147"><ele>773.3333333333334</ele><time>2026-04-15T11:03:14.867Z</time></trkpt><trkpt lat="42.6117033" lon="-7.35167"><ele>773.6666666666667</ele><time>2026-04-15T11:03:15.867Z</time></trkpt><trkpt lat="42.6115367" lon="-7.3518833"><ele>774.0</ele><time>2026-04-15T11:03:16.867Z</time></trkpt><trkpt lat="42.6113683" lon="-7.3521067"><ele>773.5</ele><time>2026-04-15T11:03:17.867Z</time></trkpt><trkpt lat="42.611205" lon="-7.3523467"><ele>773.0</ele><time>2026-04-15T11:03:18.867Z</time></trkpt><trkpt lat="42.61105" lon="-7.3526"><ele>773.0</ele><time>2026-04-15T11:03:19.867Z</time></trkpt><trkpt lat="42.6108933" lon="-7.352845"><ele>773.0</ele><time>2026-04-15T11:03:20.867Z</time></trkpt><trkpt lat="42.6107383" lon="-7.353095"><ele>773.0</ele><time>2026-04-15T11:03:21.868Z</time></trkpt><trkpt lat="42.610595" lon="-7.35333"><ele>773.0</ele><time>2026-04-15T11:03:22.868Z</time></trkpt><trkpt lat="42.6104533" lon="-7.3535483"><ele>773.0</ele><time>2026-04-15T11:03:23.867Z</time></trkpt><trkpt lat="42.6102967" lon="-7.3537517"><ele>769.0</ele><time>2026-04-15T11:03:24.868Z</time></trkpt><trkpt lat="42.610095" lon="-7.3539433"><ele>765.0</ele><time>2026-04-15T11:03:25.868Z</time></trkpt><trkpt lat="42.6099017" lon="-7.3541283"><ele>765.0</ele><time>2026-04-15T11:03:26.867Z</time></trkpt><trkpt lat="42.6097133" lon="-7.3543067"><ele>765.0</ele><time>2026-04-15T11:03:27.867Z</time></trkpt><trkpt lat="42.60956" lon="-7.35449"><ele>765.0</ele><time>2026-04-15T11:03:28.868Z</time></trkpt><trkpt lat="42.609425" lon="-7.35469"><ele>765.0</ele><time>2026-04-15T11:03:29.868Z</time></trkpt><trkpt lat="42.6093083" lon="-7.3549"><ele>765.0</ele><time>2026-04-15T11:03:30.867Z</time></trkpt><trkpt lat="42.60918" lon="-7.3551033"><ele>765.0</ele><time>2026-04-15T11:03:31.867Z</time></trkpt><trkpt lat="42.609025" lon="-7.3553117"><ele>765.0</ele><time>2026-04-15T11:03:32.868Z</time></trkpt><trkpt lat="42.6088583" lon="-7.3554933"><ele>765.0</ele><time>2026-04-15T11:03:33.868Z</time></trkpt><trkpt lat="42.608685" lon="-7.3556483"><ele>765.0</ele><time>2026-04-15T11:03:34.868Z</time></trkpt><trkpt lat="42.6084767" lon="-7.35577"><ele>763.0</ele><time>2026-04-15T11:03:35.867Z</time></trkpt><trkpt lat="42.6082417" lon="-7.3558917"><ele>761.0</ele><time>2026-04-15T11:03:36.867Z</time></trkpt><trkpt lat="42.60802" lon="-7.3560267"><ele>757.5</ele><time>2026-04-15T11:03:37.868Z</time></trkpt><trkpt lat="42.60781" lon="-7.356185"><ele>754.0</ele><time>2026-04-15T11:03:38.867Z</time></trkpt><trkpt lat="42.6076133" lon="-7.3563717"><ele>754.0</ele><time>2026-04-15T11:03:39.868Z</time></trkpt><trkpt lat="42.60743" lon="-7.35657"><ele>754.0</ele><time>2026-04-15T11:03:40.867Z</time></trkpt><trkpt lat="42.607265" lon="-7.3567617"><ele>754.0</ele><time>2026-04-15T11:03:41.867Z</time></trkpt><trkpt lat="42.6071" lon="-7.356975"><ele>754.0</ele><time>2026-04-15T11:03:42.867Z</time></trkpt><trkpt lat="42.606925" lon="-7.3572167"><ele>749.0</ele><time>2026-04-15T11:03:43.868Z</time></trkpt><trkpt lat="42.606735" lon="-7.35748"><ele>744.0</ele><time>2026-04-15T11:03:44.868Z</time></trkpt><trkpt lat="42.6065333" lon="-7.3577517"><ele>744.0</ele><time>2026-04-15T11:03:45.868Z</time></trkpt><trkpt lat="42.6063433" lon="-7.3580017"><ele>744.0</ele><time>2026-04-15T11:03:46.868Z</time></trkpt><trkpt lat="42.60617" lon="-7.358225"><ele>740.0</ele><time>2026-04-15T11:03:47.867Z</time></trkpt><trkpt lat="42.60605" lon="-7.3583983"><ele>736.0</ele><time>2026-04-15T11:03:48.868Z</time></trkpt><trkpt lat="42.6059717" lon="-7.35852"><ele>732.0</ele><time>2026-04-15T11:03:49.868Z</time></trkpt><trkpt lat="42.6059117" lon="-7.3586783"><ele>728.0</ele><time>2026-04-15T11:03:50.867Z</time></trkpt><trkpt lat="42.6058483" lon="-7.358895"><ele>728.0</ele><time>2026-04-15T11:03:51.868Z</time></trkpt><trkpt lat="42.6057683" lon="-7.3591467"><ele>728.0</ele><time>2026-04-15T11:03:52.868Z</time></trkpt><trkpt lat="42.6056733" lon="-7.3594167"><ele>728.0</ele><time>2026-04-15T11:03:53.868Z</time></trkpt><trkpt lat="42.605565" lon="-7.3597283"><ele>725.5</ele><time>2026-04-15T11:03:54.868Z</time></trkpt><trkpt lat="42.6054383" lon="-7.3600467"><ele>723.0</ele><time>2026-04-15T11:03:55.868Z</time></trkpt><trkpt lat="42.6052933" lon="-7.360375"><ele>721.0</ele><time>2026-04-15T11:03:56.868Z</time></trkpt><trkpt lat="42.6051483" lon="-7.36072"><ele>719.0</ele><time>2026-04-15T11:03:57.868Z</time></trkpt><trkpt lat="42.6050183" lon="-7.361065"><ele>715.0</ele><time>2026-04-15T11:03:58.867Z</time></trkpt><trkpt lat="42.6048867" lon="-7.3613783"><ele>711.0</ele><time>2026-04-15T11:03:59.867Z</time></trkpt><trkpt lat="42.60476" lon="-7.3616717"><ele>711.0</ele><time>2026-04-15T11:04:00.868Z</time></trkpt><trkpt lat="42.6046517" lon="-7.361945"><ele>711.0</ele><time>2026-04-15T11:04:01.867Z</time></trkpt><trkpt lat="42.604545" lon="-7.3622067"><ele>711.0</ele><time>2026-04-15T11:04:02.867Z</time></trkpt><trkpt lat="42.6044567" lon="-7.3624967"><ele>711.0</ele><time>2026-04-15T11:04:03.868Z</time></trkpt><trkpt lat="42.6043717" lon="-7.362775"><ele>711.0</ele><time>2026-04-15T11:04:04.868Z</time></trkpt><trkpt lat="42.6043167" lon="-7.36308"><ele>711.0</ele><time>2026-04-15T11:04:05.867Z</time></trkpt><trkpt lat="42.6042717" lon="-7.3633483"><ele>711.0</ele><time>2026-04-15T11:04:06.868Z</time></trkpt><trkpt lat="42.6042167" lon="-7.363575"><ele>711.0</ele><time>2026-04-15T11:04:07.868Z</time></trkpt><trkpt lat="42.60415" lon="-7.36376"><ele>708.6666666666666</ele><time>2026-04-15T11:04:08.867Z</time></trkpt><trkpt lat="42.6040567" lon="-7.3639267"><ele>706.3333333333333</ele><time>2026-04-15T11:04:09.867Z</time></trkpt><trkpt lat="42.6039317" lon="-7.3640717"><ele>704.0</ele><time>2026-04-15T11:04:10.868Z</time></trkpt><trkpt lat="42.603775" lon="-7.3641983"><ele>707.0</ele><time>2026-04-15T11:04:11.868Z</time></trkpt><trkpt lat="42.60359" lon="-7.3643133"><ele>710.0</ele><time>2026-04-15T11:04:12.868Z</time></trkpt><trkpt lat="42.6033933" lon="-7.3644267"><ele>713.0</ele><time>2026-04-15T11:04:13.868Z</time></trkpt><trkpt lat="42.6031767" lon="-7.3645367"><ele>713.0</ele><time>2026-04-15T11:04:14.868Z</time></trkpt><trkpt lat="42.602955" lon="-7.36464"><ele>713.0</ele><time>2026-04-15T11:04:15.868Z</time></trkpt><trkpt lat="42.602725" lon="-7.3647317"><ele>704.0</ele><time>2026-04-15T11:04:16.867Z</time></trkpt><trkpt lat="42.6025033" lon="-7.3648267"><ele>695.0</ele><time>2026-04-15T11:04:17.867Z</time></trkpt><trkpt lat="42.6022867" lon="-7.364915"><ele>695.0</ele><time>2026-04-15T11:04:18.868Z</time></trkpt><trkpt lat="42.6020667" lon="-7.3650283"><ele>695.0</ele><time>2026-04-15T11:04:19.867Z</time></trkpt><trkpt lat="42.6018333" lon="-7.3651633"><ele>696.0</ele><time>2026-04-15T11:04:20.867Z</time></trkpt><trkpt lat="42.6016017" lon="-7.3653183"><ele>697.0</ele><time>2026-04-15T11:04:21.868Z</time></trkpt><trkpt lat="42.6013817" lon="-7.365455"><ele>689.0</ele><time>2026-04-15T11:04:22.868Z</time></trkpt><trkpt lat="42.6011567" lon="-7.365575"><ele>681.0</ele><time>2026-04-15T11:04:23.868Z</time></trkpt><trkpt lat="42.6009383" lon="-7.365675"><ele>681.0</ele><time>2026-04-15T11:04:24.868Z</time></trkpt><trkpt lat="42.6007083" lon="-7.3657767"><ele>681.0</ele><time>2026-04-15T11:04:25.868Z</time></trkpt><trkpt lat="42.6005133" lon="-7.3658767"><ele>681.0</ele><time>2026-04-15T11:04:26.867Z</time></trkpt><trkpt lat="42.600345" lon="-7.3659683"><ele>681.0</ele><time>2026-04-15T11:04:27.868Z</time></trkpt><trkpt lat="42.6001867" lon="-7.3661"><ele>681.0</ele><time>2026-04-15T11:04:28.867Z</time></trkpt><trkpt lat="42.6000433" lon="-7.36629"><ele>674.0</ele><time>2026-04-15T11:04:29.867Z</time></trkpt><trkpt lat="42.5999" lon="-7.3665383"><ele>667.0</ele><time>2026-04-15T11:04:30.868Z</time></trkpt><trkpt lat="42.5997467" lon="-7.3667983"><ele>667.0</ele><time>2026-04-15T11:04:31.868Z</time></trkpt><trkpt lat="42.5995683" lon="-7.3670633"><ele>667.0</ele><time>2026-04-15T11:04:32.867Z</time></trkpt><trkpt lat="42.599375" lon="-7.3673283"><ele>664.5</ele><time>2026-04-15T11:04:33.868Z</time></trkpt><trkpt lat="42.599185" lon="-7.367585"><ele>662.0</ele><time>2026-04-15T11:04:34.867Z</time></trkpt><trkpt lat="42.5990217" lon="-7.3678467"><ele>654.5</ele><time>2026-04-15T11:04:35.868Z</time></trkpt><trkpt lat="42.5988717" lon="-7.3681233"><ele>647.0</ele><time>2026-04-15T11:04:36.868Z</time></trkpt><trkpt lat="42.59873" lon="-7.3684117"><ele>647.0</ele><time>2026-04-15T11:04:37.867Z</time></trkpt><trkpt lat="42.59858" lon="-7.3686917"><ele>647.0</ele><time>2026-04-15T11:04:38.867Z</time></trkpt><trkpt lat="42.5984383" lon="-7.3689717"><ele>647.0</ele><time>2026-04-15T11:04:39.868Z</time></trkpt><trkpt lat="42.59829" lon="-7.369245"><ele>647.0</ele><time>2026-04-15T11:04:40.867Z</time></trkpt><trkpt lat="42.5981467" lon="-7.3695067"><ele>642.0</ele><time>2026-04-15T11:04:41.867Z</time></trkpt><trkpt lat="42.5980133" lon="-7.3697317"><ele>637.0</ele><time>2026-04-15T11:04:42.867Z</time></trkpt><trkpt lat="42.59792" lon="-7.3698983"><ele>632.0</ele><time>2026-04-15T11:04:43.868Z</time></trkpt><trkpt lat="42.5978433" lon="-7.3700117"><ele>632.0</ele><time>2026-04-15T11:04:44.867Z</time></trkpt><trkpt lat="42.5977967" lon="-7.370095"><ele>632.0</ele><time>2026-04-15T11:04:45.868Z</time></trkpt><trkpt lat="42.5977283" lon="-7.3701633"><ele>632.0</ele><time>2026-04-15T11:04:47.868Z</time></trkpt><trkpt lat="42.5977333" lon="-7.3700583"><ele>632.0</ele><time>2026-04-15T11:04:50.868Z</time></trkpt><trkpt lat="42.597775" lon="-7.369975"><ele>632.0</ele><time>2026-04-15T11:04:51.868Z</time></trkpt><trkpt lat="42.5978183" lon="-7.3698567"><ele>632.0</ele><time>2026-04-15T11:04:52.868Z</time></trkpt><trkpt lat="42.5978783" lon="-7.3696983"><ele>637.0</ele><time>2026-04-15T11:04:53.867Z</time></trkpt><trkpt lat="42.5979367" lon="-7.369485"><ele>642.0</ele><time>2026-04-15T11:04:54.868Z</time></trkpt><trkpt lat="42.598" lon="-7.3692467"><ele>647.0</ele><time>2026-04-15T11:04:55.867Z</time></trkpt><trkpt lat="42.5980683" lon="-7.3689983"><ele>651.0</ele><time>2026-04-15T11:04:56.868Z</time></trkpt><trkpt lat="42.5981433" lon="-7.36874"><ele>655.0</ele><time>2026-04-15T11:04:57.868Z</time></trkpt><trkpt lat="42.59824" lon="-7.3684633"><ele>659.0</ele><time>2026-04-15T11:04:58.867Z</time></trkpt><trkpt lat="42.59835" lon="-7.3681783"><ele>663.5</ele><time>2026-04-15T11:04:59.868Z</time></trkpt><trkpt lat="42.5984667" lon="-7.3678933"><ele>668.0</ele><time>2026-04-15T11:05:00.867Z</time></trkpt><trkpt lat="42.5985833" lon="-7.3676017"><ele>666.0</ele><time>2026-04-15T11:05:01.868Z</time></trkpt><trkpt lat="42.5987" lon="-7.3673333"><ele>664.0</ele><time>2026-04-15T11:05:02.868Z</time></trkpt><trkpt lat="42.5987917" lon="-7.3670983"><ele>662.0</ele><time>2026-04-15T11:05:03.867Z</time></trkpt><trkpt lat="42.598855" lon="-7.36685"><ele>666.0</ele><time>2026-04-15T11:05:04.867Z</time></trkpt><trkpt lat="42.5988783" lon="-7.36658"><ele>670.0</ele><time>2026-04-15T11:05:05.867Z</time></trkpt><trkpt lat="42.5988733" lon="-7.366305"><ele>674.0</ele><time>2026-04-15T11:05:06.867Z</time></trkpt><trkpt lat="42.5988367" lon="-7.3659917"><ele>679.0</ele><time>2026-04-15T11:05:07.868Z</time></trkpt><trkpt lat="42.59881" lon="-7.36567"><ele>684.0</ele><time>2026-04-15T11:05:08.868Z</time></trkpt><trkpt lat="42.5988033" lon="-7.3653483"><ele>687.0</ele><time>2026-04-15T11:05:09.867Z</time></trkpt><trkpt lat="42.59882" lon="-7.3650283"><ele>690.0</ele><time>2026-04-15T11:05:10.867Z</time></trkpt><trkpt lat="42.59886" lon="-7.3647167"><ele>693.5</ele><time>2026-04-15T11:05:11.867Z</time></trkpt><trkpt lat="42.5988917" lon="-7.3644017"><ele>697.0</ele><time>2026-04-15T11:05:12.867Z</time></trkpt><trkpt lat="42.5989333" lon="-7.364105"><ele>699.0</ele><time>2026-04-15T11:05:13.868Z</time></trkpt><trkpt lat="42.5989567" lon="-7.36385"><ele>701.0</ele><time>2026-04-15T11:05:14.868Z</time></trkpt><trkpt lat="42.59895" lon="-7.3636283"><ele>703.0</ele><time>2026-04-15T11:05:15.867Z</time></trkpt><trkpt lat="42.5989033" lon="-7.3634217"><ele>703.0</ele><time>2026-04-15T11:05:16.868Z</time></trkpt><trkpt lat="42.59884" lon="-7.3632467"><ele>703.0</ele><time>2026-04-15T11:05:17.867Z</time></trkpt><trkpt lat="42.598785" lon="-7.36311"><ele>703.0</ele><time>2026-04-15T11:05:18.867Z</time></trkpt><trkpt lat="42.5987717" lon="-7.3629933"><ele>703.0</ele><time>2026-04-15T11:05:19.867Z</time></trkpt><trkpt lat="42.5987967" lon="-7.3628867"><ele>703.0</ele><time>2026-04-15T11:05:20.868Z</time></trkpt><trkpt lat="42.5988417" lon="-7.3627983"><ele>701.5</ele><time>2026-04-15T11:05:21.868Z</time></trkpt><trkpt lat="42.5989167" lon="-7.36271"><ele>700.0</ele><time>2026-04-15T11:05:22.868Z</time></trkpt><trkpt lat="42.5990233" lon="-7.362605"><ele>698.5</ele><time>2026-04-15T11:05:23.867Z</time></trkpt><trkpt lat="42.5991817" lon="-7.3625083"><ele>697.0</ele><time>2026-04-15T11:05:24.867Z</time></trkpt><trkpt lat="42.5993783" lon="-7.3624033"><ele>700.0</ele><time>2026-04-15T11:05:25.868Z</time></trkpt><trkpt lat="42.59959" lon="-7.362305"><ele>703.0</ele><time>2026-04-15T11:05:26.867Z</time></trkpt><trkpt lat="42.599785" lon="-7.362215"><ele>706.0</ele><time>2026-04-15T11:05:27.867Z</time></trkpt><trkpt lat="42.5999667" lon="-7.362125"><ele>706.6666666666667</ele><time>2026-04-15T11:05:28.868Z</time></trkpt><trkpt lat="42.6001183" lon="-7.3620367"><ele>707.3333333333334</ele><time>2026-04-15T11:05:29.867Z</time></trkpt><trkpt lat="42.6002483" lon="-7.3619233"><ele>708.0</ele><time>2026-04-15T11:05:30.867Z</time></trkpt><trkpt lat="42.6003833" lon="-7.3617783"><ele>708.0</ele><time>2026-04-15T11:05:31.867Z</time></trkpt><trkpt lat="42.60051" lon="-7.361605"><ele>708.0</ele><time>2026-04-15T11:05:32.868Z</time></trkpt><trkpt lat="42.6006317" lon="-7.3614083"><ele>708.0</ele><time>2026-04-15T11:05:33.868Z</time></trkpt><trkpt lat="42.6007133" lon="-7.36126"><ele>703.8</ele><time>2026-04-15T11:05:34.868Z</time></trkpt><trkpt lat="42.60076" lon="-7.3611433"><ele>699.5999999999999</ele><time>2026-04-15T11:05:35.868Z</time></trkpt><trkpt lat="42.6007183" lon="-7.36106"><ele>695.4000000000001</ele><time>2026-04-15T11:05:38.867Z</time></trkpt><trkpt lat="42.6006367" lon="-7.3611"><ele>691.2</ele><time>2026-04-15T11:05:40.867Z</time></trkpt><trkpt lat="42.6005617" lon="-7.3611467"><ele>687.0</ele><time>2026-04-15T11:05:41.868Z</time></trkpt><trkpt lat="42.6004533" lon="-7.3612117"><ele>687.3333333333334</ele><time>2026-04-15T11:05:42.868Z</time></trkpt><trkpt lat="42.6003267" lon="-7.3612717"><ele>687.6666666666667</ele><time>2026-04-15T11:05:43.867Z</time></trkpt><trkpt lat="42.6001917" lon="-7.36132"><ele>688.0</ele><time>2026-04-15T11:05:44.867Z</time></trkpt><trkpt lat="42.6000183" lon="-7.3613683"><ele>688.0</ele><time>2026-04-15T11:05:45.867Z</time></trkpt><trkpt lat="42.5999167" lon="-7.3613767"><ele>688.0</ele><time>2026-04-15T11:05:46.867Z</time></trkpt><trkpt lat="42.5998483" lon="-7.3613767"><ele>688.0</ele><time>2026-04-15T11:05:47.868Z</time></trkpt><trkpt lat="42.5997933" lon="-7.3613267"><ele>688.0</ele><time>2026-04-15T11:05:49.868Z</time></trkpt><trkpt lat="42.59988" lon="-7.3611767"><ele>688.0</ele><time>2026-04-15T11:05:51.868Z</time></trkpt><trkpt lat="42.5999467" lon="-7.36103"><ele>679.6666666666667</ele><time>2026-04-15T11:05:52.868Z</time></trkpt><trkpt lat="42.60002" lon="-7.360815"><ele>671.3333333333334</ele><time>2026-04-15T11:05:53.867Z</time></trkpt><trkpt lat="42.600085" lon="-7.360575"><ele>663.0</ele><time>2026-04-15T11:05:54.868Z</time></trkpt><trkpt lat="42.6001517" lon="-7.360355"><ele>664.6666666666666</ele><time>2026-04-15T11:05:55.868Z</time></trkpt><trkpt lat="42.60023" lon="-7.3601617"><ele>666.3333333333333</ele><time>2026-04-15T11:05:56.868Z</time></trkpt><trkpt lat="42.6003333" lon="-7.3600067"><ele>668.0</ele><time>2026-04-15T11:05:57.867Z</time></trkpt><trkpt lat="42.6004567" lon="-7.3598617"><ele>668.0</ele><time>2026-04-15T11:05:58.867Z</time></trkpt><trkpt lat="42.600565" lon="-7.359715"><ele>668.0</ele><time>2026-04-15T11:05:59.867Z</time></trkpt><trkpt lat="42.600645" lon="-7.35961"><ele>668.0</ele><time>2026-04-15T11:06:00.868Z</time></trkpt><trkpt lat="42.6006967" lon="-7.3595217"><ele>668.0</ele><time>2026-04-15T11:06:01.868Z</time></trkpt><trkpt lat="42.6007183" lon="-7.35942"><ele>668.0</ele><time>2026-04-15T11:06:03.868Z</time></trkpt><trkpt lat="42.600595" lon="-7.3594783"><ele>664.5</ele><time>2026-04-15T11:06:06.868Z</time></trkpt><trkpt lat="42.6004983" lon="-7.35956"><ele>661.0</ele><time>2026-04-15T11:06:07.867Z</time></trkpt><trkpt lat="42.60039" lon="-7.3596533"><ele>657.5</ele><time>2026-04-15T11:06:08.867Z</time></trkpt><trkpt lat="42.60026" lon="-7.359735"><ele>654.0</ele><time>2026-04-15T11:06:09.867Z</time></trkpt><trkpt lat="42.6001267" lon="-7.3598017"><ele>652.25</ele><time>2026-04-15T11:06:10.867Z</time></trkpt><trkpt lat="42.5999983" lon="-7.3598517"><ele>650.5</ele><time>2026-04-15T11:06:11.868Z</time></trkpt><trkpt lat="42.5998733" lon="-7.3598817"><ele>648.75</ele><time>2026-04-15T11:06:12.867Z</time></trkpt><trkpt lat="42.5997683" lon="-7.3599067"><ele>647.0</ele><time>2026-04-15T11:06:13.867Z</time></trkpt><trkpt lat="42.5996783" lon="-7.3599367"><ele>647.0</ele><time>2026-04-15T11:06:14.868Z</time></trkpt><trkpt lat="42.5996067" lon="-7.3599883"><ele>647.0</ele><time>2026-04-15T11:06:15.867Z</time></trkpt><trkpt lat="42.5995483" lon="-7.360075"><ele>647.0</ele><time>2026-04-15T11:06:16.868Z</time></trkpt><trkpt lat="42.5995133" lon="-7.3601983"><ele>647.0</ele><time>2026-04-15T11:06:17.867Z</time></trkpt><trkpt lat="42.5994633" lon="-7.3603017"><ele>647.0</ele><time>2026-04-15T11:06:18.867Z</time></trkpt><trkpt lat="42.5993867" lon="-7.3603867"><ele>641.3333333333333</ele><time>2026-04-15T11:06:19.867Z</time></trkpt><trkpt lat="42.5992667" lon="-7.3604467"><ele>635.6666666666666</ele><time>2026-04-15T11:06:20.867Z</time></trkpt><trkpt lat="42.5991183" lon="-7.3604817"><ele>630.0</ele><time>2026-04-15T11:06:21.868Z</time></trkpt><trkpt lat="42.5989417" lon="-7.360495"><ele>630.0</ele><time>2026-04-15T11:06:22.867Z</time></trkpt><trkpt lat="42.5987317" lon="-7.36048"><ele>630.0</ele><time>2026-04-15T11:06:23.867Z</time></trkpt><trkpt lat="42.598545" lon="-7.3604867"><ele>630.0</ele><time>2026-04-15T11:06:24.867Z</time></trkpt><trkpt lat="42.5983733" lon="-7.3604917"><ele>625.6666666666666</ele><time>2026-04-15T11:06:25.867Z</time></trkpt><trkpt lat="42.5982067" lon="-7.360485"><ele>621.3333333333333</ele><time>2026-04-15T11:06:26.867Z</time></trkpt><trkpt lat="42.598045" lon="-7.3604767"><ele>617.0</ele><time>2026-04-15T11:06:27.868Z</time></trkpt><trkpt lat="42.5979067" lon="-7.360445"><ele>613.0</ele><time>2026-04-15T11:06:28.867Z</time></trkpt><trkpt lat="42.59777" lon="-7.3603833"><ele>609.0</ele><time>2026-04-15T11:06:29.867Z</time></trkpt><trkpt lat="42.5976483" lon="-7.36031"><ele>605.0</ele><time>2026-04-15T11:06:30.868Z</time></trkpt><trkpt lat="42.5975417" lon="-7.3602267"><ele>601.0</ele><time>2026-04-15T11:06:31.867Z</time></trkpt><trkpt lat="42.59744" lon="-7.360135"><ele>601.0</ele><time>2026-04-15T11:06:32.867Z</time></trkpt><trkpt lat="42.5973383" lon="-7.3600433"><ele>601.0</ele><time>2026-04-15T11:06:33.868Z</time></trkpt><trkpt lat="42.5972233" lon="-7.359955"><ele>601.0</ele><time>2026-04-15T11:06:34.868Z</time></trkpt><trkpt lat="42.5971233" lon="-7.3598817"><ele>601.0</ele><time>2026-04-15T11:06:35.868Z</time></trkpt><trkpt lat="42.59705" lon="-7.359795"><ele>601.2</ele><time>2026-04-15T11:06:36.868Z</time></trkpt><trkpt lat="42.59696" lon="-7.359755"><ele>601.4000000000001</ele><time>2026-04-15T11:06:37.868Z</time></trkpt><trkpt lat="42.5968583" lon="-7.35973"><ele>601.6</ele><time>2026-04-15T11:06:38.868Z</time></trkpt><trkpt lat="42.5967533" lon="-7.359725"><ele>601.8000000000001</ele><time>2026-04-15T11:06:39.868Z</time></trkpt><trkpt lat="42.5966367" lon="-7.3597033"><ele>602.0</ele><time>2026-04-15T11:06:40.868Z</time></trkpt><trkpt lat="42.596525" lon="-7.3596533"><ele>598.25</ele><time>2026-04-15T11:06:41.867Z</time></trkpt><trkpt lat="42.5964183" lon="-7.35957"><ele>594.5</ele><time>2026-04-15T11:06:42.868Z</time></trkpt><trkpt lat="42.5963033" lon="-7.359475"><ele>590.75</ele><time>2026-04-15T11:06:43.868Z</time></trkpt><trkpt lat="42.5961767" lon="-7.3593833"><ele>587.0</ele><time>2026-04-15T11:06:44.867Z</time></trkpt><trkpt lat="42.5960367" lon="-7.35932"><ele>583.0</ele><time>2026-04-15T11:06:45.867Z</time></trkpt><trkpt lat="42.5958833" lon="-7.3592667"><ele>579.0</ele><time>2026-04-15T11:06:46.868Z</time></trkpt><trkpt lat="42.5957467" lon="-7.35923"><ele>575.0</ele><time>2026-04-15T11:06:47.867Z</time></trkpt><trkpt lat="42.595625" lon="-7.3592417"><ele>571.0</ele><time>2026-04-15T11:06:48.867Z</time></trkpt><trkpt lat="42.5955317" lon="-7.35929"><ele>571.0</ele><time>2026-04-15T11:06:49.867Z</time></trkpt><trkpt lat="42.5954233" lon="-7.3593867"><ele>571.0</ele><time>2026-04-15T11:06:50.867Z</time></trkpt><trkpt lat="42.59532" lon="-7.3595383"><ele>571.0</ele><time>2026-04-15T11:06:51.867Z</time></trkpt><trkpt lat="42.5952017" lon="-7.3597283"><ele>568.0</ele><time>2026-04-15T11:06:52.868Z</time></trkpt><trkpt lat="42.5950883" lon="-7.3599333"><ele>565.0</ele><time>2026-04-15T11:06:53.868Z</time></trkpt><trkpt lat="42.594975" lon="-7.3601467"><ele>562.0</ele><time>2026-04-15T11:06:54.868Z</time></trkpt><trkpt lat="42.5948783" lon="-7.3603617"><ele>566.0</ele><time>2026-04-15T11:06:55.867Z</time></trkpt><trkpt lat="42.5947967" lon="-7.36059"><ele>570.0</ele><time>2026-04-15T11:06:56.867Z</time></trkpt><trkpt lat="42.59472" lon="-7.3608217"><ele>574.0</ele><time>2026-04-15T11:06:57.867Z</time></trkpt><trkpt lat="42.5946717" lon="-7.3610433"><ele>574.0</ele><time>2026-04-15T11:06:58.868Z</time></trkpt><trkpt lat="42.59465" lon="-7.3612567"><ele>574.0</ele><time>2026-04-15T11:06:59.867Z</time></trkpt><trkpt lat="42.59467" lon="-7.361485"><ele>574.0</ele><time>2026-04-15T11:07:00.867Z</time></trkpt><trkpt lat="42.5947067" lon="-7.36171"><ele>574.6666666666667</ele><time>2026-04-15T11:07:01.868Z</time></trkpt><trkpt lat="42.5947583" lon="-7.3619917"><ele>575.3333333333334</ele><time>2026-04-15T11:07:02.868Z</time></trkpt><trkpt lat="42.59478" lon="-7.3622867"><ele>576.0</ele><time>2026-04-15T11:07:03.867Z</time></trkpt><trkpt lat="42.5947717" lon="-7.3625417"><ele>576.0</ele><time>2026-04-15T11:07:04.868Z</time></trkpt><trkpt lat="42.5947433" lon="-7.3627833"><ele>576.0</ele><time>2026-04-15T11:07:05.867Z</time></trkpt><trkpt lat="42.5946883" lon="-7.3629967"><ele>576.0</ele><time>2026-04-15T11:07:06.868Z</time></trkpt><trkpt lat="42.5946033" lon="-7.3632017"><ele>572.3333333333334</ele><time>2026-04-15T11:07:07.868Z</time></trkpt><trkpt lat="42.5944917" lon="-7.3634183"><ele>568.6666666666667</ele><time>2026-04-15T11:07:08.867Z</time></trkpt><trkpt lat="42.5943533" lon="-7.3636467"><ele>565.0</ele><time>2026-04-15T11:07:09.867Z</time></trkpt><trkpt lat="42.5942217" lon="-7.3638717"><ele>565.0</ele><time>2026-04-15T11:07:10.868Z</time></trkpt><trkpt lat="42.5941033" lon="-7.3640883"><ele>565.0</ele><time>2026-04-15T11:07:11.868Z</time></trkpt><trkpt lat="42.594" lon="-7.3642683"><ele>565.0</ele><time>2026-04-15T11:07:12.867Z</time></trkpt><trkpt lat="42.5939233" lon="-7.36444"><ele>565.0</ele><time>2026-04-15T11:07:13.867Z</time></trkpt><trkpt lat="42.593855" lon="-7.3645633"><ele>565.0</ele><time>2026-04-15T11:07:14.867Z</time></trkpt><trkpt lat="42.5937667" lon="-7.36463"><ele>565.0</ele><time>2026-04-15T11:07:15.868Z</time></trkpt><trkpt lat="42.5936533" lon="-7.3646717"><ele>565.0</ele><time>2026-04-15T11:07:16.868Z</time></trkpt><trkpt lat="42.5935283" lon="-7.3647217"><ele>561.5</ele><time>2026-04-15T11:07:17.868Z</time></trkpt><trkpt lat="42.5934067" lon="-7.3648083"><ele>558.0</ele><time>2026-04-15T11:07:18.867Z</time></trkpt><trkpt lat="42.5932883" lon="-7.36493"><ele>554.5</ele><time>2026-04-15T11:07:19.867Z</time></trkpt><trkpt lat="42.59318" lon="-7.36509"><ele>551.0</ele><time>2026-04-15T11:07:20.868Z</time></trkpt><trkpt lat="42.5930783" lon="-7.3652867"><ele>551.0</ele><time>2026-04-15T11:07:21.867Z</time></trkpt><trkpt lat="42.5929883" lon="-7.3654967"><ele>551.0</ele><time>2026-04-15T11:07:22.867Z</time></trkpt><trkpt lat="42.59289" lon="-7.3656517"><ele>551.0</ele><time>2026-04-15T11:07:23.867Z</time></trkpt><trkpt lat="42.5928067" lon="-7.3657717"><ele>550.5</ele><time>2026-04-15T11:07:24.868Z</time></trkpt><trkpt lat="42.5926983" lon="-7.3658417"><ele>550.0</ele><time>2026-04-15T11:07:25.868Z</time></trkpt><trkpt lat="42.5925683" lon="-7.3658683"><ele>549.5</ele><time>2026-04-15T11:07:26.868Z</time></trkpt><trkpt lat="42.5924217" lon="-7.3658717"><ele>549.0</ele><time>2026-04-15T11:07:27.867Z</time></trkpt><trkpt lat="42.5923067" lon="-7.3659133"><ele>549.0</ele><time>2026-04-15T11:07:28.867Z</time></trkpt><trkpt lat="42.5922033" lon="-7.3659767"><ele>549.0</ele><time>2026-04-15T11:07:29.867Z</time></trkpt><trkpt lat="42.5921383" lon="-7.3660767"><ele>549.0</ele><time>2026-04-15T11:07:30.868Z</time></trkpt><trkpt lat="42.5920817" lon="-7.3662233"><ele>549.0</ele><time>2026-04-15T11:07:31.867Z</time></trkpt><trkpt lat="42.5920267" lon="-7.366435"><ele>550.3333333333334</ele><time>2026-04-15T11:07:32.868Z</time></trkpt><trkpt lat="42.5919567" lon="-7.3666767"><ele>551.6666666666667</ele><time>2026-04-15T11:07:33.868Z</time></trkpt><trkpt lat="42.5918767" lon="-7.366935"><ele>553.0</ele><time>2026-04-15T11:07:34.867Z</time></trkpt><trkpt lat="42.5917617" lon="-7.3672"><ele>553.0</ele><time>2026-04-15T11:07:35.868Z</time></trkpt><trkpt lat="42.5916517" lon="-7.3674367"><ele>553.0</ele><time>2026-04-15T11:07:36.867Z</time></trkpt><trkpt lat="42.591565" lon="-7.3676483"><ele>553.0</ele><time>2026-04-15T11:07:37.868Z</time></trkpt><trkpt lat="42.591525" lon="-7.367845"><ele>553.0</ele><time>2026-04-15T11:07:38.867Z</time></trkpt><trkpt lat="42.591515" lon="-7.368"><ele>553.0</ele><time>2026-04-15T11:07:39.868Z</time></trkpt><trkpt lat="42.5915433" lon="-7.3681433"><ele>553.0</ele><time>2026-04-15T11:07:40.867Z</time></trkpt><trkpt lat="42.59161" lon="-7.3683083"><ele>553.0</ele><time>2026-04-15T11:07:41.868Z</time></trkpt><trkpt lat="42.5916867" lon="-7.3684933"><ele>553.0</ele><time>2026-04-15T11:07:42.867Z</time></trkpt><trkpt lat="42.5917817" lon="-7.368695"><ele>553.0</ele><time>2026-04-15T11:07:43.867Z</time></trkpt><trkpt lat="42.5918717" lon="-7.3689067"><ele>553.0</ele><time>2026-04-15T11:07:44.867Z</time></trkpt><trkpt lat="42.5919433" lon="-7.3691083"><ele>553.0</ele><time>2026-04-15T11:07:45.867Z</time></trkpt><trkpt lat="42.5919833" lon="-7.36929"><ele>553.0</ele><time>2026-04-15T11:07:46.867Z</time></trkpt><trkpt lat="42.592" lon="-7.3694433"><ele>553.0</ele><time>2026-04-15T11:07:47.868Z</time></trkpt><trkpt lat="42.5919883" lon="-7.3695683"><ele>553.0</ele><time>2026-04-15T11:07:48.868Z</time></trkpt><trkpt lat="42.5919433" lon="-7.3696683"><ele>553.0</ele><time>2026-04-15T11:07:49.868Z</time></trkpt><trkpt lat="42.5918867" lon="-7.369745"><ele>555.75</ele><time>2026-04-15T11:07:50.867Z</time></trkpt><trkpt lat="42.5917917" lon="-7.3698117"><ele>558.5</ele><time>2026-04-15T11:07:51.867Z</time></trkpt><trkpt lat="42.5916733" lon="-7.3698683"><ele>561.25</ele><time>2026-04-15T11:07:52.868Z</time></trkpt><trkpt lat="42.5915183" lon="-7.3699"><ele>564.0</ele><time>2026-04-15T11:07:53.868Z</time></trkpt><trkpt lat="42.5913117" lon="-7.3699267"><ele>562.5</ele><time>2026-04-15T11:07:54.868Z</time></trkpt><trkpt lat="42.5911333" lon="-7.3699683"><ele>561.0</ele><time>2026-04-15T11:07:55.868Z</time></trkpt><trkpt lat="42.5910067" lon="-7.3700217"><ele>559.5</ele><time>2026-04-15T11:07:56.867Z</time></trkpt><trkpt lat="42.5909267" lon="-7.3700933"><ele>558.0</ele><time>2026-04-15T11:07:57.867Z</time></trkpt><trkpt lat="42.5908783" lon="-7.3701783"><ele>558.0</ele><time>2026-04-15T11:07:58.867Z</time></trkpt><trkpt lat="42.5908467" lon="-7.3702967"><ele>558.0</ele><time>2026-04-15T11:07:59.868Z</time></trkpt><trkpt lat="42.5908233" lon="-7.370435"><ele>558.0</ele><time>2026-04-15T11:08:00.868Z</time></trkpt><trkpt lat="42.5907917" lon="-7.3705917"><ele>558.0</ele><time>2026-04-15T11:08:01.867Z</time></trkpt><trkpt lat="42.5907483" lon="-7.3707467"><ele>558.0</ele><time>2026-04-15T11:08:02.867Z</time></trkpt><trkpt lat="42.5906783" lon="-7.370905"><ele>560.75</ele><time>2026-04-15T11:08:03.868Z</time></trkpt><trkpt lat="42.5905917" lon="-7.3710333"><ele>563.5</ele><time>2026-04-15T11:08:04.867Z</time></trkpt><trkpt lat="42.590505" lon="-7.3711217"><ele>566.25</ele><time>2026-04-15T11:08:05.867Z</time></trkpt><trkpt lat="42.5903967" lon="-7.3711817"><ele>569.0</ele><time>2026-04-15T11:08:06.867Z</time></trkpt><trkpt lat="42.590265" lon="-7.3712217"><ele>569.0</ele><time>2026-04-15T11:08:07.868Z</time></trkpt><trkpt lat="42.59012" lon="-7.3712383"><ele>569.0</ele><time>2026-04-15T11:08:08.868Z</time></trkpt><trkpt lat="42.5899933" lon="-7.371285"><ele>569.0</ele><time>2026-04-15T11:08:09.867Z</time></trkpt><trkpt lat="42.5899" lon="-7.3713717"><ele>569.0</ele><time>2026-04-15T11:08:10.867Z</time></trkpt><trkpt lat="42.58985" lon="-7.3715"><ele>570.0</ele><time>2026-04-15T11:08:11.867Z</time></trkpt><trkpt lat="42.58984" lon="-7.3716733"><ele>571.0</ele><time>2026-04-15T11:08:12.867Z</time></trkpt><trkpt lat="42.589845" lon="-7.3718433"><ele>572.0</ele><time>2026-04-15T11:08:13.867Z</time></trkpt><trkpt lat="42.589855" lon="-7.3719767"><ele>573.0</ele><time>2026-04-15T11:08:14.868Z</time></trkpt><trkpt lat="42.589855" lon="-7.3721"><ele>574.0</ele><time>2026-04-15T11:08:15.868Z</time></trkpt><trkpt lat="42.5898467" lon="-7.3722383"><ele>574.0</ele><time>2026-04-15T11:08:16.867Z</time></trkpt><trkpt lat="42.589855" lon="-7.3723917"><ele>574.0</ele><time>2026-04-15T11:08:17.867Z</time></trkpt><trkpt lat="42.5898983" lon="-7.372545"><ele>574.0</ele><time>2026-04-15T11:08:18.868Z</time></trkpt><trkpt lat="42.58996" lon="-7.3726867"><ele>574.0</ele><time>2026-04-15T11:08:19.867Z</time></trkpt><trkpt lat="42.5900317" lon="-7.3728433"><ele>574.0</ele><time>2026-04-15T11:08:20.868Z</time></trkpt><trkpt lat="42.5901117" lon="-7.3730167"><ele>574.0</ele><time>2026-04-15T11:08:21.867Z</time></trkpt><trkpt lat="42.59019" lon="-7.3732067"><ele>574.0</ele><time>2026-04-15T11:08:22.868Z</time></trkpt><trkpt lat="42.5902633" lon="-7.3734083"><ele>573.3333333333334</ele><time>2026-04-15T11:08:23.868Z</time></trkpt><trkpt lat="42.5903283" lon="-7.3736133"><ele>572.6666666666666</ele><time>2026-04-15T11:08:24.868Z</time></trkpt><trkpt lat="42.59039" lon="-7.373815"><ele>572.0</ele><time>2026-04-15T11:08:25.867Z</time></trkpt><trkpt lat="42.5904783" lon="-7.3740083"><ele>572.0</ele><time>2026-04-15T11:08:26.868Z</time></trkpt><trkpt lat="42.59058" lon="-7.3741933"><ele>572.0</ele><time>2026-04-15T11:08:27.867Z</time></trkpt><trkpt lat="42.5906867" lon="-7.3743417"><ele>572.0</ele><time>2026-04-15T11:08:28.868Z</time></trkpt><trkpt lat="42.59081" lon="-7.3745033"><ele>572.0</ele><time>2026-04-15T11:08:29.868Z</time></trkpt><trkpt lat="42.5909233" lon="-7.3746467"><ele>572.0</ele><time>2026-04-15T11:08:30.868Z</time></trkpt><trkpt lat="42.5910217" lon="-7.37478"><ele>572.0</ele><time>2026-04-15T11:08:31.867Z</time></trkpt><trkpt lat="42.5911183" lon="-7.3749033"><ele>572.0</ele><time>2026-04-15T11:08:32.868Z</time></trkpt><trkpt lat="42.5912183" lon="-7.3750217"><ele>567.75</ele><time>2026-04-15T11:08:33.867Z</time></trkpt><trkpt lat="42.591325" lon="-7.3751283"><ele>563.5</ele><time>2026-04-15T11:08:34.867Z</time></trkpt><trkpt lat="42.59145" lon="-7.3752183"><ele>559.25</ele><time>2026-04-15T11:08:35.868Z</time></trkpt><trkpt lat="42.591585" lon="-7.375295"><ele>555.0</ele><time>2026-04-15T11:08:36.868Z</time></trkpt><trkpt lat="42.59172" lon="-7.37536"><ele>555.0</ele><time>2026-04-15T11:08:37.868Z</time></trkpt><trkpt lat="42.5918517" lon="-7.3754283"><ele>555.0</ele><time>2026-04-15T11:08:38.868Z</time></trkpt><trkpt lat="42.591985" lon="-7.3754817"><ele>555.0</ele><time>2026-04-15T11:08:39.867Z</time></trkpt><trkpt lat="42.592105" lon="-7.3755083"><ele>555.0</ele><time>2026-04-15T11:08:40.867Z</time></trkpt><trkpt lat="42.5922083" lon="-7.3755"><ele>552.4</ele><time>2026-04-15T11:08:41.867Z</time></trkpt><trkpt lat="42.5922967" lon="-7.3754667"><ele>549.8</ele><time>2026-04-15T11:08:42.867Z</time></trkpt><trkpt lat="42.5923683" lon="-7.375405"><ele>547.2</ele><time>2026-04-15T11:08:43.867Z</time></trkpt><trkpt lat="42.5924383" lon="-7.375335"><ele>544.6</ele><time>2026-04-15T11:08:44.867Z</time></trkpt><trkpt lat="42.59251" lon="-7.3752483"><ele>542.0</ele><time>2026-04-15T11:08:45.868Z</time></trkpt><trkpt lat="42.59257" lon="-7.3751467"><ele>542.0</ele><time>2026-04-15T11:08:46.868Z</time></trkpt><trkpt lat="42.5926217" lon="-7.37502"><ele>542.0</ele><time>2026-04-15T11:08:47.867Z</time></trkpt><trkpt lat="42.5926783" lon="-7.3748667"><ele>542.0</ele><time>2026-04-15T11:08:48.867Z</time></trkpt><trkpt lat="42.5927383" lon="-7.374715"><ele>542.0</ele><time>2026-04-15T11:08:49.868Z</time></trkpt><trkpt lat="42.592815" lon="-7.3745733"><ele>544.75</ele><time>2026-04-15T11:08:50.867Z</time></trkpt><trkpt lat="42.5929083" lon="-7.3744367"><ele>547.5</ele><time>2026-04-15T11:08:51.868Z</time></trkpt><trkpt lat="42.593" lon="-7.37429"><ele>550.25</ele><time>2026-04-15T11:08:52.867Z</time></trkpt><trkpt lat="42.593095" lon="-7.374165"><ele>553.0</ele><time>2026-04-15T11:08:53.868Z</time></trkpt><trkpt lat="42.593195" lon="-7.3740667"><ele>553.0</ele><time>2026-04-15T11:08:54.867Z</time></trkpt><trkpt lat="42.593305" lon="-7.3740117"><ele>553.0</ele><time>2026-04-15T11:08:55.867Z</time></trkpt><trkpt lat="42.593445" lon="-7.3739767"><ele>553.0</ele><time>2026-04-15T11:08:56.868Z</time></trkpt><trkpt lat="42.5936" lon="-7.373925"><ele>553.0</ele><time>2026-04-15T11:08:57.867Z</time></trkpt><trkpt lat="42.5937667" lon="-7.373865"><ele>558.25</ele><time>2026-04-15T11:08:58.867Z</time></trkpt><trkpt lat="42.5939183" lon="-7.3737883"><ele>563.5</ele><time>2026-04-15T11:08:59.868Z</time></trkpt><trkpt lat="42.5940367" lon="-7.3736967"><ele>568.75</ele><time>2026-04-15T11:09:00.868Z</time></trkpt><trkpt lat="42.5941183" lon="-7.373635"><ele>574.0</ele><time>2026-04-15T11:09:01.867Z</time></trkpt><trkpt lat="42.5941917" lon="-7.3735733"><ele>574.0</ele><time>2026-04-15T11:09:02.867Z</time></trkpt><trkpt lat="42.5942717" lon="-7.3735183"><ele>574.0</ele><time>2026-04-15T11:09:03.867Z</time></trkpt><trkpt lat="42.594355" lon="-7.3734667"><ele>574.0</ele><time>2026-04-15T11:09:04.867Z</time></trkpt><trkpt lat="42.5944567" lon="-7.37342"><ele>574.0</ele><time>2026-04-15T11:09:05.868Z</time></trkpt><trkpt lat="42.594565" lon="-7.3733633"><ele>574.0</ele><time>2026-04-15T11:09:06.867Z</time></trkpt><trkpt lat="42.59469" lon="-7.3733033"><ele>576.25</ele><time>2026-04-15T11:09:07.868Z</time></trkpt><trkpt lat="42.5948183" lon="-7.3732283"><ele>578.5</ele><time>2026-04-15T11:09:08.868Z</time></trkpt><trkpt lat="42.594935" lon="-7.3731567"><ele>580.75</ele><time>2026-04-15T11:09:09.868Z</time></trkpt><trkpt lat="42.5950567" lon="-7.3730733"><ele>583.0</ele><time>2026-04-15T11:09:10.867Z</time></trkpt><trkpt lat="42.595195" lon="-7.3729933"><ele>587.25</ele><time>2026-04-15T11:09:11.868Z</time></trkpt><trkpt lat="42.5953367" lon="-7.3729133"><ele>591.5</ele><time>2026-04-15T11:09:12.867Z</time></trkpt><trkpt lat="42.5954783" lon="-7.3728633"><ele>595.75</ele><time>2026-04-15T11:09:13.867Z</time></trkpt><trkpt lat="42.5956017" lon="-7.3728167"><ele>600.0</ele><time>2026-04-15T11:09:14.868Z</time></trkpt><trkpt lat="42.59572" lon="-7.3727683"><ele>601.25</ele><time>2026-04-15T11:09:15.867Z</time></trkpt><trkpt lat="42.5958383" lon="-7.3727333"><ele>602.5</ele><time>2026-04-15T11:09:16.868Z</time></trkpt><trkpt lat="42.595975" lon="-7.3727067"><ele>603.75</ele><time>2026-04-15T11:09:17.867Z</time></trkpt><trkpt lat="42.5961183" lon="-7.3726783"><ele>605.0</ele><time>2026-04-15T11:09:18.867Z</time></trkpt><trkpt lat="42.5962867" lon="-7.37267"><ele>605.3333333333333</ele><time>2026-04-15T11:09:19.868Z</time></trkpt><trkpt lat="42.5964583" lon="-7.3726717"><ele>605.6666666666666</ele><time>2026-04-15T11:09:20.868Z</time></trkpt><trkpt lat="42.5966333" lon="-7.3726717"><ele>606.0</ele><time>2026-04-15T11:09:21.868Z</time></trkpt><trkpt lat="42.5968033" lon="-7.3726383"><ele>606.0</ele><time>2026-04-15T11:09:22.867Z</time></trkpt><trkpt lat="42.59698" lon="-7.3725683"><ele>606.0</ele><time>2026-04-15T11:09:23.868Z</time></trkpt><trkpt lat="42.5971567" lon="-7.3724717"><ele>606.0</ele><time>2026-04-15T11:09:24.867Z</time></trkpt><trkpt lat="42.597335" lon="-7.3723467"><ele>605.0</ele><time>2026-04-15T11:09:25.867Z</time></trkpt><trkpt lat="42.5975117" lon="-7.3721967"><ele>604.0</ele><time>2026-04-15T11:09:26.868Z</time></trkpt><trkpt lat="42.5976867" lon="-7.3720317"><ele>603.0</ele><time>2026-04-15T11:09:27.868Z</time></trkpt><trkpt lat="42.59784" lon="-7.3718683"><ele>603.0</ele><time>2026-04-15T11:09:28.867Z</time></trkpt><trkpt lat="42.5979883" lon="-7.3717267"><ele>603.0</ele><time>2026-04-15T11:09:29.867Z</time></trkpt><trkpt lat="42.5981333" lon="-7.371595"><ele>603.0</ele><time>2026-04-15T11:09:30.868Z</time></trkpt><trkpt lat="42.598265" lon="-7.3714633"><ele>606.25</ele><time>2026-04-15T11:09:31.868Z</time></trkpt><trkpt lat="42.59837" lon="-7.3713183"><ele>609.5</ele><time>2026-04-15T11:09:32.867Z</time></trkpt><trkpt lat="42.5984317" lon="-7.3711683"><ele>612.75</ele><time>2026-04-15T11:09:33.868Z</time></trkpt><trkpt lat="42.5984783" lon="-7.3709883"><ele>616.0</ele><time>2026-04-15T11:09:34.868Z</time></trkpt><trkpt lat="42.59852" lon="-7.37079"><ele>616.0</ele><time>2026-04-15T11:09:35.868Z</time></trkpt><trkpt lat="42.5985767" lon="-7.3705983"><ele>616.0</ele><time>2026-04-15T11:09:36.867Z</time></trkpt><trkpt lat="42.59867" lon="-7.3704367"><ele>616.0</ele><time>2026-04-15T11:09:37.868Z</time></trkpt><trkpt lat="42.598795" lon="-7.370285"><ele>615.0</ele><time>2026-04-15T11:09:38.868Z</time></trkpt><trkpt lat="42.59894" lon="-7.3701283"><ele>614.0</ele><time>2026-04-15T11:09:39.868Z</time></trkpt><trkpt lat="42.5990667" lon="-7.3699583"><ele>613.0</ele><time>2026-04-15T11:09:40.868Z</time></trkpt><trkpt lat="42.5991733" lon="-7.369765"><ele>612.6666666666667</ele><time>2026-04-15T11:09:41.867Z</time></trkpt><trkpt lat="42.5992817" lon="-7.3695567"><ele>612.3333333333334</ele><time>2026-04-15T11:09:42.867Z</time></trkpt><trkpt lat="42.5994083" lon="-7.36937"><ele>612.0</ele><time>2026-04-15T11:09:43.867Z</time></trkpt><trkpt lat="42.59955" lon="-7.369195"><ele>612.0</ele><time>2026-04-15T11:09:44.867Z</time></trkpt><trkpt lat="42.5997083" lon="-7.369005"><ele>612.0</ele><time>2026-04-15T11:09:45.867Z</time></trkpt><trkpt lat="42.5998667" lon="-7.3688133"><ele>612.0</ele><time>2026-04-15T11:09:46.867Z</time></trkpt><trkpt lat="42.6000167" lon="-7.3686417"><ele>617.25</ele><time>2026-04-15T11:09:47.868Z</time></trkpt><trkpt lat="42.6001517" lon="-7.3684917"><ele>622.5</ele><time>2026-04-15T11:09:48.868Z</time></trkpt><trkpt lat="42.6002583" lon="-7.368375"><ele>627.75</ele><time>2026-04-15T11:09:49.868Z</time></trkpt><trkpt lat="42.6003" lon="-7.3682983"><ele>633.0</ele><time>2026-04-15T11:09:50.868Z</time></trkpt><trkpt lat="42.6002417" lon="-7.3682267"><ele>633.0</ele><time>2026-04-15T11:09:52.867Z</time></trkpt><trkpt lat="42.6001283" lon="-7.3681917"><ele>633.0</ele><time>2026-04-15T11:09:54.867Z</time></trkpt><trkpt lat="42.6000533" lon="-7.36818"><ele>633.0</ele><time>2026-04-15T11:09:55.867Z</time></trkpt><trkpt lat="42.5999433" lon="-7.3681617"><ele>633.0</ele><time>2026-04-15T11:09:56.867Z</time></trkpt><trkpt lat="42.599845" lon="-7.3681483"><ele>633.0</ele><time>2026-04-15T11:09:57.867Z</time></trkpt><trkpt lat="42.59972" lon="-7.3681233"><ele>633.0</ele><time>2026-04-15T11:09:58.868Z</time></trkpt><trkpt lat="42.5996217" lon="-7.3680983"><ele>633.0</ele><time>2026-04-15T11:09:59.867Z</time></trkpt><trkpt lat="42.599555" lon="-7.3680683"><ele>633.0</ele><time>2026-04-15T11:10:00.867Z</time></trkpt><trkpt lat="42.5996733" lon="-7.368005"><ele>633.0</ele><time>2026-04-15T11:10:04.868Z</time></trkpt><trkpt lat="42.5997967" lon="-7.3680067"><ele>633.0</ele><time>2026-04-15T11:10:05.868Z</time></trkpt><trkpt lat="42.5999433" lon="-7.3679817"><ele>635.3333333333334</ele><time>2026-04-15T11:10:06.868Z</time></trkpt><trkpt lat="42.6001233" lon="-7.367945"><ele>637.6666666666667</ele><time>2026-04-15T11:10:07.867Z</time></trkpt><trkpt lat="42.6002883" lon="-7.3679017"><ele>640.0</ele><time>2026-04-15T11:10:08.868Z</time></trkpt><trkpt lat="42.6004383" lon="-7.3678267"><ele>640.0</ele><time>2026-04-15T11:10:09.867Z</time></trkpt><trkpt lat="42.6005767" lon="-7.3677333"><ele>640.0</ele><time>2026-04-15T11:10:10.867Z</time></trkpt><trkpt lat="42.60069" lon="-7.3676133"><ele>640.0</ele><time>2026-04-15T11:10:11.868Z</time></trkpt><trkpt lat="42.60078" lon="-7.36752"><ele>640.0</ele><time>2026-04-15T11:10:12.868Z</time></trkpt><trkpt lat="42.6008567" lon="-7.3674833"><ele>640.0</ele><time>2026-04-15T11:10:13.867Z</time></trkpt><trkpt lat="42.600945" lon="-7.3674933"><ele>640.0</ele><time>2026-04-15T11:10:14.867Z</time></trkpt><trkpt lat="42.6010517" lon="-7.3675383"><ele>640.0</ele><time>2026-04-15T11:10:15.867Z</time></trkpt><trkpt lat="42.6011867" lon="-7.36759"><ele>640.0</ele><time>2026-04-15T11:10:16.868Z</time></trkpt><trkpt lat="42.60135" lon="-7.3676367"><ele>638.75</ele><time>2026-04-15T11:10:17.867Z</time></trkpt><trkpt lat="42.6015017" lon="-7.367675"><ele>637.5</ele><time>2026-04-15T11:10:18.868Z</time></trkpt><trkpt lat="42.6016417" lon="-7.3676867"><ele>636.25</ele><time>2026-04-15T11:10:19.868Z</time></trkpt><trkpt lat="42.601765" lon="-7.367665"><ele>635.0</ele><time>2026-04-15T11:10:20.867Z</time></trkpt><trkpt lat="42.6018867" lon="-7.367595"><ele>634.0</ele><time>2026-04-15T11:10:21.867Z</time></trkpt><trkpt lat="42.6020133" lon="-7.3674717"><ele>633.0</ele><time>2026-04-15T11:10:22.867Z</time></trkpt><trkpt lat="42.6021217" lon="-7.36734"><ele>632.0</ele><time>2026-04-15T11:10:23.867Z</time></trkpt><trkpt lat="42.602215" lon="-7.3672533"><ele>631.0</ele><time>2026-04-15T11:10:24.867Z</time></trkpt><trkpt lat="42.6022883" lon="-7.36722"><ele>631.0</ele><time>2026-04-15T11:10:25.868Z</time></trkpt><trkpt lat="42.60237" lon="-7.3672467"><ele>631.0</ele><time>2026-04-15T11:10:26.867Z</time></trkpt><trkpt lat="42.6024433" lon="-7.3673217"><ele>631.0</ele><time>2026-04-15T11:10:27.867Z</time></trkpt><trkpt lat="42.602515" lon="-7.3674383"><ele>631.0</ele><time>2026-04-15T11:10:28.868Z</time></trkpt><trkpt lat="42.6025617" lon="-7.3676333"><ele>631.0</ele><time>2026-04-15T11:10:29.867Z</time></trkpt><trkpt lat="42.6025983" lon="-7.36792"><ele>626.6666666666667</ele><time>2026-04-15T11:10:30.868Z</time></trkpt><trkpt lat="42.6026317" lon="-7.3682333"><ele>622.3333333333334</ele><time>2026-04-15T11:10:31.868Z</time></trkpt><trkpt lat="42.6026833" lon="-7.3684983"><ele>618.0</ele><time>2026-04-15T11:10:32.867Z</time></trkpt><trkpt lat="42.6026983" lon="-7.3687383"><ele>616.0</ele><time>2026-04-15T11:10:33.867Z</time></trkpt><trkpt lat="42.6026883" lon="-7.36896"><ele>614.0</ele><time>2026-04-15T11:10:34.868Z</time></trkpt><trkpt lat="42.602685" lon="-7.36916"><ele>612.0</ele><time>2026-04-15T11:10:35.867Z</time></trkpt><trkpt lat="42.6027167" lon="-7.3693517"><ele>612.0</ele><time>2026-04-15T11:10:36.868Z</time></trkpt><trkpt lat="42.6027717" lon="-7.369515"><ele>612.0</ele><time>2026-04-15T11:10:37.867Z</time></trkpt><trkpt lat="42.6028483" lon="-7.3696533"><ele>612.0</ele><time>2026-04-15T11:10:38.867Z</time></trkpt><trkpt lat="42.602935" lon="-7.3697567"><ele>612.0</ele><time>2026-04-15T11:10:39.868Z</time></trkpt><trkpt lat="42.6030467" lon="-7.3698383"><ele>614.6666666666666</ele><time>2026-04-15T11:10:40.868Z</time></trkpt><trkpt lat="42.60318" lon="-7.3699"><ele>617.3333333333333</ele><time>2026-04-15T11:10:41.867Z</time></trkpt><trkpt lat="42.6033417" lon="-7.3699567"><ele>620.0</ele><time>2026-04-15T11:10:42.867Z</time></trkpt><trkpt lat="42.60352" lon="-7.3700033"><ele>620.3333333333333</ele><time>2026-04-15T11:10:43.867Z</time></trkpt><trkpt lat="42.603725" lon="-7.3700533"><ele>620.6666666666666</ele><time>2026-04-15T11:10:44.868Z</time></trkpt><trkpt lat="42.60393" lon="-7.370095"><ele>621.0</ele><time>2026-04-15T11:10:45.867Z</time></trkpt><trkpt lat="42.60416" lon="-7.37014"><ele>621.0</ele><time>2026-04-15T11:10:46.868Z</time></trkpt><trkpt lat="42.6043867" lon="-7.3701867"><ele>621.0</ele><time>2026-04-15T11:10:47.868Z</time></trkpt><trkpt lat="42.6046133" lon="-7.37025"><ele>621.3333333333334</ele><time>2026-04-15T11:10:48.867Z</time></trkpt><trkpt lat="42.60482" lon="-7.3703217"><ele>621.6666666666667</ele><time>2026-04-15T11:10:49.867Z</time></trkpt><trkpt lat="42.6050133" lon="-7.370385"><ele>622.0</ele><time>2026-04-15T11:10:50.867Z</time></trkpt><trkpt lat="42.6051567" lon="-7.3704233"><ele>622.0</ele><time>2026-04-15T11:10:51.868Z</time></trkpt><trkpt lat="42.60528" lon="-7.3704517"><ele>622.0</ele><time>2026-04-15T11:10:52.868Z</time></trkpt><trkpt lat="42.605375" lon="-7.3704583"><ele>622.0</ele><time>2026-04-15T11:10:53.867Z</time></trkpt><trkpt lat="42.6054417" lon="-7.3704533"><ele>622.0</ele><time>2026-04-15T11:10:54.867Z</time></trkpt><trkpt lat="42.6055417" lon="-7.3704583"><ele>622.0</ele><time>2026-04-15T11:10:56.867Z</time></trkpt><trkpt lat="42.6056117" lon="-7.3704717"><ele>620.2</ele><time>2026-04-15T11:10:57.867Z</time></trkpt><trkpt lat="42.6056817" lon="-7.3704533"><ele>618.4000000000001</ele><time>2026-04-15T11:10:58.868Z</time></trkpt><trkpt lat="42.6057517" lon="-7.3704133"><ele>616.5999999999999</ele><time>2026-04-15T11:10:59.867Z</time></trkpt><trkpt lat="42.6057967" lon="-7.3702633"><ele>614.8</ele><time>2026-04-15T11:11:01.867Z</time></trkpt><trkpt lat="42.6057983" lon="-7.3701517"><ele>613.0</ele><time>2026-04-15T11:11:02.867Z</time></trkpt><trkpt lat="42.6058017" lon="-7.3700117"><ele>613.0</ele><time>2026-04-15T11:11:03.867Z</time></trkpt><trkpt lat="42.6057967" lon="-7.36986"><ele>613.0</ele><time>2026-04-15T11:11:04.867Z</time></trkpt><trkpt lat="42.605805" lon="-7.3697267"><ele>613.0</ele><time>2026-04-15T11:11:05.867Z</time></trkpt><trkpt lat="42.6058417" lon="-7.36963"><ele>613.0</ele><time>2026-04-15T11:11:06.867Z</time></trkpt><trkpt lat="42.6059083" lon="-7.3695667"><ele>613.0</ele><time>2026-04-15T11:11:07.867Z</time></trkpt><trkpt lat="42.6059867" lon="-7.3695417"><ele>613.5</ele><time>2026-04-15T11:11:08.867Z</time></trkpt><trkpt lat="42.6060817" lon="-7.369555"><ele>614.0</ele><time>2026-04-15T11:11:09.868Z</time></trkpt><trkpt lat="42.6062117" lon="-7.3696133"><ele>614.5</ele><time>2026-04-15T11:11:10.867Z</time></trkpt><trkpt lat="42.6063817" lon="-7.369725"><ele>615.0</ele><time>2026-04-15T11:11:11.867Z</time></trkpt><trkpt lat="42.606555" lon="-7.369815"><ele>615.0</ele><time>2026-04-15T11:11:12.868Z</time></trkpt><trkpt lat="42.606725" lon="-7.3698717"><ele>615.0</ele><time>2026-04-15T11:11:13.867Z</time></trkpt><trkpt lat="42.606865" lon="-7.3699067"><ele>615.0</ele><time>2026-04-15T11:11:14.868Z</time></trkpt><trkpt lat="42.6069867" lon="-7.3699533"><ele>615.0</ele><time>2026-04-15T11:11:15.867Z</time></trkpt><trkpt lat="42.6070833" lon="-7.370015"><ele>614.1666666666666</ele><time>2026-04-15T11:11:16.867Z</time></trkpt><trkpt lat="42.6071617" lon="-7.37009"><ele>613.3333333333334</ele><time>2026-04-15T11:11:17.868Z</time></trkpt><trkpt lat="42.60723" lon="-7.3701633"><ele>612.5</ele><time>2026-04-15T11:11:18.868Z</time></trkpt><trkpt lat="42.6072933" lon="-7.3702417"><ele>611.6666666666667</ele><time>2026-04-15T11:11:19.868Z</time></trkpt><trkpt lat="42.6073533" lon="-7.3703267"><ele>610.8333333333334</ele><time>2026-04-15T11:11:20.868Z</time></trkpt><trkpt lat="42.6073983" lon="-7.370435"><ele>610.0</ele><time>2026-04-15T11:11:21.867Z</time></trkpt><trkpt lat="42.6074467" lon="-7.37057"><ele>609.8</ele><time>2026-04-15T11:11:22.868Z</time></trkpt><trkpt lat="42.6075017" lon="-7.3706967"><ele>609.6</ele><time>2026-04-15T11:11:23.867Z</time></trkpt><trkpt lat="42.60757" lon="-7.370805"><ele>609.4</ele><time>2026-04-15T11:11:24.868Z</time></trkpt><trkpt lat="42.6076567" lon="-7.3708867"><ele>609.2</ele><time>2026-04-15T11:11:25.868Z</time></trkpt><trkpt lat="42.607745" lon="-7.3709567"><ele>609.0</ele><time>2026-04-15T11:11:26.867Z</time></trkpt><trkpt lat="42.6078533" lon="-7.37105"><ele>604.0</ele><time>2026-04-15T11:11:27.868Z</time></trkpt><trkpt lat="42.60796" lon="-7.3711667"><ele>599.0</ele><time>2026-04-15T11:11:28.868Z</time></trkpt><trkpt lat="42.608065" lon="-7.3713317"><ele>594.0</ele><time>2026-04-15T11:11:29.868Z</time></trkpt><trkpt lat="42.6081833" lon="-7.3715183"><ele>594.0</ele><time>2026-04-15T11:11:30.868Z</time></trkpt><trkpt lat="42.608295" lon="-7.3717017"><ele>594.0</ele><time>2026-04-15T11:11:31.868Z</time></trkpt><trkpt lat="42.6083917" lon="-7.37186"><ele>594.0</ele><time>2026-04-15T11:11:32.867Z</time></trkpt><trkpt lat="42.6084917" lon="-7.3720033"><ele>594.0</ele><time>2026-04-15T11:11:33.867Z</time></trkpt><trkpt lat="42.608595" lon="-7.372135"><ele>594.0</ele><time>2026-04-15T11:11:34.867Z</time></trkpt><trkpt lat="42.6086933" lon="-7.3722417"><ele>594.0</ele><time>2026-04-15T11:11:35.867Z</time></trkpt><trkpt lat="42.6087917" lon="-7.3723583"><ele>594.0</ele><time>2026-04-15T11:11:36.868Z</time></trkpt><trkpt lat="42.6089067" lon="-7.3724783"><ele>590.25</ele><time>2026-04-15T11:11:37.867Z</time></trkpt><trkpt lat="42.609015" lon="-7.37258"><ele>586.5</ele><time>2026-04-15T11:11:38.868Z</time></trkpt><trkpt lat="42.6091317" lon="-7.3726817"><ele>582.75</ele><time>2026-04-15T11:11:39.867Z</time></trkpt><trkpt lat="42.6092533" lon="-7.3727867"><ele>579.0</ele><time>2026-04-15T11:11:40.868Z</time></trkpt><trkpt lat="42.6093817" lon="-7.37289"><ele>579.0</ele><time>2026-04-15T11:11:41.867Z</time></trkpt><trkpt lat="42.60951" lon="-7.372995"><ele>579.0</ele><time>2026-04-15T11:11:42.867Z</time></trkpt><trkpt lat="42.6096233" lon="-7.3731133"><ele>579.0</ele><time>2026-04-15T11:11:43.867Z</time></trkpt><trkpt lat="42.6097317" lon="-7.3732367"><ele>579.0</ele><time>2026-04-15T11:11:44.867Z</time></trkpt><trkpt lat="42.6098433" lon="-7.37338"><ele>575.3333333333334</ele><time>2026-04-15T11:11:45.867Z</time></trkpt><trkpt lat="42.609965" lon="-7.3735283"><ele>571.6666666666667</ele><time>2026-04-15T11:11:46.868Z</time></trkpt><trkpt lat="42.6100783" lon="-7.3736767"><ele>568.0</ele><time>2026-04-15T11:11:47.867Z</time></trkpt><trkpt lat="42.6101883" lon="-7.37382"><ele>567.0</ele><time>2026-04-15T11:11:48.867Z</time></trkpt><trkpt lat="42.6102867" lon="-7.373965"><ele>566.0</ele><time>2026-04-15T11:11:49.867Z</time></trkpt><trkpt lat="42.6103633" lon="-7.3741133"><ele>565.0</ele><time>2026-04-15T11:11:50.868Z</time></trkpt><trkpt lat="42.6104167" lon="-7.374265"><ele>564.0</ele><time>2026-04-15T11:11:51.867Z</time></trkpt><trkpt lat="42.6104683" lon="-7.3744417"><ele>564.0</ele><time>2026-04-15T11:11:52.867Z</time></trkpt><trkpt lat="42.610505" lon="-7.374635"><ele>564.0</ele><time>2026-04-15T11:11:53.867Z</time></trkpt><trkpt lat="42.6105333" lon="-7.3748217"><ele>564.0</ele><time>2026-04-15T11:11:54.867Z</time></trkpt><trkpt lat="42.6105417" lon="-7.37498"><ele>564.0</ele><time>2026-04-15T11:11:55.867Z</time></trkpt><trkpt lat="42.6105383" lon="-7.3751"><ele>561.2</ele><time>2026-04-15T11:11:56.867Z</time></trkpt><trkpt lat="42.610485" lon="-7.3752133"><ele>558.4</ele><time>2026-04-15T11:11:57.867Z</time></trkpt><trkpt lat="42.61046" lon="-7.3753017"><ele>555.6</ele><time>2026-04-15T11:11:58.868Z</time></trkpt><trkpt lat="42.6104117" lon="-7.3753967"><ele>552.8</ele><time>2026-04-15T11:11:59.868Z</time></trkpt><trkpt lat="42.6103517" lon="-7.3754867"><ele>550.0</ele><time>2026-04-15T11:12:00.867Z</time></trkpt><trkpt lat="42.6102633" lon="-7.3755983"><ele>548.5</ele><time>2026-04-15T11:12:01.867Z</time></trkpt><trkpt lat="42.610145" lon="-7.3757383"><ele>547.0</ele><time>2026-04-15T11:12:02.867Z</time></trkpt><trkpt lat="42.61004" lon="-7.375885"><ele>545.5</ele><time>2026-04-15T11:12:03.867Z</time></trkpt><trkpt lat="42.6099517" lon="-7.3760233"><ele>544.0</ele><time>2026-04-15T11:12:04.867Z</time></trkpt><trkpt lat="42.6098733" lon="-7.3761767"><ele>544.0</ele><time>2026-04-15T11:12:05.867Z</time></trkpt><trkpt lat="42.6098183" lon="-7.3763383"><ele>544.0</ele><time>2026-04-15T11:12:06.867Z</time></trkpt><trkpt lat="42.6097933" lon="-7.3765067"><ele>544.0</ele><time>2026-04-15T11:12:07.868Z</time></trkpt><trkpt lat="42.60976" lon="-7.37669"><ele>544.0</ele><time>2026-04-15T11:12:08.868Z</time></trkpt><trkpt lat="42.6097383" lon="-7.3768633"><ele>544.1666666666667</ele><time>2026-04-15T11:12:09.867Z</time></trkpt><trkpt lat="42.6097117" lon="-7.3769967"><ele>544.3333333333334</ele><time>2026-04-15T11:12:10.867Z</time></trkpt><trkpt lat="42.6096883" lon="-7.37708"><ele>544.5</ele><time>2026-04-15T11:12:11.868Z</time></trkpt><trkpt lat="42.6095983" lon="-7.3770833"><ele>544.6666666666666</ele><time>2026-04-15T11:12:25.868Z</time></trkpt><trkpt lat="42.6095283" lon="-7.3771167"><ele>544.8333333333333</ele><time>2026-04-15T11:12:26.868Z</time></trkpt><trkpt lat="42.60946" lon="-7.377155"><ele>545.0</ele><time>2026-04-15T11:12:27.868Z</time></trkpt><trkpt lat="42.609395" lon="-7.377195"><ele>541.8</ele><time>2026-04-15T11:12:28.868Z</time></trkpt><trkpt lat="42.6093217" lon="-7.377245"><ele>538.6</ele><time>2026-04-15T11:12:29.868Z</time></trkpt><trkpt lat="42.6092283" lon="-7.3773083"><ele>535.4</ele><time>2026-04-15T11:12:30.867Z</time></trkpt><trkpt lat="42.60913" lon="-7.3773867"><ele>532.2</ele><time>2026-04-15T11:12:31.867Z</time></trkpt><trkpt lat="42.609035" lon="-7.37748"><ele>529.0</ele><time>2026-04-15T11:12:32.867Z</time></trkpt><trkpt lat="42.6089" lon="-7.37759"><ele>529.0</ele><time>2026-04-15T11:12:33.867Z</time></trkpt><trkpt lat="42.608785" lon="-7.3777083"><ele>529.0</ele><time>2026-04-15T11:12:34.868Z</time></trkpt><trkpt lat="42.6086767" lon="-7.3778133"><ele>529.0</ele><time>2026-04-15T11:12:35.867Z</time></trkpt><trkpt lat="42.6085783" lon="-7.377905"><ele>529.0</ele><time>2026-04-15T11:12:36.868Z</time></trkpt><trkpt lat="42.6085017" lon="-7.378005"><ele>528.0</ele><time>2026-04-15T11:12:37.867Z</time></trkpt><trkpt lat="42.6084417" lon="-7.3781133"><ele>527.0</ele><time>2026-04-15T11:12:38.867Z</time></trkpt><trkpt lat="42.6084" lon="-7.3782383"><ele>526.0</ele><time>2026-04-15T11:12:39.868Z</time></trkpt><trkpt lat="42.6083583" lon="-7.3783617"><ele>525.0</ele><time>2026-04-15T11:12:40.867Z</time></trkpt><trkpt lat="42.6083333" lon="-7.3784917"><ele>524.0</ele><time>2026-04-15T11:12:41.868Z</time></trkpt><trkpt lat="42.6083067" lon="-7.3786233"><ele>524.0</ele><time>2026-04-15T11:12:42.867Z</time></trkpt><trkpt lat="42.60828" lon="-7.378755"><ele>524.0</ele><time>2026-04-15T11:12:43.868Z</time></trkpt><trkpt lat="42.6082517" lon="-7.3788933"><ele>524.0</ele><time>2026-04-15T11:12:44.867Z</time></trkpt><trkpt lat="42.608225" lon="-7.3790367"><ele>524.0</ele><time>2026-04-15T11:12:45.868Z</time></trkpt><trkpt lat="42.6081983" lon="-7.3791783"><ele>524.0</ele><time>2026-04-15T11:12:46.868Z</time></trkpt><trkpt lat="42.6081717" lon="-7.3793183"><ele>523.6</ele><time>2026-04-15T11:12:47.867Z</time></trkpt><trkpt lat="42.60813" lon="-7.3794567"><ele>523.2</ele><time>2026-04-15T11:12:48.867Z</time></trkpt><trkpt lat="42.6080833" lon="-7.3795783"><ele>522.8000000000001</ele><time>2026-04-15T11:12:49.867Z</time></trkpt><trkpt lat="42.6080267" lon="-7.379665"><ele>522.4</ele><time>2026-04-15T11:12:50.867Z</time></trkpt><trkpt lat="42.6079533" lon="-7.37973"><ele>522.0</ele><time>2026-04-15T11:12:51.868Z</time></trkpt><trkpt lat="42.6078733" lon="-7.3797833"><ele>518.8000000000001</ele><time>2026-04-15T11:12:52.867Z</time></trkpt><trkpt lat="42.607775" lon="-7.379835"><ele>515.6</ele><time>2026-04-15T11:12:53.867Z</time></trkpt><trkpt lat="42.607695" lon="-7.3798917"><ele>512.4000000000001</ele><time>2026-04-15T11:12:54.867Z</time></trkpt><trkpt lat="42.6076117" lon="-7.3799517"><ele>509.20000000000005</ele><time>2026-04-15T11:12:55.867Z</time></trkpt><trkpt lat="42.6075183" lon="-7.38002"><ele>506.0</ele><time>2026-04-15T11:12:56.867Z</time></trkpt><trkpt lat="42.60742" lon="-7.380095"><ele>506.0</ele><time>2026-04-15T11:12:57.867Z</time></trkpt><trkpt lat="42.6073067" lon="-7.38018"><ele>506.0</ele><time>2026-04-15T11:12:58.868Z</time></trkpt><trkpt lat="42.6071983" lon="-7.3802583"><ele>506.0</ele><time>2026-04-15T11:12:59.868Z</time></trkpt><trkpt lat="42.607095" lon="-7.3803633"><ele>506.0</ele><time>2026-04-15T11:13:00.867Z</time></trkpt><trkpt lat="42.6069933" lon="-7.3805"><ele>503.0</ele><time>2026-04-15T11:13:01.868Z</time></trkpt><trkpt lat="42.6068883" lon="-7.3806567"><ele>500.0</ele><time>2026-04-15T11:13:02.868Z</time></trkpt><trkpt lat="42.6067917" lon="-7.3808317"><ele>497.0</ele><time>2026-04-15T11:13:03.868Z</time></trkpt><trkpt lat="42.6066933" lon="-7.3810267"><ele>497.0</ele><time>2026-04-15T11:13:04.867Z</time></trkpt><trkpt lat="42.6065933" lon="-7.3812133"><ele>497.0</ele><time>2026-04-15T11:13:05.868Z</time></trkpt><trkpt lat="42.606495" lon="-7.3813883"><ele>497.0</ele><time>2026-04-15T11:13:06.868Z</time></trkpt><trkpt lat="42.6064167" lon="-7.381555"><ele>497.75</ele><time>2026-04-15T11:13:07.867Z</time></trkpt><trkpt lat="42.6063433" lon="-7.3817133"><ele>498.5</ele><time>2026-04-15T11:13:08.867Z</time></trkpt><trkpt lat="42.6062683" lon="-7.3818633"><ele>499.25</ele><time>2026-04-15T11:13:09.867Z</time></trkpt><trkpt lat="42.60619" lon="-7.3820033"><ele>500.0</ele><time>2026-04-15T11:13:10.868Z</time></trkpt><trkpt lat="42.6061117" lon="-7.3821367"><ele>498.5</ele><time>2026-04-15T11:13:11.867Z</time></trkpt><trkpt lat="42.60603" lon="-7.3822583"><ele>497.0</ele><time>2026-04-15T11:13:12.867Z</time></trkpt><trkpt lat="42.60594" lon="-7.38237"><ele>495.5</ele><time>2026-04-15T11:13:13.868Z</time></trkpt><trkpt lat="42.605845" lon="-7.382465"><ele>494.0</ele><time>2026-04-15T11:13:14.867Z</time></trkpt><trkpt lat="42.605755" lon="-7.3825567"><ele>494.0</ele><time>2026-04-15T11:13:15.867Z</time></trkpt><trkpt lat="42.6056933" lon="-7.38264"><ele>494.0</ele><time>2026-04-15T11:13:16.867Z</time></trkpt><trkpt lat="42.60565" lon="-7.382705"><ele>494.0</ele><time>2026-04-15T11:13:17.868Z</time></trkpt><trkpt lat="42.6056217" lon="-7.3827883"><ele>494.0</ele><time>2026-04-15T11:13:19.868Z</time></trkpt><trkpt lat="42.6056967" lon="-7.38283"><ele>494.0</ele><time>2026-04-15T11:13:21.867Z</time></trkpt><trkpt lat="42.60576" lon="-7.3828383"><ele>494.0</ele><time>2026-04-15T11:13:22.868Z</time></trkpt><trkpt lat="42.6058417" lon="-7.382835"><ele>494.0</ele><time>2026-04-15T11:13:23.867Z</time></trkpt><trkpt lat="42.6059317" lon="-7.3828383"><ele>494.0</ele><time>2026-04-15T11:13:24.867Z</time></trkpt><trkpt lat="42.606035" lon="-7.38284"><ele>494.0</ele><time>2026-04-15T11:13:25.867Z</time></trkpt><trkpt lat="42.60616" lon="-7.38287"><ele>494.0</ele><time>2026-04-15T11:13:26.868Z</time></trkpt><trkpt lat="42.6063" lon="-7.3829183"><ele>494.0</ele><time>2026-04-15T11:13:27.867Z</time></trkpt><trkpt lat="42.6064267" lon="-7.38293"><ele>496.75</ele><time>2026-04-15T11:13:28.867Z</time></trkpt><trkpt lat="42.6065733" lon="-7.3829733"><ele>499.5</ele><time>2026-04-15T11:13:29.867Z</time></trkpt><trkpt lat="42.60668" lon="-7.3829183"><ele>502.25</ele><time>2026-04-15T11:13:30.867Z</time></trkpt><trkpt lat="42.60677" lon="-7.382805"><ele>505.0</ele><time>2026-04-15T11:13:31.868Z</time></trkpt><trkpt lat="42.6068517" lon="-7.3826517"><ele>505.0</ele><time>2026-04-15T11:13:32.868Z</time></trkpt><trkpt lat="42.6069383" lon="-7.3824767"><ele>505.0</ele><time>2026-04-15T11:13:33.867Z</time></trkpt><trkpt lat="42.6070383" lon="-7.3822917"><ele>505.0</ele><time>2026-04-15T11:13:34.868Z</time></trkpt><trkpt lat="42.6071433" lon="-7.3820967"><ele>508.33333333333337</ele><time>2026-04-15T11:13:35.867Z</time></trkpt><trkpt lat="42.6072567" lon="-7.3818933"><ele>511.66666666666663</ele><time>2026-04-15T11:13:36.867Z</time></trkpt><trkpt lat="42.6073733" lon="-7.3816917"><ele>515.0</ele><time>2026-04-15T11:13:37.868Z</time></trkpt><trkpt lat="42.6074933" lon="-7.3814883"><ele>513.6666666666666</ele><time>2026-04-15T11:13:38.868Z</time></trkpt><trkpt lat="42.6076133" lon="-7.3812983"><ele>512.3333333333334</ele><time>2026-04-15T11:13:39.868Z</time></trkpt><trkpt lat="42.60773" lon="-7.3810967"><ele>511.0</ele><time>2026-04-15T11:13:40.867Z</time></trkpt><trkpt lat="42.6078567" lon="-7.38088"><ele>514.6666666666667</ele><time>2026-04-15T11:13:41.868Z</time></trkpt><trkpt lat="42.60799" lon="-7.3806633"><ele>518.3333333333334</ele><time>2026-04-15T11:13:42.867Z</time></trkpt><trkpt lat="42.608125" lon="-7.3804583"><ele>522.0</ele><time>2026-04-15T11:13:43.868Z</time></trkpt><trkpt lat="42.6082667" lon="-7.38025"><ele>522.0</ele><time>2026-04-15T11:13:44.868Z</time></trkpt><trkpt lat="42.6084133" lon="-7.3800433"><ele>522.0</ele><time>2026-04-15T11:13:45.867Z</time></trkpt><trkpt lat="42.608575" lon="-7.3798467"><ele>522.0</ele><time>2026-04-15T11:13:46.868Z</time></trkpt><trkpt lat="42.6087433" lon="-7.3796567"><ele>527.6666666666666</ele><time>2026-04-15T11:13:47.868Z</time></trkpt><trkpt lat="42.6089083" lon="-7.37949"><ele>533.3333333333333</ele><time>2026-04-15T11:13:48.867Z</time></trkpt><trkpt lat="42.6090567" lon="-7.3793033"><ele>539.0</ele><time>2026-04-15T11:13:49.869Z</time></trkpt><trkpt lat="42.609185" lon="-7.379105"><ele>539.0</ele><time>2026-04-15T11:13:50.868Z</time></trkpt><trkpt lat="42.6093017" lon="-7.3788917"><ele>539.0</ele><time>2026-04-15T11:13:51.868Z</time></trkpt><trkpt lat="42.609405" lon="-7.3786783"><ele>539.0</ele><time>2026-04-15T11:13:52.869Z</time></trkpt><trkpt lat="42.6095083" lon="-7.37848"><ele>542.0</ele><time>2026-04-15T11:13:53.869Z</time></trkpt><trkpt lat="42.609635" lon="-7.378295"><ele>545.0</ele><time>2026-04-15T11:13:54.869Z</time></trkpt><trkpt lat="42.6097517" lon="-7.3781183"><ele>548.0</ele><time>2026-04-15T11:13:55.869Z</time></trkpt><trkpt lat="42.6098383" lon="-7.378"><ele>548.0</ele><time>2026-04-15T11:13:56.868Z</time></trkpt><trkpt lat="42.6099017" lon="-7.3779333"><ele>548.0</ele><time>2026-04-15T11:13:57.869Z</time></trkpt><trkpt lat="42.609965" lon="-7.37797"><ele>548.0</ele><time>2026-04-15T11:14:00.868Z</time></trkpt><trkpt lat="42.6099133" lon="-7.3781333"><ele>548.0</ele><time>2026-04-15T11:14:02.868Z</time></trkpt><trkpt lat="42.6098667" lon="-7.3782433"><ele>548.0</ele><time>2026-04-15T11:14:03.868Z</time></trkpt><trkpt lat="42.6098017" lon="-7.37838"><ele>552.3333333333333</ele><time>2026-04-15T11:14:04.868Z</time></trkpt><trkpt lat="42.6097267" lon="-7.37854"><ele>556.6666666666666</ele><time>2026-04-15T11:14:05.869Z</time></trkpt><trkpt lat="42.6096783" lon="-7.3787483"><ele>561.0</ele><time>2026-04-15T11:14:06.869Z</time></trkpt><trkpt lat="42.6096617" lon="-7.3789617"><ele>562.6666666666666</ele><time>2026-04-15T11:14:07.869Z</time></trkpt><trkpt lat="42.609665" lon="-7.37918"><ele>564.3333333333333</ele><time>2026-04-15T11:14:08.869Z</time></trkpt><trkpt lat="42.6096667" lon="-7.379385"><ele>566.0</ele><time>2026-04-15T11:14:09.869Z</time></trkpt><trkpt lat="42.609655" lon="-7.3795783"><ele>567.25</ele><time>2026-04-15T11:14:10.868Z</time></trkpt><trkpt lat="42.6096183" lon="-7.3797433"><ele>568.5</ele><time>2026-04-15T11:14:11.869Z</time></trkpt><trkpt lat="42.60957" lon="-7.3798817"><ele>569.75</ele><time>2026-04-15T11:14:12.869Z</time></trkpt><trkpt lat="42.609515" lon="-7.3800283"><ele>571.0</ele><time>2026-04-15T11:14:13.868Z</time></trkpt><trkpt lat="42.6094733" lon="-7.3801783"><ele>570.8</ele><time>2026-04-15T11:14:14.868Z</time></trkpt><trkpt lat="42.609455" lon="-7.380325"><ele>570.6</ele><time>2026-04-15T11:14:15.868Z</time></trkpt><trkpt lat="42.6094583" lon="-7.3804817"><ele>570.4</ele><time>2026-04-15T11:14:16.869Z</time></trkpt><trkpt lat="42.6094783" lon="-7.380625"><ele>570.2</ele><time>2026-04-15T11:14:17.869Z</time></trkpt><trkpt lat="42.6095267" lon="-7.3807617"><ele>570.0</ele><time>2026-04-15T11:14:18.869Z</time></trkpt><trkpt lat="42.6096067" lon="-7.3808733"><ele>570.0</ele><time>2026-04-15T11:14:19.869Z</time></trkpt><trkpt lat="42.6097033" lon="-7.3809567"><ele>570.0</ele><time>2026-04-15T11:14:20.868Z</time></trkpt><trkpt lat="42.6098067" lon="-7.3810233"><ele>570.0</ele><time>2026-04-15T11:14:21.869Z</time></trkpt><trkpt lat="42.6099217" lon="-7.38108"><ele>570.0</ele><time>2026-04-15T11:14:22.868Z</time></trkpt><trkpt lat="42.610045" lon="-7.3811183"><ele>570.0</ele><time>2026-04-15T11:14:23.868Z</time></trkpt><trkpt lat="42.6101783" lon="-7.3811367"><ele>570.0</ele><time>2026-04-15T11:14:24.869Z</time></trkpt><trkpt lat="42.6103183" lon="-7.3811583"><ele>570.0</ele><time>2026-04-15T11:14:25.868Z</time></trkpt><trkpt lat="42.6104667" lon="-7.3811867"><ele>570.0</ele><time>2026-04-15T11:14:26.868Z</time></trkpt><trkpt lat="42.61061" lon="-7.3812083"><ele>570.0</ele><time>2026-04-15T11:14:27.868Z</time></trkpt><trkpt lat="42.6107717" lon="-7.3812467"><ele>570.0</ele><time>2026-04-15T11:14:28.868Z</time></trkpt><trkpt lat="42.610945" lon="-7.38129"><ele>570.0</ele><time>2026-04-15T11:14:29.869Z</time></trkpt><trkpt lat="42.6111217" lon="-7.3813667"><ele>573.3333333333334</ele><time>2026-04-15T11:14:30.868Z</time></trkpt><trkpt lat="42.611295" lon="-7.381465"><ele>576.6666666666667</ele><time>2026-04-15T11:14:31.868Z</time></trkpt><trkpt lat="42.611465" lon="-7.38158"><ele>580.0</ele><time>2026-04-15T11:14:32.868Z</time></trkpt><trkpt lat="42.6116183" lon="-7.3816917"><ele>580.0</ele><time>2026-04-15T11:14:33.868Z</time></trkpt><trkpt lat="42.6117533" lon="-7.3817833"><ele>580.0</ele><time>2026-04-15T11:14:34.868Z</time></trkpt><trkpt lat="42.6118733" lon="-7.3818417"><ele>580.0</ele><time>2026-04-15T11:14:35.868Z</time></trkpt><trkpt lat="42.6120083" lon="-7.3818783"><ele>580.0</ele><time>2026-04-15T11:14:36.868Z</time></trkpt><trkpt lat="42.612155" lon="-7.3818833"><ele>581.0</ele><time>2026-04-15T11:14:37.868Z</time></trkpt><trkpt lat="42.6123017" lon="-7.381845"><ele>582.0</ele><time>2026-04-15T11:14:38.869Z</time></trkpt><trkpt lat="42.61244" lon="-7.381765"><ele>583.0</ele><time>2026-04-15T11:14:39.868Z</time></trkpt><trkpt lat="42.612565" lon="-7.38167"><ele>584.0</ele><time>2026-04-15T11:14:40.869Z</time></trkpt><trkpt lat="42.612685" lon="-7.3815533"><ele>584.0</ele><time>2026-04-15T11:14:41.869Z</time></trkpt><trkpt lat="42.6127933" lon="-7.3814217"><ele>584.0</ele><time>2026-04-15T11:14:42.869Z</time></trkpt><trkpt lat="42.6128917" lon="-7.3812817"><ele>584.0</ele><time>2026-04-15T11:14:43.868Z</time></trkpt><trkpt lat="42.6129967" lon="-7.3811517"><ele>584.0</ele><time>2026-04-15T11:14:44.868Z</time></trkpt><trkpt lat="42.6131167" lon="-7.381055"><ele>586.75</ele><time>2026-04-15T11:14:45.869Z</time></trkpt><trkpt lat="42.61325" lon="-7.38098"><ele>589.5</ele><time>2026-04-15T11:14:46.868Z</time></trkpt><trkpt lat="42.6133933" lon="-7.3809317"><ele>592.25</ele><time>2026-04-15T11:14:47.868Z</time></trkpt><trkpt lat="42.6135433" lon="-7.3808933"><ele>595.0</ele><time>2026-04-15T11:14:48.869Z</time></trkpt><trkpt lat="42.6137017" lon="-7.3808617"><ele>596.75</ele><time>2026-04-15T11:14:49.869Z</time></trkpt><trkpt lat="42.613855" lon="-7.3808417"><ele>598.5</ele><time>2026-04-15T11:14:50.868Z</time></trkpt><trkpt lat="42.6140067" lon="-7.3808383"><ele>600.25</ele><time>2026-04-15T11:14:51.868Z</time></trkpt><trkpt lat="42.6141433" lon="-7.3808667"><ele>602.0</ele><time>2026-04-15T11:14:52.869Z</time></trkpt><trkpt lat="42.61426" lon="-7.3809333"><ele>602.0</ele><time>2026-04-15T11:14:53.869Z</time></trkpt><trkpt lat="42.6143533" lon="-7.3810183"><ele>602.0</ele><time>2026-04-15T11:14:54.869Z</time></trkpt><trkpt lat="42.6144283" lon="-7.3811317"><ele>602.0</ele><time>2026-04-15T11:14:55.869Z</time></trkpt><trkpt lat="42.6145033" lon="-7.3812533"><ele>602.0</ele><time>2026-04-15T11:14:56.869Z</time></trkpt><trkpt lat="42.6145883" lon="-7.381385"><ele>603.25</ele><time>2026-04-15T11:14:57.868Z</time></trkpt><trkpt lat="42.614685" lon="-7.3814983"><ele>604.5</ele><time>2026-04-15T11:14:58.869Z</time></trkpt><trkpt lat="42.6147883" lon="-7.3816167"><ele>605.75</ele><time>2026-04-15T11:14:59.869Z</time></trkpt><trkpt lat="42.6148967" lon="-7.381745"><ele>607.0</ele><time>2026-04-15T11:15:00.868Z</time></trkpt><trkpt lat="42.6150117" lon="-7.38186"><ele>607.0</ele><time>2026-04-15T11:15:01.868Z</time></trkpt><trkpt lat="42.6151233" lon="-7.3819733"><ele>607.0</ele><time>2026-04-15T11:15:02.869Z</time></trkpt><trkpt lat="42.615235" lon="-7.3820917"><ele>607.0</ele><time>2026-04-15T11:15:03.869Z</time></trkpt><trkpt lat="42.61535" lon="-7.3821933"><ele>607.0</ele><time>2026-04-15T11:15:04.868Z</time></trkpt><trkpt lat="42.6154667" lon="-7.382295"><ele>606.25</ele><time>2026-04-15T11:15:05.869Z</time></trkpt><trkpt lat="42.61558" lon="-7.38234"><ele>605.5</ele><time>2026-04-15T11:15:06.869Z</time></trkpt><trkpt lat="42.6157167" lon="-7.3823733"><ele>604.75</ele><time>2026-04-15T11:15:07.869Z</time></trkpt><trkpt lat="42.615835" lon="-7.382395"><ele>604.0</ele><time>2026-04-15T11:15:08.869Z</time></trkpt><trkpt lat="42.6159517" lon="-7.38241"><ele>604.0</ele><time>2026-04-15T11:15:09.869Z</time></trkpt><trkpt lat="42.6160617" lon="-7.3823983"><ele>604.0</ele><time>2026-04-15T11:15:10.869Z</time></trkpt><trkpt lat="42.6161733" lon="-7.3823683"><ele>604.0</ele><time>2026-04-15T11:15:11.868Z</time></trkpt><trkpt lat="42.6162733" lon="-7.3823133"><ele>604.0</ele><time>2026-04-15T11:15:12.869Z</time></trkpt><trkpt lat="42.616355" lon="-7.382245"><ele>604.0</ele><time>2026-04-15T11:15:13.869Z</time></trkpt><trkpt lat="42.6164183" lon="-7.3821967"><ele>604.2</ele><time>2026-04-15T11:15:14.869Z</time></trkpt><trkpt lat="42.61648" lon="-7.3821217"><ele>604.4</ele><time>2026-04-15T11:15:16.868Z</time></trkpt><trkpt lat="42.6165033" lon="-7.3819767"><ele>604.6</ele><time>2026-04-15T11:15:20.868Z</time></trkpt><trkpt lat="42.6165083" lon="-7.381875"><ele>604.8</ele><time>2026-04-15T11:15:21.868Z</time></trkpt><trkpt lat="42.616505" lon="-7.3817483"><ele>605.0</ele><time>2026-04-15T11:15:22.868Z</time></trkpt><trkpt lat="42.616495" lon="-7.3816067"><ele>605.0</ele><time>2026-04-15T11:15:23.868Z</time></trkpt><trkpt lat="42.6164867" lon="-7.3814367"><ele>605.0</ele><time>2026-04-15T11:15:24.868Z</time></trkpt><trkpt lat="42.616485" lon="-7.381245"><ele>605.0</ele><time>2026-04-15T11:15:25.869Z</time></trkpt><trkpt lat="42.6164917" lon="-7.381035"><ele>605.0</ele><time>2026-04-15T11:15:26.869Z</time></trkpt><trkpt lat="42.6165017" lon="-7.3808183"><ele>608.0</ele><time>2026-04-15T11:15:27.868Z</time></trkpt><trkpt lat="42.6165183" lon="-7.3806033"><ele>611.0</ele><time>2026-04-15T11:15:28.868Z</time></trkpt><trkpt lat="42.61654" lon="-7.3803783"><ele>614.0</ele><time>2026-04-15T11:15:29.869Z</time></trkpt><trkpt lat="42.6165717" lon="-7.3801483"><ele>617.3333333333333</ele><time>2026-04-15T11:15:30.868Z</time></trkpt><trkpt lat="42.6165983" lon="-7.3799333"><ele>620.6666666666666</ele><time>2026-04-15T11:15:31.869Z</time></trkpt><trkpt lat="42.61663" lon="-7.3797033"><ele>624.0</ele><time>2026-04-15T11:15:32.869Z</time></trkpt><trkpt lat="42.6166567" lon="-7.3794867"><ele>628.0</ele><time>2026-04-15T11:15:33.868Z</time></trkpt><trkpt lat="42.6166733" lon="-7.3792633"><ele>632.0</ele><time>2026-04-15T11:15:34.869Z</time></trkpt><trkpt lat="42.6166783" lon="-7.379055"><ele>636.0</ele><time>2026-04-15T11:15:35.868Z</time></trkpt><trkpt lat="42.6166833" lon="-7.3788383"><ele>639.3333333333334</ele><time>2026-04-15T11:15:36.869Z</time></trkpt><trkpt lat="42.6166867" lon="-7.3786233"><ele>642.6666666666667</ele><time>2026-04-15T11:15:37.868Z</time></trkpt><trkpt lat="42.616695" lon="-7.3784117"><ele>646.0</ele><time>2026-04-15T11:15:38.868Z</time></trkpt><trkpt lat="42.6167083" lon="-7.378205"><ele>647.75</ele><time>2026-04-15T11:15:39.869Z</time></trkpt><trkpt lat="42.6167417" lon="-7.37801"><ele>649.5</ele><time>2026-04-15T11:15:40.869Z</time></trkpt><trkpt lat="42.6168" lon="-7.3778383"><ele>651.25</ele><time>2026-04-15T11:15:41.869Z</time></trkpt><trkpt lat="42.6168733" lon="-7.37768"><ele>653.0</ele><time>2026-04-15T11:15:42.869Z</time></trkpt><trkpt lat="42.61697" lon="-7.3775467"><ele>651.5</ele><time>2026-04-15T11:15:43.868Z</time></trkpt><trkpt lat="42.617075" lon="-7.37742"><ele>650.0</ele><time>2026-04-15T11:15:44.869Z</time></trkpt><trkpt lat="42.6171767" lon="-7.3772933"><ele>648.5</ele><time>2026-04-15T11:15:45.868Z</time></trkpt><trkpt lat="42.617275" lon="-7.3771633"><ele>647.0</ele><time>2026-04-15T11:15:46.868Z</time></trkpt><trkpt lat="42.6173633" lon="-7.37704"><ele>651.25</ele><time>2026-04-15T11:15:47.869Z</time></trkpt><trkpt lat="42.6174533" lon="-7.37692"><ele>655.5</ele><time>2026-04-15T11:15:48.869Z</time></trkpt><trkpt lat="42.617545" lon="-7.3768"><ele>659.75</ele><time>2026-04-15T11:15:49.869Z</time></trkpt><trkpt lat="42.6176433" lon="-7.3767117"><ele>664.0</ele><time>2026-04-15T11:15:50.869Z</time></trkpt><trkpt lat="42.6177483" lon="-7.3766617"><ele>665.0</ele><time>2026-04-15T11:15:51.868Z</time></trkpt><trkpt lat="42.61788" lon="-7.3766417"><ele>666.0</ele><time>2026-04-15T11:15:52.868Z</time></trkpt><trkpt lat="42.6180283" lon="-7.37665"><ele>667.0</ele><time>2026-04-15T11:15:53.868Z</time></trkpt><trkpt lat="42.6181867" lon="-7.3766583"><ele>668.0</ele><time>2026-04-15T11:15:54.869Z</time></trkpt><trkpt lat="42.6183533" lon="-7.376655"><ele>668.0</ele><time>2026-04-15T11:15:55.868Z</time></trkpt><trkpt lat="42.6185317" lon="-7.3766483"><ele>668.0</ele><time>2026-04-15T11:15:56.868Z</time></trkpt><trkpt lat="42.6187167" lon="-7.376635"><ele>668.0</ele><time>2026-04-15T11:15:57.868Z</time></trkpt><trkpt lat="42.6188983" lon="-7.3766167"><ele>670.0</ele><time>2026-04-15T11:15:58.868Z</time></trkpt><trkpt lat="42.6190667" lon="-7.37659"><ele>672.0</ele><time>2026-04-15T11:15:59.869Z</time></trkpt><trkpt lat="42.619225" lon="-7.3765517"><ele>674.0</ele><time>2026-04-15T11:16:00.868Z</time></trkpt><trkpt lat="42.6193767" lon="-7.3765167"><ele>676.5</ele><time>2026-04-15T11:16:01.868Z</time></trkpt><trkpt lat="42.6195317" lon="-7.3765017"><ele>679.0</ele><time>2026-04-15T11:16:02.869Z</time></trkpt><trkpt lat="42.6196667" lon="-7.376495"><ele>681.5</ele><time>2026-04-15T11:16:03.869Z</time></trkpt><trkpt lat="42.6197883" lon="-7.3765167"><ele>684.0</ele><time>2026-04-15T11:16:04.869Z</time></trkpt><trkpt lat="42.6198833" lon="-7.376565"><ele>684.0</ele><time>2026-04-15T11:16:05.868Z</time></trkpt><trkpt lat="42.6199583" lon="-7.37665"><ele>684.0</ele><time>2026-04-15T11:16:06.869Z</time></trkpt><trkpt lat="42.6200217" lon="-7.3767583"><ele>684.0</ele><time>2026-04-15T11:16:07.869Z</time></trkpt><trkpt lat="42.620075" lon="-7.3768883"><ele>684.0</ele><time>2026-04-15T11:16:08.869Z</time></trkpt><trkpt lat="42.62013" lon="-7.3770267"><ele>684.0</ele><time>2026-04-15T11:16:09.868Z</time></trkpt><trkpt lat="42.62019" lon="-7.3771633"><ele>685.75</ele><time>2026-04-15T11:16:10.868Z</time></trkpt><trkpt lat="42.6202633" lon="-7.37731"><ele>687.5</ele><time>2026-04-15T11:16:11.868Z</time></trkpt><trkpt lat="42.6203467" lon="-7.3774517"><ele>689.25</ele><time>2026-04-15T11:16:12.868Z</time></trkpt><trkpt lat="42.620445" lon="-7.3775617"><ele>691.0</ele><time>2026-04-15T11:16:13.869Z</time></trkpt><trkpt lat="42.620555" lon="-7.37766"><ele>691.0</ele><time>2026-04-15T11:16:14.869Z</time></trkpt><trkpt lat="42.6206583" lon="-7.3777317"><ele>691.0</ele><time>2026-04-15T11:16:15.869Z</time></trkpt><trkpt lat="42.6207867" lon="-7.3777717"><ele>691.0</ele><time>2026-04-15T11:16:16.869Z</time></trkpt><trkpt lat="42.6209167" lon="-7.377785"><ele>691.0</ele><time>2026-04-15T11:16:17.868Z</time></trkpt><trkpt lat="42.6210383" lon="-7.3777833"><ele>691.0</ele><time>2026-04-15T11:16:18.869Z</time></trkpt><trkpt lat="42.621125" lon="-7.3777317"><ele>691.0</ele><time>2026-04-15T11:16:19.868Z</time></trkpt><trkpt lat="42.6211917" lon="-7.37767"><ele>691.0</ele><time>2026-04-15T11:16:20.869Z</time></trkpt><trkpt lat="42.6212333" lon="-7.3775867"><ele>691.0</ele><time>2026-04-15T11:16:21.868Z</time></trkpt><trkpt lat="42.6212583" lon="-7.377475"><ele>691.0</ele><time>2026-04-15T11:16:22.868Z</time></trkpt><trkpt lat="42.6212833" lon="-7.377345"><ele>691.0</ele><time>2026-04-15T11:16:23.868Z</time></trkpt><trkpt lat="42.6213117" lon="-7.37719"><ele>691.75</ele><time>2026-04-15T11:16:24.868Z</time></trkpt><trkpt lat="42.6213533" lon="-7.3770383"><ele>692.5</ele><time>2026-04-15T11:16:25.868Z</time></trkpt><trkpt lat="42.62142" lon="-7.376905"><ele>693.25</ele><time>2026-04-15T11:16:26.868Z</time></trkpt><trkpt lat="42.621515" lon="-7.3767933"><ele>694.0</ele><time>2026-04-15T11:16:27.868Z</time></trkpt><trkpt lat="42.6216217" lon="-7.3766767"><ele>694.0</ele><time>2026-04-15T11:16:28.868Z</time></trkpt><trkpt lat="42.6217383" lon="-7.3765733"><ele>694.0</ele><time>2026-04-15T11:16:29.868Z</time></trkpt><trkpt lat="42.6218567" lon="-7.37649"><ele>694.0</ele><time>2026-04-15T11:16:30.869Z</time></trkpt><trkpt lat="42.6219633" lon="-7.3764183"><ele>694.0</ele><time>2026-04-15T11:16:31.868Z</time></trkpt><trkpt lat="42.6220783" lon="-7.3763533"><ele>697.0</ele><time>2026-04-15T11:16:32.869Z</time></trkpt><trkpt lat="42.6222033" lon="-7.3763033"><ele>700.0</ele><time>2026-04-15T11:16:33.869Z</time></trkpt><trkpt lat="42.6223283" lon="-7.37627"><ele>703.0</ele><time>2026-04-15T11:16:34.869Z</time></trkpt><trkpt lat="42.622465" lon="-7.376255"><ele>706.0</ele><time>2026-04-15T11:16:35.869Z</time></trkpt><trkpt lat="42.62261" lon="-7.37625"><ele>706.0</ele><time>2026-04-15T11:16:36.868Z</time></trkpt><trkpt lat="42.62276" lon="-7.3762583"><ele>706.0</ele><time>2026-04-15T11:16:37.868Z</time></trkpt><trkpt lat="42.6229183" lon="-7.376265"><ele>706.0</ele><time>2026-04-15T11:16:38.869Z</time></trkpt><trkpt lat="42.623075" lon="-7.376275"><ele>707.25</ele><time>2026-04-15T11:16:39.868Z</time></trkpt><trkpt lat="42.6232117" lon="-7.3762767"><ele>708.5</ele><time>2026-04-15T11:16:40.868Z</time></trkpt><trkpt lat="42.623335" lon="-7.37626"><ele>709.75</ele><time>2026-04-15T11:16:41.869Z</time></trkpt><trkpt lat="42.623455" lon="-7.3762133"><ele>711.0</ele><time>2026-04-15T11:16:42.869Z</time></trkpt><trkpt lat="42.6235767" lon="-7.3761483"><ele>707.75</ele><time>2026-04-15T11:16:43.869Z</time></trkpt><trkpt lat="42.6237" lon="-7.3760633"><ele>704.5</ele><time>2026-04-15T11:16:44.868Z</time></trkpt><trkpt lat="42.6238217" lon="-7.3759683"><ele>701.25</ele><time>2026-04-15T11:16:45.868Z</time></trkpt><trkpt lat="42.62394" lon="-7.37587"><ele>698.0</ele><time>2026-04-15T11:16:46.869Z</time></trkpt><trkpt lat="42.6240483" lon="-7.375765"><ele>698.0</ele><time>2026-04-15T11:16:47.868Z</time></trkpt><trkpt lat="42.6241517" lon="-7.3756667"><ele>698.0</ele><time>2026-04-15T11:16:48.868Z</time></trkpt><trkpt lat="42.624245" lon="-7.3755433"><ele>698.0</ele><time>2026-04-15T11:16:49.869Z</time></trkpt><trkpt lat="42.62433" lon="-7.3753983"><ele>698.0</ele><time>2026-04-15T11:16:50.868Z</time></trkpt><trkpt lat="42.624415" lon="-7.3752383"><ele>696.25</ele><time>2026-04-15T11:16:51.869Z</time></trkpt><trkpt lat="42.6244983" lon="-7.3750783"><ele>694.5</ele><time>2026-04-15T11:16:52.868Z</time></trkpt><trkpt lat="42.6245733" lon="-7.374925"><ele>692.75</ele><time>2026-04-15T11:16:53.868Z</time></trkpt><trkpt lat="42.6246367" lon="-7.37477"><ele>691.0</ele><time>2026-04-15T11:16:54.868Z</time></trkpt><trkpt lat="42.62469" lon="-7.3745917"><ele>691.0</ele><time>2026-04-15T11:16:55.868Z</time></trkpt><trkpt lat="42.6247267" lon="-7.3744033"><ele>691.0</ele><time>2026-04-15T11:16:56.869Z</time></trkpt><trkpt lat="42.62476" lon="-7.374195"><ele>691.0</ele><time>2026-04-15T11:16:57.869Z</time></trkpt><trkpt lat="42.62479" lon="-7.3739817"><ele>692.3333333333334</ele><time>2026-04-15T11:16:58.869Z</time></trkpt><trkpt lat="42.6248183" lon="-7.3737583"><ele>693.6666666666666</ele><time>2026-04-15T11:16:59.868Z</time></trkpt><trkpt lat="42.62485" lon="-7.3735367"><ele>695.0</ele><time>2026-04-15T11:17:00.868Z</time></trkpt><trkpt lat="42.6248817" lon="-7.3733433"><ele>695.0</ele><time>2026-04-15T11:17:01.869Z</time></trkpt><trkpt lat="42.6249133" lon="-7.3731333"><ele>695.0</ele><time>2026-04-15T11:17:02.869Z</time></trkpt><trkpt lat="42.6249333" lon="-7.3729283"><ele>695.0</ele><time>2026-04-15T11:17:03.868Z</time></trkpt><trkpt lat="42.62495" lon="-7.3727233"><ele>695.6666666666666</ele><time>2026-04-15T11:17:04.869Z</time></trkpt><trkpt lat="42.6249667" lon="-7.3725217"><ele>696.3333333333334</ele><time>2026-04-15T11:17:05.868Z</time></trkpt><trkpt lat="42.6249883" lon="-7.3723267"><ele>697.0</ele><time>2026-04-15T11:17:06.868Z</time></trkpt><trkpt lat="42.6250083" lon="-7.37211"><ele>697.6666666666667</ele><time>2026-04-15T11:17:07.869Z</time></trkpt><trkpt lat="42.6250217" lon="-7.371895"><ele>698.3333333333334</ele><time>2026-04-15T11:17:08.869Z</time></trkpt><trkpt lat="42.6250417" lon="-7.3716817"><ele>699.0</ele><time>2026-04-15T11:17:09.868Z</time></trkpt><trkpt lat="42.6250583" lon="-7.371475"><ele>700.0</ele><time>2026-04-15T11:17:10.868Z</time></trkpt><trkpt lat="42.6250783" lon="-7.37126"><ele>701.0</ele><time>2026-04-15T11:17:11.869Z</time></trkpt><trkpt lat="42.6250883" lon="-7.371045"><ele>702.0</ele><time>2026-04-15T11:17:12.868Z</time></trkpt><trkpt lat="42.625105" lon="-7.3708267"><ele>702.0</ele><time>2026-04-15T11:17:13.869Z</time></trkpt><trkpt lat="42.625125" lon="-7.3706217"><ele>702.0</ele><time>2026-04-15T11:17:14.868Z</time></trkpt><trkpt lat="42.6251567" lon="-7.3704333"><ele>702.0</ele><time>2026-04-15T11:17:15.868Z</time></trkpt><trkpt lat="42.6251883" lon="-7.3702617"><ele>702.0</ele><time>2026-04-15T11:17:16.868Z</time></trkpt><trkpt lat="42.6252367" lon="-7.3701033"><ele>702.75</ele><time>2026-04-15T11:17:17.868Z</time></trkpt><trkpt lat="42.625305" lon="-7.3699733"><ele>703.5</ele><time>2026-04-15T11:17:18.869Z</time></trkpt><trkpt lat="42.625385" lon="-7.3698467"><ele>704.25</ele><time>2026-04-15T11:17:19.869Z</time></trkpt><trkpt lat="42.6254783" lon="-7.3697483"><ele>705.0</ele><time>2026-04-15T11:17:20.868Z</time></trkpt><trkpt lat="42.6255783" lon="-7.3696483"><ele>705.0</ele><time>2026-04-15T11:17:21.868Z</time></trkpt><trkpt lat="42.6256733" lon="-7.3695417"><ele>705.0</ele><time>2026-04-15T11:17:22.868Z</time></trkpt><trkpt lat="42.6257567" lon="-7.3694367"><ele>705.0</ele><time>2026-04-15T11:17:23.868Z</time></trkpt><trkpt lat="42.62582" lon="-7.36934"><ele>705.0</ele><time>2026-04-15T11:17:24.868Z</time></trkpt><trkpt lat="42.6258683" lon="-7.36927"><ele>705.0</ele><time>2026-04-15T11:17:25.869Z</time></trkpt><trkpt lat="42.6259483" lon="-7.3692433"><ele>705.0</ele><time>2026-04-15T11:17:27.869Z</time></trkpt><trkpt lat="42.6259883" lon="-7.36931"><ele>705.0</ele><time>2026-04-15T11:17:28.869Z</time></trkpt><trkpt lat="42.6260267" lon="-7.3694167"><ele>705.0</ele><time>2026-04-15T11:17:29.868Z</time></trkpt><trkpt lat="42.6260733" lon="-7.369545"><ele>705.0</ele><time>2026-04-15T11:17:30.868Z</time></trkpt><trkpt lat="42.62613" lon="-7.3696783"><ele>705.0</ele><time>2026-04-15T11:17:31.868Z</time></trkpt><trkpt lat="42.626195" lon="-7.3698083"><ele>703.2</ele><time>2026-04-15T11:17:32.868Z</time></trkpt><trkpt lat="42.6262467" lon="-7.369945"><ele>701.4</ele><time>2026-04-15T11:17:33.869Z</time></trkpt><trkpt lat="42.6262883" lon="-7.3700817"><ele>699.5999999999999</ele><time>2026-04-15T11:17:34.869Z</time></trkpt><trkpt lat="42.6263167" lon="-7.3702117"><ele>697.8</ele><time>2026-04-15T11:17:35.868Z</time></trkpt><trkpt lat="42.6263333" lon="-7.3703333"><ele>696.0</ele><time>2026-04-15T11:17:36.868Z</time></trkpt><trkpt lat="42.6263567" lon="-7.3704517"><ele>694.3333333333334</ele><time>2026-04-15T11:17:37.869Z</time></trkpt><trkpt lat="42.626375" lon="-7.3705767"><ele>692.6666666666666</ele><time>2026-04-15T11:17:38.868Z</time></trkpt><trkpt lat="42.626405" lon="-7.3706967"><ele>691.0</ele><time>2026-04-15T11:17:39.869Z</time></trkpt><trkpt lat="42.62643" lon="-7.37081"><ele>689.3333333333333</ele><time>2026-04-15T11:17:40.868Z</time></trkpt><trkpt lat="42.6264583" lon="-7.3709183"><ele>687.6666666666666</ele><time>2026-04-15T11:17:41.869Z</time></trkpt><trkpt lat="42.626495" lon="-7.3710217"><ele>686.0</ele><time>2026-04-15T11:17:42.869Z</time></trkpt><trkpt lat="42.6265367" lon="-7.37113"><ele>686.0</ele><time>2026-04-15T11:17:43.868Z</time></trkpt><trkpt lat="42.62656" lon="-7.3712317"><ele>686.0</ele><time>2026-04-15T11:17:44.868Z</time></trkpt><trkpt lat="42.6265683" lon="-7.3713333"><ele>686.0</ele><time>2026-04-15T11:17:45.868Z</time></trkpt><trkpt lat="42.6265633" lon="-7.37144"><ele>686.0</ele><time>2026-04-15T11:17:46.868Z</time></trkpt><trkpt lat="42.626545" lon="-7.3715483"><ele>686.0</ele><time>2026-04-15T11:17:47.869Z</time></trkpt><trkpt lat="42.6265383" lon="-7.3716517"><ele>686.0</ele><time>2026-04-15T11:17:48.869Z</time></trkpt><trkpt lat="42.6265367" lon="-7.3717617"><ele>684.0</ele><time>2026-04-15T11:17:49.869Z</time></trkpt><trkpt lat="42.6265483" lon="-7.3718817"><ele>682.0</ele><time>2026-04-15T11:17:50.868Z</time></trkpt><trkpt lat="42.6265717" lon="-7.372005"><ele>680.0</ele><time>2026-04-15T11:17:51.869Z</time></trkpt><trkpt lat="42.6265983" lon="-7.37214"><ele>678.0</ele><time>2026-04-15T11:17:52.869Z</time></trkpt><trkpt lat="42.6266217" lon="-7.37228"><ele>676.0</ele><time>2026-04-15T11:17:53.869Z</time></trkpt><trkpt lat="42.6266317" lon="-7.3723933"><ele>674.5</ele><time>2026-04-15T11:17:54.869Z</time></trkpt><trkpt lat="42.6266217" lon="-7.3725033"><ele>673.0</ele><time>2026-04-15T11:17:55.868Z</time></trkpt><trkpt lat="42.6266033" lon="-7.3726217"><ele>671.5</ele><time>2026-04-15T11:17:56.868Z</time></trkpt><trkpt lat="42.62658" lon="-7.37274"><ele>670.0</ele><time>2026-04-15T11:17:57.869Z</time></trkpt><trkpt lat="42.6265517" lon="-7.3728567"><ele>668.5</ele><time>2026-04-15T11:17:58.869Z</time></trkpt><trkpt lat="42.6265233" lon="-7.3729583"><ele>667.0</ele><time>2026-04-15T11:17:59.868Z</time></trkpt><trkpt lat="42.6265" lon="-7.3730567"><ele>665.0</ele><time>2026-04-15T11:18:00.868Z</time></trkpt><trkpt lat="42.6264817" lon="-7.3731583"><ele>663.0</ele><time>2026-04-15T11:18:01.869Z</time></trkpt><trkpt lat="42.62647" lon="-7.3732517"><ele>661.0</ele><time>2026-04-15T11:18:02.868Z</time></trkpt><trkpt lat="42.6264633" lon="-7.3733483"><ele>659.0</ele><time>2026-04-15T11:18:03.868Z</time></trkpt><trkpt lat="42.6264717" lon="-7.3734567"><ele>657.0</ele><time>2026-04-15T11:18:04.868Z</time></trkpt><trkpt lat="42.6264867" lon="-7.37357"><ele>655.0</ele><time>2026-04-15T11:18:05.869Z</time></trkpt><trkpt lat="42.6265033" lon="-7.37369"><ele>655.0</ele><time>2026-04-15T11:18:06.868Z</time></trkpt><trkpt lat="42.62651" lon="-7.3738217"><ele>655.0</ele><time>2026-04-15T11:18:07.868Z</time></trkpt><trkpt lat="42.6265083" lon="-7.3739567"><ele>655.0</ele><time>2026-04-15T11:18:08.868Z</time></trkpt><trkpt lat="42.62651" lon="-7.37409"><ele>655.0</ele><time>2026-04-15T11:18:09.868Z</time></trkpt><trkpt lat="42.626515" lon="-7.3742417"><ele>655.0</ele><time>2026-04-15T11:18:10.869Z</time></trkpt><trkpt lat="42.6265333" lon="-7.3744017"><ele>652.25</ele><time>2026-04-15T11:18:11.868Z</time></trkpt><trkpt lat="42.626545" lon="-7.374575"><ele>649.5</ele><time>2026-04-15T11:18:12.869Z</time></trkpt><trkpt lat="42.62656" lon="-7.374735"><ele>646.75</ele><time>2026-04-15T11:18:13.868Z</time></trkpt><trkpt lat="42.6265667" lon="-7.3749"><ele>644.0</ele><time>2026-04-15T11:18:14.868Z</time></trkpt><trkpt lat="42.62658" lon="-7.3750717"><ele>640.5</ele><time>2026-04-15T11:18:15.869Z</time></trkpt><trkpt lat="42.6266033" lon="-7.3752533"><ele>637.0</ele><time>2026-04-15T11:18:16.868Z</time></trkpt><trkpt lat="42.6266217" lon="-7.375425"><ele>633.5</ele><time>2026-04-15T11:18:17.868Z</time></trkpt><trkpt lat="42.6266417" lon="-7.375585"><ele>630.0</ele><time>2026-04-15T11:18:18.869Z</time></trkpt><trkpt lat="42.6266583" lon="-7.3757267"><ele>627.25</ele><time>2026-04-15T11:18:19.869Z</time></trkpt><trkpt lat="42.626685" lon="-7.3758583"><ele>624.5</ele><time>2026-04-15T11:18:20.868Z</time></trkpt><trkpt lat="42.6267467" lon="-7.3760017"><ele>621.75</ele><time>2026-04-15T11:18:21.868Z</time></trkpt><trkpt lat="42.6268283" lon="-7.37616"><ele>619.0</ele><time>2026-04-15T11:18:22.869Z</time></trkpt><trkpt lat="42.6268983" lon="-7.3763433"><ele>615.3333333333334</ele><time>2026-04-15T11:18:23.869Z</time></trkpt><trkpt lat="42.6269567" lon="-7.3765467"><ele>611.6666666666666</ele><time>2026-04-15T11:18:24.868Z</time></trkpt><trkpt lat="42.6270167" lon="-7.3767817"><ele>608.0</ele><time>2026-04-15T11:18:25.869Z</time></trkpt><trkpt lat="42.6270833" lon="-7.3770567"><ele>619.0</ele><time>2026-04-15T11:18:26.869Z</time></trkpt><trkpt lat="42.6271467" lon="-7.377365"><ele>630.0</ele><time>2026-04-15T11:18:27.869Z</time></trkpt><trkpt lat="42.6272033" lon="-7.3776933"><ele>630.0</ele><time>2026-04-15T11:18:28.869Z</time></trkpt><trkpt lat="42.6272467" lon="-7.3780183"><ele>630.0</ele><time>2026-04-15T11:18:29.868Z</time></trkpt><trkpt lat="42.6272817" lon="-7.37832"><ele>629.0</ele><time>2026-04-15T11:18:30.869Z</time></trkpt><trkpt lat="42.6272933" lon="-7.37858"><ele>628.0</ele><time>2026-04-15T11:18:31.868Z</time></trkpt><trkpt lat="42.6273033" lon="-7.3788417"><ele>627.0</ele><time>2026-04-15T11:18:32.868Z</time></trkpt><trkpt lat="42.6273067" lon="-7.3791317"><ele>627.0</ele><time>2026-04-15T11:18:33.868Z</time></trkpt><trkpt lat="42.6272883" lon="-7.3794483"><ele>627.0</ele><time>2026-04-15T11:18:34.868Z</time></trkpt><trkpt lat="42.6272683" lon="-7.3797933"><ele>627.3333333333334</ele><time>2026-04-15T11:18:35.869Z</time></trkpt><trkpt lat="42.627255" lon="-7.380115"><ele>627.6666666666667</ele><time>2026-04-15T11:18:36.869Z</time></trkpt><trkpt lat="42.627255" lon="-7.3803967"><ele>628.0</ele><time>2026-04-15T11:18:37.868Z</time></trkpt><trkpt lat="42.6272717" lon="-7.3806383"><ele>627.5</ele><time>2026-04-15T11:18:38.869Z</time></trkpt><trkpt lat="42.6273033" lon="-7.3808483"><ele>627.0</ele><time>2026-04-15T11:18:39.869Z</time></trkpt><trkpt lat="42.6273433" lon="-7.3810233"><ele>626.5</ele><time>2026-04-15T11:18:40.869Z</time></trkpt><trkpt lat="42.62742" lon="-7.3811833"><ele>626.0</ele><time>2026-04-15T11:18:41.868Z</time></trkpt><trkpt lat="42.6275217" lon="-7.3813067"><ele>627.0</ele><time>2026-04-15T11:18:42.868Z</time></trkpt><trkpt lat="42.6276417" lon="-7.3814167"><ele>628.0</ele><time>2026-04-15T11:18:43.869Z</time></trkpt><trkpt lat="42.6277817" lon="-7.3815033"><ele>629.0</ele><time>2026-04-15T11:18:44.868Z</time></trkpt><trkpt lat="42.6279433" lon="-7.381585"><ele>629.0</ele><time>2026-04-15T11:18:45.869Z</time></trkpt><trkpt lat="42.6281167" lon="-7.3816667"><ele>629.0</ele><time>2026-04-15T11:18:46.868Z</time></trkpt><trkpt lat="42.6283033" lon="-7.3817417"><ele>629.0</ele><time>2026-04-15T11:18:47.868Z</time></trkpt><trkpt lat="42.6285" lon="-7.3817967"><ele>633.0</ele><time>2026-04-15T11:18:48.869Z</time></trkpt><trkpt lat="42.6287083" lon="-7.381855"><ele>637.0</ele><time>2026-04-15T11:18:49.868Z</time></trkpt><trkpt lat="42.6289283" lon="-7.3819133"><ele>641.0</ele><time>2026-04-15T11:18:50.868Z</time></trkpt><trkpt lat="42.6291517" lon="-7.38196"><ele>641.0</ele><time>2026-04-15T11:18:51.868Z</time></trkpt><trkpt lat="42.62936" lon="-7.3819933"><ele>641.0</ele><time>2026-04-15T11:18:52.868Z</time></trkpt><trkpt lat="42.6295467" lon="-7.38202"><ele>641.0</ele><time>2026-04-15T11:18:53.868Z</time></trkpt><trkpt lat="42.6296917" lon="-7.38203"><ele>640.0</ele><time>2026-04-15T11:18:54.868Z</time></trkpt><trkpt lat="42.6298183" lon="-7.3820033"><ele>639.0</ele><time>2026-04-15T11:18:55.868Z</time></trkpt><trkpt lat="42.6299267" lon="-7.3819367"><ele>638.0</ele><time>2026-04-15T11:18:56.868Z</time></trkpt><trkpt lat="42.6300233" lon="-7.3818433"><ele>637.0</ele><time>2026-04-15T11:18:57.869Z</time></trkpt><trkpt lat="42.6301067" lon="-7.381715"><ele>637.0</ele><time>2026-04-15T11:18:58.868Z</time></trkpt><trkpt lat="42.6301733" lon="-7.38153"><ele>637.0</ele><time>2026-04-15T11:18:59.869Z</time></trkpt><trkpt lat="42.63025" lon="-7.3813233"><ele>637.0</ele><time>2026-04-15T11:19:00.868Z</time></trkpt><trkpt lat="42.63032" lon="-7.3810833"><ele>634.3333333333334</ele><time>2026-04-15T11:19:01.868Z</time></trkpt><trkpt lat="42.6304017" lon="-7.3808283"><ele>631.6666666666666</ele><time>2026-04-15T11:19:02.868Z</time></trkpt><trkpt lat="42.63048" lon="-7.38056"><ele>629.0</ele><time>2026-04-15T11:19:03.868Z</time></trkpt><trkpt lat="42.63055" lon="-7.380305"><ele>629.0</ele><time>2026-04-15T11:19:04.869Z</time></trkpt><trkpt lat="42.6306233" lon="-7.3800867"><ele>629.0</ele><time>2026-04-15T11:19:05.868Z</time></trkpt><trkpt lat="42.6306683" lon="-7.37988"><ele>629.0</ele><time>2026-04-15T11:19:06.868Z</time></trkpt><trkpt lat="42.6306733" lon="-7.3796967"><ele>627.3333333333333</ele><time>2026-04-15T11:19:07.868Z</time></trkpt><trkpt lat="42.630635" lon="-7.3794917"><ele>625.6666666666666</ele><time>2026-04-15T11:19:08.868Z</time></trkpt><trkpt lat="42.6305617" lon="-7.3792533"><ele>624.0</ele><time>2026-04-15T11:19:09.869Z</time></trkpt><trkpt lat="42.63048" lon="-7.3790133"><ele>619.0</ele><time>2026-04-15T11:19:10.868Z</time></trkpt><trkpt lat="42.630415" lon="-7.37879"><ele>614.0</ele><time>2026-04-15T11:19:11.868Z</time></trkpt><trkpt lat="42.6303733" lon="-7.37857"><ele>609.0</ele><time>2026-04-15T11:19:12.868Z</time></trkpt><trkpt lat="42.6303283" lon="-7.3783517"><ele>609.0</ele><time>2026-04-15T11:19:13.869Z</time></trkpt><trkpt lat="42.630325" lon="-7.378135"><ele>609.0</ele><time>2026-04-15T11:19:14.868Z</time></trkpt><trkpt lat="42.6303533" lon="-7.3779117"><ele>609.0</ele><time>2026-04-15T11:19:15.868Z</time></trkpt><trkpt lat="42.63038" lon="-7.3776933"><ele>607.0</ele><time>2026-04-15T11:19:16.869Z</time></trkpt><trkpt lat="42.630405" lon="-7.3774667"><ele>605.0</ele><time>2026-04-15T11:19:17.869Z</time></trkpt><trkpt lat="42.630395" lon="-7.377245"><ele>603.0</ele><time>2026-04-15T11:19:18.869Z</time></trkpt><trkpt lat="42.63035" lon="-7.3770433"><ele>616.0</ele><time>2026-04-15T11:19:19.868Z</time></trkpt><trkpt lat="42.63028" lon="-7.3768333"><ele>629.0</ele><time>2026-04-15T11:19:20.869Z</time></trkpt><trkpt lat="42.63021" lon="-7.3766"><ele>642.0</ele><time>2026-04-15T11:19:21.868Z</time></trkpt><trkpt lat="42.630135" lon="-7.3763883"><ele>640.5</ele><time>2026-04-15T11:19:22.869Z</time></trkpt><trkpt lat="42.6300883" lon="-7.3762167"><ele>639.0</ele><time>2026-04-15T11:19:23.868Z</time></trkpt><trkpt lat="42.6300517" lon="-7.376045"><ele>637.5</ele><time>2026-04-15T11:19:24.868Z</time></trkpt><trkpt lat="42.6300417" lon="-7.375875"><ele>636.0</ele><time>2026-04-15T11:19:25.868Z</time></trkpt><trkpt lat="42.6300517" lon="-7.37569"><ele>633.5</ele><time>2026-04-15T11:19:26.868Z</time></trkpt><trkpt lat="42.6300683" lon="-7.3754967"><ele>631.0</ele><time>2026-04-15T11:19:27.868Z</time></trkpt><trkpt lat="42.6300683" lon="-7.3753183"><ele>628.5</ele><time>2026-04-15T11:19:28.869Z</time></trkpt><trkpt lat="42.6300367" lon="-7.3751767"><ele>626.0</ele><time>2026-04-15T11:19:29.869Z</time></trkpt><trkpt lat="42.62995" lon="-7.3750333"><ele>626.0</ele><time>2026-04-15T11:19:30.868Z</time></trkpt><trkpt lat="42.6298433" lon="-7.3748767"><ele>626.0</ele><time>2026-04-15T11:19:31.868Z</time></trkpt><trkpt lat="42.6297317" lon="-7.3747067"><ele>626.0</ele><time>2026-04-15T11:19:32.869Z</time></trkpt><trkpt lat="42.6296283" lon="-7.3745333"><ele>622.25</ele><time>2026-04-15T11:19:33.869Z</time></trkpt><trkpt lat="42.6295517" lon="-7.3743717"><ele>618.5</ele><time>2026-04-15T11:19:34.869Z</time></trkpt><trkpt lat="42.6294983" lon="-7.37422"><ele>614.75</ele><time>2026-04-15T11:19:35.869Z</time></trkpt><trkpt lat="42.6294717" lon="-7.3740583"><ele>611.0</ele><time>2026-04-15T11:19:36.868Z</time></trkpt><trkpt lat="42.629475" lon="-7.373885"><ele>610.0</ele><time>2026-04-15T11:19:37.868Z</time></trkpt><trkpt lat="42.6295017" lon="-7.3737"><ele>609.0</ele><time>2026-04-15T11:19:38.869Z</time></trkpt><trkpt lat="42.629545" lon="-7.3734967"><ele>608.0</ele><time>2026-04-15T11:19:39.869Z</time></trkpt><trkpt lat="42.6295917" lon="-7.3732767"><ele>608.0</ele><time>2026-04-15T11:19:40.869Z</time></trkpt><trkpt lat="42.6296417" lon="-7.3730617"><ele>608.0</ele><time>2026-04-15T11:19:41.869Z</time></trkpt><trkpt lat="42.629705" lon="-7.37285"><ele>608.0</ele><time>2026-04-15T11:19:42.869Z</time></trkpt><trkpt lat="42.6297467" lon="-7.372645"><ele>609.0</ele><time>2026-04-15T11:19:43.869Z</time></trkpt><trkpt lat="42.6297667" lon="-7.37244"><ele>610.0</ele><time>2026-04-15T11:19:44.868Z</time></trkpt><trkpt lat="42.6297833" lon="-7.3722467"><ele>611.0</ele><time>2026-04-15T11:19:45.868Z</time></trkpt><trkpt lat="42.629805" lon="-7.372055"><ele>612.0</ele><time>2026-04-15T11:19:46.868Z</time></trkpt><trkpt lat="42.6298317" lon="-7.3718633"><ele>615.0</ele><time>2026-04-15T11:19:47.869Z</time></trkpt><trkpt lat="42.6298567" lon="-7.3716933"><ele>618.0</ele><time>2026-04-15T11:19:48.868Z</time></trkpt><trkpt lat="42.6299083" lon="-7.3715433"><ele>621.0</ele><time>2026-04-15T11:19:49.868Z</time></trkpt><trkpt lat="42.62999" lon="-7.3714417"><ele>624.0</ele><time>2026-04-15T11:19:50.869Z</time></trkpt><trkpt lat="42.630095" lon="-7.3713717"><ele>618.3333333333334</ele><time>2026-04-15T11:19:51.868Z</time></trkpt><trkpt lat="42.6302383" lon="-7.37135"><ele>612.6666666666667</ele><time>2026-04-15T11:19:52.868Z</time></trkpt><trkpt lat="42.6303983" lon="-7.3713617"><ele>607.0</ele><time>2026-04-15T11:19:53.869Z</time></trkpt><trkpt lat="42.6305617" lon="-7.3713967"><ele>607.0</ele><time>2026-04-15T11:19:54.869Z</time></trkpt><trkpt lat="42.6307233" lon="-7.3714317"><ele>607.0</ele><time>2026-04-15T11:19:55.869Z</time></trkpt><trkpt lat="42.6308917" lon="-7.3715033"><ele>607.0</ele><time>2026-04-15T11:19:56.868Z</time></trkpt><trkpt lat="42.63106" lon="-7.3715733"><ele>607.0</ele><time>2026-04-15T11:19:57.869Z</time></trkpt><trkpt lat="42.6312367" lon="-7.3716483"><ele>607.0</ele><time>2026-04-15T11:19:58.868Z</time></trkpt><trkpt lat="42.6314083" lon="-7.37171"><ele>607.0</ele><time>2026-04-15T11:19:59.869Z</time></trkpt><trkpt lat="42.6315717" lon="-7.371775"><ele>607.0</ele><time>2026-04-15T11:20:00.868Z</time></trkpt><trkpt lat="42.6317417" lon="-7.37184"><ele>607.0</ele><time>2026-04-15T11:20:01.868Z</time></trkpt><trkpt lat="42.63189" lon="-7.371865"><ele>607.0</ele><time>2026-04-15T11:20:02.868Z</time></trkpt><trkpt lat="42.6320483" lon="-7.37187"><ele>605.3333333333334</ele><time>2026-04-15T11:20:03.868Z</time></trkpt><trkpt lat="42.6322233" lon="-7.3718833"><ele>603.6666666666666</ele><time>2026-04-15T11:20:04.868Z</time></trkpt><trkpt lat="42.6323967" lon="-7.3718683"><ele>602.0</ele><time>2026-04-15T11:20:05.869Z</time></trkpt><trkpt lat="42.63256" lon="-7.3718833"><ele>602.0</ele><time>2026-04-15T11:20:06.869Z</time></trkpt><trkpt lat="42.6327183" lon="-7.371925"><ele>602.0</ele><time>2026-04-15T11:20:07.869Z</time></trkpt><trkpt lat="42.6328717" lon="-7.371955"><ele>602.0</ele><time>2026-04-15T11:20:08.868Z</time></trkpt><trkpt lat="42.6330317" lon="-7.371945"><ele>598.0</ele><time>2026-04-15T11:20:09.868Z</time></trkpt><trkpt lat="42.6332033" lon="-7.3719"><ele>594.0</ele><time>2026-04-15T11:20:10.868Z</time></trkpt><trkpt lat="42.6333783" lon="-7.371835"><ele>590.0</ele><time>2026-04-15T11:20:11.868Z</time></trkpt><trkpt lat="42.6335317" lon="-7.371775"><ele>584.5</ele><time>2026-04-15T11:20:12.868Z</time></trkpt><trkpt lat="42.63366" lon="-7.37172"><ele>579.0</ele><time>2026-04-15T11:20:13.869Z</time></trkpt><trkpt lat="42.6337467" lon="-7.37167"><ele>573.5</ele><time>2026-04-15T11:20:14.868Z</time></trkpt><trkpt lat="42.633815" lon="-7.3715367"><ele>568.0</ele><time>2026-04-15T11:20:16.868Z</time></trkpt><trkpt lat="42.6337667" lon="-7.3713767"><ele>566.25</ele><time>2026-04-15T11:20:18.868Z</time></trkpt><trkpt lat="42.6337" lon="-7.3712683"><ele>564.5</ele><time>2026-04-15T11:20:19.869Z</time></trkpt><trkpt lat="42.6336367" lon="-7.3711267"><ele>562.75</ele><time>2026-04-15T11:20:20.868Z</time></trkpt><trkpt lat="42.633555" lon="-7.3709567"><ele>561.0</ele><time>2026-04-15T11:20:21.868Z</time></trkpt><trkpt lat="42.6334683" lon="-7.37078"><ele>569.0</ele><time>2026-04-15T11:20:22.869Z</time></trkpt><trkpt lat="42.6333667" lon="-7.37063"><ele>577.0</ele><time>2026-04-15T11:20:23.868Z</time></trkpt><trkpt lat="42.633235" lon="-7.3704867"><ele>585.0</ele><time>2026-04-15T11:20:24.868Z</time></trkpt><trkpt lat="42.633105" lon="-7.3703383"><ele>585.0</ele><time>2026-04-15T11:20:25.868Z</time></trkpt><trkpt lat="42.6330067" lon="-7.3701833"><ele>585.0</ele><time>2026-04-15T11:20:26.868Z</time></trkpt><trkpt lat="42.6329433" lon="-7.3700333"><ele>585.0</ele><time>2026-04-15T11:20:27.868Z</time></trkpt><trkpt lat="42.6329" lon="-7.36993"><ele>585.0</ele><time>2026-04-15T11:20:28.869Z</time></trkpt><trkpt lat="42.6328833" lon="-7.369845"><ele>585.0</ele><time>2026-04-15T11:20:29.868Z</time></trkpt><trkpt lat="42.6329033" lon="-7.36972"><ele>589.0</ele><time>2026-04-15T11:20:31.868Z</time></trkpt><trkpt lat="42.6329683" lon="-7.3696283"><ele>593.0</ele><time>2026-04-15T11:20:32.869Z</time></trkpt><trkpt lat="42.6330667" lon="-7.3695017"><ele>597.0</ele><time>2026-04-15T11:20:33.869Z</time></trkpt><trkpt lat="42.6331933" lon="-7.3693883"><ele>601.0</ele><time>2026-04-15T11:20:34.868Z</time></trkpt><trkpt lat="42.633365" lon="-7.3692683"><ele>601.0</ele><time>2026-04-15T11:20:35.868Z</time></trkpt><trkpt lat="42.633515" lon="-7.3691517"><ele>601.0</ele><time>2026-04-15T11:20:36.868Z</time></trkpt><trkpt lat="42.6336567" lon="-7.3690533"><ele>601.0</ele><time>2026-04-15T11:20:37.868Z</time></trkpt><trkpt lat="42.6337883" lon="-7.368995"><ele>596.0</ele><time>2026-04-15T11:20:38.868Z</time></trkpt><trkpt lat="42.6339367" lon="-7.36899"><ele>591.0</ele><time>2026-04-15T11:20:39.869Z</time></trkpt><trkpt lat="42.6340817" lon="-7.3690017"><ele>586.0</ele><time>2026-04-15T11:20:40.869Z</time></trkpt><trkpt lat="42.6342433" lon="-7.36899"><ele>586.0</ele><time>2026-04-15T11:20:41.869Z</time></trkpt><trkpt lat="42.634405" lon="-7.368945"><ele>586.0</ele><time>2026-04-15T11:20:42.869Z</time></trkpt><trkpt lat="42.63457" lon="-7.368865"><ele>586.0</ele><time>2026-04-15T11:20:43.868Z</time></trkpt><trkpt lat="42.634735" lon="-7.3687717"><ele>587.3333333333334</ele><time>2026-04-15T11:20:44.868Z</time></trkpt><trkpt lat="42.63489" lon="-7.3686217"><ele>588.6666666666666</ele><time>2026-04-15T11:20:45.868Z</time></trkpt><trkpt lat="42.6350383" lon="-7.368435"><ele>590.0</ele><time>2026-04-15T11:20:46.869Z</time></trkpt><trkpt lat="42.6351717" lon="-7.3682283"><ele>596.3333333333333</ele><time>2026-04-15T11:20:47.869Z</time></trkpt><trkpt lat="42.635275" lon="-7.36802"><ele>602.6666666666666</ele><time>2026-04-15T11:20:48.868Z</time></trkpt><trkpt lat="42.635355" lon="-7.36782"><ele>609.0</ele><time>2026-04-15T11:20:49.868Z</time></trkpt><trkpt lat="42.6354117" lon="-7.3676067"><ele>598.3333333333334</ele><time>2026-04-15T11:20:50.868Z</time></trkpt><trkpt lat="42.6354467" lon="-7.3673767"><ele>587.6666666666667</ele><time>2026-04-15T11:20:51.868Z</time></trkpt><trkpt lat="42.635475" lon="-7.3671333"><ele>577.0</ele><time>2026-04-15T11:20:52.868Z</time></trkpt><trkpt lat="42.6355067" lon="-7.3668717"><ele>577.0</ele><time>2026-04-15T11:20:53.868Z</time></trkpt><trkpt lat="42.6354817" lon="-7.3666033"><ele>577.0</ele><time>2026-04-15T11:20:54.868Z</time></trkpt><trkpt lat="42.6354633" lon="-7.366365"><ele>577.0</ele><time>2026-04-15T11:20:55.868Z</time></trkpt><trkpt lat="42.6354583" lon="-7.3661817"><ele>580.5</ele><time>2026-04-15T11:20:56.868Z</time></trkpt><trkpt lat="42.6354717" lon="-7.36608"><ele>584.0</ele><time>2026-04-15T11:20:57.868Z</time></trkpt><trkpt lat="42.6355617" lon="-7.3659867"><ele>587.5</ele><time>2026-04-15T11:20:59.869Z</time></trkpt><trkpt lat="42.6356233" lon="-7.365965"><ele>591.0</ele><time>2026-04-15T11:21:00.868Z</time></trkpt><trkpt lat="42.6357" lon="-7.3659783"><ele>594.5</ele><time>2026-04-15T11:21:01.868Z</time></trkpt><trkpt lat="42.6358033" lon="-7.366015"><ele>598.0</ele><time>2026-04-15T11:21:02.868Z</time></trkpt><trkpt lat="42.635945" lon="-7.36607"><ele>593.0</ele><time>2026-04-15T11:21:03.869Z</time></trkpt><trkpt lat="42.6361367" lon="-7.3661383"><ele>588.0</ele><time>2026-04-15T11:21:04.869Z</time></trkpt><trkpt lat="42.6363067" lon="-7.3661817"><ele>583.0</ele><time>2026-04-15T11:21:05.868Z</time></trkpt><trkpt lat="42.6364383" lon="-7.3661883"><ele>583.0</ele><time>2026-04-15T11:21:06.869Z</time></trkpt><trkpt lat="42.6365333" lon="-7.366165"><ele>583.0</ele><time>2026-04-15T11:21:07.868Z</time></trkpt><trkpt lat="42.6365967" lon="-7.3661017"><ele>583.0</ele><time>2026-04-15T11:21:08.868Z</time></trkpt><trkpt lat="42.636645" lon="-7.3659983"><ele>583.0</ele><time>2026-04-15T11:21:09.868Z</time></trkpt><trkpt lat="42.6366867" lon="-7.36586"><ele>583.0</ele><time>2026-04-15T11:21:10.869Z</time></trkpt><trkpt lat="42.6367133" lon="-7.3656817"><ele>583.25</ele><time>2026-04-15T11:21:11.868Z</time></trkpt><trkpt lat="42.6367167" lon="-7.36549"><ele>583.5</ele><time>2026-04-15T11:21:12.868Z</time></trkpt><trkpt lat="42.6366983" lon="-7.3652883"><ele>583.75</ele><time>2026-04-15T11:21:13.868Z</time></trkpt><trkpt lat="42.636685" lon="-7.3650917"><ele>584.0</ele><time>2026-04-15T11:21:14.868Z</time></trkpt><trkpt lat="42.6366683" lon="-7.3648867"><ele>583.75</ele><time>2026-04-15T11:21:15.868Z</time></trkpt><trkpt lat="42.63665" lon="-7.3646933"><ele>583.5</ele><time>2026-04-15T11:21:16.869Z</time></trkpt><trkpt lat="42.6366333" lon="-7.3645133"><ele>583.25</ele><time>2026-04-15T11:21:17.868Z</time></trkpt><trkpt lat="42.6366167" lon="-7.364345"><ele>583.0</ele><time>2026-04-15T11:21:18.868Z</time></trkpt><trkpt lat="42.6366" lon="-7.36417"><ele>583.0</ele><time>2026-04-15T11:21:19.868Z</time></trkpt><trkpt lat="42.63658" lon="-7.3639767"><ele>583.0</ele><time>2026-04-15T11:21:20.868Z</time></trkpt><trkpt lat="42.63656" lon="-7.363795"><ele>583.0</ele><time>2026-04-15T11:21:21.869Z</time></trkpt><trkpt lat="42.6365533" lon="-7.3636"><ele>583.0</ele><time>2026-04-15T11:21:22.869Z</time></trkpt><trkpt lat="42.6365633" lon="-7.36339"><ele>583.25</ele><time>2026-04-15T11:21:23.868Z</time></trkpt><trkpt lat="42.6365717" lon="-7.3631783"><ele>583.5</ele><time>2026-04-15T11:21:24.869Z</time></trkpt><trkpt lat="42.6365833" lon="-7.362985"><ele>583.75</ele><time>2026-04-15T11:21:25.869Z</time></trkpt><trkpt lat="42.6365883" lon="-7.36282"><ele>584.0</ele><time>2026-04-15T11:21:26.869Z</time></trkpt><trkpt lat="42.6365867" lon="-7.3626783"><ele>584.8333333333333</ele><time>2026-04-15T11:21:27.869Z</time></trkpt><trkpt lat="42.6365767" lon="-7.362565"><ele>585.6666666666666</ele><time>2026-04-15T11:21:28.869Z</time></trkpt><trkpt lat="42.636575" lon="-7.3624733"><ele>586.5</ele><time>2026-04-15T11:21:29.869Z</time></trkpt><trkpt lat="42.6365567" lon="-7.3623433"><ele>587.3333333333334</ele><time>2026-04-15T11:21:31.868Z</time></trkpt><trkpt lat="42.6365933" lon="-7.3622333"><ele>588.1666666666667</ele><time>2026-04-15T11:22:52.869Z</time></trkpt><trkpt lat="42.6366567" lon="-7.3621183"><ele>589.0</ele><time>2026-04-15T11:22:55.869Z</time></trkpt><trkpt lat="42.6367817" lon="-7.3620317"><ele>590.4</ele><time>2026-04-15T11:22:57.869Z</time></trkpt><trkpt lat="42.636865" lon="-7.361985"><ele>591.8</ele><time>2026-04-15T11:22:58.869Z</time></trkpt><trkpt lat="42.636965" lon="-7.3619267"><ele>593.2</ele><time>2026-04-15T11:22:59.869Z</time></trkpt><trkpt lat="42.6370733" lon="-7.3618617"><ele>594.6</ele><time>2026-04-15T11:23:00.869Z</time></trkpt><trkpt lat="42.6371683" lon="-7.361795"><ele>596.0</ele><time>2026-04-15T11:23:01.869Z</time></trkpt><trkpt lat="42.6372633" lon="-7.3617333"><ele>596.0</ele><time>2026-04-15T11:23:02.869Z</time></trkpt><trkpt lat="42.6373467" lon="-7.361655"><ele>596.0</ele><time>2026-04-15T11:23:03.868Z</time></trkpt><trkpt lat="42.6374167" lon="-7.361575"><ele>596.0</ele><time>2026-04-15T11:23:04.869Z</time></trkpt><trkpt lat="42.6374817" lon="-7.3614933"><ele>596.0</ele><time>2026-04-15T11:23:05.869Z</time></trkpt><trkpt lat="42.6375467" lon="-7.3614183"><ele>596.0</ele><time>2026-04-15T11:23:06.869Z</time></trkpt><trkpt lat="42.63761" lon="-7.3613583"><ele>596.0</ele><time>2026-04-15T11:23:07.868Z</time></trkpt><trkpt lat="42.6376983" lon="-7.3613083"><ele>596.0</ele><time>2026-04-15T11:23:09.869Z</time></trkpt><trkpt lat="42.6377667" lon="-7.3614117"><ele>596.0</ele><time>2026-04-15T11:23:11.869Z</time></trkpt><trkpt lat="42.6377917" lon="-7.36162"><ele>596.0</ele><time>2026-04-15T11:23:13.868Z</time></trkpt><trkpt lat="42.6377767" lon="-7.3617683"><ele>596.0</ele><time>2026-04-15T11:23:14.869Z</time></trkpt><trkpt lat="42.637765" lon="-7.3619117"><ele>596.0</ele><time>2026-04-15T11:23:15.868Z</time></trkpt><trkpt lat="42.6377567" lon="-7.36205"><ele>596.0</ele><time>2026-04-15T11:23:16.869Z</time></trkpt><trkpt lat="42.6377367" lon="-7.3621817"><ele>596.0</ele><time>2026-04-15T11:23:17.869Z</time></trkpt><trkpt lat="42.6377283" lon="-7.3623017"><ele>596.0</ele><time>2026-04-15T11:23:18.868Z</time></trkpt><trkpt lat="42.63773" lon="-7.3624283"><ele>596.0</ele><time>2026-04-15T11:23:19.868Z</time></trkpt><trkpt lat="42.6377533" lon="-7.3625467"><ele>595.7142857142857</ele><time>2026-04-15T11:23:20.869Z</time></trkpt><trkpt lat="42.6377833" lon="-7.362635"><ele>595.4285714285713</ele><time>2026-04-15T11:23:21.868Z</time></trkpt><trkpt lat="42.6378267" lon="-7.3627167"><ele>595.1428571428571</ele><time>2026-04-15T11:23:22.868Z</time></trkpt><trkpt lat="42.6378717" lon="-7.36279"><ele>594.8571428571429</ele><time>2026-04-15T11:23:23.869Z</time></trkpt><trkpt lat="42.6379283" lon="-7.362855"><ele>594.5714285714287</ele><time>2026-04-15T11:23:24.869Z</time></trkpt><trkpt lat="42.6379867" lon="-7.3629167"><ele>594.2857142857143</ele><time>2026-04-15T11:23:25.869Z</time></trkpt><trkpt lat="42.6380467" lon="-7.3629733"><ele>594.0</ele><time>2026-04-15T11:23:26.868Z</time></trkpt><trkpt lat="42.6381067" lon="-7.363035"><ele>594.0</ele><time>2026-04-15T11:23:27.869Z</time></trkpt><trkpt lat="42.6381783" lon="-7.3631067"><ele>594.0</ele><time>2026-04-15T11:23:28.868Z</time></trkpt><trkpt lat="42.6382517" lon="-7.3631683"><ele>594.0</ele><time>2026-04-15T11:23:29.869Z</time></trkpt><trkpt lat="42.6383333" lon="-7.36325"><ele>594.0</ele><time>2026-04-15T11:23:30.869Z</time></trkpt><trkpt lat="42.6383933" lon="-7.3633067"><ele>594.0</ele><time>2026-04-15T11:23:31.869Z</time></trkpt><trkpt lat="42.638445" lon="-7.3633717"><ele>594.0</ele><time>2026-04-15T11:23:32.869Z</time></trkpt><trkpt lat="42.6385017" lon="-7.36346"><ele>594.0</ele><time>2026-04-15T11:23:33.869Z</time></trkpt><trkpt lat="42.638555" lon="-7.3635517"><ele>594.0</ele><time>2026-04-15T11:23:34.868Z</time></trkpt><trkpt lat="42.638605" lon="-7.363645"><ele>594.0</ele><time>2026-04-15T11:23:35.869Z</time></trkpt><trkpt lat="42.638665" lon="-7.3637467"><ele>594.0</ele><time>2026-04-15T11:23:36.869Z</time></trkpt><trkpt lat="42.6387267" lon="-7.3638433"><ele>594.0</ele><time>2026-04-15T11:23:37.868Z</time></trkpt><trkpt lat="42.6387967" lon="-7.3639367"><ele>592.25</ele><time>2026-04-15T11:23:38.869Z</time></trkpt><trkpt lat="42.6388883" lon="-7.3640233"><ele>590.5</ele><time>2026-04-15T11:23:39.869Z</time></trkpt><trkpt lat="42.6390033" lon="-7.36409"><ele>588.75</ele><time>2026-04-15T11:23:40.868Z</time></trkpt><trkpt lat="42.6391267" lon="-7.3641433"><ele>587.0</ele><time>2026-04-15T11:23:41.868Z</time></trkpt><trkpt lat="42.6392467" lon="-7.3641967"><ele>587.0</ele><time>2026-04-15T11:23:42.868Z</time></trkpt><trkpt lat="42.639365" lon="-7.364235"><ele>587.0</ele><time>2026-04-15T11:23:43.869Z</time></trkpt><trkpt lat="42.6394833" lon="-7.3642733"><ele>587.0</ele><time>2026-04-15T11:23:44.868Z</time></trkpt><trkpt lat="42.639595" lon="-7.3643017"><ele>587.0</ele><time>2026-04-15T11:23:45.868Z</time></trkpt><trkpt lat="42.6397067" lon="-7.3643317"><ele>586.4</ele><time>2026-04-15T11:23:46.868Z</time></trkpt><trkpt lat="42.6398217" lon="-7.3643517"><ele>585.8000000000001</ele><time>2026-04-15T11:23:47.869Z</time></trkpt><trkpt lat="42.63993" lon="-7.3643433"><ele>585.2</ele><time>2026-04-15T11:23:48.869Z</time></trkpt><trkpt lat="42.6400417" lon="-7.3643233"><ele>584.6</ele><time>2026-04-15T11:23:49.869Z</time></trkpt><trkpt lat="42.6401433" lon="-7.3642767"><ele>584.0</ele><time>2026-04-15T11:23:50.868Z</time></trkpt><trkpt lat="42.6402617" lon="-7.364205"><ele>578.0</ele><time>2026-04-15T11:23:51.869Z</time></trkpt><trkpt lat="42.640385" lon="-7.3641167"><ele>572.0</ele><time>2026-04-15T11:23:52.868Z</time></trkpt><trkpt lat="42.6405067" lon="-7.3640383"><ele>566.0</ele><time>2026-04-15T11:23:53.868Z</time></trkpt><trkpt lat="42.640625" lon="-7.3639633"><ele>560.0</ele><time>2026-04-15T11:23:54.868Z</time></trkpt><trkpt lat="42.6407433" lon="-7.363895"><ele>556.75</ele><time>2026-04-15T11:23:55.868Z</time></trkpt><trkpt lat="42.6408667" lon="-7.36383"><ele>553.5</ele><time>2026-04-15T11:23:56.869Z</time></trkpt><trkpt lat="42.6409883" lon="-7.3637667"><ele>550.25</ele><time>2026-04-15T11:23:57.868Z</time></trkpt><trkpt lat="42.6410917" lon="-7.36369"><ele>547.0</ele><time>2026-04-15T11:23:58.869Z</time></trkpt><trkpt lat="42.641185" lon="-7.363595"><ele>547.0</ele><time>2026-04-15T11:23:59.869Z</time></trkpt><trkpt lat="42.6412683" lon="-7.36348"><ele>547.0</ele><time>2026-04-15T11:24:00.869Z</time></trkpt><trkpt lat="42.6413533" lon="-7.36336"><ele>547.0</ele><time>2026-04-15T11:24:01.869Z</time></trkpt><trkpt lat="42.6414283" lon="-7.3632383"><ele>547.0</ele><time>2026-04-15T11:24:02.869Z</time></trkpt><trkpt lat="42.641505" lon="-7.3631167"><ele>550.6666666666667</ele><time>2026-04-15T11:24:03.868Z</time></trkpt><trkpt lat="42.6416033" lon="-7.362935"><ele>554.3333333333334</ele><time>2026-04-15T11:24:04.869Z</time></trkpt><trkpt lat="42.64169" lon="-7.3627817"><ele>558.0</ele><time>2026-04-15T11:24:05.868Z</time></trkpt><trkpt lat="42.6417783" lon="-7.362625"><ele>558.0</ele><time>2026-04-15T11:24:06.869Z</time></trkpt><trkpt lat="42.64186" lon="-7.3624883"><ele>558.0</ele><time>2026-04-15T11:24:07.868Z</time></trkpt><trkpt lat="42.6419467" lon="-7.3623567"><ele>558.0</ele><time>2026-04-15T11:24:08.868Z</time></trkpt><trkpt lat="42.6420317" lon="-7.36222"><ele>558.0</ele><time>2026-04-15T11:24:09.868Z</time></trkpt><trkpt lat="42.6421317" lon="-7.36208"><ele>553.5</ele><time>2026-04-15T11:24:10.869Z</time></trkpt><trkpt lat="42.6422217" lon="-7.3619483"><ele>549.0</ele><time>2026-04-15T11:24:11.868Z</time></trkpt><trkpt lat="42.64231" lon="-7.3618183"><ele>544.5</ele><time>2026-04-15T11:24:12.869Z</time></trkpt><trkpt lat="42.6423983" lon="-7.361695"><ele>540.0</ele><time>2026-04-15T11:24:13.869Z</time></trkpt><trkpt lat="42.6424933" lon="-7.36157"><ele>540.0</ele><time>2026-04-15T11:24:14.869Z</time></trkpt><trkpt lat="42.6425867" lon="-7.36145"><ele>540.0</ele><time>2026-04-15T11:24:15.868Z</time></trkpt><trkpt lat="42.6426883" lon="-7.3613417"><ele>540.0</ele><time>2026-04-15T11:24:16.868Z</time></trkpt><trkpt lat="42.642785" lon="-7.3612283"><ele>540.0</ele><time>2026-04-15T11:24:17.869Z</time></trkpt><trkpt lat="42.642875" lon="-7.3611067"><ele>538.75</ele><time>2026-04-15T11:24:18.869Z</time></trkpt><trkpt lat="42.6429517" lon="-7.360965"><ele>537.5</ele><time>2026-04-15T11:24:19.868Z</time></trkpt><trkpt lat="42.6430217" lon="-7.3608083"><ele>536.25</ele><time>2026-04-15T11:24:20.868Z</time></trkpt><trkpt lat="42.64309" lon="-7.3606517"><ele>535.0</ele><time>2026-04-15T11:24:21.868Z</time></trkpt><trkpt lat="42.6431567" lon="-7.36049"><ele>535.0</ele><time>2026-04-15T11:24:22.868Z</time></trkpt><trkpt lat="42.6432283" lon="-7.3603167"><ele>535.0</ele><time>2026-04-15T11:24:23.868Z</time></trkpt><trkpt lat="42.643295" lon="-7.3601467"><ele>535.0</ele><time>2026-04-15T11:24:24.868Z</time></trkpt><trkpt lat="42.6433667" lon="-7.3599783"><ele>535.0</ele><time>2026-04-15T11:24:25.869Z</time></trkpt><trkpt lat="42.6434417" lon="-7.35981"><ele>537.25</ele><time>2026-04-15T11:24:26.868Z</time></trkpt><trkpt lat="42.6435167" lon="-7.3596333"><ele>539.5</ele><time>2026-04-15T11:24:27.869Z</time></trkpt><trkpt lat="42.6435917" lon="-7.35946"><ele>541.75</ele><time>2026-04-15T11:24:28.869Z</time></trkpt><trkpt lat="42.6436667" lon="-7.3592883"><ele>544.0</ele><time>2026-04-15T11:24:29.868Z</time></trkpt><trkpt lat="42.6437567" lon="-7.35913"><ele>540.75</ele><time>2026-04-15T11:24:30.868Z</time></trkpt><trkpt lat="42.6438433" lon="-7.3589883"><ele>537.5</ele><time>2026-04-15T11:24:31.869Z</time></trkpt><trkpt lat="42.6439367" lon="-7.3588367"><ele>534.25</ele><time>2026-04-15T11:24:32.869Z</time></trkpt><trkpt lat="42.644025" lon="-7.3587"><ele>531.0</ele><time>2026-04-15T11:24:33.868Z</time></trkpt><trkpt lat="42.6441133" lon="-7.3585783"><ele>531.0</ele><time>2026-04-15T11:24:34.868Z</time></trkpt><trkpt lat="42.644185" lon="-7.358445"><ele>531.0</ele><time>2026-04-15T11:24:35.868Z</time></trkpt><trkpt lat="42.64425" lon="-7.3583017"><ele>531.0</ele><time>2026-04-15T11:24:36.868Z</time></trkpt><trkpt lat="42.6443067" lon="-7.3581733"><ele>531.0</ele><time>2026-04-15T11:24:37.868Z</time></trkpt><trkpt lat="42.6443433" lon="-7.3580567"><ele>531.0</ele><time>2026-04-15T11:24:38.868Z</time></trkpt><trkpt lat="42.6443783" lon="-7.3579183"><ele>532.0</ele><time>2026-04-15T11:24:39.869Z</time></trkpt><trkpt lat="42.6443933" lon="-7.3577633"><ele>533.0</ele><time>2026-04-15T11:24:40.868Z</time></trkpt><trkpt lat="42.6444017" lon="-7.3576133"><ele>534.0</ele><time>2026-04-15T11:24:41.868Z</time></trkpt><trkpt lat="42.64441" lon="-7.3574567"><ele>535.0</ele><time>2026-04-15T11:24:42.868Z</time></trkpt><trkpt lat="42.6444233" lon="-7.357305"><ele>535.8</ele><time>2026-04-15T11:24:43.868Z</time></trkpt><trkpt lat="42.64444" lon="-7.3571583"><ele>536.6</ele><time>2026-04-15T11:24:44.868Z</time></trkpt><trkpt lat="42.6444517" lon="-7.357015"><ele>537.4</ele><time>2026-04-15T11:24:45.868Z</time></trkpt><trkpt lat="42.644465" lon="-7.35687"><ele>538.2</ele><time>2026-04-15T11:24:46.868Z</time></trkpt><trkpt lat="42.6444767" lon="-7.356735"><ele>539.0</ele><time>2026-04-15T11:24:47.868Z</time></trkpt><trkpt lat="42.64449" lon="-7.35661"><ele>536.8333333333333</ele><time>2026-04-15T11:24:48.869Z</time></trkpt><trkpt lat="42.6445217" lon="-7.3564917"><ele>534.6666666666666</ele><time>2026-04-15T11:24:49.869Z</time></trkpt><trkpt lat="42.6445833" lon="-7.35639"><ele>532.5</ele><time>2026-04-15T11:24:50.869Z</time></trkpt><trkpt lat="42.6446533" lon="-7.3563083"><ele>530.3333333333334</ele><time>2026-04-15T11:24:51.868Z</time></trkpt><trkpt lat="42.64473" lon="-7.3562567"><ele>528.1666666666667</ele><time>2026-04-15T11:24:52.869Z</time></trkpt><trkpt lat="42.6447983" lon="-7.3562067"><ele>526.0</ele><time>2026-04-15T11:24:53.869Z</time></trkpt><trkpt lat="42.644865" lon="-7.3561767"><ele>526.0</ele><time>2026-04-15T11:24:54.868Z</time></trkpt><trkpt lat="42.644935" lon="-7.356155"><ele>526.0</ele><time>2026-04-15T11:24:55.869Z</time></trkpt><trkpt lat="42.6450017" lon="-7.356135"><ele>526.0</ele><time>2026-04-15T11:24:56.868Z</time></trkpt><trkpt lat="42.64512" lon="-7.356105"><ele>526.0</ele><time>2026-04-15T11:24:58.868Z</time></trkpt><trkpt lat="42.6452267" lon="-7.3561467"><ele>526.0</ele><time>2026-04-15T11:25:00.868Z</time></trkpt><trkpt lat="42.6452883" lon="-7.3561917"><ele>526.0</ele><time>2026-04-15T11:25:01.869Z</time></trkpt><trkpt lat="42.64537" lon="-7.3562517"><ele>525.0</ele><time>2026-04-15T11:25:02.869Z</time></trkpt><trkpt lat="42.6454817" lon="-7.3563383"><ele>524.0</ele><time>2026-04-15T11:25:03.868Z</time></trkpt><trkpt lat="42.645595" lon="-7.3564067"><ele>523.0</ele><time>2026-04-15T11:25:04.868Z</time></trkpt><trkpt lat="42.6457117" lon="-7.3564583"><ele>522.0</ele><time>2026-04-15T11:25:05.868Z</time></trkpt><trkpt lat="42.645835" lon="-7.3565017"><ele>522.0</ele><time>2026-04-15T11:25:06.869Z</time></trkpt><trkpt lat="42.645955" lon="-7.3565367"><ele>522.0</ele><time>2026-04-15T11:25:07.869Z</time></trkpt><trkpt lat="42.646075" lon="-7.3565983"><ele>522.0</ele><time>2026-04-15T11:25:08.868Z</time></trkpt><trkpt lat="42.6461767" lon="-7.3566833"><ele>522.0</ele><time>2026-04-15T11:25:09.868Z</time></trkpt><trkpt lat="42.64628" lon="-7.35678"><ele>525.6</ele><time>2026-04-15T11:25:10.869Z</time></trkpt><trkpt lat="42.6463783" lon="-7.3568683"><ele>529.2</ele><time>2026-04-15T11:25:11.868Z</time></trkpt><trkpt lat="42.646465" lon="-7.3569433"><ele>532.8</ele><time>2026-04-15T11:25:12.868Z</time></trkpt><trkpt lat="42.6465467" lon="-7.357"><ele>536.4</ele><time>2026-04-15T11:25:13.868Z</time></trkpt><trkpt lat="42.646615" lon="-7.3570617"><ele>540.0</ele><time>2026-04-15T11:25:14.868Z</time></trkpt><trkpt lat="42.646665" lon="-7.35712"><ele>540.0</ele><time>2026-04-15T11:25:15.868Z</time></trkpt><trkpt lat="42.6467133" lon="-7.3571983"><ele>540.0</ele><time>2026-04-15T11:25:16.868Z</time></trkpt><trkpt lat="42.6467433" lon="-7.3573"><ele>540.0</ele><time>2026-04-15T11:25:17.869Z</time></trkpt><trkpt lat="42.64677" lon="-7.35741"><ele>540.0</ele><time>2026-04-15T11:25:18.868Z</time></trkpt><trkpt lat="42.6467967" lon="-7.3575167"><ele>540.0</ele><time>2026-04-15T11:25:19.868Z</time></trkpt><trkpt lat="42.64682" lon="-7.35762"><ele>540.0</ele><time>2026-04-15T11:25:20.869Z</time></trkpt><trkpt lat="42.646865" lon="-7.357705"><ele>540.8</ele><time>2026-04-15T11:25:21.868Z</time></trkpt><trkpt lat="42.6469567" lon="-7.357785"><ele>541.6</ele><time>2026-04-15T11:25:23.869Z</time></trkpt><trkpt lat="42.6470733" lon="-7.357765"><ele>542.4</ele><time>2026-04-15T11:25:25.869Z</time></trkpt><trkpt lat="42.6471417" lon="-7.3578483"><ele>543.2</ele><time>2026-04-15T11:25:27.868Z</time></trkpt><trkpt lat="42.647165" lon="-7.3579333"><ele>544.0</ele><time>2026-04-15T11:25:28.869Z</time></trkpt><trkpt lat="42.6471917" lon="-7.3581133"><ele>546.2</ele><time>2026-04-15T11:25:30.869Z</time></trkpt><trkpt lat="42.647185" lon="-7.3582317"><ele>548.4</ele><time>2026-04-15T11:25:31.868Z</time></trkpt><trkpt lat="42.647175" lon="-7.35837"><ele>550.6</ele><time>2026-04-15T11:25:32.869Z</time></trkpt><trkpt lat="42.6471717" lon="-7.3584917"><ele>552.8</ele><time>2026-04-15T11:25:33.87Z</time></trkpt><trkpt lat="42.64718" lon="-7.3586133"><ele>555.0</ele><time>2026-04-15T11:25:34.87Z</time></trkpt><trkpt lat="42.6472167" lon="-7.358755"><ele>555.0</ele><time>2026-04-15T11:25:35.87Z</time></trkpt><trkpt lat="42.647265" lon="-7.358895"><ele>555.0</ele><time>2026-04-15T11:25:36.869Z</time></trkpt><trkpt lat="42.6473133" lon="-7.3590367"><ele>555.0</ele><time>2026-04-15T11:25:37.87Z</time></trkpt><trkpt lat="42.6473483" lon="-7.359165"><ele>555.0</ele><time>2026-04-15T11:25:38.87Z</time></trkpt><trkpt lat="42.6473767" lon="-7.3592833"><ele>555.0</ele><time>2026-04-15T11:25:39.869Z</time></trkpt><trkpt lat="42.6473833" lon="-7.35938"><ele>555.0</ele><time>2026-04-15T11:25:40.869Z</time></trkpt><trkpt lat="42.64734" lon="-7.35952"><ele>555.0</ele><time>2026-04-15T11:25:42.87Z</time></trkpt><trkpt lat="42.64721" lon="-7.3596"><ele>555.0</ele><time>2026-04-15T11:25:44.87Z</time></trkpt><trkpt lat="42.64712" lon="-7.359635"><ele>555.0</ele><time>2026-04-15T11:25:45.87Z</time></trkpt><trkpt lat="42.6470217" lon="-7.3596933"><ele>556.5</ele><time>2026-04-15T11:25:46.87Z</time></trkpt><trkpt lat="42.6469233" lon="-7.35978"><ele>558.0</ele><time>2026-04-15T11:25:47.869Z</time></trkpt><trkpt lat="42.6468033" lon="-7.3598683"><ele>559.5</ele><time>2026-04-15T11:25:48.87Z</time></trkpt><trkpt lat="42.64668" lon="-7.3599517"><ele>561.0</ele><time>2026-04-15T11:25:49.87Z</time></trkpt><trkpt lat="42.6465583" lon="-7.3600433"><ele>561.0</ele><time>2026-04-15T11:25:50.869Z</time></trkpt><trkpt lat="42.6464633" lon="-7.3601367"><ele>561.0</ele><time>2026-04-15T11:25:51.869Z</time></trkpt><trkpt lat="42.6463783" lon="-7.3602467"><ele>561.0</ele><time>2026-04-15T11:25:52.869Z</time></trkpt><trkpt lat="42.6463033" lon="-7.3603717"><ele>561.0</ele><time>2026-04-15T11:25:53.87Z</time></trkpt><trkpt lat="42.6462433" lon="-7.36051"><ele>560.0</ele><time>2026-04-15T11:25:54.869Z</time></trkpt><trkpt lat="42.6461933" lon="-7.3606683"><ele>559.0</ele><time>2026-04-15T11:25:55.87Z</time></trkpt><trkpt lat="42.6461367" lon="-7.3608217"><ele>558.0</ele><time>2026-04-15T11:25:56.87Z</time></trkpt><trkpt lat="42.6460717" lon="-7.3609783"><ele>557.0</ele><time>2026-04-15T11:25:57.869Z</time></trkpt><trkpt lat="42.6459967" lon="-7.3611183"><ele>557.0</ele><time>2026-04-15T11:25:58.87Z</time></trkpt><trkpt lat="42.64592" lon="-7.36125"><ele>557.0</ele><time>2026-04-15T11:25:59.87Z</time></trkpt><trkpt lat="42.6458517" lon="-7.3613583"><ele>557.0</ele><time>2026-04-15T11:26:00.869Z</time></trkpt><trkpt lat="42.6457917" lon="-7.361485"><ele>557.0</ele><time>2026-04-15T11:26:01.87Z</time></trkpt><trkpt lat="42.6457533" lon="-7.3616283"><ele>559.8000000000001</ele><time>2026-04-15T11:26:02.869Z</time></trkpt><trkpt lat="42.645725" lon="-7.3617833"><ele>562.6</ele><time>2026-04-15T11:26:03.87Z</time></trkpt><trkpt lat="42.6456883" lon="-7.3619283"><ele>565.4000000000001</ele><time>2026-04-15T11:26:04.869Z</time></trkpt><trkpt lat="42.6456617" lon="-7.3620583"><ele>568.2</ele><time>2026-04-15T11:26:05.869Z</time></trkpt><trkpt lat="42.6456483" lon="-7.36216"><ele>571.0</ele><time>2026-04-15T11:26:06.87Z</time></trkpt><trkpt lat="42.645655" lon="-7.3622467"><ele>571.0</ele><time>2026-04-15T11:26:08.869Z</time></trkpt><trkpt lat="42.6457217" lon="-7.362135"><ele>571.0</ele><time>2026-04-15T11:26:11.869Z</time></trkpt><trkpt lat="42.6457467" lon="-7.3620017"><ele>571.0</ele><time>2026-04-15T11:26:12.869Z</time></trkpt><trkpt lat="42.645795" lon="-7.361845"><ele>571.0</ele><time>2026-04-15T11:26:13.869Z</time></trkpt><trkpt lat="42.6458667" lon="-7.3616917"><ele>571.0</ele><time>2026-04-15T11:26:14.869Z</time></trkpt><trkpt lat="42.6459767" lon="-7.3615517"><ele>571.0</ele><time>2026-04-15T11:26:15.869Z</time></trkpt><trkpt lat="42.6461" lon="-7.3614217"><ele>571.0</ele><time>2026-04-15T11:26:16.869Z</time></trkpt><trkpt lat="42.64621" lon="-7.3613017"><ele>571.0</ele><time>2026-04-15T11:26:17.87Z</time></trkpt><trkpt lat="42.64633" lon="-7.361195"><ele>573.0</ele><time>2026-04-15T11:26:18.87Z</time></trkpt><trkpt lat="42.6464417" lon="-7.3611033"><ele>575.0</ele><time>2026-04-15T11:26:19.869Z</time></trkpt><trkpt lat="42.6465533" lon="-7.3610133"><ele>577.0</ele><time>2026-04-15T11:26:20.869Z</time></trkpt><trkpt lat="42.646675" lon="-7.36093"><ele>579.0</ele><time>2026-04-15T11:26:21.87Z</time></trkpt><trkpt lat="42.6468083" lon="-7.3608633"><ele>579.0</ele><time>2026-04-15T11:26:22.87Z</time></trkpt><trkpt lat="42.6469517" lon="-7.3608083"><ele>579.0</ele><time>2026-04-15T11:26:23.87Z</time></trkpt><trkpt lat="42.647095" lon="-7.36076"><ele>579.0</ele><time>2026-04-15T11:26:24.87Z</time></trkpt><trkpt lat="42.647245" lon="-7.3607233"><ele>579.0</ele><time>2026-04-15T11:26:25.87Z</time></trkpt><trkpt lat="42.6474033" lon="-7.360695"><ele>582.0</ele><time>2026-04-15T11:26:26.87Z</time></trkpt><trkpt lat="42.64756" lon="-7.36068"><ele>585.0</ele><time>2026-04-15T11:26:27.869Z</time></trkpt><trkpt lat="42.6477133" lon="-7.3606633"><ele>588.0</ele><time>2026-04-15T11:26:28.869Z</time></trkpt><trkpt lat="42.6478633" lon="-7.3606533"><ele>590.6666666666666</ele><time>2026-04-15T11:26:29.87Z</time></trkpt><trkpt lat="42.6480067" lon="-7.3606617"><ele>593.3333333333333</ele><time>2026-04-15T11:26:30.87Z</time></trkpt><trkpt lat="42.64816" lon="-7.3606933"><ele>596.0</ele><time>2026-04-15T11:26:31.87Z</time></trkpt><trkpt lat="42.6483083" lon="-7.3607433"><ele>596.0</ele><time>2026-04-15T11:26:32.869Z</time></trkpt><trkpt lat="42.64845" lon="-7.3608183"><ele>596.0</ele><time>2026-04-15T11:26:33.869Z</time></trkpt><trkpt lat="42.648605" lon="-7.3608917"><ele>596.0</ele><time>2026-04-15T11:26:34.87Z</time></trkpt><trkpt lat="42.648765" lon="-7.3609267"><ele>597.0</ele><time>2026-04-15T11:26:35.87Z</time></trkpt><trkpt lat="42.6489183" lon="-7.3609067"><ele>598.0</ele><time>2026-04-15T11:26:36.869Z</time></trkpt><trkpt lat="42.6490783" lon="-7.360875"><ele>599.0</ele><time>2026-04-15T11:26:37.869Z</time></trkpt><trkpt lat="42.6492433" lon="-7.3608533"><ele>599.0</ele><time>2026-04-15T11:26:38.869Z</time></trkpt><trkpt lat="42.649405" lon="-7.3608217"><ele>599.0</ele><time>2026-04-15T11:26:39.869Z</time></trkpt><trkpt lat="42.6495667" lon="-7.3607883"><ele>599.0</ele><time>2026-04-15T11:26:40.869Z</time></trkpt><trkpt lat="42.64972" lon="-7.360755"><ele>598.75</ele><time>2026-04-15T11:26:41.869Z</time></trkpt><trkpt lat="42.6498717" lon="-7.360715"><ele>598.5</ele><time>2026-04-15T11:26:42.87Z</time></trkpt><trkpt lat="42.65002" lon="-7.3606617"><ele>598.25</ele><time>2026-04-15T11:26:43.87Z</time></trkpt><trkpt lat="42.65014" lon="-7.3605733"><ele>598.0</ele><time>2026-04-15T11:26:44.869Z</time></trkpt><trkpt lat="42.6502367" lon="-7.3604867"><ele>598.0</ele><time>2026-04-15T11:26:45.869Z</time></trkpt><trkpt lat="42.6502867" lon="-7.3604267"><ele>598.0</ele><time>2026-04-15T11:26:46.87Z</time></trkpt><trkpt lat="42.6502867" lon="-7.3602983"><ele>598.0</ele><time>2026-04-15T11:26:48.869Z</time></trkpt><trkpt lat="42.650155" lon="-7.3601633"><ele>598.0</ele><time>2026-04-15T11:26:50.869Z</time></trkpt><trkpt lat="42.65005" lon="-7.3600517"><ele>598.0</ele><time>2026-04-15T11:26:51.869Z</time></trkpt><trkpt lat="42.6499283" lon="-7.359905"><ele>598.0</ele><time>2026-04-15T11:26:52.87Z</time></trkpt><trkpt lat="42.649815" lon="-7.3597317"><ele>598.0</ele><time>2026-04-15T11:26:53.869Z</time></trkpt><trkpt lat="42.64972" lon="-7.35953"><ele>600.0</ele><time>2026-04-15T11:26:54.869Z</time></trkpt><trkpt lat="42.6496617" lon="-7.3593583"><ele>602.0</ele><time>2026-04-15T11:26:55.87Z</time></trkpt><trkpt lat="42.6496017" lon="-7.35919"><ele>604.0</ele><time>2026-04-15T11:26:56.87Z</time></trkpt><trkpt lat="42.6495533" lon="-7.359015"><ele>606.0</ele><time>2026-04-15T11:26:57.87Z</time></trkpt><trkpt lat="42.649505" lon="-7.358845"><ele>604.75</ele><time>2026-04-15T11:26:58.87Z</time></trkpt><trkpt lat="42.6494567" lon="-7.3586783"><ele>603.5</ele><time>2026-04-15T11:26:59.869Z</time></trkpt><trkpt lat="42.64941" lon="-7.3585217"><ele>602.25</ele><time>2026-04-15T11:27:00.87Z</time></trkpt><trkpt lat="42.6493617" lon="-7.3583617"><ele>601.0</ele><time>2026-04-15T11:27:01.87Z</time></trkpt><trkpt lat="42.64933" lon="-7.3582"><ele>601.0</ele><time>2026-04-15T11:27:02.87Z</time></trkpt><trkpt lat="42.6493217" lon="-7.3580433"><ele>601.0</ele><time>2026-04-15T11:27:03.869Z</time></trkpt><trkpt lat="42.6493333" lon="-7.3579067"><ele>601.0</ele><time>2026-04-15T11:27:04.869Z</time></trkpt><trkpt lat="42.6493317" lon="-7.3577733"><ele>601.0</ele><time>2026-04-15T11:27:05.869Z</time></trkpt><trkpt lat="42.6493367" lon="-7.3576783"><ele>601.0</ele><time>2026-04-15T11:27:06.869Z</time></trkpt><trkpt lat="42.649355" lon="-7.3575917"><ele>601.8333333333334</ele><time>2026-04-15T11:27:08.869Z</time></trkpt><trkpt lat="42.6494217" lon="-7.357545"><ele>602.6666666666667</ele><time>2026-04-15T11:27:10.87Z</time></trkpt><trkpt lat="42.6495167" lon="-7.3576133"><ele>603.5</ele><time>2026-04-15T11:27:12.87Z</time></trkpt><trkpt lat="42.6495833" lon="-7.3576667"><ele>604.3333333333334</ele><time>2026-04-15T11:27:13.869Z</time></trkpt><trkpt lat="42.6496633" lon="-7.3576917"><ele>605.1666666666666</ele><time>2026-04-15T11:27:14.869Z</time></trkpt><trkpt lat="42.649755" lon="-7.3577033"><ele>606.0</ele><time>2026-04-15T11:27:15.869Z</time></trkpt><trkpt lat="42.6498483" lon="-7.3577017"><ele>610.0</ele><time>2026-04-15T11:27:16.87Z</time></trkpt><trkpt lat="42.6499333" lon="-7.3576717"><ele>614.0</ele><time>2026-04-15T11:27:17.869Z</time></trkpt><trkpt lat="42.650015" lon="-7.3576167"><ele>618.0</ele><time>2026-04-15T11:27:18.869Z</time></trkpt><trkpt lat="42.6501067" lon="-7.357555"><ele>622.0</ele><time>2026-04-15T11:27:19.87Z</time></trkpt><trkpt lat="42.6502083" lon="-7.3574983"><ele>626.0</ele><time>2026-04-15T11:27:20.869Z</time></trkpt><trkpt lat="42.650315" lon="-7.357455"><ele>629.4</ele><time>2026-04-15T11:27:21.869Z</time></trkpt><trkpt lat="42.6504167" lon="-7.3574167"><ele>632.8</ele><time>2026-04-15T11:27:22.87Z</time></trkpt><trkpt lat="42.6505217" lon="-7.3573983"><ele>636.1999999999999</ele><time>2026-04-15T11:27:23.87Z</time></trkpt><trkpt lat="42.6506333" lon="-7.357385"><ele>639.6</ele><time>2026-04-15T11:27:24.87Z</time></trkpt><trkpt lat="42.650745" lon="-7.357365"><ele>643.0</ele><time>2026-04-15T11:27:25.87Z</time></trkpt><trkpt lat="42.6508483" lon="-7.3573517"><ele>643.0</ele><time>2026-04-15T11:27:26.869Z</time></trkpt><trkpt lat="42.6509517" lon="-7.3573383"><ele>643.0</ele><time>2026-04-15T11:27:27.869Z</time></trkpt><trkpt lat="42.6510483" lon="-7.3573183"><ele>643.0</ele><time>2026-04-15T11:27:28.869Z</time></trkpt><trkpt lat="42.6511433" lon="-7.3573267"><ele>643.0</ele><time>2026-04-15T11:27:29.869Z</time></trkpt><trkpt lat="42.6512317" lon="-7.35736"><ele>643.0</ele><time>2026-04-15T11:27:30.87Z</time></trkpt><trkpt lat="42.6513067" lon="-7.3573983"><ele>646.5999999999999</ele><time>2026-04-15T11:27:31.87Z</time></trkpt><trkpt lat="42.6513767" lon="-7.3574517"><ele>650.1999999999999</ele><time>2026-04-15T11:27:32.869Z</time></trkpt><trkpt lat="42.6514533" lon="-7.35753"><ele>653.8</ele><time>2026-04-15T11:27:33.869Z</time></trkpt><trkpt lat="42.6515333" lon="-7.3576383"><ele>657.4</ele><time>2026-04-15T11:27:34.87Z</time></trkpt><trkpt lat="42.65163" lon="-7.3577633"><ele>661.0</ele><time>2026-04-15T11:27:35.869Z</time></trkpt><trkpt lat="42.6517233" lon="-7.3578833"><ele>661.0</ele><time>2026-04-15T11:27:36.869Z</time></trkpt><trkpt lat="42.651805" lon="-7.3580167"><ele>661.0</ele><time>2026-04-15T11:27:37.869Z</time></trkpt><trkpt lat="42.6518867" lon="-7.358155"><ele>661.0</ele><time>2026-04-15T11:27:38.869Z</time></trkpt><trkpt lat="42.6519717" lon="-7.358275"><ele>661.0</ele><time>2026-04-15T11:27:39.87Z</time></trkpt><trkpt lat="42.6520567" lon="-7.3583933"><ele>662.75</ele><time>2026-04-15T11:27:40.869Z</time></trkpt><trkpt lat="42.6521417" lon="-7.358515"><ele>664.5</ele><time>2026-04-15T11:27:41.87Z</time></trkpt><trkpt lat="42.6522267" lon="-7.358635"><ele>666.25</ele><time>2026-04-15T11:27:42.869Z</time></trkpt><trkpt lat="42.6523133" lon="-7.358755"><ele>668.0</ele><time>2026-04-15T11:27:43.869Z</time></trkpt><trkpt lat="42.6524017" lon="-7.3588783"><ele>668.0</ele><time>2026-04-15T11:27:44.87Z</time></trkpt><trkpt lat="42.6524867" lon="-7.3589883"><ele>668.0</ele><time>2026-04-15T11:27:45.869Z</time></trkpt><trkpt lat="42.6525717" lon="-7.3591067"><ele>668.0</ele><time>2026-04-15T11:27:46.87Z</time></trkpt><trkpt lat="42.6526533" lon="-7.359215"><ele>668.0</ele><time>2026-04-15T11:27:47.87Z</time></trkpt><trkpt lat="42.6527483" lon="-7.359305"><ele>673.25</ele><time>2026-04-15T11:27:48.869Z</time></trkpt><trkpt lat="42.65285" lon="-7.35938"><ele>678.5</ele><time>2026-04-15T11:27:49.869Z</time></trkpt><trkpt lat="42.6529667" lon="-7.35944"><ele>683.75</ele><time>2026-04-15T11:27:50.87Z</time></trkpt><trkpt lat="42.6530667" lon="-7.3594633"><ele>689.0</ele><time>2026-04-15T11:27:51.87Z</time></trkpt><trkpt lat="42.6531817" lon="-7.3595333"><ele>689.0</ele><time>2026-04-15T11:27:52.869Z</time></trkpt><trkpt lat="42.6532683" lon="-7.3596067"><ele>689.0</ele><time>2026-04-15T11:27:53.869Z</time></trkpt><trkpt lat="42.6533367" lon="-7.3597017"><ele>689.0</ele><time>2026-04-15T11:27:54.869Z</time></trkpt><trkpt lat="42.653395" lon="-7.3597967"><ele>689.0</ele><time>2026-04-15T11:27:55.87Z</time></trkpt><trkpt lat="42.6534583" lon="-7.3598917"><ele>689.0</ele><time>2026-04-15T11:27:56.87Z</time></trkpt><trkpt lat="42.6535467" lon="-7.359975"><ele>691.5</ele><time>2026-04-15T11:27:57.869Z</time></trkpt><trkpt lat="42.6536417" lon="-7.360065"><ele>694.0</ele><time>2026-04-15T11:27:58.869Z</time></trkpt><trkpt lat="42.6537333" lon="-7.360175"><ele>696.5</ele><time>2026-04-15T11:27:59.87Z</time></trkpt><trkpt lat="42.6538033" lon="-7.360305"><ele>699.0</ele><time>2026-04-15T11:28:00.869Z</time></trkpt><trkpt lat="42.6538667" lon="-7.3604467"><ele>699.25</ele><time>2026-04-15T11:28:01.87Z</time></trkpt><trkpt lat="42.653925" lon="-7.360575"><ele>699.5</ele><time>2026-04-15T11:28:02.869Z</time></trkpt><trkpt lat="42.6539983" lon="-7.36071"><ele>699.75</ele><time>2026-04-15T11:28:03.87Z</time></trkpt><trkpt lat="42.6540767" lon="-7.3608283"><ele>700.0</ele><time>2026-04-15T11:28:04.87Z</time></trkpt><trkpt lat="42.6541617" lon="-7.3609367"><ele>700.0</ele><time>2026-04-15T11:28:05.87Z</time></trkpt><trkpt lat="42.6542617" lon="-7.3610067"><ele>700.0</ele><time>2026-04-15T11:28:06.869Z</time></trkpt><trkpt lat="42.6543717" lon="-7.361035"><ele>700.0</ele><time>2026-04-15T11:28:07.869Z</time></trkpt><trkpt lat="42.6544667" lon="-7.3610267"><ele>700.0</ele><time>2026-04-15T11:28:08.869Z</time></trkpt><trkpt lat="42.6545517" lon="-7.3609767"><ele>700.0</ele><time>2026-04-15T11:28:09.87Z</time></trkpt><trkpt lat="42.6546233" lon="-7.3608983"><ele>703.0</ele><time>2026-04-15T11:28:10.87Z</time></trkpt><trkpt lat="42.6546833" lon="-7.3608083"><ele>706.0</ele><time>2026-04-15T11:28:11.869Z</time></trkpt><trkpt lat="42.6547267" lon="-7.3607133"><ele>709.0</ele><time>2026-04-15T11:28:12.87Z</time></trkpt><trkpt lat="42.654755" lon="-7.3605967"><ele>712.0</ele><time>2026-04-15T11:28:13.87Z</time></trkpt><trkpt lat="42.6547733" lon="-7.3604817"><ele>715.0</ele><time>2026-04-15T11:28:14.869Z</time></trkpt><trkpt lat="42.654805" lon="-7.3603917"><ele>718.0</ele><time>2026-04-15T11:28:15.869Z</time></trkpt><trkpt lat="42.65488" lon="-7.3602967"><ele>718.0</ele><time>2026-04-15T11:28:17.87Z</time></trkpt><trkpt lat="42.654975" lon="-7.360285"><ele>718.0</ele><time>2026-04-15T11:28:19.87Z</time></trkpt><trkpt lat="42.6550467" lon="-7.3603167"><ele>718.0</ele><time>2026-04-15T11:28:20.869Z</time></trkpt><trkpt lat="42.65515" lon="-7.3603933"><ele>718.0</ele><time>2026-04-15T11:28:21.869Z</time></trkpt><trkpt lat="42.65526" lon="-7.360465"><ele>718.0</ele><time>2026-04-15T11:28:22.87Z</time></trkpt><trkpt lat="42.6553767" lon="-7.360525"><ele>720.8</ele><time>2026-04-15T11:28:23.869Z</time></trkpt><trkpt lat="42.6554867" lon="-7.360575"><ele>723.5999999999999</ele><time>2026-04-15T11:28:24.869Z</time></trkpt><trkpt lat="42.6555867" lon="-7.3606017"><ele>726.4000000000001</ele><time>2026-04-15T11:28:25.87Z</time></trkpt><trkpt lat="42.6556733" lon="-7.3605967"><ele>729.2</ele><time>2026-04-15T11:28:26.87Z</time></trkpt><trkpt lat="42.655775" lon="-7.360575"><ele>732.0</ele><time>2026-04-15T11:28:27.869Z</time></trkpt><trkpt lat="42.655865" lon="-7.36054"><ele>732.2</ele><time>2026-04-15T11:28:28.869Z</time></trkpt><trkpt lat="42.6559383" lon="-7.3604967"><ele>732.4000000000001</ele><time>2026-04-15T11:28:29.87Z</time></trkpt><trkpt lat="42.6560283" lon="-7.3604683"><ele>732.5999999999999</ele><time>2026-04-15T11:28:31.869Z</time></trkpt><trkpt lat="42.6561267" lon="-7.3605267"><ele>732.8</ele><time>2026-04-15T11:28:33.869Z</time></trkpt><trkpt lat="42.6561933" lon="-7.36061"><ele>733.0</ele><time>2026-04-15T11:28:34.87Z</time></trkpt><trkpt lat="42.6562633" lon="-7.3607217"><ele>736.5</ele><time>2026-04-15T11:28:35.87Z</time></trkpt><trkpt lat="42.6563283" lon="-7.3608467"><ele>740.0</ele><time>2026-04-15T11:28:36.869Z</time></trkpt><trkpt lat="42.6563683" lon="-7.3609917"><ele>743.5</ele><time>2026-04-15T11:28:37.869Z</time></trkpt><trkpt lat="42.6563717" lon="-7.3611433"><ele>747.0</ele><time>2026-04-15T11:28:38.869Z</time></trkpt><trkpt lat="42.6563433" lon="-7.3612983"><ele>746.75</ele><time>2026-04-15T11:28:39.869Z</time></trkpt><trkpt lat="42.656295" lon="-7.3614383"><ele>746.5</ele><time>2026-04-15T11:28:40.87Z</time></trkpt><trkpt lat="42.6562417" lon="-7.3615817"><ele>746.25</ele><time>2026-04-15T11:28:41.87Z</time></trkpt><trkpt lat="42.656205" lon="-7.3617317"><ele>746.0</ele><time>2026-04-15T11:28:42.869Z</time></trkpt><trkpt lat="42.6561883" lon="-7.3618733"><ele>746.0</ele><time>2026-04-15T11:28:43.87Z</time></trkpt><trkpt lat="42.6562033" lon="-7.362005"><ele>746.0</ele><time>2026-04-15T11:28:44.87Z</time></trkpt><trkpt lat="42.6562267" lon="-7.36211"><ele>746.0</ele><time>2026-04-15T11:28:45.87Z</time></trkpt><trkpt lat="42.6562417" lon="-7.3622083"><ele>746.0</ele><time>2026-04-15T11:28:46.87Z</time></trkpt><trkpt lat="42.6562533" lon="-7.3623067"><ele>746.0</ele><time>2026-04-15T11:28:47.869Z</time></trkpt><trkpt lat="42.6562783" lon="-7.3624"><ele>746.0</ele><time>2026-04-15T11:28:48.869Z</time></trkpt><trkpt lat="42.6563067" lon="-7.362505"><ele>745.6666666666666</ele><time>2026-04-15T11:28:49.869Z</time></trkpt><trkpt lat="42.6563417" lon="-7.362595"><ele>745.3333333333333</ele><time>2026-04-15T11:28:50.87Z</time></trkpt><trkpt lat="42.6563867" lon="-7.3626683"><ele>745.0</ele><time>2026-04-15T11:28:51.869Z</time></trkpt><trkpt lat="42.6564417" lon="-7.362745"><ele>744.6666666666666</ele><time>2026-04-15T11:28:52.869Z</time></trkpt><trkpt lat="42.6565133" lon="-7.3628267"><ele>744.3333333333334</ele><time>2026-04-15T11:28:53.869Z</time></trkpt><trkpt lat="42.65658" lon="-7.3628967"><ele>744.0</ele><time>2026-04-15T11:28:54.87Z</time></trkpt><trkpt lat="42.6566383" lon="-7.3629933"><ele>744.0</ele><time>2026-04-15T11:28:55.869Z</time></trkpt><trkpt lat="42.6566633" lon="-7.363085"><ele>744.0</ele><time>2026-04-15T11:28:56.87Z</time></trkpt><trkpt lat="42.6566583" lon="-7.363195"><ele>744.0</ele><time>2026-04-15T11:28:57.87Z</time></trkpt><trkpt lat="42.65663" lon="-7.3633183"><ele>744.0</ele><time>2026-04-15T11:28:58.87Z</time></trkpt><trkpt lat="42.65657" lon="-7.363435"><ele>744.0</ele><time>2026-04-15T11:28:59.87Z</time></trkpt><trkpt lat="42.65649" lon="-7.3635567"><ele>744.0</ele><time>2026-04-15T11:29:00.87Z</time></trkpt><trkpt lat="42.6564133" lon="-7.36368"><ele>744.0</ele><time>2026-04-15T11:29:01.869Z</time></trkpt><trkpt lat="42.6563367" lon="-7.3638033"><ele>744.0</ele><time>2026-04-15T11:29:02.87Z</time></trkpt><trkpt lat="42.6562533" lon="-7.36393"><ele>744.0</ele><time>2026-04-15T11:29:03.869Z</time></trkpt><trkpt lat="42.6561683" lon="-7.3640633"><ele>743.75</ele><time>2026-04-15T11:29:04.87Z</time></trkpt><trkpt lat="42.6560917" lon="-7.364215"><ele>743.5</ele><time>2026-04-15T11:29:05.87Z</time></trkpt><trkpt lat="42.6560133" lon="-7.3643667"><ele>743.25</ele><time>2026-04-15T11:29:06.87Z</time></trkpt><trkpt lat="42.6559367" lon="-7.3645133"><ele>743.0</ele><time>2026-04-15T11:29:07.87Z</time></trkpt><trkpt lat="42.6558683" lon="-7.3646817"><ele>742.25</ele><time>2026-04-15T11:29:08.87Z</time></trkpt><trkpt lat="42.6557933" lon="-7.3648583"><ele>741.5</ele><time>2026-04-15T11:29:09.869Z</time></trkpt><trkpt lat="42.6557167" lon="-7.3650317"><ele>740.75</ele><time>2026-04-15T11:29:10.87Z</time></trkpt><trkpt lat="42.6556467" lon="-7.3652"><ele>740.0</ele><time>2026-04-15T11:29:11.869Z</time></trkpt><trkpt lat="42.655575" lon="-7.365365"><ele>740.0</ele><time>2026-04-15T11:29:12.869Z</time></trkpt><trkpt lat="42.6554767" lon="-7.3654933"><ele>740.0</ele><time>2026-04-15T11:29:13.869Z</time></trkpt><trkpt lat="42.6553817" lon="-7.3656267"><ele>740.0</ele><time>2026-04-15T11:29:14.869Z</time></trkpt><trkpt lat="42.6552883" lon="-7.36575"><ele>740.0</ele><time>2026-04-15T11:29:15.869Z</time></trkpt><trkpt lat="42.65519" lon="-7.3658683"><ele>738.0</ele><time>2026-04-15T11:29:16.869Z</time></trkpt><trkpt lat="42.6550933" lon="-7.365995"><ele>736.0</ele><time>2026-04-15T11:29:17.87Z</time></trkpt><trkpt lat="42.6549983" lon="-7.3661333"><ele>734.0</ele><time>2026-04-15T11:29:18.87Z</time></trkpt><trkpt lat="42.65492" lon="-7.3662917"><ele>732.0</ele><time>2026-04-15T11:29:19.869Z</time></trkpt><trkpt lat="42.654865" lon="-7.3664667"><ele>731.0</ele><time>2026-04-15T11:29:20.869Z</time></trkpt><trkpt lat="42.6548333" lon="-7.3666517"><ele>730.0</ele><time>2026-04-15T11:29:21.869Z</time></trkpt><trkpt lat="42.65482" lon="-7.3668417"><ele>729.0</ele><time>2026-04-15T11:29:22.869Z</time></trkpt><trkpt lat="42.65484" lon="-7.367025"><ele>728.0</ele><time>2026-04-15T11:29:23.87Z</time></trkpt><trkpt lat="42.6548767" lon="-7.3672183"><ele>728.0</ele><time>2026-04-15T11:29:24.87Z</time></trkpt><trkpt lat="42.6549367" lon="-7.36739"><ele>728.0</ele><time>2026-04-15T11:29:25.87Z</time></trkpt><trkpt lat="42.655015" lon="-7.3675467"><ele>728.0</ele><time>2026-04-15T11:29:26.869Z</time></trkpt><trkpt lat="42.655095" lon="-7.3677017"><ele>728.0</ele><time>2026-04-15T11:29:27.869Z</time></trkpt><trkpt lat="42.6551833" lon="-7.3678517"><ele>728.0</ele><time>2026-04-15T11:29:28.87Z</time></trkpt><trkpt lat="42.6552767" lon="-7.3679983"><ele>728.0</ele><time>2026-04-15T11:29:29.869Z</time></trkpt><trkpt lat="42.6553717" lon="-7.3681467"><ele>728.0</ele><time>2026-04-15T11:29:30.87Z</time></trkpt><trkpt lat="42.6554633" lon="-7.3683017"><ele>728.0</ele><time>2026-04-15T11:29:31.87Z</time></trkpt><trkpt lat="42.6555567" lon="-7.3684717"><ele>728.3333333333333</ele><time>2026-04-15T11:29:32.87Z</time></trkpt><trkpt lat="42.6556417" lon="-7.3686467"><ele>728.6666666666666</ele><time>2026-04-15T11:29:33.87Z</time></trkpt><trkpt lat="42.6557117" lon="-7.3688283"><ele>729.0</ele><time>2026-04-15T11:29:34.869Z</time></trkpt><trkpt lat="42.6557767" lon="-7.36901"><ele>729.0</ele><time>2026-04-15T11:29:35.869Z</time></trkpt><trkpt lat="42.6558417" lon="-7.369205"><ele>729.0</ele><time>2026-04-15T11:29:36.869Z</time></trkpt><trkpt lat="42.65589" lon="-7.3694017"><ele>729.0</ele><time>2026-04-15T11:29:37.87Z</time></trkpt><trkpt lat="42.6559383" lon="-7.3696033"><ele>728.75</ele><time>2026-04-15T11:29:38.869Z</time></trkpt><trkpt lat="42.65598" lon="-7.3697917"><ele>728.5</ele><time>2026-04-15T11:29:39.869Z</time></trkpt><trkpt lat="42.6560233" lon="-7.36998"><ele>728.25</ele><time>2026-04-15T11:29:40.87Z</time></trkpt><trkpt lat="42.65607" lon="-7.370155"><ele>728.0</ele><time>2026-04-15T11:29:41.87Z</time></trkpt><trkpt lat="42.6561067" lon="-7.37033"><ele>724.75</ele><time>2026-04-15T11:29:42.869Z</time></trkpt><trkpt lat="42.6561417" lon="-7.3705033"><ele>721.5</ele><time>2026-04-15T11:29:43.869Z</time></trkpt><trkpt lat="42.6561567" lon="-7.3706633"><ele>718.25</ele><time>2026-04-15T11:29:44.87Z</time></trkpt><trkpt lat="42.65617" lon="-7.37082"><ele>715.0</ele><time>2026-04-15T11:29:45.869Z</time></trkpt><trkpt lat="42.6561717" lon="-7.37098"><ele>715.0</ele><time>2026-04-15T11:29:46.87Z</time></trkpt><trkpt lat="42.6561667" lon="-7.3711467"><ele>715.0</ele><time>2026-04-15T11:29:47.87Z</time></trkpt><trkpt lat="42.6561483" lon="-7.3713283"><ele>715.0</ele><time>2026-04-15T11:29:48.87Z</time></trkpt><trkpt lat="42.6561133" lon="-7.3715033"><ele>715.0</ele><time>2026-04-15T11:29:49.869Z</time></trkpt><trkpt lat="42.656055" lon="-7.37168"><ele>714.0</ele><time>2026-04-15T11:29:50.869Z</time></trkpt><trkpt lat="42.6559767" lon="-7.37186"><ele>713.0</ele><time>2026-04-15T11:29:51.869Z</time></trkpt><trkpt lat="42.6558883" lon="-7.3720317"><ele>712.0</ele><time>2026-04-15T11:29:52.869Z</time></trkpt><trkpt lat="42.6557933" lon="-7.3722133"><ele>712.0</ele><time>2026-04-15T11:29:53.869Z</time></trkpt><trkpt lat="42.6556967" lon="-7.3723733"><ele>712.0</ele><time>2026-04-15T11:29:54.869Z</time></trkpt><trkpt lat="42.6556133" lon="-7.3725417"><ele>712.0</ele><time>2026-04-15T11:29:55.869Z</time></trkpt><trkpt lat="42.6555417" lon="-7.372705"><ele>712.0</ele><time>2026-04-15T11:29:56.87Z</time></trkpt><trkpt lat="42.6554767" lon="-7.3728633"><ele>712.0</ele><time>2026-04-15T11:29:57.869Z</time></trkpt><trkpt lat="42.6554267" lon="-7.37302"><ele>712.0</ele><time>2026-04-15T11:29:58.87Z</time></trkpt><trkpt lat="42.655385" lon="-7.37318"><ele>712.0</ele><time>2026-04-15T11:29:59.869Z</time></trkpt><trkpt lat="42.6553517" lon="-7.373345"><ele>712.0</ele><time>2026-04-15T11:30:00.869Z</time></trkpt><trkpt lat="42.655345" lon="-7.3735267"><ele>709.0</ele><time>2026-04-15T11:30:01.87Z</time></trkpt><trkpt lat="42.6553617" lon="-7.373725"><ele>706.0</ele><time>2026-04-15T11:30:02.869Z</time></trkpt><trkpt lat="42.6554" lon="-7.3739267"><ele>703.0</ele><time>2026-04-15T11:30:03.87Z</time></trkpt><trkpt lat="42.6554667" lon="-7.37413"><ele>703.0</ele><time>2026-04-15T11:30:04.87Z</time></trkpt><trkpt lat="42.65556" lon="-7.37431"><ele>703.0</ele><time>2026-04-15T11:30:05.87Z</time></trkpt><trkpt lat="42.655665" lon="-7.37448"><ele>703.0</ele><time>2026-04-15T11:30:06.869Z</time></trkpt><trkpt lat="42.6557933" lon="-7.3746433"><ele>704.3333333333334</ele><time>2026-04-15T11:30:07.87Z</time></trkpt><trkpt lat="42.6559133" lon="-7.3748133"><ele>705.6666666666666</ele><time>2026-04-15T11:30:08.869Z</time></trkpt><trkpt lat="42.6560233" lon="-7.374995"><ele>707.0</ele><time>2026-04-15T11:30:09.869Z</time></trkpt><trkpt lat="42.6561383" lon="-7.3751917"><ele>701.6666666666666</ele><time>2026-04-15T11:30:10.87Z</time></trkpt><trkpt lat="42.6562367" lon="-7.3753867"><ele>696.3333333333334</ele><time>2026-04-15T11:30:11.869Z</time></trkpt><trkpt lat="42.6563267" lon="-7.3755817"><ele>691.0</ele><time>2026-04-15T11:30:12.87Z</time></trkpt><trkpt lat="42.6564117" lon="-7.375775"><ele>691.0</ele><time>2026-04-15T11:30:13.87Z</time></trkpt><trkpt lat="42.6565" lon="-7.3759633"><ele>691.0</ele><time>2026-04-15T11:30:14.869Z</time></trkpt><trkpt lat="42.65659" lon="-7.3761633"><ele>691.0</ele><time>2026-04-15T11:30:15.869Z</time></trkpt><trkpt lat="42.6566683" lon="-7.3763567"><ele>692.0</ele><time>2026-04-15T11:30:16.87Z</time></trkpt><trkpt lat="42.6567383" lon="-7.376555"><ele>693.0</ele><time>2026-04-15T11:30:17.87Z</time></trkpt><trkpt lat="42.6567833" lon="-7.3767583"><ele>694.0</ele><time>2026-04-15T11:30:18.87Z</time></trkpt><trkpt lat="42.6567983" lon="-7.3769467"><ele>694.0</ele><time>2026-04-15T11:30:19.87Z</time></trkpt><trkpt lat="42.6567983" lon="-7.37716"><ele>694.0</ele><time>2026-04-15T11:30:20.87Z</time></trkpt><trkpt lat="42.6567667" lon="-7.37735"><ele>694.0</ele><time>2026-04-15T11:30:21.869Z</time></trkpt><trkpt lat="42.6567067" lon="-7.3775433"><ele>693.3333333333334</ele><time>2026-04-15T11:30:22.87Z</time></trkpt><trkpt lat="42.6566267" lon="-7.3777283"><ele>692.6666666666666</ele><time>2026-04-15T11:30:23.87Z</time></trkpt><trkpt lat="42.6565367" lon="-7.3779067"><ele>692.0</ele><time>2026-04-15T11:30:24.87Z</time></trkpt><trkpt lat="42.656445" lon="-7.3780833"><ele>691.5</ele><time>2026-04-15T11:30:25.87Z</time></trkpt><trkpt lat="42.656345" lon="-7.37824"><ele>691.0</ele><time>2026-04-15T11:30:26.87Z</time></trkpt><trkpt lat="42.656235" lon="-7.37837"><ele>690.5</ele><time>2026-04-15T11:30:27.87Z</time></trkpt><trkpt lat="42.6561117" lon="-7.3784783"><ele>690.0</ele><time>2026-04-15T11:30:28.87Z</time></trkpt><trkpt lat="42.6559767" lon="-7.3785567"><ele>690.0</ele><time>2026-04-15T11:30:29.869Z</time></trkpt><trkpt lat="42.6558217" lon="-7.3785917"><ele>690.0</ele><time>2026-04-15T11:30:30.87Z</time></trkpt><trkpt lat="42.6556717" lon="-7.3786067"><ele>690.0</ele><time>2026-04-15T11:30:31.87Z</time></trkpt><trkpt lat="42.6555367" lon="-7.3786367"><ele>690.0</ele><time>2026-04-15T11:30:32.869Z</time></trkpt><trkpt lat="42.6554183" lon="-7.3786767"><ele>690.0</ele><time>2026-04-15T11:30:33.869Z</time></trkpt><trkpt lat="42.6553" lon="-7.3787267"><ele>690.0</ele><time>2026-04-15T11:30:34.87Z</time></trkpt><trkpt lat="42.6551683" lon="-7.378775"><ele>690.0</ele><time>2026-04-15T11:30:35.87Z</time></trkpt><trkpt lat="42.6550233" lon="-7.3788183"><ele>690.0</ele><time>2026-04-15T11:30:36.87Z</time></trkpt><trkpt lat="42.6548767" lon="-7.378865"><ele>689.4</ele><time>2026-04-15T11:30:37.869Z</time></trkpt><trkpt lat="42.6547367" lon="-7.3789083"><ele>688.8</ele><time>2026-04-15T11:30:38.869Z</time></trkpt><trkpt lat="42.65462" lon="-7.3789483"><ele>688.2</ele><time>2026-04-15T11:30:39.869Z</time></trkpt><trkpt lat="42.6545333" lon="-7.3789867"><ele>687.6</ele><time>2026-04-15T11:30:40.869Z</time></trkpt><trkpt lat="42.654475" lon="-7.3790533"><ele>687.0</ele><time>2026-04-15T11:30:41.87Z</time></trkpt><trkpt lat="42.6544267" lon="-7.3791583"><ele>687.0</ele><time>2026-04-15T11:30:42.869Z</time></trkpt><trkpt lat="42.654405" lon="-7.3793017"><ele>687.0</ele><time>2026-04-15T11:30:43.869Z</time></trkpt><trkpt lat="42.6544117" lon="-7.3794733"><ele>687.0</ele><time>2026-04-15T11:30:44.869Z</time></trkpt><trkpt lat="42.6544217" lon="-7.37965"><ele>687.0</ele><time>2026-04-15T11:30:45.87Z</time></trkpt><trkpt lat="42.6544617" lon="-7.37984"><ele>682.0</ele><time>2026-04-15T11:30:46.869Z</time></trkpt><trkpt lat="42.6545233" lon="-7.3800233"><ele>677.0</ele><time>2026-04-15T11:30:47.87Z</time></trkpt><trkpt lat="42.6546133" lon="-7.3802133"><ele>672.0</ele><time>2026-04-15T11:30:48.87Z</time></trkpt><trkpt lat="42.65471" lon="-7.38039"><ele>672.6666666666666</ele><time>2026-04-15T11:30:49.87Z</time></trkpt><trkpt lat="42.6548" lon="-7.380575"><ele>673.3333333333333</ele><time>2026-04-15T11:30:50.869Z</time></trkpt><trkpt lat="42.6548667" lon="-7.3807633"><ele>674.0</ele><time>2026-04-15T11:30:51.869Z</time></trkpt><trkpt lat="42.654925" lon="-7.3809733"><ele>674.0</ele><time>2026-04-15T11:30:52.87Z</time></trkpt><trkpt lat="42.6549533" lon="-7.3811867"><ele>674.0</ele><time>2026-04-15T11:30:53.87Z</time></trkpt><trkpt lat="42.65496" lon="-7.3814133"><ele>674.0</ele><time>2026-04-15T11:30:54.869Z</time></trkpt><trkpt lat="42.6549233" lon="-7.3816283"><ele>672.3333333333333</ele><time>2026-04-15T11:30:55.87Z</time></trkpt><trkpt lat="42.6548883" lon="-7.3818583"><ele>670.6666666666666</ele><time>2026-04-15T11:30:56.869Z</time></trkpt><trkpt lat="42.6548467" lon="-7.3820833"><ele>669.0</ele><time>2026-04-15T11:30:57.869Z</time></trkpt><trkpt lat="42.65481" lon="-7.3823167"><ele>666.6666666666666</ele><time>2026-04-15T11:30:58.869Z</time></trkpt><trkpt lat="42.6547683" lon="-7.3825467"><ele>664.3333333333333</ele><time>2026-04-15T11:30:59.87Z</time></trkpt><trkpt lat="42.6547283" lon="-7.3827733"><ele>662.0</ele><time>2026-04-15T11:31:00.869Z</time></trkpt><trkpt lat="42.654695" lon="-7.3830017"><ele>661.0</ele><time>2026-04-15T11:31:01.87Z</time></trkpt><trkpt lat="42.6546583" lon="-7.383225"><ele>660.0</ele><time>2026-04-15T11:31:02.869Z</time></trkpt><trkpt lat="42.654625" lon="-7.3834483"><ele>659.0</ele><time>2026-04-15T11:31:03.869Z</time></trkpt><trkpt lat="42.65459" lon="-7.3836783"><ele>657.6666666666666</ele><time>2026-04-15T11:31:04.87Z</time></trkpt><trkpt lat="42.6545583" lon="-7.383895"><ele>656.3333333333334</ele><time>2026-04-15T11:31:05.869Z</time></trkpt><trkpt lat="42.6545367" lon="-7.3841167"><ele>655.0</ele><time>2026-04-15T11:31:06.869Z</time></trkpt><trkpt lat="42.6545167" lon="-7.38433"><ele>655.0</ele><time>2026-04-15T11:31:07.87Z</time></trkpt><trkpt lat="42.6545267" lon="-7.3845283"><ele>655.0</ele><time>2026-04-15T11:31:08.869Z</time></trkpt><trkpt lat="42.6545683" lon="-7.3847267"><ele>655.0</ele><time>2026-04-15T11:31:09.869Z</time></trkpt><trkpt lat="42.6546383" lon="-7.3849067"><ele>655.0</ele><time>2026-04-15T11:31:10.87Z</time></trkpt><trkpt lat="42.6547267" lon="-7.385095"><ele>654.6666666666667</ele><time>2026-04-15T11:31:11.869Z</time></trkpt><trkpt lat="42.6548133" lon="-7.3852667"><ele>654.3333333333334</ele><time>2026-04-15T11:31:12.87Z</time></trkpt><trkpt lat="42.6549" lon="-7.3854483"><ele>654.0</ele><time>2026-04-15T11:31:13.869Z</time></trkpt><trkpt lat="42.65496" lon="-7.3856333"><ele>653.75</ele><time>2026-04-15T11:31:14.869Z</time></trkpt><trkpt lat="42.6549933" lon="-7.385835"><ele>653.5</ele><time>2026-04-15T11:31:15.87Z</time></trkpt><trkpt lat="42.65499" lon="-7.3860283"><ele>653.25</ele><time>2026-04-15T11:31:16.87Z</time></trkpt><trkpt lat="42.6549567" lon="-7.3862217"><ele>653.0</ele><time>2026-04-15T11:31:17.87Z</time></trkpt><trkpt lat="42.6549017" lon="-7.3864167"><ele>651.0</ele><time>2026-04-15T11:31:18.869Z</time></trkpt><trkpt lat="42.6548267" lon="-7.386585"><ele>649.0</ele><time>2026-04-15T11:31:19.869Z</time></trkpt><trkpt lat="42.654725" lon="-7.386735"><ele>647.0</ele><time>2026-04-15T11:31:20.869Z</time></trkpt><trkpt lat="42.65461" lon="-7.3868817"><ele>647.0</ele><time>2026-04-15T11:31:21.869Z</time></trkpt><trkpt lat="42.6544767" lon="-7.3870067"><ele>647.0</ele><time>2026-04-15T11:31:22.87Z</time></trkpt><trkpt lat="42.654345" lon="-7.3871417"><ele>647.0</ele><time>2026-04-15T11:31:23.87Z</time></trkpt><trkpt lat="42.6542083" lon="-7.3872817"><ele>644.3333333333333</ele><time>2026-04-15T11:31:24.87Z</time></trkpt><trkpt lat="42.6540667" lon="-7.38742"><ele>641.6666666666666</ele><time>2026-04-15T11:31:25.869Z</time></trkpt><trkpt lat="42.6539283" lon="-7.387565"><ele>639.0</ele><time>2026-04-15T11:31:26.869Z</time></trkpt><trkpt lat="42.65379" lon="-7.38771"><ele>639.0</ele><time>2026-04-15T11:31:27.869Z</time></trkpt><trkpt lat="42.6536517" lon="-7.3878433"><ele>639.0</ele><time>2026-04-15T11:31:28.869Z</time></trkpt><trkpt lat="42.6535217" lon="-7.3879817"><ele>639.0</ele><time>2026-04-15T11:31:29.87Z</time></trkpt><trkpt lat="42.6533917" lon="-7.38811"><ele>635.6666666666666</ele><time>2026-04-15T11:31:30.87Z</time></trkpt><trkpt lat="42.6532483" lon="-7.38821"><ele>632.3333333333333</ele><time>2026-04-15T11:31:31.87Z</time></trkpt><trkpt lat="42.653095" lon="-7.3882833"><ele>629.0</ele><time>2026-04-15T11:31:32.869Z</time></trkpt><trkpt lat="42.65294" lon="-7.388325"><ele>631.0</ele><time>2026-04-15T11:31:33.869Z</time></trkpt><trkpt lat="42.6527783" lon="-7.388355"><ele>633.0</ele><time>2026-04-15T11:31:34.869Z</time></trkpt><trkpt lat="42.6526167" lon="-7.388385"><ele>635.0</ele><time>2026-04-15T11:31:35.87Z</time></trkpt><trkpt lat="42.6524683" lon="-7.3884333"><ele>635.0</ele><time>2026-04-15T11:31:36.87Z</time></trkpt><trkpt lat="42.652325" lon="-7.3884967"><ele>635.0</ele><time>2026-04-15T11:31:37.869Z</time></trkpt><trkpt lat="42.652195" lon="-7.3885917"><ele>635.0</ele><time>2026-04-15T11:31:38.869Z</time></trkpt><trkpt lat="42.6520683" lon="-7.388725"><ele>635.3333333333333</ele><time>2026-04-15T11:31:39.869Z</time></trkpt><trkpt lat="42.6519583" lon="-7.38889"><ele>635.6666666666666</ele><time>2026-04-15T11:31:40.869Z</time></trkpt><trkpt lat="42.6518717" lon="-7.389075"><ele>636.0</ele><time>2026-04-15T11:31:41.869Z</time></trkpt><trkpt lat="42.6518133" lon="-7.389275"><ele>636.0</ele><time>2026-04-15T11:31:42.869Z</time></trkpt><trkpt lat="42.6517783" lon="-7.389495"><ele>636.0</ele><time>2026-04-15T11:31:43.87Z</time></trkpt><trkpt lat="42.65176" lon="-7.3897183"><ele>636.0</ele><time>2026-04-15T11:31:44.869Z</time></trkpt><trkpt lat="42.65177" lon="-7.389955"><ele>634.6666666666666</ele><time>2026-04-15T11:31:45.869Z</time></trkpt><trkpt lat="42.6517783" lon="-7.3902033"><ele>633.3333333333333</ele><time>2026-04-15T11:31:46.87Z</time></trkpt><trkpt lat="42.6517933" lon="-7.39044"><ele>632.0</ele><time>2026-04-15T11:31:47.87Z</time></trkpt><trkpt lat="42.6518183" lon="-7.39068"><ele>631.0</ele><time>2026-04-15T11:31:48.87Z</time></trkpt><trkpt lat="42.6518233" lon="-7.3909"><ele>630.0</ele><time>2026-04-15T11:31:49.87Z</time></trkpt><trkpt lat="42.6518233" lon="-7.3911183"><ele>629.0</ele><time>2026-04-15T11:31:50.87Z</time></trkpt><trkpt lat="42.6518233" lon="-7.3913233"><ele>626.0</ele><time>2026-04-15T11:31:51.869Z</time></trkpt><trkpt lat="42.6518033" lon="-7.3915233"><ele>623.0</ele><time>2026-04-15T11:31:52.869Z</time></trkpt><trkpt lat="42.6517617" lon="-7.3917217"><ele>620.0</ele><time>2026-04-15T11:31:53.869Z</time></trkpt><trkpt lat="42.651695" lon="-7.3919167"><ele>620.0</ele><time>2026-04-15T11:31:54.869Z</time></trkpt><trkpt lat="42.651605" lon="-7.3921033"><ele>620.0</ele><time>2026-04-15T11:31:55.87Z</time></trkpt><trkpt lat="42.6514883" lon="-7.392265"><ele>620.0</ele><time>2026-04-15T11:31:56.87Z</time></trkpt><trkpt lat="42.651355" lon="-7.3924017"><ele>614.3333333333333</ele><time>2026-04-15T11:31:57.87Z</time></trkpt><trkpt lat="42.65121" lon="-7.3925167"><ele>608.6666666666666</ele><time>2026-04-15T11:31:58.869Z</time></trkpt><trkpt lat="42.6510567" lon="-7.39262"><ele>603.0</ele><time>2026-04-15T11:31:59.87Z</time></trkpt><trkpt lat="42.650915" lon="-7.3927317"><ele>603.0</ele><time>2026-04-15T11:32:00.87Z</time></trkpt><trkpt lat="42.650785" lon="-7.3928483"><ele>603.0</ele><time>2026-04-15T11:32:01.869Z</time></trkpt><trkpt lat="42.6506683" lon="-7.3929983"><ele>603.0</ele><time>2026-04-15T11:32:02.869Z</time></trkpt><trkpt lat="42.6505733" lon="-7.3931717"><ele>598.6666666666666</ele><time>2026-04-15T11:32:03.869Z</time></trkpt><trkpt lat="42.6505017" lon="-7.393365"><ele>594.3333333333333</ele><time>2026-04-15T11:32:04.869Z</time></trkpt><trkpt lat="42.6504617" lon="-7.3935817"><ele>590.0</ele><time>2026-04-15T11:32:05.87Z</time></trkpt><trkpt lat="42.6504517" lon="-7.393815"><ele>588.6666666666666</ele><time>2026-04-15T11:32:06.869Z</time></trkpt><trkpt lat="42.650465" lon="-7.3940517"><ele>587.3333333333334</ele><time>2026-04-15T11:32:07.869Z</time></trkpt><trkpt lat="42.6505183" lon="-7.3942767"><ele>586.0</ele><time>2026-04-15T11:32:08.87Z</time></trkpt><trkpt lat="42.6505917" lon="-7.3944967"><ele>586.3333333333334</ele><time>2026-04-15T11:32:09.87Z</time></trkpt><trkpt lat="42.6506633" lon="-7.3947067"><ele>586.6666666666666</ele><time>2026-04-15T11:32:10.87Z</time></trkpt><trkpt lat="42.650725" lon="-7.3949233"><ele>587.0</ele><time>2026-04-15T11:32:11.869Z</time></trkpt><trkpt lat="42.6507833" lon="-7.395155"><ele>587.0</ele><time>2026-04-15T11:32:12.87Z</time></trkpt><trkpt lat="42.6508367" lon="-7.3953817"><ele>587.0</ele><time>2026-04-15T11:32:13.87Z</time></trkpt><trkpt lat="42.650875" lon="-7.3956117"><ele>587.0</ele><time>2026-04-15T11:32:14.87Z</time></trkpt><trkpt lat="42.6508933" lon="-7.3958517"><ele>586.0</ele><time>2026-04-15T11:32:15.87Z</time></trkpt><trkpt lat="42.6508933" lon="-7.396075"><ele>585.0</ele><time>2026-04-15T11:32:16.869Z</time></trkpt><trkpt lat="42.6508667" lon="-7.396295"><ele>584.0</ele><time>2026-04-15T11:32:17.869Z</time></trkpt><trkpt lat="42.6508183" lon="-7.39651"><ele>582.3333333333333</ele><time>2026-04-15T11:32:18.869Z</time></trkpt><trkpt lat="42.65075" lon="-7.3967167"><ele>580.6666666666666</ele><time>2026-04-15T11:32:19.869Z</time></trkpt><trkpt lat="42.6506783" lon="-7.3969083"><ele>579.0</ele><time>2026-04-15T11:32:20.869Z</time></trkpt><trkpt lat="42.6505767" lon="-7.397105"><ele>578.0</ele><time>2026-04-15T11:32:21.869Z</time></trkpt><trkpt lat="42.6504633" lon="-7.3972517"><ele>577.0</ele><time>2026-04-15T11:32:22.87Z</time></trkpt><trkpt lat="42.6503383" lon="-7.3973917"><ele>576.0</ele><time>2026-04-15T11:32:23.869Z</time></trkpt><trkpt lat="42.6502" lon="-7.3975167"><ele>576.0</ele><time>2026-04-15T11:32:24.869Z</time></trkpt><trkpt lat="42.6500567" lon="-7.39763"><ele>576.0</ele><time>2026-04-15T11:32:25.869Z</time></trkpt><trkpt lat="42.6499083" lon="-7.397735"><ele>576.0</ele><time>2026-04-15T11:32:26.869Z</time></trkpt><trkpt lat="42.6497617" lon="-7.3978417"><ele>576.0</ele><time>2026-04-15T11:32:27.87Z</time></trkpt><trkpt lat="42.64961" lon="-7.3979333"><ele>576.0</ele><time>2026-04-15T11:32:28.869Z</time></trkpt><trkpt lat="42.6494583" lon="-7.3980283"><ele>576.0</ele><time>2026-04-15T11:32:29.87Z</time></trkpt><trkpt lat="42.6493117" lon="-7.3981367"><ele>571.0</ele><time>2026-04-15T11:32:30.87Z</time></trkpt><trkpt lat="42.6491717" lon="-7.3982467"><ele>566.0</ele><time>2026-04-15T11:32:31.87Z</time></trkpt><trkpt lat="42.6490233" lon="-7.3983517"><ele>561.0</ele><time>2026-04-15T11:32:32.869Z</time></trkpt><trkpt lat="42.6488817" lon="-7.39847"><ele>561.0</ele><time>2026-04-15T11:32:33.869Z</time></trkpt><trkpt lat="42.6487467" lon="-7.3985917"><ele>561.0</ele><time>2026-04-15T11:32:34.87Z</time></trkpt><trkpt lat="42.6486217" lon="-7.3987433"><ele>561.0</ele><time>2026-04-15T11:32:35.869Z</time></trkpt><trkpt lat="42.6485183" lon="-7.3989233"><ele>560.0</ele><time>2026-04-15T11:32:36.869Z</time></trkpt><trkpt lat="42.648425" lon="-7.39912"><ele>559.0</ele><time>2026-04-15T11:32:37.869Z</time></trkpt><trkpt lat="42.648345" lon="-7.39932"><ele>558.0</ele><time>2026-04-15T11:32:38.869Z</time></trkpt><trkpt lat="42.6482833" lon="-7.3995283"><ele>554.0</ele><time>2026-04-15T11:32:39.869Z</time></trkpt><trkpt lat="42.6482517" lon="-7.39974"><ele>550.0</ele><time>2026-04-15T11:32:40.869Z</time></trkpt><trkpt lat="42.648235" lon="-7.39996"><ele>546.0</ele><time>2026-04-15T11:32:41.869Z</time></trkpt><trkpt lat="42.648235" lon="-7.40019"><ele>546.0</ele><time>2026-04-15T11:32:42.869Z</time></trkpt><trkpt lat="42.6482517" lon="-7.4004067"><ele>546.0</ele><time>2026-04-15T11:32:43.869Z</time></trkpt><trkpt lat="42.6482783" lon="-7.4006233"><ele>546.0</ele><time>2026-04-15T11:32:44.87Z</time></trkpt><trkpt lat="42.6483067" lon="-7.4008367"><ele>544.3333333333334</ele><time>2026-04-15T11:32:45.87Z</time></trkpt><trkpt lat="42.6483317" lon="-7.4010433"><ele>542.6666666666667</ele><time>2026-04-15T11:32:46.87Z</time></trkpt><trkpt lat="42.64836" lon="-7.40126"><ele>541.0</ele><time>2026-04-15T11:32:47.869Z</time></trkpt><trkpt lat="42.64839" lon="-7.40147"><ele>540.6666666666667</ele><time>2026-04-15T11:32:48.869Z</time></trkpt><trkpt lat="42.6484167" lon="-7.4016917"><ele>540.3333333333334</ele><time>2026-04-15T11:32:49.869Z</time></trkpt><trkpt lat="42.64844" lon="-7.4019033"><ele>540.0</ele><time>2026-04-15T11:32:50.87Z</time></trkpt><trkpt lat="42.64846" lon="-7.402135"><ele>538.3333333333334</ele><time>2026-04-15T11:32:51.869Z</time></trkpt><trkpt lat="42.648455" lon="-7.40237"><ele>536.6666666666667</ele><time>2026-04-15T11:32:52.869Z</time></trkpt><trkpt lat="42.6484283" lon="-7.4026"><ele>535.0</ele><time>2026-04-15T11:32:53.87Z</time></trkpt><trkpt lat="42.648365" lon="-7.4028067"><ele>532.6666666666667</ele><time>2026-04-15T11:32:54.87Z</time></trkpt><trkpt lat="42.6482867" lon="-7.4030033"><ele>530.3333333333334</ele><time>2026-04-15T11:32:55.87Z</time></trkpt><trkpt lat="42.6481967" lon="-7.4031883"><ele>528.0</ele><time>2026-04-15T11:32:56.87Z</time></trkpt><trkpt lat="42.648095" lon="-7.4033667"><ele>528.0</ele><time>2026-04-15T11:32:57.869Z</time></trkpt><trkpt lat="42.6479917" lon="-7.40354"><ele>528.0</ele><time>2026-04-15T11:32:58.869Z</time></trkpt><trkpt lat="42.6478917" lon="-7.4037317"><ele>528.0</ele><time>2026-04-15T11:32:59.869Z</time></trkpt><trkpt lat="42.6477867" lon="-7.40392"><ele>528.0</ele><time>2026-04-15T11:33:00.869Z</time></trkpt><trkpt lat="42.6476783" lon="-7.4041033"><ele>528.0</ele><time>2026-04-15T11:33:01.869Z</time></trkpt><trkpt lat="42.647575" lon="-7.4042983"><ele>528.0</ele><time>2026-04-15T11:33:02.87Z</time></trkpt><trkpt lat="42.64748" lon="-7.4045117"><ele>525.3333333333334</ele><time>2026-04-15T11:33:03.869Z</time></trkpt><trkpt lat="42.647415" lon="-7.4047333"><ele>522.6666666666667</ele><time>2026-04-15T11:33:04.869Z</time></trkpt><trkpt lat="42.6473767" lon="-7.4049683"><ele>520.0</ele><time>2026-04-15T11:33:05.87Z</time></trkpt><trkpt lat="42.6473617" lon="-7.40521"><ele>520.0</ele><time>2026-04-15T11:33:06.869Z</time></trkpt><trkpt lat="42.6473717" lon="-7.4054467"><ele>520.0</ele><time>2026-04-15T11:33:07.869Z</time></trkpt><trkpt lat="42.6473967" lon="-7.4056783"><ele>520.0</ele><time>2026-04-15T11:33:08.869Z</time></trkpt><trkpt lat="42.6474183" lon="-7.40592"><ele>518.0</ele><time>2026-04-15T11:33:09.869Z</time></trkpt><trkpt lat="42.6474317" lon="-7.4061633"><ele>516.0</ele><time>2026-04-15T11:33:10.87Z</time></trkpt><trkpt lat="42.6474283" lon="-7.4064117"><ele>514.0</ele><time>2026-04-15T11:33:11.869Z</time></trkpt><trkpt lat="42.6473933" lon="-7.4066417"><ele>514.0</ele><time>2026-04-15T11:33:12.87Z</time></trkpt><trkpt lat="42.647335" lon="-7.4068683"><ele>514.0</ele><time>2026-04-15T11:33:13.87Z</time></trkpt><trkpt lat="42.647245" lon="-7.407065"><ele>514.0</ele><time>2026-04-15T11:33:14.87Z</time></trkpt><trkpt lat="42.6471283" lon="-7.4072467"><ele>511.6666666666667</ele><time>2026-04-15T11:33:15.869Z</time></trkpt><trkpt lat="42.6469883" lon="-7.4074183"><ele>509.33333333333337</ele><time>2026-04-15T11:33:16.869Z</time></trkpt><trkpt lat="42.646835" lon="-7.4075767"><ele>507.0</ele><time>2026-04-15T11:33:17.869Z</time></trkpt><trkpt lat="42.6466783" lon="-7.4077383"><ele>507.0</ele><time>2026-04-15T11:33:18.869Z</time></trkpt><trkpt lat="42.6465133" lon="-7.407895"><ele>507.0</ele><time>2026-04-15T11:33:19.87Z</time></trkpt><trkpt lat="42.6463483" lon="-7.40806"><ele>507.0</ele><time>2026-04-15T11:33:20.869Z</time></trkpt><trkpt lat="42.6462033" lon="-7.4082267"><ele>504.33333333333337</ele><time>2026-04-15T11:33:21.869Z</time></trkpt><trkpt lat="42.646065" lon="-7.4083867"><ele>501.6666666666667</ele><time>2026-04-15T11:33:22.87Z</time></trkpt><trkpt lat="42.645935" lon="-7.408555"><ele>499.0</ele><time>2026-04-15T11:33:23.87Z</time></trkpt><trkpt lat="42.6458133" lon="-7.4087233"><ele>497.0</ele><time>2026-04-15T11:33:24.87Z</time></trkpt><trkpt lat="42.645695" lon="-7.40891"><ele>495.0</ele><time>2026-04-15T11:33:25.87Z</time></trkpt><trkpt lat="42.6455983" lon="-7.40912"><ele>493.0</ele><time>2026-04-15T11:33:26.869Z</time></trkpt><trkpt lat="42.6455183" lon="-7.4093317"><ele>493.0</ele><time>2026-04-15T11:33:27.869Z</time></trkpt><trkpt lat="42.645455" lon="-7.4095433"><ele>493.0</ele><time>2026-04-15T11:33:28.87Z</time></trkpt><trkpt lat="42.645405" lon="-7.4097617"><ele>493.0</ele><time>2026-04-15T11:33:29.869Z</time></trkpt><trkpt lat="42.6453617" lon="-7.4099783"><ele>492.0</ele><time>2026-04-15T11:33:30.869Z</time></trkpt><trkpt lat="42.6453383" lon="-7.4102117"><ele>491.0</ele><time>2026-04-15T11:33:31.869Z</time></trkpt><trkpt lat="42.6453167" lon="-7.4104433"><ele>490.0</ele><time>2026-04-15T11:33:32.87Z</time></trkpt><trkpt lat="42.645305" lon="-7.4106683"><ele>490.0</ele><time>2026-04-15T11:33:33.87Z</time></trkpt><trkpt lat="42.6452917" lon="-7.410885"><ele>490.0</ele><time>2026-04-15T11:33:34.869Z</time></trkpt><trkpt lat="42.6452783" lon="-7.411105"><ele>490.0</ele><time>2026-04-15T11:33:35.869Z</time></trkpt><trkpt lat="42.64527" lon="-7.4113367"><ele>489.33333333333337</ele><time>2026-04-15T11:33:36.87Z</time></trkpt><trkpt lat="42.6452667" lon="-7.4115633"><ele>488.66666666666663</ele><time>2026-04-15T11:33:37.87Z</time></trkpt><trkpt lat="42.645265" lon="-7.4117933"><ele>488.0</ele><time>2026-04-15T11:33:38.87Z</time></trkpt><trkpt lat="42.6452683" lon="-7.412025"><ele>487.66666666666663</ele><time>2026-04-15T11:33:39.87Z</time></trkpt><trkpt lat="42.6452617" lon="-7.4122567"><ele>487.33333333333337</ele><time>2026-04-15T11:33:40.869Z</time></trkpt><trkpt lat="42.6452517" lon="-7.4124817"><ele>487.0</ele><time>2026-04-15T11:33:41.87Z</time></trkpt><trkpt lat="42.6452417" lon="-7.41271"><ele>487.0</ele><time>2026-04-15T11:33:42.869Z</time></trkpt><trkpt lat="42.6452283" lon="-7.4129383"><ele>487.0</ele><time>2026-04-15T11:33:43.87Z</time></trkpt><trkpt lat="42.6452167" lon="-7.4131683"><ele>487.0</ele><time>2026-04-15T11:33:44.869Z</time></trkpt><trkpt lat="42.64521" lon="-7.413395"><ele>487.0</ele><time>2026-04-15T11:33:45.87Z</time></trkpt><trkpt lat="42.6452" lon="-7.4136283"><ele>487.0</ele><time>2026-04-15T11:33:46.87Z</time></trkpt><trkpt lat="42.645195" lon="-7.4138633"><ele>487.0</ele><time>2026-04-15T11:33:47.87Z</time></trkpt><trkpt lat="42.6451883" lon="-7.414095"><ele>486.6666666666667</ele><time>2026-04-15T11:33:48.869Z</time></trkpt><trkpt lat="42.645185" lon="-7.4143267"><ele>486.33333333333337</ele><time>2026-04-15T11:33:49.87Z</time></trkpt><trkpt lat="42.6451767" lon="-7.4145633"><ele>486.0</ele><time>2026-04-15T11:33:50.869Z</time></trkpt><trkpt lat="42.6451683" lon="-7.4147983"><ele>485.66666666666663</ele><time>2026-04-15T11:33:51.87Z</time></trkpt><trkpt lat="42.6451583" lon="-7.4150433"><ele>485.3333333333333</ele><time>2026-04-15T11:33:52.869Z</time></trkpt><trkpt lat="42.6451483" lon="-7.415285"><ele>485.0</ele><time>2026-04-15T11:33:53.87Z</time></trkpt><trkpt lat="42.6451367" lon="-7.415525"><ele>484.66666666666663</ele><time>2026-04-15T11:33:54.869Z</time></trkpt><trkpt lat="42.6451217" lon="-7.41575"><ele>484.33333333333337</ele><time>2026-04-15T11:33:55.869Z</time></trkpt><trkpt lat="42.6450983" lon="-7.41596"><ele>484.0</ele><time>2026-04-15T11:33:56.869Z</time></trkpt><trkpt lat="42.6450767" lon="-7.4161833"><ele>484.0</ele><time>2026-04-15T11:33:57.87Z</time></trkpt><trkpt lat="42.64505" lon="-7.4164033"><ele>484.0</ele><time>2026-04-15T11:33:58.87Z</time></trkpt><trkpt lat="42.645025" lon="-7.416635"><ele>484.0</ele><time>2026-04-15T11:33:59.87Z</time></trkpt><trkpt lat="42.645005" lon="-7.4168583"><ele>484.0</ele><time>2026-04-15T11:34:00.87Z</time></trkpt><trkpt lat="42.6449817" lon="-7.41708"><ele>484.0</ele><time>2026-04-15T11:34:01.87Z</time></trkpt><trkpt lat="42.6449583" lon="-7.4173017"><ele>484.0</ele><time>2026-04-15T11:34:02.869Z</time></trkpt><trkpt lat="42.644935" lon="-7.4175317"><ele>484.33333333333337</ele><time>2026-04-15T11:34:03.869Z</time></trkpt><trkpt lat="42.6449083" lon="-7.4177567"><ele>484.66666666666663</ele><time>2026-04-15T11:34:04.87Z</time></trkpt><trkpt lat="42.644885" lon="-7.41799"><ele>485.0</ele><time>2026-04-15T11:34:05.87Z</time></trkpt><trkpt lat="42.6448517" lon="-7.418205"><ele>485.3333333333333</ele><time>2026-04-15T11:34:06.869Z</time></trkpt><trkpt lat="42.6448267" lon="-7.418425"><ele>485.66666666666663</ele><time>2026-04-15T11:34:07.87Z</time></trkpt><trkpt lat="42.6448033" lon="-7.4186567"><ele>486.0</ele><time>2026-04-15T11:34:08.869Z</time></trkpt><trkpt lat="42.6447783" lon="-7.4188917"><ele>486.66666666666663</ele><time>2026-04-15T11:34:09.869Z</time></trkpt><trkpt lat="42.6447517" lon="-7.4191267"><ele>487.3333333333333</ele><time>2026-04-15T11:34:10.87Z</time></trkpt><trkpt lat="42.6447217" lon="-7.4193533"><ele>488.0</ele><time>2026-04-15T11:34:11.87Z</time></trkpt><trkpt lat="42.6447017" lon="-7.4195833"><ele>488.0</ele><time>2026-04-15T11:34:12.869Z</time></trkpt><trkpt lat="42.64468" lon="-7.4197983"><ele>488.0</ele><time>2026-04-15T11:34:13.87Z</time></trkpt><trkpt lat="42.6446567" lon="-7.4199983"><ele>488.0</ele><time>2026-04-15T11:34:14.87Z</time></trkpt><trkpt lat="42.6446333" lon="-7.4201967"><ele>488.0</ele><time>2026-04-15T11:34:15.869Z</time></trkpt><trkpt lat="42.6446117" lon="-7.420395"><ele>488.0</ele><time>2026-04-15T11:34:16.87Z</time></trkpt><trkpt lat="42.6445917" lon="-7.4206067"><ele>488.0</ele><time>2026-04-15T11:34:17.869Z</time></trkpt><trkpt lat="42.64457" lon="-7.4208167"><ele>487.5</ele><time>2026-04-15T11:34:18.869Z</time></trkpt><trkpt lat="42.6445567" lon="-7.4210267"><ele>487.0</ele><time>2026-04-15T11:34:19.87Z</time></trkpt><trkpt lat="42.64455" lon="-7.421215"><ele>486.5</ele><time>2026-04-15T11:34:20.87Z</time></trkpt><trkpt lat="42.644575" lon="-7.4214217"><ele>486.0</ele><time>2026-04-15T11:34:21.87Z</time></trkpt><trkpt lat="42.644625" lon="-7.4216233"><ele>485.33333333333337</ele><time>2026-04-15T11:34:22.869Z</time></trkpt><trkpt lat="42.6446933" lon="-7.4218083"><ele>484.6666666666667</ele><time>2026-04-15T11:34:23.87Z</time></trkpt><trkpt lat="42.644775" lon="-7.4219933"><ele>484.0</ele><time>2026-04-15T11:34:24.869Z</time></trkpt><trkpt lat="42.64487" lon="-7.4221733"><ele>482.33333333333337</ele><time>2026-04-15T11:34:25.87Z</time></trkpt><trkpt lat="42.6449767" lon="-7.4223283"><ele>480.66666666666663</ele><time>2026-04-15T11:34:26.87Z</time></trkpt><trkpt lat="42.6450883" lon="-7.422485"><ele>479.0</ele><time>2026-04-15T11:34:27.87Z</time></trkpt><trkpt lat="42.6451983" lon="-7.4226517"><ele>479.0</ele><time>2026-04-15T11:34:28.87Z</time></trkpt><trkpt lat="42.64531" lon="-7.4228233"><ele>479.0</ele><time>2026-04-15T11:34:29.87Z</time></trkpt><trkpt lat="42.645425" lon="-7.4229817"><ele>479.0</ele><time>2026-04-15T11:34:30.87Z</time></trkpt><trkpt lat="42.6455367" lon="-7.4231433"><ele>478.0</ele><time>2026-04-15T11:34:31.87Z</time></trkpt><trkpt lat="42.645645" lon="-7.4233083"><ele>477.0</ele><time>2026-04-15T11:34:32.87Z</time></trkpt><trkpt lat="42.645755" lon="-7.4234833"><ele>476.0</ele><time>2026-04-15T11:34:33.87Z</time></trkpt><trkpt lat="42.6458583" lon="-7.42367"><ele>475.3333333333333</ele><time>2026-04-15T11:34:34.869Z</time></trkpt><trkpt lat="42.645955" lon="-7.4238567"><ele>474.66666666666663</ele><time>2026-04-15T11:34:35.869Z</time></trkpt><trkpt lat="42.6460333" lon="-7.4240583"><ele>474.0</ele><time>2026-04-15T11:34:36.869Z</time></trkpt><trkpt lat="42.6461067" lon="-7.4242583"><ele>475.33333333333337</ele><time>2026-04-15T11:34:37.869Z</time></trkpt><trkpt lat="42.64617" lon="-7.4244767"><ele>476.6666666666667</ele><time>2026-04-15T11:34:38.87Z</time></trkpt><trkpt lat="42.6462217" lon="-7.4246967"><ele>478.0</ele><time>2026-04-15T11:34:39.869Z</time></trkpt><trkpt lat="42.6462533" lon="-7.424925"><ele>478.0</ele><time>2026-04-15T11:34:40.87Z</time></trkpt><trkpt lat="42.6462733" lon="-7.4251683"><ele>478.0</ele><time>2026-04-15T11:34:41.869Z</time></trkpt><trkpt lat="42.6462733" lon="-7.4254083"><ele>478.0</ele><time>2026-04-15T11:34:42.87Z</time></trkpt><trkpt lat="42.646255" lon="-7.4256433"><ele>477.0</ele><time>2026-04-15T11:34:43.869Z</time></trkpt><trkpt lat="42.6462267" lon="-7.425875"><ele>476.0</ele><time>2026-04-15T11:34:44.87Z</time></trkpt><trkpt lat="42.6461933" lon="-7.426095"><ele>475.0</ele><time>2026-04-15T11:34:45.87Z</time></trkpt><trkpt lat="42.6461667" lon="-7.4263217"><ele>474.33333333333337</ele><time>2026-04-15T11:34:46.87Z</time></trkpt><trkpt lat="42.6461467" lon="-7.42654"><ele>473.66666666666663</ele><time>2026-04-15T11:34:47.869Z</time></trkpt><trkpt lat="42.64612" lon="-7.4267633"><ele>473.0</ele><time>2026-04-15T11:34:48.87Z</time></trkpt><trkpt lat="42.6460817" lon="-7.4269867"><ele>470.3333333333333</ele><time>2026-04-15T11:34:49.87Z</time></trkpt><trkpt lat="42.6460533" lon="-7.4272117"><ele>467.66666666666663</ele><time>2026-04-15T11:34:50.87Z</time></trkpt><trkpt lat="42.64602" lon="-7.427445"><ele>465.0</ele><time>2026-04-15T11:34:51.87Z</time></trkpt><trkpt lat="42.6459917" lon="-7.427675"><ele>465.0</ele><time>2026-04-15T11:34:52.87Z</time></trkpt><trkpt lat="42.6459567" lon="-7.4279033"><ele>465.0</ele><time>2026-04-15T11:34:53.87Z</time></trkpt><trkpt lat="42.645925" lon="-7.4281467"><ele>465.0</ele><time>2026-04-15T11:34:54.869Z</time></trkpt><trkpt lat="42.6458933" lon="-7.4283833"><ele>465.0</ele><time>2026-04-15T11:34:55.869Z</time></trkpt><trkpt lat="42.6458767" lon="-7.4286133"><ele>465.0</ele><time>2026-04-15T11:34:56.87Z</time></trkpt><trkpt lat="42.6458733" lon="-7.4288567"><ele>465.0</ele><time>2026-04-15T11:34:57.87Z</time></trkpt><trkpt lat="42.645885" lon="-7.4291033"><ele>464.66666666666663</ele><time>2026-04-15T11:34:58.87Z</time></trkpt><trkpt lat="42.6459067" lon="-7.4293533"><ele>464.3333333333333</ele><time>2026-04-15T11:34:59.869Z</time></trkpt><trkpt lat="42.6459283" lon="-7.4295967"><ele>464.0</ele><time>2026-04-15T11:35:00.87Z</time></trkpt><trkpt lat="42.6459517" lon="-7.4298383"><ele>463.3333333333333</ele><time>2026-04-15T11:35:01.87Z</time></trkpt><trkpt lat="42.6459817" lon="-7.4300817"><ele>462.66666666666663</ele><time>2026-04-15T11:35:02.869Z</time></trkpt><trkpt lat="42.6460133" lon="-7.4303233"><ele>462.0</ele><time>2026-04-15T11:35:03.87Z</time></trkpt><trkpt lat="42.64604" lon="-7.43056"><ele>462.0</ele><time>2026-04-15T11:35:04.869Z</time></trkpt><trkpt lat="42.646075" lon="-7.4307933"><ele>462.0</ele><time>2026-04-15T11:35:05.87Z</time></trkpt><trkpt lat="42.6461" lon="-7.4309983"><ele>462.0</ele><time>2026-04-15T11:35:06.869Z</time></trkpt><trkpt lat="42.6461333" lon="-7.4312083"><ele>462.33333333333337</ele><time>2026-04-15T11:35:07.869Z</time></trkpt><trkpt lat="42.6461617" lon="-7.4314233"><ele>462.6666666666667</ele><time>2026-04-15T11:35:08.87Z</time></trkpt><trkpt lat="42.646195" lon="-7.4316217"><ele>463.0</ele><time>2026-04-15T11:35:09.87Z</time></trkpt><trkpt lat="42.64623" lon="-7.4318233"><ele>463.0</ele><time>2026-04-15T11:35:10.869Z</time></trkpt><trkpt lat="42.6462633" lon="-7.4320317"><ele>463.0</ele><time>2026-04-15T11:35:11.87Z</time></trkpt><trkpt lat="42.6462983" lon="-7.4322433"><ele>463.0</ele><time>2026-04-15T11:35:12.869Z</time></trkpt><trkpt lat="42.6463433" lon="-7.432455"><ele>461.6666666666667</ele><time>2026-04-15T11:35:13.87Z</time></trkpt><trkpt lat="42.6463967" lon="-7.4326533"><ele>460.33333333333337</ele><time>2026-04-15T11:35:14.869Z</time></trkpt><trkpt lat="42.6464667" lon="-7.43284"><ele>459.0</ele><time>2026-04-15T11:35:15.869Z</time></trkpt><trkpt lat="42.6465483" lon="-7.43303"><ele>459.0</ele><time>2026-04-15T11:35:16.869Z</time></trkpt><trkpt lat="42.646645" lon="-7.4332267"><ele>459.0</ele><time>2026-04-15T11:35:17.869Z</time></trkpt><trkpt lat="42.6467383" lon="-7.4334117"><ele>459.0</ele><time>2026-04-15T11:35:18.869Z</time></trkpt><trkpt lat="42.6468367" lon="-7.4336067"><ele>459.0</ele><time>2026-04-15T11:35:19.869Z</time></trkpt><trkpt lat="42.6469367" lon="-7.4338083"><ele>459.0</ele><time>2026-04-15T11:35:20.869Z</time></trkpt><trkpt lat="42.6470433" lon="-7.434015"><ele>459.0</ele><time>2026-04-15T11:35:21.869Z</time></trkpt><trkpt lat="42.6471417" lon="-7.4342267"><ele>459.0</ele><time>2026-04-15T11:35:22.869Z</time></trkpt><trkpt lat="42.6472383" lon="-7.4344333"><ele>459.0</ele><time>2026-04-15T11:35:23.869Z</time></trkpt><trkpt lat="42.6473217" lon="-7.4346333"><ele>459.0</ele><time>2026-04-15T11:35:24.869Z</time></trkpt><trkpt lat="42.6474033" lon="-7.4348367"><ele>459.0</ele><time>2026-04-15T11:35:25.87Z</time></trkpt><trkpt lat="42.647475" lon="-7.4350517"><ele>459.0</ele><time>2026-04-15T11:35:26.87Z</time></trkpt><trkpt lat="42.6475283" lon="-7.4352883"><ele>459.0</ele><time>2026-04-15T11:35:27.869Z</time></trkpt><trkpt lat="42.6475733" lon="-7.435525"><ele>456.66666666666663</ele><time>2026-04-15T11:35:28.87Z</time></trkpt><trkpt lat="42.6475967" lon="-7.4357617"><ele>454.3333333333333</ele><time>2026-04-15T11:35:29.87Z</time></trkpt><trkpt lat="42.6476" lon="-7.436005"><ele>452.0</ele><time>2026-04-15T11:35:30.87Z</time></trkpt><trkpt lat="42.6475867" lon="-7.436255"><ele>450.66666666666663</ele><time>2026-04-15T11:35:31.869Z</time></trkpt><trkpt lat="42.6475583" lon="-7.436495"><ele>449.33333333333337</ele><time>2026-04-15T11:35:32.87Z</time></trkpt><trkpt lat="42.64751" lon="-7.4367317"><ele>448.0</ele><time>2026-04-15T11:35:33.869Z</time></trkpt><trkpt lat="42.64745" lon="-7.4369567"><ele>448.0</ele><time>2026-04-15T11:35:34.869Z</time></trkpt><trkpt lat="42.6473867" lon="-7.4371983"><ele>448.0</ele><time>2026-04-15T11:35:35.87Z</time></trkpt><trkpt lat="42.6473217" lon="-7.437435"><ele>448.0</ele><time>2026-04-15T11:35:36.869Z</time></trkpt><trkpt lat="42.6472417" lon="-7.4376733"><ele>448.0</ele><time>2026-04-15T11:35:37.869Z</time></trkpt><trkpt lat="42.647165" lon="-7.4378983"><ele>448.0</ele><time>2026-04-15T11:35:38.87Z</time></trkpt><trkpt lat="42.64709" lon="-7.4381233"><ele>448.0</ele><time>2026-04-15T11:35:39.87Z</time></trkpt><trkpt lat="42.647015" lon="-7.4383483"><ele>445.33333333333337</ele><time>2026-04-15T11:35:40.87Z</time></trkpt><trkpt lat="42.64694" lon="-7.4385783"><ele>442.66666666666663</ele><time>2026-04-15T11:35:41.87Z</time></trkpt><trkpt lat="42.646875" lon="-7.43881"><ele>440.0</ele><time>2026-04-15T11:35:42.87Z</time></trkpt><trkpt lat="42.6468067" lon="-7.4390417"><ele>438.3333333333333</ele><time>2026-04-15T11:35:43.869Z</time></trkpt><trkpt lat="42.64676" lon="-7.43927"><ele>436.66666666666663</ele><time>2026-04-15T11:35:44.87Z</time></trkpt><trkpt lat="42.646725" lon="-7.4394983"><ele>435.0</ele><time>2026-04-15T11:35:45.87Z</time></trkpt><trkpt lat="42.6467233" lon="-7.4397383"><ele>433.33333333333337</ele><time>2026-04-15T11:35:46.869Z</time></trkpt><trkpt lat="42.6467417" lon="-7.4399717"><ele>431.6666666666667</ele><time>2026-04-15T11:35:47.87Z</time></trkpt><trkpt lat="42.6467967" lon="-7.4402067"><ele>430.0</ele><time>2026-04-15T11:35:48.87Z</time></trkpt><trkpt lat="42.6468783" lon="-7.4404367"><ele>430.0</ele><time>2026-04-15T11:35:49.869Z</time></trkpt><trkpt lat="42.6469717" lon="-7.44065"><ele>430.0</ele><time>2026-04-15T11:35:50.87Z</time></trkpt><trkpt lat="42.647095" lon="-7.4408533"><ele>430.0</ele><time>2026-04-15T11:35:51.869Z</time></trkpt><trkpt lat="42.6472133" lon="-7.4410483"><ele>430.0</ele><time>2026-04-15T11:35:52.869Z</time></trkpt><trkpt lat="42.64734" lon="-7.4412467"><ele>430.0</ele><time>2026-04-15T11:35:53.869Z</time></trkpt><trkpt lat="42.64747" lon="-7.4414417"><ele>430.0</ele><time>2026-04-15T11:35:54.869Z</time></trkpt><trkpt lat="42.6475967" lon="-7.4416433"><ele>426.6666666666667</ele><time>2026-04-15T11:35:55.869Z</time></trkpt><trkpt lat="42.647715" lon="-7.44184"><ele>423.33333333333337</ele><time>2026-04-15T11:35:56.869Z</time></trkpt><trkpt lat="42.6478283" lon="-7.4420233"><ele>420.0</ele><time>2026-04-15T11:35:57.869Z</time></trkpt><trkpt lat="42.6479283" lon="-7.44219"><ele>418.75</ele><time>2026-04-15T11:35:58.87Z</time></trkpt><trkpt lat="42.648025" lon="-7.44235"><ele>417.5</ele><time>2026-04-15T11:35:59.87Z</time></trkpt><trkpt lat="42.64813" lon="-7.4425017"><ele>416.25</ele><time>2026-04-15T11:36:00.869Z</time></trkpt><trkpt lat="42.648225" lon="-7.4426483"><ele>415.0</ele><time>2026-04-15T11:36:01.869Z</time></trkpt><trkpt lat="42.6483183" lon="-7.4427983"><ele>415.0</ele><time>2026-04-15T11:36:02.869Z</time></trkpt><trkpt lat="42.6484233" lon="-7.44295"><ele>415.0</ele><time>2026-04-15T11:36:03.87Z</time></trkpt><trkpt lat="42.6485367" lon="-7.4431017"><ele>415.0</ele><time>2026-04-15T11:36:04.869Z</time></trkpt><trkpt lat="42.6486567" lon="-7.4432467"><ele>412.0</ele><time>2026-04-15T11:36:05.869Z</time></trkpt><trkpt lat="42.6487833" lon="-7.44338"><ele>409.0</ele><time>2026-04-15T11:36:06.87Z</time></trkpt><trkpt lat="42.6489233" lon="-7.4434983"><ele>406.0</ele><time>2026-04-15T11:36:07.869Z</time></trkpt><trkpt lat="42.6490817" lon="-7.4435983"><ele>406.0</ele><time>2026-04-15T11:36:08.87Z</time></trkpt><trkpt lat="42.649255" lon="-7.4436683"><ele>406.0</ele><time>2026-04-15T11:36:09.869Z</time></trkpt><trkpt lat="42.6494267" lon="-7.44373"><ele>406.0</ele><time>2026-04-15T11:36:10.87Z</time></trkpt><trkpt lat="42.64959" lon="-7.4438083"><ele>404.33333333333337</ele><time>2026-04-15T11:36:11.87Z</time></trkpt><trkpt lat="42.6497533" lon="-7.4439067"><ele>402.66666666666663</ele><time>2026-04-15T11:36:12.869Z</time></trkpt><trkpt lat="42.6499183" lon="-7.4440367"><ele>401.0</ele><time>2026-04-15T11:36:13.869Z</time></trkpt><trkpt lat="42.65006" lon="-7.44418"><ele>401.0</ele><time>2026-04-15T11:36:14.869Z</time></trkpt><trkpt lat="42.6501883" lon="-7.44435"><ele>401.0</ele><time>2026-04-15T11:36:15.869Z</time></trkpt><trkpt lat="42.6503133" lon="-7.444525"><ele>401.0</ele><time>2026-04-15T11:36:16.87Z</time></trkpt><trkpt lat="42.650435" lon="-7.44471"><ele>407.3333333333333</ele><time>2026-04-15T11:36:17.87Z</time></trkpt><trkpt lat="42.6505583" lon="-7.44489"><ele>413.66666666666663</ele><time>2026-04-15T11:36:18.869Z</time></trkpt><trkpt lat="42.650685" lon="-7.44507"><ele>420.0</ele><time>2026-04-15T11:36:19.87Z</time></trkpt><trkpt lat="42.6508133" lon="-7.4452517"><ele>420.0</ele><time>2026-04-15T11:36:20.869Z</time></trkpt><trkpt lat="42.6509433" lon="-7.4454333"><ele>420.0</ele><time>2026-04-15T11:36:21.87Z</time></trkpt><trkpt lat="42.6510683" lon="-7.44562"><ele>420.0</ele><time>2026-04-15T11:36:22.87Z</time></trkpt><trkpt lat="42.6511933" lon="-7.4458017"><ele>420.66666666666663</ele><time>2026-04-15T11:36:23.869Z</time></trkpt><trkpt lat="42.6513283" lon="-7.44597"><ele>421.3333333333333</ele><time>2026-04-15T11:36:24.87Z</time></trkpt><trkpt lat="42.6514383" lon="-7.446145"><ele>422.0</ele><time>2026-04-15T11:36:25.869Z</time></trkpt><trkpt lat="42.6515417" lon="-7.4463233"><ele>419.66666666666663</ele><time>2026-04-15T11:36:26.87Z</time></trkpt><trkpt lat="42.6516217" lon="-7.446515"><ele>417.33333333333337</ele><time>2026-04-15T11:36:27.87Z</time></trkpt><trkpt lat="42.651675" lon="-7.4467217"><ele>415.0</ele><time>2026-04-15T11:36:28.869Z</time></trkpt><trkpt lat="42.6517033" lon="-7.4469383"><ele>417.33333333333337</ele><time>2026-04-15T11:36:29.869Z</time></trkpt><trkpt lat="42.6517067" lon="-7.4471583"><ele>419.66666666666663</ele><time>2026-04-15T11:36:30.87Z</time></trkpt><trkpt lat="42.651685" lon="-7.4473783"><ele>422.0</ele><time>2026-04-15T11:36:31.869Z</time></trkpt><trkpt lat="42.651645" lon="-7.4475967"><ele>422.0</ele><time>2026-04-15T11:36:32.87Z</time></trkpt><trkpt lat="42.6516083" lon="-7.4478217"><ele>422.0</ele><time>2026-04-15T11:36:33.869Z</time></trkpt><trkpt lat="42.6515717" lon="-7.4480417"><ele>422.0</ele><time>2026-04-15T11:36:34.869Z</time></trkpt><trkpt lat="42.6515467" lon="-7.44826"><ele>422.0</ele><time>2026-04-15T11:36:35.869Z</time></trkpt><trkpt lat="42.6515317" lon="-7.4484767"><ele>422.0</ele><time>2026-04-15T11:36:36.869Z</time></trkpt><trkpt lat="42.65153" lon="-7.4487033"><ele>422.0</ele><time>2026-04-15T11:36:37.87Z</time></trkpt><trkpt lat="42.6515433" lon="-7.4489267"><ele>422.0</ele><time>2026-04-15T11:36:38.869Z</time></trkpt><trkpt lat="42.65157" lon="-7.4491617"><ele>422.0</ele><time>2026-04-15T11:36:39.87Z</time></trkpt><trkpt lat="42.651605" lon="-7.4493967"><ele>422.0</ele><time>2026-04-15T11:36:40.87Z</time></trkpt><trkpt lat="42.6516433" lon="-7.4496417"><ele>422.0</ele><time>2026-04-15T11:36:41.87Z</time></trkpt><trkpt lat="42.6516833" lon="-7.4498867"><ele>422.0</ele><time>2026-04-15T11:36:42.87Z</time></trkpt><trkpt lat="42.6517267" lon="-7.4501417"><ele>422.0</ele><time>2026-04-15T11:36:43.87Z</time></trkpt><trkpt lat="42.65177" lon="-7.4503933"><ele>422.0</ele><time>2026-04-15T11:36:44.87Z</time></trkpt><trkpt lat="42.651815" lon="-7.4506517"><ele>422.0</ele><time>2026-04-15T11:36:45.871Z</time></trkpt><trkpt lat="42.651855" lon="-7.45091"><ele>422.0</ele><time>2026-04-15T11:36:46.871Z</time></trkpt><trkpt lat="42.6518967" lon="-7.4511783"><ele>422.66666666666663</ele><time>2026-04-15T11:36:47.87Z</time></trkpt><trkpt lat="42.6519383" lon="-7.4514433"><ele>423.33333333333337</ele><time>2026-04-15T11:36:48.87Z</time></trkpt><trkpt lat="42.65199" lon="-7.4517"><ele>424.0</ele><time>2026-04-15T11:36:49.87Z</time></trkpt><trkpt lat="42.65203" lon="-7.4519583"><ele>422.33333333333337</ele><time>2026-04-15T11:36:50.871Z</time></trkpt><trkpt lat="42.6520683" lon="-7.4522217"><ele>420.66666666666663</ele><time>2026-04-15T11:36:51.87Z</time></trkpt><trkpt lat="42.6521083" lon="-7.45249"><ele>419.0</ele><time>2026-04-15T11:36:52.87Z</time></trkpt><trkpt lat="42.6521567" lon="-7.4527517"><ele>419.0</ele><time>2026-04-15T11:36:53.871Z</time></trkpt><trkpt lat="42.6521983" lon="-7.453015"><ele>419.0</ele><time>2026-04-15T11:36:54.871Z</time></trkpt><trkpt lat="42.6522433" lon="-7.45327"><ele>419.0</ele><time>2026-04-15T11:36:55.871Z</time></trkpt><trkpt lat="42.6522817" lon="-7.4535233"><ele>419.0</ele><time>2026-04-15T11:36:56.87Z</time></trkpt><trkpt lat="42.652325" lon="-7.45378"><ele>419.0</ele><time>2026-04-15T11:36:57.871Z</time></trkpt><trkpt lat="42.6523717" lon="-7.45404"><ele>419.0</ele><time>2026-04-15T11:36:58.87Z</time></trkpt><trkpt lat="42.652415" lon="-7.4542933"><ele>419.3333333333333</ele><time>2026-04-15T11:36:59.871Z</time></trkpt><trkpt lat="42.65245" lon="-7.4545417"><ele>419.66666666666663</ele><time>2026-04-15T11:37:00.871Z</time></trkpt><trkpt lat="42.6524933" lon="-7.454795"><ele>420.0</ele><time>2026-04-15T11:37:01.871Z</time></trkpt><trkpt lat="42.65253" lon="-7.4550483"><ele>420.0</ele><time>2026-04-15T11:37:02.87Z</time></trkpt><trkpt lat="42.6525683" lon="-7.4553017"><ele>420.0</ele><time>2026-04-15T11:37:03.871Z</time></trkpt><trkpt lat="42.65261" lon="-7.4555633"><ele>420.0</ele><time>2026-04-15T11:37:04.87Z</time></trkpt><trkpt lat="42.6526517" lon="-7.45582"><ele>419.66666666666663</ele><time>2026-04-15T11:37:05.87Z</time></trkpt><trkpt lat="42.6526967" lon="-7.456075"><ele>419.3333333333333</ele><time>2026-04-15T11:37:06.871Z</time></trkpt><trkpt lat="42.6527383" lon="-7.4563283"><ele>419.0</ele><time>2026-04-15T11:37:07.871Z</time></trkpt><trkpt lat="42.6527733" lon="-7.4565933"><ele>422.0</ele><time>2026-04-15T11:37:08.87Z</time></trkpt><trkpt lat="42.6528117" lon="-7.4568483"><ele>425.0</ele><time>2026-04-15T11:37:09.87Z</time></trkpt><trkpt lat="42.6528567" lon="-7.4571"><ele>428.0</ele><time>2026-04-15T11:37:10.87Z</time></trkpt><trkpt lat="42.6528967" lon="-7.45734"><ele>428.0</ele><time>2026-04-15T11:37:11.87Z</time></trkpt><trkpt lat="42.6529467" lon="-7.4575867"><ele>428.0</ele><time>2026-04-15T11:37:12.87Z</time></trkpt><trkpt lat="42.6530017" lon="-7.4578233"><ele>428.0</ele><time>2026-04-15T11:37:13.87Z</time></trkpt><trkpt lat="42.65307" lon="-7.45806"><ele>427.3333333333333</ele><time>2026-04-15T11:37:14.87Z</time></trkpt><trkpt lat="42.6531483" lon="-7.45828"><ele>426.66666666666663</ele><time>2026-04-15T11:37:15.87Z</time></trkpt><trkpt lat="42.65324" lon="-7.4584883"><ele>426.0</ele><time>2026-04-15T11:37:16.871Z</time></trkpt><trkpt lat="42.653355" lon="-7.45868"><ele>425.33333333333337</ele><time>2026-04-15T11:37:17.871Z</time></trkpt><trkpt lat="42.6534783" lon="-7.45886"><ele>424.6666666666667</ele><time>2026-04-15T11:37:18.87Z</time></trkpt><trkpt lat="42.65361" lon="-7.4590067"><ele>424.0</ele><time>2026-04-15T11:37:19.871Z</time></trkpt><trkpt lat="42.653745" lon="-7.4591433"><ele>425.33333333333337</ele><time>2026-04-15T11:37:20.871Z</time></trkpt><trkpt lat="42.65389" lon="-7.4592867"><ele>426.66666666666663</ele><time>2026-04-15T11:37:21.871Z</time></trkpt><trkpt lat="42.6540417" lon="-7.459415"><ele>428.0</ele><time>2026-04-15T11:37:22.87Z</time></trkpt><trkpt lat="42.6541983" lon="-7.4595483"><ele>427.3333333333333</ele><time>2026-04-15T11:37:23.87Z</time></trkpt><trkpt lat="42.6543517" lon="-7.4596817"><ele>426.66666666666663</ele><time>2026-04-15T11:37:24.87Z</time></trkpt><trkpt lat="42.654495" lon="-7.4598233"><ele>426.0</ele><time>2026-04-15T11:37:25.871Z</time></trkpt><trkpt lat="42.6546333" lon="-7.45998"><ele>426.0</ele><time>2026-04-15T11:37:26.87Z</time></trkpt><trkpt lat="42.6547617" lon="-7.4601583"><ele>426.0</ele><time>2026-04-15T11:37:27.87Z</time></trkpt><trkpt lat="42.6548717" lon="-7.46036"><ele>426.0</ele><time>2026-04-15T11:37:28.87Z</time></trkpt><trkpt lat="42.6549717" lon="-7.460575"><ele>424.33333333333337</ele><time>2026-04-15T11:37:29.871Z</time></trkpt><trkpt lat="42.6550467" lon="-7.4608083"><ele>422.6666666666667</ele><time>2026-04-15T11:37:30.87Z</time></trkpt><trkpt lat="42.6551" lon="-7.4610533"><ele>421.0</ele><time>2026-04-15T11:37:31.87Z</time></trkpt><trkpt lat="42.6551317" lon="-7.4612983"><ele>421.0</ele><time>2026-04-15T11:37:32.871Z</time></trkpt><trkpt lat="42.6551517" lon="-7.4615483"><ele>421.0</ele><time>2026-04-15T11:37:33.871Z</time></trkpt><trkpt lat="42.6551733" lon="-7.4618117"><ele>421.0</ele><time>2026-04-15T11:37:34.87Z</time></trkpt><trkpt lat="42.6551883" lon="-7.4620683"><ele>421.0</ele><time>2026-04-15T11:37:35.871Z</time></trkpt><trkpt lat="42.6552017" lon="-7.46231"><ele>421.0</ele><time>2026-04-15T11:37:36.87Z</time></trkpt><trkpt lat="42.6552117" lon="-7.4625533"><ele>421.0</ele><time>2026-04-15T11:37:37.871Z</time></trkpt><trkpt lat="42.65522" lon="-7.4628017"><ele>420.6666666666667</ele><time>2026-04-15T11:37:38.87Z</time></trkpt><trkpt lat="42.65523" lon="-7.4630483"><ele>420.33333333333337</ele><time>2026-04-15T11:37:39.871Z</time></trkpt><trkpt lat="42.6552433" lon="-7.46329"><ele>420.0</ele><time>2026-04-15T11:37:40.871Z</time></trkpt><trkpt lat="42.6552567" lon="-7.463535"><ele>420.0</ele><time>2026-04-15T11:37:41.871Z</time></trkpt><trkpt lat="42.6552717" lon="-7.4637783"><ele>420.0</ele><time>2026-04-15T11:37:42.871Z</time></trkpt><trkpt lat="42.655285" lon="-7.4640267"><ele>420.0</ele><time>2026-04-15T11:37:43.87Z</time></trkpt><trkpt lat="42.6552967" lon="-7.4642667"><ele>422.0</ele><time>2026-04-15T11:37:44.87Z</time></trkpt><trkpt lat="42.6553117" lon="-7.4644983"><ele>424.0</ele><time>2026-04-15T11:37:45.87Z</time></trkpt><trkpt lat="42.6553267" lon="-7.4647167"><ele>426.0</ele><time>2026-04-15T11:37:46.87Z</time></trkpt><trkpt lat="42.6553617" lon="-7.464925"><ele>426.0</ele><time>2026-04-15T11:37:47.871Z</time></trkpt><trkpt lat="42.6554067" lon="-7.4651233"><ele>426.0</ele><time>2026-04-15T11:37:48.87Z</time></trkpt><trkpt lat="42.6554833" lon="-7.465305"><ele>426.0</ele><time>2026-04-15T11:37:49.87Z</time></trkpt><trkpt lat="42.6555633" lon="-7.465465"><ele>426.0</ele><time>2026-04-15T11:37:50.871Z</time></trkpt><trkpt lat="42.6556533" lon="-7.4656033"><ele>425.0</ele><time>2026-04-15T11:37:51.87Z</time></trkpt><trkpt lat="42.6557517" lon="-7.465735"><ele>424.0</ele><time>2026-04-15T11:37:52.87Z</time></trkpt><trkpt lat="42.6558617" lon="-7.4658567"><ele>423.0</ele><time>2026-04-15T11:37:53.871Z</time></trkpt><trkpt lat="42.6559683" lon="-7.46595"><ele>422.0</ele><time>2026-04-15T11:37:54.871Z</time></trkpt><trkpt lat="42.6560733" lon="-7.4660217"><ele>422.40000000000003</ele><time>2026-04-15T11:37:55.87Z</time></trkpt><trkpt lat="42.6561867" lon="-7.4660733"><ele>422.8</ele><time>2026-04-15T11:37:56.87Z</time></trkpt><trkpt lat="42.656265" lon="-7.4661383"><ele>423.2</ele><time>2026-04-15T11:37:57.87Z</time></trkpt><trkpt lat="42.6563167" lon="-7.4662317"><ele>423.6</ele><time>2026-04-15T11:37:58.87Z</time></trkpt><trkpt lat="42.6563333" lon="-7.4663483"><ele>424.0</ele><time>2026-04-15T11:37:59.87Z</time></trkpt><trkpt lat="42.6563217" lon="-7.4664733"><ele>423.0</ele><time>2026-04-15T11:38:00.871Z</time></trkpt><trkpt lat="42.6562983" lon="-7.4666017"><ele>422.0</ele><time>2026-04-15T11:38:01.871Z</time></trkpt><trkpt lat="42.65628" lon="-7.4667583"><ele>421.0</ele><time>2026-04-15T11:38:02.87Z</time></trkpt><trkpt lat="42.656285" lon="-7.466905"><ele>420.0</ele><time>2026-04-15T11:38:03.871Z</time></trkpt><trkpt lat="42.656295" lon="-7.4670433"><ele>419.0</ele><time>2026-04-15T11:38:04.871Z</time></trkpt><trkpt lat="42.6563117" lon="-7.4671767"><ele>417.25</ele><time>2026-04-15T11:38:05.87Z</time></trkpt><trkpt lat="42.6563433" lon="-7.46733"><ele>415.5</ele><time>2026-04-15T11:38:06.871Z</time></trkpt><trkpt lat="42.6563683" lon="-7.4674817"><ele>413.75</ele><time>2026-04-15T11:38:07.87Z</time></trkpt><trkpt lat="42.6564067" lon="-7.46763"><ele>412.0</ele><time>2026-04-15T11:38:08.87Z</time></trkpt><trkpt lat="42.65645" lon="-7.4677633"><ele>412.00000000000006</ele><time>2026-04-15T11:38:09.87Z</time></trkpt><trkpt lat="42.656485" lon="-7.46788"><ele>412.0</ele><time>2026-04-15T11:38:10.87Z</time></trkpt><trkpt lat="42.6565267" lon="-7.4679783"><ele>412.0</ele><time>2026-04-15T11:38:11.87Z</time></trkpt><trkpt lat="42.6565567" lon="-7.4680633"><ele>412.0</ele><time>2026-04-15T11:38:12.871Z</time></trkpt><trkpt lat="42.656625" lon="-7.4681717"><ele>412.00000000000006</ele><time>2026-04-15T11:38:14.87Z</time></trkpt><trkpt lat="42.6567217" lon="-7.4681633"><ele>412.0</ele><time>2026-04-15T11:38:16.87Z</time></trkpt><trkpt lat="42.6567867" lon="-7.4681467"><ele>410.83333333333337</ele><time>2026-04-15T11:38:17.871Z</time></trkpt><trkpt lat="42.6568583" lon="-7.4681667"><ele>409.6666666666667</ele><time>2026-04-15T11:38:18.871Z</time></trkpt><trkpt lat="42.6569267" lon="-7.46822"><ele>408.5</ele><time>2026-04-15T11:38:19.87Z</time></trkpt><trkpt lat="42.6569717" lon="-7.468335"><ele>407.33333333333337</ele><time>2026-04-15T11:38:20.871Z</time></trkpt><trkpt lat="42.6569883" lon="-7.4684683"><ele>406.1666666666667</ele><time>2026-04-15T11:38:21.871Z</time></trkpt><trkpt lat="42.6570033" lon="-7.468595"><ele>405.0</ele><time>2026-04-15T11:38:22.871Z</time></trkpt><trkpt lat="42.6570417" lon="-7.46871"><ele>403.25</ele><time>2026-04-15T11:38:23.87Z</time></trkpt><trkpt lat="42.657125" lon="-7.468795"><ele>401.5</ele><time>2026-04-15T11:38:24.87Z</time></trkpt><trkpt lat="42.6572383" lon="-7.4688517"><ele>399.75</ele><time>2026-04-15T11:38:25.871Z</time></trkpt><trkpt lat="42.6573917" lon="-7.4688817"><ele>398.0</ele><time>2026-04-15T11:38:26.87Z</time></trkpt><trkpt lat="42.657545" lon="-7.468925"><ele>398.0</ele><time>2026-04-15T11:38:27.87Z</time></trkpt><trkpt lat="42.6576933" lon="-7.4689833"><ele>398.0</ele><time>2026-04-15T11:38:28.871Z</time></trkpt><trkpt lat="42.6578483" lon="-7.469055"><ele>398.0</ele><time>2026-04-15T11:38:29.87Z</time></trkpt><trkpt lat="42.658005" lon="-7.4691533"><ele>397.5</ele><time>2026-04-15T11:38:30.871Z</time></trkpt><trkpt lat="42.6581433" lon="-7.4692483"><ele>397.0</ele><time>2026-04-15T11:38:31.871Z</time></trkpt><trkpt lat="42.6582617" lon="-7.4693367"><ele>396.5</ele><time>2026-04-15T11:38:32.871Z</time></trkpt><trkpt lat="42.6583583" lon="-7.46941"><ele>396.0</ele><time>2026-04-15T11:38:33.871Z</time></trkpt><trkpt lat="42.6584367" lon="-7.4694633"><ele>396.0</ele><time>2026-04-15T11:38:34.871Z</time></trkpt><trkpt lat="42.6584983" lon="-7.4694983"><ele>396.0</ele><time>2026-04-15T11:38:35.871Z</time></trkpt><trkpt lat="42.6585483" lon="-7.46956"><ele>396.0</ele><time>2026-04-15T11:38:37.87Z</time></trkpt><trkpt lat="42.6585317" lon="-7.469655"><ele>396.0</ele><time>2026-04-15T11:50:31.871Z</time></trkpt><trkpt lat="42.65857" lon="-7.4697367"><ele>396.0</ele><time>2026-04-15T11:50:32.872Z</time></trkpt><trkpt lat="42.65863" lon="-7.469835"><ele>396.0</ele><time>2026-04-15T11:50:33.872Z</time></trkpt><trkpt lat="42.6587" lon="-7.4699517"><ele>393.75</ele><time>2026-04-15T11:50:34.872Z</time></trkpt><trkpt lat="42.658785" lon="-7.47008"><ele>391.5</ele><time>2026-04-15T11:50:35.872Z</time></trkpt><trkpt lat="42.6588783" lon="-7.4702133"><ele>389.25</ele><time>2026-04-15T11:50:36.872Z</time></trkpt><trkpt lat="42.6589717" lon="-7.4703567"><ele>387.0</ele><time>2026-04-15T11:50:37.871Z</time></trkpt><trkpt lat="42.65906" lon="-7.4705017"><ele>387.0</ele><time>2026-04-15T11:50:38.871Z</time></trkpt><trkpt lat="42.6591567" lon="-7.4706417"><ele>387.0</ele><time>2026-04-15T11:50:39.872Z</time></trkpt><trkpt lat="42.6592517" lon="-7.4707817"><ele>387.0</ele><time>2026-04-15T11:50:40.872Z</time></trkpt><trkpt lat="42.6593433" lon="-7.47093"><ele>387.0</ele><time>2026-04-15T11:50:41.871Z</time></trkpt><trkpt lat="42.6594367" lon="-7.4710817"><ele>387.5</ele><time>2026-04-15T11:50:42.871Z</time></trkpt><trkpt lat="42.65953" lon="-7.471235"><ele>388.0</ele><time>2026-04-15T11:50:43.871Z</time></trkpt><trkpt lat="42.6596317" lon="-7.471385"><ele>388.5</ele><time>2026-04-15T11:50:44.871Z</time></trkpt><trkpt lat="42.6597267" lon="-7.471535"><ele>389.0</ele><time>2026-04-15T11:50:45.871Z</time></trkpt><trkpt lat="42.6598133" lon="-7.471695"><ele>389.0</ele><time>2026-04-15T11:50:46.871Z</time></trkpt><trkpt lat="42.6599117" lon="-7.4718467"><ele>389.0</ele><time>2026-04-15T11:50:47.871Z</time></trkpt><trkpt lat="42.6600083" lon="-7.471995"><ele>389.0</ele><time>2026-04-15T11:50:48.872Z</time></trkpt><trkpt lat="42.6600983" lon="-7.47213"><ele>389.0</ele><time>2026-04-15T11:50:49.872Z</time></trkpt><trkpt lat="42.6601783" lon="-7.4722567"><ele>389.0</ele><time>2026-04-15T11:50:50.872Z</time></trkpt><trkpt lat="42.6602483" lon="-7.4723667"><ele>389.0</ele><time>2026-04-15T11:50:51.872Z</time></trkpt><trkpt lat="42.6602983" lon="-7.47245"><ele>389.0</ele><time>2026-04-15T11:50:52.872Z</time></trkpt><trkpt lat="42.6603433" lon="-7.4725667"><ele>389.0</ele><time>2026-04-15T11:50:54.871Z</time></trkpt><trkpt lat="42.6603233" lon="-7.4726867"><ele>389.0</ele><time>2026-04-15T11:50:56.871Z</time></trkpt><trkpt lat="42.6602683" lon="-7.4727683"><ele>389.25</ele><time>2026-04-15T11:50:57.872Z</time></trkpt><trkpt lat="42.6601883" lon="-7.472845"><ele>389.5</ele><time>2026-04-15T11:50:58.872Z</time></trkpt><trkpt lat="42.6600933" lon="-7.4729233"><ele>389.75</ele><time>2026-04-15T11:50:59.871Z</time></trkpt><trkpt lat="42.6599817" lon="-7.4730117"><ele>390.0</ele><time>2026-04-15T11:51:00.872Z</time></trkpt><trkpt lat="42.6598667" lon="-7.4731233"><ele>390.0</ele><time>2026-04-15T11:51:01.872Z</time></trkpt><trkpt lat="42.65974" lon="-7.4732367"><ele>390.0</ele><time>2026-04-15T11:51:02.872Z</time></trkpt><trkpt lat="42.6596017" lon="-7.4733517"><ele>390.0</ele><time>2026-04-15T11:51:03.871Z</time></trkpt><trkpt lat="42.6594483" lon="-7.473475"><ele>390.0</ele><time>2026-04-15T11:51:04.872Z</time></trkpt><trkpt lat="42.6592983" lon="-7.47361"><ele>390.0</ele><time>2026-04-15T11:51:05.872Z</time></trkpt><trkpt lat="42.6591417" lon="-7.4737483"><ele>390.0</ele><time>2026-04-15T11:51:06.871Z</time></trkpt><trkpt lat="42.6589817" lon="-7.473875"><ele>390.0</ele><time>2026-04-15T11:51:07.871Z</time></trkpt><trkpt lat="42.6588217" lon="-7.474005"><ele>390.0</ele><time>2026-04-15T11:51:08.872Z</time></trkpt><trkpt lat="42.65865" lon="-7.4741417"><ele>390.0</ele><time>2026-04-15T11:51:09.871Z</time></trkpt><trkpt lat="42.6584817" lon="-7.4742817"><ele>389.33333333333337</ele><time>2026-04-15T11:51:10.871Z</time></trkpt><trkpt lat="42.6583067" lon="-7.4744133"><ele>388.6666666666667</ele><time>2026-04-15T11:51:11.872Z</time></trkpt><trkpt lat="42.658135" lon="-7.4745433"><ele>388.0</ele><time>2026-04-15T11:51:12.871Z</time></trkpt><trkpt lat="42.6579617" lon="-7.474675"><ele>389.33333333333337</ele><time>2026-04-15T11:51:13.871Z</time></trkpt><trkpt lat="42.6577867" lon="-7.4748033"><ele>390.66666666666663</ele><time>2026-04-15T11:51:14.871Z</time></trkpt><trkpt lat="42.6576133" lon="-7.4749367"><ele>392.0</ele><time>2026-04-15T11:51:15.871Z</time></trkpt><trkpt lat="42.6574417" lon="-7.4750733"><ele>392.66666666666663</ele><time>2026-04-15T11:51:16.871Z</time></trkpt><trkpt lat="42.6572733" lon="-7.4752"><ele>393.33333333333337</ele><time>2026-04-15T11:51:17.871Z</time></trkpt><trkpt lat="42.657105" lon="-7.4753233"><ele>394.0</ele><time>2026-04-15T11:51:18.872Z</time></trkpt><trkpt lat="42.6569383" lon="-7.4754467"><ele>395.33333333333337</ele><time>2026-04-15T11:51:19.872Z</time></trkpt><trkpt lat="42.65677" lon="-7.47558"><ele>396.66666666666663</ele><time>2026-04-15T11:51:20.871Z</time></trkpt><trkpt lat="42.6566017" lon="-7.4756967"><ele>398.0</ele><time>2026-04-15T11:51:21.872Z</time></trkpt><trkpt lat="42.656435" lon="-7.4758217"><ele>398.0</ele><time>2026-04-15T11:51:22.872Z</time></trkpt><trkpt lat="42.6562733" lon="-7.475945"><ele>398.0</ele><time>2026-04-15T11:51:23.871Z</time></trkpt><trkpt lat="42.6561083" lon="-7.47607"><ele>398.0</ele><time>2026-04-15T11:51:24.871Z</time></trkpt><trkpt lat="42.65594" lon="-7.4762033"><ele>398.0</ele><time>2026-04-15T11:51:25.872Z</time></trkpt><trkpt lat="42.6557733" lon="-7.4763217"><ele>398.0</ele><time>2026-04-15T11:51:26.871Z</time></trkpt><trkpt lat="42.6556" lon="-7.4764433"><ele>398.0</ele><time>2026-04-15T11:51:27.872Z</time></trkpt><trkpt lat="42.6554333" lon="-7.47658"><ele>397.3333333333333</ele><time>2026-04-15T11:51:28.872Z</time></trkpt><trkpt lat="42.65527" lon="-7.4767033"><ele>396.66666666666663</ele><time>2026-04-15T11:51:29.871Z</time></trkpt><trkpt lat="42.6551033" lon="-7.4768367"><ele>396.0</ele><time>2026-04-15T11:51:30.872Z</time></trkpt><trkpt lat="42.6549333" lon="-7.476965"><ele>396.0</ele><time>2026-04-15T11:51:31.872Z</time></trkpt><trkpt lat="42.6547733" lon="-7.4770883"><ele>396.0</ele><time>2026-04-15T11:51:32.872Z</time></trkpt><trkpt lat="42.65461" lon="-7.4772117"><ele>396.0</ele><time>2026-04-15T11:51:33.872Z</time></trkpt><trkpt lat="42.65445" lon="-7.4773367"><ele>397.33333333333337</ele><time>2026-04-15T11:51:34.871Z</time></trkpt><trkpt lat="42.6542917" lon="-7.4774583"><ele>398.6666666666667</ele><time>2026-04-15T11:51:35.871Z</time></trkpt><trkpt lat="42.6541233" lon="-7.4775767"><ele>400.0</ele><time>2026-04-15T11:51:36.872Z</time></trkpt><trkpt lat="42.6539683" lon="-7.477675"><ele>400.0</ele><time>2026-04-15T11:51:37.871Z</time></trkpt><trkpt lat="42.6538233" lon="-7.4777833"><ele>400.0</ele><time>2026-04-15T11:51:38.871Z</time></trkpt><trkpt lat="42.6536683" lon="-7.4778817"><ele>400.0</ele><time>2026-04-15T11:51:39.872Z</time></trkpt><trkpt lat="42.6535167" lon="-7.4779783"><ele>402.0</ele><time>2026-04-15T11:51:40.871Z</time></trkpt><trkpt lat="42.6533517" lon="-7.478075"><ele>404.0</ele><time>2026-04-15T11:51:41.871Z</time></trkpt><trkpt lat="42.6531967" lon="-7.478165"><ele>406.0</ele><time>2026-04-15T11:51:42.872Z</time></trkpt><trkpt lat="42.65303" lon="-7.4782467"><ele>406.0</ele><time>2026-04-15T11:51:43.872Z</time></trkpt><trkpt lat="42.6528567" lon="-7.4783367"><ele>406.0</ele><time>2026-04-15T11:51:44.872Z</time></trkpt><trkpt lat="42.6526917" lon="-7.4784233"><ele>406.0</ele><time>2026-04-15T11:51:45.872Z</time></trkpt><trkpt lat="42.65252" lon="-7.478515"><ele>406.0</ele><time>2026-04-15T11:51:46.871Z</time></trkpt><trkpt lat="42.65234" lon="-7.4786017"><ele>406.0</ele><time>2026-04-15T11:51:47.871Z</time></trkpt><trkpt lat="42.652165" lon="-7.4786917"><ele>406.0</ele><time>2026-04-15T11:51:48.872Z</time></trkpt><trkpt lat="42.65199" lon="-7.4787833"><ele>405.33333333333337</ele><time>2026-04-15T11:51:49.871Z</time></trkpt><trkpt lat="42.6518183" lon="-7.47887"><ele>404.66666666666663</ele><time>2026-04-15T11:51:50.871Z</time></trkpt><trkpt lat="42.6516467" lon="-7.478955"><ele>404.0</ele><time>2026-04-15T11:51:51.872Z</time></trkpt><trkpt lat="42.65147" lon="-7.4790383"><ele>404.0</ele><time>2026-04-15T11:51:52.871Z</time></trkpt><trkpt lat="42.651295" lon="-7.47913"><ele>404.0</ele><time>2026-04-15T11:51:53.871Z</time></trkpt><trkpt lat="42.65112" lon="-7.479215"><ele>404.0</ele><time>2026-04-15T11:51:54.872Z</time></trkpt><trkpt lat="42.6509483" lon="-7.4793067"><ele>403.66666666666663</ele><time>2026-04-15T11:51:55.871Z</time></trkpt><trkpt lat="42.6507667" lon="-7.4793983"><ele>403.33333333333337</ele><time>2026-04-15T11:51:56.871Z</time></trkpt><trkpt lat="42.6505867" lon="-7.479495"><ele>403.0</ele><time>2026-04-15T11:51:57.872Z</time></trkpt><trkpt lat="42.6504017" lon="-7.4795983"><ele>400.33333333333337</ele><time>2026-04-15T11:51:58.871Z</time></trkpt><trkpt lat="42.65022" lon="-7.4796917"><ele>397.66666666666663</ele><time>2026-04-15T11:51:59.871Z</time></trkpt><trkpt lat="42.650035" lon="-7.479785"><ele>395.0</ele><time>2026-04-15T11:52:00.871Z</time></trkpt><trkpt lat="42.6498517" lon="-7.47989"><ele>395.0</ele><time>2026-04-15T11:52:01.871Z</time></trkpt><trkpt lat="42.6496683" lon="-7.4799783"><ele>395.0</ele><time>2026-04-15T11:52:02.871Z</time></trkpt><trkpt lat="42.6494933" lon="-7.480075"><ele>395.0</ele><time>2026-04-15T11:52:03.871Z</time></trkpt><trkpt lat="42.6493117" lon="-7.4801633"><ele>395.3333333333333</ele><time>2026-04-15T11:52:04.872Z</time></trkpt><trkpt lat="42.6491267" lon="-7.4802567"><ele>395.66666666666663</ele><time>2026-04-15T11:52:05.871Z</time></trkpt><trkpt lat="42.64895" lon="-7.48035"><ele>396.0</ele><time>2026-04-15T11:52:06.871Z</time></trkpt><trkpt lat="42.648775" lon="-7.4804433"><ele>394.33333333333337</ele><time>2026-04-15T11:52:07.871Z</time></trkpt><trkpt lat="42.6485967" lon="-7.4805333"><ele>392.6666666666667</ele><time>2026-04-15T11:52:08.872Z</time></trkpt><trkpt lat="42.6484167" lon="-7.4806233"><ele>391.0</ele><time>2026-04-15T11:52:09.871Z</time></trkpt><trkpt lat="42.64823" lon="-7.48072"><ele>391.0</ele><time>2026-04-15T11:52:10.872Z</time></trkpt><trkpt lat="42.6480517" lon="-7.480815"><ele>391.0</ele><time>2026-04-15T11:52:11.871Z</time></trkpt><trkpt lat="42.6478717" lon="-7.4809133"><ele>391.0</ele><time>2026-04-15T11:52:12.871Z</time></trkpt><trkpt lat="42.6476917" lon="-7.4810133"><ele>391.0</ele><time>2026-04-15T11:52:13.872Z</time></trkpt><trkpt lat="42.647505" lon="-7.4811117"><ele>391.0</ele><time>2026-04-15T11:52:14.871Z</time></trkpt><trkpt lat="42.647325" lon="-7.481205"><ele>391.0</ele><time>2026-04-15T11:52:15.872Z</time></trkpt><trkpt lat="42.6471483" lon="-7.4813133"><ele>391.0</ele><time>2026-04-15T11:52:16.871Z</time></trkpt><trkpt lat="42.646975" lon="-7.4814217"><ele>391.0</ele><time>2026-04-15T11:52:17.872Z</time></trkpt><trkpt lat="42.6467983" lon="-7.4815233"><ele>391.0</ele><time>2026-04-15T11:52:18.872Z</time></trkpt><trkpt lat="42.64663" lon="-7.4816333"><ele>391.33333333333337</ele><time>2026-04-15T11:52:19.872Z</time></trkpt><trkpt lat="42.646465" lon="-7.4817283"><ele>391.66666666666663</ele><time>2026-04-15T11:52:20.871Z</time></trkpt><trkpt lat="42.64631" lon="-7.4818133"><ele>392.0</ele><time>2026-04-15T11:52:21.871Z</time></trkpt><trkpt lat="42.6461483" lon="-7.4818917"><ele>392.0</ele><time>2026-04-15T11:52:22.871Z</time></trkpt><trkpt lat="42.6459967" lon="-7.4819867"><ele>392.0</ele><time>2026-04-15T11:52:23.871Z</time></trkpt><trkpt lat="42.6458367" lon="-7.482085"><ele>392.0</ele><time>2026-04-15T11:52:24.871Z</time></trkpt><trkpt lat="42.6456683" lon="-7.4821833"><ele>391.0</ele><time>2026-04-15T11:52:25.872Z</time></trkpt><trkpt lat="42.6455" lon="-7.4822817"><ele>390.0</ele><time>2026-04-15T11:52:26.872Z</time></trkpt><trkpt lat="42.6453333" lon="-7.4823617"><ele>389.0</ele><time>2026-04-15T11:52:27.871Z</time></trkpt><trkpt lat="42.6451667" lon="-7.482425"><ele>389.0</ele><time>2026-04-15T11:52:28.871Z</time></trkpt><trkpt lat="42.64499" lon="-7.48248"><ele>389.0</ele><time>2026-04-15T11:52:29.872Z</time></trkpt><trkpt lat="42.6448117" lon="-7.4825167"><ele>389.0</ele><time>2026-04-15T11:52:30.871Z</time></trkpt><trkpt lat="42.644635" lon="-7.48255"><ele>389.0</ele><time>2026-04-15T11:52:31.872Z</time></trkpt><trkpt lat="42.6444533" lon="-7.4825633"><ele>389.0</ele><time>2026-04-15T11:52:32.871Z</time></trkpt><trkpt lat="42.6442683" lon="-7.482585"><ele>389.0</ele><time>2026-04-15T11:52:33.872Z</time></trkpt><trkpt lat="42.644095" lon="-7.48258"><ele>389.0</ele><time>2026-04-15T11:52:34.871Z</time></trkpt><trkpt lat="42.6439267" lon="-7.4825783"><ele>389.0</ele><time>2026-04-15T11:52:35.872Z</time></trkpt><trkpt lat="42.6437533" lon="-7.48257"><ele>389.0</ele><time>2026-04-15T11:52:36.871Z</time></trkpt><trkpt lat="42.6435767" lon="-7.4825633"><ele>388.0</ele><time>2026-04-15T11:52:37.872Z</time></trkpt><trkpt lat="42.6433933" lon="-7.4825617"><ele>387.0</ele><time>2026-04-15T11:52:38.871Z</time></trkpt><trkpt lat="42.6432033" lon="-7.4825583"><ele>386.0</ele><time>2026-04-15T11:52:39.871Z</time></trkpt><trkpt lat="42.6430083" lon="-7.4825567"><ele>386.0</ele><time>2026-04-15T11:52:40.871Z</time></trkpt><trkpt lat="42.6428133" lon="-7.4825467"><ele>386.0</ele><time>2026-04-15T11:52:41.872Z</time></trkpt><trkpt lat="42.64261" lon="-7.4825383"><ele>386.0</ele><time>2026-04-15T11:52:42.871Z</time></trkpt><trkpt lat="42.6424117" lon="-7.482525"><ele>386.3333333333333</ele><time>2026-04-15T11:52:43.872Z</time></trkpt><trkpt lat="42.6422117" lon="-7.4825233"><ele>386.66666666666663</ele><time>2026-04-15T11:52:44.872Z</time></trkpt><trkpt lat="42.6420133" lon="-7.4825183"><ele>387.0</ele><time>2026-04-15T11:52:45.871Z</time></trkpt><trkpt lat="42.641815" lon="-7.4825133"><ele>387.0</ele><time>2026-04-15T11:52:46.871Z</time></trkpt><trkpt lat="42.6416217" lon="-7.482495"><ele>387.0</ele><time>2026-04-15T11:52:47.871Z</time></trkpt><trkpt lat="42.641425" lon="-7.482485"><ele>387.0</ele><time>2026-04-15T11:52:48.872Z</time></trkpt><trkpt lat="42.6412267" lon="-7.48247"><ele>387.0</ele><time>2026-04-15T11:52:49.871Z</time></trkpt><trkpt lat="42.6410267" lon="-7.4824667"><ele>387.0</ele><time>2026-04-15T11:52:50.872Z</time></trkpt><trkpt lat="42.640825" lon="-7.4824583"><ele>387.0</ele><time>2026-04-15T11:52:51.871Z</time></trkpt><trkpt lat="42.6406167" lon="-7.4824483"><ele>387.0</ele><time>2026-04-15T11:52:52.871Z</time></trkpt><trkpt lat="42.6404167" lon="-7.4824417"><ele>387.0</ele><time>2026-04-15T11:52:53.871Z</time></trkpt><trkpt lat="42.6402183" lon="-7.4824367"><ele>387.0</ele><time>2026-04-15T11:52:54.871Z</time></trkpt><trkpt lat="42.6400133" lon="-7.482425"><ele>386.33333333333337</ele><time>2026-04-15T11:52:55.872Z</time></trkpt><trkpt lat="42.63981" lon="-7.4824233"><ele>385.6666666666667</ele><time>2026-04-15T11:52:56.871Z</time></trkpt><trkpt lat="42.6396083" lon="-7.4824167"><ele>385.0</ele><time>2026-04-15T11:52:57.872Z</time></trkpt><trkpt lat="42.6394067" lon="-7.4824083"><ele>385.0</ele><time>2026-04-15T11:52:58.872Z</time></trkpt><trkpt lat="42.639205" lon="-7.482395"><ele>385.0</ele><time>2026-04-15T11:52:59.872Z</time></trkpt><trkpt lat="42.6390017" lon="-7.4823917"><ele>385.0</ele><time>2026-04-15T11:53:00.871Z</time></trkpt><trkpt lat="42.638805" lon="-7.4823833"><ele>384.33333333333337</ele><time>2026-04-15T11:53:01.871Z</time></trkpt><trkpt lat="42.6386083" lon="-7.4823717"><ele>383.6666666666667</ele><time>2026-04-15T11:53:02.872Z</time></trkpt><trkpt lat="42.63841" lon="-7.4823667"><ele>383.0</ele><time>2026-04-15T11:53:03.871Z</time></trkpt><trkpt lat="42.6382167" lon="-7.4823567"><ele>383.0</ele><time>2026-04-15T11:53:04.872Z</time></trkpt><trkpt lat="42.6380217" lon="-7.4823417"><ele>383.0</ele><time>2026-04-15T11:53:05.872Z</time></trkpt><trkpt lat="42.637825" lon="-7.4823267"><ele>383.0</ele><time>2026-04-15T11:53:06.871Z</time></trkpt><trkpt lat="42.6376333" lon="-7.48233"><ele>382.6666666666667</ele><time>2026-04-15T11:53:07.872Z</time></trkpt><trkpt lat="42.63744" lon="-7.4823183"><ele>382.3333333333333</ele><time>2026-04-15T11:53:08.872Z</time></trkpt><trkpt lat="42.6372433" lon="-7.48231"><ele>382.0</ele><time>2026-04-15T11:53:09.872Z</time></trkpt><trkpt lat="42.63705" lon="-7.4823117"><ele>381.0</ele><time>2026-04-15T11:53:10.872Z</time></trkpt><trkpt lat="42.6368583" lon="-7.4823033"><ele>380.0</ele><time>2026-04-15T11:53:11.871Z</time></trkpt><trkpt lat="42.636675" lon="-7.4822817"><ele>379.0</ele><time>2026-04-15T11:53:12.872Z</time></trkpt><trkpt lat="42.636495" lon="-7.4822767"><ele>379.0</ele><time>2026-04-15T11:53:13.872Z</time></trkpt><trkpt lat="42.63631" lon="-7.4822733"><ele>379.0</ele><time>2026-04-15T11:53:14.872Z</time></trkpt><trkpt lat="42.6361267" lon="-7.482265"><ele>379.0</ele><time>2026-04-15T11:53:15.872Z</time></trkpt><trkpt lat="42.6359467" lon="-7.4822633"><ele>378.66666666666663</ele><time>2026-04-15T11:53:16.871Z</time></trkpt><trkpt lat="42.6357633" lon="-7.4822567"><ele>378.3333333333333</ele><time>2026-04-15T11:53:17.872Z</time></trkpt><trkpt lat="42.6355683" lon="-7.48224"><ele>378.0</ele><time>2026-04-15T11:53:18.872Z</time></trkpt><trkpt lat="42.6353817" lon="-7.4822317"><ele>379.3333333333333</ele><time>2026-04-15T11:53:19.872Z</time></trkpt><trkpt lat="42.6351933" lon="-7.48222"><ele>380.66666666666663</ele><time>2026-04-15T11:53:20.872Z</time></trkpt><trkpt lat="42.6350017" lon="-7.4822083"><ele>382.0</ele><time>2026-04-15T11:53:21.871Z</time></trkpt><trkpt lat="42.634815" lon="-7.4822117"><ele>382.0</ele><time>2026-04-15T11:53:22.871Z</time></trkpt><trkpt lat="42.6346217" lon="-7.4822017"><ele>382.0</ele><time>2026-04-15T11:53:23.872Z</time></trkpt><trkpt lat="42.6344317" lon="-7.4821917"><ele>382.0</ele><time>2026-04-15T11:53:24.872Z</time></trkpt><trkpt lat="42.634245" lon="-7.48219"><ele>382.3333333333333</ele><time>2026-04-15T11:53:25.871Z</time></trkpt><trkpt lat="42.6340633" lon="-7.4821883"><ele>382.6666666666667</ele><time>2026-04-15T11:53:26.872Z</time></trkpt><trkpt lat="42.6338767" lon="-7.4821817"><ele>383.0</ele><time>2026-04-15T11:53:27.871Z</time></trkpt><trkpt lat="42.6336883" lon="-7.482175"><ele>383.0</ele><time>2026-04-15T11:53:28.871Z</time></trkpt><trkpt lat="42.6334983" lon="-7.48217"><ele>383.0</ele><time>2026-04-15T11:53:29.871Z</time></trkpt><trkpt lat="42.6333" lon="-7.482165"><ele>383.0</ele><time>2026-04-15T11:53:30.871Z</time></trkpt><trkpt lat="42.6331067" lon="-7.4821533"><ele>383.0</ele><time>2026-04-15T11:53:31.872Z</time></trkpt><trkpt lat="42.6329167" lon="-7.4821467"><ele>383.0</ele><time>2026-04-15T11:53:32.872Z</time></trkpt><trkpt lat="42.6327133" lon="-7.4821383"><ele>383.0</ele><time>2026-04-15T11:53:33.871Z</time></trkpt><trkpt lat="42.6325067" lon="-7.4821217"><ele>383.0</ele><time>2026-04-15T11:53:34.871Z</time></trkpt><trkpt lat="42.6323083" lon="-7.4821117"><ele>383.0</ele><time>2026-04-15T11:53:35.872Z</time></trkpt><trkpt lat="42.63211" lon="-7.4821017"><ele>383.0</ele><time>2026-04-15T11:53:36.872Z</time></trkpt><trkpt lat="42.6319167" lon="-7.4820917"><ele>383.0</ele><time>2026-04-15T11:53:37.871Z</time></trkpt><trkpt lat="42.63171" lon="-7.4820717"><ele>383.0</ele><time>2026-04-15T11:53:38.872Z</time></trkpt><trkpt lat="42.6315067" lon="-7.4820583"><ele>383.0</ele><time>2026-04-15T11:53:39.871Z</time></trkpt><trkpt lat="42.6313133" lon="-7.4820517"><ele>381.33333333333337</ele><time>2026-04-15T11:53:40.871Z</time></trkpt><trkpt lat="42.6311233" lon="-7.48205"><ele>379.6666666666667</ele><time>2026-04-15T11:53:41.871Z</time></trkpt><trkpt lat="42.630925" lon="-7.4820433"><ele>378.0</ele><time>2026-04-15T11:53:42.871Z</time></trkpt><trkpt lat="42.63073" lon="-7.4820283"><ele>378.0</ele><time>2026-04-15T11:53:43.871Z</time></trkpt><trkpt lat="42.6305317" lon="-7.48202"><ele>378.0</ele><time>2026-04-15T11:53:44.871Z</time></trkpt><trkpt lat="42.630325" lon="-7.482005"><ele>378.0</ele><time>2026-04-15T11:53:45.871Z</time></trkpt><trkpt lat="42.6301217" lon="-7.4819683"><ele>376.3333333333333</ele><time>2026-04-15T11:53:46.871Z</time></trkpt><trkpt lat="42.6299183" lon="-7.481925"><ele>374.66666666666663</ele><time>2026-04-15T11:53:47.872Z</time></trkpt><trkpt lat="42.6297217" lon="-7.4818733"><ele>373.0</ele><time>2026-04-15T11:53:48.872Z</time></trkpt><trkpt lat="42.6295183" lon="-7.4818133"><ele>371.3333333333333</ele><time>2026-04-15T11:53:49.872Z</time></trkpt><trkpt lat="42.6293283" lon="-7.4817367"><ele>369.6666666666667</ele><time>2026-04-15T11:53:50.871Z</time></trkpt><trkpt lat="42.62914" lon="-7.48166"><ele>368.0</ele><time>2026-04-15T11:53:51.872Z</time></trkpt><trkpt lat="42.6289567" lon="-7.4815783"><ele>368.0</ele><time>2026-04-15T11:53:52.871Z</time></trkpt><trkpt lat="42.6287833" lon="-7.4814733"><ele>368.0</ele><time>2026-04-15T11:53:53.872Z</time></trkpt><trkpt lat="42.6286183" lon="-7.4813733"><ele>368.0</ele><time>2026-04-15T11:53:54.872Z</time></trkpt><trkpt lat="42.6284567" lon="-7.48128"><ele>367.0</ele><time>2026-04-15T11:53:55.872Z</time></trkpt><trkpt lat="42.62832" lon="-7.4811783"><ele>366.0</ele><time>2026-04-15T11:53:56.871Z</time></trkpt><trkpt lat="42.6281983" lon="-7.481085"><ele>365.0</ele><time>2026-04-15T11:53:57.872Z</time></trkpt><trkpt lat="42.6280833" lon="-7.48101"><ele>364.0</ele><time>2026-04-15T11:53:58.871Z</time></trkpt><trkpt lat="42.6279783" lon="-7.4809467"><ele>364.0</ele><time>2026-04-15T11:53:59.871Z</time></trkpt><trkpt lat="42.62787" lon="-7.4809117"><ele>364.0</ele><time>2026-04-15T11:54:00.871Z</time></trkpt><trkpt lat="42.62777" lon="-7.48091"><ele>364.0</ele><time>2026-04-15T11:54:01.871Z</time></trkpt><trkpt lat="42.6276583" lon="-7.4809517"><ele>364.0</ele><time>2026-04-15T11:54:02.872Z</time></trkpt><trkpt lat="42.6275367" lon="-7.4810283"><ele>362.0</ele><time>2026-04-15T11:54:03.872Z</time></trkpt><trkpt lat="42.6274067" lon="-7.481135"><ele>360.0</ele><time>2026-04-15T11:54:04.872Z</time></trkpt><trkpt lat="42.6272667" lon="-7.48126"><ele>358.0</ele><time>2026-04-15T11:54:05.872Z</time></trkpt><trkpt lat="42.6271217" lon="-7.4813867"><ele>358.0</ele><time>2026-04-15T11:54:06.871Z</time></trkpt><trkpt lat="42.6269767" lon="-7.48152"><ele>358.0</ele><time>2026-04-15T11:54:07.871Z</time></trkpt><trkpt lat="42.6268283" lon="-7.4816583"><ele>358.0</ele><time>2026-04-15T11:54:08.871Z</time></trkpt><trkpt lat="42.626685" lon="-7.4817933"><ele>358.0</ele><time>2026-04-15T11:54:09.872Z</time></trkpt><trkpt lat="42.6265283" lon="-7.4819267"><ele>358.0</ele><time>2026-04-15T11:54:10.872Z</time></trkpt><trkpt lat="42.6263817" lon="-7.4820667"><ele>358.0</ele><time>2026-04-15T11:54:11.871Z</time></trkpt><trkpt lat="42.6262283" lon="-7.4822017"><ele>358.0</ele><time>2026-04-15T11:54:12.872Z</time></trkpt><trkpt lat="42.6260667" lon="-7.4823467"><ele>358.0</ele><time>2026-04-15T11:54:13.871Z</time></trkpt><trkpt lat="42.625915" lon="-7.482485"><ele>358.0</ele><time>2026-04-15T11:54:14.872Z</time></trkpt><trkpt lat="42.6257567" lon="-7.4826217"><ele>358.0</ele><time>2026-04-15T11:54:15.871Z</time></trkpt><trkpt lat="42.62561" lon="-7.4827517"><ele>358.0</ele><time>2026-04-15T11:54:16.871Z</time></trkpt><trkpt lat="42.6254667" lon="-7.4828783"><ele>358.0</ele><time>2026-04-15T11:54:17.872Z</time></trkpt><trkpt lat="42.62533" lon="-7.483005"><ele>357.0</ele><time>2026-04-15T11:54:18.872Z</time></trkpt><trkpt lat="42.625185" lon="-7.4831383"><ele>356.0</ele><time>2026-04-15T11:54:19.871Z</time></trkpt><trkpt lat="42.6250333" lon="-7.4832767"><ele>355.0</ele><time>2026-04-15T11:54:20.872Z</time></trkpt><trkpt lat="42.6248817" lon="-7.483415"><ele>355.0</ele><time>2026-04-15T11:54:21.871Z</time></trkpt><trkpt lat="42.6247233" lon="-7.48355"><ele>355.0</ele><time>2026-04-15T11:54:22.872Z</time></trkpt><trkpt lat="42.6245783" lon="-7.4836867"><ele>355.0</ele><time>2026-04-15T11:54:23.872Z</time></trkpt><trkpt lat="42.6244267" lon="-7.483815"><ele>354.66666666666663</ele><time>2026-04-15T11:54:24.872Z</time></trkpt><trkpt lat="42.6242833" lon="-7.4839467"><ele>354.3333333333333</ele><time>2026-04-15T11:54:25.872Z</time></trkpt><trkpt lat="42.6241433" lon="-7.4840883"><ele>354.0</ele><time>2026-04-15T11:54:26.871Z</time></trkpt><trkpt lat="42.6240167" lon="-7.484195"><ele>354.0</ele><time>2026-04-15T11:54:27.872Z</time></trkpt><trkpt lat="42.6238967" lon="-7.48429"><ele>354.0</ele><time>2026-04-15T11:54:28.872Z</time></trkpt><trkpt lat="42.6237783" lon="-7.4844"><ele>354.0</ele><time>2026-04-15T11:54:29.871Z</time></trkpt><trkpt lat="42.623655" lon="-7.4845067"><ele>354.0</ele><time>2026-04-15T11:54:30.872Z</time></trkpt><trkpt lat="42.6235317" lon="-7.4846183"><ele>354.0</ele><time>2026-04-15T11:54:31.871Z</time></trkpt><trkpt lat="42.6233917" lon="-7.48475"><ele>354.0</ele><time>2026-04-15T11:54:32.872Z</time></trkpt><trkpt lat="42.62325" lon="-7.4848767"><ele>354.0</ele><time>2026-04-15T11:54:33.872Z</time></trkpt><trkpt lat="42.62311" lon="-7.48501"><ele>354.0</ele><time>2026-04-15T11:54:34.872Z</time></trkpt><trkpt lat="42.6229567" lon="-7.4851583"><ele>354.0</ele><time>2026-04-15T11:54:35.871Z</time></trkpt><trkpt lat="42.622805" lon="-7.48529"><ele>354.0</ele><time>2026-04-15T11:54:36.872Z</time></trkpt><trkpt lat="42.6226583" lon="-7.4854267"><ele>354.6666666666667</ele><time>2026-04-15T11:54:37.871Z</time></trkpt><trkpt lat="42.6225067" lon="-7.48556"><ele>355.33333333333337</ele><time>2026-04-15T11:54:38.872Z</time></trkpt><trkpt lat="42.62236" lon="-7.48568"><ele>356.0</ele><time>2026-04-15T11:54:39.871Z</time></trkpt><trkpt lat="42.622225" lon="-7.4858033"><ele>356.0</ele><time>2026-04-15T11:54:40.871Z</time></trkpt><trkpt lat="42.6220817" lon="-7.4859217"><ele>356.0</ele><time>2026-04-15T11:54:41.871Z</time></trkpt><trkpt lat="42.6219483" lon="-7.4860417"><ele>356.0</ele><time>2026-04-15T11:54:42.872Z</time></trkpt><trkpt lat="42.6218083" lon="-7.486165"><ele>355.6666666666667</ele><time>2026-04-15T11:54:43.871Z</time></trkpt><trkpt lat="42.6216733" lon="-7.4862933"><ele>355.3333333333333</ele><time>2026-04-15T11:54:44.871Z</time></trkpt><trkpt lat="42.6215383" lon="-7.4864217"><ele>355.0</ele><time>2026-04-15T11:54:45.872Z</time></trkpt><trkpt lat="42.6214017" lon="-7.4865483"><ele>355.0</ele><time>2026-04-15T11:54:46.871Z</time></trkpt><trkpt lat="42.621255" lon="-7.486655"><ele>355.0</ele><time>2026-04-15T11:54:47.872Z</time></trkpt><trkpt lat="42.621095" lon="-7.486745"><ele>355.0</ele><time>2026-04-15T11:54:48.871Z</time></trkpt><trkpt lat="42.6209333" lon="-7.486825"><ele>354.66666666666663</ele><time>2026-04-15T11:54:49.871Z</time></trkpt><trkpt lat="42.620765" lon="-7.4869"><ele>354.3333333333333</ele><time>2026-04-15T11:54:50.871Z</time></trkpt><trkpt lat="42.62059" lon="-7.4869733"><ele>354.0</ele><time>2026-04-15T11:54:51.871Z</time></trkpt><trkpt lat="42.6204133" lon="-7.4870267"><ele>354.3333333333333</ele><time>2026-04-15T11:54:52.871Z</time></trkpt><trkpt lat="42.6202383" lon="-7.4870867"><ele>354.66666666666663</ele><time>2026-04-15T11:54:53.871Z</time></trkpt><trkpt lat="42.6200617" lon="-7.487155"><ele>355.0</ele><time>2026-04-15T11:54:54.872Z</time></trkpt><trkpt lat="42.6198933" lon="-7.4872117"><ele>355.3333333333333</ele><time>2026-04-15T11:54:55.872Z</time></trkpt><trkpt lat="42.6197167" lon="-7.4872633"><ele>355.6666666666667</ele><time>2026-04-15T11:54:56.871Z</time></trkpt><trkpt lat="42.619545" lon="-7.4873183"><ele>356.0</ele><time>2026-04-15T11:54:57.871Z</time></trkpt><trkpt lat="42.6193783" lon="-7.4873617"><ele>356.0</ele><time>2026-04-15T11:54:58.872Z</time></trkpt><trkpt lat="42.6192067" lon="-7.4873983"><ele>356.0</ele><time>2026-04-15T11:54:59.872Z</time></trkpt><trkpt lat="42.619035" lon="-7.4874083"><ele>356.0</ele><time>2026-04-15T11:55:00.871Z</time></trkpt><trkpt lat="42.6188533" lon="-7.4873967"><ele>356.0</ele><time>2026-04-15T11:55:01.872Z</time></trkpt><trkpt lat="42.6186733" lon="-7.487375"><ele>356.0</ele><time>2026-04-15T11:55:02.872Z</time></trkpt><trkpt lat="42.6184967" lon="-7.48735"><ele>356.0</ele><time>2026-04-15T11:55:03.872Z</time></trkpt><trkpt lat="42.6183117" lon="-7.48733"><ele>355.6666666666667</ele><time>2026-04-15T11:55:04.871Z</time></trkpt><trkpt lat="42.618125" lon="-7.487295"><ele>355.3333333333333</ele><time>2026-04-15T11:55:05.871Z</time></trkpt><trkpt lat="42.61794" lon="-7.4872583"><ele>355.0</ele><time>2026-04-15T11:55:06.872Z</time></trkpt><trkpt lat="42.6177533" lon="-7.4872217"><ele>354.3333333333333</ele><time>2026-04-15T11:55:07.872Z</time></trkpt><trkpt lat="42.6175733" lon="-7.4871917"><ele>353.6666666666667</ele><time>2026-04-15T11:55:08.871Z</time></trkpt><trkpt lat="42.6173883" lon="-7.4871583"><ele>353.0</ele><time>2026-04-15T11:55:09.871Z</time></trkpt><trkpt lat="42.617205" lon="-7.4871233"><ele>353.0</ele><time>2026-04-15T11:55:10.872Z</time></trkpt><trkpt lat="42.61702" lon="-7.4870967"><ele>353.0</ele><time>2026-04-15T11:55:11.871Z</time></trkpt><trkpt lat="42.616835" lon="-7.48706"><ele>353.0</ele><time>2026-04-15T11:55:12.872Z</time></trkpt><trkpt lat="42.6166483" lon="-7.4870233"><ele>353.0</ele><time>2026-04-15T11:55:13.872Z</time></trkpt><trkpt lat="42.6164683" lon="-7.4869917"><ele>353.0</ele><time>2026-04-15T11:55:14.871Z</time></trkpt><trkpt lat="42.6162867" lon="-7.4869567"><ele>353.0</ele><time>2026-04-15T11:55:15.871Z</time></trkpt><trkpt lat="42.6161117" lon="-7.48693"><ele>353.0</ele><time>2026-04-15T11:55:16.872Z</time></trkpt><trkpt lat="42.6159367" lon="-7.4869017"><ele>353.0</ele><time>2026-04-15T11:55:17.872Z</time></trkpt><trkpt lat="42.61576" lon="-7.48688"><ele>353.0</ele><time>2026-04-15T11:55:18.872Z</time></trkpt><trkpt lat="42.6155833" lon="-7.48686"><ele>353.0</ele><time>2026-04-15T11:55:19.872Z</time></trkpt><trkpt lat="42.6154117" lon="-7.4868317"><ele>353.0</ele><time>2026-04-15T11:55:20.872Z</time></trkpt><trkpt lat="42.6152367" lon="-7.486805"><ele>353.0</ele><time>2026-04-15T11:55:21.872Z</time></trkpt><trkpt lat="42.61506" lon="-7.4867833"><ele>353.0</ele><time>2026-04-15T11:55:22.871Z</time></trkpt><trkpt lat="42.6148883" lon="-7.486755"><ele>353.0</ele><time>2026-04-15T11:55:23.871Z</time></trkpt><trkpt lat="42.6147117" lon="-7.4867267"><ele>353.0</ele><time>2026-04-15T11:55:24.871Z</time></trkpt><trkpt lat="42.6145333" lon="-7.486695"><ele>353.0</ele><time>2026-04-15T11:55:25.872Z</time></trkpt><trkpt lat="42.61435" lon="-7.486665"><ele>353.0</ele><time>2026-04-15T11:55:26.871Z</time></trkpt><trkpt lat="42.6141733" lon="-7.486635"><ele>353.0</ele><time>2026-04-15T11:55:27.871Z</time></trkpt><trkpt lat="42.6139967" lon="-7.4866017"><ele>353.0</ele><time>2026-04-15T11:55:28.872Z</time></trkpt><trkpt lat="42.6138133" lon="-7.4865733"><ele>353.0</ele><time>2026-04-15T11:55:29.872Z</time></trkpt><trkpt lat="42.61363" lon="-7.48655"><ele>353.0</ele><time>2026-04-15T11:55:30.871Z</time></trkpt><trkpt lat="42.61345" lon="-7.4865167"><ele>352.6666666666667</ele><time>2026-04-15T11:55:31.871Z</time></trkpt><trkpt lat="42.6132667" lon="-7.48648"><ele>352.3333333333333</ele><time>2026-04-15T11:55:32.872Z</time></trkpt><trkpt lat="42.6130783" lon="-7.486445"><ele>352.0</ele><time>2026-04-15T11:55:33.872Z</time></trkpt><trkpt lat="42.612885" lon="-7.486415"><ele>352.0</ele><time>2026-04-15T11:55:34.872Z</time></trkpt><trkpt lat="42.6127033" lon="-7.4863917"><ele>352.0</ele><time>2026-04-15T11:55:35.871Z</time></trkpt><trkpt lat="42.612515" lon="-7.4863533"><ele>352.0</ele><time>2026-04-15T11:55:36.872Z</time></trkpt><trkpt lat="42.61233" lon="-7.4863233"><ele>352.0</ele><time>2026-04-15T11:55:37.872Z</time></trkpt><trkpt lat="42.61214" lon="-7.4862967"><ele>352.0</ele><time>2026-04-15T11:55:38.871Z</time></trkpt><trkpt lat="42.61196" lon="-7.4862683"><ele>352.0</ele><time>2026-04-15T11:55:39.872Z</time></trkpt><trkpt lat="42.6117833" lon="-7.4862283"><ele>351.3333333333333</ele><time>2026-04-15T11:55:40.871Z</time></trkpt><trkpt lat="42.6115917" lon="-7.48619"><ele>350.6666666666667</ele><time>2026-04-15T11:55:41.871Z</time></trkpt><trkpt lat="42.6114033" lon="-7.4861483"><ele>350.0</ele><time>2026-04-15T11:55:42.871Z</time></trkpt><trkpt lat="42.6112233" lon="-7.4861017"><ele>350.6666666666667</ele><time>2026-04-15T11:55:43.871Z</time></trkpt><trkpt lat="42.6110417" lon="-7.4860467"><ele>351.3333333333333</ele><time>2026-04-15T11:55:44.871Z</time></trkpt><trkpt lat="42.6108667" lon="-7.4859867"><ele>352.0</ele><time>2026-04-15T11:55:45.871Z</time></trkpt><trkpt lat="42.6106983" lon="-7.4859133"><ele>352.0</ele><time>2026-04-15T11:55:46.872Z</time></trkpt><trkpt lat="42.6105233" lon="-7.48584"><ele>352.0</ele><time>2026-04-15T11:55:47.871Z</time></trkpt><trkpt lat="42.6103517" lon="-7.4857717"><ele>352.0</ele><time>2026-04-15T11:55:48.871Z</time></trkpt><trkpt lat="42.6101833" lon="-7.4857017"><ele>352.0</ele><time>2026-04-15T11:55:49.871Z</time></trkpt><trkpt lat="42.6100083" lon="-7.4856283"><ele>352.0</ele><time>2026-04-15T11:55:50.871Z</time></trkpt><trkpt lat="42.609835" lon="-7.4855617"><ele>352.0</ele><time>2026-04-15T11:55:51.872Z</time></trkpt><trkpt lat="42.60966" lon="-7.48549"><ele>351.0</ele><time>2026-04-15T11:55:52.871Z</time></trkpt><trkpt lat="42.6094833" lon="-7.4854067"><ele>350.0</ele><time>2026-04-15T11:55:53.871Z</time></trkpt><trkpt lat="42.6093033" lon="-7.4853283"><ele>349.0</ele><time>2026-04-15T11:55:54.871Z</time></trkpt><trkpt lat="42.609125" lon="-7.4852433"><ele>349.0</ele><time>2026-04-15T11:55:55.871Z</time></trkpt><trkpt lat="42.6089517" lon="-7.4851583"><ele>349.0</ele><time>2026-04-15T11:55:56.871Z</time></trkpt><trkpt lat="42.6087783" lon="-7.4850667"><ele>349.0</ele><time>2026-04-15T11:55:57.871Z</time></trkpt><trkpt lat="42.6086017" lon="-7.484975"><ele>349.3333333333333</ele><time>2026-04-15T11:55:58.871Z</time></trkpt><trkpt lat="42.6084117" lon="-7.4848767"><ele>349.6666666666667</ele><time>2026-04-15T11:55:59.871Z</time></trkpt><trkpt lat="42.6082267" lon="-7.4847717"><ele>350.0</ele><time>2026-04-15T11:56:00.871Z</time></trkpt><trkpt lat="42.6080417" lon="-7.484675"><ele>349.6666666666667</ele><time>2026-04-15T11:56:01.871Z</time></trkpt><trkpt lat="42.6078617" lon="-7.4845633"><ele>349.3333333333333</ele><time>2026-04-15T11:56:02.872Z</time></trkpt><trkpt lat="42.607685" lon="-7.48446"><ele>349.0</ele><time>2026-04-15T11:56:03.871Z</time></trkpt><trkpt lat="42.60751" lon="-7.4843767"><ele>349.0</ele><time>2026-04-15T11:56:04.872Z</time></trkpt><trkpt lat="42.6073333" lon="-7.4842683"><ele>349.0</ele><time>2026-04-15T11:56:05.872Z</time></trkpt><trkpt lat="42.6071483" lon="-7.4841683"><ele>349.0</ele><time>2026-04-15T11:56:06.872Z</time></trkpt><trkpt lat="42.60697" lon="-7.4840633"><ele>349.3333333333333</ele><time>2026-04-15T11:56:07.871Z</time></trkpt><trkpt lat="42.6067867" lon="-7.483955"><ele>349.6666666666667</ele><time>2026-04-15T11:56:08.872Z</time></trkpt><trkpt lat="42.6065983" lon="-7.483835"><ele>350.0</ele><time>2026-04-15T11:56:09.871Z</time></trkpt><trkpt lat="42.6064133" lon="-7.48372"><ele>349.33333333333337</ele><time>2026-04-15T11:56:10.872Z</time></trkpt><trkpt lat="42.6062217" lon="-7.48361"><ele>348.6666666666667</ele><time>2026-04-15T11:56:11.872Z</time></trkpt><trkpt lat="42.6060233" lon="-7.483505"><ele>348.0</ele><time>2026-04-15T11:56:12.871Z</time></trkpt><trkpt lat="42.6058383" lon="-7.48341"><ele>348.0</ele><time>2026-04-15T11:56:13.872Z</time></trkpt><trkpt lat="42.6056567" lon="-7.48332"><ele>348.0</ele><time>2026-04-15T11:56:14.871Z</time></trkpt><trkpt lat="42.605475" lon="-7.4832667"><ele>348.0</ele><time>2026-04-15T11:56:15.871Z</time></trkpt><trkpt lat="42.6052967" lon="-7.48325"><ele>348.0</ele><time>2026-04-15T11:56:16.872Z</time></trkpt><trkpt lat="42.6051117" lon="-7.48326"><ele>348.0</ele><time>2026-04-15T11:56:17.872Z</time></trkpt><trkpt lat="42.604935" lon="-7.48332"><ele>348.0</ele><time>2026-04-15T11:56:18.872Z</time></trkpt><trkpt lat="42.6047683" lon="-7.483425"><ele>348.0</ele><time>2026-04-15T11:56:19.872Z</time></trkpt><trkpt lat="42.6046167" lon="-7.483565"><ele>348.0</ele><time>2026-04-15T11:56:20.872Z</time></trkpt><trkpt lat="42.6044533" lon="-7.48371"><ele>348.0</ele><time>2026-04-15T11:56:21.871Z</time></trkpt><trkpt lat="42.604285" lon="-7.483835"><ele>349.0</ele><time>2026-04-15T11:56:22.872Z</time></trkpt><trkpt lat="42.6040883" lon="-7.483935"><ele>350.0</ele><time>2026-04-15T11:56:23.871Z</time></trkpt><trkpt lat="42.6038683" lon="-7.4840017"><ele>351.0</ele><time>2026-04-15T11:56:24.871Z</time></trkpt><trkpt lat="42.6036417" lon="-7.4840317"><ele>351.5</ele><time>2026-04-15T11:56:25.872Z</time></trkpt><trkpt lat="42.6033867" lon="-7.4840383"><ele>352.0</ele><time>2026-04-15T11:56:26.871Z</time></trkpt><trkpt lat="42.603135" lon="-7.4840417"><ele>352.0</ele><time>2026-04-15T11:56:27.871Z</time></trkpt><trkpt lat="42.6028917" lon="-7.4840683"><ele>352.0</ele><time>2026-04-15T11:56:28.871Z</time></trkpt><trkpt lat="42.6026583" lon="-7.4840817"><ele>354.0</ele><time>2026-04-15T11:56:29.871Z</time></trkpt><trkpt lat="42.6024283" lon="-7.4841167"><ele>356.0</ele><time>2026-04-15T11:56:30.871Z</time></trkpt><trkpt lat="42.6022083" lon="-7.484165"><ele>357.0</ele><time>2026-04-15T11:56:31.871Z</time></trkpt><trkpt lat="42.6019933" lon="-7.4842217"><ele>358.0</ele><time>2026-04-15T11:56:32.872Z</time></trkpt><trkpt lat="42.6017767" lon="-7.48429"><ele>359.0</ele><time>2026-04-15T11:56:33.872Z</time></trkpt><trkpt lat="42.6015767" lon="-7.484385"><ele>359.0</ele><time>2026-04-15T11:56:34.872Z</time></trkpt><trkpt lat="42.6013767" lon="-7.484485"><ele>359.0</ele><time>2026-04-15T11:56:35.871Z</time></trkpt><trkpt lat="42.60118" lon="-7.4845967"><ele>359.0</ele><time>2026-04-15T11:56:36.872Z</time></trkpt><trkpt lat="42.60099" lon="-7.4847167"><ele>361.33333333333337</ele><time>2026-04-15T11:56:37.871Z</time></trkpt><trkpt lat="42.6007967" lon="-7.4848317"><ele>363.6666666666667</ele><time>2026-04-15T11:56:38.871Z</time></trkpt><trkpt lat="42.6006083" lon="-7.48494"><ele>366.0</ele><time>2026-04-15T11:56:39.871Z</time></trkpt><trkpt lat="42.60041" lon="-7.4850283"><ele>365.3333333333333</ele><time>2026-04-15T11:56:40.872Z</time></trkpt><trkpt lat="42.600215" lon="-7.4851133"><ele>364.66666666666663</ele><time>2026-04-15T11:56:41.872Z</time></trkpt><trkpt lat="42.6000183" lon="-7.4851583"><ele>364.0</ele><time>2026-04-15T11:56:42.872Z</time></trkpt><trkpt lat="42.599815" lon="-7.4851717"><ele>364.0</ele><time>2026-04-15T11:56:43.872Z</time></trkpt><trkpt lat="42.5996033" lon="-7.4851717"><ele>364.0</ele><time>2026-04-15T11:56:44.871Z</time></trkpt><trkpt lat="42.59939" lon="-7.4851583"><ele>364.0</ele><time>2026-04-15T11:56:45.872Z</time></trkpt><trkpt lat="42.5991767" lon="-7.48514"><ele>363.3333333333333</ele><time>2026-04-15T11:56:46.872Z</time></trkpt><trkpt lat="42.59896" lon="-7.4851367"><ele>362.6666666666667</ele><time>2026-04-15T11:56:47.872Z</time></trkpt><trkpt lat="42.5987483" lon="-7.4851217"><ele>362.0</ele><time>2026-04-15T11:56:48.871Z</time></trkpt><trkpt lat="42.5985267" lon="-7.4851117"><ele>361.6666666666667</ele><time>2026-04-15T11:56:49.872Z</time></trkpt><trkpt lat="42.598305" lon="-7.4851067"><ele>361.3333333333333</ele><time>2026-04-15T11:56:50.871Z</time></trkpt><trkpt lat="42.5980917" lon="-7.4850983"><ele>361.0</ele><time>2026-04-15T11:56:51.871Z</time></trkpt><trkpt lat="42.5978783" lon="-7.485095"><ele>361.66666666666663</ele><time>2026-04-15T11:56:52.872Z</time></trkpt><trkpt lat="42.59766" lon="-7.4850833"><ele>362.3333333333333</ele><time>2026-04-15T11:56:53.871Z</time></trkpt><trkpt lat="42.597445" lon="-7.4850733"><ele>363.0</ele><time>2026-04-15T11:56:54.872Z</time></trkpt><trkpt lat="42.597235" lon="-7.4850667"><ele>363.0</ele><time>2026-04-15T11:56:55.871Z</time></trkpt><trkpt lat="42.5970233" lon="-7.48506"><ele>363.0</ele><time>2026-04-15T11:56:56.871Z</time></trkpt><trkpt lat="42.596805" lon="-7.4850517"><ele>363.0</ele><time>2026-04-15T11:56:57.872Z</time></trkpt><trkpt lat="42.5965867" lon="-7.48504"><ele>362.3333333333333</ele><time>2026-04-15T11:56:58.872Z</time></trkpt><trkpt lat="42.59637" lon="-7.485035"><ele>361.66666666666663</ele><time>2026-04-15T11:56:59.871Z</time></trkpt><trkpt lat="42.59615" lon="-7.485025"><ele>361.0</ele><time>2026-04-15T11:57:00.872Z</time></trkpt><trkpt lat="42.5959317" lon="-7.4850133"><ele>361.0</ele><time>2026-04-15T11:57:01.872Z</time></trkpt><trkpt lat="42.5957167" lon="-7.485005"><ele>361.0</ele><time>2026-04-15T11:57:02.872Z</time></trkpt><trkpt lat="42.5955017" lon="-7.48499"><ele>361.0</ele><time>2026-04-15T11:57:03.871Z</time></trkpt><trkpt lat="42.5952867" lon="-7.4849833"><ele>361.3333333333333</ele><time>2026-04-15T11:57:04.871Z</time></trkpt><trkpt lat="42.5950717" lon="-7.4849833"><ele>361.6666666666667</ele><time>2026-04-15T11:57:05.871Z</time></trkpt><trkpt lat="42.59485" lon="-7.48499"><ele>362.0</ele><time>2026-04-15T11:57:06.872Z</time></trkpt><trkpt lat="42.594635" lon="-7.48501"><ele>362.33333333333337</ele><time>2026-04-15T11:57:07.871Z</time></trkpt><trkpt lat="42.59443" lon="-7.4850583"><ele>362.6666666666667</ele><time>2026-04-15T11:57:08.872Z</time></trkpt><trkpt lat="42.5942217" lon="-7.48512"><ele>363.0</ele><time>2026-04-15T11:57:09.872Z</time></trkpt><trkpt lat="42.5940133" lon="-7.485175"><ele>363.0</ele><time>2026-04-15T11:57:10.871Z</time></trkpt><trkpt lat="42.593805" lon="-7.4852333"><ele>363.0</ele><time>2026-04-15T11:57:11.871Z</time></trkpt><trkpt lat="42.593595" lon="-7.48528"><ele>363.0</ele><time>2026-04-15T11:57:12.871Z</time></trkpt><trkpt lat="42.5933817" lon="-7.4853067"><ele>362.6666666666667</ele><time>2026-04-15T11:57:13.872Z</time></trkpt><trkpt lat="42.5931667" lon="-7.485305"><ele>362.33333333333337</ele><time>2026-04-15T11:57:14.872Z</time></trkpt><trkpt lat="42.592955" lon="-7.4852917"><ele>362.0</ele><time>2026-04-15T11:57:15.871Z</time></trkpt><trkpt lat="42.5927467" lon="-7.4852567"><ele>363.33333333333337</ele><time>2026-04-15T11:57:16.871Z</time></trkpt><trkpt lat="42.59254" lon="-7.4851917"><ele>364.6666666666667</ele><time>2026-04-15T11:57:17.871Z</time></trkpt><trkpt lat="42.59233" lon="-7.4851183"><ele>366.0</ele><time>2026-04-15T11:57:18.872Z</time></trkpt><trkpt lat="42.5921117" lon="-7.4850383"><ele>368.3333333333333</ele><time>2026-04-15T11:57:19.872Z</time></trkpt><trkpt lat="42.591895" lon="-7.48496"><ele>370.66666666666663</ele><time>2026-04-15T11:57:20.873Z</time></trkpt><trkpt lat="42.59168" lon="-7.4849"><ele>373.0</ele><time>2026-04-15T11:57:21.872Z</time></trkpt><trkpt lat="42.591465" lon="-7.4848617"><ele>373.0</ele><time>2026-04-15T11:57:22.872Z</time></trkpt><trkpt lat="42.591245" lon="-7.4848333"><ele>373.0</ele><time>2026-04-15T11:57:23.872Z</time></trkpt><trkpt lat="42.5910233" lon="-7.4848217"><ele>373.0</ele><time>2026-04-15T11:57:24.873Z</time></trkpt><trkpt lat="42.5908067" lon="-7.4848117"><ele>373.3333333333333</ele><time>2026-04-15T11:57:25.872Z</time></trkpt><trkpt lat="42.5906017" lon="-7.4848"><ele>373.6666666666667</ele><time>2026-04-15T11:57:26.873Z</time></trkpt><trkpt lat="42.59039" lon="-7.48479"><ele>374.0</ele><time>2026-04-15T11:57:27.873Z</time></trkpt><trkpt lat="42.590175" lon="-7.484785"><ele>373.0</ele><time>2026-04-15T11:57:28.872Z</time></trkpt><trkpt lat="42.589965" lon="-7.48478"><ele>372.0</ele><time>2026-04-15T11:57:29.873Z</time></trkpt><trkpt lat="42.5897567" lon="-7.4847817"><ele>371.0</ele><time>2026-04-15T11:57:30.873Z</time></trkpt><trkpt lat="42.5895467" lon="-7.4847867"><ele>371.0</ele><time>2026-04-15T11:57:31.873Z</time></trkpt><trkpt lat="42.58934" lon="-7.484805"><ele>371.0</ele><time>2026-04-15T11:57:32.873Z</time></trkpt><trkpt lat="42.5891317" lon="-7.4848333"><ele>371.0</ele><time>2026-04-15T11:57:33.872Z</time></trkpt><trkpt lat="42.5889217" lon="-7.4848833"><ele>371.0</ele><time>2026-04-15T11:57:34.872Z</time></trkpt><trkpt lat="42.5887117" lon="-7.4849517"><ele>371.0</ele><time>2026-04-15T11:57:35.872Z</time></trkpt><trkpt lat="42.58851" lon="-7.4850317"><ele>371.0</ele><time>2026-04-15T11:57:36.872Z</time></trkpt><trkpt lat="42.5883133" lon="-7.48513"><ele>369.33333333333337</ele><time>2026-04-15T11:57:37.873Z</time></trkpt><trkpt lat="42.5881183" lon="-7.48524"><ele>367.6666666666667</ele><time>2026-04-15T11:57:38.872Z</time></trkpt><trkpt lat="42.5879233" lon="-7.485355"><ele>366.0</ele><time>2026-04-15T11:57:39.872Z</time></trkpt><trkpt lat="42.58773" lon="-7.4854667"><ele>364.6666666666667</ele><time>2026-04-15T11:57:40.873Z</time></trkpt><trkpt lat="42.58753" lon="-7.4855833"><ele>363.33333333333337</ele><time>2026-04-15T11:57:41.873Z</time></trkpt><trkpt lat="42.58733" lon="-7.48571"><ele>362.0</ele><time>2026-04-15T11:57:42.872Z</time></trkpt><trkpt lat="42.5871283" lon="-7.4858383"><ele>357.5</ele><time>2026-04-15T11:57:43.872Z</time></trkpt><trkpt lat="42.58692" lon="-7.4859633"><ele>353.0</ele><time>2026-04-15T11:57:44.872Z</time></trkpt><trkpt lat="42.5867133" lon="-7.486105"><ele>353.0</ele><time>2026-04-15T11:57:45.873Z</time></trkpt><trkpt lat="42.5865083" lon="-7.48624"><ele>353.0</ele><time>2026-04-15T11:57:46.872Z</time></trkpt><trkpt lat="42.5862967" lon="-7.4863767"><ele>349.5</ele><time>2026-04-15T11:57:47.872Z</time></trkpt><trkpt lat="42.5860883" lon="-7.4865117"><ele>346.0</ele><time>2026-04-15T11:57:48.872Z</time></trkpt><trkpt lat="42.5858783" lon="-7.4866517"><ele>346.0</ele><time>2026-04-15T11:57:49.873Z</time></trkpt><trkpt lat="42.5856667" lon="-7.486785"><ele>346.0</ele><time>2026-04-15T11:57:50.872Z</time></trkpt><trkpt lat="42.5854583" lon="-7.4869083"><ele>343.0</ele><time>2026-04-15T11:57:51.873Z</time></trkpt><trkpt lat="42.5852517" lon="-7.4870383"><ele>340.0</ele><time>2026-04-15T11:57:52.873Z</time></trkpt><trkpt lat="42.5850433" lon="-7.4871733"><ele>340.0</ele><time>2026-04-15T11:57:53.873Z</time></trkpt><trkpt lat="42.5848367" lon="-7.4873083"><ele>340.0</ele><time>2026-04-15T11:57:54.872Z</time></trkpt><trkpt lat="42.58463" lon="-7.4874383"><ele>337.5</ele><time>2026-04-15T11:57:55.872Z</time></trkpt><trkpt lat="42.5844217" lon="-7.487565"><ele>335.0</ele><time>2026-04-15T11:57:56.872Z</time></trkpt><trkpt lat="42.584215" lon="-7.4876983"><ele>335.0</ele><time>2026-04-15T11:57:57.873Z</time></trkpt><trkpt lat="42.584005" lon="-7.4878233"><ele>335.0</ele><time>2026-04-15T11:57:58.872Z</time></trkpt><trkpt lat="42.5838017" lon="-7.4879533"><ele>334.6666666666667</ele><time>2026-04-15T11:57:59.873Z</time></trkpt><trkpt lat="42.5835983" lon="-7.488085"><ele>334.3333333333333</ele><time>2026-04-15T11:58:00.873Z</time></trkpt><trkpt lat="42.583395" lon="-7.4882133"><ele>334.0</ele><time>2026-04-15T11:58:01.873Z</time></trkpt><trkpt lat="42.583195" lon="-7.4883417"><ele>334.0</ele><time>2026-04-15T11:58:02.872Z</time></trkpt><trkpt lat="42.5829883" lon="-7.4884617"><ele>334.0</ele><time>2026-04-15T11:58:03.873Z</time></trkpt><trkpt lat="42.5827883" lon="-7.4885933"><ele>334.0</ele><time>2026-04-15T11:58:04.873Z</time></trkpt><trkpt lat="42.5825867" lon="-7.48873"><ele>333.3333333333333</ele><time>2026-04-15T11:58:05.872Z</time></trkpt><trkpt lat="42.58239" lon="-7.4888567"><ele>332.6666666666667</ele><time>2026-04-15T11:58:06.872Z</time></trkpt><trkpt lat="42.5821883" lon="-7.4889817"><ele>332.0</ele><time>2026-04-15T11:58:07.872Z</time></trkpt><trkpt lat="42.58198" lon="-7.489105"><ele>330.5</ele><time>2026-04-15T11:58:08.873Z</time></trkpt><trkpt lat="42.581775" lon="-7.489235"><ele>329.0</ele><time>2026-04-15T11:58:09.872Z</time></trkpt><trkpt lat="42.5815683" lon="-7.4893667"><ele>329.0</ele><time>2026-04-15T11:58:10.873Z</time></trkpt><trkpt lat="42.5813683" lon="-7.4894933"><ele>329.0</ele><time>2026-04-15T11:58:11.873Z</time></trkpt><trkpt lat="42.581165" lon="-7.4896267"><ele>329.0</ele><time>2026-04-15T11:58:12.872Z</time></trkpt><trkpt lat="42.5809683" lon="-7.4897533"><ele>328.33333333333337</ele><time>2026-04-15T11:58:13.873Z</time></trkpt><trkpt lat="42.5807717" lon="-7.489875"><ele>327.6666666666667</ele><time>2026-04-15T11:58:14.873Z</time></trkpt><trkpt lat="42.5805717" lon="-7.4900033"><ele>327.0</ele><time>2026-04-15T11:58:15.873Z</time></trkpt><trkpt lat="42.580375" lon="-7.4901317"><ele>326.3333333333333</ele><time>2026-04-15T11:58:16.872Z</time></trkpt><trkpt lat="42.5801767" lon="-7.4902667"><ele>325.66666666666663</ele><time>2026-04-15T11:58:17.872Z</time></trkpt><trkpt lat="42.5799717" lon="-7.4903933"><ele>325.0</ele><time>2026-04-15T11:58:18.872Z</time></trkpt><trkpt lat="42.57977" lon="-7.490525"><ele>325.0</ele><time>2026-04-15T11:58:19.873Z</time></trkpt><trkpt lat="42.5795633" lon="-7.490645"><ele>325.0</ele><time>2026-04-15T11:58:20.872Z</time></trkpt><trkpt lat="42.57935" lon="-7.4907633"><ele>324.3333333333333</ele><time>2026-04-15T11:58:21.872Z</time></trkpt><trkpt lat="42.5791517" lon="-7.4908933"><ele>323.6666666666667</ele><time>2026-04-15T11:58:22.873Z</time></trkpt><trkpt lat="42.5789517" lon="-7.4910217"><ele>323.0</ele><time>2026-04-15T11:58:23.873Z</time></trkpt><trkpt lat="42.5787517" lon="-7.49115"><ele>322.0</ele><time>2026-04-15T11:58:24.873Z</time></trkpt><trkpt lat="42.57855" lon="-7.4912867"><ele>321.0</ele><time>2026-04-15T11:58:25.873Z</time></trkpt><trkpt lat="42.5783517" lon="-7.4914167"><ele>320.0</ele><time>2026-04-15T11:58:26.873Z</time></trkpt><trkpt lat="42.5781567" lon="-7.4915417"><ele>320.0</ele><time>2026-04-15T11:58:27.872Z</time></trkpt><trkpt lat="42.5779533" lon="-7.491665"><ele>320.0</ele><time>2026-04-15T11:58:28.872Z</time></trkpt><trkpt lat="42.5777533" lon="-7.4917867"><ele>320.0</ele><time>2026-04-15T11:58:29.872Z</time></trkpt><trkpt lat="42.5775617" lon="-7.49191"><ele>320.6666666666667</ele><time>2026-04-15T11:58:30.872Z</time></trkpt><trkpt lat="42.5773633" lon="-7.4920433"><ele>321.3333333333333</ele><time>2026-04-15T11:58:31.872Z</time></trkpt><trkpt lat="42.5771733" lon="-7.492175"><ele>322.0</ele><time>2026-04-15T11:58:32.872Z</time></trkpt><trkpt lat="42.576985" lon="-7.4923183"><ele>323.0</ele><time>2026-04-15T11:58:33.873Z</time></trkpt><trkpt lat="42.5767983" lon="-7.4924583"><ele>324.0</ele><time>2026-04-15T11:58:34.873Z</time></trkpt><trkpt lat="42.576615" lon="-7.492615"><ele>325.0</ele><time>2026-04-15T11:58:35.873Z</time></trkpt><trkpt lat="42.5764383" lon="-7.4927783"><ele>324.66666666666663</ele><time>2026-04-15T11:58:36.872Z</time></trkpt><trkpt lat="42.576265" lon="-7.4929417"><ele>324.3333333333333</ele><time>2026-04-15T11:58:37.873Z</time></trkpt><trkpt lat="42.5760883" lon="-7.4931233"><ele>324.0</ele><time>2026-04-15T11:58:38.872Z</time></trkpt><trkpt lat="42.5759133" lon="-7.4933133"><ele>324.3333333333333</ele><time>2026-04-15T11:58:39.873Z</time></trkpt><trkpt lat="42.5757433" lon="-7.4935017"><ele>324.66666666666663</ele><time>2026-04-15T11:58:40.872Z</time></trkpt><trkpt lat="42.5755683" lon="-7.4937"><ele>325.0</ele><time>2026-04-15T11:58:41.873Z</time></trkpt><trkpt lat="42.5754067" lon="-7.4939167"><ele>326.3333333333333</ele><time>2026-04-15T11:58:42.872Z</time></trkpt><trkpt lat="42.5752483" lon="-7.4941167"><ele>327.6666666666667</ele><time>2026-04-15T11:58:43.872Z</time></trkpt><trkpt lat="42.5750883" lon="-7.4943283"><ele>329.0</ele><time>2026-04-15T11:58:44.872Z</time></trkpt><trkpt lat="42.5749317" lon="-7.494535"><ele>329.0</ele><time>2026-04-15T11:58:45.872Z</time></trkpt><trkpt lat="42.5747733" lon="-7.4947333"><ele>329.0</ele><time>2026-04-15T11:58:46.873Z</time></trkpt><trkpt lat="42.574615" lon="-7.494935"><ele>329.0</ele><time>2026-04-15T11:58:47.872Z</time></trkpt><trkpt lat="42.5744567" lon="-7.4951383"><ele>329.0</ele><time>2026-04-15T11:58:48.872Z</time></trkpt><trkpt lat="42.5742967" lon="-7.495345"><ele>329.0</ele><time>2026-04-15T11:58:49.873Z</time></trkpt><trkpt lat="42.5741417" lon="-7.4955483"><ele>329.0</ele><time>2026-04-15T11:58:50.873Z</time></trkpt><trkpt lat="42.5739867" lon="-7.49575"><ele>328.6666666666667</ele><time>2026-04-15T11:58:51.872Z</time></trkpt><trkpt lat="42.5738283" lon="-7.4959517"><ele>328.3333333333333</ele><time>2026-04-15T11:58:52.873Z</time></trkpt><trkpt lat="42.57368" lon="-7.4961617"><ele>328.0</ele><time>2026-04-15T11:58:53.873Z</time></trkpt><trkpt lat="42.57352" lon="-7.49636"><ele>326.3333333333333</ele><time>2026-04-15T11:58:54.872Z</time></trkpt><trkpt lat="42.5733583" lon="-7.4965617"><ele>324.6666666666667</ele><time>2026-04-15T11:58:55.872Z</time></trkpt><trkpt lat="42.5732" lon="-7.4967617"><ele>323.0</ele><time>2026-04-15T11:58:56.872Z</time></trkpt><trkpt lat="42.57304" lon="-7.49696"><ele>323.0</ele><time>2026-04-15T11:58:57.873Z</time></trkpt><trkpt lat="42.5728767" lon="-7.4971517"><ele>323.0</ele><time>2026-04-15T11:58:58.873Z</time></trkpt><trkpt lat="42.572715" lon="-7.49733"><ele>323.0</ele><time>2026-04-15T11:58:59.872Z</time></trkpt><trkpt lat="42.5725433" lon="-7.4975083"><ele>323.0</ele><time>2026-04-15T11:59:00.873Z</time></trkpt><trkpt lat="42.57237" lon="-7.4976633"><ele>323.0</ele><time>2026-04-15T11:59:01.873Z</time></trkpt><trkpt lat="42.57219" lon="-7.4978133"><ele>323.0</ele><time>2026-04-15T11:59:02.872Z</time></trkpt><trkpt lat="42.5720033" lon="-7.4979483"><ele>323.0</ele><time>2026-04-15T11:59:03.872Z</time></trkpt><trkpt lat="42.5718067" lon="-7.4980717"><ele>323.0</ele><time>2026-04-15T11:59:04.873Z</time></trkpt><trkpt lat="42.5716067" lon="-7.4981783"><ele>323.0</ele><time>2026-04-15T11:59:05.872Z</time></trkpt><trkpt lat="42.5714067" lon="-7.4982767"><ele>323.0</ele><time>2026-04-15T11:59:06.872Z</time></trkpt><trkpt lat="42.5712067" lon="-7.4983583"><ele>323.0</ele><time>2026-04-15T11:59:07.872Z</time></trkpt><trkpt lat="42.571" lon="-7.49843"><ele>323.0</ele><time>2026-04-15T11:59:08.872Z</time></trkpt><trkpt lat="42.5707933" lon="-7.4985"><ele>322.6666666666667</ele><time>2026-04-15T11:59:09.872Z</time></trkpt><trkpt lat="42.5705883" lon="-7.498545"><ele>322.3333333333333</ele><time>2026-04-15T11:59:10.872Z</time></trkpt><trkpt lat="42.5703767" lon="-7.4985867"><ele>322.0</ele><time>2026-04-15T11:59:11.873Z</time></trkpt><trkpt lat="42.5701667" lon="-7.4986033"><ele>322.0</ele><time>2026-04-15T11:59:12.872Z</time></trkpt><trkpt lat="42.569955" lon="-7.4986133"><ele>322.0</ele><time>2026-04-15T11:59:13.873Z</time></trkpt><trkpt lat="42.5697433" lon="-7.49861"><ele>322.0</ele><time>2026-04-15T11:59:14.873Z</time></trkpt><trkpt lat="42.5695267" lon="-7.4985833"><ele>321.66666666666663</ele><time>2026-04-15T11:59:15.872Z</time></trkpt><trkpt lat="42.56931" lon="-7.4985467"><ele>321.3333333333333</ele><time>2026-04-15T11:59:16.872Z</time></trkpt><trkpt lat="42.5690933" lon="-7.4984983"><ele>321.0</ele><time>2026-04-15T11:59:17.872Z</time></trkpt><trkpt lat="42.5688783" lon="-7.4984517"><ele>321.0</ele><time>2026-04-15T11:59:18.873Z</time></trkpt><trkpt lat="42.5686617" lon="-7.4984"><ele>321.0</ele><time>2026-04-15T11:59:19.872Z</time></trkpt><trkpt lat="42.568445" lon="-7.4983483"><ele>321.0</ele><time>2026-04-15T11:59:20.873Z</time></trkpt><trkpt lat="42.568235" lon="-7.49829"><ele>321.0</ele><time>2026-04-15T11:59:21.873Z</time></trkpt><trkpt lat="42.5680167" lon="-7.4982383"><ele>321.0</ele><time>2026-04-15T11:59:22.873Z</time></trkpt><trkpt lat="42.5678017" lon="-7.4981733"><ele>321.0</ele><time>2026-04-15T11:59:23.872Z</time></trkpt><trkpt lat="42.5675867" lon="-7.4981217"><ele>321.3333333333333</ele><time>2026-04-15T11:59:24.873Z</time></trkpt><trkpt lat="42.5673683" lon="-7.4980517"><ele>321.66666666666663</ele><time>2026-04-15T11:59:25.873Z</time></trkpt><trkpt lat="42.5671483" lon="-7.49799"><ele>322.0</ele><time>2026-04-15T11:59:26.872Z</time></trkpt><trkpt lat="42.5669417" lon="-7.497935"><ele>321.0</ele><time>2026-04-15T11:59:27.873Z</time></trkpt><trkpt lat="42.5667267" lon="-7.4978783"><ele>320.0</ele><time>2026-04-15T11:59:28.873Z</time></trkpt><trkpt lat="42.5665117" lon="-7.4978267"><ele>319.0</ele><time>2026-04-15T11:59:29.873Z</time></trkpt><trkpt lat="42.5663017" lon="-7.497765"><ele>318.66666666666663</ele><time>2026-04-15T11:59:30.872Z</time></trkpt><trkpt lat="42.566085" lon="-7.4977083"><ele>318.3333333333333</ele><time>2026-04-15T11:59:31.872Z</time></trkpt><trkpt lat="42.56587" lon="-7.4976583"><ele>318.0</ele><time>2026-04-15T11:59:32.873Z</time></trkpt><trkpt lat="42.5656533" lon="-7.497605"><ele>318.0</ele><time>2026-04-15T11:59:33.872Z</time></trkpt><trkpt lat="42.5654333" lon="-7.4975467"><ele>318.0</ele><time>2026-04-15T11:59:34.872Z</time></trkpt><trkpt lat="42.5652067" lon="-7.4974917"><ele>318.5</ele><time>2026-04-15T11:59:35.872Z</time></trkpt><trkpt lat="42.5649833" lon="-7.4974267"><ele>319.0</ele><time>2026-04-15T11:59:36.873Z</time></trkpt><trkpt lat="42.56476" lon="-7.4973583"><ele>319.0</ele><time>2026-04-15T11:59:37.873Z</time></trkpt><trkpt lat="42.564535" lon="-7.4972967"><ele>319.0</ele><time>2026-04-15T11:59:38.872Z</time></trkpt><trkpt lat="42.5643083" lon="-7.4972283"><ele>320.5</ele><time>2026-04-15T11:59:39.872Z</time></trkpt><trkpt lat="42.564075" lon="-7.497175"><ele>322.0</ele><time>2026-04-15T11:59:40.873Z</time></trkpt><trkpt lat="42.5638467" lon="-7.4971133"><ele>320.0</ele><time>2026-04-15T11:59:41.872Z</time></trkpt><trkpt lat="42.5636167" lon="-7.49705"><ele>318.0</ele><time>2026-04-15T11:59:42.872Z</time></trkpt><trkpt lat="42.5633883" lon="-7.4970033"><ele>318.0</ele><time>2026-04-15T11:59:43.872Z</time></trkpt><trkpt lat="42.56316" lon="-7.4969417"><ele>318.0</ele><time>2026-04-15T11:59:44.872Z</time></trkpt><trkpt lat="42.56293" lon="-7.4968883"><ele>317.6666666666667</ele><time>2026-04-15T11:59:45.873Z</time></trkpt><trkpt lat="42.5627017" lon="-7.4968433"><ele>317.33333333333337</ele><time>2026-04-15T11:59:46.873Z</time></trkpt><trkpt lat="42.5624867" lon="-7.4967917"><ele>317.0</ele><time>2026-04-15T11:59:47.872Z</time></trkpt><trkpt lat="42.5622667" lon="-7.4967417"><ele>317.0</ele><time>2026-04-15T11:59:48.872Z</time></trkpt><trkpt lat="42.56205" lon="-7.4967"><ele>317.0</ele><time>2026-04-15T11:59:49.873Z</time></trkpt><trkpt lat="42.5618283" lon="-7.4966633"><ele>317.0</ele><time>2026-04-15T11:59:50.873Z</time></trkpt><trkpt lat="42.5616117" lon="-7.4966333"><ele>317.0</ele><time>2026-04-15T11:59:51.873Z</time></trkpt><trkpt lat="42.56139" lon="-7.4966083"><ele>317.0</ele><time>2026-04-15T11:59:52.873Z</time></trkpt><trkpt lat="42.5611683" lon="-7.496595"><ele>317.0</ele><time>2026-04-15T11:59:53.873Z</time></trkpt><trkpt lat="42.5609417" lon="-7.4965983"><ele>317.33333333333337</ele><time>2026-04-15T11:59:54.872Z</time></trkpt><trkpt lat="42.5607233" lon="-7.4966017"><ele>317.6666666666667</ele><time>2026-04-15T11:59:55.872Z</time></trkpt><trkpt lat="42.5605017" lon="-7.4966117"><ele>318.0</ele><time>2026-04-15T11:59:56.872Z</time></trkpt><trkpt lat="42.5602833" lon="-7.496615"><ele>318.0</ele><time>2026-04-15T11:59:57.873Z</time></trkpt><trkpt lat="42.5600617" lon="-7.4966417"><ele>318.0</ele><time>2026-04-15T11:59:58.872Z</time></trkpt><trkpt lat="42.55984" lon="-7.4966767"><ele>318.0</ele><time>2026-04-15T11:59:59.872Z</time></trkpt><trkpt lat="42.5596217" lon="-7.496715"><ele>317.0</ele><time>2026-04-15T12:00:00.873Z</time></trkpt><trkpt lat="42.5594133" lon="-7.4967533"><ele>316.0</ele><time>2026-04-15T12:00:01.872Z</time></trkpt><trkpt lat="42.5592217" lon="-7.4967917"><ele>315.0</ele><time>2026-04-15T12:00:02.873Z</time></trkpt><trkpt lat="42.5590433" lon="-7.49685"><ele>315.0</ele><time>2026-04-15T12:00:03.873Z</time></trkpt><trkpt lat="42.55888" lon="-7.49689"><ele>315.0</ele><time>2026-04-15T12:00:04.872Z</time></trkpt><trkpt lat="42.558725" lon="-7.4969383"><ele>315.0</ele><time>2026-04-15T12:00:05.872Z</time></trkpt><trkpt lat="42.5585767" lon="-7.4969833"><ele>315.0</ele><time>2026-04-15T12:00:06.873Z</time></trkpt><trkpt lat="42.5584383" lon="-7.4970383"><ele>315.0</ele><time>2026-04-15T12:00:07.872Z</time></trkpt><trkpt lat="42.55829" lon="-7.4971017"><ele>315.0</ele><time>2026-04-15T12:00:08.872Z</time></trkpt><trkpt lat="42.5581333" lon="-7.4971567"><ele>315.0</ele><time>2026-04-15T12:00:09.872Z</time></trkpt><trkpt lat="42.55798" lon="-7.49722"><ele>315.0</ele><time>2026-04-15T12:00:10.872Z</time></trkpt><trkpt lat="42.557835" lon="-7.4972783"><ele>315.0</ele><time>2026-04-15T12:00:11.872Z</time></trkpt><trkpt lat="42.5577" lon="-7.4973367"><ele>315.0</ele><time>2026-04-15T12:00:12.873Z</time></trkpt><trkpt lat="42.5575817" lon="-7.4974067"><ele>315.0</ele><time>2026-04-15T12:00:13.873Z</time></trkpt><trkpt lat="42.5574767" lon="-7.4975"><ele>315.0</ele><time>2026-04-15T12:00:14.872Z</time></trkpt><trkpt lat="42.5573933" lon="-7.497615"><ele>315.0</ele><time>2026-04-15T12:00:15.872Z</time></trkpt><trkpt lat="42.5573283" lon="-7.4977633"><ele>316.0</ele><time>2026-04-15T12:00:16.872Z</time></trkpt><trkpt lat="42.5572783" lon="-7.4979217"><ele>317.0</ele><time>2026-04-15T12:00:17.873Z</time></trkpt><trkpt lat="42.5572517" lon="-7.4980817"><ele>318.0</ele><time>2026-04-15T12:00:18.872Z</time></trkpt><trkpt lat="42.557255" lon="-7.4982433"><ele>319.0</ele><time>2026-04-15T12:00:19.873Z</time></trkpt><trkpt lat="42.5572817" lon="-7.4984117"><ele>319.0</ele><time>2026-04-15T12:00:20.873Z</time></trkpt><trkpt lat="42.5573217" lon="-7.4985883"><ele>319.0</ele><time>2026-04-15T12:00:21.873Z</time></trkpt><trkpt lat="42.5573567" lon="-7.4987733"><ele>319.0</ele><time>2026-04-15T12:00:22.872Z</time></trkpt><trkpt lat="42.5573767" lon="-7.4989683"><ele>319.0</ele><time>2026-04-15T12:00:23.873Z</time></trkpt><trkpt lat="42.5573867" lon="-7.4991617"><ele>320.0</ele><time>2026-04-15T12:00:24.872Z</time></trkpt><trkpt lat="42.5573867" lon="-7.4993583"><ele>321.0</ele><time>2026-04-15T12:00:25.873Z</time></trkpt><trkpt lat="42.557385" lon="-7.49956"><ele>322.0</ele><time>2026-04-15T12:00:26.873Z</time></trkpt><trkpt lat="42.557375" lon="-7.4997533"><ele>323.0</ele><time>2026-04-15T12:00:27.872Z</time></trkpt><trkpt lat="42.557345" lon="-7.4999333"><ele>323.25</ele><time>2026-04-15T12:00:28.873Z</time></trkpt><trkpt lat="42.557315" lon="-7.50012"><ele>323.5</ele><time>2026-04-15T12:00:29.873Z</time></trkpt><trkpt lat="42.5572933" lon="-7.5003067"><ele>323.75</ele><time>2026-04-15T12:00:30.872Z</time></trkpt><trkpt lat="42.5572583" lon="-7.5005017"><ele>324.0</ele><time>2026-04-15T12:00:31.872Z</time></trkpt><trkpt lat="42.557235" lon="-7.500695"><ele>326.0</ele><time>2026-04-15T12:00:32.873Z</time></trkpt><trkpt lat="42.557235" lon="-7.5009067"><ele>328.0</ele><time>2026-04-15T12:00:33.873Z</time></trkpt><trkpt lat="42.5572633" lon="-7.5011217"><ele>330.0</ele><time>2026-04-15T12:00:34.872Z</time></trkpt><trkpt lat="42.5573183" lon="-7.50132"><ele>330.5</ele><time>2026-04-15T12:00:35.873Z</time></trkpt><trkpt lat="42.5573967" lon="-7.5014933"><ele>331.0</ele><time>2026-04-15T12:00:36.873Z</time></trkpt><trkpt lat="42.55749" lon="-7.50163"><ele>331.5</ele><time>2026-04-15T12:00:37.872Z</time></trkpt><trkpt lat="42.5575983" lon="-7.5017283"><ele>332.0</ele><time>2026-04-15T12:00:38.872Z</time></trkpt><trkpt lat="42.5576983" lon="-7.5017867"><ele>332.0</ele><time>2026-04-15T12:00:39.873Z</time></trkpt><trkpt lat="42.5577717" lon="-7.50183"><ele>332.0</ele><time>2026-04-15T12:00:40.872Z</time></trkpt><trkpt lat="42.5578383" lon="-7.5018833"><ele>332.0</ele><time>2026-04-15T12:00:41.872Z</time></trkpt><trkpt lat="42.5579233" lon="-7.501945"><ele>332.0</ele><time>2026-04-15T12:00:42.873Z</time></trkpt><trkpt lat="42.558015" lon="-7.50202"><ele>332.0</ele><time>2026-04-15T12:00:43.872Z</time></trkpt><trkpt lat="42.5581067" lon="-7.5020867"><ele>331.75</ele><time>2026-04-15T12:00:44.873Z</time></trkpt><trkpt lat="42.558195" lon="-7.5021517"><ele>331.5</ele><time>2026-04-15T12:00:45.872Z</time></trkpt><trkpt lat="42.5582833" lon="-7.5022517"><ele>331.25</ele><time>2026-04-15T12:00:46.872Z</time></trkpt><trkpt lat="42.558355" lon="-7.5023817"><ele>331.0</ele><time>2026-04-15T12:00:47.872Z</time></trkpt><trkpt lat="42.558415" lon="-7.502525"><ele>331.0</ele><time>2026-04-15T12:00:48.873Z</time></trkpt><trkpt lat="42.55848" lon="-7.5026583"><ele>331.0</ele><time>2026-04-15T12:00:49.872Z</time></trkpt><trkpt lat="42.5585533" lon="-7.50279"><ele>331.0</ele><time>2026-04-15T12:00:50.872Z</time></trkpt><trkpt lat="42.55864" lon="-7.5028883"><ele>331.0</ele><time>2026-04-15T12:00:51.872Z</time></trkpt><trkpt lat="42.55874" lon="-7.502975"><ele>331.20000000000005</ele><time>2026-04-15T12:00:52.873Z</time></trkpt><trkpt lat="42.55884" lon="-7.503"><ele>331.40000000000003</ele><time>2026-04-15T12:00:53.872Z</time></trkpt><trkpt lat="42.5589467" lon="-7.5030017"><ele>331.6</ele><time>2026-04-15T12:00:54.872Z</time></trkpt><trkpt lat="42.5590333" lon="-7.5030433"><ele>331.8</ele><time>2026-04-15T12:00:55.872Z</time></trkpt><trkpt lat="42.5590967" lon="-7.503115"><ele>332.0</ele><time>2026-04-15T12:00:56.872Z</time></trkpt><trkpt lat="42.559135" lon="-7.5032283"><ele>332.0</ele><time>2026-04-15T12:00:57.872Z</time></trkpt><trkpt lat="42.5591317" lon="-7.5033483"><ele>332.0</ele><time>2026-04-15T12:00:58.872Z</time></trkpt><trkpt lat="42.5590867" lon="-7.503455"><ele>332.0</ele><time>2026-04-15T12:00:59.872Z</time></trkpt><trkpt lat="42.5590233" lon="-7.5035367"><ele>332.0</ele><time>2026-04-15T12:01:00.872Z</time></trkpt><trkpt lat="42.5589417" lon="-7.5035767"><ele>332.0</ele><time>2026-04-15T12:01:01.873Z</time></trkpt><trkpt lat="42.5588683" lon="-7.5035717"><ele>332.0</ele><time>2026-04-15T12:01:02.872Z</time></trkpt><trkpt lat="42.5587717" lon="-7.5035367"><ele>332.5</ele><time>2026-04-15T12:01:03.873Z</time></trkpt><trkpt lat="42.5586617" lon="-7.5034767"><ele>333.0</ele><time>2026-04-15T12:01:04.872Z</time></trkpt><trkpt lat="42.558545" lon="-7.503425"><ele>333.5</ele><time>2026-04-15T12:01:05.873Z</time></trkpt><trkpt lat="42.55842" lon="-7.5034217"><ele>334.0</ele><time>2026-04-15T12:01:06.872Z</time></trkpt><trkpt lat="42.5582983" lon="-7.5034483"><ele>334.0</ele><time>2026-04-15T12:01:07.873Z</time></trkpt><trkpt lat="42.5581783" lon="-7.50351"><ele>334.0</ele><time>2026-04-15T12:01:08.872Z</time></trkpt><trkpt lat="42.5580733" lon="-7.5036183"><ele>334.0</ele><time>2026-04-15T12:01:09.873Z</time></trkpt><trkpt lat="42.5579683" lon="-7.50373"><ele>334.0</ele><time>2026-04-15T12:01:10.873Z</time></trkpt><trkpt lat="42.5578633" lon="-7.5038383"><ele>335.25</ele><time>2026-04-15T12:01:11.873Z</time></trkpt><trkpt lat="42.5577517" lon="-7.5039433"><ele>336.5</ele><time>2026-04-15T12:01:12.872Z</time></trkpt><trkpt lat="42.55764" lon="-7.504055"><ele>337.75</ele><time>2026-04-15T12:01:13.873Z</time></trkpt><trkpt lat="42.5575317" lon="-7.5041683"><ele>339.0</ele><time>2026-04-15T12:01:14.873Z</time></trkpt><trkpt lat="42.5574233" lon="-7.504275"><ele>339.0</ele><time>2026-04-15T12:01:15.873Z</time></trkpt><trkpt lat="42.55731" lon="-7.5043767"><ele>339.0</ele><time>2026-04-15T12:01:16.873Z</time></trkpt><trkpt lat="42.5572017" lon="-7.5044917"><ele>339.0</ele><time>2026-04-15T12:01:17.872Z</time></trkpt><trkpt lat="42.5571017" lon="-7.5046183"><ele>339.0</ele><time>2026-04-15T12:01:18.872Z</time></trkpt><trkpt lat="42.557005" lon="-7.5047567"><ele>340.25</ele><time>2026-04-15T12:01:19.872Z</time></trkpt><trkpt lat="42.5569083" lon="-7.50489"><ele>341.5</ele><time>2026-04-15T12:01:20.872Z</time></trkpt><trkpt lat="42.5568083" lon="-7.5050283"><ele>342.75</ele><time>2026-04-15T12:01:21.873Z</time></trkpt><trkpt lat="42.5567033" lon="-7.5051733"><ele>344.0</ele><time>2026-04-15T12:01:22.872Z</time></trkpt><trkpt lat="42.5566033" lon="-7.5053183"><ele>345.25</ele><time>2026-04-15T12:01:23.872Z</time></trkpt><trkpt lat="42.5565133" lon="-7.5054783"><ele>346.5</ele><time>2026-04-15T12:01:24.873Z</time></trkpt><trkpt lat="42.55643" lon="-7.50563"><ele>347.75</ele><time>2026-04-15T12:01:25.872Z</time></trkpt><trkpt lat="42.5563383" lon="-7.5057933"><ele>349.0</ele><time>2026-04-15T12:01:26.872Z</time></trkpt><trkpt lat="42.556245" lon="-7.5059567"><ele>348.66666666666663</ele><time>2026-04-15T12:01:27.873Z</time></trkpt><trkpt lat="42.55615" lon="-7.506125"><ele>348.3333333333333</ele><time>2026-04-15T12:01:28.872Z</time></trkpt><trkpt lat="42.5560733" lon="-7.5063033"><ele>348.0</ele><time>2026-04-15T12:01:29.872Z</time></trkpt><trkpt lat="42.5559833" lon="-7.5064783"><ele>348.0</ele><time>2026-04-15T12:01:30.872Z</time></trkpt><trkpt lat="42.5558917" lon="-7.506655"><ele>348.0</ele><time>2026-04-15T12:01:31.872Z</time></trkpt><trkpt lat="42.555805" lon="-7.50684"><ele>348.0</ele><time>2026-04-15T12:01:32.873Z</time></trkpt><trkpt lat="42.5557283" lon="-7.507035"><ele>348.3333333333333</ele><time>2026-04-15T12:01:33.872Z</time></trkpt><trkpt lat="42.55564" lon="-7.50722"><ele>348.66666666666663</ele><time>2026-04-15T12:01:34.873Z</time></trkpt><trkpt lat="42.5555583" lon="-7.507405"><ele>349.0</ele><time>2026-04-15T12:01:35.873Z</time></trkpt><trkpt lat="42.55548" lon="-7.5075983"><ele>349.0</ele><time>2026-04-15T12:01:36.873Z</time></trkpt><trkpt lat="42.5553983" lon="-7.5078017"><ele>349.0</ele><time>2026-04-15T12:01:37.872Z</time></trkpt><trkpt lat="42.555315" lon="-7.5080117"><ele>349.0</ele><time>2026-04-15T12:01:38.872Z</time></trkpt><trkpt lat="42.5552433" lon="-7.508235"><ele>345.0</ele><time>2026-04-15T12:01:39.873Z</time></trkpt><trkpt lat="42.555165" lon="-7.5084583"><ele>341.0</ele><time>2026-04-15T12:01:40.872Z</time></trkpt><trkpt lat="42.5550867" lon="-7.5086833"><ele>337.0</ele><time>2026-04-15T12:01:41.872Z</time></trkpt><trkpt lat="42.5550067" lon="-7.5089117"><ele>337.0</ele><time>2026-04-15T12:01:42.873Z</time></trkpt><trkpt lat="42.5549333" lon="-7.5091467"><ele>337.0</ele><time>2026-04-15T12:01:43.873Z</time></trkpt><trkpt lat="42.5548583" lon="-7.50937"><ele>337.0</ele><time>2026-04-15T12:01:44.872Z</time></trkpt><trkpt lat="42.5547817" lon="-7.5095883"><ele>337.0</ele><time>2026-04-15T12:01:45.873Z</time></trkpt><trkpt lat="42.554715" lon="-7.50981"><ele>337.0</ele><time>2026-04-15T12:01:46.873Z</time></trkpt><trkpt lat="42.5546433" lon="-7.5100317"><ele>337.0</ele><time>2026-04-15T12:01:47.873Z</time></trkpt><trkpt lat="42.5545717" lon="-7.51026"><ele>339.0</ele><time>2026-04-15T12:01:48.873Z</time></trkpt><trkpt lat="42.5545067" lon="-7.5104967"><ele>341.0</ele><time>2026-04-15T12:01:49.873Z</time></trkpt><trkpt lat="42.554435" lon="-7.51073"><ele>343.0</ele><time>2026-04-15T12:01:50.873Z</time></trkpt><trkpt lat="42.5543617" lon="-7.510965"><ele>343.0</ele><time>2026-04-15T12:01:51.872Z</time></trkpt><trkpt lat="42.5542867" lon="-7.5111917"><ele>343.0</ele><time>2026-04-15T12:01:52.873Z</time></trkpt><trkpt lat="42.5542083" lon="-7.51143"><ele>343.0</ele><time>2026-04-15T12:01:53.873Z</time></trkpt><trkpt lat="42.5541333" lon="-7.5116633"><ele>345.66666666666663</ele><time>2026-04-15T12:01:54.872Z</time></trkpt><trkpt lat="42.5540633" lon="-7.5119017"><ele>348.3333333333333</ele><time>2026-04-15T12:01:55.872Z</time></trkpt><trkpt lat="42.55399" lon="-7.51214"><ele>351.0</ele><time>2026-04-15T12:01:56.873Z</time></trkpt><trkpt lat="42.55392" lon="-7.5123783"><ele>353.3333333333333</ele><time>2026-04-15T12:01:57.872Z</time></trkpt><trkpt lat="42.5538483" lon="-7.5126133"><ele>355.66666666666663</ele><time>2026-04-15T12:01:58.873Z</time></trkpt><trkpt lat="42.55378" lon="-7.5128533"><ele>358.0</ele><time>2026-04-15T12:01:59.872Z</time></trkpt><trkpt lat="42.55371" lon="-7.5130917"><ele>359.66666666666663</ele><time>2026-04-15T12:02:00.873Z</time></trkpt><trkpt lat="42.553635" lon="-7.51332"><ele>361.3333333333333</ele><time>2026-04-15T12:02:01.872Z</time></trkpt><trkpt lat="42.55356" lon="-7.5135517"><ele>363.0</ele><time>2026-04-15T12:02:02.873Z</time></trkpt><trkpt lat="42.55349" lon="-7.513795"><ele>366.0</ele><time>2026-04-15T12:02:03.872Z</time></trkpt><trkpt lat="42.5534183" lon="-7.514025"><ele>369.0</ele><time>2026-04-15T12:02:04.872Z</time></trkpt><trkpt lat="42.5533383" lon="-7.5142533"><ele>372.0</ele><time>2026-04-15T12:02:05.872Z</time></trkpt><trkpt lat="42.55327" lon="-7.5144783"><ele>373.6666666666667</ele><time>2026-04-15T12:02:06.873Z</time></trkpt><trkpt lat="42.5531967" lon="-7.51471"><ele>375.33333333333337</ele><time>2026-04-15T12:02:07.872Z</time></trkpt><trkpt lat="42.553125" lon="-7.51494"><ele>377.0</ele><time>2026-04-15T12:02:08.873Z</time></trkpt><trkpt lat="42.55305" lon="-7.5151767"><ele>377.33333333333337</ele><time>2026-04-15T12:02:09.873Z</time></trkpt><trkpt lat="42.5529767" lon="-7.5154167"><ele>377.6666666666667</ele><time>2026-04-15T12:02:10.873Z</time></trkpt><trkpt lat="42.5529033" lon="-7.5156417"><ele>378.0</ele><time>2026-04-15T12:02:11.873Z</time></trkpt><trkpt lat="42.5528317" lon="-7.51587"><ele>374.3333333333333</ele><time>2026-04-15T12:02:12.873Z</time></trkpt><trkpt lat="42.5527617" lon="-7.5161067"><ele>370.66666666666663</ele><time>2026-04-15T12:02:13.873Z</time></trkpt><trkpt lat="42.5526933" lon="-7.5163383"><ele>367.0</ele><time>2026-04-15T12:02:14.872Z</time></trkpt><trkpt lat="42.5526233" lon="-7.5165683"><ele>367.0</ele><time>2026-04-15T12:02:15.873Z</time></trkpt><trkpt lat="42.55255" lon="-7.5167967"><ele>367.0</ele><time>2026-04-15T12:02:16.872Z</time></trkpt><trkpt lat="42.5524783" lon="-7.5170183"><ele>367.0</ele><time>2026-04-15T12:02:17.872Z</time></trkpt><trkpt lat="42.5524017" lon="-7.5172417"><ele>367.66666666666663</ele><time>2026-04-15T12:02:18.873Z</time></trkpt><trkpt lat="42.5523367" lon="-7.5174767"><ele>368.3333333333333</ele><time>2026-04-15T12:02:19.873Z</time></trkpt><trkpt lat="42.55226" lon="-7.5176983"><ele>369.0</ele><time>2026-04-15T12:02:20.872Z</time></trkpt><trkpt lat="42.5521867" lon="-7.51792"><ele>369.6666666666667</ele><time>2026-04-15T12:02:21.872Z</time></trkpt><trkpt lat="42.5521083" lon="-7.5181517"><ele>370.33333333333337</ele><time>2026-04-15T12:02:22.872Z</time></trkpt><trkpt lat="42.5520417" lon="-7.5183833"><ele>371.0</ele><time>2026-04-15T12:02:23.872Z</time></trkpt><trkpt lat="42.5519733" lon="-7.5186117"><ele>367.6666666666667</ele><time>2026-04-15T12:02:24.873Z</time></trkpt><trkpt lat="42.5519" lon="-7.51884"><ele>364.3333333333333</ele><time>2026-04-15T12:02:25.873Z</time></trkpt><trkpt lat="42.5518283" lon="-7.5190667"><ele>361.0</ele><time>2026-04-15T12:02:26.873Z</time></trkpt><trkpt lat="42.5517583" lon="-7.519295"><ele>361.0</ele><time>2026-04-15T12:02:27.872Z</time></trkpt><trkpt lat="42.5516883" lon="-7.5195233"><ele>361.0</ele><time>2026-04-15T12:02:28.872Z</time></trkpt><trkpt lat="42.5516183" lon="-7.5197467"><ele>361.0</ele><time>2026-04-15T12:02:29.873Z</time></trkpt><trkpt lat="42.551545" lon="-7.519965"><ele>361.66666666666663</ele><time>2026-04-15T12:02:30.872Z</time></trkpt><trkpt lat="42.5514767" lon="-7.5201983"><ele>362.3333333333333</ele><time>2026-04-15T12:02:31.872Z</time></trkpt><trkpt lat="42.5514067" lon="-7.520435"><ele>363.0</ele><time>2026-04-15T12:02:32.872Z</time></trkpt><trkpt lat="42.5513333" lon="-7.5206717"><ele>363.3333333333333</ele><time>2026-04-15T12:02:33.873Z</time></trkpt><trkpt lat="42.5512617" lon="-7.5209033"><ele>363.66666666666663</ele><time>2026-04-15T12:02:34.873Z</time></trkpt><trkpt lat="42.5511867" lon="-7.521135"><ele>364.0</ele><time>2026-04-15T12:02:35.873Z</time></trkpt><trkpt lat="42.5511183" lon="-7.5213583"><ele>360.66666666666663</ele><time>2026-04-15T12:02:36.872Z</time></trkpt><trkpt lat="42.551045" lon="-7.5215817"><ele>357.3333333333333</ele><time>2026-04-15T12:02:37.872Z</time></trkpt><trkpt lat="42.5509717" lon="-7.5218083"><ele>354.0</ele><time>2026-04-15T12:02:38.873Z</time></trkpt><trkpt lat="42.5509033" lon="-7.5220383"><ele>354.6666666666667</ele><time>2026-04-15T12:02:39.873Z</time></trkpt><trkpt lat="42.5508283" lon="-7.5222617"><ele>355.33333333333337</ele><time>2026-04-15T12:02:40.872Z</time></trkpt><trkpt lat="42.550745" lon="-7.52248"><ele>356.0</ele><time>2026-04-15T12:02:41.872Z</time></trkpt><trkpt lat="42.5506767" lon="-7.5227067"><ele>356.0</ele><time>2026-04-15T12:02:42.872Z</time></trkpt><trkpt lat="42.5506067" lon="-7.5229317"><ele>356.0</ele><time>2026-04-15T12:02:43.873Z</time></trkpt><trkpt lat="42.5505283" lon="-7.52315"><ele>356.0</ele><time>2026-04-15T12:02:44.872Z</time></trkpt><trkpt lat="42.55045" lon="-7.5233683"><ele>353.6666666666667</ele><time>2026-04-15T12:02:45.872Z</time></trkpt><trkpt lat="42.5503667" lon="-7.5235917"><ele>351.3333333333333</ele><time>2026-04-15T12:02:46.872Z</time></trkpt><trkpt lat="42.5502817" lon="-7.5238017"><ele>349.0</ele><time>2026-04-15T12:02:47.873Z</time></trkpt><trkpt lat="42.5501967" lon="-7.5240117"><ele>348.66666666666663</ele><time>2026-04-15T12:02:48.873Z</time></trkpt><trkpt lat="42.55011" lon="-7.5242283"><ele>348.3333333333333</ele><time>2026-04-15T12:02:49.872Z</time></trkpt><trkpt lat="42.5500167" lon="-7.5244367"><ele>348.0</ele><time>2026-04-15T12:02:50.873Z</time></trkpt><trkpt lat="42.5499217" lon="-7.5246517"><ele>347.0</ele><time>2026-04-15T12:02:51.872Z</time></trkpt><trkpt lat="42.54983" lon="-7.5248783"><ele>346.0</ele><time>2026-04-15T12:02:52.872Z</time></trkpt><trkpt lat="42.54973" lon="-7.5251"><ele>345.0</ele><time>2026-04-15T12:02:53.872Z</time></trkpt><trkpt lat="42.5496317" lon="-7.5253117"><ele>342.3333333333333</ele><time>2026-04-15T12:02:54.872Z</time></trkpt><trkpt lat="42.54953" lon="-7.5255217"><ele>339.66666666666663</ele><time>2026-04-15T12:02:55.872Z</time></trkpt><trkpt lat="42.5494233" lon="-7.5257317"><ele>337.0</ele><time>2026-04-15T12:02:56.872Z</time></trkpt><trkpt lat="42.5493133" lon="-7.52594"><ele>337.0</ele><time>2026-04-15T12:02:57.872Z</time></trkpt><trkpt lat="42.5492067" lon="-7.526155"><ele>337.0</ele><time>2026-04-15T12:02:58.872Z</time></trkpt><trkpt lat="42.5491033" lon="-7.52637"><ele>337.0</ele><time>2026-04-15T12:02:59.873Z</time></trkpt><trkpt lat="42.5489917" lon="-7.5265783"><ele>336.66666666666663</ele><time>2026-04-15T12:03:00.872Z</time></trkpt><trkpt lat="42.5488817" lon="-7.52678"><ele>336.3333333333333</ele><time>2026-04-15T12:03:01.872Z</time></trkpt><trkpt lat="42.5487683" lon="-7.5269833"><ele>336.0</ele><time>2026-04-15T12:03:02.872Z</time></trkpt><trkpt lat="42.5486533" lon="-7.5271883"><ele>336.0</ele><time>2026-04-15T12:03:03.872Z</time></trkpt><trkpt lat="42.54854" lon="-7.5273867"><ele>336.0</ele><time>2026-04-15T12:03:04.872Z</time></trkpt><trkpt lat="42.548415" lon="-7.5275783"><ele>336.0</ele><time>2026-04-15T12:03:05.872Z</time></trkpt><trkpt lat="42.5482933" lon="-7.527775"><ele>336.6666666666667</ele><time>2026-04-15T12:03:06.872Z</time></trkpt><trkpt lat="42.5481667" lon="-7.5279633"><ele>337.33333333333337</ele><time>2026-04-15T12:03:07.872Z</time></trkpt><trkpt lat="42.5480433" lon="-7.528165"><ele>338.0</ele><time>2026-04-15T12:03:08.872Z</time></trkpt><trkpt lat="42.5479133" lon="-7.52836"><ele>336.6666666666667</ele><time>2026-04-15T12:03:09.873Z</time></trkpt><trkpt lat="42.5477733" lon="-7.52855"><ele>335.3333333333333</ele><time>2026-04-15T12:03:10.873Z</time></trkpt><trkpt lat="42.5476367" lon="-7.5287433"><ele>334.0</ele><time>2026-04-15T12:03:11.872Z</time></trkpt><trkpt lat="42.5475033" lon="-7.5289317"><ele>334.0</ele><time>2026-04-15T12:03:12.872Z</time></trkpt><trkpt lat="42.5473617" lon="-7.529125"><ele>334.0</ele><time>2026-04-15T12:03:13.872Z</time></trkpt><trkpt lat="42.5472217" lon="-7.5293167"><ele>334.0</ele><time>2026-04-15T12:03:14.873Z</time></trkpt><trkpt lat="42.5470817" lon="-7.52951"><ele>334.3333333333333</ele><time>2026-04-15T12:03:15.873Z</time></trkpt><trkpt lat="42.54693" lon="-7.529695"><ele>334.6666666666667</ele><time>2026-04-15T12:03:16.873Z</time></trkpt><trkpt lat="42.5467833" lon="-7.5298767"><ele>335.0</ele><time>2026-04-15T12:03:17.872Z</time></trkpt><trkpt lat="42.54663" lon="-7.530055"><ele>335.0</ele><time>2026-04-15T12:03:18.872Z</time></trkpt><trkpt lat="42.5464733" lon="-7.5302317"><ele>335.0</ele><time>2026-04-15T12:03:19.872Z</time></trkpt><trkpt lat="42.54632" lon="-7.5304167"><ele>335.0</ele><time>2026-04-15T12:03:20.873Z</time></trkpt><trkpt lat="42.5461683" lon="-7.5306"><ele>335.0</ele><time>2026-04-15T12:03:21.873Z</time></trkpt><trkpt lat="42.54601" lon="-7.530775"><ele>335.0</ele><time>2026-04-15T12:03:22.872Z</time></trkpt><trkpt lat="42.5458533" lon="-7.5309483"><ele>335.0</ele><time>2026-04-15T12:03:23.872Z</time></trkpt><trkpt lat="42.54569" lon="-7.531105"><ele>335.33333333333337</ele><time>2026-04-15T12:03:24.873Z</time></trkpt><trkpt lat="42.545535" lon="-7.5312767"><ele>335.6666666666667</ele><time>2026-04-15T12:03:25.872Z</time></trkpt><trkpt lat="42.5453733" lon="-7.5314383"><ele>336.0</ele><time>2026-04-15T12:03:26.872Z</time></trkpt><trkpt lat="42.545205" lon="-7.5315967"><ele>334.0</ele><time>2026-04-15T12:03:27.872Z</time></trkpt><trkpt lat="42.54504" lon="-7.53175"><ele>332.0</ele><time>2026-04-15T12:03:28.873Z</time></trkpt><trkpt lat="42.5448783" lon="-7.5319"><ele>330.0</ele><time>2026-04-15T12:03:29.873Z</time></trkpt><trkpt lat="42.5447117" lon="-7.532045"><ele>330.3333333333333</ele><time>2026-04-15T12:03:30.873Z</time></trkpt><trkpt lat="42.5445483" lon="-7.5321867"><ele>330.66666666666663</ele><time>2026-04-15T12:03:31.872Z</time></trkpt><trkpt lat="42.5443817" lon="-7.5323283"><ele>331.0</ele><time>2026-04-15T12:03:32.872Z</time></trkpt><trkpt lat="42.54421" lon="-7.53247"><ele>331.0</ele><time>2026-04-15T12:03:33.872Z</time></trkpt><trkpt lat="42.544045" lon="-7.532615"><ele>331.0</ele><time>2026-04-15T12:03:34.873Z</time></trkpt><trkpt lat="42.5438817" lon="-7.5327533"><ele>331.0</ele><time>2026-04-15T12:03:35.873Z</time></trkpt><trkpt lat="42.5437117" lon="-7.53289"><ele>331.3333333333333</ele><time>2026-04-15T12:03:36.872Z</time></trkpt><trkpt lat="42.543535" lon="-7.5330233"><ele>331.6666666666667</ele><time>2026-04-15T12:03:37.872Z</time></trkpt><trkpt lat="42.5433667" lon="-7.5331583"><ele>332.0</ele><time>2026-04-15T12:03:38.872Z</time></trkpt><trkpt lat="42.5432033" lon="-7.5332967"><ele>332.0</ele><time>2026-04-15T12:03:39.873Z</time></trkpt><trkpt lat="42.5430367" lon="-7.5334383"><ele>332.0</ele><time>2026-04-15T12:03:40.872Z</time></trkpt><trkpt lat="42.5428717" lon="-7.5335783"><ele>332.0</ele><time>2026-04-15T12:03:41.872Z</time></trkpt><trkpt lat="42.5427" lon="-7.5337183"><ele>331.0</ele><time>2026-04-15T12:03:42.873Z</time></trkpt><trkpt lat="42.54253" lon="-7.5338583"><ele>330.0</ele><time>2026-04-15T12:03:43.872Z</time></trkpt><trkpt lat="42.54235" lon="-7.5339917"><ele>329.0</ele><time>2026-04-15T12:03:44.873Z</time></trkpt><trkpt lat="42.5421767" lon="-7.5341333"><ele>328.0</ele><time>2026-04-15T12:03:45.872Z</time></trkpt><trkpt lat="42.5420117" lon="-7.5342733"><ele>327.0</ele><time>2026-04-15T12:03:46.873Z</time></trkpt><trkpt lat="42.5418417" lon="-7.5344083"><ele>326.0</ele><time>2026-04-15T12:03:47.872Z</time></trkpt><trkpt lat="42.5416633" lon="-7.5345467"><ele>326.33333333333337</ele><time>2026-04-15T12:03:48.873Z</time></trkpt><trkpt lat="42.541495" lon="-7.5346817"><ele>326.6666666666667</ele><time>2026-04-15T12:03:49.872Z</time></trkpt><trkpt lat="42.5413283" lon="-7.5348217"><ele>327.0</ele><time>2026-04-15T12:03:50.873Z</time></trkpt><trkpt lat="42.5411583" lon="-7.5349567"><ele>327.0</ele><time>2026-04-15T12:03:51.873Z</time></trkpt><trkpt lat="42.5409867" lon="-7.53509"><ele>327.0</ele><time>2026-04-15T12:03:52.873Z</time></trkpt><trkpt lat="42.5408067" lon="-7.535235"><ele>327.0</ele><time>2026-04-15T12:03:53.873Z</time></trkpt><trkpt lat="42.5406333" lon="-7.53538"><ele>328.0</ele><time>2026-04-15T12:03:54.872Z</time></trkpt><trkpt lat="42.5404567" lon="-7.53552"><ele>329.0</ele><time>2026-04-15T12:03:55.872Z</time></trkpt><trkpt lat="42.540275" lon="-7.5356667"><ele>330.0</ele><time>2026-04-15T12:03:56.873Z</time></trkpt><trkpt lat="42.5400983" lon="-7.53582"><ele>330.0</ele><time>2026-04-15T12:03:57.872Z</time></trkpt><trkpt lat="42.5399167" lon="-7.5359633"><ele>330.0</ele><time>2026-04-15T12:03:58.873Z</time></trkpt><trkpt lat="42.5397383" lon="-7.53612"><ele>330.0</ele><time>2026-04-15T12:03:59.872Z</time></trkpt><trkpt lat="42.539565" lon="-7.53627"><ele>331.3333333333333</ele><time>2026-04-15T12:04:00.873Z</time></trkpt><trkpt lat="42.53939" lon="-7.5364183"><ele>332.66666666666663</ele><time>2026-04-15T12:04:01.873Z</time></trkpt><trkpt lat="42.5392133" lon="-7.5365617"><ele>334.0</ele><time>2026-04-15T12:04:02.872Z</time></trkpt><trkpt lat="42.5390433" lon="-7.5367117"><ele>334.0</ele><time>2026-04-15T12:04:03.873Z</time></trkpt><trkpt lat="42.5388683" lon="-7.536855"><ele>334.0</ele><time>2026-04-15T12:04:04.873Z</time></trkpt><trkpt lat="42.538685" lon="-7.5369933"><ele>334.0</ele><time>2026-04-15T12:04:05.872Z</time></trkpt><trkpt lat="42.5385083" lon="-7.537125"><ele>333.0</ele><time>2026-04-15T12:04:06.873Z</time></trkpt><trkpt lat="42.538335" lon="-7.5372583"><ele>332.0</ele><time>2026-04-15T12:04:07.872Z</time></trkpt><trkpt lat="42.5381667" lon="-7.5373933"><ele>331.0</ele><time>2026-04-15T12:04:08.873Z</time></trkpt><trkpt lat="42.5379983" lon="-7.5375283"><ele>329.66666666666663</ele><time>2026-04-15T12:04:09.872Z</time></trkpt><trkpt lat="42.5378367" lon="-7.5376617"><ele>328.3333333333333</ele><time>2026-04-15T12:04:10.872Z</time></trkpt><trkpt lat="42.537675" lon="-7.5378"><ele>327.0</ele><time>2026-04-15T12:04:11.872Z</time></trkpt><trkpt lat="42.5375033" lon="-7.537935"><ele>327.0</ele><time>2026-04-15T12:04:12.873Z</time></trkpt><trkpt lat="42.5373383" lon="-7.5380717"><ele>327.0</ele><time>2026-04-15T12:04:13.873Z</time></trkpt><trkpt lat="42.537175" lon="-7.5382133"><ele>327.0</ele><time>2026-04-15T12:04:14.873Z</time></trkpt><trkpt lat="42.5370067" lon="-7.538355"><ele>325.6666666666667</ele><time>2026-04-15T12:04:15.873Z</time></trkpt><trkpt lat="42.53684" lon="-7.5384883"><ele>324.33333333333337</ele><time>2026-04-15T12:04:16.873Z</time></trkpt><trkpt lat="42.53667" lon="-7.5386317"><ele>323.0</ele><time>2026-04-15T12:04:17.873Z</time></trkpt><trkpt lat="42.5365017" lon="-7.5387667"><ele>323.0</ele><time>2026-04-15T12:04:18.873Z</time></trkpt><trkpt lat="42.5363317" lon="-7.5389"><ele>323.0</ele><time>2026-04-15T12:04:19.873Z</time></trkpt><trkpt lat="42.5361667" lon="-7.5390483"><ele>323.0</ele><time>2026-04-15T12:04:20.873Z</time></trkpt><trkpt lat="42.5359983" lon="-7.5391867"><ele>322.6666666666667</ele><time>2026-04-15T12:04:21.873Z</time></trkpt><trkpt lat="42.53583" lon="-7.5393167"><ele>322.3333333333333</ele><time>2026-04-15T12:04:22.873Z</time></trkpt><trkpt lat="42.53567" lon="-7.5394417"><ele>322.0</ele><time>2026-04-15T12:04:23.873Z</time></trkpt><trkpt lat="42.5355033" lon="-7.5395633"><ele>320.66666666666663</ele><time>2026-04-15T12:04:24.872Z</time></trkpt><trkpt lat="42.535335" lon="-7.5396783"><ele>319.3333333333333</ele><time>2026-04-15T12:04:25.872Z</time></trkpt><trkpt lat="42.5351633" lon="-7.5397867"><ele>318.0</ele><time>2026-04-15T12:04:26.873Z</time></trkpt><trkpt lat="42.535" lon="-7.539885"><ele>318.0</ele><time>2026-04-15T12:04:27.873Z</time></trkpt><trkpt lat="42.5348433" lon="-7.5399717"><ele>318.0</ele><time>2026-04-15T12:04:28.872Z</time></trkpt><trkpt lat="42.5346767" lon="-7.5400433"><ele>318.0</ele><time>2026-04-15T12:04:29.873Z</time></trkpt><trkpt lat="42.534505" lon="-7.5401183"><ele>316.3333333333333</ele><time>2026-04-15T12:04:30.873Z</time></trkpt><trkpt lat="42.5343333" lon="-7.5401867"><ele>314.66666666666663</ele><time>2026-04-15T12:04:31.872Z</time></trkpt><trkpt lat="42.5341517" lon="-7.5402317"><ele>313.0</ele><time>2026-04-15T12:04:32.873Z</time></trkpt><trkpt lat="42.5339667" lon="-7.540275"><ele>313.0</ele><time>2026-04-15T12:04:33.872Z</time></trkpt><trkpt lat="42.5337867" lon="-7.5403033"><ele>313.0</ele><time>2026-04-15T12:04:34.872Z</time></trkpt><trkpt lat="42.53362" lon="-7.5403183"><ele>313.0</ele><time>2026-04-15T12:04:35.872Z</time></trkpt><trkpt lat="42.5334517" lon="-7.5403283"><ele>313.0</ele><time>2026-04-15T12:04:36.872Z</time></trkpt><trkpt lat="42.5333017" lon="-7.5403317"><ele>313.0</ele><time>2026-04-15T12:04:37.873Z</time></trkpt><trkpt lat="42.5331567" lon="-7.5403367"><ele>313.0</ele><time>2026-04-15T12:04:38.872Z</time></trkpt><trkpt lat="42.5330233" lon="-7.5403333"><ele>313.0</ele><time>2026-04-15T12:04:39.872Z</time></trkpt><trkpt lat="42.5329" lon="-7.54032"><ele>313.0</ele><time>2026-04-15T12:04:40.873Z</time></trkpt><trkpt lat="42.5327767" lon="-7.5403167"><ele>313.0</ele><time>2026-04-15T12:04:41.872Z</time></trkpt><trkpt lat="42.53266" lon="-7.5403467"><ele>313.0</ele><time>2026-04-15T12:04:42.872Z</time></trkpt><trkpt lat="42.5325433" lon="-7.540415"><ele>313.0</ele><time>2026-04-15T12:04:43.873Z</time></trkpt><trkpt lat="42.5324317" lon="-7.54051"><ele>313.25</ele><time>2026-04-15T12:04:44.873Z</time></trkpt><trkpt lat="42.5323133" lon="-7.5405883"><ele>313.5</ele><time>2026-04-15T12:04:45.873Z</time></trkpt><trkpt lat="42.532195" lon="-7.5406517"><ele>313.75</ele><time>2026-04-15T12:04:46.873Z</time></trkpt><trkpt lat="42.5320783" lon="-7.540735"><ele>314.0</ele><time>2026-04-15T12:04:47.873Z</time></trkpt><trkpt lat="42.53197" lon="-7.540865"><ele>314.0</ele><time>2026-04-15T12:04:48.872Z</time></trkpt><trkpt lat="42.5318817" lon="-7.541035"><ele>314.0</ele><time>2026-04-15T12:04:49.872Z</time></trkpt><trkpt lat="42.5318" lon="-7.5412333"><ele>314.0</ele><time>2026-04-15T12:04:50.873Z</time></trkpt><trkpt lat="42.531715" lon="-7.5414333"><ele>313.6666666666667</ele><time>2026-04-15T12:04:51.873Z</time></trkpt><trkpt lat="42.5316333" lon="-7.5416333"><ele>313.3333333333333</ele><time>2026-04-15T12:04:52.873Z</time></trkpt><trkpt lat="42.5315533" lon="-7.54185"><ele>313.0</ele><time>2026-04-15T12:04:53.872Z</time></trkpt><trkpt lat="42.5314867" lon="-7.5420783"><ele>312.3333333333333</ele><time>2026-04-15T12:04:54.873Z</time></trkpt><trkpt lat="42.53142" lon="-7.5423033"><ele>311.6666666666667</ele><time>2026-04-15T12:04:55.872Z</time></trkpt><trkpt lat="42.5313533" lon="-7.5425433"><ele>311.0</ele><time>2026-04-15T12:04:56.872Z</time></trkpt><trkpt lat="42.5312933" lon="-7.5427867"><ele>310.6666666666667</ele><time>2026-04-15T12:04:57.873Z</time></trkpt><trkpt lat="42.5312433" lon="-7.5430333"><ele>310.3333333333333</ele><time>2026-04-15T12:04:58.872Z</time></trkpt><trkpt lat="42.53119" lon="-7.54327"><ele>310.0</ele><time>2026-04-15T12:04:59.872Z</time></trkpt><trkpt lat="42.5311433" lon="-7.543525"><ele>309.3333333333333</ele><time>2026-04-15T12:05:00.873Z</time></trkpt><trkpt lat="42.531105" lon="-7.5437883"><ele>308.6666666666667</ele><time>2026-04-15T12:05:01.873Z</time></trkpt><trkpt lat="42.5310817" lon="-7.5440583"><ele>308.0</ele><time>2026-04-15T12:05:02.872Z</time></trkpt><trkpt lat="42.5310533" lon="-7.5443117"><ele>306.6666666666667</ele><time>2026-04-15T12:05:03.872Z</time></trkpt><trkpt lat="42.53104" lon="-7.5445683"><ele>305.3333333333333</ele><time>2026-04-15T12:05:04.872Z</time></trkpt><trkpt lat="42.5310367" lon="-7.54484"><ele>304.0</ele><time>2026-04-15T12:05:05.872Z</time></trkpt><trkpt lat="42.53104" lon="-7.5451067"><ele>304.0</ele><time>2026-04-15T12:05:06.872Z</time></trkpt><trkpt lat="42.531045" lon="-7.5453733"><ele>304.0</ele><time>2026-04-15T12:05:07.873Z</time></trkpt><trkpt lat="42.53106" lon="-7.5456467"><ele>304.0</ele><time>2026-04-15T12:05:08.873Z</time></trkpt><trkpt lat="42.531085" lon="-7.545925"><ele>302.66666666666663</ele><time>2026-04-15T12:05:09.872Z</time></trkpt><trkpt lat="42.5311117" lon="-7.5462067"><ele>301.3333333333333</ele><time>2026-04-15T12:05:10.872Z</time></trkpt><trkpt lat="42.5311417" lon="-7.546495"><ele>300.0</ele><time>2026-04-15T12:05:11.872Z</time></trkpt><trkpt lat="42.5311717" lon="-7.54679"><ele>298.6666666666667</ele><time>2026-04-15T12:05:12.872Z</time></trkpt><trkpt lat="42.5311917" lon="-7.5470817"><ele>297.33333333333337</ele><time>2026-04-15T12:05:13.873Z</time></trkpt><trkpt lat="42.53121" lon="-7.54736"><ele>296.0</ele><time>2026-04-15T12:05:14.872Z</time></trkpt><trkpt lat="42.5312217" lon="-7.5476417"><ele>296.0</ele><time>2026-04-15T12:05:15.872Z</time></trkpt><trkpt lat="42.53123" lon="-7.5479167"><ele>296.0</ele><time>2026-04-15T12:05:16.872Z</time></trkpt><trkpt lat="42.531225" lon="-7.5481883"><ele>296.0</ele><time>2026-04-15T12:05:17.873Z</time></trkpt><trkpt lat="42.5312217" lon="-7.5484617"><ele>294.6666666666667</ele><time>2026-04-15T12:05:18.873Z</time></trkpt><trkpt lat="42.5312067" lon="-7.548735"><ele>293.3333333333333</ele><time>2026-04-15T12:05:19.872Z</time></trkpt><trkpt lat="42.5311833" lon="-7.54901"><ele>292.0</ele><time>2026-04-15T12:05:20.872Z</time></trkpt><trkpt lat="42.5311483" lon="-7.5492833"><ele>292.0</ele><time>2026-04-15T12:05:21.872Z</time></trkpt><trkpt lat="42.5311067" lon="-7.5495517"><ele>292.0</ele><time>2026-04-15T12:05:22.872Z</time></trkpt><trkpt lat="42.53105" lon="-7.5498183"><ele>292.0</ele><time>2026-04-15T12:05:23.873Z</time></trkpt><trkpt lat="42.531005" lon="-7.5500867"><ele>292.0</ele><time>2026-04-15T12:05:24.872Z</time></trkpt><trkpt lat="42.5309567" lon="-7.55035"><ele>292.0</ele><time>2026-04-15T12:05:25.872Z</time></trkpt><trkpt lat="42.53091" lon="-7.5506133"><ele>292.0</ele><time>2026-04-15T12:05:26.873Z</time></trkpt><trkpt lat="42.5308717" lon="-7.55088"><ele>292.0</ele><time>2026-04-15T12:05:27.872Z</time></trkpt><trkpt lat="42.530835" lon="-7.5511433"><ele>292.0</ele><time>2026-04-15T12:05:28.873Z</time></trkpt><trkpt lat="42.530805" lon="-7.5514167"><ele>292.0</ele><time>2026-04-15T12:05:29.873Z</time></trkpt><trkpt lat="42.5307767" lon="-7.5516883"><ele>292.0</ele><time>2026-04-15T12:05:30.873Z</time></trkpt><trkpt lat="42.5307533" lon="-7.55196"><ele>292.0</ele><time>2026-04-15T12:05:31.873Z</time></trkpt><trkpt lat="42.5307583" lon="-7.5522417"><ele>292.0</ele><time>2026-04-15T12:05:32.873Z</time></trkpt><trkpt lat="42.530765" lon="-7.5525117"><ele>292.0</ele><time>2026-04-15T12:05:33.873Z</time></trkpt><trkpt lat="42.53077" lon="-7.5527867"><ele>292.0</ele><time>2026-04-15T12:05:34.873Z</time></trkpt><trkpt lat="42.5307983" lon="-7.55307"><ele>292.0</ele><time>2026-04-15T12:05:35.873Z</time></trkpt><trkpt lat="42.53084" lon="-7.553335"><ele>292.3333333333333</ele><time>2026-04-15T12:05:36.873Z</time></trkpt><trkpt lat="42.5309017" lon="-7.5536017"><ele>292.6666666666667</ele><time>2026-04-15T12:05:37.872Z</time></trkpt><trkpt lat="42.5309683" lon="-7.55387"><ele>293.0</ele><time>2026-04-15T12:05:38.873Z</time></trkpt><trkpt lat="42.5310533" lon="-7.5541367"><ele>293.6666666666667</ele><time>2026-04-15T12:05:39.872Z</time></trkpt><trkpt lat="42.5311417" lon="-7.5543817"><ele>294.3333333333333</ele><time>2026-04-15T12:05:40.873Z</time></trkpt><trkpt lat="42.5312333" lon="-7.554625"><ele>295.0</ele><time>2026-04-15T12:05:41.872Z</time></trkpt><trkpt lat="42.5313367" lon="-7.5548583"><ele>295.3333333333333</ele><time>2026-04-15T12:05:42.872Z</time></trkpt><trkpt lat="42.5314467" lon="-7.5550883"><ele>295.6666666666667</ele><time>2026-04-15T12:05:43.873Z</time></trkpt><trkpt lat="42.5315683" lon="-7.5553083"><ele>296.0</ele><time>2026-04-15T12:05:44.872Z</time></trkpt><trkpt lat="42.5316983" lon="-7.5555267"><ele>296.33333333333337</ele><time>2026-04-15T12:05:45.872Z</time></trkpt><trkpt lat="42.5318383" lon="-7.55575"><ele>296.6666666666667</ele><time>2026-04-15T12:05:46.872Z</time></trkpt><trkpt lat="42.5319833" lon="-7.5559683"><ele>297.0</ele><time>2026-04-15T12:05:47.872Z</time></trkpt><trkpt lat="42.53212" lon="-7.5561867"><ele>295.6666666666667</ele><time>2026-04-15T12:05:48.872Z</time></trkpt><trkpt lat="42.53225" lon="-7.55641"><ele>294.33333333333337</ele><time>2026-04-15T12:05:49.873Z</time></trkpt><trkpt lat="42.5323683" lon="-7.5566317"><ele>293.0</ele><time>2026-04-15T12:05:50.873Z</time></trkpt><trkpt lat="42.5324767" lon="-7.5568683"><ele>293.6666666666667</ele><time>2026-04-15T12:05:51.873Z</time></trkpt><trkpt lat="42.5325733" lon="-7.5571117"><ele>294.3333333333333</ele><time>2026-04-15T12:05:52.872Z</time></trkpt><trkpt lat="42.5326567" lon="-7.557355"><ele>295.0</ele><time>2026-04-15T12:05:53.872Z</time></trkpt><trkpt lat="42.5327367" lon="-7.5576117"><ele>295.66666666666663</ele><time>2026-04-15T12:05:54.873Z</time></trkpt><trkpt lat="42.5328067" lon="-7.5578817"><ele>296.3333333333333</ele><time>2026-04-15T12:05:55.872Z</time></trkpt><trkpt lat="42.5328667" lon="-7.55815"><ele>297.0</ele><time>2026-04-15T12:05:56.873Z</time></trkpt><trkpt lat="42.5329067" lon="-7.5584117"><ele>297.0</ele><time>2026-04-15T12:05:57.873Z</time></trkpt><trkpt lat="42.5329417" lon="-7.5586867"><ele>297.0</ele><time>2026-04-15T12:05:58.873Z</time></trkpt><trkpt lat="42.532965" lon="-7.558955"><ele>297.0</ele><time>2026-04-15T12:05:59.872Z</time></trkpt><trkpt lat="42.5329767" lon="-7.559215"><ele>297.0</ele><time>2026-04-15T12:06:00.872Z</time></trkpt><trkpt lat="42.532985" lon="-7.5594783"><ele>297.0</ele><time>2026-04-15T12:06:01.872Z</time></trkpt><trkpt lat="42.5329767" lon="-7.55973"><ele>297.0</ele><time>2026-04-15T12:06:02.873Z</time></trkpt><trkpt lat="42.5329567" lon="-7.5599867"><ele>297.0</ele><time>2026-04-15T12:06:03.872Z</time></trkpt><trkpt lat="42.5329267" lon="-7.560245"><ele>297.0</ele><time>2026-04-15T12:06:04.872Z</time></trkpt><trkpt lat="42.5328833" lon="-7.560505"><ele>297.0</ele><time>2026-04-15T12:06:05.872Z</time></trkpt><trkpt lat="42.5328317" lon="-7.5607683"><ele>297.0</ele><time>2026-04-15T12:06:06.872Z</time></trkpt><trkpt lat="42.5327567" lon="-7.5610267"><ele>297.0</ele><time>2026-04-15T12:06:07.873Z</time></trkpt><trkpt lat="42.532685" lon="-7.5612817"><ele>297.0</ele><time>2026-04-15T12:06:08.872Z</time></trkpt><trkpt lat="42.532605" lon="-7.5615367"><ele>296.6666666666667</ele><time>2026-04-15T12:06:09.873Z</time></trkpt><trkpt lat="42.5325217" lon="-7.56179"><ele>296.33333333333337</ele><time>2026-04-15T12:06:10.873Z</time></trkpt><trkpt lat="42.532435" lon="-7.5620433"><ele>296.0</ele><time>2026-04-15T12:06:11.872Z</time></trkpt><trkpt lat="42.5323467" lon="-7.5623017"><ele>296.6666666666667</ele><time>2026-04-15T12:06:12.872Z</time></trkpt><trkpt lat="42.5322617" lon="-7.5625667"><ele>297.3333333333333</ele><time>2026-04-15T12:06:13.872Z</time></trkpt><trkpt lat="42.5321717" lon="-7.5628183"><ele>298.0</ele><time>2026-04-15T12:06:14.873Z</time></trkpt><trkpt lat="42.5320783" lon="-7.5630683"><ele>300.3333333333333</ele><time>2026-04-15T12:06:15.872Z</time></trkpt><trkpt lat="42.5319917" lon="-7.56333"><ele>302.6666666666667</ele><time>2026-04-15T12:06:16.872Z</time></trkpt><trkpt lat="42.5319033" lon="-7.5635817"><ele>305.0</ele><time>2026-04-15T12:06:17.872Z</time></trkpt><trkpt lat="42.5318133" lon="-7.56383"><ele>305.33333333333337</ele><time>2026-04-15T12:06:18.872Z</time></trkpt><trkpt lat="42.5317283" lon="-7.5640867"><ele>305.6666666666667</ele><time>2026-04-15T12:06:19.873Z</time></trkpt><trkpt lat="42.5316417" lon="-7.5643417"><ele>306.0</ele><time>2026-04-15T12:06:20.873Z</time></trkpt><trkpt lat="42.5315467" lon="-7.5645933"><ele>306.0</ele><time>2026-04-15T12:06:21.873Z</time></trkpt><trkpt lat="42.5314467" lon="-7.5648433"><ele>306.0</ele><time>2026-04-15T12:06:22.873Z</time></trkpt><trkpt lat="42.5313617" lon="-7.5651017"><ele>306.0</ele><time>2026-04-15T12:06:23.873Z</time></trkpt><trkpt lat="42.5312733" lon="-7.5653517"><ele>307.6666666666667</ele><time>2026-04-15T12:06:24.873Z</time></trkpt><trkpt lat="42.5311867" lon="-7.5656"><ele>309.33333333333337</ele><time>2026-04-15T12:06:25.873Z</time></trkpt><trkpt lat="42.53109" lon="-7.5658417"><ele>311.0</ele><time>2026-04-15T12:06:26.872Z</time></trkpt><trkpt lat="42.531005" lon="-7.5660867"><ele>310.33333333333337</ele><time>2026-04-15T12:06:27.872Z</time></trkpt><trkpt lat="42.53092" lon="-7.5663167"><ele>309.6666666666667</ele><time>2026-04-15T12:06:28.872Z</time></trkpt><trkpt lat="42.5308533" lon="-7.566555"><ele>309.0</ele><time>2026-04-15T12:06:29.873Z</time></trkpt><trkpt lat="42.530795" lon="-7.5668"><ele>309.3333333333333</ele><time>2026-04-15T12:06:30.873Z</time></trkpt><trkpt lat="42.5307417" lon="-7.567045"><ele>309.66666666666663</ele><time>2026-04-15T12:06:31.873Z</time></trkpt><trkpt lat="42.5307017" lon="-7.5672883"><ele>310.0</ele><time>2026-04-15T12:06:32.872Z</time></trkpt><trkpt lat="42.5306717" lon="-7.5675367"><ele>310.0</ele><time>2026-04-15T12:06:33.873Z</time></trkpt><trkpt lat="42.5306517" lon="-7.5677883"><ele>310.0</ele><time>2026-04-15T12:06:34.872Z</time></trkpt><trkpt lat="42.5306483" lon="-7.5680433"><ele>310.0</ele><time>2026-04-15T12:06:35.872Z</time></trkpt><trkpt lat="42.5306417" lon="-7.5683"><ele>310.66666666666663</ele><time>2026-04-15T12:06:36.872Z</time></trkpt><trkpt lat="42.5306383" lon="-7.56856"><ele>311.3333333333333</ele><time>2026-04-15T12:06:37.872Z</time></trkpt><trkpt lat="42.530635" lon="-7.56883"><ele>312.0</ele><time>2026-04-15T12:06:38.872Z</time></trkpt><trkpt lat="42.5306333" lon="-7.5691"><ele>312.3333333333333</ele><time>2026-04-15T12:06:39.873Z</time></trkpt><trkpt lat="42.5306317" lon="-7.569375"><ele>312.66666666666663</ele><time>2026-04-15T12:06:40.872Z</time></trkpt><trkpt lat="42.5306367" lon="-7.56966"><ele>313.0</ele><time>2026-04-15T12:06:41.872Z</time></trkpt><trkpt lat="42.53064" lon="-7.569945"><ele>313.0</ele><time>2026-04-15T12:06:42.873Z</time></trkpt><trkpt lat="42.5306517" lon="-7.57023"><ele>313.0</ele><time>2026-04-15T12:06:43.872Z</time></trkpt><trkpt lat="42.530665" lon="-7.5705117"><ele>313.0</ele><time>2026-04-15T12:06:44.873Z</time></trkpt><trkpt lat="42.530675" lon="-7.5708"><ele>313.0</ele><time>2026-04-15T12:06:45.873Z</time></trkpt><trkpt lat="42.5306883" lon="-7.5710767"><ele>313.0</ele><time>2026-04-15T12:06:46.872Z</time></trkpt><trkpt lat="42.530715" lon="-7.5713617"><ele>313.0</ele><time>2026-04-15T12:06:47.872Z</time></trkpt><trkpt lat="42.5307467" lon="-7.5716367"><ele>313.0</ele><time>2026-04-15T12:06:48.873Z</time></trkpt><trkpt lat="42.5307717" lon="-7.5719133"><ele>313.0</ele><time>2026-04-15T12:06:49.873Z</time></trkpt><trkpt lat="42.5308017" lon="-7.5721917"><ele>313.0</ele><time>2026-04-15T12:06:50.873Z</time></trkpt><trkpt lat="42.5308367" lon="-7.5724767"><ele>313.0</ele><time>2026-04-15T12:06:51.873Z</time></trkpt><trkpt lat="42.5308767" lon="-7.5727583"><ele>313.0</ele><time>2026-04-15T12:06:52.873Z</time></trkpt><trkpt lat="42.5309133" lon="-7.5730283"><ele>313.0</ele><time>2026-04-15T12:06:53.873Z</time></trkpt><trkpt lat="42.5309567" lon="-7.5733017"><ele>313.3333333333333</ele><time>2026-04-15T12:06:54.872Z</time></trkpt><trkpt lat="42.5310033" lon="-7.5735733"><ele>313.6666666666667</ele><time>2026-04-15T12:06:55.872Z</time></trkpt><trkpt lat="42.5310567" lon="-7.57384"><ele>314.0</ele><time>2026-04-15T12:06:56.873Z</time></trkpt><trkpt lat="42.531115" lon="-7.5741083"><ele>314.0</ele><time>2026-04-15T12:06:57.873Z</time></trkpt><trkpt lat="42.531175" lon="-7.5743783"><ele>314.0</ele><time>2026-04-15T12:06:58.873Z</time></trkpt><trkpt lat="42.5312317" lon="-7.57465"><ele>314.0</ele><time>2026-04-15T12:06:59.873Z</time></trkpt><trkpt lat="42.5312983" lon="-7.574915"><ele>312.0</ele><time>2026-04-15T12:07:00.873Z</time></trkpt><trkpt lat="42.531365" lon="-7.57518"><ele>310.0</ele><time>2026-04-15T12:07:01.872Z</time></trkpt><trkpt lat="42.531435" lon="-7.5754267"><ele>308.0</ele><time>2026-04-15T12:07:02.873Z</time></trkpt><trkpt lat="42.5315083" lon="-7.575685"><ele>307.6666666666667</ele><time>2026-04-15T12:07:03.872Z</time></trkpt><trkpt lat="42.5315883" lon="-7.5759383"><ele>307.3333333333333</ele><time>2026-04-15T12:07:04.872Z</time></trkpt><trkpt lat="42.5316683" lon="-7.5761867"><ele>307.0</ele><time>2026-04-15T12:07:05.872Z</time></trkpt><trkpt lat="42.53175" lon="-7.57643"><ele>307.0</ele><time>2026-04-15T12:07:06.873Z</time></trkpt><trkpt lat="42.5318383" lon="-7.5766817"><ele>307.0</ele><time>2026-04-15T12:07:07.872Z</time></trkpt><trkpt lat="42.5319267" lon="-7.5769267"><ele>307.0</ele><time>2026-04-15T12:07:08.872Z</time></trkpt><trkpt lat="42.5320267" lon="-7.5771667"><ele>309.66666666666663</ele><time>2026-04-15T12:07:09.873Z</time></trkpt><trkpt lat="42.5321183" lon="-7.5774117"><ele>312.3333333333333</ele><time>2026-04-15T12:07:10.873Z</time></trkpt><trkpt lat="42.532215" lon="-7.5776533"><ele>315.0</ele><time>2026-04-15T12:07:11.872Z</time></trkpt><trkpt lat="42.5323133" lon="-7.5778967"><ele>315.6666666666667</ele><time>2026-04-15T12:07:12.872Z</time></trkpt><trkpt lat="42.5324117" lon="-7.5781317"><ele>316.33333333333337</ele><time>2026-04-15T12:07:13.873Z</time></trkpt><trkpt lat="42.5325183" lon="-7.57837"><ele>317.0</ele><time>2026-04-15T12:07:14.872Z</time></trkpt><trkpt lat="42.5326167" lon="-7.5785983"><ele>318.33333333333337</ele><time>2026-04-15T12:07:15.873Z</time></trkpt><trkpt lat="42.5327183" lon="-7.5788217"><ele>319.6666666666667</ele><time>2026-04-15T12:07:16.873Z</time></trkpt><trkpt lat="42.5328267" lon="-7.57905"><ele>321.0</ele><time>2026-04-15T12:07:17.872Z</time></trkpt><trkpt lat="42.5329317" lon="-7.579285"><ele>322.6666666666667</ele><time>2026-04-15T12:07:18.872Z</time></trkpt><trkpt lat="42.5330317" lon="-7.57952"><ele>324.33333333333337</ele><time>2026-04-15T12:07:19.872Z</time></trkpt><trkpt lat="42.5331283" lon="-7.5797583"><ele>326.0</ele><time>2026-04-15T12:07:20.873Z</time></trkpt><trkpt lat="42.53322" lon="-7.5800067"><ele>326.0</ele><time>2026-04-15T12:07:21.872Z</time></trkpt><trkpt lat="42.5333067" lon="-7.5802667"><ele>326.0</ele><time>2026-04-15T12:07:22.873Z</time></trkpt><trkpt lat="42.5333917" lon="-7.5805367"><ele>326.0</ele><time>2026-04-15T12:07:23.872Z</time></trkpt><trkpt lat="42.5334667" lon="-7.580805"><ele>327.33333333333337</ele><time>2026-04-15T12:07:24.872Z</time></trkpt><trkpt lat="42.5335333" lon="-7.5810733"><ele>328.6666666666667</ele><time>2026-04-15T12:07:25.872Z</time></trkpt><trkpt lat="42.5336017" lon="-7.5813433"><ele>330.0</ele><time>2026-04-15T12:07:26.873Z</time></trkpt><trkpt lat="42.533675" lon="-7.5816233"><ele>328.0</ele><time>2026-04-15T12:07:27.872Z</time></trkpt><trkpt lat="42.53375" lon="-7.581895"><ele>326.0</ele><time>2026-04-15T12:07:28.872Z</time></trkpt><trkpt lat="42.53382" lon="-7.5821667"><ele>324.0</ele><time>2026-04-15T12:07:29.872Z</time></trkpt><trkpt lat="42.5339033" lon="-7.5824383"><ele>323.0</ele><time>2026-04-15T12:07:30.872Z</time></trkpt><trkpt lat="42.5339833" lon="-7.5827"><ele>322.0</ele><time>2026-04-15T12:07:31.872Z</time></trkpt><trkpt lat="42.5340683" lon="-7.5829633"><ele>321.0</ele><time>2026-04-15T12:07:32.872Z</time></trkpt><trkpt lat="42.5341683" lon="-7.58322"><ele>320.3333333333333</ele><time>2026-04-15T12:07:33.872Z</time></trkpt><trkpt lat="42.534275" lon="-7.5834633"><ele>319.66666666666663</ele><time>2026-04-15T12:07:34.872Z</time></trkpt><trkpt lat="42.5343867" lon="-7.5836933"><ele>319.0</ele><time>2026-04-15T12:07:35.872Z</time></trkpt><trkpt lat="42.5345" lon="-7.5839183"><ele>317.66666666666663</ele><time>2026-04-15T12:07:36.872Z</time></trkpt><trkpt lat="42.53461" lon="-7.58414"><ele>316.3333333333333</ele><time>2026-04-15T12:07:37.873Z</time></trkpt><trkpt lat="42.5347133" lon="-7.5843517"><ele>315.0</ele><time>2026-04-15T12:07:38.873Z</time></trkpt><trkpt lat="42.53482" lon="-7.5845633"><ele>315.0</ele><time>2026-04-15T12:07:39.873Z</time></trkpt><trkpt lat="42.53493" lon="-7.5847867"><ele>315.0</ele><time>2026-04-15T12:07:40.873Z</time></trkpt><trkpt lat="42.5350317" lon="-7.58502"><ele>315.0</ele><time>2026-04-15T12:07:41.872Z</time></trkpt><trkpt lat="42.5351317" lon="-7.5852683"><ele>317.0</ele><time>2026-04-15T12:07:42.873Z</time></trkpt><trkpt lat="42.5352283" lon="-7.5855233"><ele>319.0</ele><time>2026-04-15T12:07:43.872Z</time></trkpt><trkpt lat="42.535305" lon="-7.58579"><ele>321.0</ele><time>2026-04-15T12:07:44.872Z</time></trkpt><trkpt lat="42.5353833" lon="-7.5860583"><ele>321.0</ele><time>2026-04-15T12:07:45.872Z</time></trkpt><trkpt lat="42.5354517" lon="-7.5863367"><ele>321.0</ele><time>2026-04-15T12:07:46.873Z</time></trkpt><trkpt lat="42.5355117" lon="-7.5866117"><ele>321.0</ele><time>2026-04-15T12:07:47.873Z</time></trkpt><trkpt lat="42.5355567" lon="-7.5868967"><ele>322.3333333333333</ele><time>2026-04-15T12:07:48.872Z</time></trkpt><trkpt lat="42.5356017" lon="-7.5871933"><ele>323.66666666666663</ele><time>2026-04-15T12:07:49.872Z</time></trkpt><trkpt lat="42.53563" lon="-7.5874817"><ele>325.0</ele><time>2026-04-15T12:07:50.873Z</time></trkpt><trkpt lat="42.53565" lon="-7.5877717"><ele>325.66666666666663</ele><time>2026-04-15T12:07:51.873Z</time></trkpt><trkpt lat="42.5356583" lon="-7.5880583"><ele>326.3333333333333</ele><time>2026-04-15T12:07:52.873Z</time></trkpt><trkpt lat="42.5356633" lon="-7.5883433"><ele>327.0</ele><time>2026-04-15T12:07:53.873Z</time></trkpt><trkpt lat="42.5356583" lon="-7.5886117"><ele>327.6666666666667</ele><time>2026-04-15T12:07:54.872Z</time></trkpt><trkpt lat="42.5356517" lon="-7.5888817"><ele>328.33333333333337</ele><time>2026-04-15T12:07:55.872Z</time></trkpt><trkpt lat="42.5356483" lon="-7.58916"><ele>329.0</ele><time>2026-04-15T12:07:56.872Z</time></trkpt><trkpt lat="42.5356483" lon="-7.5894267"><ele>330.0</ele><time>2026-04-15T12:07:57.872Z</time></trkpt><trkpt lat="42.53565" lon="-7.5896883"><ele>331.0</ele><time>2026-04-15T12:07:58.873Z</time></trkpt><trkpt lat="42.5356517" lon="-7.5899533"><ele>332.0</ele><time>2026-04-15T12:07:59.872Z</time></trkpt><trkpt lat="42.535665" lon="-7.5902133"><ele>333.6666666666667</ele><time>2026-04-15T12:08:00.873Z</time></trkpt><trkpt lat="42.5356867" lon="-7.5904833"><ele>335.3333333333333</ele><time>2026-04-15T12:08:01.872Z</time></trkpt><trkpt lat="42.5357183" lon="-7.5907517"><ele>337.0</ele><time>2026-04-15T12:08:02.873Z</time></trkpt><trkpt lat="42.53576" lon="-7.5910217"><ele>340.0</ele><time>2026-04-15T12:08:03.873Z</time></trkpt><trkpt lat="42.53581" lon="-7.5912917"><ele>343.0</ele><time>2026-04-15T12:08:04.873Z</time></trkpt><trkpt lat="42.5358633" lon="-7.5915517"><ele>346.0</ele><time>2026-04-15T12:08:05.873Z</time></trkpt><trkpt lat="42.5359317" lon="-7.5918083"><ele>350.0</ele><time>2026-04-15T12:08:06.872Z</time></trkpt><trkpt lat="42.5360017" lon="-7.5920583"><ele>354.0</ele><time>2026-04-15T12:08:07.873Z</time></trkpt><trkpt lat="42.53608" lon="-7.5923033"><ele>358.0</ele><time>2026-04-15T12:08:08.872Z</time></trkpt><trkpt lat="42.53617" lon="-7.5925467"><ele>359.0</ele><time>2026-04-15T12:08:09.873Z</time></trkpt><trkpt lat="42.5362683" lon="-7.5927883"><ele>360.0</ele><time>2026-04-15T12:08:10.872Z</time></trkpt><trkpt lat="42.5363733" lon="-7.59303"><ele>361.0</ele><time>2026-04-15T12:08:11.873Z</time></trkpt><trkpt lat="42.536485" lon="-7.5932733"><ele>363.0</ele><time>2026-04-15T12:08:12.873Z</time></trkpt><trkpt lat="42.536605" lon="-7.5935017"><ele>365.0</ele><time>2026-04-15T12:08:13.873Z</time></trkpt><trkpt lat="42.536725" lon="-7.5937333"><ele>367.0</ele><time>2026-04-15T12:08:14.872Z</time></trkpt><trkpt lat="42.5368417" lon="-7.593965"><ele>369.3333333333333</ele><time>2026-04-15T12:08:15.872Z</time></trkpt><trkpt lat="42.536965" lon="-7.5941933"><ele>371.6666666666667</ele><time>2026-04-15T12:08:16.872Z</time></trkpt><trkpt lat="42.5370867" lon="-7.594425"><ele>374.0</ele><time>2026-04-15T12:08:17.873Z</time></trkpt><trkpt lat="42.5372067" lon="-7.5946583"><ele>374.33333333333337</ele><time>2026-04-15T12:08:18.872Z</time></trkpt><trkpt lat="42.5373317" lon="-7.5948933"><ele>374.6666666666667</ele><time>2026-04-15T12:08:19.873Z</time></trkpt><trkpt lat="42.5374517" lon="-7.5951167"><ele>375.0</ele><time>2026-04-15T12:08:20.872Z</time></trkpt><trkpt lat="42.537575" lon="-7.5953433"><ele>377.0</ele><time>2026-04-15T12:08:21.873Z</time></trkpt><trkpt lat="42.5377017" lon="-7.5955667"><ele>379.0</ele><time>2026-04-15T12:08:22.872Z</time></trkpt><trkpt lat="42.5378183" lon="-7.5957933"><ele>381.0</ele><time>2026-04-15T12:08:23.873Z</time></trkpt><trkpt lat="42.537935" lon="-7.5960283"><ele>383.0</ele><time>2026-04-15T12:08:24.873Z</time></trkpt><trkpt lat="42.5380567" lon="-7.5962583"><ele>385.0</ele><time>2026-04-15T12:08:25.872Z</time></trkpt><trkpt lat="42.5381717" lon="-7.5964783"><ele>387.0</ele><time>2026-04-15T12:08:26.873Z</time></trkpt><trkpt lat="42.5382783" lon="-7.5966917"><ele>387.0</ele><time>2026-04-15T12:08:27.872Z</time></trkpt><trkpt lat="42.53839" lon="-7.5969083"><ele>387.0</ele><time>2026-04-15T12:08:28.872Z</time></trkpt><trkpt lat="42.5385033" lon="-7.5971267"><ele>387.0</ele><time>2026-04-15T12:08:29.872Z</time></trkpt><trkpt lat="42.5386183" lon="-7.5973533"><ele>391.0</ele><time>2026-04-15T12:08:30.873Z</time></trkpt><trkpt lat="42.538735" lon="-7.5975817"><ele>395.0</ele><time>2026-04-15T12:08:31.872Z</time></trkpt><trkpt lat="42.5388483" lon="-7.5978067"><ele>399.0</ele><time>2026-04-15T12:08:32.873Z</time></trkpt><trkpt lat="42.5389633" lon="-7.59803"><ele>399.0</ele><time>2026-04-15T12:08:33.872Z</time></trkpt><trkpt lat="42.5390817" lon="-7.5982567"><ele>399.0</ele><time>2026-04-15T12:08:34.873Z</time></trkpt><trkpt lat="42.5391933" lon="-7.5984817"><ele>399.0</ele><time>2026-04-15T12:08:35.872Z</time></trkpt><trkpt lat="42.5393117" lon="-7.5987083"><ele>400.0</ele><time>2026-04-15T12:08:36.873Z</time></trkpt><trkpt lat="42.5394317" lon="-7.5989317"><ele>401.0</ele><time>2026-04-15T12:08:37.872Z</time></trkpt><trkpt lat="42.53955" lon="-7.5991583"><ele>402.0</ele><time>2026-04-15T12:08:38.872Z</time></trkpt><trkpt lat="42.5396733" lon="-7.599395"><ele>404.0</ele><time>2026-04-15T12:08:39.872Z</time></trkpt><trkpt lat="42.539785" lon="-7.5996217"><ele>406.0</ele><time>2026-04-15T12:08:40.873Z</time></trkpt><trkpt lat="42.5398983" lon="-7.599855"><ele>408.0</ele><time>2026-04-15T12:08:41.873Z</time></trkpt><trkpt lat="42.5400167" lon="-7.6000833"><ele>408.0</ele><time>2026-04-15T12:08:42.873Z</time></trkpt><trkpt lat="42.540135" lon="-7.6003083"><ele>408.0</ele><time>2026-04-15T12:08:43.873Z</time></trkpt><trkpt lat="42.54025" lon="-7.6005417"><ele>408.0</ele><time>2026-04-15T12:08:44.873Z</time></trkpt><trkpt lat="42.540355" lon="-7.6007717"><ele>410.66666666666663</ele><time>2026-04-15T12:08:45.873Z</time></trkpt><trkpt lat="42.5404633" lon="-7.6010083"><ele>413.3333333333333</ele><time>2026-04-15T12:08:46.872Z</time></trkpt><trkpt lat="42.5405533" lon="-7.6012433"><ele>416.0</ele><time>2026-04-15T12:08:47.873Z</time></trkpt><trkpt lat="42.5406433" lon="-7.6014783"><ele>417.0</ele><time>2026-04-15T12:08:48.872Z</time></trkpt><trkpt lat="42.5407283" lon="-7.6017217"><ele>418.0</ele><time>2026-04-15T12:08:49.872Z</time></trkpt><trkpt lat="42.5408167" lon="-7.6019717"><ele>419.0</ele><time>2026-04-15T12:08:50.872Z</time></trkpt><trkpt lat="42.5408967" lon="-7.6022283"><ele>420.0</ele><time>2026-04-15T12:08:51.873Z</time></trkpt><trkpt lat="42.54097" lon="-7.6024883"><ele>421.0</ele><time>2026-04-15T12:08:52.872Z</time></trkpt><trkpt lat="42.54104" lon="-7.6027517"><ele>422.0</ele><time>2026-04-15T12:08:53.872Z</time></trkpt><trkpt lat="42.5411083" lon="-7.603005"><ele>423.3333333333333</ele><time>2026-04-15T12:08:54.873Z</time></trkpt><trkpt lat="42.5411683" lon="-7.60326"><ele>424.66666666666663</ele><time>2026-04-15T12:08:55.872Z</time></trkpt><trkpt lat="42.5412233" lon="-7.6035283"><ele>426.0</ele><time>2026-04-15T12:08:56.873Z</time></trkpt><trkpt lat="42.5412617" lon="-7.6037883"><ele>427.66666666666663</ele><time>2026-04-15T12:08:57.872Z</time></trkpt><trkpt lat="42.5413017" lon="-7.604055"><ele>429.3333333333333</ele><time>2026-04-15T12:08:58.873Z</time></trkpt><trkpt lat="42.541335" lon="-7.6043267"><ele>431.0</ele><time>2026-04-15T12:08:59.873Z</time></trkpt><trkpt lat="42.5413733" lon="-7.6045983"><ele>431.0</ele><time>2026-04-15T12:09:00.872Z</time></trkpt><trkpt lat="42.5414067" lon="-7.6048717"><ele>431.0</ele><time>2026-04-15T12:09:01.873Z</time></trkpt><trkpt lat="42.541435" lon="-7.605145"><ele>431.0</ele><time>2026-04-15T12:09:02.873Z</time></trkpt><trkpt lat="42.5414617" lon="-7.6054217"><ele>430.3333333333333</ele><time>2026-04-15T12:09:03.872Z</time></trkpt><trkpt lat="42.5414867" lon="-7.6057"><ele>429.66666666666663</ele><time>2026-04-15T12:09:04.873Z</time></trkpt><trkpt lat="42.5415117" lon="-7.6059867"><ele>429.0</ele><time>2026-04-15T12:09:05.872Z</time></trkpt><trkpt lat="42.541535" lon="-7.60627"><ele>428.33333333333337</ele><time>2026-04-15T12:09:06.872Z</time></trkpt><trkpt lat="42.5415683" lon="-7.606555"><ele>427.6666666666667</ele><time>2026-04-15T12:09:07.873Z</time></trkpt><trkpt lat="42.5416083" lon="-7.60684"><ele>427.0</ele><time>2026-04-15T12:09:08.873Z</time></trkpt><trkpt lat="42.5416567" lon="-7.60712"><ele>425.33333333333337</ele><time>2026-04-15T12:09:09.873Z</time></trkpt><trkpt lat="42.5417083" lon="-7.6073983"><ele>423.66666666666663</ele><time>2026-04-15T12:09:10.872Z</time></trkpt><trkpt lat="42.5417633" lon="-7.6076667"><ele>422.0</ele><time>2026-04-15T12:09:11.872Z</time></trkpt><trkpt lat="42.5418233" lon="-7.60794"><ele>421.3333333333333</ele><time>2026-04-15T12:09:12.872Z</time></trkpt><trkpt lat="42.54189" lon="-7.6082083"><ele>420.66666666666663</ele><time>2026-04-15T12:09:13.873Z</time></trkpt><trkpt lat="42.5419633" lon="-7.608475"><ele>420.0</ele><time>2026-04-15T12:09:14.872Z</time></trkpt><trkpt lat="42.5420317" lon="-7.60874"><ele>420.0</ele><time>2026-04-15T12:09:15.873Z</time></trkpt><trkpt lat="42.542105" lon="-7.60899"><ele>420.0</ele><time>2026-04-15T12:09:16.872Z</time></trkpt><trkpt lat="42.5421767" lon="-7.6092383"><ele>420.0</ele><time>2026-04-15T12:09:17.872Z</time></trkpt><trkpt lat="42.5422617" lon="-7.60948"><ele>418.66666666666663</ele><time>2026-04-15T12:09:18.872Z</time></trkpt><trkpt lat="42.5423567" lon="-7.60973"><ele>417.3333333333333</ele><time>2026-04-15T12:09:19.872Z</time></trkpt><trkpt lat="42.5424567" lon="-7.6099667"><ele>416.0</ele><time>2026-04-15T12:09:20.872Z</time></trkpt><trkpt lat="42.54257" lon="-7.61021"><ele>415.3333333333333</ele><time>2026-04-15T12:09:21.872Z</time></trkpt><trkpt lat="42.542675" lon="-7.6104333"><ele>414.66666666666663</ele><time>2026-04-15T12:09:22.873Z</time></trkpt><trkpt lat="42.542785" lon="-7.61067"><ele>414.0</ele><time>2026-04-15T12:09:23.874Z</time></trkpt><trkpt lat="42.5428983" lon="-7.6109"><ele>415.0</ele><time>2026-04-15T12:09:24.873Z</time></trkpt><trkpt lat="42.5430117" lon="-7.61112"><ele>416.0</ele><time>2026-04-15T12:09:25.874Z</time></trkpt><trkpt lat="42.54313" lon="-7.6113367"><ele>417.0</ele><time>2026-04-15T12:09:26.873Z</time></trkpt><trkpt lat="42.543245" lon="-7.6115533"><ele>417.0</ele><time>2026-04-15T12:09:27.874Z</time></trkpt><trkpt lat="42.5433717" lon="-7.61177"><ele>417.0</ele><time>2026-04-15T12:09:28.874Z</time></trkpt><trkpt lat="42.54351" lon="-7.6119783"><ele>417.0</ele><time>2026-04-15T12:09:29.873Z</time></trkpt><trkpt lat="42.5436467" lon="-7.612185"><ele>416.66666666666663</ele><time>2026-04-15T12:09:30.874Z</time></trkpt><trkpt lat="42.5437833" lon="-7.612385"><ele>416.3333333333333</ele><time>2026-04-15T12:09:31.873Z</time></trkpt><trkpt lat="42.5439283" lon="-7.6125783"><ele>416.0</ele><time>2026-04-15T12:09:32.873Z</time></trkpt><trkpt lat="42.5440767" lon="-7.612765"><ele>416.66666666666663</ele><time>2026-04-15T12:09:33.874Z</time></trkpt><trkpt lat="42.5442217" lon="-7.6129483"><ele>417.33333333333337</ele><time>2026-04-15T12:09:34.873Z</time></trkpt><trkpt lat="42.5443717" lon="-7.6131383"><ele>418.0</ele><time>2026-04-15T12:09:35.874Z</time></trkpt><trkpt lat="42.544525" lon="-7.6133167"><ele>419.0</ele><time>2026-04-15T12:09:36.874Z</time></trkpt><trkpt lat="42.5446767" lon="-7.61348"><ele>420.0</ele><time>2026-04-15T12:09:37.873Z</time></trkpt><trkpt lat="42.5448333" lon="-7.6136367"><ele>421.0</ele><time>2026-04-15T12:09:38.874Z</time></trkpt><trkpt lat="42.5449967" lon="-7.6137867"><ele>421.33333333333337</ele><time>2026-04-15T12:09:39.873Z</time></trkpt><trkpt lat="42.5451633" lon="-7.6139367"><ele>421.66666666666663</ele><time>2026-04-15T12:09:40.873Z</time></trkpt><trkpt lat="42.5453317" lon="-7.6140817"><ele>422.0</ele><time>2026-04-15T12:09:41.873Z</time></trkpt><trkpt lat="42.5454933" lon="-7.61422"><ele>423.66666666666663</ele><time>2026-04-15T12:09:42.873Z</time></trkpt><trkpt lat="42.5456617" lon="-7.6143617"><ele>425.33333333333337</ele><time>2026-04-15T12:09:43.873Z</time></trkpt><trkpt lat="42.5458333" lon="-7.614515"><ele>427.0</ele><time>2026-04-15T12:09:44.873Z</time></trkpt><trkpt lat="42.546" lon="-7.614655"><ele>427.0</ele><time>2026-04-15T12:09:45.873Z</time></trkpt><trkpt lat="42.5461683" lon="-7.6147983"><ele>427.0</ele><time>2026-04-15T12:09:46.874Z</time></trkpt><trkpt lat="42.54634" lon="-7.614945"><ele>427.0</ele><time>2026-04-15T12:09:47.873Z</time></trkpt><trkpt lat="42.5465" lon="-7.6151033"><ele>427.33333333333337</ele><time>2026-04-15T12:09:48.873Z</time></trkpt><trkpt lat="42.5466517" lon="-7.6152867"><ele>427.66666666666663</ele><time>2026-04-15T12:09:49.874Z</time></trkpt><trkpt lat="42.5468067" lon="-7.61546"><ele>428.0</ele><time>2026-04-15T12:09:50.874Z</time></trkpt><trkpt lat="42.5469617" lon="-7.6156533"><ele>430.66666666666663</ele><time>2026-04-15T12:09:51.873Z</time></trkpt><trkpt lat="42.5471083" lon="-7.61585"><ele>433.33333333333337</ele><time>2026-04-15T12:09:52.873Z</time></trkpt><trkpt lat="42.547245" lon="-7.61604"><ele>436.0</ele><time>2026-04-15T12:09:53.874Z</time></trkpt><trkpt lat="42.5473767" lon="-7.6162467"><ele>436.0</ele><time>2026-04-15T12:09:54.873Z</time></trkpt><trkpt lat="42.5475033" lon="-7.6164567"><ele>436.0</ele><time>2026-04-15T12:09:55.874Z</time></trkpt><trkpt lat="42.5476283" lon="-7.6166733"><ele>436.0</ele><time>2026-04-15T12:09:56.873Z</time></trkpt><trkpt lat="42.5477517" lon="-7.6168983"><ele>435.6666666666667</ele><time>2026-04-15T12:09:57.874Z</time></trkpt><trkpt lat="42.5478683" lon="-7.6171183"><ele>435.33333333333337</ele><time>2026-04-15T12:09:58.874Z</time></trkpt><trkpt lat="42.547985" lon="-7.6173467"><ele>435.0</ele><time>2026-04-15T12:09:59.873Z</time></trkpt><trkpt lat="42.5481" lon="-7.6175783"><ele>439.0</ele><time>2026-04-15T12:10:00.873Z</time></trkpt><trkpt lat="42.54821" lon="-7.6178017"><ele>443.0</ele><time>2026-04-15T12:10:01.873Z</time></trkpt><trkpt lat="42.548325" lon="-7.6180317"><ele>447.0</ele><time>2026-04-15T12:10:02.873Z</time></trkpt><trkpt lat="42.5484367" lon="-7.6182617"><ele>447.0</ele><time>2026-04-15T12:10:03.874Z</time></trkpt><trkpt lat="42.54856" lon="-7.6184817"><ele>447.0</ele><time>2026-04-15T12:10:04.873Z</time></trkpt><trkpt lat="42.548685" lon="-7.61869"><ele>447.0</ele><time>2026-04-15T12:10:05.873Z</time></trkpt><trkpt lat="42.5488167" lon="-7.618885"><ele>449.33333333333337</ele><time>2026-04-15T12:10:06.874Z</time></trkpt><trkpt lat="42.54896" lon="-7.6190717"><ele>451.6666666666667</ele><time>2026-04-15T12:10:07.873Z</time></trkpt><trkpt lat="42.5491067" lon="-7.6192483"><ele>454.0</ele><time>2026-04-15T12:10:08.874Z</time></trkpt><trkpt lat="42.5492767" lon="-7.6194033"><ele>454.6666666666667</ele><time>2026-04-15T12:10:09.874Z</time></trkpt><trkpt lat="42.5494517" lon="-7.6195483"><ele>455.33333333333337</ele><time>2026-04-15T12:10:10.873Z</time></trkpt><trkpt lat="42.5496333" lon="-7.61969"><ele>456.0</ele><time>2026-04-15T12:10:11.873Z</time></trkpt><trkpt lat="42.54982" lon="-7.6198233"><ele>456.0</ele><time>2026-04-15T12:10:12.873Z</time></trkpt><trkpt lat="42.5500117" lon="-7.6199617"><ele>456.0</ele><time>2026-04-15T12:10:13.873Z</time></trkpt><trkpt lat="42.5502083" lon="-7.6200783"><ele>456.0</ele><time>2026-04-15T12:10:14.873Z</time></trkpt><trkpt lat="42.5503933" lon="-7.6201767"><ele>455.66666666666663</ele><time>2026-04-15T12:10:15.873Z</time></trkpt><trkpt lat="42.5505983" lon="-7.6202717"><ele>455.3333333333333</ele><time>2026-04-15T12:10:16.874Z</time></trkpt><trkpt lat="42.5507983" lon="-7.6203633"><ele>455.0</ele><time>2026-04-15T12:10:17.873Z</time></trkpt><trkpt lat="42.5509917" lon="-7.62043"><ele>455.0</ele><time>2026-04-15T12:10:18.873Z</time></trkpt><trkpt lat="42.5511983" lon="-7.6205017"><ele>455.0</ele><time>2026-04-15T12:10:19.873Z</time></trkpt><trkpt lat="42.5514033" lon="-7.6205467"><ele>455.0</ele><time>2026-04-15T12:10:20.873Z</time></trkpt><trkpt lat="42.5516167" lon="-7.6205867"><ele>456.66666666666663</ele><time>2026-04-15T12:10:21.873Z</time></trkpt><trkpt lat="42.5518333" lon="-7.62061"><ele>458.33333333333337</ele><time>2026-04-15T12:10:22.874Z</time></trkpt><trkpt lat="42.5520517" lon="-7.6206267"><ele>460.0</ele><time>2026-04-15T12:10:23.873Z</time></trkpt><trkpt lat="42.5522717" lon="-7.6206383"><ele>461.0</ele><time>2026-04-15T12:10:24.874Z</time></trkpt><trkpt lat="42.552495" lon="-7.6206517"><ele>462.0</ele><time>2026-04-15T12:10:25.873Z</time></trkpt><trkpt lat="42.5527183" lon="-7.62067"><ele>463.0</ele><time>2026-04-15T12:10:26.873Z</time></trkpt><trkpt lat="42.5529367" lon="-7.6206733"><ele>463.33333333333337</ele><time>2026-04-15T12:10:27.873Z</time></trkpt><trkpt lat="42.5531517" lon="-7.620675"><ele>463.66666666666663</ele><time>2026-04-15T12:10:28.873Z</time></trkpt><trkpt lat="42.5533633" lon="-7.6206783"><ele>464.0</ele><time>2026-04-15T12:10:29.873Z</time></trkpt><trkpt lat="42.5535733" lon="-7.6206883"><ele>462.3333333333333</ele><time>2026-04-15T12:10:30.874Z</time></trkpt><trkpt lat="42.5537833" lon="-7.6207183"><ele>460.66666666666663</ele><time>2026-04-15T12:10:31.873Z</time></trkpt><trkpt lat="42.5539967" lon="-7.6207633"><ele>459.0</ele><time>2026-04-15T12:10:32.874Z</time></trkpt><trkpt lat="42.5541967" lon="-7.62081"><ele>459.0</ele><time>2026-04-15T12:10:33.874Z</time></trkpt><trkpt lat="42.5544033" lon="-7.6208683"><ele>459.0</ele><time>2026-04-15T12:10:34.874Z</time></trkpt><trkpt lat="42.5546117" lon="-7.6209433"><ele>459.0</ele><time>2026-04-15T12:10:35.873Z</time></trkpt><trkpt lat="42.5548183" lon="-7.6210267"><ele>459.0</ele><time>2026-04-15T12:10:36.874Z</time></trkpt><trkpt lat="42.55502" lon="-7.6211233"><ele>459.0</ele><time>2026-04-15T12:10:37.874Z</time></trkpt><trkpt lat="42.555215" lon="-7.6212233"><ele>459.0</ele><time>2026-04-15T12:10:38.873Z</time></trkpt><trkpt lat="42.5554067" lon="-7.62133"><ele>459.0</ele><time>2026-04-15T12:10:39.873Z</time></trkpt><trkpt lat="42.5556033" lon="-7.6214567"><ele>459.0</ele><time>2026-04-15T12:10:40.873Z</time></trkpt><trkpt lat="42.555795" lon="-7.6215833"><ele>459.0</ele><time>2026-04-15T12:10:41.874Z</time></trkpt><trkpt lat="42.55598" lon="-7.621705"><ele>459.0</ele><time>2026-04-15T12:10:42.874Z</time></trkpt><trkpt lat="42.5561683" lon="-7.6218183"><ele>459.0</ele><time>2026-04-15T12:10:43.873Z</time></trkpt><trkpt lat="42.556355" lon="-7.62194"><ele>459.0</ele><time>2026-04-15T12:10:44.873Z</time></trkpt><trkpt lat="42.5565433" lon="-7.6220583"><ele>464.0</ele><time>2026-04-15T12:10:45.873Z</time></trkpt><trkpt lat="42.5567333" lon="-7.6221667"><ele>469.0</ele><time>2026-04-15T12:10:46.874Z</time></trkpt><trkpt lat="42.5569267" lon="-7.6222683"><ele>474.0</ele><time>2026-04-15T12:10:47.873Z</time></trkpt><trkpt lat="42.5571217" lon="-7.6223567"><ele>474.0</ele><time>2026-04-15T12:10:48.874Z</time></trkpt><trkpt lat="42.557315" lon="-7.622435"><ele>474.0</ele><time>2026-04-15T12:10:49.873Z</time></trkpt><trkpt lat="42.5575083" lon="-7.622505"><ele>474.0</ele><time>2026-04-15T12:10:50.873Z</time></trkpt><trkpt lat="42.5576983" lon="-7.6225783"><ele>476.0</ele><time>2026-04-15T12:10:51.873Z</time></trkpt><trkpt lat="42.5578867" lon="-7.62265"><ele>478.0</ele><time>2026-04-15T12:10:52.873Z</time></trkpt><trkpt lat="42.5580733" lon="-7.62273"><ele>480.0</ele><time>2026-04-15T12:10:53.874Z</time></trkpt><trkpt lat="42.5582567" lon="-7.62282"><ele>483.33333333333337</ele><time>2026-04-15T12:10:54.873Z</time></trkpt><trkpt lat="42.55844" lon="-7.6229183"><ele>486.6666666666667</ele><time>2026-04-15T12:10:55.873Z</time></trkpt><trkpt lat="42.5586283" lon="-7.6230233"><ele>490.0</ele><time>2026-04-15T12:10:56.874Z</time></trkpt><trkpt lat="42.5588133" lon="-7.6231317"><ele>490.0</ele><time>2026-04-15T12:10:57.873Z</time></trkpt><trkpt lat="42.558985" lon="-7.6232383"><ele>490.0</ele><time>2026-04-15T12:10:58.874Z</time></trkpt><trkpt lat="42.5591583" lon="-7.6233683"><ele>490.0</ele><time>2026-04-15T12:10:59.873Z</time></trkpt><trkpt lat="42.5593417" lon="-7.6235083"><ele>490.0</ele><time>2026-04-15T12:11:00.874Z</time></trkpt><trkpt lat="42.5595233" lon="-7.62364"><ele>490.0</ele><time>2026-04-15T12:11:01.874Z</time></trkpt><trkpt lat="42.5597017" lon="-7.6237583"><ele>490.0</ele><time>2026-04-15T12:11:02.874Z</time></trkpt><trkpt lat="42.5598967" lon="-7.623895"><ele>494.33333333333337</ele><time>2026-04-15T12:11:03.873Z</time></trkpt><trkpt lat="42.56008" lon="-7.6240167"><ele>498.66666666666663</ele><time>2026-04-15T12:11:04.874Z</time></trkpt><trkpt lat="42.560275" lon="-7.6241283"><ele>503.0</ele><time>2026-04-15T12:11:05.873Z</time></trkpt><trkpt lat="42.560475" lon="-7.6242333"><ele>503.0</ele><time>2026-04-15T12:11:06.873Z</time></trkpt><trkpt lat="42.56068" lon="-7.6243317"><ele>503.0</ele><time>2026-04-15T12:11:07.873Z</time></trkpt><trkpt lat="42.5608767" lon="-7.6244233"><ele>503.0</ele><time>2026-04-15T12:11:08.874Z</time></trkpt><trkpt lat="42.5610733" lon="-7.6245"><ele>503.3333333333333</ele><time>2026-04-15T12:11:09.874Z</time></trkpt><trkpt lat="42.56127" lon="-7.62457"><ele>503.66666666666663</ele><time>2026-04-15T12:11:10.873Z</time></trkpt><trkpt lat="42.5614683" lon="-7.6246167"><ele>504.0</ele><time>2026-04-15T12:11:11.874Z</time></trkpt><trkpt lat="42.561675" lon="-7.624665"><ele>504.0</ele><time>2026-04-15T12:11:12.873Z</time></trkpt><trkpt lat="42.5618817" lon="-7.6247117"><ele>504.0</ele><time>2026-04-15T12:11:13.873Z</time></trkpt><trkpt lat="42.5620917" lon="-7.6247467"><ele>504.0</ele><time>2026-04-15T12:11:14.873Z</time></trkpt><trkpt lat="42.5623" lon="-7.6247883"><ele>503.33333333333337</ele><time>2026-04-15T12:11:15.874Z</time></trkpt><trkpt lat="42.5625033" lon="-7.62482"><ele>502.6666666666667</ele><time>2026-04-15T12:11:16.874Z</time></trkpt><trkpt lat="42.5627067" lon="-7.6248567"><ele>502.0</ele><time>2026-04-15T12:11:17.874Z</time></trkpt><trkpt lat="42.5629133" lon="-7.6248983"><ele>501.6666666666667</ele><time>2026-04-15T12:11:18.873Z</time></trkpt><trkpt lat="42.5631267" lon="-7.62494"><ele>501.33333333333337</ele><time>2026-04-15T12:11:19.874Z</time></trkpt><trkpt lat="42.5633383" lon="-7.6249917"><ele>501.0</ele><time>2026-04-15T12:11:20.874Z</time></trkpt><trkpt lat="42.5635467" lon="-7.6250567"><ele>500.33333333333337</ele><time>2026-04-15T12:11:21.873Z</time></trkpt><trkpt lat="42.5637567" lon="-7.6251283"><ele>499.6666666666667</ele><time>2026-04-15T12:11:22.874Z</time></trkpt><trkpt lat="42.5639617" lon="-7.6251967"><ele>499.0</ele><time>2026-04-15T12:11:23.873Z</time></trkpt><trkpt lat="42.5641717" lon="-7.6252733"><ele>502.0</ele><time>2026-04-15T12:11:24.874Z</time></trkpt><trkpt lat="42.5643783" lon="-7.6253633"><ele>505.0</ele><time>2026-04-15T12:11:25.874Z</time></trkpt><trkpt lat="42.564585" lon="-7.625475"><ele>508.0</ele><time>2026-04-15T12:11:26.873Z</time></trkpt><trkpt lat="42.5647933" lon="-7.6255917"><ele>508.0</ele><time>2026-04-15T12:11:27.874Z</time></trkpt><trkpt lat="42.565" lon="-7.6257017"><ele>508.0</ele><time>2026-04-15T12:11:28.874Z</time></trkpt><trkpt lat="42.5652033" lon="-7.62583"><ele>508.0</ele><time>2026-04-15T12:11:29.873Z</time></trkpt><trkpt lat="42.5654017" lon="-7.62596"><ele>508.33333333333337</ele><time>2026-04-15T12:11:30.873Z</time></trkpt><trkpt lat="42.565595" lon="-7.6260917"><ele>508.66666666666663</ele><time>2026-04-15T12:11:31.873Z</time></trkpt><trkpt lat="42.56579" lon="-7.6262267"><ele>509.0</ele><time>2026-04-15T12:11:32.873Z</time></trkpt><trkpt lat="42.5659867" lon="-7.626375"><ele>510.66666666666663</ele><time>2026-04-15T12:11:33.874Z</time></trkpt><trkpt lat="42.5661783" lon="-7.6265217"><ele>512.3333333333334</ele><time>2026-04-15T12:11:34.873Z</time></trkpt><trkpt lat="42.5663683" lon="-7.6266833"><ele>514.0</ele><time>2026-04-15T12:11:35.874Z</time></trkpt><trkpt lat="42.5665533" lon="-7.6268333"><ele>514.0</ele><time>2026-04-15T12:11:36.873Z</time></trkpt><trkpt lat="42.5667333" lon="-7.626995"><ele>514.0</ele><time>2026-04-15T12:11:37.874Z</time></trkpt><trkpt lat="42.5669083" lon="-7.6271683"><ele>514.0</ele><time>2026-04-15T12:11:38.874Z</time></trkpt><trkpt lat="42.5670783" lon="-7.6273433"><ele>514.0</ele><time>2026-04-15T12:11:39.873Z</time></trkpt><trkpt lat="42.5672433" lon="-7.6275267"><ele>514.0</ele><time>2026-04-15T12:11:40.873Z</time></trkpt><trkpt lat="42.56741" lon="-7.6277233"><ele>514.0</ele><time>2026-04-15T12:11:41.874Z</time></trkpt><trkpt lat="42.567575" lon="-7.62791"><ele>513.3333333333334</ele><time>2026-04-15T12:11:42.873Z</time></trkpt><trkpt lat="42.5677417" lon="-7.628095"><ele>512.6666666666666</ele><time>2026-04-15T12:11:43.873Z</time></trkpt><trkpt lat="42.567905" lon="-7.6282817"><ele>512.0</ele><time>2026-04-15T12:11:44.874Z</time></trkpt><trkpt lat="42.5680717" lon="-7.6284717"><ele>513.3333333333333</ele><time>2026-04-15T12:11:45.873Z</time></trkpt><trkpt lat="42.5682417" lon="-7.6286567"><ele>514.6666666666666</ele><time>2026-04-15T12:11:46.873Z</time></trkpt><trkpt lat="42.5684167" lon="-7.6288267"><ele>516.0</ele><time>2026-04-15T12:11:47.874Z</time></trkpt><trkpt lat="42.568595" lon="-7.6289867"><ele>516.3333333333334</ele><time>2026-04-15T12:11:48.874Z</time></trkpt><trkpt lat="42.5687733" lon="-7.6291383"><ele>516.6666666666667</ele><time>2026-04-15T12:11:49.873Z</time></trkpt><trkpt lat="42.5689533" lon="-7.6292883"><ele>517.0</ele><time>2026-04-15T12:11:50.874Z</time></trkpt><trkpt lat="42.5691383" lon="-7.6294367"><ele>517.6666666666667</ele><time>2026-04-15T12:11:51.873Z</time></trkpt><trkpt lat="42.5693233" lon="-7.6295733"><ele>518.3333333333334</ele><time>2026-04-15T12:11:52.873Z</time></trkpt><trkpt lat="42.5695" lon="-7.6297117"><ele>519.0</ele><time>2026-04-15T12:11:53.874Z</time></trkpt><trkpt lat="42.5696717" lon="-7.6298567"><ele>519.0</ele><time>2026-04-15T12:11:54.874Z</time></trkpt><trkpt lat="42.5698483" lon="-7.6300083"><ele>519.0</ele><time>2026-04-15T12:11:55.874Z</time></trkpt><trkpt lat="42.5700233" lon="-7.6301717"><ele>519.0</ele><time>2026-04-15T12:11:56.873Z</time></trkpt><trkpt lat="42.5701933" lon="-7.6303517"><ele>520.6666666666666</ele><time>2026-04-15T12:11:57.874Z</time></trkpt><trkpt lat="42.570365" lon="-7.6305417"><ele>522.3333333333333</ele><time>2026-04-15T12:11:58.874Z</time></trkpt><trkpt lat="42.5705167" lon="-7.6307317"><ele>524.0</ele><time>2026-04-15T12:11:59.873Z</time></trkpt><trkpt lat="42.5706617" lon="-7.6309367"><ele>524.3333333333333</ele><time>2026-04-15T12:12:00.873Z</time></trkpt><trkpt lat="42.5707983" lon="-7.631155"><ele>524.6666666666666</ele><time>2026-04-15T12:12:01.873Z</time></trkpt><trkpt lat="42.5709233" lon="-7.63138"><ele>525.0</ele><time>2026-04-15T12:12:02.874Z</time></trkpt><trkpt lat="42.5710467" lon="-7.631615"><ele>525.0</ele><time>2026-04-15T12:12:03.873Z</time></trkpt><trkpt lat="42.5711717" lon="-7.6318433"><ele>525.0</ele><time>2026-04-15T12:12:04.873Z</time></trkpt><trkpt lat="42.5712817" lon="-7.6320933"><ele>525.0</ele><time>2026-04-15T12:12:05.873Z</time></trkpt><trkpt lat="42.5713817" lon="-7.6323467"><ele>524.3333333333334</ele><time>2026-04-15T12:12:06.874Z</time></trkpt><trkpt lat="42.5714717" lon="-7.6326"><ele>523.6666666666667</ele><time>2026-04-15T12:12:07.873Z</time></trkpt><trkpt lat="42.5715567" lon="-7.632865"><ele>523.0</ele><time>2026-04-15T12:12:08.873Z</time></trkpt><trkpt lat="42.571635" lon="-7.6331333"><ele>523.0</ele><time>2026-04-15T12:12:09.873Z</time></trkpt><trkpt lat="42.57171" lon="-7.633405"><ele>523.0</ele><time>2026-04-15T12:12:10.874Z</time></trkpt><trkpt lat="42.5717767" lon="-7.63368"><ele>523.0</ele><time>2026-04-15T12:12:11.873Z</time></trkpt><trkpt lat="42.5718433" lon="-7.6339633"><ele>524.6666666666667</ele><time>2026-04-15T12:12:12.873Z</time></trkpt><trkpt lat="42.5719133" lon="-7.634245"><ele>526.3333333333334</ele><time>2026-04-15T12:12:13.873Z</time></trkpt><trkpt lat="42.5719817" lon="-7.634525"><ele>528.0</ele><time>2026-04-15T12:12:14.874Z</time></trkpt><trkpt lat="42.5720483" lon="-7.6347933"><ele>529.3333333333334</ele><time>2026-04-15T12:12:15.873Z</time></trkpt><trkpt lat="42.5721267" lon="-7.6350567"><ele>530.6666666666667</ele><time>2026-04-15T12:12:16.873Z</time></trkpt><trkpt lat="42.57221" lon="-7.6353183"><ele>532.0</ele><time>2026-04-15T12:12:17.874Z</time></trkpt><trkpt lat="42.572295" lon="-7.6355817"><ele>533.3333333333334</ele><time>2026-04-15T12:12:18.874Z</time></trkpt><trkpt lat="42.5723917" lon="-7.6358133"><ele>534.6666666666666</ele><time>2026-04-15T12:12:19.873Z</time></trkpt><trkpt lat="42.5725" lon="-7.636035"><ele>536.0</ele><time>2026-04-15T12:12:20.874Z</time></trkpt><trkpt lat="42.5726183" lon="-7.6362617"><ele>536.3333333333333</ele><time>2026-04-15T12:12:21.873Z</time></trkpt><trkpt lat="42.5727417" lon="-7.636485"><ele>536.6666666666666</ele><time>2026-04-15T12:12:22.874Z</time></trkpt><trkpt lat="42.5728733" lon="-7.6367"><ele>537.0</ele><time>2026-04-15T12:12:23.874Z</time></trkpt><trkpt lat="42.573015" lon="-7.6369083"><ele>538.0</ele><time>2026-04-15T12:12:24.874Z</time></trkpt><trkpt lat="42.5731667" lon="-7.6371183"><ele>539.0</ele><time>2026-04-15T12:12:25.873Z</time></trkpt><trkpt lat="42.5733283" lon="-7.6373183"><ele>540.0</ele><time>2026-04-15T12:12:26.874Z</time></trkpt><trkpt lat="42.5734967" lon="-7.63752"><ele>540.0</ele><time>2026-04-15T12:12:27.873Z</time></trkpt><trkpt lat="42.573675" lon="-7.63773"><ele>540.0</ele><time>2026-04-15T12:12:28.874Z</time></trkpt><trkpt lat="42.5738517" lon="-7.637945"><ele>543.0</ele><time>2026-04-15T12:12:29.873Z</time></trkpt><trkpt lat="42.5740267" lon="-7.6381633"><ele>546.0</ele><time>2026-04-15T12:12:30.874Z</time></trkpt><trkpt lat="42.5741883" lon="-7.638385"><ele>546.0</ele><time>2026-04-15T12:12:31.874Z</time></trkpt><trkpt lat="42.5743383" lon="-7.6386133"><ele>546.0</ele><time>2026-04-15T12:12:32.873Z</time></trkpt><trkpt lat="42.5744833" lon="-7.63882"><ele>546.0</ele><time>2026-04-15T12:12:33.873Z</time></trkpt><trkpt lat="42.5746167" lon="-7.63903"><ele>549.6666666666666</ele><time>2026-04-15T12:12:34.874Z</time></trkpt><trkpt lat="42.5747433" lon="-7.6392433"><ele>553.3333333333333</ele><time>2026-04-15T12:12:35.874Z</time></trkpt><trkpt lat="42.5748733" lon="-7.63946"><ele>557.0</ele><time>2026-04-15T12:12:36.874Z</time></trkpt><trkpt lat="42.5749917" lon="-7.639685"><ele>557.6666666666666</ele><time>2026-04-15T12:12:37.873Z</time></trkpt><trkpt lat="42.5751017" lon="-7.6399067"><ele>558.3333333333334</ele><time>2026-04-15T12:12:38.874Z</time></trkpt><trkpt lat="42.575215" lon="-7.6401417"><ele>559.0</ele><time>2026-04-15T12:12:39.874Z</time></trkpt><trkpt lat="42.5753167" lon="-7.6403867"><ele>562.6666666666667</ele><time>2026-04-15T12:12:40.874Z</time></trkpt><trkpt lat="42.57542" lon="-7.6406283"><ele>566.3333333333334</ele><time>2026-04-15T12:12:41.874Z</time></trkpt><trkpt lat="42.5755183" lon="-7.6408767"><ele>570.0</ele><time>2026-04-15T12:12:42.874Z</time></trkpt><trkpt lat="42.5756083" lon="-7.64112"><ele>572.3333333333334</ele><time>2026-04-15T12:12:43.873Z</time></trkpt><trkpt lat="42.575695" lon="-7.6413767"><ele>574.6666666666667</ele><time>2026-04-15T12:12:44.874Z</time></trkpt><trkpt lat="42.5757683" lon="-7.6416267"><ele>577.0</ele><time>2026-04-15T12:12:45.873Z</time></trkpt><trkpt lat="42.575845" lon="-7.64188"><ele>578.6666666666667</ele><time>2026-04-15T12:12:46.874Z</time></trkpt><trkpt lat="42.575915" lon="-7.6421367"><ele>580.3333333333334</ele><time>2026-04-15T12:12:47.874Z</time></trkpt><trkpt lat="42.5759883" lon="-7.642395"><ele>582.0</ele><time>2026-04-15T12:12:48.874Z</time></trkpt><trkpt lat="42.5760483" lon="-7.6426517"><ele>583.3333333333334</ele><time>2026-04-15T12:12:49.873Z</time></trkpt><trkpt lat="42.5761067" lon="-7.6428967"><ele>584.6666666666667</ele><time>2026-04-15T12:12:50.873Z</time></trkpt><trkpt lat="42.576175" lon="-7.6431683"><ele>586.0</ele><time>2026-04-15T12:12:51.873Z</time></trkpt><trkpt lat="42.5762467" lon="-7.643435"><ele>588.3333333333334</ele><time>2026-04-15T12:12:52.874Z</time></trkpt><trkpt lat="42.5763233" lon="-7.6436967"><ele>590.6666666666666</ele><time>2026-04-15T12:12:53.873Z</time></trkpt><trkpt lat="42.5764" lon="-7.64396"><ele>593.0</ele><time>2026-04-15T12:12:54.874Z</time></trkpt><trkpt lat="42.5764733" lon="-7.64422"><ele>595.3333333333333</ele><time>2026-04-15T12:12:55.873Z</time></trkpt><trkpt lat="42.5765633" lon="-7.6444733"><ele>597.6666666666666</ele><time>2026-04-15T12:12:56.874Z</time></trkpt><trkpt lat="42.5766517" lon="-7.644715"><ele>600.0</ele><time>2026-04-15T12:12:57.874Z</time></trkpt><trkpt lat="42.5767467" lon="-7.64496"><ele>600.0</ele><time>2026-04-15T12:12:58.873Z</time></trkpt><trkpt lat="42.5768433" lon="-7.6452117"><ele>600.0</ele><time>2026-04-15T12:12:59.874Z</time></trkpt><trkpt lat="42.576945" lon="-7.645455"><ele>600.0</ele><time>2026-04-15T12:13:00.873Z</time></trkpt><trkpt lat="42.5770417" lon="-7.6456933"><ele>600.0</ele><time>2026-04-15T12:13:01.873Z</time></trkpt><trkpt lat="42.57716" lon="-7.6459417"><ele>600.0</ele><time>2026-04-15T12:13:02.874Z</time></trkpt><trkpt lat="42.57728" lon="-7.6461883"><ele>600.0</ele><time>2026-04-15T12:13:03.874Z</time></trkpt><trkpt lat="42.5773983" lon="-7.6464283"><ele>599.6666666666666</ele><time>2026-04-15T12:13:04.873Z</time></trkpt><trkpt lat="42.577525" lon="-7.646675"><ele>599.3333333333333</ele><time>2026-04-15T12:13:05.873Z</time></trkpt><trkpt lat="42.5776517" lon="-7.6469133"><ele>599.0</ele><time>2026-04-15T12:13:06.873Z</time></trkpt><trkpt lat="42.5777933" lon="-7.647145"><ele>598.5</ele><time>2026-04-15T12:13:07.873Z</time></trkpt><trkpt lat="42.57795" lon="-7.647385"><ele>598.0</ele><time>2026-04-15T12:13:08.873Z</time></trkpt><trkpt lat="42.5780983" lon="-7.6476117"><ele>598.0</ele><time>2026-04-15T12:13:09.873Z</time></trkpt><trkpt lat="42.5782467" lon="-7.6478283"><ele>598.0</ele><time>2026-04-15T12:13:10.873Z</time></trkpt><trkpt lat="42.5784017" lon="-7.6480433"><ele>598.0</ele><time>2026-04-15T12:13:11.873Z</time></trkpt><trkpt lat="42.5785583" lon="-7.648235"><ele>597.3333333333334</ele><time>2026-04-15T12:13:12.874Z</time></trkpt><trkpt lat="42.5787167" lon="-7.648445"><ele>596.6666666666666</ele><time>2026-04-15T12:13:13.873Z</time></trkpt><trkpt lat="42.5788717" lon="-7.6486383"><ele>596.0</ele><time>2026-04-15T12:13:14.873Z</time></trkpt><trkpt lat="42.5790383" lon="-7.64883"><ele>595.3333333333333</ele><time>2026-04-15T12:13:15.873Z</time></trkpt><trkpt lat="42.579195" lon="-7.64902"><ele>594.6666666666666</ele><time>2026-04-15T12:13:16.873Z</time></trkpt><trkpt lat="42.579355" lon="-7.6492167"><ele>594.0</ele><time>2026-04-15T12:13:17.874Z</time></trkpt><trkpt lat="42.579505" lon="-7.6494117"><ele>593.6666666666666</ele><time>2026-04-15T12:13:18.874Z</time></trkpt><trkpt lat="42.5796483" lon="-7.6496183"><ele>593.3333333333333</ele><time>2026-04-15T12:13:19.873Z</time></trkpt><trkpt lat="42.57978" lon="-7.649835"><ele>593.0</ele><time>2026-04-15T12:13:20.873Z</time></trkpt><trkpt lat="42.57991" lon="-7.6500617"><ele>593.0</ele><time>2026-04-15T12:13:21.873Z</time></trkpt><trkpt lat="42.580035" lon="-7.65029"><ele>593.0</ele><time>2026-04-15T12:13:22.874Z</time></trkpt><trkpt lat="42.5801433" lon="-7.6505217"><ele>593.0</ele><time>2026-04-15T12:13:23.874Z</time></trkpt><trkpt lat="42.580245" lon="-7.6507717"><ele>592.6666666666666</ele><time>2026-04-15T12:13:24.873Z</time></trkpt><trkpt lat="42.5803367" lon="-7.65102"><ele>592.3333333333334</ele><time>2026-04-15T12:13:25.873Z</time></trkpt><trkpt lat="42.5804233" lon="-7.6512517"><ele>592.0</ele><time>2026-04-15T12:13:26.873Z</time></trkpt><trkpt lat="42.580495" lon="-7.6514933"><ele>590.6666666666667</ele><time>2026-04-15T12:13:27.874Z</time></trkpt><trkpt lat="42.580565" lon="-7.6517533"><ele>589.3333333333334</ele><time>2026-04-15T12:13:28.874Z</time></trkpt><trkpt lat="42.58063" lon="-7.6520167"><ele>588.0</ele><time>2026-04-15T12:13:29.873Z</time></trkpt><trkpt lat="42.5807" lon="-7.65228"><ele>588.0</ele><time>2026-04-15T12:13:30.873Z</time></trkpt><trkpt lat="42.5807683" lon="-7.6525383"><ele>588.0</ele><time>2026-04-15T12:13:31.873Z</time></trkpt><trkpt lat="42.5808317" lon="-7.6528117"><ele>588.0</ele><time>2026-04-15T12:13:32.874Z</time></trkpt><trkpt lat="42.5809" lon="-7.653075"><ele>588.0</ele><time>2026-04-15T12:13:33.874Z</time></trkpt><trkpt lat="42.5809767" lon="-7.6533267"><ele>588.0</ele><time>2026-04-15T12:13:34.873Z</time></trkpt><trkpt lat="42.5810583" lon="-7.6535767"><ele>588.0</ele><time>2026-04-15T12:13:35.873Z</time></trkpt><trkpt lat="42.58115" lon="-7.6538233"><ele>587.0</ele><time>2026-04-15T12:13:36.874Z</time></trkpt><trkpt lat="42.581255" lon="-7.6540733"><ele>586.0</ele><time>2026-04-15T12:13:37.873Z</time></trkpt><trkpt lat="42.58137" lon="-7.654325"><ele>585.0</ele><time>2026-04-15T12:13:38.874Z</time></trkpt><trkpt lat="42.5814883" lon="-7.6545617"><ele>585.0</ele><time>2026-04-15T12:13:39.874Z</time></trkpt><trkpt lat="42.58162" lon="-7.6548017"><ele>585.0</ele><time>2026-04-15T12:13:40.873Z</time></trkpt><trkpt lat="42.58175" lon="-7.6550317"><ele>585.0</ele><time>2026-04-15T12:13:41.874Z</time></trkpt><trkpt lat="42.581895" lon="-7.6552817"><ele>584.3333333333334</ele><time>2026-04-15T12:13:42.874Z</time></trkpt><trkpt lat="42.5820333" lon="-7.6555167"><ele>583.6666666666667</ele><time>2026-04-15T12:13:43.873Z</time></trkpt><trkpt lat="42.5821667" lon="-7.6557467"><ele>583.0</ele><time>2026-04-15T12:13:44.873Z</time></trkpt><trkpt lat="42.5822817" lon="-7.65599"><ele>582.6666666666667</ele><time>2026-04-15T12:13:45.873Z</time></trkpt><trkpt lat="42.5823883" lon="-7.65625"><ele>582.3333333333334</ele><time>2026-04-15T12:13:46.874Z</time></trkpt><trkpt lat="42.5824867" lon="-7.6565183"><ele>582.0</ele><time>2026-04-15T12:13:47.874Z</time></trkpt><trkpt lat="42.5825833" lon="-7.6567933"><ele>582.3333333333334</ele><time>2026-04-15T12:13:48.874Z</time></trkpt><trkpt lat="42.58269" lon="-7.6570667"><ele>582.6666666666667</ele><time>2026-04-15T12:13:49.874Z</time></trkpt><trkpt lat="42.5827867" lon="-7.6573317"><ele>583.0</ele><time>2026-04-15T12:13:50.873Z</time></trkpt><trkpt lat="42.5828867" lon="-7.65759"><ele>582.6666666666667</ele><time>2026-04-15T12:13:51.873Z</time></trkpt><trkpt lat="42.5829933" lon="-7.6578483"><ele>582.3333333333334</ele><time>2026-04-15T12:13:52.874Z</time></trkpt><trkpt lat="42.5830967" lon="-7.6581"><ele>582.0</ele><time>2026-04-15T12:13:53.874Z</time></trkpt><trkpt lat="42.5832133" lon="-7.6583417"><ele>582.0</ele><time>2026-04-15T12:13:54.874Z</time></trkpt><trkpt lat="42.5833383" lon="-7.6585833"><ele>582.0</ele><time>2026-04-15T12:13:55.873Z</time></trkpt><trkpt lat="42.58347" lon="-7.6588083"><ele>582.0</ele><time>2026-04-15T12:13:56.873Z</time></trkpt><trkpt lat="42.5836017" lon="-7.65902"><ele>582.6666666666666</ele><time>2026-04-15T12:13:57.873Z</time></trkpt><trkpt lat="42.5837533" lon="-7.65924"><ele>583.3333333333333</ele><time>2026-04-15T12:13:58.873Z</time></trkpt><trkpt lat="42.5839117" lon="-7.659435"><ele>584.0</ele><time>2026-04-15T12:13:59.874Z</time></trkpt><trkpt lat="42.5840683" lon="-7.6596167"><ele>584.0</ele><time>2026-04-15T12:14:00.874Z</time></trkpt><trkpt lat="42.5842267" lon="-7.6597883"><ele>584.0</ele><time>2026-04-15T12:14:01.874Z</time></trkpt><trkpt lat="42.5843983" lon="-7.6599417"><ele>584.0</ele><time>2026-04-15T12:14:02.874Z</time></trkpt><trkpt lat="42.5845767" lon="-7.6600933"><ele>584.3333333333333</ele><time>2026-04-15T12:14:03.873Z</time></trkpt><trkpt lat="42.5847567" lon="-7.660245"><ele>584.6666666666666</ele><time>2026-04-15T12:14:04.873Z</time></trkpt><trkpt lat="42.5849467" lon="-7.66038"><ele>585.0</ele><time>2026-04-15T12:14:05.873Z</time></trkpt><trkpt lat="42.5851383" lon="-7.6605067"><ele>585.0</ele><time>2026-04-15T12:14:06.873Z</time></trkpt><trkpt lat="42.585325" lon="-7.6606383"><ele>585.0</ele><time>2026-04-15T12:14:07.874Z</time></trkpt><trkpt lat="42.5855133" lon="-7.66077"><ele>585.0</ele><time>2026-04-15T12:14:08.874Z</time></trkpt><trkpt lat="42.5857083" lon="-7.660905"><ele>584.6666666666666</ele><time>2026-04-15T12:14:09.873Z</time></trkpt><trkpt lat="42.5859067" lon="-7.6610517"><ele>584.3333333333333</ele><time>2026-04-15T12:14:10.873Z</time></trkpt><trkpt lat="42.5860983" lon="-7.661185"><ele>584.0</ele><time>2026-04-15T12:14:11.873Z</time></trkpt><trkpt lat="42.5862933" lon="-7.66134"><ele>582.6666666666666</ele><time>2026-04-15T12:14:12.874Z</time></trkpt><trkpt lat="42.5864767" lon="-7.661495"><ele>581.3333333333334</ele><time>2026-04-15T12:14:13.874Z</time></trkpt><trkpt lat="42.586665" lon="-7.661665"><ele>580.0</ele><time>2026-04-15T12:14:14.873Z</time></trkpt><trkpt lat="42.58684" lon="-7.661835"><ele>578.6666666666667</ele><time>2026-04-15T12:14:15.874Z</time></trkpt><trkpt lat="42.58701" lon="-7.662005"><ele>577.3333333333334</ele><time>2026-04-15T12:14:16.873Z</time></trkpt><trkpt lat="42.587175" lon="-7.66219"><ele>576.0</ele><time>2026-04-15T12:14:17.874Z</time></trkpt><trkpt lat="42.5873417" lon="-7.662365"><ele>576.0</ele><time>2026-04-15T12:14:18.874Z</time></trkpt><trkpt lat="42.5875183" lon="-7.6625667"><ele>576.0</ele><time>2026-04-15T12:14:19.873Z</time></trkpt><trkpt lat="42.58768" lon="-7.6627717"><ele>575.6666666666666</ele><time>2026-04-15T12:14:20.874Z</time></trkpt><trkpt lat="42.5878367" lon="-7.6629883"><ele>575.3333333333333</ele><time>2026-04-15T12:14:21.873Z</time></trkpt><trkpt lat="42.58799" lon="-7.6631967"><ele>575.0</ele><time>2026-04-15T12:14:22.873Z</time></trkpt><trkpt lat="42.58814" lon="-7.66341"><ele>575.6666666666666</ele><time>2026-04-15T12:14:23.874Z</time></trkpt><trkpt lat="42.5882867" lon="-7.663625"><ele>576.3333333333334</ele><time>2026-04-15T12:14:24.874Z</time></trkpt><trkpt lat="42.5884417" lon="-7.6638517"><ele>577.0</ele><time>2026-04-15T12:14:25.873Z</time></trkpt><trkpt lat="42.5885983" lon="-7.66406"><ele>577.0</ele><time>2026-04-15T12:14:26.873Z</time></trkpt><trkpt lat="42.5887633" lon="-7.66426"><ele>577.0</ele><time>2026-04-15T12:14:27.874Z</time></trkpt><trkpt lat="42.5889333" lon="-7.664465"><ele>577.0</ele><time>2026-04-15T12:14:28.874Z</time></trkpt><trkpt lat="42.5891033" lon="-7.6646517"><ele>577.0</ele><time>2026-04-15T12:14:29.873Z</time></trkpt><trkpt lat="42.58929" lon="-7.664825"><ele>577.0</ele><time>2026-04-15T12:14:30.873Z</time></trkpt><trkpt lat="42.5894817" lon="-7.665"><ele>576.6666666666667</ele><time>2026-04-15T12:14:31.873Z</time></trkpt><trkpt lat="42.5896667" lon="-7.6651517"><ele>576.3333333333334</ele><time>2026-04-15T12:14:32.873Z</time></trkpt><trkpt lat="42.5898517" lon="-7.665315"><ele>576.0</ele><time>2026-04-15T12:14:33.874Z</time></trkpt><trkpt lat="42.5900233" lon="-7.665475"><ele>577.0</ele><time>2026-04-15T12:14:34.873Z</time></trkpt><trkpt lat="42.59021" lon="-7.6656567"><ele>578.0</ele><time>2026-04-15T12:14:35.874Z</time></trkpt><trkpt lat="42.59038" lon="-7.6658483"><ele>576.3333333333333</ele><time>2026-04-15T12:14:36.873Z</time></trkpt><trkpt lat="42.590535" lon="-7.6660383"><ele>574.6666666666666</ele><time>2026-04-15T12:14:37.874Z</time></trkpt><trkpt lat="42.5906883" lon="-7.6662483"><ele>573.0</ele><time>2026-04-15T12:14:38.873Z</time></trkpt><trkpt lat="42.5908367" lon="-7.6664617"><ele>573.0</ele><time>2026-04-15T12:14:39.874Z</time></trkpt><trkpt lat="42.5909883" lon="-7.6666783"><ele>573.0</ele><time>2026-04-15T12:14:40.873Z</time></trkpt><trkpt lat="42.5911367" lon="-7.6669017"><ele>573.0</ele><time>2026-04-15T12:14:41.874Z</time></trkpt><trkpt lat="42.591285" lon="-7.6671217"><ele>571.6666666666666</ele><time>2026-04-15T12:14:42.873Z</time></trkpt><trkpt lat="42.59144" lon="-7.6673333"><ele>570.3333333333333</ele><time>2026-04-15T12:14:43.874Z</time></trkpt><trkpt lat="42.5916033" lon="-7.6675117"><ele>569.0</ele><time>2026-04-15T12:14:44.874Z</time></trkpt><trkpt lat="42.591775" lon="-7.6676833"><ele>568.0</ele><time>2026-04-15T12:14:45.873Z</time></trkpt><trkpt lat="42.591965" lon="-7.66784"><ele>567.0</ele><time>2026-04-15T12:14:46.874Z</time></trkpt><trkpt lat="42.59217" lon="-7.66797"><ele>566.0</ele><time>2026-04-15T12:14:47.873Z</time></trkpt><trkpt lat="42.5923767" lon="-7.6680783"><ele>564.0</ele><time>2026-04-15T12:14:48.873Z</time></trkpt><trkpt lat="42.5925833" lon="-7.6681783"><ele>562.0</ele><time>2026-04-15T12:14:49.873Z</time></trkpt><trkpt lat="42.592795" lon="-7.6682783"><ele>560.0</ele><time>2026-04-15T12:14:50.873Z</time></trkpt><trkpt lat="42.5930067" lon="-7.6683817"><ele>559.0</ele><time>2026-04-15T12:14:51.873Z</time></trkpt><trkpt lat="42.59321" lon="-7.668495"><ele>558.0</ele><time>2026-04-15T12:14:52.873Z</time></trkpt><trkpt lat="42.59341" lon="-7.6686283"><ele>557.0</ele><time>2026-04-15T12:14:53.873Z</time></trkpt><trkpt lat="42.5936067" lon="-7.6687717"><ele>557.3333333333333</ele><time>2026-04-15T12:14:54.874Z</time></trkpt><trkpt lat="42.5937933" lon="-7.6689267"><ele>557.6666666666666</ele><time>2026-04-15T12:14:55.873Z</time></trkpt><trkpt lat="42.593975" lon="-7.669095"><ele>558.0</ele><time>2026-04-15T12:14:56.874Z</time></trkpt><trkpt lat="42.5941517" lon="-7.6692817"><ele>559.3333333333334</ele><time>2026-04-15T12:14:57.873Z</time></trkpt><trkpt lat="42.59432" lon="-7.6694733"><ele>560.6666666666667</ele><time>2026-04-15T12:14:58.874Z</time></trkpt><trkpt lat="42.594485" lon="-7.66966"><ele>562.0</ele><time>2026-04-15T12:14:59.874Z</time></trkpt><trkpt lat="42.5946333" lon="-7.6698917"><ele>562.0</ele><time>2026-04-15T12:15:00.874Z</time></trkpt><trkpt lat="42.59477" lon="-7.6701367"><ele>562.0</ele><time>2026-04-15T12:15:01.874Z</time></trkpt><trkpt lat="42.5948983" lon="-7.6703917"><ele>560.3333333333334</ele><time>2026-04-15T12:15:02.873Z</time></trkpt><trkpt lat="42.5950183" lon="-7.670645"><ele>558.6666666666666</ele><time>2026-04-15T12:15:03.874Z</time></trkpt><trkpt lat="42.5951367" lon="-7.67089"><ele>557.0</ele><time>2026-04-15T12:15:04.874Z</time></trkpt><trkpt lat="42.5952817" lon="-7.671135"><ele>557.5</ele><time>2026-04-15T12:15:05.874Z</time></trkpt><trkpt lat="42.59543" lon="-7.671375"><ele>558.0</ele><time>2026-04-15T12:15:06.874Z</time></trkpt><trkpt lat="42.595585" lon="-7.6715883"><ele>558.0</ele><time>2026-04-15T12:15:07.873Z</time></trkpt><trkpt lat="42.5957383" lon="-7.6717917"><ele>558.0</ele><time>2026-04-15T12:15:08.873Z</time></trkpt><trkpt lat="42.595905" lon="-7.671975"><ele>558.0</ele><time>2026-04-15T12:15:09.873Z</time></trkpt><trkpt lat="42.5960817" lon="-7.672165"><ele>555.0</ele><time>2026-04-15T12:15:10.873Z</time></trkpt><trkpt lat="42.5962733" lon="-7.67233"><ele>552.0</ele><time>2026-04-15T12:15:11.874Z</time></trkpt><trkpt lat="42.596475" lon="-7.6724667"><ele>552.0</ele><time>2026-04-15T12:15:12.873Z</time></trkpt><trkpt lat="42.5966917" lon="-7.6725883"><ele>552.0</ele><time>2026-04-15T12:15:13.873Z</time></trkpt><trkpt lat="42.5969" lon="-7.6726733"><ele>551.0</ele><time>2026-04-15T12:15:14.874Z</time></trkpt><trkpt lat="42.597115" lon="-7.672735"><ele>550.0</ele><time>2026-04-15T12:15:15.874Z</time></trkpt><trkpt lat="42.5973267" lon="-7.6727833"><ele>549.0</ele><time>2026-04-15T12:15:16.874Z</time></trkpt><trkpt lat="42.59754" lon="-7.6728"><ele>545.6666666666666</ele><time>2026-04-15T12:15:17.873Z</time></trkpt><trkpt lat="42.5977567" lon="-7.6728133"><ele>542.3333333333333</ele><time>2026-04-15T12:15:18.874Z</time></trkpt><trkpt lat="42.597965" lon="-7.6728"><ele>539.0</ele><time>2026-04-15T12:15:19.873Z</time></trkpt><trkpt lat="42.598185" lon="-7.6727833"><ele>543.5</ele><time>2026-04-15T12:15:20.874Z</time></trkpt><trkpt lat="42.598405" lon="-7.672765"><ele>548.0</ele><time>2026-04-15T12:15:21.873Z</time></trkpt><trkpt lat="42.598635" lon="-7.6727683"><ele>541.0</ele><time>2026-04-15T12:15:22.874Z</time></trkpt><trkpt lat="42.5988633" lon="-7.67278"><ele>534.0</ele><time>2026-04-15T12:15:23.874Z</time></trkpt><trkpt lat="42.5990867" lon="-7.6728067"><ele>534.0</ele><time>2026-04-15T12:15:24.874Z</time></trkpt><trkpt lat="42.5993033" lon="-7.6728717"><ele>534.0</ele><time>2026-04-15T12:15:25.873Z</time></trkpt><trkpt lat="42.5995133" lon="-7.67295"><ele>534.0</ele><time>2026-04-15T12:15:26.873Z</time></trkpt><trkpt lat="42.5997233" lon="-7.6730567"><ele>531.0</ele><time>2026-04-15T12:15:27.873Z</time></trkpt><trkpt lat="42.5999283" lon="-7.673175"><ele>528.0</ele><time>2026-04-15T12:15:28.873Z</time></trkpt><trkpt lat="42.6001317" lon="-7.6733133"><ele>528.0</ele><time>2026-04-15T12:15:29.873Z</time></trkpt><trkpt lat="42.600325" lon="-7.67346"><ele>528.0</ele><time>2026-04-15T12:15:30.873Z</time></trkpt><trkpt lat="42.6004983" lon="-7.6736317"><ele>528.0</ele><time>2026-04-15T12:15:31.873Z</time></trkpt><trkpt lat="42.6006717" lon="-7.6738117"><ele>527.3333333333334</ele><time>2026-04-15T12:15:32.873Z</time></trkpt><trkpt lat="42.6008333" lon="-7.67399"><ele>526.6666666666667</ele><time>2026-04-15T12:15:33.874Z</time></trkpt><trkpt lat="42.6009767" lon="-7.67418"><ele>526.0</ele><time>2026-04-15T12:15:34.873Z</time></trkpt><trkpt lat="42.601115" lon="-7.6743917"><ele>527.3333333333334</ele><time>2026-04-15T12:15:35.873Z</time></trkpt><trkpt lat="42.6012517" lon="-7.674605"><ele>528.6666666666666</ele><time>2026-04-15T12:15:36.874Z</time></trkpt><trkpt lat="42.6013917" lon="-7.674835"><ele>530.0</ele><time>2026-04-15T12:15:37.874Z</time></trkpt><trkpt lat="42.60153" lon="-7.6750683"><ele>528.0</ele><time>2026-04-15T12:15:38.873Z</time></trkpt><trkpt lat="42.6016567" lon="-7.6753083"><ele>526.0</ele><time>2026-04-15T12:15:39.873Z</time></trkpt><trkpt lat="42.60178" lon="-7.6755417"><ele>524.0</ele><time>2026-04-15T12:15:40.874Z</time></trkpt><trkpt lat="42.601905" lon="-7.67578"><ele>524.6666666666666</ele><time>2026-04-15T12:15:41.874Z</time></trkpt><trkpt lat="42.6020233" lon="-7.6760167"><ele>525.3333333333334</ele><time>2026-04-15T12:15:42.874Z</time></trkpt><trkpt lat="42.60214" lon="-7.6762633"><ele>526.0</ele><time>2026-04-15T12:15:43.874Z</time></trkpt><trkpt lat="42.6022517" lon="-7.676505"><ele>524.6666666666667</ele><time>2026-04-15T12:15:44.874Z</time></trkpt><trkpt lat="42.6023767" lon="-7.6767483"><ele>523.3333333333334</ele><time>2026-04-15T12:15:45.873Z</time></trkpt><trkpt lat="42.6024983" lon="-7.6769767"><ele>522.0</ele><time>2026-04-15T12:15:46.873Z</time></trkpt><trkpt lat="42.602615" lon="-7.6772"><ele>521.0</ele><time>2026-04-15T12:15:47.873Z</time></trkpt><trkpt lat="42.6027467" lon="-7.677415"><ele>520.0</ele><time>2026-04-15T12:15:48.874Z</time></trkpt><trkpt lat="42.6028967" lon="-7.6776067"><ele>519.0</ele><time>2026-04-15T12:15:49.873Z</time></trkpt><trkpt lat="42.6030517" lon="-7.6777867"><ele>521.3333333333334</ele><time>2026-04-15T12:15:50.873Z</time></trkpt><trkpt lat="42.6032133" lon="-7.6779517"><ele>523.6666666666667</ele><time>2026-04-15T12:15:51.874Z</time></trkpt><trkpt lat="42.603385" lon="-7.6780833"><ele>526.0</ele><time>2026-04-15T12:15:52.874Z</time></trkpt><trkpt lat="42.6035633" lon="-7.6782167"><ele>527.0</ele><time>2026-04-15T12:15:53.873Z</time></trkpt><trkpt lat="42.6037583" lon="-7.6783417"><ele>528.0</ele><time>2026-04-15T12:15:54.873Z</time></trkpt><trkpt lat="42.60396" lon="-7.6784483"><ele>529.0</ele><time>2026-04-15T12:15:55.874Z</time></trkpt><trkpt lat="42.604175" lon="-7.6785383"><ele>524.5</ele><time>2026-04-15T12:15:56.874Z</time></trkpt><trkpt lat="42.6044017" lon="-7.6786283"><ele>520.0</ele><time>2026-04-15T12:15:57.874Z</time></trkpt><trkpt lat="42.6046267" lon="-7.6786883"><ele>519.0</ele><time>2026-04-15T12:15:58.874Z</time></trkpt><trkpt lat="42.6048533" lon="-7.6787233"><ele>518.0</ele><time>2026-04-15T12:15:59.873Z</time></trkpt><trkpt lat="42.6050733" lon="-7.678755"><ele>517.0</ele><time>2026-04-15T12:16:00.873Z</time></trkpt><trkpt lat="42.6052983" lon="-7.67877"><ele>515.0</ele><time>2026-04-15T12:16:01.874Z</time></trkpt><trkpt lat="42.6055167" lon="-7.678785"><ele>513.0</ele><time>2026-04-15T12:16:02.874Z</time></trkpt><trkpt lat="42.6057367" lon="-7.6788083"><ele>511.0</ele><time>2026-04-15T12:16:03.873Z</time></trkpt><trkpt lat="42.6059533" lon="-7.6788567"><ele>509.0</ele><time>2026-04-15T12:16:04.873Z</time></trkpt><trkpt lat="42.606175" lon="-7.67893"><ele>507.0</ele><time>2026-04-15T12:16:05.874Z</time></trkpt><trkpt lat="42.6063933" lon="-7.6790417"><ele>507.0</ele><time>2026-04-15T12:16:06.873Z</time></trkpt><trkpt lat="42.6066" lon="-7.6791733"><ele>507.0</ele><time>2026-04-15T12:16:07.873Z</time></trkpt><trkpt lat="42.6067883" lon="-7.679315"><ele>507.0</ele><time>2026-04-15T12:16:08.873Z</time></trkpt><trkpt lat="42.60697" lon="-7.6794633"><ele>504.0</ele><time>2026-04-15T12:16:09.873Z</time></trkpt><trkpt lat="42.607155" lon="-7.67963"><ele>501.0</ele><time>2026-04-15T12:16:10.874Z</time></trkpt><trkpt lat="42.6073367" lon="-7.6798133"><ele>498.0</ele><time>2026-04-15T12:16:11.873Z</time></trkpt><trkpt lat="42.6075017" lon="-7.679985"><ele>498.0</ele><time>2026-04-15T12:16:12.873Z</time></trkpt><trkpt lat="42.6076683" lon="-7.6801667"><ele>498.0</ele><time>2026-04-15T12:16:13.873Z</time></trkpt><trkpt lat="42.6078267" lon="-7.680365"><ele>498.0</ele><time>2026-04-15T12:16:14.873Z</time></trkpt><trkpt lat="42.60798" lon="-7.6805583"><ele>498.33333333333337</ele><time>2026-04-15T12:16:15.873Z</time></trkpt><trkpt lat="42.6081467" lon="-7.6807517"><ele>498.6666666666667</ele><time>2026-04-15T12:16:16.873Z</time></trkpt><trkpt lat="42.6083117" lon="-7.68093"><ele>499.0</ele><time>2026-04-15T12:16:17.874Z</time></trkpt><trkpt lat="42.6084783" lon="-7.6811033"><ele>499.33333333333337</ele><time>2026-04-15T12:16:18.873Z</time></trkpt><trkpt lat="42.6086483" lon="-7.6812717"><ele>499.66666666666663</ele><time>2026-04-15T12:16:19.874Z</time></trkpt><trkpt lat="42.6088117" lon="-7.6814333"><ele>500.0</ele><time>2026-04-15T12:16:20.873Z</time></trkpt><trkpt lat="42.608985" lon="-7.6815867"><ele>500.0</ele><time>2026-04-15T12:16:21.874Z</time></trkpt><trkpt lat="42.6091567" lon="-7.6817367"><ele>500.0</ele><time>2026-04-15T12:16:22.873Z</time></trkpt><trkpt lat="42.60933" lon="-7.6818833"><ele>500.0</ele><time>2026-04-15T12:16:23.874Z</time></trkpt><trkpt lat="42.6095067" lon="-7.6820233"><ele>501.0</ele><time>2026-04-15T12:16:24.873Z</time></trkpt><trkpt lat="42.6096917" lon="-7.68216"><ele>502.0</ele><time>2026-04-15T12:16:25.873Z</time></trkpt><trkpt lat="42.6098833" lon="-7.682275"><ele>503.0</ele><time>2026-04-15T12:16:26.873Z</time></trkpt><trkpt lat="42.6100717" lon="-7.6823983"><ele>503.0</ele><time>2026-04-15T12:16:27.873Z</time></trkpt><trkpt lat="42.61027" lon="-7.68252"><ele>503.0</ele><time>2026-04-15T12:16:28.873Z</time></trkpt><trkpt lat="42.610465" lon="-7.682645"><ele>503.0</ele><time>2026-04-15T12:16:29.874Z</time></trkpt><trkpt lat="42.6106617" lon="-7.6827467"><ele>503.0</ele><time>2026-04-15T12:16:30.873Z</time></trkpt><trkpt lat="42.610855" lon="-7.6828417"><ele>503.0</ele><time>2026-04-15T12:16:31.873Z</time></trkpt><trkpt lat="42.6110533" lon="-7.6829417"><ele>503.0</ele><time>2026-04-15T12:16:32.873Z</time></trkpt><trkpt lat="42.6112617" lon="-7.683025"><ele>503.0</ele><time>2026-04-15T12:16:33.873Z</time></trkpt><trkpt lat="42.6114717" lon="-7.6831"><ele>503.0</ele><time>2026-04-15T12:16:34.874Z</time></trkpt><trkpt lat="42.61168" lon="-7.68317"><ele>503.0</ele><time>2026-04-15T12:16:35.874Z</time></trkpt><trkpt lat="42.6118933" lon="-7.6832367"><ele>498.0</ele><time>2026-04-15T12:16:36.874Z</time></trkpt><trkpt lat="42.6121083" lon="-7.683305"><ele>493.0</ele><time>2026-04-15T12:16:37.873Z</time></trkpt><trkpt lat="42.6123167" lon="-7.6833567"><ele>488.0</ele><time>2026-04-15T12:16:38.874Z</time></trkpt><trkpt lat="42.6125167" lon="-7.6833933"><ele>488.0</ele><time>2026-04-15T12:16:39.874Z</time></trkpt><trkpt lat="42.61271" lon="-7.6834233"><ele>488.0</ele><time>2026-04-15T12:16:40.873Z</time></trkpt><trkpt lat="42.6128983" lon="-7.6834533"><ele>488.0</ele><time>2026-04-15T12:16:41.874Z</time></trkpt><trkpt lat="42.61308" lon="-7.6834817"><ele>486.3333333333333</ele><time>2026-04-15T12:16:42.874Z</time></trkpt><trkpt lat="42.613255" lon="-7.68351"><ele>484.66666666666663</ele><time>2026-04-15T12:16:43.874Z</time></trkpt><trkpt lat="42.613435" lon="-7.6835317"><ele>483.0</ele><time>2026-04-15T12:16:44.873Z</time></trkpt><trkpt lat="42.61362" lon="-7.683535"><ele>482.33333333333337</ele><time>2026-04-15T12:16:45.874Z</time></trkpt><trkpt lat="42.6138133" lon="-7.6835333"><ele>481.6666666666667</ele><time>2026-04-15T12:16:46.874Z</time></trkpt><trkpt lat="42.6140117" lon="-7.6835267"><ele>481.0</ele><time>2026-04-15T12:16:47.874Z</time></trkpt><trkpt lat="42.614215" lon="-7.683515"><ele>481.0</ele><time>2026-04-15T12:16:48.873Z</time></trkpt><trkpt lat="42.61443" lon="-7.6835133"><ele>481.0</ele><time>2026-04-15T12:16:49.873Z</time></trkpt><trkpt lat="42.61465" lon="-7.6834983"><ele>481.0</ele><time>2026-04-15T12:16:50.873Z</time></trkpt><trkpt lat="42.6148683" lon="-7.683495"><ele>481.0</ele><time>2026-04-15T12:16:51.873Z</time></trkpt><trkpt lat="42.6150833" lon="-7.683495"><ele>481.0</ele><time>2026-04-15T12:16:52.873Z</time></trkpt><trkpt lat="42.6152983" lon="-7.6835"><ele>481.0</ele><time>2026-04-15T12:16:53.874Z</time></trkpt><trkpt lat="42.615505" lon="-7.6835117"><ele>482.0</ele><time>2026-04-15T12:16:54.874Z</time></trkpt><trkpt lat="42.6157117" lon="-7.683535"><ele>483.0</ele><time>2026-04-15T12:16:55.873Z</time></trkpt><trkpt lat="42.6159217" lon="-7.68359"><ele>484.0</ele><time>2026-04-15T12:16:56.874Z</time></trkpt><trkpt lat="42.6161333" lon="-7.6836533"><ele>478.0</ele><time>2026-04-15T12:16:57.873Z</time></trkpt><trkpt lat="42.6163367" lon="-7.6837283"><ele>472.0</ele><time>2026-04-15T12:16:58.873Z</time></trkpt><trkpt lat="42.6165283" lon="-7.6838117"><ele>466.0</ele><time>2026-04-15T12:16:59.874Z</time></trkpt><trkpt lat="42.616715" lon="-7.6839217"><ele>466.0</ele><time>2026-04-15T12:17:00.874Z</time></trkpt><trkpt lat="42.6168983" lon="-7.6840367"><ele>466.0</ele><time>2026-04-15T12:17:01.874Z</time></trkpt><trkpt lat="42.6170733" lon="-7.684175"><ele>466.0</ele><time>2026-04-15T12:17:02.874Z</time></trkpt><trkpt lat="42.6172383" lon="-7.6843117"><ele>466.6666666666667</ele><time>2026-04-15T12:17:03.873Z</time></trkpt><trkpt lat="42.6174" lon="-7.6844617"><ele>467.33333333333337</ele><time>2026-04-15T12:17:04.873Z</time></trkpt><trkpt lat="42.6175583" lon="-7.6846333"><ele>468.0</ele><time>2026-04-15T12:17:05.874Z</time></trkpt><trkpt lat="42.617705" lon="-7.6848133"><ele>466.0</ele><time>2026-04-15T12:17:06.873Z</time></trkpt><trkpt lat="42.6178433" lon="-7.6850017"><ele>464.0</ele><time>2026-04-15T12:17:07.873Z</time></trkpt><trkpt lat="42.6179833" lon="-7.6851967"><ele>462.0</ele><time>2026-04-15T12:17:08.873Z</time></trkpt><trkpt lat="42.6181183" lon="-7.6854017"><ele>461.0</ele><time>2026-04-15T12:17:09.874Z</time></trkpt><trkpt lat="42.6182533" lon="-7.6856183"><ele>460.0</ele><time>2026-04-15T12:17:10.873Z</time></trkpt><trkpt lat="42.6183783" lon="-7.685845"><ele>459.0</ele><time>2026-04-15T12:17:11.874Z</time></trkpt><trkpt lat="42.6184983" lon="-7.6860683"><ele>459.66666666666663</ele><time>2026-04-15T12:17:12.874Z</time></trkpt><trkpt lat="42.6186217" lon="-7.6862933"><ele>460.3333333333333</ele><time>2026-04-15T12:17:13.873Z</time></trkpt><trkpt lat="42.6187517" lon="-7.686505"><ele>461.0</ele><time>2026-04-15T12:17:14.873Z</time></trkpt><trkpt lat="42.6188883" lon="-7.68672"><ele>459.3333333333333</ele><time>2026-04-15T12:17:15.873Z</time></trkpt><trkpt lat="42.6190383" lon="-7.6869433"><ele>457.66666666666663</ele><time>2026-04-15T12:17:16.874Z</time></trkpt><trkpt lat="42.6191817" lon="-7.6871517"><ele>456.0</ele><time>2026-04-15T12:17:17.873Z</time></trkpt><trkpt lat="42.6193233" lon="-7.6873483"><ele>456.0</ele><time>2026-04-15T12:17:18.873Z</time></trkpt><trkpt lat="42.61947" lon="-7.687545"><ele>456.0</ele><time>2026-04-15T12:17:19.873Z</time></trkpt><trkpt lat="42.6196233" lon="-7.687735"><ele>456.0</ele><time>2026-04-15T12:17:20.874Z</time></trkpt><trkpt lat="42.6197783" lon="-7.6879167"><ele>453.66666666666663</ele><time>2026-04-15T12:17:21.873Z</time></trkpt><trkpt lat="42.619925" lon="-7.6881"><ele>451.3333333333333</ele><time>2026-04-15T12:17:22.873Z</time></trkpt><trkpt lat="42.6200833" lon="-7.6882783"><ele>449.0</ele><time>2026-04-15T12:17:23.873Z</time></trkpt><trkpt lat="42.6202333" lon="-7.688455"><ele>444.3333333333333</ele><time>2026-04-15T12:17:24.874Z</time></trkpt><trkpt lat="42.6203783" lon="-7.688645"><ele>439.66666666666663</ele><time>2026-04-15T12:17:25.874Z</time></trkpt><trkpt lat="42.6205233" lon="-7.68884"><ele>435.0</ele><time>2026-04-15T12:17:26.873Z</time></trkpt><trkpt lat="42.620655" lon="-7.6890517"><ele>435.0</ele><time>2026-04-15T12:17:27.874Z</time></trkpt><trkpt lat="42.6207867" lon="-7.6892617"><ele>435.0</ele><time>2026-04-15T12:17:28.874Z</time></trkpt><trkpt lat="42.6209133" lon="-7.689475"><ele>435.0</ele><time>2026-04-15T12:17:29.873Z</time></trkpt><trkpt lat="42.6210483" lon="-7.6896733"><ele>434.66666666666663</ele><time>2026-04-15T12:17:30.873Z</time></trkpt><trkpt lat="42.62118" lon="-7.6898717"><ele>434.3333333333333</ele><time>2026-04-15T12:17:31.873Z</time></trkpt><trkpt lat="42.6213183" lon="-7.6900717"><ele>434.0</ele><time>2026-04-15T12:17:32.873Z</time></trkpt><trkpt lat="42.6214633" lon="-7.690255"><ele>436.66666666666663</ele><time>2026-04-15T12:17:33.873Z</time></trkpt><trkpt lat="42.621615" lon="-7.6904333"><ele>439.33333333333337</ele><time>2026-04-15T12:17:34.873Z</time></trkpt><trkpt lat="42.6217733" lon="-7.6906017"><ele>442.0</ele><time>2026-04-15T12:17:35.873Z</time></trkpt><trkpt lat="42.6219417" lon="-7.690755"><ele>440.0</ele><time>2026-04-15T12:17:36.873Z</time></trkpt><trkpt lat="42.6221233" lon="-7.6908967"><ele>438.0</ele><time>2026-04-15T12:17:37.874Z</time></trkpt><trkpt lat="42.6223067" lon="-7.6910317"><ele>436.0</ele><time>2026-04-15T12:17:38.873Z</time></trkpt><trkpt lat="42.622495" lon="-7.6911567"><ele>436.0</ele><time>2026-04-15T12:17:39.874Z</time></trkpt><trkpt lat="42.6226833" lon="-7.691275"><ele>436.0</ele><time>2026-04-15T12:17:40.873Z</time></trkpt><trkpt lat="42.6228633" lon="-7.69142"><ele>436.0</ele><time>2026-04-15T12:17:41.874Z</time></trkpt><trkpt lat="42.6230467" lon="-7.6915833"><ele>434.6666666666667</ele><time>2026-04-15T12:17:42.873Z</time></trkpt><trkpt lat="42.6232117" lon="-7.69175"><ele>433.33333333333337</ele><time>2026-04-15T12:17:43.874Z</time></trkpt><trkpt lat="42.623375" lon="-7.6919367"><ele>432.0</ele><time>2026-04-15T12:17:44.873Z</time></trkpt><trkpt lat="42.623515" lon="-7.6921317"><ele>432.0</ele><time>2026-04-15T12:17:45.873Z</time></trkpt><trkpt lat="42.6236383" lon="-7.6923483"><ele>432.0</ele><time>2026-04-15T12:17:46.874Z</time></trkpt><trkpt lat="42.6237517" lon="-7.6925733"><ele>432.0</ele><time>2026-04-15T12:17:47.873Z</time></trkpt><trkpt lat="42.62386" lon="-7.692805"><ele>430.0</ele><time>2026-04-15T12:17:48.874Z</time></trkpt><trkpt lat="42.6239517" lon="-7.6930417"><ele>428.0</ele><time>2026-04-15T12:17:49.874Z</time></trkpt><trkpt lat="42.62404" lon="-7.6932933"><ele>426.0</ele><time>2026-04-15T12:17:50.873Z</time></trkpt><trkpt lat="42.6241167" lon="-7.693555"><ele>428.0</ele><time>2026-04-15T12:17:51.874Z</time></trkpt><trkpt lat="42.624175" lon="-7.693815"><ele>430.0</ele><time>2026-04-15T12:17:52.874Z</time></trkpt><trkpt lat="42.62422" lon="-7.694075"><ele>432.0</ele><time>2026-04-15T12:17:53.873Z</time></trkpt><trkpt lat="42.6242433" lon="-7.6943367"><ele>432.66666666666663</ele><time>2026-04-15T12:17:54.874Z</time></trkpt><trkpt lat="42.62427" lon="-7.694615"><ele>433.3333333333333</ele><time>2026-04-15T12:17:55.873Z</time></trkpt><trkpt lat="42.6242983" lon="-7.6948983"><ele>434.0</ele><time>2026-04-15T12:17:56.873Z</time></trkpt><trkpt lat="42.6243233" lon="-7.6951667"><ele>435.0</ele><time>2026-04-15T12:17:57.873Z</time></trkpt><trkpt lat="42.6243667" lon="-7.69543"><ele>436.0</ele><time>2026-04-15T12:17:58.874Z</time></trkpt><trkpt lat="42.6244283" lon="-7.695695"><ele>437.0</ele><time>2026-04-15T12:17:59.874Z</time></trkpt><trkpt lat="42.6245" lon="-7.6959633"><ele>428.66666666666663</ele><time>2026-04-15T12:18:00.874Z</time></trkpt><trkpt lat="42.6245717" lon="-7.69623"><ele>420.33333333333337</ele><time>2026-04-15T12:18:01.873Z</time></trkpt><trkpt lat="42.62462" lon="-7.6965017"><ele>412.0</ele><time>2026-04-15T12:18:02.873Z</time></trkpt><trkpt lat="42.6246467" lon="-7.696775"><ele>412.0</ele><time>2026-04-15T12:18:03.873Z</time></trkpt><trkpt lat="42.6246583" lon="-7.6970567"><ele>412.0</ele><time>2026-04-15T12:18:04.874Z</time></trkpt><trkpt lat="42.6246583" lon="-7.697345"><ele>412.0</ele><time>2026-04-15T12:18:05.874Z</time></trkpt><trkpt lat="42.6246483" lon="-7.6976417"><ele>410.33333333333337</ele><time>2026-04-15T12:18:06.874Z</time></trkpt><trkpt lat="42.62462" lon="-7.6979333"><ele>408.66666666666663</ele><time>2026-04-15T12:18:07.873Z</time></trkpt><trkpt lat="42.6245667" lon="-7.6982167"><ele>407.0</ele><time>2026-04-15T12:18:08.873Z</time></trkpt><trkpt lat="42.6244967" lon="-7.6985033"><ele>410.0</ele><time>2026-04-15T12:18:09.873Z</time></trkpt><trkpt lat="42.6244" lon="-7.69878"><ele>413.0</ele><time>2026-04-15T12:18:10.874Z</time></trkpt><trkpt lat="42.6242883" lon="-7.6990533"><ele>413.0</ele><time>2026-04-15T12:18:11.873Z</time></trkpt><trkpt lat="42.6241967" lon="-7.6993333"><ele>413.0</ele><time>2026-04-15T12:18:12.874Z</time></trkpt><trkpt lat="42.6241283" lon="-7.6996283"><ele>409.5</ele><time>2026-04-15T12:18:13.873Z</time></trkpt><trkpt lat="42.6240717" lon="-7.6999333"><ele>406.0</ele><time>2026-04-15T12:18:14.874Z</time></trkpt><trkpt lat="42.6240467" lon="-7.7002633"><ele>403.5</ele><time>2026-04-15T12:18:15.873Z</time></trkpt><trkpt lat="42.6240467" lon="-7.7006233"><ele>401.0</ele><time>2026-04-15T12:18:16.874Z</time></trkpt><trkpt lat="42.6240817" lon="-7.7009733"><ele>398.5</ele><time>2026-04-15T12:18:17.874Z</time></trkpt><trkpt lat="42.624145" lon="-7.701305"><ele>396.0</ele><time>2026-04-15T12:18:18.874Z</time></trkpt><trkpt lat="42.6242167" lon="-7.7016117"><ele>396.0</ele><time>2026-04-15T12:18:19.873Z</time></trkpt><trkpt lat="42.62429" lon="-7.7019133"><ele>396.0</ele><time>2026-04-15T12:18:20.873Z</time></trkpt><trkpt lat="42.6243517" lon="-7.7022117"><ele>396.33333333333337</ele><time>2026-04-15T12:18:21.874Z</time></trkpt><trkpt lat="42.6243983" lon="-7.702505"><ele>396.6666666666667</ele><time>2026-04-15T12:18:22.873Z</time></trkpt><trkpt lat="42.624425" lon="-7.702795"><ele>397.0</ele><time>2026-04-15T12:18:23.873Z</time></trkpt><trkpt lat="42.62443" lon="-7.7030883"><ele>396.0</ele><time>2026-04-15T12:18:24.874Z</time></trkpt><trkpt lat="42.6244133" lon="-7.703375"><ele>395.0</ele><time>2026-04-15T12:18:25.874Z</time></trkpt><trkpt lat="42.6243817" lon="-7.70365"><ele>394.0</ele><time>2026-04-15T12:18:26.873Z</time></trkpt><trkpt lat="42.6243317" lon="-7.703915"><ele>388.6666666666667</ele><time>2026-04-15T12:18:27.874Z</time></trkpt><trkpt lat="42.62426" lon="-7.7041567"><ele>383.33333333333337</ele><time>2026-04-15T12:18:28.874Z</time></trkpt><trkpt lat="42.6241833" lon="-7.70439"><ele>378.0</ele><time>2026-04-15T12:18:29.873Z</time></trkpt><trkpt lat="42.624095" lon="-7.7046"><ele>370.6666666666667</ele><time>2026-04-15T12:18:30.873Z</time></trkpt><trkpt lat="42.62398" lon="-7.7048133"><ele>363.33333333333337</ele><time>2026-04-15T12:18:31.873Z</time></trkpt><trkpt lat="42.6238533" lon="-7.70502"><ele>356.0</ele><time>2026-04-15T12:18:32.874Z</time></trkpt><trkpt lat="42.6237033" lon="-7.7052"><ele>357.0</ele><time>2026-04-15T12:18:33.873Z</time></trkpt><trkpt lat="42.62356" lon="-7.7053617"><ele>358.0</ele><time>2026-04-15T12:18:34.873Z</time></trkpt><trkpt lat="42.6234267" lon="-7.7055133"><ele>359.0</ele><time>2026-04-15T12:18:35.874Z</time></trkpt><trkpt lat="42.6232983" lon="-7.7056617"><ele>359.0</ele><time>2026-04-15T12:18:36.873Z</time></trkpt><trkpt lat="42.6231767" lon="-7.705795"><ele>359.0</ele><time>2026-04-15T12:18:37.874Z</time></trkpt><trkpt lat="42.6230433" lon="-7.7058983"><ele>359.0</ele><time>2026-04-15T12:18:38.873Z</time></trkpt><trkpt lat="42.62289" lon="-7.70597"><ele>361.33333333333337</ele><time>2026-04-15T12:18:39.874Z</time></trkpt><trkpt lat="42.6227167" lon="-7.7059933"><ele>363.6666666666667</ele><time>2026-04-15T12:18:40.873Z</time></trkpt><trkpt lat="42.6225333" lon="-7.70599"><ele>366.0</ele><time>2026-04-15T12:18:41.873Z</time></trkpt><trkpt lat="42.6223383" lon="-7.7059633"><ele>366.0</ele><time>2026-04-15T12:18:42.873Z</time></trkpt><trkpt lat="42.6221267" lon="-7.7059"><ele>366.0</ele><time>2026-04-15T12:18:43.874Z</time></trkpt><trkpt lat="42.6219117" lon="-7.7058583"><ele>366.0</ele><time>2026-04-15T12:18:44.873Z</time></trkpt><trkpt lat="42.62169" lon="-7.7058233"><ele>362.6666666666667</ele><time>2026-04-15T12:18:45.873Z</time></trkpt><trkpt lat="42.6214717" lon="-7.705815"><ele>359.33333333333337</ele><time>2026-04-15T12:18:46.873Z</time></trkpt><trkpt lat="42.621265" lon="-7.7058383"><ele>356.0</ele><time>2026-04-15T12:18:47.873Z</time></trkpt><trkpt lat="42.6210617" lon="-7.705895"><ele>356.0</ele><time>2026-04-15T12:18:48.873Z</time></trkpt><trkpt lat="42.6208567" lon="-7.7059717"><ele>356.0</ele><time>2026-04-15T12:18:49.874Z</time></trkpt><trkpt lat="42.6206733" lon="-7.7060717"><ele>356.0</ele><time>2026-04-15T12:18:50.874Z</time></trkpt><trkpt lat="42.6204917" lon="-7.70619"><ele>350.33333333333337</ele><time>2026-04-15T12:18:51.874Z</time></trkpt><trkpt lat="42.6203017" lon="-7.70634"><ele>344.6666666666667</ele><time>2026-04-15T12:18:52.873Z</time></trkpt><trkpt lat="42.6201267" lon="-7.706525"><ele>339.0</ele><time>2026-04-15T12:18:53.874Z</time></trkpt><trkpt lat="42.6199567" lon="-7.7067467"><ele>327.5</ele><time>2026-04-15T12:18:54.873Z</time></trkpt><trkpt lat="42.6197983" lon="-7.7069867"><ele>316.0</ele><time>2026-04-15T12:18:55.873Z</time></trkpt><trkpt lat="42.6196367" lon="-7.7072383"><ele>326.5</ele><time>2026-04-15T12:18:56.873Z</time></trkpt><trkpt lat="42.619465" lon="-7.7074767"><ele>337.0</ele><time>2026-04-15T12:18:57.874Z</time></trkpt><trkpt lat="42.619305" lon="-7.7077083"><ele>331.0</ele><time>2026-04-15T12:18:58.874Z</time></trkpt><trkpt lat="42.6191567" lon="-7.7079433"><ele>325.0</ele><time>2026-04-15T12:18:59.873Z</time></trkpt><trkpt lat="42.61901" lon="-7.7081467"><ele>319.0</ele><time>2026-04-15T12:19:00.873Z</time></trkpt><trkpt lat="42.6188517" lon="-7.7083433"><ele>319.0</ele><time>2026-04-15T12:19:01.874Z</time></trkpt><trkpt lat="42.61867" lon="-7.7085167"><ele>319.0</ele><time>2026-04-15T12:19:02.873Z</time></trkpt><trkpt lat="42.6184867" lon="-7.7086667"><ele>319.0</ele><time>2026-04-15T12:19:03.874Z</time></trkpt><trkpt lat="42.6182817" lon="-7.7087883"><ele>320.0</ele><time>2026-04-15T12:19:04.874Z</time></trkpt><trkpt lat="42.6180767" lon="-7.7089017"><ele>321.0</ele><time>2026-04-15T12:19:05.874Z</time></trkpt><trkpt lat="42.61788" lon="-7.709"><ele>322.0</ele><time>2026-04-15T12:19:06.874Z</time></trkpt><trkpt lat="42.6176817" lon="-7.7091033"><ele>322.0</ele><time>2026-04-15T12:19:07.873Z</time></trkpt><trkpt lat="42.6174917" lon="-7.7092383"><ele>322.0</ele><time>2026-04-15T12:19:08.873Z</time></trkpt><trkpt lat="42.6173333" lon="-7.709395"><ele>322.0</ele><time>2026-04-15T12:19:09.873Z</time></trkpt><trkpt lat="42.6171833" lon="-7.70958"><ele>316.0</ele><time>2026-04-15T12:19:10.873Z</time></trkpt><trkpt lat="42.6170483" lon="-7.7097817"><ele>310.0</ele><time>2026-04-15T12:19:11.874Z</time></trkpt><trkpt lat="42.616925" lon="-7.709995"><ele>304.0</ele><time>2026-04-15T12:19:12.873Z</time></trkpt><trkpt lat="42.6168217" lon="-7.710225"><ele>294.0</ele><time>2026-04-15T12:19:13.874Z</time></trkpt><trkpt lat="42.6167217" lon="-7.71047"><ele>284.0</ele><time>2026-04-15T12:19:14.873Z</time></trkpt><trkpt lat="42.6166333" lon="-7.7107417"><ele>274.0</ele><time>2026-04-15T12:19:15.873Z</time></trkpt><trkpt lat="42.6165283" lon="-7.7110317"><ele>255.0</ele><time>2026-04-15T12:19:16.873Z</time></trkpt><trkpt lat="42.61643" lon="-7.7113167"><ele>236.0</ele><time>2026-04-15T12:19:17.873Z</time></trkpt><trkpt lat="42.61633" lon="-7.7116167"><ele>236.0</ele><time>2026-04-15T12:19:18.873Z</time></trkpt><trkpt lat="42.61624" lon="-7.7119017"><ele>236.0</ele><time>2026-04-15T12:19:19.874Z</time></trkpt><trkpt lat="42.6161483" lon="-7.7121983"><ele>236.5</ele><time>2026-04-15T12:19:20.873Z</time></trkpt><trkpt lat="42.6160617" lon="-7.7124917"><ele>237.0</ele><time>2026-04-15T12:19:21.874Z</time></trkpt><trkpt lat="42.6159717" lon="-7.7127817"><ele>249.66666666666669</ele><time>2026-04-15T12:19:22.873Z</time></trkpt><trkpt lat="42.615885" lon="-7.7130617"><ele>262.33333333333337</ele><time>2026-04-15T12:19:23.874Z</time></trkpt><trkpt lat="42.6157983" lon="-7.7133333"><ele>275.0</ele><time>2026-04-15T12:19:24.874Z</time></trkpt><trkpt lat="42.6157" lon="-7.7136067"><ele>289.6666666666667</ele><time>2026-04-15T12:19:25.874Z</time></trkpt><trkpt lat="42.615615" lon="-7.7138783"><ele>304.3333333333333</ele><time>2026-04-15T12:19:26.874Z</time></trkpt><trkpt lat="42.6155317" lon="-7.7141383"><ele>319.0</ele><time>2026-04-15T12:19:27.874Z</time></trkpt><trkpt lat="42.6154467" lon="-7.714395"><ele>318.0</ele><time>2026-04-15T12:19:28.873Z</time></trkpt><trkpt lat="42.61536" lon="-7.7146533"><ele>317.0</ele><time>2026-04-15T12:19:29.873Z</time></trkpt><trkpt lat="42.6152767" lon="-7.7149067"><ele>316.0</ele><time>2026-04-15T12:19:30.874Z</time></trkpt><trkpt lat="42.6151867" lon="-7.71516"><ele>322.66666666666663</ele><time>2026-04-15T12:19:31.873Z</time></trkpt><trkpt lat="42.6150817" lon="-7.7154083"><ele>329.3333333333333</ele><time>2026-04-15T12:19:32.873Z</time></trkpt><trkpt lat="42.6149667" lon="-7.7156583"><ele>336.0</ele><time>2026-04-15T12:19:33.873Z</time></trkpt><trkpt lat="42.6148417" lon="-7.7158917"><ele>332.0</ele><time>2026-04-15T12:19:34.873Z</time></trkpt><trkpt lat="42.6147117" lon="-7.7161283"><ele>328.0</ele><time>2026-04-15T12:19:35.873Z</time></trkpt><trkpt lat="42.6145717" lon="-7.7163483"><ele>324.0</ele><time>2026-04-15T12:19:36.874Z</time></trkpt><trkpt lat="42.614425" lon="-7.71657"><ele>324.0</ele><time>2026-04-15T12:19:37.873Z</time></trkpt><trkpt lat="42.6142733" lon="-7.7167817"><ele>324.0</ele><time>2026-04-15T12:19:38.873Z</time></trkpt><trkpt lat="42.6141117" lon="-7.71698"><ele>324.0</ele><time>2026-04-15T12:19:39.874Z</time></trkpt><trkpt lat="42.6139533" lon="-7.7171783"><ele>325.0</ele><time>2026-04-15T12:19:40.873Z</time></trkpt><trkpt lat="42.6137817" lon="-7.7173667"><ele>326.0</ele><time>2026-04-15T12:19:41.873Z</time></trkpt><trkpt lat="42.6136083" lon="-7.7175317"><ele>327.0</ele><time>2026-04-15T12:19:42.873Z</time></trkpt><trkpt lat="42.6134283" lon="-7.717695"><ele>337.0</ele><time>2026-04-15T12:19:43.873Z</time></trkpt><trkpt lat="42.6132467" lon="-7.7178517"><ele>347.0</ele><time>2026-04-15T12:19:44.873Z</time></trkpt><trkpt lat="42.6130633" lon="-7.7180183"><ele>357.0</ele><time>2026-04-15T12:19:45.873Z</time></trkpt><trkpt lat="42.6128917" lon="-7.7181733"><ele>356.3333333333333</ele><time>2026-04-15T12:19:46.873Z</time></trkpt><trkpt lat="42.6127367" lon="-7.7183467"><ele>355.66666666666663</ele><time>2026-04-15T12:19:47.873Z</time></trkpt><trkpt lat="42.612595" lon="-7.71853"><ele>355.0</ele><time>2026-04-15T12:19:48.874Z</time></trkpt><trkpt lat="42.6124667" lon="-7.7187333"><ele>355.0</ele><time>2026-04-15T12:19:49.873Z</time></trkpt><trkpt lat="42.6123583" lon="-7.71895"><ele>355.0</ele><time>2026-04-15T12:19:50.874Z</time></trkpt><trkpt lat="42.61227" lon="-7.7191817"><ele>355.0</ele><time>2026-04-15T12:19:51.874Z</time></trkpt><trkpt lat="42.6121967" lon="-7.7194183"><ele>356.3333333333333</ele><time>2026-04-15T12:19:52.874Z</time></trkpt><trkpt lat="42.6121417" lon="-7.7196717"><ele>357.6666666666667</ele><time>2026-04-15T12:19:53.873Z</time></trkpt><trkpt lat="42.612075" lon="-7.7199233"><ele>359.0</ele><time>2026-04-15T12:19:54.874Z</time></trkpt><trkpt lat="42.6120033" lon="-7.7201683"><ele>354.6666666666667</ele><time>2026-04-15T12:19:55.874Z</time></trkpt><trkpt lat="42.6119217" lon="-7.7204133"><ele>350.3333333333333</ele><time>2026-04-15T12:19:56.873Z</time></trkpt><trkpt lat="42.61184" lon="-7.720665"><ele>346.0</ele><time>2026-04-15T12:19:57.873Z</time></trkpt><trkpt lat="42.6117317" lon="-7.72089"><ele>353.0</ele><time>2026-04-15T12:19:58.874Z</time></trkpt><trkpt lat="42.6116067" lon="-7.721105"><ele>360.0</ele><time>2026-04-15T12:19:59.873Z</time></trkpt><trkpt lat="42.6114667" lon="-7.7213067"><ele>367.0</ele><time>2026-04-15T12:20:00.873Z</time></trkpt><trkpt lat="42.61132" lon="-7.7214967"><ele>367.0</ele><time>2026-04-15T12:20:01.873Z</time></trkpt><trkpt lat="42.611165" lon="-7.7216683"><ele>367.0</ele><time>2026-04-15T12:20:02.874Z</time></trkpt><trkpt lat="42.61101" lon="-7.7218417"><ele>367.0</ele><time>2026-04-15T12:20:03.874Z</time></trkpt><trkpt lat="42.6108567" lon="-7.722015"><ele>368.3333333333333</ele><time>2026-04-15T12:20:04.874Z</time></trkpt><trkpt lat="42.6107083" lon="-7.72217"><ele>369.6666666666667</ele><time>2026-04-15T12:20:05.873Z</time></trkpt><trkpt lat="42.6105717" lon="-7.7223333"><ele>371.0</ele><time>2026-04-15T12:20:06.873Z</time></trkpt><trkpt lat="42.6104467" lon="-7.722525"><ele>371.0</ele><time>2026-04-15T12:20:07.873Z</time></trkpt><trkpt lat="42.61034" lon="-7.7227283"><ele>371.0</ele><time>2026-04-15T12:20:08.873Z</time></trkpt><trkpt lat="42.6102517" lon="-7.7229567"><ele>371.0</ele><time>2026-04-15T12:20:09.874Z</time></trkpt><trkpt lat="42.6101833" lon="-7.7232067"><ele>368.0</ele><time>2026-04-15T12:20:10.873Z</time></trkpt><trkpt lat="42.6101417" lon="-7.72347"><ele>365.0</ele><time>2026-04-15T12:20:11.873Z</time></trkpt><trkpt lat="42.6101133" lon="-7.7237367"><ele>362.0</ele><time>2026-04-15T12:20:12.873Z</time></trkpt><trkpt lat="42.6101133" lon="-7.724005"><ele>362.0</ele><time>2026-04-15T12:20:13.874Z</time></trkpt><trkpt lat="42.6101383" lon="-7.7242717"><ele>362.0</ele><time>2026-04-15T12:20:14.873Z</time></trkpt><trkpt lat="42.6101767" lon="-7.72453"><ele>362.0</ele><time>2026-04-15T12:20:15.873Z</time></trkpt><trkpt lat="42.6102217" lon="-7.7247817"><ele>360.0</ele><time>2026-04-15T12:20:16.873Z</time></trkpt><trkpt lat="42.6102867" lon="-7.7250333"><ele>358.0</ele><time>2026-04-15T12:20:17.874Z</time></trkpt><trkpt lat="42.6103717" lon="-7.7252617"><ele>356.0</ele><time>2026-04-15T12:20:18.874Z</time></trkpt><trkpt lat="42.6104867" lon="-7.7254583"><ele>362.33333333333337</ele><time>2026-04-15T12:20:19.873Z</time></trkpt><trkpt lat="42.6106217" lon="-7.725615"><ele>368.6666666666667</ele><time>2026-04-15T12:20:20.874Z</time></trkpt><trkpt lat="42.6107583" lon="-7.7257667"><ele>375.0</ele><time>2026-04-15T12:20:21.873Z</time></trkpt><trkpt lat="42.6108783" lon="-7.7259383"><ele>372.0</ele><time>2026-04-15T12:20:22.873Z</time></trkpt><trkpt lat="42.6109867" lon="-7.7261367"><ele>369.0</ele><time>2026-04-15T12:20:23.874Z</time></trkpt><trkpt lat="42.6110667" lon="-7.7263583"><ele>366.0</ele><time>2026-04-15T12:20:24.874Z</time></trkpt><trkpt lat="42.6111283" lon="-7.7265933"><ele>366.0</ele><time>2026-04-15T12:20:25.873Z</time></trkpt><trkpt lat="42.6111567" lon="-7.7268333"><ele>366.0</ele><time>2026-04-15T12:20:26.874Z</time></trkpt><trkpt lat="42.611165" lon="-7.7270867"><ele>366.0</ele><time>2026-04-15T12:20:27.874Z</time></trkpt><trkpt lat="42.6111517" lon="-7.7273317"><ele>367.6666666666667</ele><time>2026-04-15T12:20:28.874Z</time></trkpt><trkpt lat="42.6111517" lon="-7.727575"><ele>369.33333333333337</ele><time>2026-04-15T12:20:29.873Z</time></trkpt><trkpt lat="42.61118" lon="-7.7278167"><ele>371.0</ele><time>2026-04-15T12:20:30.873Z</time></trkpt><trkpt lat="42.6112367" lon="-7.7280433"><ele>380.6666666666667</ele><time>2026-04-15T12:20:31.873Z</time></trkpt><trkpt lat="42.6113183" lon="-7.7282533"><ele>390.33333333333337</ele><time>2026-04-15T12:20:32.873Z</time></trkpt><trkpt lat="42.61143" lon="-7.728425"><ele>400.0</ele><time>2026-04-15T12:20:33.873Z</time></trkpt><trkpt lat="42.611565" lon="-7.728555"><ele>398.6666666666667</ele><time>2026-04-15T12:20:34.874Z</time></trkpt><trkpt lat="42.6117233" lon="-7.7286567"><ele>397.33333333333337</ele><time>2026-04-15T12:20:35.873Z</time></trkpt><trkpt lat="42.611905" lon="-7.728715"><ele>396.0</ele><time>2026-04-15T12:20:36.874Z</time></trkpt><trkpt lat="42.612095" lon="-7.7287383"><ele>396.0</ele><time>2026-04-15T12:20:37.873Z</time></trkpt><trkpt lat="42.612295" lon="-7.7287483"><ele>396.0</ele><time>2026-04-15T12:20:38.874Z</time></trkpt><trkpt lat="42.6124983" lon="-7.7287483"><ele>396.0</ele><time>2026-04-15T12:20:39.874Z</time></trkpt><trkpt lat="42.6126933" lon="-7.72875"><ele>400.33333333333337</ele><time>2026-04-15T12:20:40.874Z</time></trkpt><trkpt lat="42.6128817" lon="-7.7287867"><ele>404.6666666666667</ele><time>2026-04-15T12:20:41.874Z</time></trkpt><trkpt lat="42.6130533" lon="-7.7288317"><ele>409.0</ele><time>2026-04-15T12:20:42.873Z</time></trkpt><trkpt lat="42.6132183" lon="-7.7289217"><ele>409.0</ele><time>2026-04-15T12:20:43.873Z</time></trkpt><trkpt lat="42.6133617" lon="-7.7290333"><ele>409.0</ele><time>2026-04-15T12:20:44.874Z</time></trkpt><trkpt lat="42.6134783" lon="-7.72917"><ele>409.0</ele><time>2026-04-15T12:20:45.874Z</time></trkpt><trkpt lat="42.613575" lon="-7.72934"><ele>408.6666666666667</ele><time>2026-04-15T12:20:46.874Z</time></trkpt><trkpt lat="42.6136483" lon="-7.729535"><ele>408.33333333333337</ele><time>2026-04-15T12:20:47.874Z</time></trkpt><trkpt lat="42.6136867" lon="-7.72974"><ele>408.0</ele><time>2026-04-15T12:20:48.873Z</time></trkpt><trkpt lat="42.6136883" lon="-7.7299567"><ele>412.33333333333337</ele><time>2026-04-15T12:20:49.873Z</time></trkpt><trkpt lat="42.6136617" lon="-7.7301717"><ele>416.6666666666667</ele><time>2026-04-15T12:20:50.873Z</time></trkpt><trkpt lat="42.6136017" lon="-7.7303767"><ele>421.0</ele><time>2026-04-15T12:20:51.874Z</time></trkpt><trkpt lat="42.613525" lon="-7.7305833"><ele>421.0</ele><time>2026-04-15T12:20:52.873Z</time></trkpt><trkpt lat="42.61344" lon="-7.73079"><ele>421.0</ele><time>2026-04-15T12:20:53.874Z</time></trkpt><trkpt lat="42.6133933" lon="-7.7310267"><ele>421.0</ele><time>2026-04-15T12:20:54.874Z</time></trkpt><trkpt lat="42.6133717" lon="-7.73127"><ele>427.33333333333337</ele><time>2026-04-15T12:20:55.873Z</time></trkpt><trkpt lat="42.61336" lon="-7.7315117"><ele>433.66666666666663</ele><time>2026-04-15T12:20:56.874Z</time></trkpt><trkpt lat="42.6133533" lon="-7.73174"><ele>440.0</ele><time>2026-04-15T12:20:57.873Z</time></trkpt><trkpt lat="42.6133267" lon="-7.7319717"><ele>446.3333333333333</ele><time>2026-04-15T12:20:58.873Z</time></trkpt><trkpt lat="42.6132967" lon="-7.73221"><ele>452.66666666666663</ele><time>2026-04-15T12:20:59.873Z</time></trkpt><trkpt lat="42.613245" lon="-7.7324433"><ele>459.0</ele><time>2026-04-15T12:21:00.874Z</time></trkpt><trkpt lat="42.613165" lon="-7.7326567"><ele>458.0</ele><time>2026-04-15T12:21:01.874Z</time></trkpt><trkpt lat="42.6130517" lon="-7.7328483"><ele>457.0</ele><time>2026-04-15T12:21:02.873Z</time></trkpt><trkpt lat="42.612915" lon="-7.7330067"><ele>456.0</ele><time>2026-04-15T12:21:03.874Z</time></trkpt><trkpt lat="42.6127533" lon="-7.7331383"><ele>456.0</ele><time>2026-04-15T12:21:04.874Z</time></trkpt><trkpt lat="42.61259" lon="-7.733245"><ele>456.0</ele><time>2026-04-15T12:21:05.874Z</time></trkpt><trkpt lat="42.6124167" lon="-7.7333333"><ele>456.0</ele><time>2026-04-15T12:21:06.873Z</time></trkpt><trkpt lat="42.6122467" lon="-7.733405"><ele>456.0</ele><time>2026-04-15T12:21:07.873Z</time></trkpt><trkpt lat="42.6120767" lon="-7.7334733"><ele>456.0</ele><time>2026-04-15T12:21:08.873Z</time></trkpt><trkpt lat="42.6119067" lon="-7.73355"><ele>456.0</ele><time>2026-04-15T12:21:09.873Z</time></trkpt><trkpt lat="42.611735" lon="-7.733635"><ele>461.66666666666663</ele><time>2026-04-15T12:21:10.873Z</time></trkpt><trkpt lat="42.6115717" lon="-7.7337583"><ele>467.3333333333333</ele><time>2026-04-15T12:21:11.873Z</time></trkpt><trkpt lat="42.6114067" lon="-7.733885"><ele>473.0</ele><time>2026-04-15T12:21:12.873Z</time></trkpt><trkpt lat="42.6112517" lon="-7.7340367"><ele>472.66666666666663</ele><time>2026-04-15T12:21:13.873Z</time></trkpt><trkpt lat="42.6111117" lon="-7.7342133"><ele>472.33333333333337</ele><time>2026-04-15T12:21:14.874Z</time></trkpt><trkpt lat="42.6109917" lon="-7.73442"><ele>472.0</ele><time>2026-04-15T12:21:15.874Z</time></trkpt><trkpt lat="42.610885" lon="-7.7346367"><ele>472.0</ele><time>2026-04-15T12:21:16.873Z</time></trkpt><trkpt lat="42.6107717" lon="-7.7348533"><ele>472.0</ele><time>2026-04-15T12:21:17.873Z</time></trkpt><trkpt lat="42.6106533" lon="-7.7350617"><ele>472.0</ele><time>2026-04-15T12:21:18.874Z</time></trkpt><trkpt lat="42.6105217" lon="-7.7352617"><ele>471.33333333333337</ele><time>2026-04-15T12:21:19.873Z</time></trkpt><trkpt lat="42.610375" lon="-7.7354417"><ele>470.66666666666663</ele><time>2026-04-15T12:21:20.873Z</time></trkpt><trkpt lat="42.61021" lon="-7.7356017"><ele>470.0</ele><time>2026-04-15T12:21:21.874Z</time></trkpt><trkpt lat="42.6100367" lon="-7.735745"><ele>470.0</ele><time>2026-04-15T12:21:22.874Z</time></trkpt><trkpt lat="42.6098867" lon="-7.7358983"><ele>470.0</ele><time>2026-04-15T12:21:23.873Z</time></trkpt><trkpt lat="42.6097683" lon="-7.7360783"><ele>470.0</ele><time>2026-04-15T12:21:24.874Z</time></trkpt><trkpt lat="42.6096817" lon="-7.7362767"><ele>475.3333333333333</ele><time>2026-04-15T12:21:25.873Z</time></trkpt><trkpt lat="42.6096283" lon="-7.7364983"><ele>480.66666666666663</ele><time>2026-04-15T12:21:26.874Z</time></trkpt><trkpt lat="42.609605" lon="-7.7367367"><ele>486.0</ele><time>2026-04-15T12:21:27.873Z</time></trkpt><trkpt lat="42.6096133" lon="-7.7369783"><ele>487.0</ele><time>2026-04-15T12:21:28.873Z</time></trkpt><trkpt lat="42.6096333" lon="-7.7372283"><ele>488.0</ele><time>2026-04-15T12:21:29.873Z</time></trkpt><trkpt lat="42.609655" lon="-7.7374883"><ele>489.0</ele><time>2026-04-15T12:21:30.874Z</time></trkpt><trkpt lat="42.6096833" lon="-7.7377617"><ele>489.0</ele><time>2026-04-15T12:21:31.874Z</time></trkpt><trkpt lat="42.609705" lon="-7.73805"><ele>489.0</ele><time>2026-04-15T12:21:32.873Z</time></trkpt><trkpt lat="42.60971" lon="-7.7383317"><ele>489.0</ele><time>2026-04-15T12:21:33.873Z</time></trkpt><trkpt lat="42.6096967" lon="-7.7386217"><ele>489.0</ele><time>2026-04-15T12:21:34.874Z</time></trkpt><trkpt lat="42.6096483" lon="-7.7388933"><ele>489.0</ele><time>2026-04-15T12:21:35.874Z</time></trkpt><trkpt lat="42.6095833" lon="-7.739175"><ele>489.0</ele><time>2026-04-15T12:21:36.873Z</time></trkpt><trkpt lat="42.60953" lon="-7.73945"><ele>487.33333333333337</ele><time>2026-04-15T12:21:37.873Z</time></trkpt><trkpt lat="42.609505" lon="-7.7397117"><ele>485.6666666666667</ele><time>2026-04-15T12:21:38.873Z</time></trkpt><trkpt lat="42.6094817" lon="-7.7399483"><ele>484.0</ele><time>2026-04-15T12:21:39.873Z</time></trkpt><trkpt lat="42.6094933" lon="-7.7401867"><ele>481.0</ele><time>2026-04-15T12:21:40.873Z</time></trkpt><trkpt lat="42.6095317" lon="-7.7404233"><ele>478.0</ele><time>2026-04-15T12:21:41.874Z</time></trkpt><trkpt lat="42.6096183" lon="-7.740645"><ele>475.0</ele><time>2026-04-15T12:21:42.874Z</time></trkpt><trkpt lat="42.6097183" lon="-7.7408517"><ele>473.33333333333337</ele><time>2026-04-15T12:21:43.874Z</time></trkpt><trkpt lat="42.60984" lon="-7.7410667"><ele>471.66666666666663</ele><time>2026-04-15T12:21:44.874Z</time></trkpt><trkpt lat="42.6099767" lon="-7.7412883"><ele>470.0</ele><time>2026-04-15T12:21:45.873Z</time></trkpt><trkpt lat="42.6101067" lon="-7.74151"><ele>470.0</ele><time>2026-04-15T12:21:46.873Z</time></trkpt><trkpt lat="42.6102367" lon="-7.7417233"><ele>470.0</ele><time>2026-04-15T12:21:47.873Z</time></trkpt><trkpt lat="42.61036" lon="-7.74194"><ele>470.0</ele><time>2026-04-15T12:21:48.873Z</time></trkpt><trkpt lat="42.61049" lon="-7.7421517"><ele>469.66666666666663</ele><time>2026-04-15T12:21:49.874Z</time></trkpt><trkpt lat="42.610615" lon="-7.7423633"><ele>469.33333333333337</ele><time>2026-04-15T12:21:50.874Z</time></trkpt><trkpt lat="42.6107483" lon="-7.742575"><ele>469.0</ele><time>2026-04-15T12:21:51.874Z</time></trkpt><trkpt lat="42.6108733" lon="-7.7427917"><ele>469.0</ele><time>2026-04-15T12:21:52.874Z</time></trkpt><trkpt lat="42.6109983" lon="-7.74301"><ele>469.0</ele><time>2026-04-15T12:21:53.873Z</time></trkpt><trkpt lat="42.6111233" lon="-7.7432283"><ele>469.0</ele><time>2026-04-15T12:21:54.873Z</time></trkpt><trkpt lat="42.6112467" lon="-7.743435"><ele>471.0</ele><time>2026-04-15T12:21:55.874Z</time></trkpt><trkpt lat="42.6113733" lon="-7.7436517"><ele>473.0</ele><time>2026-04-15T12:21:56.873Z</time></trkpt><trkpt lat="42.61149" lon="-7.743875"><ele>475.0</ele><time>2026-04-15T12:21:57.874Z</time></trkpt><trkpt lat="42.6115833" lon="-7.7441083"><ele>475.0</ele><time>2026-04-15T12:21:58.873Z</time></trkpt><trkpt lat="42.6116567" lon="-7.7443483"><ele>475.0</ele><time>2026-04-15T12:21:59.874Z</time></trkpt><trkpt lat="42.6117133" lon="-7.7445967"><ele>475.0</ele><time>2026-04-15T12:22:00.874Z</time></trkpt><trkpt lat="42.6117333" lon="-7.744845"><ele>475.33333333333337</ele><time>2026-04-15T12:22:01.874Z</time></trkpt><trkpt lat="42.611735" lon="-7.745085"><ele>475.66666666666663</ele><time>2026-04-15T12:22:02.874Z</time></trkpt><trkpt lat="42.6117283" lon="-7.7453367"><ele>476.0</ele><time>2026-04-15T12:22:03.874Z</time></trkpt><trkpt lat="42.6117217" lon="-7.7455917"><ele>477.0</ele><time>2026-04-15T12:22:04.873Z</time></trkpt><trkpt lat="42.6117133" lon="-7.7458383"><ele>478.0</ele><time>2026-04-15T12:22:05.873Z</time></trkpt><trkpt lat="42.6117" lon="-7.7460883"><ele>479.0</ele><time>2026-04-15T12:22:06.873Z</time></trkpt><trkpt lat="42.61169" lon="-7.7463417"><ele>479.0</ele><time>2026-04-15T12:22:07.874Z</time></trkpt><trkpt lat="42.6116833" lon="-7.746605"><ele>479.0</ele><time>2026-04-15T12:22:08.874Z</time></trkpt><trkpt lat="42.611665" lon="-7.74686"><ele>479.0</ele><time>2026-04-15T12:22:09.873Z</time></trkpt><trkpt lat="42.6116367" lon="-7.747125"><ele>478.66666666666663</ele><time>2026-04-15T12:22:10.873Z</time></trkpt><trkpt lat="42.6115917" lon="-7.7473767"><ele>478.33333333333337</ele><time>2026-04-15T12:22:11.873Z</time></trkpt><trkpt lat="42.61154" lon="-7.7476217"><ele>478.0</ele><time>2026-04-15T12:22:12.874Z</time></trkpt><trkpt lat="42.61148" lon="-7.7478633"><ele>479.33333333333337</ele><time>2026-04-15T12:22:13.873Z</time></trkpt><trkpt lat="42.6114217" lon="-7.7481067"><ele>480.66666666666663</ele><time>2026-04-15T12:22:14.874Z</time></trkpt><trkpt lat="42.6113617" lon="-7.74835"><ele>482.0</ele><time>2026-04-15T12:22:15.874Z</time></trkpt><trkpt lat="42.6113083" lon="-7.748595"><ele>480.0</ele><time>2026-04-15T12:22:16.874Z</time></trkpt><trkpt lat="42.6112517" lon="-7.7488367"><ele>478.0</ele><time>2026-04-15T12:22:17.874Z</time></trkpt><trkpt lat="42.6111933" lon="-7.7490633"><ele>476.0</ele><time>2026-04-15T12:22:18.874Z</time></trkpt><trkpt lat="42.6111383" lon="-7.7492917"><ele>477.0</ele><time>2026-04-15T12:22:19.874Z</time></trkpt><trkpt lat="42.6110883" lon="-7.74953"><ele>478.0</ele><time>2026-04-15T12:22:20.873Z</time></trkpt><trkpt lat="42.6110367" lon="-7.7497683"><ele>479.0</ele><time>2026-04-15T12:22:21.874Z</time></trkpt><trkpt lat="42.61098" lon="-7.7500233"><ele>479.3333333333333</ele><time>2026-04-15T12:22:22.874Z</time></trkpt><trkpt lat="42.6109217" lon="-7.7502583"><ele>479.66666666666663</ele><time>2026-04-15T12:22:23.874Z</time></trkpt><trkpt lat="42.61087" lon="-7.7505017"><ele>480.0</ele><time>2026-04-15T12:22:24.874Z</time></trkpt><trkpt lat="42.61082" lon="-7.7507467"><ele>480.0</ele><time>2026-04-15T12:22:25.873Z</time></trkpt><trkpt lat="42.61076" lon="-7.75099"><ele>480.0</ele><time>2026-04-15T12:22:26.873Z</time></trkpt><trkpt lat="42.6106967" lon="-7.7512333"><ele>480.0</ele><time>2026-04-15T12:22:27.873Z</time></trkpt><trkpt lat="42.61064" lon="-7.75148"><ele>480.66666666666663</ele><time>2026-04-15T12:22:28.873Z</time></trkpt><trkpt lat="42.6105717" lon="-7.7517217"><ele>481.3333333333333</ele><time>2026-04-15T12:22:29.873Z</time></trkpt><trkpt lat="42.6104833" lon="-7.751955"><ele>482.0</ele><time>2026-04-15T12:22:30.873Z</time></trkpt><trkpt lat="42.61037" lon="-7.75217"><ele>481.3333333333333</ele><time>2026-04-15T12:22:31.874Z</time></trkpt><trkpt lat="42.610235" lon="-7.7523483"><ele>480.66666666666663</ele><time>2026-04-15T12:22:32.873Z</time></trkpt><trkpt lat="42.6100883" lon="-7.7525133"><ele>480.0</ele><time>2026-04-15T12:22:33.874Z</time></trkpt><trkpt lat="42.6099417" lon="-7.75265"><ele>480.66666666666663</ele><time>2026-04-15T12:22:34.873Z</time></trkpt><trkpt lat="42.6097867" lon="-7.7527717"><ele>481.3333333333333</ele><time>2026-04-15T12:22:35.873Z</time></trkpt><trkpt lat="42.6096233" lon="-7.7528883"><ele>482.0</ele><time>2026-04-15T12:22:36.874Z</time></trkpt><trkpt lat="42.6094733" lon="-7.7529983"><ele>482.0</ele><time>2026-04-15T12:22:37.873Z</time></trkpt><trkpt lat="42.6093283" lon="-7.7531083"><ele>482.0</ele><time>2026-04-15T12:22:38.873Z</time></trkpt><trkpt lat="42.609195" lon="-7.7532033"><ele>482.0</ele><time>2026-04-15T12:22:39.874Z</time></trkpt><trkpt lat="42.60908" lon="-7.753295"><ele>482.0</ele><time>2026-04-15T12:22:40.874Z</time></trkpt><trkpt lat="42.60897" lon="-7.75338"><ele>482.0</ele><time>2026-04-15T12:22:41.873Z</time></trkpt><trkpt lat="42.6088433" lon="-7.7534667"><ele>482.0</ele><time>2026-04-15T12:22:42.874Z</time></trkpt><trkpt lat="42.6087183" lon="-7.7535567"><ele>482.0</ele><time>2026-04-15T12:22:43.874Z</time></trkpt><trkpt lat="42.608595" lon="-7.7536683"><ele>482.25</ele><time>2026-04-15T12:22:44.874Z</time></trkpt><trkpt lat="42.60848" lon="-7.7537817"><ele>482.5</ele><time>2026-04-15T12:22:45.875Z</time></trkpt><trkpt lat="42.6083683" lon="-7.7539083"><ele>482.75</ele><time>2026-04-15T12:22:46.874Z</time></trkpt><trkpt lat="42.6082583" lon="-7.75405"><ele>483.0</ele><time>2026-04-15T12:22:47.874Z</time></trkpt><trkpt lat="42.6081567" lon="-7.754205"><ele>483.0</ele><time>2026-04-15T12:22:48.874Z</time></trkpt><trkpt lat="42.6080667" lon="-7.7543683"><ele>483.0</ele><time>2026-04-15T12:22:49.874Z</time></trkpt><trkpt lat="42.607995" lon="-7.7545483"><ele>483.0</ele><time>2026-04-15T12:22:50.874Z</time></trkpt><trkpt lat="42.6079467" lon="-7.7547467"><ele>484.33333333333337</ele><time>2026-04-15T12:22:51.874Z</time></trkpt><trkpt lat="42.6079217" lon="-7.7549683"><ele>485.6666666666667</ele><time>2026-04-15T12:22:52.875Z</time></trkpt><trkpt lat="42.6079167" lon="-7.7551933"><ele>487.0</ele><time>2026-04-15T12:22:53.874Z</time></trkpt><trkpt lat="42.6079283" lon="-7.7554217"><ele>487.33333333333337</ele><time>2026-04-15T12:22:54.874Z</time></trkpt><trkpt lat="42.6079383" lon="-7.7556433"><ele>487.66666666666663</ele><time>2026-04-15T12:22:55.874Z</time></trkpt><trkpt lat="42.6079533" lon="-7.75588"><ele>488.0</ele><time>2026-04-15T12:22:56.874Z</time></trkpt><trkpt lat="42.6079683" lon="-7.7561017"><ele>488.0</ele><time>2026-04-15T12:22:57.874Z</time></trkpt><trkpt lat="42.6079783" lon="-7.7563167"><ele>488.0</ele><time>2026-04-15T12:22:58.875Z</time></trkpt><trkpt lat="42.6079817" lon="-7.7565333"><ele>488.0</ele><time>2026-04-15T12:22:59.874Z</time></trkpt><trkpt lat="42.6079867" lon="-7.7567517"><ele>486.3333333333333</ele><time>2026-04-15T12:23:00.875Z</time></trkpt><trkpt lat="42.6079867" lon="-7.756965"><ele>484.66666666666663</ele><time>2026-04-15T12:23:01.875Z</time></trkpt><trkpt lat="42.6079933" lon="-7.7571833"><ele>483.0</ele><time>2026-04-15T12:23:02.874Z</time></trkpt><trkpt lat="42.607995" lon="-7.7573933"><ele>483.0</ele><time>2026-04-15T12:23:03.875Z</time></trkpt><trkpt lat="42.6079883" lon="-7.7575883"><ele>483.0</ele><time>2026-04-15T12:23:04.875Z</time></trkpt><trkpt lat="42.608" lon="-7.7577983"><ele>483.0</ele><time>2026-04-15T12:23:05.874Z</time></trkpt><trkpt lat="42.6080117" lon="-7.7580117"><ele>483.0</ele><time>2026-04-15T12:23:06.874Z</time></trkpt><trkpt lat="42.6080217" lon="-7.75823"><ele>483.0</ele><time>2026-04-15T12:23:07.874Z</time></trkpt><trkpt lat="42.608035" lon="-7.7584333"><ele>483.0</ele><time>2026-04-15T12:23:08.874Z</time></trkpt><trkpt lat="42.60804" lon="-7.7586367"><ele>483.33333333333337</ele><time>2026-04-15T12:23:09.875Z</time></trkpt><trkpt lat="42.6080467" lon="-7.75884"><ele>483.6666666666667</ele><time>2026-04-15T12:23:10.875Z</time></trkpt><trkpt lat="42.60806" lon="-7.75905"><ele>484.0</ele><time>2026-04-15T12:23:11.875Z</time></trkpt><trkpt lat="42.60807" lon="-7.7592583"><ele>484.0</ele><time>2026-04-15T12:23:12.874Z</time></trkpt><trkpt lat="42.6080817" lon="-7.75947"><ele>484.0</ele><time>2026-04-15T12:23:13.875Z</time></trkpt><trkpt lat="42.6081" lon="-7.759685"><ele>484.0</ele><time>2026-04-15T12:23:14.875Z</time></trkpt><trkpt lat="42.6081" lon="-7.7599033"><ele>484.0</ele><time>2026-04-15T12:23:15.874Z</time></trkpt><trkpt lat="42.6081083" lon="-7.76012"><ele>484.0</ele><time>2026-04-15T12:23:16.875Z</time></trkpt><trkpt lat="42.60811" lon="-7.7603383"><ele>484.0</ele><time>2026-04-15T12:23:17.875Z</time></trkpt><trkpt lat="42.6081117" lon="-7.7605533"><ele>485.0</ele><time>2026-04-15T12:23:18.874Z</time></trkpt><trkpt lat="42.60812" lon="-7.7607683"><ele>486.0</ele><time>2026-04-15T12:23:19.875Z</time></trkpt><trkpt lat="42.6081333" lon="-7.7609783"><ele>487.0</ele><time>2026-04-15T12:23:20.875Z</time></trkpt><trkpt lat="42.608145" lon="-7.7611833"><ele>487.25</ele><time>2026-04-15T12:23:21.874Z</time></trkpt><trkpt lat="42.60815" lon="-7.761385"><ele>487.5</ele><time>2026-04-15T12:23:22.874Z</time></trkpt><trkpt lat="42.6081717" lon="-7.7615883"><ele>487.75</ele><time>2026-04-15T12:23:23.875Z</time></trkpt><trkpt lat="42.6082017" lon="-7.761785"><ele>488.0</ele><time>2026-04-15T12:23:24.874Z</time></trkpt><trkpt lat="42.6082333" lon="-7.761985"><ele>488.0</ele><time>2026-04-15T12:23:25.875Z</time></trkpt><trkpt lat="42.6082667" lon="-7.7621717"><ele>488.0</ele><time>2026-04-15T12:23:26.875Z</time></trkpt><trkpt lat="42.6083" lon="-7.7623683"><ele>488.0</ele><time>2026-04-15T12:23:27.875Z</time></trkpt><trkpt lat="42.6083367" lon="-7.7625783"><ele>488.0</ele><time>2026-04-15T12:23:28.874Z</time></trkpt><trkpt lat="42.6083667" lon="-7.76279"><ele>488.3333333333333</ele><time>2026-04-15T12:23:29.874Z</time></trkpt><trkpt lat="42.6083967" lon="-7.7630117"><ele>488.66666666666663</ele><time>2026-04-15T12:23:30.875Z</time></trkpt><trkpt lat="42.6084183" lon="-7.7632117"><ele>489.0</ele><time>2026-04-15T12:23:31.874Z</time></trkpt><trkpt lat="42.60845" lon="-7.7634133"><ele>489.5</ele><time>2026-04-15T12:23:32.874Z</time></trkpt><trkpt lat="42.6084667" lon="-7.7636017"><ele>490.0</ele><time>2026-04-15T12:23:33.874Z</time></trkpt><trkpt lat="42.6084833" lon="-7.7637733"><ele>490.5</ele><time>2026-04-15T12:23:34.875Z</time></trkpt><trkpt lat="42.6085" lon="-7.7639283"><ele>491.0</ele><time>2026-04-15T12:23:35.874Z</time></trkpt><trkpt lat="42.6085033" lon="-7.764065"><ele>491.0</ele><time>2026-04-15T12:23:36.875Z</time></trkpt><trkpt lat="42.6085167" lon="-7.7641833"><ele>491.0</ele><time>2026-04-15T12:23:37.874Z</time></trkpt><trkpt lat="42.6085267" lon="-7.764275"><ele>491.0</ele><time>2026-04-15T12:23:38.874Z</time></trkpt><trkpt lat="42.608555" lon="-7.7643967"><ele>491.0</ele><time>2026-04-15T12:23:40.875Z</time></trkpt><trkpt lat="42.608605" lon="-7.7645067"><ele>491.0</ele><time>2026-04-15T12:24:18.874Z</time></trkpt><trkpt lat="42.608695" lon="-7.7646217"><ele>491.5</ele><time>2026-04-15T12:24:20.875Z</time></trkpt><trkpt lat="42.6087933" lon="-7.7646717"><ele>492.0</ele><time>2026-04-15T12:24:21.875Z</time></trkpt><trkpt lat="42.6089133" lon="-7.7647"><ele>492.5</ele><time>2026-04-15T12:24:22.875Z</time></trkpt><trkpt lat="42.6090683" lon="-7.764685"><ele>493.0</ele><time>2026-04-15T12:24:23.874Z</time></trkpt><trkpt lat="42.6093083" lon="-7.7645967"><ele>493.0</ele><time>2026-04-15T12:24:24.874Z</time></trkpt><trkpt lat="42.60949" lon="-7.7646233"><ele>493.0</ele><time>2026-04-15T12:24:25.874Z</time></trkpt><trkpt lat="42.6096717" lon="-7.764645"><ele>493.0</ele><time>2026-04-15T12:24:26.874Z</time></trkpt><trkpt lat="42.6098383" lon="-7.764695"><ele>495.6666666666667</ele><time>2026-04-15T12:24:27.874Z</time></trkpt><trkpt lat="42.6099933" lon="-7.7647533"><ele>498.33333333333337</ele><time>2026-04-15T12:24:28.874Z</time></trkpt><trkpt lat="42.610155" lon="-7.7648217"><ele>501.0</ele><time>2026-04-15T12:24:29.874Z</time></trkpt><trkpt lat="42.61031" lon="-7.7648983"><ele>503.33333333333337</ele><time>2026-04-15T12:24:30.874Z</time></trkpt><trkpt lat="42.610465" lon="-7.7649917"><ele>505.6666666666667</ele><time>2026-04-15T12:24:31.874Z</time></trkpt><trkpt lat="42.610615" lon="-7.7650733"><ele>508.0</ele><time>2026-04-15T12:24:32.875Z</time></trkpt><trkpt lat="42.6107533" lon="-7.7651567"><ele>508.2</ele><time>2026-04-15T12:24:33.875Z</time></trkpt><trkpt lat="42.6108667" lon="-7.7652233"><ele>508.4</ele><time>2026-04-15T12:24:34.874Z</time></trkpt><trkpt lat="42.6109667" lon="-7.7652817"><ele>508.59999999999997</ele><time>2026-04-15T12:24:35.874Z</time></trkpt><trkpt lat="42.611055" lon="-7.7653167"><ele>508.79999999999995</ele><time>2026-04-15T12:24:36.875Z</time></trkpt><trkpt lat="42.6111433" lon="-7.765325"><ele>509.0</ele><time>2026-04-15T12:24:37.874Z</time></trkpt><trkpt lat="42.6112417" lon="-7.7653033"><ele>511.75</ele><time>2026-04-15T12:24:38.874Z</time></trkpt><trkpt lat="42.6113467" lon="-7.7652633"><ele>514.5</ele><time>2026-04-15T12:24:39.874Z</time></trkpt><trkpt lat="42.611465" lon="-7.76523"><ele>517.25</ele><time>2026-04-15T12:24:40.875Z</time></trkpt><trkpt lat="42.611585" lon="-7.7652317"><ele>520.0</ele><time>2026-04-15T12:24:41.874Z</time></trkpt><trkpt lat="42.6117067" lon="-7.7652567"><ele>520.0</ele><time>2026-04-15T12:24:42.875Z</time></trkpt><trkpt lat="42.61184" lon="-7.7653217"><ele>520.0</ele><time>2026-04-15T12:24:43.874Z</time></trkpt><trkpt lat="42.61197" lon="-7.7653967"><ele>520.0</ele><time>2026-04-15T12:24:44.874Z</time></trkpt><trkpt lat="42.6120933" lon="-7.7654683"><ele>520.0</ele><time>2026-04-15T12:24:45.875Z</time></trkpt><trkpt lat="42.61221" lon="-7.765545"><ele>520.6666666666667</ele><time>2026-04-15T12:24:46.873Z</time></trkpt><trkpt lat="42.6123083" lon="-7.7656117"><ele>521.3333333333334</ele><time>2026-04-15T12:24:47.874Z</time></trkpt><trkpt lat="42.6123867" lon="-7.76568"><ele>522.0</ele><time>2026-04-15T12:24:48.874Z</time></trkpt><trkpt lat="42.61245" lon="-7.7657567"><ele>522.6666666666666</ele><time>2026-04-15T12:24:49.875Z</time></trkpt><trkpt lat="42.6125083" lon="-7.7658317"><ele>523.3333333333333</ele><time>2026-04-15T12:24:50.874Z</time></trkpt><trkpt lat="42.6125633" lon="-7.7658983"><ele>524.0</ele><time>2026-04-15T12:24:51.875Z</time></trkpt><trkpt lat="42.6126517" lon="-7.7659533"><ele>524.0</ele><time>2026-04-15T12:24:53.874Z</time></trkpt><trkpt lat="42.6127117" lon="-7.7659933"><ele>524.0</ele><time>2026-04-15T12:24:56.875Z</time></trkpt><trkpt lat="42.6126233" lon="-7.7660967"><ele>524.0</ele><time>2026-04-15T12:30:16.874Z</time></trkpt><trkpt lat="42.6125633" lon="-7.7660617"><ele>524.0</ele><time>2026-04-15T12:31:22.874Z</time></trkpt><trkpt lat="42.6125783" lon="-7.7659317"><ele>524.0</ele><time>2026-04-15T12:36:12.875Z</time></trkpt><trkpt lat="42.6126367" lon="-7.7658167"><ele>524.0</ele><time>2026-04-15T12:38:29.875Z</time></trkpt><trkpt lat="42.612575" lon="-7.7658583"><ele>524.0</ele><time>2026-04-15T12:45:03.876Z</time></trkpt><trkpt lat="42.612515" lon="-7.765895"><ele>524.0</ele><time>2026-04-15T12:45:05.875Z</time></trkpt><trkpt lat="42.6124533" lon="-7.7659317"><ele>524.0</ele><time>2026-04-15T12:45:09.876Z</time></trkpt><trkpt lat="42.61244" lon="-7.7660667"><ele>524.0</ele><time>2026-04-15T12:45:39.875Z</time></trkpt><trkpt lat="42.6125267" lon="-7.7661117"><ele>524.0</ele><time>2026-04-15T12:46:15.875Z</time></trkpt><trkpt lat="42.6125933" lon="-7.766015"><ele>524.0</ele><time>2026-04-15T12:48:01.876Z</time></trkpt><trkpt lat="42.612595" lon="-7.7659183"><ele>524.0</ele><time>2026-04-15T12:50:42.876Z</time></trkpt><trkpt lat="42.6126767" lon="-7.765945"><ele>524.0</ele><time>2026-04-15T12:50:45.877Z</time></trkpt><trkpt lat="42.6127767" lon="-7.76596"><ele>524.0</ele><time>2026-04-15T12:50:48.877Z</time></trkpt><trkpt lat="42.612865" lon="-7.7659717"><ele>524.0</ele><time>2026-04-15T12:50:50.876Z</time></trkpt><trkpt lat="42.612945" lon="-7.7660017"><ele>524.0</ele><time>2026-04-15T12:50:52.876Z</time></trkpt><trkpt lat="42.6130183" lon="-7.7660217"><ele>524.0</ele><time>2026-04-15T12:50:55.876Z</time></trkpt><trkpt lat="42.6130833" lon="-7.766065"><ele>525.1666666666666</ele><time>2026-04-15T12:50:57.876Z</time></trkpt><trkpt lat="42.613195" lon="-7.7661317"><ele>526.3333333333333</ele><time>2026-04-15T12:50:59.876Z</time></trkpt><trkpt lat="42.6132583" lon="-7.7661667"><ele>527.5</ele><time>2026-04-15T12:51:00.876Z</time></trkpt><trkpt lat="42.6133133" lon="-7.766215"><ele>528.6666666666666</ele><time>2026-04-15T12:51:01.877Z</time></trkpt><trkpt lat="42.6133733" lon="-7.7662633"><ele>529.8333333333334</ele><time>2026-04-15T12:51:02.877Z</time></trkpt><trkpt lat="42.613445" lon="-7.766305"><ele>531.0</ele><time>2026-04-15T12:51:03.877Z</time></trkpt><trkpt lat="42.6135217" lon="-7.766345"><ele>531.0</ele><time>2026-04-15T12:51:04.876Z</time></trkpt><trkpt lat="42.6135983" lon="-7.7663883"><ele>531.0</ele><time>2026-04-15T12:51:05.877Z</time></trkpt><trkpt lat="42.6136783" lon="-7.7664317"><ele>531.0</ele><time>2026-04-15T12:51:06.876Z</time></trkpt><trkpt lat="42.6137583" lon="-7.7664783"><ele>531.0</ele><time>2026-04-15T12:51:07.876Z</time></trkpt><trkpt lat="42.61383" lon="-7.7665233"><ele>531.0</ele><time>2026-04-15T12:51:08.876Z</time></trkpt><trkpt lat="42.6139" lon="-7.7665667"><ele>531.0</ele><time>2026-04-15T12:51:09.877Z</time></trkpt><trkpt lat="42.6139633" lon="-7.7665967"><ele>531.2</ele><time>2026-04-15T12:51:10.876Z</time></trkpt><trkpt lat="42.6140567" lon="-7.7666367"><ele>531.4000000000001</ele><time>2026-04-15T12:51:12.876Z</time></trkpt><trkpt lat="42.6140833" lon="-7.7667267"><ele>531.6</ele><time>2026-04-15T12:52:03.877Z</time></trkpt><trkpt lat="42.6141433" lon="-7.7667683"><ele>531.8000000000001</ele><time>2026-04-15T12:52:04.876Z</time></trkpt><trkpt lat="42.6142383" lon="-7.7668133"><ele>532.0</ele><time>2026-04-15T12:52:05.876Z</time></trkpt><trkpt lat="42.6143667" lon="-7.7668817"><ele>533.6666666666667</ele><time>2026-04-15T12:52:06.877Z</time></trkpt><trkpt lat="42.6145033" lon="-7.7669633"><ele>535.3333333333334</ele><time>2026-04-15T12:52:07.876Z</time></trkpt><trkpt lat="42.6146433" lon="-7.7670517"><ele>537.0</ele><time>2026-04-15T12:52:08.877Z</time></trkpt><trkpt lat="42.6147833" lon="-7.7671517"><ele>537.0</ele><time>2026-04-15T12:52:09.876Z</time></trkpt><trkpt lat="42.6149283" lon="-7.76726"><ele>537.0</ele><time>2026-04-15T12:52:10.876Z</time></trkpt><trkpt lat="42.6150833" lon="-7.7673867"><ele>537.0</ele><time>2026-04-15T12:52:11.876Z</time></trkpt><trkpt lat="42.6152483" lon="-7.7675217"><ele>538.0</ele><time>2026-04-15T12:52:12.877Z</time></trkpt><trkpt lat="42.6154217" lon="-7.7676617"><ele>539.0</ele><time>2026-04-15T12:52:13.877Z</time></trkpt><trkpt lat="42.6156133" lon="-7.767795"><ele>540.0</ele><time>2026-04-15T12:52:14.876Z</time></trkpt><trkpt lat="42.6158017" lon="-7.7679267"><ele>540.0</ele><time>2026-04-15T12:52:15.876Z</time></trkpt><trkpt lat="42.616" lon="-7.76805"><ele>540.0</ele><time>2026-04-15T12:52:16.877Z</time></trkpt><trkpt lat="42.6161967" lon="-7.7681933"><ele>540.0</ele><time>2026-04-15T12:52:17.877Z</time></trkpt><trkpt lat="42.6163967" lon="-7.76834"><ele>542.6666666666666</ele><time>2026-04-15T12:52:18.877Z</time></trkpt><trkpt lat="42.6165817" lon="-7.7685033"><ele>545.3333333333333</ele><time>2026-04-15T12:52:19.876Z</time></trkpt><trkpt lat="42.61676" lon="-7.7686517"><ele>548.0</ele><time>2026-04-15T12:52:20.876Z</time></trkpt><trkpt lat="42.6169433" lon="-7.768785"><ele>549.6666666666666</ele><time>2026-04-15T12:52:21.877Z</time></trkpt><trkpt lat="42.6170967" lon="-7.7689083"><ele>551.3333333333334</ele><time>2026-04-15T12:52:22.876Z</time></trkpt><trkpt lat="42.6172433" lon="-7.76902"><ele>553.0</ele><time>2026-04-15T12:52:23.876Z</time></trkpt><trkpt lat="42.61738" lon="-7.7691367"><ele>553.0</ele><time>2026-04-15T12:52:24.876Z</time></trkpt><trkpt lat="42.6175267" lon="-7.769255"><ele>553.0</ele><time>2026-04-15T12:52:25.877Z</time></trkpt><trkpt lat="42.6176817" lon="-7.769375"><ele>553.0</ele><time>2026-04-15T12:52:26.877Z</time></trkpt><trkpt lat="42.6178467" lon="-7.76946"><ele>554.0</ele><time>2026-04-15T12:52:27.876Z</time></trkpt><trkpt lat="42.6180083" lon="-7.7695"><ele>555.0</ele><time>2026-04-15T12:52:28.876Z</time></trkpt><trkpt lat="42.6181617" lon="-7.7694767"><ele>556.0</ele><time>2026-04-15T12:52:29.876Z</time></trkpt><trkpt lat="42.618305" lon="-7.7693933"><ele>557.0</ele><time>2026-04-15T12:52:30.876Z</time></trkpt><trkpt lat="42.6184467" lon="-7.7692583"><ele>558.0</ele><time>2026-04-15T12:52:31.876Z</time></trkpt><trkpt lat="42.6185817" lon="-7.7690967"><ele>559.0</ele><time>2026-04-15T12:52:32.876Z</time></trkpt><trkpt lat="42.6187317" lon="-7.768935"><ele>560.0</ele><time>2026-04-15T12:52:33.876Z</time></trkpt><trkpt lat="42.6188967" lon="-7.7687983"><ele>561.0</ele><time>2026-04-15T12:52:34.876Z</time></trkpt><trkpt lat="42.6190733" lon="-7.7687067"><ele>562.0</ele><time>2026-04-15T12:52:35.876Z</time></trkpt><trkpt lat="42.61927" lon="-7.7686533"><ele>562.0</ele><time>2026-04-15T12:52:36.876Z</time></trkpt><trkpt lat="42.6194717" lon="-7.7686433"><ele>562.0</ele><time>2026-04-15T12:52:37.876Z</time></trkpt><trkpt lat="42.6196867" lon="-7.7686633"><ele>562.0</ele><time>2026-04-15T12:52:38.876Z</time></trkpt><trkpt lat="42.6199017" lon="-7.768685"><ele>562.3333333333334</ele><time>2026-04-15T12:52:39.877Z</time></trkpt><trkpt lat="42.6201233" lon="-7.76871"><ele>562.6666666666666</ele><time>2026-04-15T12:52:40.876Z</time></trkpt><trkpt lat="42.6203467" lon="-7.7687367"><ele>563.0</ele><time>2026-04-15T12:52:41.876Z</time></trkpt><trkpt lat="42.620565" lon="-7.768755"><ele>565.0</ele><time>2026-04-15T12:52:42.877Z</time></trkpt><trkpt lat="42.6207717" lon="-7.7687767"><ele>567.0</ele><time>2026-04-15T12:52:43.876Z</time></trkpt><trkpt lat="42.620955" lon="-7.768795"><ele>569.0</ele><time>2026-04-15T12:52:44.876Z</time></trkpt><trkpt lat="42.62112" lon="-7.7687967"><ele>570.5</ele><time>2026-04-15T12:52:45.876Z</time></trkpt><trkpt lat="42.6212767" lon="-7.7687867"><ele>572.0</ele><time>2026-04-15T12:52:46.877Z</time></trkpt><trkpt lat="42.6214117" lon="-7.76877"><ele>573.5</ele><time>2026-04-15T12:52:47.877Z</time></trkpt><trkpt lat="42.6215167" lon="-7.768775"><ele>575.0</ele><time>2026-04-15T12:52:48.876Z</time></trkpt><trkpt lat="42.621625" lon="-7.768805"><ele>575.0</ele><time>2026-04-15T12:52:49.876Z</time></trkpt><trkpt lat="42.621715" lon="-7.7688667"><ele>575.0</ele><time>2026-04-15T12:52:50.877Z</time></trkpt><trkpt lat="42.621795" lon="-7.768955"><ele>575.0</ele><time>2026-04-15T12:52:51.877Z</time></trkpt><trkpt lat="42.6218633" lon="-7.769085"><ele>575.0</ele><time>2026-04-15T12:52:52.876Z</time></trkpt><trkpt lat="42.621915" lon="-7.7692467"><ele>575.6666666666666</ele><time>2026-04-15T12:52:53.877Z</time></trkpt><trkpt lat="42.6219633" lon="-7.76945"><ele>576.3333333333334</ele><time>2026-04-15T12:52:54.877Z</time></trkpt><trkpt lat="42.6220033" lon="-7.7696633"><ele>577.0</ele><time>2026-04-15T12:52:55.877Z</time></trkpt><trkpt lat="42.6220433" lon="-7.7698883"><ele>578.6666666666667</ele><time>2026-04-15T12:52:56.876Z</time></trkpt><trkpt lat="42.6220867" lon="-7.7701"><ele>580.3333333333334</ele><time>2026-04-15T12:52:57.876Z</time></trkpt><trkpt lat="42.6221317" lon="-7.7703133"><ele>582.0</ele><time>2026-04-15T12:52:58.877Z</time></trkpt><trkpt lat="42.6221667" lon="-7.7705233"><ele>582.6666666666666</ele><time>2026-04-15T12:52:59.876Z</time></trkpt><trkpt lat="42.622205" lon="-7.770735"><ele>583.3333333333333</ele><time>2026-04-15T12:53:00.877Z</time></trkpt><trkpt lat="42.62223" lon="-7.7709433"><ele>584.0</ele><time>2026-04-15T12:53:01.877Z</time></trkpt><trkpt lat="42.6222583" lon="-7.771155"><ele>584.3333333333333</ele><time>2026-04-15T12:53:02.876Z</time></trkpt><trkpt lat="42.622275" lon="-7.7713767"><ele>584.6666666666666</ele><time>2026-04-15T12:53:03.877Z</time></trkpt><trkpt lat="42.6222967" lon="-7.7716033"><ele>585.0</ele><time>2026-04-15T12:53:04.877Z</time></trkpt><trkpt lat="42.622315" lon="-7.7718417"><ele>584.6666666666666</ele><time>2026-04-15T12:53:05.877Z</time></trkpt><trkpt lat="42.62233" lon="-7.77208"><ele>584.3333333333333</ele><time>2026-04-15T12:53:06.877Z</time></trkpt><trkpt lat="42.6223467" lon="-7.7723217"><ele>584.0</ele><time>2026-04-15T12:53:07.877Z</time></trkpt><trkpt lat="42.62235" lon="-7.7725733"><ele>584.0</ele><time>2026-04-15T12:53:08.877Z</time></trkpt><trkpt lat="42.62236" lon="-7.7728383"><ele>584.0</ele><time>2026-04-15T12:53:09.876Z</time></trkpt><trkpt lat="42.62236" lon="-7.7731"><ele>584.0</ele><time>2026-04-15T12:53:10.876Z</time></trkpt><trkpt lat="42.6223383" lon="-7.773375"><ele>582.6666666666666</ele><time>2026-04-15T12:53:11.877Z</time></trkpt><trkpt lat="42.6223317" lon="-7.7736617"><ele>581.3333333333334</ele><time>2026-04-15T12:53:12.876Z</time></trkpt><trkpt lat="42.6223183" lon="-7.773945"><ele>580.0</ele><time>2026-04-15T12:53:13.877Z</time></trkpt><trkpt lat="42.6222867" lon="-7.77422"><ele>578.6666666666667</ele><time>2026-04-15T12:53:14.877Z</time></trkpt><trkpt lat="42.6222583" lon="-7.7745033"><ele>577.3333333333334</ele><time>2026-04-15T12:53:15.876Z</time></trkpt><trkpt lat="42.6222217" lon="-7.77479"><ele>576.0</ele><time>2026-04-15T12:53:16.876Z</time></trkpt><trkpt lat="42.622185" lon="-7.7750883"><ele>574.3333333333334</ele><time>2026-04-15T12:53:17.877Z</time></trkpt><trkpt lat="42.6221267" lon="-7.775365"><ele>572.6666666666667</ele><time>2026-04-15T12:53:18.877Z</time></trkpt><trkpt lat="42.62208" lon="-7.775635"><ele>571.0</ele><time>2026-04-15T12:53:19.877Z</time></trkpt><trkpt lat="42.6220033" lon="-7.7759267"><ele>570.0</ele><time>2026-04-15T12:53:20.876Z</time></trkpt><trkpt lat="42.6219367" lon="-7.77621"><ele>569.0</ele><time>2026-04-15T12:53:21.876Z</time></trkpt><trkpt lat="42.6218583" lon="-7.7764917"><ele>568.0</ele><time>2026-04-15T12:53:22.877Z</time></trkpt><trkpt lat="42.6217783" lon="-7.7767583"><ele>568.3333333333334</ele><time>2026-04-15T12:53:23.876Z</time></trkpt><trkpt lat="42.6217017" lon="-7.7770217"><ele>568.6666666666666</ele><time>2026-04-15T12:53:24.876Z</time></trkpt><trkpt lat="42.6216217" lon="-7.7772783"><ele>569.0</ele><time>2026-04-15T12:53:25.877Z</time></trkpt><trkpt lat="42.6215267" lon="-7.777535"><ele>569.3333333333333</ele><time>2026-04-15T12:53:26.877Z</time></trkpt><trkpt lat="42.6214483" lon="-7.7777867"><ele>569.6666666666666</ele><time>2026-04-15T12:53:27.877Z</time></trkpt><trkpt lat="42.6213633" lon="-7.7780367"><ele>570.0</ele><time>2026-04-15T12:53:28.876Z</time></trkpt><trkpt lat="42.62128" lon="-7.778285"><ele>569.6666666666666</ele><time>2026-04-15T12:53:29.876Z</time></trkpt><trkpt lat="42.6212" lon="-7.7785383"><ele>569.3333333333333</ele><time>2026-04-15T12:53:30.877Z</time></trkpt><trkpt lat="42.62111" lon="-7.7787867"><ele>569.0</ele><time>2026-04-15T12:53:31.877Z</time></trkpt><trkpt lat="42.6210183" lon="-7.7790333"><ele>569.3333333333333</ele><time>2026-04-15T12:53:32.876Z</time></trkpt><trkpt lat="42.6209183" lon="-7.77928"><ele>569.6666666666666</ele><time>2026-04-15T12:53:33.877Z</time></trkpt><trkpt lat="42.6208233" lon="-7.77953"><ele>570.0</ele><time>2026-04-15T12:53:34.877Z</time></trkpt><trkpt lat="42.620725" lon="-7.7797833"><ele>570.0</ele><time>2026-04-15T12:53:35.876Z</time></trkpt><trkpt lat="42.6206267" lon="-7.7800317"><ele>570.0</ele><time>2026-04-15T12:53:36.876Z</time></trkpt><trkpt lat="42.620535" lon="-7.780285"><ele>570.0</ele><time>2026-04-15T12:53:37.877Z</time></trkpt><trkpt lat="42.6204383" lon="-7.7805333"><ele>570.0</ele><time>2026-04-15T12:53:38.876Z</time></trkpt><trkpt lat="42.6203433" lon="-7.78078"><ele>570.0</ele><time>2026-04-15T12:53:39.876Z</time></trkpt><trkpt lat="42.6202483" lon="-7.7810283"><ele>570.0</ele><time>2026-04-15T12:53:40.876Z</time></trkpt><trkpt lat="42.6201483" lon="-7.7812817"><ele>571.6666666666666</ele><time>2026-04-15T12:53:41.876Z</time></trkpt><trkpt lat="42.6200467" lon="-7.781525"><ele>573.3333333333333</ele><time>2026-04-15T12:53:42.877Z</time></trkpt><trkpt lat="42.6199467" lon="-7.7817667"><ele>575.0</ele><time>2026-04-15T12:53:43.876Z</time></trkpt><trkpt lat="42.6198467" lon="-7.782005"><ele>576.0</ele><time>2026-04-15T12:53:44.876Z</time></trkpt><trkpt lat="42.6197483" lon="-7.7822517"><ele>577.0</ele><time>2026-04-15T12:53:45.876Z</time></trkpt><trkpt lat="42.6196517" lon="-7.7824933"><ele>578.0</ele><time>2026-04-15T12:53:46.877Z</time></trkpt><trkpt lat="42.6195467" lon="-7.782735"><ele>578.6666666666666</ele><time>2026-04-15T12:53:47.877Z</time></trkpt><trkpt lat="42.6194417" lon="-7.7829717"><ele>579.3333333333334</ele><time>2026-04-15T12:53:48.876Z</time></trkpt><trkpt lat="42.6193367" lon="-7.7832067"><ele>580.0</ele><time>2026-04-15T12:53:49.876Z</time></trkpt><trkpt lat="42.619225" lon="-7.7834467"><ele>579.3333333333334</ele><time>2026-04-15T12:53:50.877Z</time></trkpt><trkpt lat="42.61912" lon="-7.7836883"><ele>578.6666666666666</ele><time>2026-04-15T12:53:51.876Z</time></trkpt><trkpt lat="42.61902" lon="-7.78393"><ele>578.0</ele><time>2026-04-15T12:53:52.876Z</time></trkpt><trkpt lat="42.618915" lon="-7.7841733"><ele>578.0</ele><time>2026-04-15T12:53:53.876Z</time></trkpt><trkpt lat="42.618805" lon="-7.7844167"><ele>578.0</ele><time>2026-04-15T12:53:54.876Z</time></trkpt><trkpt lat="42.6187033" lon="-7.7846567"><ele>578.0</ele><time>2026-04-15T12:53:55.876Z</time></trkpt><trkpt lat="42.618595" lon="-7.7848883"><ele>578.0</ele><time>2026-04-15T12:53:56.877Z</time></trkpt><trkpt lat="42.61849" lon="-7.7851217"><ele>578.0</ele><time>2026-04-15T12:53:57.876Z</time></trkpt><trkpt lat="42.6183767" lon="-7.78535"><ele>578.0</ele><time>2026-04-15T12:53:58.876Z</time></trkpt><trkpt lat="42.6182717" lon="-7.785575"><ele>578.3333333333333</ele><time>2026-04-15T12:53:59.876Z</time></trkpt><trkpt lat="42.6181633" lon="-7.785805"><ele>578.6666666666666</ele><time>2026-04-15T12:54:00.876Z</time></trkpt><trkpt lat="42.61806" lon="-7.786035"><ele>579.0</ele><time>2026-04-15T12:54:01.877Z</time></trkpt><trkpt lat="42.61795" lon="-7.7862633"><ele>579.3333333333334</ele><time>2026-04-15T12:54:02.876Z</time></trkpt><trkpt lat="42.6178333" lon="-7.7864967"><ele>579.6666666666667</ele><time>2026-04-15T12:54:03.876Z</time></trkpt><trkpt lat="42.6177217" lon="-7.7867267"><ele>580.0</ele><time>2026-04-15T12:54:04.876Z</time></trkpt><trkpt lat="42.6176067" lon="-7.7869517"><ele>578.6666666666667</ele><time>2026-04-15T12:54:05.876Z</time></trkpt><trkpt lat="42.617495" lon="-7.787185"><ele>577.3333333333334</ele><time>2026-04-15T12:54:06.876Z</time></trkpt><trkpt lat="42.617385" lon="-7.7874183"><ele>576.0</ele><time>2026-04-15T12:54:07.876Z</time></trkpt><trkpt lat="42.617265" lon="-7.78765"><ele>575.3333333333334</ele><time>2026-04-15T12:54:08.877Z</time></trkpt><trkpt lat="42.6171517" lon="-7.787885"><ele>574.6666666666667</ele><time>2026-04-15T12:54:09.876Z</time></trkpt><trkpt lat="42.617045" lon="-7.7881233"><ele>574.0</ele><time>2026-04-15T12:54:10.877Z</time></trkpt><trkpt lat="42.6169517" lon="-7.788365"><ele>572.6666666666667</ele><time>2026-04-15T12:54:11.877Z</time></trkpt><trkpt lat="42.6168633" lon="-7.7886217"><ele>571.3333333333334</ele><time>2026-04-15T12:54:12.876Z</time></trkpt><trkpt lat="42.6167867" lon="-7.7888833"><ele>570.0</ele><time>2026-04-15T12:54:13.876Z</time></trkpt><trkpt lat="42.616715" lon="-7.789145"><ele>570.3333333333334</ele><time>2026-04-15T12:54:14.876Z</time></trkpt><trkpt lat="42.6166517" lon="-7.7894217"><ele>570.6666666666667</ele><time>2026-04-15T12:54:15.876Z</time></trkpt><trkpt lat="42.6166033" lon="-7.7897067"><ele>571.0</ele><time>2026-04-15T12:54:16.876Z</time></trkpt><trkpt lat="42.61656" lon="-7.789985"><ele>571.3333333333334</ele><time>2026-04-15T12:54:17.876Z</time></trkpt><trkpt lat="42.61653" lon="-7.79027"><ele>571.6666666666666</ele><time>2026-04-15T12:54:18.876Z</time></trkpt><trkpt lat="42.6165" lon="-7.79054"><ele>572.0</ele><time>2026-04-15T12:54:19.876Z</time></trkpt><trkpt lat="42.61648" lon="-7.7908083"><ele>572.6666666666666</ele><time>2026-04-15T12:54:20.877Z</time></trkpt><trkpt lat="42.616465" lon="-7.7910717"><ele>573.3333333333334</ele><time>2026-04-15T12:54:21.877Z</time></trkpt><trkpt lat="42.6164667" lon="-7.7913267"><ele>574.0</ele><time>2026-04-15T12:54:22.876Z</time></trkpt><trkpt lat="42.6164733" lon="-7.7915867"><ele>574.3333333333334</ele><time>2026-04-15T12:54:23.877Z</time></trkpt><trkpt lat="42.6164983" lon="-7.7918617"><ele>574.6666666666666</ele><time>2026-04-15T12:54:24.876Z</time></trkpt><trkpt lat="42.6165267" lon="-7.7921333"><ele>575.0</ele><time>2026-04-15T12:54:25.876Z</time></trkpt><trkpt lat="42.6165617" lon="-7.79241"><ele>576.3333333333333</ele><time>2026-04-15T12:54:26.876Z</time></trkpt><trkpt lat="42.6166017" lon="-7.7926817"><ele>577.6666666666666</ele><time>2026-04-15T12:54:27.876Z</time></trkpt><trkpt lat="42.616655" lon="-7.7929533"><ele>579.0</ele><time>2026-04-15T12:54:28.876Z</time></trkpt><trkpt lat="42.6167083" lon="-7.7932183"><ele>579.0</ele><time>2026-04-15T12:54:29.876Z</time></trkpt><trkpt lat="42.6167783" lon="-7.7934833"><ele>579.0</ele><time>2026-04-15T12:54:30.876Z</time></trkpt><trkpt lat="42.6168617" lon="-7.793745"><ele>579.0</ele><time>2026-04-15T12:54:31.876Z</time></trkpt><trkpt lat="42.61695" lon="-7.7939983"><ele>582.0</ele><time>2026-04-15T12:54:32.876Z</time></trkpt><trkpt lat="42.61703" lon="-7.794255"><ele>585.0</ele><time>2026-04-15T12:54:33.876Z</time></trkpt><trkpt lat="42.6171117" lon="-7.7945167"><ele>588.0</ele><time>2026-04-15T12:54:34.877Z</time></trkpt><trkpt lat="42.61719" lon="-7.7947817"><ele>588.6666666666666</ele><time>2026-04-15T12:54:35.877Z</time></trkpt><trkpt lat="42.6172633" lon="-7.79505"><ele>589.3333333333333</ele><time>2026-04-15T12:54:36.876Z</time></trkpt><trkpt lat="42.617335" lon="-7.7953183"><ele>590.0</ele><time>2026-04-15T12:54:37.877Z</time></trkpt><trkpt lat="42.6174017" lon="-7.7955833"><ele>590.0</ele><time>2026-04-15T12:54:38.876Z</time></trkpt><trkpt lat="42.61747" lon="-7.7958533"><ele>590.0</ele><time>2026-04-15T12:54:39.876Z</time></trkpt><trkpt lat="42.6175267" lon="-7.796115"><ele>590.0</ele><time>2026-04-15T12:54:40.876Z</time></trkpt><trkpt lat="42.617595" lon="-7.79639"><ele>590.0</ele><time>2026-04-15T12:54:41.876Z</time></trkpt><trkpt lat="42.617655" lon="-7.796665"><ele>590.0</ele><time>2026-04-15T12:54:42.876Z</time></trkpt><trkpt lat="42.6177" lon="-7.7969367"><ele>590.0</ele><time>2026-04-15T12:54:43.877Z</time></trkpt><trkpt lat="42.6177467" lon="-7.7972033"><ele>589.0</ele><time>2026-04-15T12:54:44.877Z</time></trkpt><trkpt lat="42.6177767" lon="-7.79748"><ele>588.0</ele><time>2026-04-15T12:54:45.876Z</time></trkpt><trkpt lat="42.617825" lon="-7.7977533"><ele>587.0</ele><time>2026-04-15T12:54:46.877Z</time></trkpt><trkpt lat="42.6178667" lon="-7.79803"><ele>586.3333333333333</ele><time>2026-04-15T12:54:47.876Z</time></trkpt><trkpt lat="42.6179067" lon="-7.79831"><ele>585.6666666666666</ele><time>2026-04-15T12:54:48.876Z</time></trkpt><trkpt lat="42.61792" lon="-7.798585"><ele>585.0</ele><time>2026-04-15T12:54:49.876Z</time></trkpt><trkpt lat="42.61795" lon="-7.798865"><ele>584.0</ele><time>2026-04-15T12:54:50.877Z</time></trkpt><trkpt lat="42.6179817" lon="-7.7991417"><ele>583.0</ele><time>2026-04-15T12:54:51.876Z</time></trkpt><trkpt lat="42.6179967" lon="-7.7994117"><ele>582.0</ele><time>2026-04-15T12:54:52.876Z</time></trkpt><trkpt lat="42.6180133" lon="-7.7996917"><ele>582.0</ele><time>2026-04-15T12:54:53.877Z</time></trkpt><trkpt lat="42.6180467" lon="-7.79998"><ele>582.0</ele><time>2026-04-15T12:54:54.877Z</time></trkpt><trkpt lat="42.6180633" lon="-7.800255"><ele>582.0</ele><time>2026-04-15T12:54:55.877Z</time></trkpt><trkpt lat="42.61809" lon="-7.8005333"><ele>582.0</ele><time>2026-04-15T12:54:56.876Z</time></trkpt><trkpt lat="42.618115" lon="-7.8008017"><ele>582.0</ele><time>2026-04-15T12:54:57.876Z</time></trkpt><trkpt lat="42.61814" lon="-7.8010733"><ele>582.0</ele><time>2026-04-15T12:54:58.876Z</time></trkpt><trkpt lat="42.6181683" lon="-7.8013417"><ele>582.3333333333334</ele><time>2026-04-15T12:54:59.876Z</time></trkpt><trkpt lat="42.618205" lon="-7.8016067"><ele>582.6666666666667</ele><time>2026-04-15T12:55:00.876Z</time></trkpt><trkpt lat="42.6182417" lon="-7.8018717"><ele>583.0</ele><time>2026-04-15T12:55:01.876Z</time></trkpt><trkpt lat="42.61828" lon="-7.8021317"><ele>584.0</ele><time>2026-04-15T12:55:02.876Z</time></trkpt><trkpt lat="42.6183283" lon="-7.8024017"><ele>585.0</ele><time>2026-04-15T12:55:03.876Z</time></trkpt><trkpt lat="42.618385" lon="-7.8026717"><ele>586.0</ele><time>2026-04-15T12:55:04.876Z</time></trkpt><trkpt lat="42.6184417" lon="-7.8029483"><ele>586.0</ele><time>2026-04-15T12:55:05.877Z</time></trkpt><trkpt lat="42.6184967" lon="-7.8032233"><ele>586.0</ele><time>2026-04-15T12:55:06.877Z</time></trkpt><trkpt lat="42.618555" lon="-7.803485"><ele>586.0</ele><time>2026-04-15T12:55:07.876Z</time></trkpt><trkpt lat="42.6186167" lon="-7.8037433"><ele>585.6666666666667</ele><time>2026-04-15T12:55:08.876Z</time></trkpt><trkpt lat="42.6186917" lon="-7.804005"><ele>585.3333333333334</ele><time>2026-04-15T12:55:09.877Z</time></trkpt><trkpt lat="42.61877" lon="-7.8042667"><ele>585.0</ele><time>2026-04-15T12:55:10.877Z</time></trkpt><trkpt lat="42.6188483" lon="-7.804515"><ele>584.0</ele><time>2026-04-15T12:55:11.876Z</time></trkpt><trkpt lat="42.618935" lon="-7.8047717"><ele>583.0</ele><time>2026-04-15T12:55:12.877Z</time></trkpt><trkpt lat="42.6190217" lon="-7.805025"><ele>582.0</ele><time>2026-04-15T12:55:13.876Z</time></trkpt><trkpt lat="42.6191117" lon="-7.805275"><ele>581.0</ele><time>2026-04-15T12:55:14.877Z</time></trkpt><trkpt lat="42.619205" lon="-7.8055283"><ele>580.0</ele><time>2026-04-15T12:55:15.877Z</time></trkpt><trkpt lat="42.6193033" lon="-7.805775"><ele>579.0</ele><time>2026-04-15T12:55:16.876Z</time></trkpt><trkpt lat="42.61941" lon="-7.8060217"><ele>577.3333333333334</ele><time>2026-04-15T12:55:17.877Z</time></trkpt><trkpt lat="42.6195033" lon="-7.8062533"><ele>575.6666666666667</ele><time>2026-04-15T12:55:18.877Z</time></trkpt><trkpt lat="42.6196033" lon="-7.8064867"><ele>574.0</ele><time>2026-04-15T12:55:19.876Z</time></trkpt><trkpt lat="42.6197133" lon="-7.80672"><ele>573.3333333333334</ele><time>2026-04-15T12:55:20.876Z</time></trkpt><trkpt lat="42.6198283" lon="-7.8069517"><ele>572.6666666666666</ele><time>2026-04-15T12:55:21.877Z</time></trkpt><trkpt lat="42.6199417" lon="-7.8071783"><ele>572.0</ele><time>2026-04-15T12:55:22.876Z</time></trkpt><trkpt lat="42.6200617" lon="-7.8073967"><ele>572.0</ele><time>2026-04-15T12:55:23.877Z</time></trkpt><trkpt lat="42.6201867" lon="-7.8076283"><ele>572.0</ele><time>2026-04-15T12:55:24.877Z</time></trkpt><trkpt lat="42.6203133" lon="-7.80785"><ele>572.0</ele><time>2026-04-15T12:55:25.876Z</time></trkpt><trkpt lat="42.62045" lon="-7.8080817"><ele>571.3333333333333</ele><time>2026-04-15T12:55:26.877Z</time></trkpt><trkpt lat="42.6205833" lon="-7.808295"><ele>570.6666666666666</ele><time>2026-04-15T12:55:27.876Z</time></trkpt><trkpt lat="42.620725" lon="-7.8085067"><ele>570.0</ele><time>2026-04-15T12:55:28.876Z</time></trkpt><trkpt lat="42.6208683" lon="-7.8087117"><ele>569.6666666666666</ele><time>2026-04-15T12:55:29.876Z</time></trkpt><trkpt lat="42.6210167" lon="-7.8089217"><ele>569.3333333333333</ele><time>2026-04-15T12:55:30.876Z</time></trkpt><trkpt lat="42.6211633" lon="-7.8091317"><ele>569.0</ele><time>2026-04-15T12:55:31.877Z</time></trkpt><trkpt lat="42.6213117" lon="-7.809345"><ele>570.0</ele><time>2026-04-15T12:55:32.876Z</time></trkpt><trkpt lat="42.6214517" lon="-7.809555"><ele>571.0</ele><time>2026-04-15T12:55:33.876Z</time></trkpt><trkpt lat="42.621595" lon="-7.80977"><ele>572.0</ele><time>2026-04-15T12:55:34.877Z</time></trkpt><trkpt lat="42.6217333" lon="-7.8099783"><ele>571.6666666666666</ele><time>2026-04-15T12:55:35.877Z</time></trkpt><trkpt lat="42.62186" lon="-7.8101917"><ele>571.3333333333334</ele><time>2026-04-15T12:55:36.876Z</time></trkpt><trkpt lat="42.62198" lon="-7.8103967"><ele>571.0</ele><time>2026-04-15T12:55:37.877Z</time></trkpt><trkpt lat="42.6221067" lon="-7.8106067"><ele>571.6666666666667</ele><time>2026-04-15T12:55:38.877Z</time></trkpt><trkpt lat="42.6222317" lon="-7.8108083"><ele>572.3333333333334</ele><time>2026-04-15T12:55:39.877Z</time></trkpt><trkpt lat="42.6223567" lon="-7.8110183"><ele>573.0</ele><time>2026-04-15T12:55:40.877Z</time></trkpt><trkpt lat="42.6224817" lon="-7.8112433"><ele>573.6666666666666</ele><time>2026-04-15T12:55:41.876Z</time></trkpt><trkpt lat="42.6226" lon="-7.8114667"><ele>574.3333333333333</ele><time>2026-04-15T12:55:42.876Z</time></trkpt><trkpt lat="42.6227133" lon="-7.8116983"><ele>575.0</ele><time>2026-04-15T12:55:43.877Z</time></trkpt><trkpt lat="42.6228283" lon="-7.8119333"><ele>576.0</ele><time>2026-04-15T12:55:44.876Z</time></trkpt><trkpt lat="42.622945" lon="-7.8121717"><ele>577.0</ele><time>2026-04-15T12:55:45.876Z</time></trkpt><trkpt lat="42.623055" lon="-7.8124167"><ele>578.0</ele><time>2026-04-15T12:55:46.877Z</time></trkpt><trkpt lat="42.6231583" lon="-7.81267"><ele>578.6666666666666</ele><time>2026-04-15T12:55:47.877Z</time></trkpt><trkpt lat="42.62326" lon="-7.8129233"><ele>579.3333333333334</ele><time>2026-04-15T12:55:48.876Z</time></trkpt><trkpt lat="42.6233617" lon="-7.8131767"><ele>580.0</ele><time>2026-04-15T12:55:49.876Z</time></trkpt><trkpt lat="42.623455" lon="-7.8134267"><ele>580.3333333333334</ele><time>2026-04-15T12:55:50.877Z</time></trkpt><trkpt lat="42.6235517" lon="-7.8136833"><ele>580.6666666666666</ele><time>2026-04-15T12:55:51.877Z</time></trkpt><trkpt lat="42.623645" lon="-7.813945"><ele>581.0</ele><time>2026-04-15T12:55:52.877Z</time></trkpt><trkpt lat="42.623735" lon="-7.81421"><ele>583.0</ele><time>2026-04-15T12:55:53.876Z</time></trkpt><trkpt lat="42.6238267" lon="-7.8144733"><ele>585.0</ele><time>2026-04-15T12:55:54.877Z</time></trkpt><trkpt lat="42.6239083" lon="-7.8147467"><ele>587.0</ele><time>2026-04-15T12:55:55.877Z</time></trkpt><trkpt lat="42.6239883" lon="-7.8150233"><ele>587.3333333333333</ele><time>2026-04-15T12:55:56.876Z</time></trkpt><trkpt lat="42.6240733" lon="-7.81531"><ele>587.6666666666666</ele><time>2026-04-15T12:55:57.877Z</time></trkpt><trkpt lat="42.6241617" lon="-7.8155833"><ele>588.0</ele><time>2026-04-15T12:55:58.877Z</time></trkpt><trkpt lat="42.6242483" lon="-7.8158617"><ele>590.6666666666666</ele><time>2026-04-15T12:55:59.876Z</time></trkpt><trkpt lat="42.6243333" lon="-7.81614"><ele>593.3333333333333</ele><time>2026-04-15T12:56:00.876Z</time></trkpt><trkpt lat="42.6244067" lon="-7.8164233"><ele>596.0</ele><time>2026-04-15T12:56:01.876Z</time></trkpt><trkpt lat="42.6244967" lon="-7.8166983"><ele>597.6666666666666</ele><time>2026-04-15T12:56:02.876Z</time></trkpt><trkpt lat="42.6245867" lon="-7.81697"><ele>599.3333333333334</ele><time>2026-04-15T12:56:03.877Z</time></trkpt><trkpt lat="42.6246817" lon="-7.817235"><ele>601.0</ele><time>2026-04-15T12:56:04.876Z</time></trkpt><trkpt lat="42.6247733" lon="-7.8175017"><ele>601.6666666666667</ele><time>2026-04-15T12:56:05.877Z</time></trkpt><trkpt lat="42.6248683" lon="-7.8177617"><ele>602.3333333333334</ele><time>2026-04-15T12:56:06.876Z</time></trkpt><trkpt lat="42.6249683" lon="-7.81802"><ele>603.0</ele><time>2026-04-15T12:56:07.876Z</time></trkpt><trkpt lat="42.6250733" lon="-7.8182817"><ele>605.0</ele><time>2026-04-15T12:56:08.877Z</time></trkpt><trkpt lat="42.6251783" lon="-7.818545"><ele>607.0</ele><time>2026-04-15T12:56:09.877Z</time></trkpt><trkpt lat="42.625285" lon="-7.818805"><ele>609.0</ele><time>2026-04-15T12:56:10.877Z</time></trkpt><trkpt lat="42.6253933" lon="-7.8190633"><ele>612.0</ele><time>2026-04-15T12:56:11.877Z</time></trkpt><trkpt lat="42.6255183" lon="-7.8193233"><ele>615.0</ele><time>2026-04-15T12:56:12.877Z</time></trkpt><trkpt lat="42.62564" lon="-7.8195833"><ele>615.0</ele><time>2026-04-15T12:56:13.876Z</time></trkpt><trkpt lat="42.625755" lon="-7.8198317"><ele>615.0</ele><time>2026-04-15T12:56:14.876Z</time></trkpt><trkpt lat="42.6258683" lon="-7.8200767"><ele>615.0</ele><time>2026-04-15T12:56:15.877Z</time></trkpt><trkpt lat="42.6259967" lon="-7.8203217"><ele>616.0</ele><time>2026-04-15T12:56:16.876Z</time></trkpt><trkpt lat="42.6261283" lon="-7.82057"><ele>617.0</ele><time>2026-04-15T12:56:17.877Z</time></trkpt><trkpt lat="42.6262517" lon="-7.8208117"><ele>618.0</ele><time>2026-04-15T12:56:18.876Z</time></trkpt><trkpt lat="42.6263833" lon="-7.8210533"><ele>621.0</ele><time>2026-04-15T12:56:19.876Z</time></trkpt><trkpt lat="42.6265167" lon="-7.8212883"><ele>624.0</ele><time>2026-04-15T12:56:20.877Z</time></trkpt><trkpt lat="42.6266567" lon="-7.821525"><ele>627.0</ele><time>2026-04-15T12:56:21.877Z</time></trkpt><trkpt lat="42.6268017" lon="-7.8217567"><ele>628.3333333333334</ele><time>2026-04-15T12:56:22.877Z</time></trkpt><trkpt lat="42.626945" lon="-7.8219867"><ele>629.6666666666667</ele><time>2026-04-15T12:56:23.877Z</time></trkpt><trkpt lat="42.62708" lon="-7.8222067"><ele>631.0</ele><time>2026-04-15T12:56:24.876Z</time></trkpt><trkpt lat="42.6272317" lon="-7.82244"><ele>632.6666666666667</ele><time>2026-04-15T12:56:25.876Z</time></trkpt><trkpt lat="42.6273833" lon="-7.82266"><ele>634.3333333333334</ele><time>2026-04-15T12:56:26.876Z</time></trkpt><trkpt lat="42.6275283" lon="-7.82288"><ele>636.0</ele><time>2026-04-15T12:56:27.876Z</time></trkpt><trkpt lat="42.6276783" lon="-7.8231033"><ele>634.3333333333334</ele><time>2026-04-15T12:56:28.876Z</time></trkpt><trkpt lat="42.6278317" lon="-7.8233183"><ele>632.6666666666667</ele><time>2026-04-15T12:56:29.877Z</time></trkpt><trkpt lat="42.6279733" lon="-7.82353"><ele>631.0</ele><time>2026-04-15T12:56:30.876Z</time></trkpt><trkpt lat="42.6281317" lon="-7.8237333"><ele>631.0</ele><time>2026-04-15T12:56:31.876Z</time></trkpt><trkpt lat="42.6283083" lon="-7.823935"><ele>631.0</ele><time>2026-04-15T12:56:32.876Z</time></trkpt><trkpt lat="42.6284733" lon="-7.8241267"><ele>631.0</ele><time>2026-04-15T12:56:33.876Z</time></trkpt><trkpt lat="42.6286567" lon="-7.8243283"><ele>631.5</ele><time>2026-04-15T12:56:34.876Z</time></trkpt><trkpt lat="42.6288367" lon="-7.8245383"><ele>632.0</ele><time>2026-04-15T12:56:35.877Z</time></trkpt><trkpt lat="42.629015" lon="-7.8247567"><ele>632.0</ele><time>2026-04-15T12:56:36.876Z</time></trkpt><trkpt lat="42.6291767" lon="-7.8249833"><ele>632.0</ele><time>2026-04-15T12:56:37.876Z</time></trkpt><trkpt lat="42.6293317" lon="-7.8252317"><ele>633.5</ele><time>2026-04-15T12:56:38.876Z</time></trkpt><trkpt lat="42.6294717" lon="-7.8254967"><ele>635.0</ele><time>2026-04-15T12:56:39.876Z</time></trkpt><trkpt lat="42.629615" lon="-7.8257717"><ele>630.0</ele><time>2026-04-15T12:56:40.877Z</time></trkpt><trkpt lat="42.6297417" lon="-7.8260667"><ele>625.0</ele><time>2026-04-15T12:56:41.876Z</time></trkpt><trkpt lat="42.6298617" lon="-7.82637"><ele>625.0</ele><time>2026-04-15T12:56:42.877Z</time></trkpt><trkpt lat="42.6299617" lon="-7.8266667"><ele>625.0</ele><time>2026-04-15T12:56:43.877Z</time></trkpt><trkpt lat="42.6300467" lon="-7.8269767"><ele>624.0</ele><time>2026-04-15T12:56:44.877Z</time></trkpt><trkpt lat="42.6301267" lon="-7.8273017"><ele>623.0</ele><time>2026-04-15T12:56:45.877Z</time></trkpt><trkpt lat="42.6301667" lon="-7.8276283"><ele>620.0</ele><time>2026-04-15T12:56:46.876Z</time></trkpt><trkpt lat="42.6302033" lon="-7.82796"><ele>617.0</ele><time>2026-04-15T12:56:47.877Z</time></trkpt><trkpt lat="42.63024" lon="-7.828285"><ele>615.0</ele><time>2026-04-15T12:56:48.876Z</time></trkpt><trkpt lat="42.6302967" lon="-7.8285983"><ele>613.0</ele><time>2026-04-15T12:56:49.876Z</time></trkpt><trkpt lat="42.6303533" lon="-7.8289217"><ele>609.0</ele><time>2026-04-15T12:56:50.877Z</time></trkpt><trkpt lat="42.6304233" lon="-7.8292333"><ele>605.0</ele><time>2026-04-15T12:56:51.877Z</time></trkpt><trkpt lat="42.6305067" lon="-7.829545"><ele>602.0</ele><time>2026-04-15T12:56:52.876Z</time></trkpt><trkpt lat="42.630605" lon="-7.8298367"><ele>599.0</ele><time>2026-04-15T12:56:53.876Z</time></trkpt><trkpt lat="42.6307183" lon="-7.8301233"><ele>601.5</ele><time>2026-04-15T12:56:54.876Z</time></trkpt><trkpt lat="42.6308483" lon="-7.83041"><ele>604.0</ele><time>2026-04-15T12:56:55.876Z</time></trkpt><trkpt lat="42.6309883" lon="-7.83068"><ele>603.5</ele><time>2026-04-15T12:56:56.877Z</time></trkpt><trkpt lat="42.631145" lon="-7.8309533"><ele>603.0</ele><time>2026-04-15T12:56:57.877Z</time></trkpt><trkpt lat="42.6313117" lon="-7.83119"><ele>603.0</ele><time>2026-04-15T12:56:58.877Z</time></trkpt><trkpt lat="42.63149" lon="-7.8314283"><ele>603.0</ele><time>2026-04-15T12:56:59.877Z</time></trkpt><trkpt lat="42.631675" lon="-7.8316683"><ele>599.5</ele><time>2026-04-15T12:57:00.877Z</time></trkpt><trkpt lat="42.63187" lon="-7.8318917"><ele>596.0</ele><time>2026-04-15T12:57:01.877Z</time></trkpt><trkpt lat="42.6320483" lon="-7.83212"><ele>596.0</ele><time>2026-04-15T12:57:02.876Z</time></trkpt><trkpt lat="42.6322333" lon="-7.83235"><ele>596.0</ele><time>2026-04-15T12:57:03.876Z</time></trkpt><trkpt lat="42.6324167" lon="-7.8325917"><ele>599.0</ele><time>2026-04-15T12:57:04.877Z</time></trkpt><trkpt lat="42.6325917" lon="-7.8328383"><ele>602.0</ele><time>2026-04-15T12:57:05.876Z</time></trkpt><trkpt lat="42.6327567" lon="-7.8330983"><ele>594.0</ele><time>2026-04-15T12:57:06.877Z</time></trkpt><trkpt lat="42.6329167" lon="-7.8333617"><ele>586.0</ele><time>2026-04-15T12:57:07.876Z</time></trkpt><trkpt lat="42.6330667" lon="-7.8336317"><ele>586.0</ele><time>2026-04-15T12:57:08.877Z</time></trkpt><trkpt lat="42.6332083" lon="-7.83391"><ele>586.0</ele><time>2026-04-15T12:57:09.876Z</time></trkpt><trkpt lat="42.6333483" lon="-7.8341917"><ele>584.5</ele><time>2026-04-15T12:57:10.877Z</time></trkpt><trkpt lat="42.6334867" lon="-7.8344767"><ele>583.0</ele><time>2026-04-15T12:57:11.876Z</time></trkpt><trkpt lat="42.6336217" lon="-7.834765"><ele>583.5</ele><time>2026-04-15T12:57:12.876Z</time></trkpt><trkpt lat="42.6337567" lon="-7.8350567"><ele>584.0</ele><time>2026-04-15T12:57:13.876Z</time></trkpt><trkpt lat="42.63389" lon="-7.8353417"><ele>584.5</ele><time>2026-04-15T12:57:14.876Z</time></trkpt><trkpt lat="42.6340233" lon="-7.835625"><ele>585.0</ele><time>2026-04-15T12:57:15.877Z</time></trkpt><trkpt lat="42.6341483" lon="-7.8359"><ele>585.5</ele><time>2026-04-15T12:57:16.877Z</time></trkpt><trkpt lat="42.634285" lon="-7.8361633"><ele>586.0</ele><time>2026-04-15T12:57:17.877Z</time></trkpt><trkpt lat="42.6344417" lon="-7.8364017"><ele>588.0</ele><time>2026-04-15T12:57:18.876Z</time></trkpt><trkpt lat="42.63461" lon="-7.8366217"><ele>590.0</ele><time>2026-04-15T12:57:19.876Z</time></trkpt><trkpt lat="42.63479" lon="-7.8368283"><ele>591.0</ele><time>2026-04-15T12:57:20.876Z</time></trkpt><trkpt lat="42.6349733" lon="-7.8370167"><ele>592.0</ele><time>2026-04-15T12:57:21.876Z</time></trkpt><trkpt lat="42.635155" lon="-7.8371933"><ele>596.0</ele><time>2026-04-15T12:57:22.877Z</time></trkpt><trkpt lat="42.6353517" lon="-7.8373617"><ele>600.0</ele><time>2026-04-15T12:57:23.876Z</time></trkpt><trkpt lat="42.6355617" lon="-7.83751"><ele>599.0</ele><time>2026-04-15T12:57:24.877Z</time></trkpt><trkpt lat="42.6357733" lon="-7.837645"><ele>598.0</ele><time>2026-04-15T12:57:25.876Z</time></trkpt><trkpt lat="42.6359817" lon="-7.837765"><ele>600.0</ele><time>2026-04-15T12:57:26.876Z</time></trkpt><trkpt lat="42.6361883" lon="-7.837845"><ele>602.0</ele><time>2026-04-15T12:57:27.876Z</time></trkpt><trkpt lat="42.63641" lon="-7.83792"><ele>604.0</ele><time>2026-04-15T12:57:28.877Z</time></trkpt><trkpt lat="42.6366333" lon="-7.8379783"><ele>604.0</ele><time>2026-04-15T12:57:29.877Z</time></trkpt><trkpt lat="42.63686" lon="-7.8380133"><ele>604.0</ele><time>2026-04-15T12:57:30.877Z</time></trkpt><trkpt lat="42.637085" lon="-7.8380383"><ele>609.0</ele><time>2026-04-15T12:57:31.876Z</time></trkpt><trkpt lat="42.637315" lon="-7.8380467"><ele>614.0</ele><time>2026-04-15T12:57:32.876Z</time></trkpt><trkpt lat="42.6375467" lon="-7.8380383"><ele>614.0</ele><time>2026-04-15T12:57:33.877Z</time></trkpt><trkpt lat="42.6377733" lon="-7.8380067"><ele>614.0</ele><time>2026-04-15T12:57:34.877Z</time></trkpt><trkpt lat="42.6379983" lon="-7.8379483"><ele>621.5</ele><time>2026-04-15T12:57:35.877Z</time></trkpt><trkpt lat="42.6382267" lon="-7.8378817"><ele>629.0</ele><time>2026-04-15T12:57:36.876Z</time></trkpt><trkpt lat="42.6384567" lon="-7.8377967"><ele>631.0</ele><time>2026-04-15T12:57:37.876Z</time></trkpt><trkpt lat="42.6386817" lon="-7.8376967"><ele>633.0</ele><time>2026-04-15T12:57:38.877Z</time></trkpt><trkpt lat="42.638905" lon="-7.837585"><ele>633.0</ele><time>2026-04-15T12:57:39.876Z</time></trkpt><trkpt lat="42.639125" lon="-7.8374683"><ele>633.0</ele><time>2026-04-15T12:57:40.876Z</time></trkpt><trkpt lat="42.63934" lon="-7.8373517"><ele>640.5</ele><time>2026-04-15T12:57:41.876Z</time></trkpt><trkpt lat="42.6395533" lon="-7.83725"><ele>648.0</ele><time>2026-04-15T12:57:42.876Z</time></trkpt><trkpt lat="42.6397683" lon="-7.8371517"><ele>648.0</ele><time>2026-04-15T12:57:43.876Z</time></trkpt><trkpt lat="42.6399933" lon="-7.837075"><ele>648.0</ele><time>2026-04-15T12:57:44.876Z</time></trkpt><trkpt lat="42.6402217" lon="-7.8370233"><ele>652.0</ele><time>2026-04-15T12:57:45.877Z</time></trkpt><trkpt lat="42.6404433" lon="-7.8369783"><ele>656.0</ele><time>2026-04-15T12:57:46.877Z</time></trkpt><trkpt lat="42.6406767" lon="-7.8369567"><ele>656.0</ele><time>2026-04-15T12:57:47.877Z</time></trkpt><trkpt lat="42.640905" lon="-7.8369533"><ele>656.0</ele><time>2026-04-15T12:57:48.877Z</time></trkpt><trkpt lat="42.6411367" lon="-7.8369717"><ele>657.0</ele><time>2026-04-15T12:57:49.876Z</time></trkpt><trkpt lat="42.6413633" lon="-7.8370117"><ele>658.0</ele><time>2026-04-15T12:57:50.876Z</time></trkpt><trkpt lat="42.6415867" lon="-7.8370667"><ele>658.0</ele><time>2026-04-15T12:57:51.877Z</time></trkpt><trkpt lat="42.6418117" lon="-7.8371383"><ele>658.0</ele><time>2026-04-15T12:57:52.876Z</time></trkpt><trkpt lat="42.6420317" lon="-7.8372267"><ele>659.5</ele><time>2026-04-15T12:57:53.876Z</time></trkpt><trkpt lat="42.642245" lon="-7.837335"><ele>661.0</ele><time>2026-04-15T12:57:54.876Z</time></trkpt><trkpt lat="42.6424517" lon="-7.8374567"><ele>661.0</ele><time>2026-04-15T12:57:55.876Z</time></trkpt><trkpt lat="42.64265" lon="-7.837605"><ele>661.0</ele><time>2026-04-15T12:57:56.877Z</time></trkpt><trkpt lat="42.6428417" lon="-7.837765"><ele>663.6666666666667</ele><time>2026-04-15T12:57:57.877Z</time></trkpt><trkpt lat="42.6430283" lon="-7.83793"><ele>666.3333333333334</ele><time>2026-04-15T12:57:58.876Z</time></trkpt><trkpt lat="42.6432017" lon="-7.8381083"><ele>669.0</ele><time>2026-04-15T12:57:59.876Z</time></trkpt><trkpt lat="42.6433717" lon="-7.8383017"><ele>673.0</ele><time>2026-04-15T12:58:00.877Z</time></trkpt><trkpt lat="42.6435433" lon="-7.8385"><ele>677.0</ele><time>2026-04-15T12:58:01.876Z</time></trkpt><trkpt lat="42.64372" lon="-7.8386967"><ele>677.0</ele><time>2026-04-15T12:58:02.876Z</time></trkpt><trkpt lat="42.6438967" lon="-7.838885"><ele>677.0</ele><time>2026-04-15T12:58:03.876Z</time></trkpt><trkpt lat="42.6440867" lon="-7.8390667"><ele>677.0</ele><time>2026-04-15T12:58:04.877Z</time></trkpt><trkpt lat="42.6442917" lon="-7.8392167"><ele>677.0</ele><time>2026-04-15T12:58:05.876Z</time></trkpt><trkpt lat="42.644495" lon="-7.839345"><ele>678.5</ele><time>2026-04-15T12:58:06.876Z</time></trkpt><trkpt lat="42.6447" lon="-7.839465"><ele>680.0</ele><time>2026-04-15T12:58:07.876Z</time></trkpt><trkpt lat="42.644915" lon="-7.8395867"><ele>680.0</ele><time>2026-04-15T12:58:08.876Z</time></trkpt><trkpt lat="42.64513" lon="-7.8396883"><ele>680.0</ele><time>2026-04-15T12:58:09.877Z</time></trkpt><trkpt lat="42.64535" lon="-7.8397717"><ele>679.5</ele><time>2026-04-15T12:58:10.876Z</time></trkpt><trkpt lat="42.6455717" lon="-7.8398117"><ele>679.0</ele><time>2026-04-15T12:58:11.876Z</time></trkpt><trkpt lat="42.645795" lon="-7.83986"><ele>679.0</ele><time>2026-04-15T12:58:12.876Z</time></trkpt><trkpt lat="42.6460183" lon="-7.8399067"><ele>679.0</ele><time>2026-04-15T12:58:13.876Z</time></trkpt><trkpt lat="42.6462433" lon="-7.8399533"><ele>681.0</ele><time>2026-04-15T12:58:14.876Z</time></trkpt><trkpt lat="42.6464667" lon="-7.8400117"><ele>683.0</ele><time>2026-04-15T12:58:15.876Z</time></trkpt><trkpt lat="42.646695" lon="-7.8400767"><ele>683.0</ele><time>2026-04-15T12:58:16.876Z</time></trkpt><trkpt lat="42.6469183" lon="-7.8401483"><ele>683.0</ele><time>2026-04-15T12:58:17.876Z</time></trkpt><trkpt lat="42.647145" lon="-7.8402317"><ele>683.0</ele><time>2026-04-15T12:58:18.877Z</time></trkpt><trkpt lat="42.6473733" lon="-7.8403183"><ele>683.0</ele><time>2026-04-15T12:58:19.877Z</time></trkpt><trkpt lat="42.6475933" lon="-7.8404117"><ele>679.5</ele><time>2026-04-15T12:58:20.876Z</time></trkpt><trkpt lat="42.647815" lon="-7.8405133"><ele>676.0</ele><time>2026-04-15T12:58:21.876Z</time></trkpt><trkpt lat="42.6480333" lon="-7.8406217"><ele>676.0</ele><time>2026-04-15T12:58:22.876Z</time></trkpt><trkpt lat="42.6482533" lon="-7.8407417"><ele>676.0</ele><time>2026-04-15T12:58:23.877Z</time></trkpt><trkpt lat="42.64847" lon="-7.8408733"><ele>677.5</ele><time>2026-04-15T12:58:24.877Z</time></trkpt><trkpt lat="42.64869" lon="-7.8410183"><ele>679.0</ele><time>2026-04-15T12:58:25.876Z</time></trkpt><trkpt lat="42.6489067" lon="-7.8411683"><ele>679.0</ele><time>2026-04-15T12:58:26.877Z</time></trkpt><trkpt lat="42.6491233" lon="-7.841315"><ele>679.0</ele><time>2026-04-15T12:58:27.876Z</time></trkpt><trkpt lat="42.6493333" lon="-7.8414767"><ele>680.0</ele><time>2026-04-15T12:58:28.876Z</time></trkpt><trkpt lat="42.64954" lon="-7.8416383"><ele>681.0</ele><time>2026-04-15T12:58:29.876Z</time></trkpt><trkpt lat="42.6497417" lon="-7.841805"><ele>681.0</ele><time>2026-04-15T12:58:30.876Z</time></trkpt><trkpt lat="42.649935" lon="-7.8419817"><ele>681.0</ele><time>2026-04-15T12:58:31.877Z</time></trkpt><trkpt lat="42.6501167" lon="-7.8421633"><ele>681.0</ele><time>2026-04-15T12:58:32.877Z</time></trkpt><trkpt lat="42.6502917" lon="-7.84235"><ele>681.0</ele><time>2026-04-15T12:58:33.876Z</time></trkpt><trkpt lat="42.6504767" lon="-7.8425433"><ele>682.3333333333334</ele><time>2026-04-15T12:58:34.876Z</time></trkpt><trkpt lat="42.6506483" lon="-7.8427417"><ele>683.6666666666667</ele><time>2026-04-15T12:58:35.876Z</time></trkpt><trkpt lat="42.650815" lon="-7.8429433"><ele>685.0</ele><time>2026-04-15T12:58:36.877Z</time></trkpt><trkpt lat="42.650975" lon="-7.8431467"><ele>686.0</ele><time>2026-04-15T12:58:37.876Z</time></trkpt><trkpt lat="42.6511317" lon="-7.8433617"><ele>687.0</ele><time>2026-04-15T12:58:38.876Z</time></trkpt><trkpt lat="42.6512917" lon="-7.8435733"><ele>688.0</ele><time>2026-04-15T12:58:39.877Z</time></trkpt><trkpt lat="42.651445" lon="-7.8437967"><ele>688.0</ele><time>2026-04-15T12:58:40.877Z</time></trkpt><trkpt lat="42.651615" lon="-7.8440317"><ele>688.0</ele><time>2026-04-15T12:58:41.877Z</time></trkpt><trkpt lat="42.6517817" lon="-7.8442733"><ele>691.5</ele><time>2026-04-15T12:58:42.877Z</time></trkpt><trkpt lat="42.65194" lon="-7.844515"><ele>695.0</ele><time>2026-04-15T12:58:43.876Z</time></trkpt><trkpt lat="42.6520833" lon="-7.8447633"><ele>696.0</ele><time>2026-04-15T12:58:44.877Z</time></trkpt><trkpt lat="42.6522267" lon="-7.8450033"><ele>697.0</ele><time>2026-04-15T12:58:45.876Z</time></trkpt><trkpt lat="42.652365" lon="-7.8452417"><ele>698.3333333333334</ele><time>2026-04-15T12:58:46.876Z</time></trkpt><trkpt lat="42.6525083" lon="-7.84548"><ele>699.6666666666666</ele><time>2026-04-15T12:58:47.876Z</time></trkpt><trkpt lat="42.65265" lon="-7.8457133"><ele>701.0</ele><time>2026-04-15T12:58:48.877Z</time></trkpt><trkpt lat="42.65279" lon="-7.8459583"><ele>701.0</ele><time>2026-04-15T12:58:49.876Z</time></trkpt><trkpt lat="42.6529417" lon="-7.8462"><ele>701.0</ele><time>2026-04-15T12:58:50.876Z</time></trkpt><trkpt lat="42.6531017" lon="-7.8464367"><ele>701.0</ele><time>2026-04-15T12:58:51.876Z</time></trkpt><trkpt lat="42.65326" lon="-7.8466683"><ele>701.0</ele><time>2026-04-15T12:58:52.876Z</time></trkpt><trkpt lat="42.65342" lon="-7.846905"><ele>703.5</ele><time>2026-04-15T12:58:53.877Z</time></trkpt><trkpt lat="42.6535733" lon="-7.8471417"><ele>706.0</ele><time>2026-04-15T12:58:54.877Z</time></trkpt><trkpt lat="42.6537267" lon="-7.8473783"><ele>699.5</ele><time>2026-04-15T12:58:55.877Z</time></trkpt><trkpt lat="42.65389" lon="-7.8476217"><ele>693.0</ele><time>2026-04-15T12:58:56.877Z</time></trkpt><trkpt lat="42.6540533" lon="-7.8478583"><ele>693.0</ele><time>2026-04-15T12:58:57.876Z</time></trkpt><trkpt lat="42.654215" lon="-7.848095"><ele>693.0</ele><time>2026-04-15T12:58:58.876Z</time></trkpt><trkpt lat="42.6543783" lon="-7.8483283"><ele>685.0</ele><time>2026-04-15T12:58:59.877Z</time></trkpt><trkpt lat="42.65454" lon="-7.848565"><ele>677.0</ele><time>2026-04-15T12:59:00.877Z</time></trkpt><trkpt lat="42.6547" lon="-7.8488"><ele>677.0</ele><time>2026-04-15T12:59:01.877Z</time></trkpt><trkpt lat="42.6548633" lon="-7.8490383"><ele>677.0</ele><time>2026-04-15T12:59:02.876Z</time></trkpt><trkpt lat="42.6550317" lon="-7.849275"><ele>675.0</ele><time>2026-04-15T12:59:03.876Z</time></trkpt><trkpt lat="42.655205" lon="-7.849505"><ele>673.0</ele><time>2026-04-15T12:59:04.876Z</time></trkpt><trkpt lat="42.6553783" lon="-7.8497367"><ele>673.0</ele><time>2026-04-15T12:59:05.877Z</time></trkpt><trkpt lat="42.6555567" lon="-7.8499783"><ele>673.0</ele><time>2026-04-15T12:59:06.876Z</time></trkpt><trkpt lat="42.6557333" lon="-7.850215"><ele>673.0</ele><time>2026-04-15T12:59:07.876Z</time></trkpt><trkpt lat="42.6558933" lon="-7.8504383"><ele>673.0</ele><time>2026-04-15T12:59:08.876Z</time></trkpt><trkpt lat="42.65607" lon="-7.8506633"><ele>670.0</ele><time>2026-04-15T12:59:09.876Z</time></trkpt><trkpt lat="42.6562333" lon="-7.85089"><ele>667.0</ele><time>2026-04-15T12:59:10.876Z</time></trkpt><trkpt lat="42.65639" lon="-7.8510817"><ele>664.0</ele><time>2026-04-15T12:59:11.877Z</time></trkpt><trkpt lat="42.656555" lon="-7.8512933"><ele>661.5</ele><time>2026-04-15T12:59:12.877Z</time></trkpt><trkpt lat="42.6567217" lon="-7.8515167"><ele>659.0</ele><time>2026-04-15T12:59:13.876Z</time></trkpt><trkpt lat="42.656885" lon="-7.8517317"><ele>656.0</ele><time>2026-04-15T12:59:14.876Z</time></trkpt><trkpt lat="42.65704" lon="-7.8519467"><ele>653.0</ele><time>2026-04-15T12:59:15.877Z</time></trkpt><trkpt lat="42.6571833" lon="-7.8521667"><ele>650.0</ele><time>2026-04-15T12:59:16.877Z</time></trkpt><trkpt lat="42.6573367" lon="-7.8523833"><ele>650.0</ele><time>2026-04-15T12:59:17.877Z</time></trkpt><trkpt lat="42.6574717" lon="-7.8526083"><ele>650.0</ele><time>2026-04-15T12:59:18.877Z</time></trkpt><trkpt lat="42.657605" lon="-7.8528333"><ele>650.0</ele><time>2026-04-15T12:59:19.876Z</time></trkpt><trkpt lat="42.6577467" lon="-7.853055"><ele>650.0</ele><time>2026-04-15T12:59:20.877Z</time></trkpt><trkpt lat="42.6578867" lon="-7.8532867"><ele>650.0</ele><time>2026-04-15T12:59:21.877Z</time></trkpt><trkpt lat="42.6580267" lon="-7.8535317"><ele>650.0</ele><time>2026-04-15T12:59:22.877Z</time></trkpt><trkpt lat="42.6581617" lon="-7.8537717"><ele>650.0</ele><time>2026-04-15T12:59:23.877Z</time></trkpt><trkpt lat="42.65829" lon="-7.85401"><ele>650.0</ele><time>2026-04-15T12:59:24.877Z</time></trkpt><trkpt lat="42.6584133" lon="-7.854255"><ele>650.0</ele><time>2026-04-15T12:59:25.876Z</time></trkpt><trkpt lat="42.65854" lon="-7.8544967"><ele>649.6666666666666</ele><time>2026-04-15T12:59:26.877Z</time></trkpt><trkpt lat="42.6586583" lon="-7.8547367"><ele>649.3333333333334</ele><time>2026-04-15T12:59:27.876Z</time></trkpt><trkpt lat="42.6587717" lon="-7.85498"><ele>649.0</ele><time>2026-04-15T12:59:28.877Z</time></trkpt><trkpt lat="42.65888" lon="-7.85523"><ele>650.0</ele><time>2026-04-15T12:59:29.876Z</time></trkpt><trkpt lat="42.658985" lon="-7.8554817"><ele>651.0</ele><time>2026-04-15T12:59:30.877Z</time></trkpt><trkpt lat="42.65909" lon="-7.8557317"><ele>652.0</ele><time>2026-04-15T12:59:31.876Z</time></trkpt><trkpt lat="42.6591967" lon="-7.855975"><ele>653.0</ele><time>2026-04-15T12:59:32.876Z</time></trkpt><trkpt lat="42.6592867" lon="-7.8562167"><ele>654.0</ele><time>2026-04-15T12:59:33.877Z</time></trkpt><trkpt lat="42.6593767" lon="-7.85646"><ele>655.0</ele><time>2026-04-15T12:59:34.876Z</time></trkpt><trkpt lat="42.6594683" lon="-7.8567"><ele>656.0</ele><time>2026-04-15T12:59:35.876Z</time></trkpt><trkpt lat="42.65955" lon="-7.8569417"><ele>657.0</ele><time>2026-04-15T12:59:36.877Z</time></trkpt><trkpt lat="42.659635" lon="-7.8571783"><ele>658.0</ele><time>2026-04-15T12:59:37.876Z</time></trkpt><trkpt lat="42.6597117" lon="-7.8574133"><ele>657.6666666666667</ele><time>2026-04-15T12:59:38.876Z</time></trkpt><trkpt lat="42.6597817" lon="-7.8576517"><ele>657.3333333333334</ele><time>2026-04-15T12:59:39.877Z</time></trkpt><trkpt lat="42.6598533" lon="-7.8578933"><ele>657.0</ele><time>2026-04-15T12:59:40.876Z</time></trkpt><trkpt lat="42.65993" lon="-7.8581367"><ele>657.0</ele><time>2026-04-15T12:59:41.877Z</time></trkpt><trkpt lat="42.66" lon="-7.8583867"><ele>657.0</ele><time>2026-04-15T12:59:42.877Z</time></trkpt><trkpt lat="42.6600633" lon="-7.85864"><ele>657.0</ele><time>2026-04-15T12:59:43.876Z</time></trkpt><trkpt lat="42.660125" lon="-7.8588933"><ele>657.0</ele><time>2026-04-15T12:59:44.877Z</time></trkpt><trkpt lat="42.6601833" lon="-7.8591583"><ele>657.0</ele><time>2026-04-15T12:59:45.876Z</time></trkpt><trkpt lat="42.66024" lon="-7.8594233"><ele>657.0</ele><time>2026-04-15T12:59:46.876Z</time></trkpt><trkpt lat="42.660295" lon="-7.85969"><ele>658.0</ele><time>2026-04-15T12:59:47.876Z</time></trkpt><trkpt lat="42.6603467" lon="-7.8599617"><ele>659.0</ele><time>2026-04-15T12:59:48.876Z</time></trkpt><trkpt lat="42.6604033" lon="-7.8602317"><ele>660.0</ele><time>2026-04-15T12:59:49.876Z</time></trkpt><trkpt lat="42.6604567" lon="-7.8605067"><ele>661.0</ele><time>2026-04-15T12:59:50.877Z</time></trkpt><trkpt lat="42.6605083" lon="-7.8607833"><ele>662.0</ele><time>2026-04-15T12:59:51.877Z</time></trkpt><trkpt lat="42.66057" lon="-7.86105"><ele>663.0</ele><time>2026-04-15T12:59:52.877Z</time></trkpt><trkpt lat="42.6606267" lon="-7.8613217"><ele>663.0</ele><time>2026-04-15T12:59:53.877Z</time></trkpt><trkpt lat="42.660695" lon="-7.86159"><ele>663.0</ele><time>2026-04-15T12:59:54.877Z</time></trkpt><trkpt lat="42.6607767" lon="-7.8618567"><ele>663.0</ele><time>2026-04-15T12:59:55.876Z</time></trkpt><trkpt lat="42.6608683" lon="-7.8621017"><ele>662.6666666666666</ele><time>2026-04-15T12:59:56.877Z</time></trkpt><trkpt lat="42.66097" lon="-7.8623367"><ele>662.3333333333333</ele><time>2026-04-15T12:59:57.876Z</time></trkpt><trkpt lat="42.6610883" lon="-7.862555"><ele>662.0</ele><time>2026-04-15T12:59:58.876Z</time></trkpt><trkpt lat="42.6611967" lon="-7.8627617"><ele>663.3333333333333</ele><time>2026-04-15T12:59:59.877Z</time></trkpt><trkpt lat="42.66132" lon="-7.8629683"><ele>664.6666666666666</ele><time>2026-04-15T13:00:00.877Z</time></trkpt><trkpt lat="42.6614567" lon="-7.863175"><ele>666.0</ele><time>2026-04-15T13:00:01.877Z</time></trkpt><trkpt lat="42.6616017" lon="-7.8633633"><ele>666.6666666666666</ele><time>2026-04-15T13:00:02.876Z</time></trkpt><trkpt lat="42.6617583" lon="-7.863545"><ele>667.3333333333333</ele><time>2026-04-15T13:00:03.877Z</time></trkpt><trkpt lat="42.6619133" lon="-7.86371"><ele>668.0</ele><time>2026-04-15T13:00:04.877Z</time></trkpt><trkpt lat="42.6620817" lon="-7.86386"><ele>669.3333333333333</ele><time>2026-04-15T13:00:05.877Z</time></trkpt><trkpt lat="42.6622533" lon="-7.8639983"><ele>670.6666666666666</ele><time>2026-04-15T13:00:06.877Z</time></trkpt><trkpt lat="42.6624333" lon="-7.8641283"><ele>672.0</ele><time>2026-04-15T13:00:07.877Z</time></trkpt><trkpt lat="42.6626217" lon="-7.8642483"><ele>671.0</ele><time>2026-04-15T13:00:08.876Z</time></trkpt><trkpt lat="42.6628183" lon="-7.8643517"><ele>670.0</ele><time>2026-04-15T13:00:09.877Z</time></trkpt><trkpt lat="42.66301" lon="-7.864435"><ele>669.0</ele><time>2026-04-15T13:00:10.877Z</time></trkpt><trkpt lat="42.663215" lon="-7.8644983"><ele>669.0</ele><time>2026-04-15T13:00:11.878Z</time></trkpt><trkpt lat="42.6634133" lon="-7.864545"><ele>669.0</ele><time>2026-04-15T13:00:12.877Z</time></trkpt><trkpt lat="42.663615" lon="-7.8645733"><ele>669.0</ele><time>2026-04-15T13:00:13.877Z</time></trkpt><trkpt lat="42.6638183" lon="-7.8645933"><ele>669.0</ele><time>2026-04-15T13:00:14.877Z</time></trkpt><trkpt lat="42.6640267" lon="-7.8646033"><ele>669.0</ele><time>2026-04-15T13:00:15.877Z</time></trkpt><trkpt lat="42.664245" lon="-7.8646"><ele>669.0</ele><time>2026-04-15T13:00:16.877Z</time></trkpt><trkpt lat="42.6644667" lon="-7.8645867"><ele>670.3333333333334</ele><time>2026-04-15T13:00:17.877Z</time></trkpt><trkpt lat="42.6646867" lon="-7.8645667"><ele>671.6666666666667</ele><time>2026-04-15T13:00:18.878Z</time></trkpt><trkpt lat="42.664915" lon="-7.864545"><ele>673.0</ele><time>2026-04-15T13:00:19.877Z</time></trkpt><trkpt lat="42.6651433" lon="-7.8645383"><ele>674.5</ele><time>2026-04-15T13:00:20.877Z</time></trkpt><trkpt lat="42.66538" lon="-7.8645467"><ele>676.0</ele><time>2026-04-15T13:00:21.877Z</time></trkpt><trkpt lat="42.66562" lon="-7.86457"><ele>676.0</ele><time>2026-04-15T13:00:22.878Z</time></trkpt><trkpt lat="42.6658517" lon="-7.8646183"><ele>676.0</ele><time>2026-04-15T13:00:23.877Z</time></trkpt><trkpt lat="42.6660733" lon="-7.864685"><ele>678.0</ele><time>2026-04-15T13:00:24.877Z</time></trkpt><trkpt lat="42.666295" lon="-7.8647767"><ele>680.0</ele><time>2026-04-15T13:00:25.877Z</time></trkpt><trkpt lat="42.6665167" lon="-7.8648783"><ele>680.0</ele><time>2026-04-15T13:00:26.878Z</time></trkpt><trkpt lat="42.6667317" lon="-7.8649883"><ele>680.0</ele><time>2026-04-15T13:00:27.878Z</time></trkpt><trkpt lat="42.6669233" lon="-7.8651267"><ele>680.0</ele><time>2026-04-15T13:00:28.878Z</time></trkpt><trkpt lat="42.667115" lon="-7.8652717"><ele>683.0</ele><time>2026-04-15T13:00:29.877Z</time></trkpt><trkpt lat="42.6672933" lon="-7.8654367"><ele>686.0</ele><time>2026-04-15T13:00:30.877Z</time></trkpt><trkpt lat="42.66746" lon="-7.8656133"><ele>689.0</ele><time>2026-04-15T13:00:31.877Z</time></trkpt><trkpt lat="42.6676133" lon="-7.8658083"><ele>691.0</ele><time>2026-04-15T13:00:32.878Z</time></trkpt><trkpt lat="42.6677633" lon="-7.8660183"><ele>693.0</ele><time>2026-04-15T13:00:33.877Z</time></trkpt><trkpt lat="42.66791" lon="-7.86624"><ele>695.0</ele><time>2026-04-15T13:00:34.878Z</time></trkpt><trkpt lat="42.668045" lon="-7.8664683"><ele>695.0</ele><time>2026-04-15T13:00:35.878Z</time></trkpt><trkpt lat="42.66817" lon="-7.8667"><ele>695.0</ele><time>2026-04-15T13:00:36.877Z</time></trkpt><trkpt lat="42.6682917" lon="-7.86695"><ele>695.0</ele><time>2026-04-15T13:00:37.878Z</time></trkpt><trkpt lat="42.6683983" lon="-7.8672033"><ele>696.6666666666666</ele><time>2026-04-15T13:00:38.877Z</time></trkpt><trkpt lat="42.668495" lon="-7.86746"><ele>698.3333333333334</ele><time>2026-04-15T13:00:39.877Z</time></trkpt><trkpt lat="42.6685867" lon="-7.86772"><ele>700.0</ele><time>2026-04-15T13:00:40.877Z</time></trkpt><trkpt lat="42.668665" lon="-7.8679967"><ele>700.0</ele><time>2026-04-15T13:00:41.878Z</time></trkpt><trkpt lat="42.6687283" lon="-7.8682667"><ele>700.0</ele><time>2026-04-15T13:00:42.877Z</time></trkpt><trkpt lat="42.66878" lon="-7.8685467"><ele>700.0</ele><time>2026-04-15T13:00:43.877Z</time></trkpt><trkpt lat="42.6688267" lon="-7.8688217"><ele>702.6666666666667</ele><time>2026-04-15T13:00:44.878Z</time></trkpt><trkpt lat="42.6688683" lon="-7.8691067"><ele>705.3333333333334</ele><time>2026-04-15T13:00:45.877Z</time></trkpt><trkpt lat="42.6689033" lon="-7.8693817"><ele>708.0</ele><time>2026-04-15T13:00:46.877Z</time></trkpt><trkpt lat="42.668925" lon="-7.86966"><ele>709.3333333333334</ele><time>2026-04-15T13:00:47.877Z</time></trkpt><trkpt lat="42.66895" lon="-7.869945"><ele>710.6666666666667</ele><time>2026-04-15T13:00:48.878Z</time></trkpt><trkpt lat="42.6689617" lon="-7.8702333"><ele>712.0</ele><time>2026-04-15T13:00:49.877Z</time></trkpt><trkpt lat="42.6689667" lon="-7.870525"><ele>712.0</ele><time>2026-04-15T13:00:50.877Z</time></trkpt><trkpt lat="42.6689667" lon="-7.87083"><ele>712.0</ele><time>2026-04-15T13:00:51.877Z</time></trkpt><trkpt lat="42.6689533" lon="-7.87113"><ele>712.0</ele><time>2026-04-15T13:00:52.877Z</time></trkpt><trkpt lat="42.6689333" lon="-7.871425"><ele>714.3333333333334</ele><time>2026-04-15T13:00:53.878Z</time></trkpt><trkpt lat="42.6689033" lon="-7.8717233"><ele>716.6666666666666</ele><time>2026-04-15T13:00:54.877Z</time></trkpt><trkpt lat="42.6688683" lon="-7.8720233"><ele>719.0</ele><time>2026-04-15T13:00:55.878Z</time></trkpt><trkpt lat="42.668835" lon="-7.8723233"><ele>720.6666666666666</ele><time>2026-04-15T13:00:56.878Z</time></trkpt><trkpt lat="42.66879" lon="-7.8726117"><ele>722.3333333333334</ele><time>2026-04-15T13:00:57.878Z</time></trkpt><trkpt lat="42.6687283" lon="-7.8729017"><ele>724.0</ele><time>2026-04-15T13:00:58.878Z</time></trkpt><trkpt lat="42.6686717" lon="-7.8731817"><ele>729.3333333333334</ele><time>2026-04-15T13:00:59.878Z</time></trkpt><trkpt lat="42.6686083" lon="-7.8734633"><ele>734.6666666666666</ele><time>2026-04-15T13:01:00.877Z</time></trkpt><trkpt lat="42.6685317" lon="-7.87374"><ele>740.0</ele><time>2026-04-15T13:01:01.877Z</time></trkpt><trkpt lat="42.6684567" lon="-7.87401"><ele>742.3333333333333</ele><time>2026-04-15T13:01:02.878Z</time></trkpt><trkpt lat="42.6683717" lon="-7.8742767"><ele>744.6666666666666</ele><time>2026-04-15T13:01:03.878Z</time></trkpt><trkpt lat="42.6682867" lon="-7.8745367"><ele>747.0</ele><time>2026-04-15T13:01:04.878Z</time></trkpt><trkpt lat="42.668195" lon="-7.8747967"><ele>747.0</ele><time>2026-04-15T13:01:05.878Z</time></trkpt><trkpt lat="42.6680933" lon="-7.87506"><ele>747.0</ele><time>2026-04-15T13:01:06.878Z</time></trkpt><trkpt lat="42.668" lon="-7.8753133"><ele>747.0</ele><time>2026-04-15T13:01:07.878Z</time></trkpt><trkpt lat="42.66792" lon="-7.8755783"><ele>748.0</ele><time>2026-04-15T13:01:08.877Z</time></trkpt><trkpt lat="42.66784" lon="-7.8758483"><ele>749.0</ele><time>2026-04-15T13:01:09.877Z</time></trkpt><trkpt lat="42.6677717" lon="-7.8761267"><ele>750.0</ele><time>2026-04-15T13:01:10.877Z</time></trkpt><trkpt lat="42.6677083" lon="-7.8764067"><ele>751.3333333333334</ele><time>2026-04-15T13:01:11.877Z</time></trkpt><trkpt lat="42.6676583" lon="-7.8766917"><ele>752.6666666666667</ele><time>2026-04-15T13:01:12.877Z</time></trkpt><trkpt lat="42.6676167" lon="-7.87698"><ele>754.0</ele><time>2026-04-15T13:01:13.878Z</time></trkpt><trkpt lat="42.6676017" lon="-7.8772717"><ele>755.6666666666667</ele><time>2026-04-15T13:01:14.878Z</time></trkpt><trkpt lat="42.6675933" lon="-7.87757"><ele>757.3333333333334</ele><time>2026-04-15T13:01:15.877Z</time></trkpt><trkpt lat="42.6676017" lon="-7.877865"><ele>759.0</ele><time>2026-04-15T13:01:16.878Z</time></trkpt><trkpt lat="42.6676167" lon="-7.878155"><ele>765.3333333333333</ele><time>2026-04-15T13:01:17.877Z</time></trkpt><trkpt lat="42.6676367" lon="-7.87845"><ele>771.6666666666666</ele><time>2026-04-15T13:01:18.877Z</time></trkpt><trkpt lat="42.6676667" lon="-7.8787317"><ele>778.0</ele><time>2026-04-15T13:01:19.877Z</time></trkpt><trkpt lat="42.6677217" lon="-7.87901"><ele>779.0</ele><time>2026-04-15T13:01:20.877Z</time></trkpt><trkpt lat="42.6677883" lon="-7.8792833"><ele>780.0</ele><time>2026-04-15T13:01:21.878Z</time></trkpt><trkpt lat="42.6678783" lon="-7.8795533"><ele>781.0</ele><time>2026-04-15T13:01:22.877Z</time></trkpt><trkpt lat="42.66798" lon="-7.8798267"><ele>781.0</ele><time>2026-04-15T13:01:23.877Z</time></trkpt><trkpt lat="42.6680917" lon="-7.880095"><ele>781.0</ele><time>2026-04-15T13:01:24.878Z</time></trkpt><trkpt lat="42.668215" lon="-7.8803567"><ele>787.5</ele><time>2026-04-15T13:01:25.877Z</time></trkpt><trkpt lat="42.6683517" lon="-7.8806033"><ele>794.0</ele><time>2026-04-15T13:01:26.878Z</time></trkpt><trkpt lat="42.66851" lon="-7.8808433"><ele>796.0</ele><time>2026-04-15T13:01:27.877Z</time></trkpt><trkpt lat="42.668675" lon="-7.88108"><ele>798.0</ele><time>2026-04-15T13:01:28.878Z</time></trkpt><trkpt lat="42.6688433" lon="-7.881295"><ele>798.0</ele><time>2026-04-15T13:01:29.877Z</time></trkpt><trkpt lat="42.6690083" lon="-7.8815067"><ele>798.0</ele><time>2026-04-15T13:01:30.877Z</time></trkpt><trkpt lat="42.6691667" lon="-7.8817167"><ele>798.0</ele><time>2026-04-15T13:01:31.878Z</time></trkpt><trkpt lat="42.66932" lon="-7.8819317"><ele>799.6666666666667</ele><time>2026-04-15T13:01:32.878Z</time></trkpt><trkpt lat="42.6694683" lon="-7.8821533"><ele>801.3333333333334</ele><time>2026-04-15T13:01:33.877Z</time></trkpt><trkpt lat="42.66961" lon="-7.8823783"><ele>803.0</ele><time>2026-04-15T13:01:34.877Z</time></trkpt><trkpt lat="42.6697317" lon="-7.882615"><ele>803.0</ele><time>2026-04-15T13:01:35.877Z</time></trkpt><trkpt lat="42.6698433" lon="-7.882855"><ele>803.0</ele><time>2026-04-15T13:01:36.878Z</time></trkpt><trkpt lat="42.6699567" lon="-7.8831117"><ele>803.0</ele><time>2026-04-15T13:01:37.878Z</time></trkpt><trkpt lat="42.6700567" lon="-7.88337"><ele>800.3333333333334</ele><time>2026-04-15T13:01:38.877Z</time></trkpt><trkpt lat="42.67015" lon="-7.8836383"><ele>797.6666666666667</ele><time>2026-04-15T13:01:39.877Z</time></trkpt><trkpt lat="42.6702317" lon="-7.883905"><ele>795.0</ele><time>2026-04-15T13:01:40.877Z</time></trkpt><trkpt lat="42.6703017" lon="-7.88418"><ele>798.3333333333333</ele><time>2026-04-15T13:01:41.878Z</time></trkpt><trkpt lat="42.67036" lon="-7.88446"><ele>801.6666666666666</ele><time>2026-04-15T13:01:42.877Z</time></trkpt><trkpt lat="42.67041" lon="-7.8847433"><ele>805.0</ele><time>2026-04-15T13:01:43.878Z</time></trkpt><trkpt lat="42.6704467" lon="-7.8850283"><ele>806.3333333333333</ele><time>2026-04-15T13:01:44.878Z</time></trkpt><trkpt lat="42.67047" lon="-7.88532"><ele>807.6666666666667</ele><time>2026-04-15T13:01:45.877Z</time></trkpt><trkpt lat="42.6704883" lon="-7.8856067"><ele>809.0</ele><time>2026-04-15T13:01:46.877Z</time></trkpt><trkpt lat="42.6704933" lon="-7.885895"><ele>810.3333333333334</ele><time>2026-04-15T13:01:47.877Z</time></trkpt><trkpt lat="42.6704883" lon="-7.88618"><ele>811.6666666666667</ele><time>2026-04-15T13:01:48.877Z</time></trkpt><trkpt lat="42.6704683" lon="-7.8864617"><ele>813.0</ele><time>2026-04-15T13:01:49.878Z</time></trkpt><trkpt lat="42.6704417" lon="-7.886745"><ele>814.6666666666667</ele><time>2026-04-15T13:01:50.877Z</time></trkpt><trkpt lat="42.6704" lon="-7.8870233"><ele>816.3333333333334</ele><time>2026-04-15T13:01:51.878Z</time></trkpt><trkpt lat="42.670345" lon="-7.8873083"><ele>818.0</ele><time>2026-04-15T13:01:52.877Z</time></trkpt><trkpt lat="42.6702867" lon="-7.88759"><ele>823.6666666666667</ele><time>2026-04-15T13:01:53.877Z</time></trkpt><trkpt lat="42.67022" lon="-7.88787"><ele>829.3333333333333</ele><time>2026-04-15T13:01:54.878Z</time></trkpt><trkpt lat="42.6701417" lon="-7.88815"><ele>835.0</ele><time>2026-04-15T13:01:55.877Z</time></trkpt><trkpt lat="42.6700417" lon="-7.8884233"><ele>834.3333333333333</ele><time>2026-04-15T13:01:56.878Z</time></trkpt><trkpt lat="42.669935" lon="-7.888685"><ele>833.6666666666667</ele><time>2026-04-15T13:01:57.878Z</time></trkpt><trkpt lat="42.6698183" lon="-7.8889467"><ele>833.0</ele><time>2026-04-15T13:01:58.877Z</time></trkpt><trkpt lat="42.669695" lon="-7.8891983"><ele>836.0</ele><time>2026-04-15T13:01:59.877Z</time></trkpt><trkpt lat="42.66957" lon="-7.8894467"><ele>839.0</ele><time>2026-04-15T13:02:00.878Z</time></trkpt><trkpt lat="42.6694333" lon="-7.8896867"><ele>842.0</ele><time>2026-04-15T13:02:01.878Z</time></trkpt><trkpt lat="42.6692833" lon="-7.889915"><ele>852.5</ele><time>2026-04-15T13:02:02.877Z</time></trkpt><trkpt lat="42.6691233" lon="-7.8901367"><ele>863.0</ele><time>2026-04-15T13:02:03.877Z</time></trkpt><trkpt lat="42.6689617" lon="-7.89035"><ele>863.0</ele><time>2026-04-15T13:02:04.877Z</time></trkpt><trkpt lat="42.6687983" lon="-7.8905617"><ele>863.0</ele><time>2026-04-15T13:02:05.877Z</time></trkpt><trkpt lat="42.6686317" lon="-7.8907667"><ele>867.5</ele><time>2026-04-15T13:02:06.877Z</time></trkpt><trkpt lat="42.6684567" lon="-7.8909633"><ele>872.0</ele><time>2026-04-15T13:02:07.878Z</time></trkpt><trkpt lat="42.66827" lon="-7.89114"><ele>872.0</ele><time>2026-04-15T13:02:08.878Z</time></trkpt><trkpt lat="42.668075" lon="-7.8913067"><ele>872.0</ele><time>2026-04-15T13:02:09.877Z</time></trkpt><trkpt lat="42.6678767" lon="-7.8914667"><ele>871.6666666666667</ele><time>2026-04-15T13:02:10.878Z</time></trkpt><trkpt lat="42.6676817" lon="-7.891615"><ele>871.3333333333333</ele><time>2026-04-15T13:02:11.878Z</time></trkpt><trkpt lat="42.6674833" lon="-7.8917567"><ele>871.0</ele><time>2026-04-15T13:02:12.878Z</time></trkpt><trkpt lat="42.667275" lon="-7.8918817"><ele>869.0</ele><time>2026-04-15T13:02:13.878Z</time></trkpt><trkpt lat="42.6670717" lon="-7.8919967"><ele>867.0</ele><time>2026-04-15T13:02:14.878Z</time></trkpt><trkpt lat="42.666865" lon="-7.8920983"><ele>865.0</ele><time>2026-04-15T13:02:15.878Z</time></trkpt><trkpt lat="42.6666583" lon="-7.892195"><ele>864.0</ele><time>2026-04-15T13:02:16.877Z</time></trkpt><trkpt lat="42.666445" lon="-7.8922967"><ele>863.0</ele><time>2026-04-15T13:02:17.877Z</time></trkpt><trkpt lat="42.66623" lon="-7.89239"><ele>865.0</ele><time>2026-04-15T13:02:18.878Z</time></trkpt><trkpt lat="42.6660117" lon="-7.8924867"><ele>867.0</ele><time>2026-04-15T13:02:19.877Z</time></trkpt><trkpt lat="42.665795" lon="-7.89258"><ele>860.5</ele><time>2026-04-15T13:02:20.878Z</time></trkpt><trkpt lat="42.6655633" lon="-7.8926783"><ele>854.0</ele><time>2026-04-15T13:02:21.878Z</time></trkpt><trkpt lat="42.66533" lon="-7.8927783"><ele>854.0</ele><time>2026-04-15T13:02:22.878Z</time></trkpt><trkpt lat="42.6650983" lon="-7.8928783"><ele>854.0</ele><time>2026-04-15T13:02:23.878Z</time></trkpt><trkpt lat="42.6648717" lon="-7.8929683"><ele>854.0</ele><time>2026-04-15T13:02:24.877Z</time></trkpt><trkpt lat="42.6646533" lon="-7.893045"><ele>854.0</ele><time>2026-04-15T13:02:25.878Z</time></trkpt><trkpt lat="42.6644333" lon="-7.8931167"><ele>856.0</ele><time>2026-04-15T13:02:26.877Z</time></trkpt><trkpt lat="42.6642083" lon="-7.89317"><ele>858.0</ele><time>2026-04-15T13:02:27.878Z</time></trkpt><trkpt lat="42.663985" lon="-7.893215"><ele>858.0</ele><time>2026-04-15T13:02:28.878Z</time></trkpt><trkpt lat="42.6637583" lon="-7.8932483"><ele>858.0</ele><time>2026-04-15T13:02:29.878Z</time></trkpt><trkpt lat="42.6635267" lon="-7.8932783"><ele>857.5</ele><time>2026-04-15T13:02:30.877Z</time></trkpt><trkpt lat="42.6632933" lon="-7.893305"><ele>857.0</ele><time>2026-04-15T13:02:31.878Z</time></trkpt><trkpt lat="42.6630583" lon="-7.893335"><ele>857.0</ele><time>2026-04-15T13:02:32.878Z</time></trkpt><trkpt lat="42.662825" lon="-7.89336"><ele>857.0</ele><time>2026-04-15T13:02:33.878Z</time></trkpt><trkpt lat="42.662595" lon="-7.8933983"><ele>851.5</ele><time>2026-04-15T13:02:34.877Z</time></trkpt><trkpt lat="42.66236" lon="-7.8934383"><ele>846.0</ele><time>2026-04-15T13:02:35.877Z</time></trkpt><trkpt lat="42.66213" lon="-7.8935017"><ele>844.0</ele><time>2026-04-15T13:02:36.878Z</time></trkpt><trkpt lat="42.6619017" lon="-7.8935917"><ele>842.0</ele><time>2026-04-15T13:02:37.878Z</time></trkpt><trkpt lat="42.6616817" lon="-7.8937033"><ele>842.0</ele><time>2026-04-15T13:02:38.877Z</time></trkpt><trkpt lat="42.6614717" lon="-7.8938367"><ele>842.0</ele><time>2026-04-15T13:02:39.878Z</time></trkpt><trkpt lat="42.661265" lon="-7.8939883"><ele>843.0</ele><time>2026-04-15T13:02:40.877Z</time></trkpt><trkpt lat="42.6610617" lon="-7.8941467"><ele>844.0</ele><time>2026-04-15T13:02:41.878Z</time></trkpt><trkpt lat="42.6608583" lon="-7.8943067"><ele>841.5</ele><time>2026-04-15T13:02:42.878Z</time></trkpt><trkpt lat="42.6606533" lon="-7.894465"><ele>839.0</ele><time>2026-04-15T13:02:43.877Z</time></trkpt><trkpt lat="42.6604417" lon="-7.8946167"><ele>841.0</ele><time>2026-04-15T13:02:44.877Z</time></trkpt><trkpt lat="42.660235" lon="-7.8947733"><ele>843.0</ele><time>2026-04-15T13:02:45.877Z</time></trkpt><trkpt lat="42.660025" lon="-7.894925"><ele>843.0</ele><time>2026-04-15T13:02:46.877Z</time></trkpt><trkpt lat="42.6598167" lon="-7.8950867"><ele>843.0</ele><time>2026-04-15T13:02:47.878Z</time></trkpt><trkpt lat="42.659605" lon="-7.895245"><ele>840.0</ele><time>2026-04-15T13:02:48.877Z</time></trkpt><trkpt lat="42.6593967" lon="-7.8954083"><ele>837.0</ele><time>2026-04-15T13:02:49.878Z</time></trkpt><trkpt lat="42.659185" lon="-7.8955633"><ele>837.0</ele><time>2026-04-15T13:02:50.878Z</time></trkpt><trkpt lat="42.6589783" lon="-7.8957217"><ele>837.0</ele><time>2026-04-15T13:02:51.877Z</time></trkpt><trkpt lat="42.65877" lon="-7.8958817"><ele>829.5</ele><time>2026-04-15T13:02:52.878Z</time></trkpt><trkpt lat="42.65856" lon="-7.896035"><ele>822.0</ele><time>2026-04-15T13:02:53.878Z</time></trkpt><trkpt lat="42.6583467" lon="-7.8961917"><ele>822.0</ele><time>2026-04-15T13:02:54.878Z</time></trkpt><trkpt lat="42.6581417" lon="-7.8963517"><ele>822.0</ele><time>2026-04-15T13:02:55.878Z</time></trkpt><trkpt lat="42.6579233" lon="-7.8965017"><ele>825.5</ele><time>2026-04-15T13:02:56.877Z</time></trkpt><trkpt lat="42.657705" lon="-7.896655"><ele>829.0</ele><time>2026-04-15T13:02:57.878Z</time></trkpt><trkpt lat="42.6574883" lon="-7.8968133"><ele>821.0</ele><time>2026-04-15T13:02:58.877Z</time></trkpt><trkpt lat="42.657275" lon="-7.8969733"><ele>813.0</ele><time>2026-04-15T13:02:59.877Z</time></trkpt><trkpt lat="42.657065" lon="-7.897125"><ele>817.5</ele><time>2026-04-15T13:03:00.877Z</time></trkpt><trkpt lat="42.656855" lon="-7.8972817"><ele>822.0</ele><time>2026-04-15T13:03:01.878Z</time></trkpt><trkpt lat="42.6566467" lon="-7.897445"><ele>815.0</ele><time>2026-04-15T13:03:02.878Z</time></trkpt><trkpt lat="42.6564333" lon="-7.8976"><ele>808.0</ele><time>2026-04-15T13:03:03.877Z</time></trkpt><trkpt lat="42.6562267" lon="-7.8977583"><ele>806.5</ele><time>2026-04-15T13:03:04.878Z</time></trkpt><trkpt lat="42.6560233" lon="-7.89792"><ele>805.0</ele><time>2026-04-15T13:03:05.877Z</time></trkpt><trkpt lat="42.6558167" lon="-7.8980817"><ele>805.0</ele><time>2026-04-15T13:03:06.878Z</time></trkpt><trkpt lat="42.6556083" lon="-7.8982433"><ele>805.0</ele><time>2026-04-15T13:03:07.877Z</time></trkpt><trkpt lat="42.6554" lon="-7.8984017"><ele>799.0</ele><time>2026-04-15T13:03:08.878Z</time></trkpt><trkpt lat="42.6551933" lon="-7.8985733"><ele>793.0</ele><time>2026-04-15T13:03:09.878Z</time></trkpt><trkpt lat="42.65499" lon="-7.898755"><ele>793.0</ele><time>2026-04-15T13:03:10.878Z</time></trkpt><trkpt lat="42.6547983" lon="-7.8989517"><ele>793.0</ele><time>2026-04-15T13:03:11.877Z</time></trkpt><trkpt lat="42.6546183" lon="-7.899165"><ele>792.5</ele><time>2026-04-15T13:03:12.877Z</time></trkpt><trkpt lat="42.65445" lon="-7.8993933"><ele>792.0</ele><time>2026-04-15T13:03:13.877Z</time></trkpt><trkpt lat="42.65429" lon="-7.8996317"><ele>792.0</ele><time>2026-04-15T13:03:14.877Z</time></trkpt><trkpt lat="42.654135" lon="-7.8998767"><ele>792.0</ele><time>2026-04-15T13:03:15.878Z</time></trkpt><trkpt lat="42.653985" lon="-7.9001233"><ele>785.0</ele><time>2026-04-15T13:03:16.877Z</time></trkpt><trkpt lat="42.653835" lon="-7.9003683"><ele>778.0</ele><time>2026-04-15T13:03:17.877Z</time></trkpt><trkpt lat="42.65368" lon="-7.90061"><ele>779.5</ele><time>2026-04-15T13:03:18.878Z</time></trkpt><trkpt lat="42.653525" lon="-7.9008467"><ele>781.0</ele><time>2026-04-15T13:03:19.878Z</time></trkpt><trkpt lat="42.6533583" lon="-7.9010967"><ele>781.0</ele><time>2026-04-15T13:03:20.877Z</time></trkpt><trkpt lat="42.6531883" lon="-7.9013383"><ele>781.0</ele><time>2026-04-15T13:03:21.878Z</time></trkpt><trkpt lat="42.65301" lon="-7.901565"><ele>779.0</ele><time>2026-04-15T13:03:22.878Z</time></trkpt><trkpt lat="42.6528267" lon="-7.9017717"><ele>777.0</ele><time>2026-04-15T13:03:23.878Z</time></trkpt><trkpt lat="42.652635" lon="-7.9019633"><ele>777.0</ele><time>2026-04-15T13:03:24.877Z</time></trkpt><trkpt lat="42.6524283" lon="-7.902135"><ele>777.0</ele><time>2026-04-15T13:03:25.878Z</time></trkpt><trkpt lat="42.652215" lon="-7.9022967"><ele>777.0</ele><time>2026-04-15T13:03:26.877Z</time></trkpt><trkpt lat="42.652" lon="-7.9024517"><ele>777.0</ele><time>2026-04-15T13:03:27.877Z</time></trkpt><trkpt lat="42.6517883" lon="-7.9026133"><ele>772.5</ele><time>2026-04-15T13:03:28.877Z</time></trkpt><trkpt lat="42.6515867" lon="-7.902785"><ele>768.0</ele><time>2026-04-15T13:03:29.877Z</time></trkpt><trkpt lat="42.6513967" lon="-7.9029717"><ele>768.0</ele><time>2026-04-15T13:03:30.877Z</time></trkpt><trkpt lat="42.651215" lon="-7.903175"><ele>768.0</ele><time>2026-04-15T13:03:31.878Z</time></trkpt><trkpt lat="42.6510417" lon="-7.9034"><ele>765.0</ele><time>2026-04-15T13:03:32.877Z</time></trkpt><trkpt lat="42.650875" lon="-7.903645"><ele>762.0</ele><time>2026-04-15T13:03:33.877Z</time></trkpt><trkpt lat="42.65073" lon="-7.9039033"><ele>762.0</ele><time>2026-04-15T13:03:34.878Z</time></trkpt><trkpt lat="42.65061" lon="-7.9041833"><ele>762.0</ele><time>2026-04-15T13:03:35.878Z</time></trkpt><trkpt lat="42.6505083" lon="-7.904475"><ele>756.5</ele><time>2026-04-15T13:03:36.877Z</time></trkpt><trkpt lat="42.6504083" lon="-7.9047633"><ele>751.0</ele><time>2026-04-15T13:03:37.877Z</time></trkpt><trkpt lat="42.6503083" lon="-7.9050567"><ele>751.5</ele><time>2026-04-15T13:03:38.877Z</time></trkpt><trkpt lat="42.6502033" lon="-7.9053567"><ele>752.0</ele><time>2026-04-15T13:03:39.878Z</time></trkpt><trkpt lat="42.6501033" lon="-7.9056533"><ele>748.5</ele><time>2026-04-15T13:03:40.878Z</time></trkpt><trkpt lat="42.6500117" lon="-7.9059533"><ele>745.0</ele><time>2026-04-15T13:03:41.877Z</time></trkpt><trkpt lat="42.6499033" lon="-7.90625"><ele>745.0</ele><time>2026-04-15T13:03:42.877Z</time></trkpt><trkpt lat="42.649805" lon="-7.9065533"><ele>745.0</ele><time>2026-04-15T13:03:43.877Z</time></trkpt><trkpt lat="42.6497" lon="-7.9068533"><ele>743.0</ele><time>2026-04-15T13:03:44.878Z</time></trkpt><trkpt lat="42.649595" lon="-7.907145"><ele>741.0</ele><time>2026-04-15T13:03:45.878Z</time></trkpt><trkpt lat="42.6495" lon="-7.907435"><ele>742.5</ele><time>2026-04-15T13:03:46.878Z</time></trkpt><trkpt lat="42.649405" lon="-7.907725"><ele>744.0</ele><time>2026-04-15T13:03:47.877Z</time></trkpt><trkpt lat="42.6493067" lon="-7.9080167"><ele>744.0</ele><time>2026-04-15T13:03:48.878Z</time></trkpt><trkpt lat="42.649215" lon="-7.9083083"><ele>744.0</ele><time>2026-04-15T13:03:49.878Z</time></trkpt><trkpt lat="42.649135" lon="-7.90861"><ele>741.5</ele><time>2026-04-15T13:03:50.877Z</time></trkpt><trkpt lat="42.649065" lon="-7.9089167"><ele>739.0</ele><time>2026-04-15T13:03:51.878Z</time></trkpt><trkpt lat="42.6490133" lon="-7.9092183"><ele>736.5</ele><time>2026-04-15T13:03:52.878Z</time></trkpt><trkpt lat="42.6489633" lon="-7.90953"><ele>734.0</ele><time>2026-04-15T13:03:53.877Z</time></trkpt><trkpt lat="42.64893" lon="-7.90984"><ele>732.5</ele><time>2026-04-15T13:03:54.878Z</time></trkpt><trkpt lat="42.648905" lon="-7.9101567"><ele>731.0</ele><time>2026-04-15T13:03:55.878Z</time></trkpt><trkpt lat="42.648895" lon="-7.9104733"><ele>731.0</ele><time>2026-04-15T13:03:56.878Z</time></trkpt><trkpt lat="42.64889" lon="-7.9107833"><ele>731.0</ele><time>2026-04-15T13:03:57.878Z</time></trkpt><trkpt lat="42.6488917" lon="-7.9111017"><ele>728.5</ele><time>2026-04-15T13:03:58.877Z</time></trkpt><trkpt lat="42.6489083" lon="-7.9114183"><ele>726.0</ele><time>2026-04-15T13:03:59.878Z</time></trkpt><trkpt lat="42.64893" lon="-7.911735"><ele>724.0</ele><time>2026-04-15T13:04:00.878Z</time></trkpt><trkpt lat="42.6489617" lon="-7.912045"><ele>722.0</ele><time>2026-04-15T13:04:01.877Z</time></trkpt><trkpt lat="42.6489883" lon="-7.9123533"><ele>721.5</ele><time>2026-04-15T13:04:02.877Z</time></trkpt><trkpt lat="42.6490183" lon="-7.9126717"><ele>721.0</ele><time>2026-04-15T13:04:03.877Z</time></trkpt><trkpt lat="42.649045" lon="-7.9129783"><ele>721.0</ele><time>2026-04-15T13:04:04.877Z</time></trkpt><trkpt lat="42.6490717" lon="-7.9132917"><ele>721.0</ele><time>2026-04-15T13:04:05.877Z</time></trkpt><trkpt lat="42.6490983" lon="-7.9135983"><ele>719.5</ele><time>2026-04-15T13:04:06.878Z</time></trkpt><trkpt lat="42.6491183" lon="-7.91391"><ele>718.0</ele><time>2026-04-15T13:04:07.878Z</time></trkpt><trkpt lat="42.649145" lon="-7.9142233"><ele>717.0</ele><time>2026-04-15T13:04:08.878Z</time></trkpt><trkpt lat="42.649165" lon="-7.9145417"><ele>716.0</ele><time>2026-04-15T13:04:09.878Z</time></trkpt><trkpt lat="42.649175" lon="-7.914855"><ele>714.5</ele><time>2026-04-15T13:04:10.878Z</time></trkpt><trkpt lat="42.6491733" lon="-7.9151733"><ele>713.0</ele><time>2026-04-15T13:04:11.877Z</time></trkpt><trkpt lat="42.6491533" lon="-7.9154917"><ele>713.0</ele><time>2026-04-15T13:04:12.877Z</time></trkpt><trkpt lat="42.6491133" lon="-7.9157983"><ele>713.0</ele><time>2026-04-15T13:04:13.878Z</time></trkpt><trkpt lat="42.6490483" lon="-7.916105"><ele>709.5</ele><time>2026-04-15T13:04:14.878Z</time></trkpt><trkpt lat="42.64897" lon="-7.916405"><ele>706.0</ele><time>2026-04-15T13:04:15.878Z</time></trkpt><trkpt lat="42.6488733" lon="-7.9166933"><ele>705.0</ele><time>2026-04-15T13:04:16.877Z</time></trkpt><trkpt lat="42.64877" lon="-7.9169817"><ele>704.0</ele><time>2026-04-15T13:04:17.878Z</time></trkpt><trkpt lat="42.6486633" lon="-7.91727"><ele>703.6666666666666</ele><time>2026-04-15T13:04:18.877Z</time></trkpt><trkpt lat="42.6485583" lon="-7.91755"><ele>703.3333333333334</ele><time>2026-04-15T13:04:19.877Z</time></trkpt><trkpt lat="42.6484667" lon="-7.9178133"><ele>703.0</ele><time>2026-04-15T13:04:20.878Z</time></trkpt><trkpt lat="42.648375" lon="-7.918065"><ele>703.0</ele><time>2026-04-15T13:04:21.877Z</time></trkpt><trkpt lat="42.648285" lon="-7.9183033"><ele>703.0</ele><time>2026-04-15T13:04:22.877Z</time></trkpt><trkpt lat="42.648205" lon="-7.9185583"><ele>703.0</ele><time>2026-04-15T13:04:23.877Z</time></trkpt><trkpt lat="42.64814" lon="-7.9188283"><ele>702.0</ele><time>2026-04-15T13:04:24.877Z</time></trkpt><trkpt lat="42.6480867" lon="-7.9190967"><ele>701.0</ele><time>2026-04-15T13:04:25.877Z</time></trkpt><trkpt lat="42.648055" lon="-7.9193567"><ele>700.0</ele><time>2026-04-15T13:04:26.878Z</time></trkpt><trkpt lat="42.64803" lon="-7.919615"><ele>699.6666666666667</ele><time>2026-04-15T13:04:27.877Z</time></trkpt><trkpt lat="42.6479967" lon="-7.91986"><ele>699.3333333333334</ele><time>2026-04-15T13:04:28.878Z</time></trkpt><trkpt lat="42.64798" lon="-7.9200883"><ele>699.0</ele><time>2026-04-15T13:04:29.877Z</time></trkpt><trkpt lat="42.64796" lon="-7.9203217"><ele>699.0</ele><time>2026-04-15T13:04:30.877Z</time></trkpt><trkpt lat="42.647945" lon="-7.9205517"><ele>699.0</ele><time>2026-04-15T13:04:31.878Z</time></trkpt><trkpt lat="42.6479267" lon="-7.9207933"><ele>699.0</ele><time>2026-04-15T13:04:32.877Z</time></trkpt><trkpt lat="42.6479033" lon="-7.9210483"><ele>699.0</ele><time>2026-04-15T13:04:33.878Z</time></trkpt><trkpt lat="42.6478767" lon="-7.921305"><ele>699.0</ele><time>2026-04-15T13:04:34.878Z</time></trkpt><trkpt lat="42.6478517" lon="-7.9215783"><ele>699.0</ele><time>2026-04-15T13:04:35.877Z</time></trkpt><trkpt lat="42.6478217" lon="-7.92186"><ele>699.3333333333334</ele><time>2026-04-15T13:04:36.877Z</time></trkpt><trkpt lat="42.6477967" lon="-7.9221433"><ele>699.6666666666667</ele><time>2026-04-15T13:04:37.878Z</time></trkpt><trkpt lat="42.6477683" lon="-7.92244"><ele>700.0</ele><time>2026-04-15T13:04:38.877Z</time></trkpt><trkpt lat="42.6477433" lon="-7.9227483"><ele>700.3333333333334</ele><time>2026-04-15T13:04:39.877Z</time></trkpt><trkpt lat="42.647715" lon="-7.92305"><ele>700.6666666666666</ele><time>2026-04-15T13:04:40.877Z</time></trkpt><trkpt lat="42.647675" lon="-7.92335"><ele>701.0</ele><time>2026-04-15T13:04:41.877Z</time></trkpt><trkpt lat="42.64764" lon="-7.9236417"><ele>701.0</ele><time>2026-04-15T13:04:42.877Z</time></trkpt><trkpt lat="42.6476133" lon="-7.9239317"><ele>701.0</ele><time>2026-04-15T13:04:43.877Z</time></trkpt><trkpt lat="42.6475933" lon="-7.9242233"><ele>701.0</ele><time>2026-04-15T13:04:44.877Z</time></trkpt><trkpt lat="42.647565" lon="-7.9245017"><ele>700.3333333333333</ele><time>2026-04-15T13:04:45.877Z</time></trkpt><trkpt lat="42.6475433" lon="-7.9247883"><ele>699.6666666666666</ele><time>2026-04-15T13:04:46.877Z</time></trkpt><trkpt lat="42.6475217" lon="-7.9250683"><ele>699.0</ele><time>2026-04-15T13:04:47.877Z</time></trkpt><trkpt lat="42.6474983" lon="-7.9253417"><ele>698.6666666666666</ele><time>2026-04-15T13:04:48.878Z</time></trkpt><trkpt lat="42.6474683" lon="-7.92561"><ele>698.3333333333333</ele><time>2026-04-15T13:04:49.878Z</time></trkpt><trkpt lat="42.6474383" lon="-7.9258767"><ele>698.0</ele><time>2026-04-15T13:04:50.877Z</time></trkpt><trkpt lat="42.64741" lon="-7.9261433"><ele>697.6666666666666</ele><time>2026-04-15T13:04:51.878Z</time></trkpt><trkpt lat="42.647385" lon="-7.926405"><ele>697.3333333333334</ele><time>2026-04-15T13:04:52.878Z</time></trkpt><trkpt lat="42.6473617" lon="-7.9266683"><ele>697.0</ele><time>2026-04-15T13:04:53.877Z</time></trkpt><trkpt lat="42.6473333" lon="-7.9269367"><ele>696.3333333333334</ele><time>2026-04-15T13:04:54.878Z</time></trkpt><trkpt lat="42.647305" lon="-7.9272017"><ele>695.6666666666666</ele><time>2026-04-15T13:04:55.877Z</time></trkpt><trkpt lat="42.6472767" lon="-7.9274733"><ele>695.0</ele><time>2026-04-15T13:04:56.878Z</time></trkpt><trkpt lat="42.64725" lon="-7.92774"><ele>693.3333333333333</ele><time>2026-04-15T13:04:57.877Z</time></trkpt><trkpt lat="42.647225" lon="-7.9280067"><ele>691.6666666666666</ele><time>2026-04-15T13:04:58.877Z</time></trkpt><trkpt lat="42.6471967" lon="-7.92828"><ele>690.0</ele><time>2026-04-15T13:04:59.878Z</time></trkpt><trkpt lat="42.6471717" lon="-7.9285567"><ele>690.0</ele><time>2026-04-15T13:05:00.877Z</time></trkpt><trkpt lat="42.64715" lon="-7.9288267"><ele>690.0</ele><time>2026-04-15T13:05:01.877Z</time></trkpt><trkpt lat="42.647125" lon="-7.9290867"><ele>690.0</ele><time>2026-04-15T13:05:02.878Z</time></trkpt><trkpt lat="42.6471033" lon="-7.929345"><ele>690.0</ele><time>2026-04-15T13:05:03.877Z</time></trkpt><trkpt lat="42.64708" lon="-7.9296017"><ele>690.0</ele><time>2026-04-15T13:05:04.878Z</time></trkpt><trkpt lat="42.6470517" lon="-7.9298583"><ele>690.0</ele><time>2026-04-15T13:05:05.877Z</time></trkpt><trkpt lat="42.6470333" lon="-7.93012"><ele>689.6666666666666</ele><time>2026-04-15T13:05:06.878Z</time></trkpt><trkpt lat="42.6470117" lon="-7.930375"><ele>689.3333333333333</ele><time>2026-04-15T13:05:07.877Z</time></trkpt><trkpt lat="42.6469867" lon="-7.9306183"><ele>689.0</ele><time>2026-04-15T13:05:08.877Z</time></trkpt><trkpt lat="42.6469683" lon="-7.930855"><ele>690.3333333333333</ele><time>2026-04-15T13:05:09.878Z</time></trkpt><trkpt lat="42.64695" lon="-7.93109"><ele>691.6666666666666</ele><time>2026-04-15T13:05:10.877Z</time></trkpt><trkpt lat="42.646925" lon="-7.9313217"><ele>693.0</ele><time>2026-04-15T13:05:11.878Z</time></trkpt><trkpt lat="42.6468967" lon="-7.9315567"><ele>691.0</ele><time>2026-04-15T13:05:12.877Z</time></trkpt><trkpt lat="42.646855" lon="-7.93179"><ele>689.0</ele><time>2026-04-15T13:05:13.878Z</time></trkpt><trkpt lat="42.646815" lon="-7.93203"><ele>687.0</ele><time>2026-04-15T13:05:14.877Z</time></trkpt><trkpt lat="42.6467583" lon="-7.93227"><ele>687.0</ele><time>2026-04-15T13:05:15.878Z</time></trkpt><trkpt lat="42.646695" lon="-7.9325067"><ele>687.0</ele><time>2026-04-15T13:05:16.878Z</time></trkpt><trkpt lat="42.64662" lon="-7.9327267"><ele>687.0</ele><time>2026-04-15T13:05:17.877Z</time></trkpt><trkpt lat="42.646545" lon="-7.9329433"><ele>686.6666666666666</ele><time>2026-04-15T13:05:18.877Z</time></trkpt><trkpt lat="42.6464783" lon="-7.9331633"><ele>686.3333333333333</ele><time>2026-04-15T13:05:19.878Z</time></trkpt><trkpt lat="42.6464067" lon="-7.9333833"><ele>686.0</ele><time>2026-04-15T13:05:20.878Z</time></trkpt><trkpt lat="42.64633" lon="-7.93361"><ele>686.0</ele><time>2026-04-15T13:05:21.877Z</time></trkpt><trkpt lat="42.6462483" lon="-7.93384"><ele>686.0</ele><time>2026-04-15T13:05:22.878Z</time></trkpt><trkpt lat="42.646175" lon="-7.934075"><ele>686.0</ele><time>2026-04-15T13:05:23.878Z</time></trkpt><trkpt lat="42.646105" lon="-7.934325"><ele>686.0</ele><time>2026-04-15T13:05:24.877Z</time></trkpt><trkpt lat="42.6460467" lon="-7.934585"><ele>686.0</ele><time>2026-04-15T13:05:25.877Z</time></trkpt><trkpt lat="42.6460017" lon="-7.9348667"><ele>686.0</ele><time>2026-04-15T13:05:26.877Z</time></trkpt><trkpt lat="42.6459733" lon="-7.9351617"><ele>685.5</ele><time>2026-04-15T13:05:27.877Z</time></trkpt><trkpt lat="42.6459517" lon="-7.9354683"><ele>685.0</ele><time>2026-04-15T13:05:28.877Z</time></trkpt><trkpt lat="42.64594" lon="-7.9357733"><ele>684.0</ele><time>2026-04-15T13:05:29.878Z</time></trkpt><trkpt lat="42.6459283" lon="-7.93608"><ele>683.0</ele><time>2026-04-15T13:05:30.877Z</time></trkpt><trkpt lat="42.6459217" lon="-7.93639"><ele>683.0</ele><time>2026-04-15T13:05:31.877Z</time></trkpt><trkpt lat="42.6459067" lon="-7.936695"><ele>683.0</ele><time>2026-04-15T13:05:32.877Z</time></trkpt><trkpt lat="42.6458967" lon="-7.9370017"><ele>682.3333333333333</ele><time>2026-04-15T13:05:33.877Z</time></trkpt><trkpt lat="42.6458783" lon="-7.9372983"><ele>681.6666666666666</ele><time>2026-04-15T13:05:34.878Z</time></trkpt><trkpt lat="42.6458567" lon="-7.937575"><ele>681.0</ele><time>2026-04-15T13:05:35.877Z</time></trkpt><trkpt lat="42.6458367" lon="-7.9378433"><ele>678.3333333333334</ele><time>2026-04-15T13:05:36.878Z</time></trkpt><trkpt lat="42.645815" lon="-7.9381017"><ele>675.6666666666667</ele><time>2026-04-15T13:05:37.877Z</time></trkpt><trkpt lat="42.6458133" lon="-7.938365"><ele>673.0</ele><time>2026-04-15T13:05:38.877Z</time></trkpt><trkpt lat="42.6458217" lon="-7.9386367"><ele>673.0</ele><time>2026-04-15T13:05:39.878Z</time></trkpt><trkpt lat="42.64583" lon="-7.93889"><ele>673.0</ele><time>2026-04-15T13:05:40.877Z</time></trkpt><trkpt lat="42.64584" lon="-7.9391283"><ele>673.0</ele><time>2026-04-15T13:05:41.878Z</time></trkpt><trkpt lat="42.6458633" lon="-7.9393533"><ele>673.0</ele><time>2026-04-15T13:05:42.878Z</time></trkpt><trkpt lat="42.6458967" lon="-7.939555"><ele>673.0</ele><time>2026-04-15T13:05:43.877Z</time></trkpt><trkpt lat="42.6459333" lon="-7.93975"><ele>673.0</ele><time>2026-04-15T13:05:44.878Z</time></trkpt><trkpt lat="42.6459883" lon="-7.939955"><ele>672.0</ele><time>2026-04-15T13:05:45.877Z</time></trkpt><trkpt lat="42.646055" lon="-7.940165"><ele>671.0</ele><time>2026-04-15T13:05:46.878Z</time></trkpt><trkpt lat="42.6461333" lon="-7.94038"><ele>670.0</ele><time>2026-04-15T13:05:47.877Z</time></trkpt><trkpt lat="42.646215" lon="-7.9405817"><ele>670.0</ele><time>2026-04-15T13:05:48.878Z</time></trkpt><trkpt lat="42.646305" lon="-7.9407867"><ele>670.0</ele><time>2026-04-15T13:05:49.877Z</time></trkpt><trkpt lat="42.6464133" lon="-7.940985"><ele>670.0</ele><time>2026-04-15T13:05:50.877Z</time></trkpt><trkpt lat="42.6465367" lon="-7.9411783"><ele>671.3333333333334</ele><time>2026-04-15T13:05:51.877Z</time></trkpt><trkpt lat="42.6466583" lon="-7.94138"><ele>672.6666666666666</ele><time>2026-04-15T13:05:52.878Z</time></trkpt><trkpt lat="42.6467733" lon="-7.9415667"><ele>674.0</ele><time>2026-04-15T13:05:53.877Z</time></trkpt><trkpt lat="42.64687" lon="-7.9417417"><ele>674.0</ele><time>2026-04-15T13:05:54.877Z</time></trkpt><trkpt lat="42.64694" lon="-7.9419117"><ele>674.0</ele><time>2026-04-15T13:05:55.877Z</time></trkpt><trkpt lat="42.64698" lon="-7.94207"><ele>674.0</ele><time>2026-04-15T13:05:56.878Z</time></trkpt><trkpt lat="42.6469767" lon="-7.9422183"><ele>674.0</ele><time>2026-04-15T13:05:57.877Z</time></trkpt><trkpt lat="42.6469367" lon="-7.9423533"><ele>674.0</ele><time>2026-04-15T13:05:58.877Z</time></trkpt><trkpt lat="42.6468717" lon="-7.942475"><ele>674.0</ele><time>2026-04-15T13:05:59.878Z</time></trkpt><trkpt lat="42.646805" lon="-7.9426183"><ele>674.0</ele><time>2026-04-15T13:06:00.878Z</time></trkpt><trkpt lat="42.6467367" lon="-7.942765"><ele>674.0</ele><time>2026-04-15T13:06:01.877Z</time></trkpt><trkpt lat="42.646665" lon="-7.9429217"><ele>672.6666666666666</ele><time>2026-04-15T13:06:02.878Z</time></trkpt><trkpt lat="42.6465833" lon="-7.9430917"><ele>671.3333333333334</ele><time>2026-04-15T13:06:03.878Z</time></trkpt><trkpt lat="42.6465067" lon="-7.9432683"><ele>670.0</ele><time>2026-04-15T13:06:04.877Z</time></trkpt><trkpt lat="42.6464267" lon="-7.9434433"><ele>668.25</ele><time>2026-04-15T13:06:05.877Z</time></trkpt><trkpt lat="42.6463533" lon="-7.9436117"><ele>666.5</ele><time>2026-04-15T13:06:06.878Z</time></trkpt><trkpt lat="42.6462833" lon="-7.9437733"><ele>664.75</ele><time>2026-04-15T13:06:07.877Z</time></trkpt><trkpt lat="42.6462167" lon="-7.9439433"><ele>663.0</ele><time>2026-04-15T13:06:08.878Z</time></trkpt><trkpt lat="42.6461633" lon="-7.9441283"><ele>662.5</ele><time>2026-04-15T13:06:09.877Z</time></trkpt><trkpt lat="42.6461233" lon="-7.94432"><ele>662.0</ele><time>2026-04-15T13:06:10.877Z</time></trkpt><trkpt lat="42.6460867" lon="-7.94451"><ele>661.5</ele><time>2026-04-15T13:06:11.877Z</time></trkpt><trkpt lat="42.6460617" lon="-7.944695"><ele>661.0</ele><time>2026-04-15T13:06:12.878Z</time></trkpt><trkpt lat="42.6460533" lon="-7.9448617"><ele>661.0</ele><time>2026-04-15T13:06:13.878Z</time></trkpt><trkpt lat="42.64607" lon="-7.9450217"><ele>661.0</ele><time>2026-04-15T13:06:14.878Z</time></trkpt><trkpt lat="42.6461433" lon="-7.9451517"><ele>661.0</ele><time>2026-04-15T13:06:15.878Z</time></trkpt><trkpt lat="42.6462583" lon="-7.9452333"><ele>661.0</ele><time>2026-04-15T13:06:16.877Z</time></trkpt><trkpt lat="42.6463967" lon="-7.945285"><ele>659.6666666666667</ele><time>2026-04-15T13:06:17.878Z</time></trkpt><trkpt lat="42.646545" lon="-7.9453233"><ele>658.3333333333334</ele><time>2026-04-15T13:06:18.878Z</time></trkpt><trkpt lat="42.6466883" lon="-7.945375"><ele>657.0</ele><time>2026-04-15T13:06:19.877Z</time></trkpt><trkpt lat="42.646845" lon="-7.9454383"><ele>655.75</ele><time>2026-04-15T13:06:20.877Z</time></trkpt><trkpt lat="42.6469883" lon="-7.9455033"><ele>654.5</ele><time>2026-04-15T13:06:21.877Z</time></trkpt><trkpt lat="42.6471317" lon="-7.945565"><ele>653.25</ele><time>2026-04-15T13:06:22.878Z</time></trkpt><trkpt lat="42.6472683" lon="-7.94562"><ele>652.0</ele><time>2026-04-15T13:06:23.877Z</time></trkpt><trkpt lat="42.6474" lon="-7.94568"><ele>652.0</ele><time>2026-04-15T13:06:24.878Z</time></trkpt><trkpt lat="42.6475133" lon="-7.9457483"><ele>652.0</ele><time>2026-04-15T13:06:25.878Z</time></trkpt><trkpt lat="42.6476233" lon="-7.94584"><ele>652.0</ele><time>2026-04-15T13:06:26.878Z</time></trkpt><trkpt lat="42.6477167" lon="-7.9459383"><ele>652.0</ele><time>2026-04-15T13:06:27.878Z</time></trkpt><trkpt lat="42.6478017" lon="-7.9460567"><ele>650.75</ele><time>2026-04-15T13:06:28.878Z</time></trkpt><trkpt lat="42.64788" lon="-7.94618"><ele>649.5</ele><time>2026-04-15T13:06:29.878Z</time></trkpt><trkpt lat="42.6479567" lon="-7.9463067"><ele>648.25</ele><time>2026-04-15T13:06:30.878Z</time></trkpt><trkpt lat="42.6480383" lon="-7.9464483"><ele>647.0</ele><time>2026-04-15T13:06:31.877Z</time></trkpt><trkpt lat="42.6481217" lon="-7.9465917"><ele>646.75</ele><time>2026-04-15T13:06:32.877Z</time></trkpt><trkpt lat="42.6482117" lon="-7.9467367"><ele>646.5</ele><time>2026-04-15T13:06:33.878Z</time></trkpt><trkpt lat="42.648295" lon="-7.946875"><ele>646.25</ele><time>2026-04-15T13:06:34.878Z</time></trkpt><trkpt lat="42.64838" lon="-7.947005"><ele>646.0</ele><time>2026-04-15T13:06:35.878Z</time></trkpt><trkpt lat="42.64846" lon="-7.94713"><ele>646.0</ele><time>2026-04-15T13:06:36.878Z</time></trkpt><trkpt lat="42.6485317" lon="-7.9472483"><ele>646.0</ele><time>2026-04-15T13:06:37.878Z</time></trkpt><trkpt lat="42.6486" lon="-7.9473617"><ele>646.0</ele><time>2026-04-15T13:06:38.878Z</time></trkpt><trkpt lat="42.648675" lon="-7.9474783"><ele>646.0</ele><time>2026-04-15T13:06:39.878Z</time></trkpt><trkpt lat="42.6487433" lon="-7.9475933"><ele>646.0</ele><time>2026-04-15T13:06:40.877Z</time></trkpt><trkpt lat="42.6487983" lon="-7.947715"><ele>644.1999999999999</ele><time>2026-04-15T13:06:41.877Z</time></trkpt><trkpt lat="42.6488567" lon="-7.9478167"><ele>642.4</ele><time>2026-04-15T13:06:42.877Z</time></trkpt><trkpt lat="42.64891" lon="-7.947915"><ele>640.6</ele><time>2026-04-15T13:06:43.878Z</time></trkpt><trkpt lat="42.648975" lon="-7.948005"><ele>638.8</ele><time>2026-04-15T13:06:44.878Z</time></trkpt><trkpt lat="42.64906" lon="-7.948095"><ele>637.0</ele><time>2026-04-15T13:06:45.877Z</time></trkpt><trkpt lat="42.649115" lon="-7.9481967"><ele>637.0</ele><time>2026-04-15T13:06:46.877Z</time></trkpt><trkpt lat="42.64913" lon="-7.9483233"><ele>637.0</ele><time>2026-04-15T13:06:47.877Z</time></trkpt><trkpt lat="42.6491317" lon="-7.94847"><ele>637.0</ele><time>2026-04-15T13:06:48.878Z</time></trkpt><trkpt lat="42.64913" lon="-7.94863"><ele>637.0</ele><time>2026-04-15T13:06:49.878Z</time></trkpt><trkpt lat="42.6491317" lon="-7.9488217"><ele>636.0</ele><time>2026-04-15T13:06:50.877Z</time></trkpt><trkpt lat="42.649135" lon="-7.94901"><ele>635.0</ele><time>2026-04-15T13:06:51.877Z</time></trkpt><trkpt lat="42.6491317" lon="-7.9492117"><ele>634.0</ele><time>2026-04-15T13:06:52.877Z</time></trkpt><trkpt lat="42.64913" lon="-7.9494133"><ele>633.0</ele><time>2026-04-15T13:06:53.877Z</time></trkpt><trkpt lat="42.6491283" lon="-7.949625"><ele>632.3333333333334</ele><time>2026-04-15T13:06:54.877Z</time></trkpt><trkpt lat="42.6491083" lon="-7.9498267"><ele>631.6666666666667</ele><time>2026-04-15T13:06:55.877Z</time></trkpt><trkpt lat="42.6490883" lon="-7.95003"><ele>631.0</ele><time>2026-04-15T13:06:56.877Z</time></trkpt><trkpt lat="42.6490683" lon="-7.950235"><ele>630.5</ele><time>2026-04-15T13:06:57.878Z</time></trkpt><trkpt lat="42.6490633" lon="-7.950435"><ele>630.0</ele><time>2026-04-15T13:06:58.878Z</time></trkpt><trkpt lat="42.649055" lon="-7.9506367"><ele>629.5</ele><time>2026-04-15T13:06:59.878Z</time></trkpt><trkpt lat="42.6490733" lon="-7.9508333"><ele>629.0</ele><time>2026-04-15T13:07:00.878Z</time></trkpt><trkpt lat="42.649085" lon="-7.9510317"><ele>629.0</ele><time>2026-04-15T13:07:01.878Z</time></trkpt><trkpt lat="42.649085" lon="-7.9512233"><ele>629.0</ele><time>2026-04-15T13:07:02.877Z</time></trkpt><trkpt lat="42.649085" lon="-7.9514133"><ele>629.0</ele><time>2026-04-15T13:07:03.877Z</time></trkpt><trkpt lat="42.6491133" lon="-7.9516017"><ele>629.0</ele><time>2026-04-15T13:07:04.877Z</time></trkpt><trkpt lat="42.6491367" lon="-7.9517967"><ele>628.75</ele><time>2026-04-15T13:07:05.878Z</time></trkpt><trkpt lat="42.6491767" lon="-7.9519783"><ele>628.5</ele><time>2026-04-15T13:07:06.877Z</time></trkpt><trkpt lat="42.6492367" lon="-7.952155"><ele>628.25</ele><time>2026-04-15T13:07:07.877Z</time></trkpt><trkpt lat="42.6493167" lon="-7.9523283"><ele>628.0</ele><time>2026-04-15T13:07:08.878Z</time></trkpt><trkpt lat="42.6493983" lon="-7.9525067"><ele>630.5</ele><time>2026-04-15T13:07:09.878Z</time></trkpt><trkpt lat="42.649465" lon="-7.9526867"><ele>633.0</ele><time>2026-04-15T13:07:10.878Z</time></trkpt><trkpt lat="42.6495133" lon="-7.9528767"><ele>635.5</ele><time>2026-04-15T13:07:11.878Z</time></trkpt><trkpt lat="42.6495417" lon="-7.9530667"><ele>638.0</ele><time>2026-04-15T13:07:12.877Z</time></trkpt><trkpt lat="42.6495433" lon="-7.9532667"><ele>639.0</ele><time>2026-04-15T13:07:13.878Z</time></trkpt><trkpt lat="42.6495417" lon="-7.95347"><ele>640.0</ele><time>2026-04-15T13:07:14.878Z</time></trkpt><trkpt lat="42.6494933" lon="-7.9536717"><ele>641.0</ele><time>2026-04-15T13:07:15.877Z</time></trkpt><trkpt lat="42.6494583" lon="-7.9538733"><ele>637.3333333333333</ele><time>2026-04-15T13:07:16.877Z</time></trkpt><trkpt lat="42.649415" lon="-7.9540833"><ele>633.6666666666666</ele><time>2026-04-15T13:07:17.877Z</time></trkpt><trkpt lat="42.6493633" lon="-7.9542917"><ele>630.0</ele><time>2026-04-15T13:07:18.877Z</time></trkpt><trkpt lat="42.64931" lon="-7.9545017"><ele>630.0</ele><time>2026-04-15T13:07:19.877Z</time></trkpt><trkpt lat="42.6492183" lon="-7.95469"><ele>630.0</ele><time>2026-04-15T13:07:20.877Z</time></trkpt><trkpt lat="42.6491183" lon="-7.954875"><ele>630.0</ele><time>2026-04-15T13:07:21.877Z</time></trkpt><trkpt lat="42.649035" lon="-7.9550667"><ele>632.3333333333334</ele><time>2026-04-15T13:07:22.877Z</time></trkpt><trkpt lat="42.6489667" lon="-7.9552683"><ele>634.6666666666667</ele><time>2026-04-15T13:07:23.878Z</time></trkpt><trkpt lat="42.648915" lon="-7.95548"><ele>637.0</ele><time>2026-04-15T13:07:24.878Z</time></trkpt><trkpt lat="42.6488717" lon="-7.9557017"><ele>638.0</ele><time>2026-04-15T13:07:25.877Z</time></trkpt><trkpt lat="42.6488333" lon="-7.955925"><ele>639.0</ele><time>2026-04-15T13:07:26.877Z</time></trkpt><trkpt lat="42.6487867" lon="-7.9561517"><ele>640.0</ele><time>2026-04-15T13:07:27.877Z</time></trkpt><trkpt lat="42.6487433" lon="-7.9563767"><ele>640.0</ele><time>2026-04-15T13:07:28.877Z</time></trkpt><trkpt lat="42.6487083" lon="-7.956605"><ele>640.0</ele><time>2026-04-15T13:07:29.878Z</time></trkpt><trkpt lat="42.648665" lon="-7.9568217"><ele>640.0</ele><time>2026-04-15T13:07:30.878Z</time></trkpt><trkpt lat="42.648615" lon="-7.9570417"><ele>637.3333333333334</ele><time>2026-04-15T13:07:31.877Z</time></trkpt><trkpt lat="42.6485633" lon="-7.957265"><ele>634.6666666666666</ele><time>2026-04-15T13:07:32.877Z</time></trkpt><trkpt lat="42.6485117" lon="-7.95749"><ele>632.0</ele><time>2026-04-15T13:07:33.878Z</time></trkpt><trkpt lat="42.6484433" lon="-7.957705"><ele>632.0</ele><time>2026-04-15T13:07:34.878Z</time></trkpt><trkpt lat="42.6483833" lon="-7.9579367"><ele>632.0</ele><time>2026-04-15T13:07:35.877Z</time></trkpt><trkpt lat="42.6483117" lon="-7.958165"><ele>632.0</ele><time>2026-04-15T13:07:36.878Z</time></trkpt><trkpt lat="42.64822" lon="-7.9583867"><ele>631.3333333333333</ele><time>2026-04-15T13:07:37.877Z</time></trkpt><trkpt lat="42.6481583" lon="-7.9586217"><ele>630.6666666666666</ele><time>2026-04-15T13:07:38.878Z</time></trkpt><trkpt lat="42.6481233" lon="-7.9588783"><ele>630.0</ele><time>2026-04-15T13:07:39.877Z</time></trkpt><trkpt lat="42.648115" lon="-7.959145"><ele>629.0</ele><time>2026-04-15T13:07:40.877Z</time></trkpt><trkpt lat="42.6481267" lon="-7.9594117"><ele>628.0</ele><time>2026-04-15T13:07:41.877Z</time></trkpt><trkpt lat="42.64814" lon="-7.9596833"><ele>627.0</ele><time>2026-04-15T13:07:42.878Z</time></trkpt><trkpt lat="42.6481417" lon="-7.959945"><ele>627.0</ele><time>2026-04-15T13:07:43.878Z</time></trkpt><trkpt lat="42.6481433" lon="-7.9602133"><ele>627.0</ele><time>2026-04-15T13:07:44.878Z</time></trkpt><trkpt lat="42.64814" lon="-7.9604867"><ele>627.0</ele><time>2026-04-15T13:07:45.877Z</time></trkpt><trkpt lat="42.64812" lon="-7.9607517"><ele>627.0</ele><time>2026-04-15T13:07:46.878Z</time></trkpt><trkpt lat="42.6480967" lon="-7.961015"><ele>627.0</ele><time>2026-04-15T13:07:47.878Z</time></trkpt><trkpt lat="42.6480667" lon="-7.961275"><ele>627.0</ele><time>2026-04-15T13:07:48.878Z</time></trkpt><trkpt lat="42.6480333" lon="-7.9615367"><ele>626.0</ele><time>2026-04-15T13:07:49.878Z</time></trkpt><trkpt lat="42.647995" lon="-7.9617967"><ele>625.0</ele><time>2026-04-15T13:07:50.878Z</time></trkpt><trkpt lat="42.6479483" lon="-7.9620583"><ele>624.0</ele><time>2026-04-15T13:07:51.877Z</time></trkpt><trkpt lat="42.6478967" lon="-7.9623133"><ele>623.6666666666666</ele><time>2026-04-15T13:07:52.877Z</time></trkpt><trkpt lat="42.647845" lon="-7.962575"><ele>623.3333333333333</ele><time>2026-04-15T13:07:53.877Z</time></trkpt><trkpt lat="42.64778" lon="-7.96283"><ele>623.0</ele><time>2026-04-15T13:07:54.877Z</time></trkpt><trkpt lat="42.6477183" lon="-7.9630917"><ele>620.6666666666666</ele><time>2026-04-15T13:07:55.877Z</time></trkpt><trkpt lat="42.6476533" lon="-7.9633517"><ele>618.3333333333334</ele><time>2026-04-15T13:07:56.877Z</time></trkpt><trkpt lat="42.647595" lon="-7.9636133"><ele>616.0</ele><time>2026-04-15T13:07:57.878Z</time></trkpt><trkpt lat="42.647535" lon="-7.9638717"><ele>615.6666666666667</ele><time>2026-04-15T13:07:58.878Z</time></trkpt><trkpt lat="42.6474767" lon="-7.9641267"><ele>615.3333333333334</ele><time>2026-04-15T13:07:59.877Z</time></trkpt><trkpt lat="42.6474167" lon="-7.96438"><ele>615.0</ele><time>2026-04-15T13:08:00.878Z</time></trkpt><trkpt lat="42.64736" lon="-7.9646283"><ele>614.0</ele><time>2026-04-15T13:08:01.877Z</time></trkpt><trkpt lat="42.6473017" lon="-7.9648783"><ele>613.0</ele><time>2026-04-15T13:08:02.878Z</time></trkpt><trkpt lat="42.6472383" lon="-7.96512"><ele>612.0</ele><time>2026-04-15T13:08:03.878Z</time></trkpt><trkpt lat="42.6471683" lon="-7.9653633"><ele>611.6666666666666</ele><time>2026-04-15T13:08:04.877Z</time></trkpt><trkpt lat="42.6471" lon="-7.9656167"><ele>611.3333333333333</ele><time>2026-04-15T13:08:05.877Z</time></trkpt><trkpt lat="42.6470267" lon="-7.965855"><ele>611.0</ele><time>2026-04-15T13:08:06.878Z</time></trkpt><trkpt lat="42.6469517" lon="-7.96608"><ele>609.3333333333333</ele><time>2026-04-15T13:08:07.878Z</time></trkpt><trkpt lat="42.64687" lon="-7.9663033"><ele>607.6666666666666</ele><time>2026-04-15T13:08:08.878Z</time></trkpt><trkpt lat="42.6467767" lon="-7.9665217"><ele>606.0</ele><time>2026-04-15T13:08:09.877Z</time></trkpt><trkpt lat="42.6466733" lon="-7.96673"><ele>605.6666666666666</ele><time>2026-04-15T13:08:10.877Z</time></trkpt><trkpt lat="42.6465683" lon="-7.9669367"><ele>605.3333333333333</ele><time>2026-04-15T13:08:11.877Z</time></trkpt><trkpt lat="42.646445" lon="-7.96713"><ele>605.0</ele><time>2026-04-15T13:08:12.878Z</time></trkpt><trkpt lat="42.646325" lon="-7.9673233"><ele>605.0</ele><time>2026-04-15T13:08:13.878Z</time></trkpt><trkpt lat="42.6462067" lon="-7.9675117"><ele>605.0</ele><time>2026-04-15T13:08:14.877Z</time></trkpt><trkpt lat="42.64608" lon="-7.9676933"><ele>605.0</ele><time>2026-04-15T13:08:15.877Z</time></trkpt><trkpt lat="42.6459567" lon="-7.9678833"><ele>605.6666666666666</ele><time>2026-04-15T13:08:16.878Z</time></trkpt><trkpt lat="42.64583" lon="-7.9680683"><ele>606.3333333333334</ele><time>2026-04-15T13:08:17.877Z</time></trkpt><trkpt lat="42.64569" lon="-7.96824"><ele>607.0</ele><time>2026-04-15T13:08:18.877Z</time></trkpt><trkpt lat="42.6455467" lon="-7.9684117"><ele>607.0</ele><time>2026-04-15T13:08:19.878Z</time></trkpt><trkpt lat="42.6453983" lon="-7.9685817"><ele>607.0</ele><time>2026-04-15T13:08:20.878Z</time></trkpt><trkpt lat="42.645255" lon="-7.9687533"><ele>607.0</ele><time>2026-04-15T13:08:21.877Z</time></trkpt><trkpt lat="42.6451033" lon="-7.968915"><ele>609.3333333333334</ele><time>2026-04-15T13:08:22.878Z</time></trkpt><trkpt lat="42.644955" lon="-7.9690867"><ele>611.6666666666666</ele><time>2026-04-15T13:08:23.877Z</time></trkpt><trkpt lat="42.64481" lon="-7.969265"><ele>614.0</ele><time>2026-04-15T13:08:24.878Z</time></trkpt><trkpt lat="42.6446717" lon="-7.9694433"><ele>615.6666666666666</ele><time>2026-04-15T13:08:25.878Z</time></trkpt><trkpt lat="42.644525" lon="-7.969615"><ele>617.3333333333334</ele><time>2026-04-15T13:08:26.877Z</time></trkpt><trkpt lat="42.6443883" lon="-7.96979"><ele>619.0</ele><time>2026-04-15T13:08:27.878Z</time></trkpt><trkpt lat="42.6442417" lon="-7.9699617"><ele>620.6666666666667</ele><time>2026-04-15T13:08:28.878Z</time></trkpt><trkpt lat="42.6441017" lon="-7.9701433"><ele>622.3333333333334</ele><time>2026-04-15T13:08:29.877Z</time></trkpt><trkpt lat="42.643975" lon="-7.970335"><ele>624.0</ele><time>2026-04-15T13:08:30.877Z</time></trkpt><trkpt lat="42.643845" lon="-7.97053"><ele>624.0</ele><time>2026-04-15T13:08:31.878Z</time></trkpt><trkpt lat="42.6437217" lon="-7.9707233"><ele>624.0</ele><time>2026-04-15T13:08:32.878Z</time></trkpt><trkpt lat="42.6436083" lon="-7.97094"><ele>624.0</ele><time>2026-04-15T13:08:33.878Z</time></trkpt><trkpt lat="42.6435017" lon="-7.9711583"><ele>625.3333333333334</ele><time>2026-04-15T13:08:34.878Z</time></trkpt><trkpt lat="42.6433883" lon="-7.971355"><ele>626.6666666666667</ele><time>2026-04-15T13:08:35.877Z</time></trkpt><trkpt lat="42.64327" lon="-7.9715667"><ele>628.0</ele><time>2026-04-15T13:08:36.877Z</time></trkpt><trkpt lat="42.6431617" lon="-7.971775"><ele>630.6666666666667</ele><time>2026-04-15T13:08:37.878Z</time></trkpt><trkpt lat="42.6430517" lon="-7.971985"><ele>633.3333333333334</ele><time>2026-04-15T13:08:38.877Z</time></trkpt><trkpt lat="42.6429333" lon="-7.9722017"><ele>636.0</ele><time>2026-04-15T13:08:39.877Z</time></trkpt><trkpt lat="42.642815" lon="-7.972415"><ele>636.6666666666666</ele><time>2026-04-15T13:08:40.877Z</time></trkpt><trkpt lat="42.6427017" lon="-7.9726417"><ele>637.3333333333333</ele><time>2026-04-15T13:08:41.878Z</time></trkpt><trkpt lat="42.64259" lon="-7.9728783"><ele>638.0</ele><time>2026-04-15T13:08:42.878Z</time></trkpt><trkpt lat="42.6424817" lon="-7.973115"><ele>639.3333333333333</ele><time>2026-04-15T13:08:43.878Z</time></trkpt><trkpt lat="42.642385" lon="-7.9733567"><ele>640.6666666666666</ele><time>2026-04-15T13:08:44.878Z</time></trkpt><trkpt lat="42.6422867" lon="-7.973605"><ele>642.0</ele><time>2026-04-15T13:08:45.877Z</time></trkpt><trkpt lat="42.6421917" lon="-7.9738633"><ele>642.0</ele><time>2026-04-15T13:08:46.877Z</time></trkpt><trkpt lat="42.64212" lon="-7.9741367"><ele>642.0</ele><time>2026-04-15T13:08:47.878Z</time></trkpt><trkpt lat="42.642055" lon="-7.9744133"><ele>642.0</ele><time>2026-04-15T13:08:48.877Z</time></trkpt><trkpt lat="42.642" lon="-7.9746883"><ele>642.0</ele><time>2026-04-15T13:08:49.877Z</time></trkpt><trkpt lat="42.6419567" lon="-7.9749633"><ele>642.0</ele><time>2026-04-15T13:08:50.878Z</time></trkpt><trkpt lat="42.641915" lon="-7.9752383"><ele>642.0</ele><time>2026-04-15T13:08:51.878Z</time></trkpt><trkpt lat="42.6418717" lon="-7.9755117"><ele>644.0</ele><time>2026-04-15T13:08:52.877Z</time></trkpt><trkpt lat="42.6418233" lon="-7.975785"><ele>646.0</ele><time>2026-04-15T13:08:53.878Z</time></trkpt><trkpt lat="42.6417817" lon="-7.97605"><ele>648.0</ele><time>2026-04-15T13:08:54.877Z</time></trkpt><trkpt lat="42.64174" lon="-7.9763083"><ele>649.3333333333334</ele><time>2026-04-15T13:08:55.878Z</time></trkpt><trkpt lat="42.641695" lon="-7.9765683"><ele>650.6666666666667</ele><time>2026-04-15T13:08:56.877Z</time></trkpt><trkpt lat="42.6416517" lon="-7.9768317"><ele>652.0</ele><time>2026-04-15T13:08:57.878Z</time></trkpt><trkpt lat="42.6416117" lon="-7.9770883"><ele>653.0</ele><time>2026-04-15T13:08:58.877Z</time></trkpt><trkpt lat="42.6415683" lon="-7.9773433"><ele>654.0</ele><time>2026-04-15T13:08:59.878Z</time></trkpt><trkpt lat="42.64153" lon="-7.977605"><ele>655.0</ele><time>2026-04-15T13:09:00.878Z</time></trkpt><trkpt lat="42.64149" lon="-7.9778667"><ele>656.3333333333334</ele><time>2026-04-15T13:09:01.877Z</time></trkpt><trkpt lat="42.64145" lon="-7.9781333"><ele>657.6666666666666</ele><time>2026-04-15T13:09:02.878Z</time></trkpt><trkpt lat="42.6414117" lon="-7.9783983"><ele>659.0</ele><time>2026-04-15T13:09:03.878Z</time></trkpt><trkpt lat="42.6413683" lon="-7.9786617"><ele>660.0</ele><time>2026-04-15T13:09:04.878Z</time></trkpt><trkpt lat="42.64134" lon="-7.9789233"><ele>661.0</ele><time>2026-04-15T13:09:05.877Z</time></trkpt><trkpt lat="42.6412917" lon="-7.9791933"><ele>662.0</ele><time>2026-04-15T13:09:06.878Z</time></trkpt><trkpt lat="42.6412383" lon="-7.97946"><ele>662.0</ele><time>2026-04-15T13:09:07.877Z</time></trkpt><trkpt lat="42.6411933" lon="-7.9797267"><ele>662.0</ele><time>2026-04-15T13:09:08.877Z</time></trkpt><trkpt lat="42.6411467" lon="-7.97999"><ele>662.0</ele><time>2026-04-15T13:09:09.877Z</time></trkpt><trkpt lat="42.6411067" lon="-7.9802633"><ele>662.6666666666666</ele><time>2026-04-15T13:09:10.877Z</time></trkpt><trkpt lat="42.6410667" lon="-7.980535"><ele>663.3333333333334</ele><time>2026-04-15T13:09:11.878Z</time></trkpt><trkpt lat="42.64103" lon="-7.98081"><ele>664.0</ele><time>2026-04-15T13:09:12.878Z</time></trkpt><trkpt lat="42.64099" lon="-7.98108"><ele>665.0</ele><time>2026-04-15T13:09:13.877Z</time></trkpt><trkpt lat="42.64095" lon="-7.9813567"><ele>666.0</ele><time>2026-04-15T13:09:14.878Z</time></trkpt><trkpt lat="42.6409017" lon="-7.9816317"><ele>667.0</ele><time>2026-04-15T13:09:15.878Z</time></trkpt><trkpt lat="42.640855" lon="-7.9819"><ele>667.6666666666667</ele><time>2026-04-15T13:09:16.878Z</time></trkpt><trkpt lat="42.64081" lon="-7.9821717"><ele>668.3333333333334</ele><time>2026-04-15T13:09:17.877Z</time></trkpt><trkpt lat="42.6407683" lon="-7.982455"><ele>669.0</ele><time>2026-04-15T13:09:18.878Z</time></trkpt><trkpt lat="42.6407233" lon="-7.9827267"><ele>670.0</ele><time>2026-04-15T13:09:19.877Z</time></trkpt><trkpt lat="42.6406783" lon="-7.9829967"><ele>671.0</ele><time>2026-04-15T13:09:20.877Z</time></trkpt><trkpt lat="42.6406367" lon="-7.983265"><ele>672.0</ele><time>2026-04-15T13:09:21.877Z</time></trkpt><trkpt lat="42.6405933" lon="-7.983535"><ele>673.0</ele><time>2026-04-15T13:09:22.878Z</time></trkpt><trkpt lat="42.64055" lon="-7.9838067"><ele>674.0</ele><time>2026-04-15T13:09:23.877Z</time></trkpt><trkpt lat="42.6405133" lon="-7.9840717"><ele>675.0</ele><time>2026-04-15T13:09:24.878Z</time></trkpt><trkpt lat="42.6404817" lon="-7.9843433"><ele>675.6666666666666</ele><time>2026-04-15T13:09:25.877Z</time></trkpt><trkpt lat="42.6404483" lon="-7.9846167"><ele>676.3333333333333</ele><time>2026-04-15T13:09:26.877Z</time></trkpt><trkpt lat="42.6404267" lon="-7.9848933"><ele>677.0</ele><time>2026-04-15T13:09:27.878Z</time></trkpt><trkpt lat="42.6404017" lon="-7.9851683"><ele>677.3333333333333</ele><time>2026-04-15T13:09:28.877Z</time></trkpt><trkpt lat="42.64038" lon="-7.9854383"><ele>677.6666666666666</ele><time>2026-04-15T13:09:29.877Z</time></trkpt><trkpt lat="42.64036" lon="-7.985705"><ele>678.0</ele><time>2026-04-15T13:09:30.877Z</time></trkpt><trkpt lat="42.640335" lon="-7.9859817"><ele>677.6666666666666</ele><time>2026-04-15T13:09:31.877Z</time></trkpt><trkpt lat="42.6403117" lon="-7.9862567"><ele>677.3333333333333</ele><time>2026-04-15T13:09:32.877Z</time></trkpt><trkpt lat="42.64029" lon="-7.9865317"><ele>677.0</ele><time>2026-04-15T13:09:33.878Z</time></trkpt><trkpt lat="42.6402683" lon="-7.9868017"><ele>678.0</ele><time>2026-04-15T13:09:34.878Z</time></trkpt><trkpt lat="42.6402433" lon="-7.9870717"><ele>679.0</ele><time>2026-04-15T13:09:35.878Z</time></trkpt><trkpt lat="42.6402233" lon="-7.9873417"><ele>680.0</ele><time>2026-04-15T13:09:36.878Z</time></trkpt><trkpt lat="42.640205" lon="-7.9876167"><ele>680.0</ele><time>2026-04-15T13:09:37.877Z</time></trkpt><trkpt lat="42.640185" lon="-7.9878883"><ele>680.0</ele><time>2026-04-15T13:09:38.877Z</time></trkpt><trkpt lat="42.6401633" lon="-7.9881667"><ele>680.0</ele><time>2026-04-15T13:09:39.877Z</time></trkpt><trkpt lat="42.6401433" lon="-7.988435"><ele>680.6666666666666</ele><time>2026-04-15T13:09:40.877Z</time></trkpt><trkpt lat="42.640125" lon="-7.9887033"><ele>681.3333333333334</ele><time>2026-04-15T13:09:41.878Z</time></trkpt><trkpt lat="42.6400983" lon="-7.9889783"><ele>682.0</ele><time>2026-04-15T13:09:42.878Z</time></trkpt><trkpt lat="42.6400683" lon="-7.9892467"><ele>683.3333333333334</ele><time>2026-04-15T13:09:43.878Z</time></trkpt><trkpt lat="42.6400417" lon="-7.989515"><ele>684.6666666666666</ele><time>2026-04-15T13:09:44.877Z</time></trkpt><trkpt lat="42.640015" lon="-7.9897867"><ele>686.0</ele><time>2026-04-15T13:09:45.877Z</time></trkpt><trkpt lat="42.639995" lon="-7.9900633"><ele>687.3333333333333</ele><time>2026-04-15T13:09:46.877Z</time></trkpt><trkpt lat="42.639985" lon="-7.990335"><ele>688.6666666666666</ele><time>2026-04-15T13:09:47.877Z</time></trkpt><trkpt lat="42.6399833" lon="-7.9906133"><ele>690.0</ele><time>2026-04-15T13:09:48.877Z</time></trkpt><trkpt lat="42.6399883" lon="-7.9908883"><ele>690.6666666666666</ele><time>2026-04-15T13:09:49.877Z</time></trkpt><trkpt lat="42.6400133" lon="-7.99116"><ele>691.3333333333333</ele><time>2026-04-15T13:09:50.877Z</time></trkpt><trkpt lat="42.640045" lon="-7.9914333"><ele>692.0</ele><time>2026-04-15T13:09:51.878Z</time></trkpt><trkpt lat="42.6400867" lon="-7.9916933"><ele>693.0</ele><time>2026-04-15T13:09:52.877Z</time></trkpt><trkpt lat="42.6401217" lon="-7.991965"><ele>694.0</ele><time>2026-04-15T13:09:53.878Z</time></trkpt><trkpt lat="42.6401667" lon="-7.9922383"><ele>695.0</ele><time>2026-04-15T13:09:54.878Z</time></trkpt><trkpt lat="42.6402117" lon="-7.992515"><ele>695.3333333333333</ele><time>2026-04-15T13:09:55.878Z</time></trkpt><trkpt lat="42.6402533" lon="-7.9927883"><ele>695.6666666666666</ele><time>2026-04-15T13:09:56.877Z</time></trkpt><trkpt lat="42.6402917" lon="-7.9930733"><ele>696.0</ele><time>2026-04-15T13:09:57.877Z</time></trkpt><trkpt lat="42.640325" lon="-7.9933533"><ele>699.0</ele><time>2026-04-15T13:09:58.878Z</time></trkpt><trkpt lat="42.6403483" lon="-7.9936367"><ele>702.0</ele><time>2026-04-15T13:09:59.878Z</time></trkpt><trkpt lat="42.6403683" lon="-7.993925"><ele>705.0</ele><time>2026-04-15T13:10:00.877Z</time></trkpt><trkpt lat="42.6403683" lon="-7.9942067"><ele>705.6666666666666</ele><time>2026-04-15T13:10:01.878Z</time></trkpt><trkpt lat="42.64036" lon="-7.9944867"><ele>706.3333333333333</ele><time>2026-04-15T13:10:02.877Z</time></trkpt><trkpt lat="42.6403467" lon="-7.99477"><ele>707.0</ele><time>2026-04-15T13:10:03.878Z</time></trkpt><trkpt lat="42.640335" lon="-7.9950533"><ele>707.6666666666666</ele><time>2026-04-15T13:10:04.877Z</time></trkpt><trkpt lat="42.6403317" lon="-7.9953433"><ele>708.3333333333334</ele><time>2026-04-15T13:10:05.877Z</time></trkpt><trkpt lat="42.6403217" lon="-7.99563"><ele>709.0</ele><time>2026-04-15T13:10:06.877Z</time></trkpt><trkpt lat="42.640315" lon="-7.9959183"><ele>709.3333333333334</ele><time>2026-04-15T13:10:07.877Z</time></trkpt><trkpt lat="42.6403117" lon="-7.9962067"><ele>709.6666666666666</ele><time>2026-04-15T13:10:08.877Z</time></trkpt><trkpt lat="42.6402967" lon="-7.9964883"><ele>710.0</ele><time>2026-04-15T13:10:09.877Z</time></trkpt><trkpt lat="42.640265" lon="-7.9967667"><ele>708.6666666666666</ele><time>2026-04-15T13:10:10.877Z</time></trkpt><trkpt lat="42.6402267" lon="-7.9970367"><ele>707.3333333333334</ele><time>2026-04-15T13:10:11.878Z</time></trkpt><trkpt lat="42.64017" lon="-7.997305"><ele>706.0</ele><time>2026-04-15T13:10:12.878Z</time></trkpt><trkpt lat="42.64011" lon="-7.99757"><ele>706.0</ele><time>2026-04-15T13:10:13.877Z</time></trkpt><trkpt lat="42.640035" lon="-7.9978267"><ele>706.0</ele><time>2026-04-15T13:10:14.877Z</time></trkpt><trkpt lat="42.6399533" lon="-7.99808"><ele>706.0</ele><time>2026-04-15T13:10:15.877Z</time></trkpt><trkpt lat="42.6398667" lon="-7.99832"><ele>706.6666666666667</ele><time>2026-04-15T13:10:16.877Z</time></trkpt><trkpt lat="42.6397817" lon="-7.9985617"><ele>707.3333333333334</ele><time>2026-04-15T13:10:17.877Z</time></trkpt><trkpt lat="42.6396933" lon="-7.9988033"><ele>708.0</ele><time>2026-04-15T13:10:18.878Z</time></trkpt><trkpt lat="42.6396083" lon="-7.9990417"><ele>708.0</ele><time>2026-04-15T13:10:19.878Z</time></trkpt><trkpt lat="42.6395267" lon="-7.99928"><ele>708.0</ele><time>2026-04-15T13:10:20.878Z</time></trkpt><trkpt lat="42.6394517" lon="-7.9995183"><ele>708.0</ele><time>2026-04-15T13:10:21.877Z</time></trkpt><trkpt lat="42.6393783" lon="-7.9997517"><ele>707.3333333333334</ele><time>2026-04-15T13:10:22.878Z</time></trkpt><trkpt lat="42.6392983" lon="-7.9999917"><ele>706.6666666666667</ele><time>2026-04-15T13:10:23.877Z</time></trkpt><trkpt lat="42.6392217" lon="-8.0002283"><ele>706.0</ele><time>2026-04-15T13:10:24.877Z</time></trkpt><trkpt lat="42.63914" lon="-8.0004617"><ele>706.0</ele><time>2026-04-15T13:10:25.877Z</time></trkpt><trkpt lat="42.6390533" lon="-8.0006933"><ele>706.0</ele><time>2026-04-15T13:10:26.877Z</time></trkpt><trkpt lat="42.6389683" lon="-8.000925"><ele>706.0</ele><time>2026-04-15T13:10:27.877Z</time></trkpt><trkpt lat="42.6388917" lon="-8.00116"><ele>706.0</ele><time>2026-04-15T13:10:28.878Z</time></trkpt><trkpt lat="42.6388067" lon="-8.0013917"><ele>706.0</ele><time>2026-04-15T13:10:29.878Z</time></trkpt><trkpt lat="42.63872" lon="-8.0016217"><ele>706.0</ele><time>2026-04-15T13:10:30.878Z</time></trkpt><trkpt lat="42.63862" lon="-8.0018483"><ele>706.3333333333334</ele><time>2026-04-15T13:10:31.878Z</time></trkpt><trkpt lat="42.6385083" lon="-8.0020633"><ele>706.6666666666666</ele><time>2026-04-15T13:10:32.878Z</time></trkpt><trkpt lat="42.638385" lon="-8.0022683"><ele>707.0</ele><time>2026-04-15T13:10:33.878Z</time></trkpt><trkpt lat="42.6382517" lon="-8.002465"><ele>707.3333333333333</ele><time>2026-04-15T13:10:34.877Z</time></trkpt><trkpt lat="42.6381083" lon="-8.0026417"><ele>707.6666666666666</ele><time>2026-04-15T13:10:35.878Z</time></trkpt><trkpt lat="42.6379633" lon="-8.00281"><ele>708.0</ele><time>2026-04-15T13:10:36.878Z</time></trkpt><trkpt lat="42.6378183" lon="-8.0029817"><ele>709.0</ele><time>2026-04-15T13:10:37.878Z</time></trkpt><trkpt lat="42.6376717" lon="-8.003145"><ele>710.0</ele><time>2026-04-15T13:10:38.877Z</time></trkpt><trkpt lat="42.63752" lon="-8.0033067"><ele>711.0</ele><time>2026-04-15T13:10:39.878Z</time></trkpt><trkpt lat="42.63737" lon="-8.00347"><ele>711.6666666666666</ele><time>2026-04-15T13:10:40.878Z</time></trkpt><trkpt lat="42.637225" lon="-8.003645"><ele>712.3333333333333</ele><time>2026-04-15T13:10:41.877Z</time></trkpt><trkpt lat="42.6370867" lon="-8.0038133"><ele>713.0</ele><time>2026-04-15T13:10:42.877Z</time></trkpt><trkpt lat="42.6369483" lon="-8.004"><ele>714.0</ele><time>2026-04-15T13:10:43.877Z</time></trkpt><trkpt lat="42.636815" lon="-8.00419"><ele>715.0</ele><time>2026-04-15T13:10:44.878Z</time></trkpt><trkpt lat="42.636685" lon="-8.0043917"><ele>716.0</ele><time>2026-04-15T13:10:45.878Z</time></trkpt><trkpt lat="42.6365633" lon="-8.0045967"><ele>716.0</ele><time>2026-04-15T13:10:46.878Z</time></trkpt><trkpt lat="42.636445" lon="-8.0048083"><ele>716.0</ele><time>2026-04-15T13:10:47.877Z</time></trkpt><trkpt lat="42.6363417" lon="-8.0050217"><ele>716.0</ele><time>2026-04-15T13:10:48.877Z</time></trkpt><trkpt lat="42.63624" lon="-8.005245"><ele>717.6666666666666</ele><time>2026-04-15T13:10:49.877Z</time></trkpt><trkpt lat="42.6361467" lon="-8.005465"><ele>719.3333333333334</ele><time>2026-04-15T13:10:50.878Z</time></trkpt><trkpt lat="42.6360617" lon="-8.0056917"><ele>721.0</ele><time>2026-04-15T13:10:51.877Z</time></trkpt><trkpt lat="42.6359817" lon="-8.0059333"><ele>722.0</ele><time>2026-04-15T13:10:52.878Z</time></trkpt><trkpt lat="42.635905" lon="-8.0061783"><ele>723.0</ele><time>2026-04-15T13:10:53.878Z</time></trkpt><trkpt lat="42.635835" lon="-8.0064367"><ele>724.0</ele><time>2026-04-15T13:10:54.878Z</time></trkpt><trkpt lat="42.63577" lon="-8.0067"><ele>724.6666666666667</ele><time>2026-04-15T13:10:55.877Z</time></trkpt><trkpt lat="42.63571" lon="-8.0069667"><ele>725.3333333333334</ele><time>2026-04-15T13:10:56.877Z</time></trkpt><trkpt lat="42.635665" lon="-8.0072333"><ele>726.0</ele><time>2026-04-15T13:10:57.878Z</time></trkpt><trkpt lat="42.6356167" lon="-8.007505"><ele>726.0</ele><time>2026-04-15T13:10:58.877Z</time></trkpt><trkpt lat="42.6355817" lon="-8.0077783"><ele>726.0</ele><time>2026-04-15T13:10:59.878Z</time></trkpt><trkpt lat="42.6355517" lon="-8.0080617"><ele>726.0</ele><time>2026-04-15T13:11:00.877Z</time></trkpt><trkpt lat="42.6355183" lon="-8.0083383"><ele>726.3333333333334</ele><time>2026-04-15T13:11:01.877Z</time></trkpt><trkpt lat="42.6354783" lon="-8.00862"><ele>726.6666666666667</ele><time>2026-04-15T13:11:02.877Z</time></trkpt><trkpt lat="42.635445" lon="-8.00889"><ele>727.0</ele><time>2026-04-15T13:11:03.877Z</time></trkpt><trkpt lat="42.6354017" lon="-8.0091667"><ele>727.0</ele><time>2026-04-15T13:11:04.878Z</time></trkpt><trkpt lat="42.63536" lon="-8.00945"><ele>727.0</ele><time>2026-04-15T13:11:05.877Z</time></trkpt><trkpt lat="42.6353283" lon="-8.0097233"><ele>727.0</ele><time>2026-04-15T13:11:06.878Z</time></trkpt><trkpt lat="42.6352883" lon="-8.0099983"><ele>727.3333333333334</ele><time>2026-04-15T13:11:07.877Z</time></trkpt><trkpt lat="42.6352533" lon="-8.01028"><ele>727.6666666666666</ele><time>2026-04-15T13:11:08.877Z</time></trkpt><trkpt lat="42.6352133" lon="-8.0105633"><ele>728.0</ele><time>2026-04-15T13:11:09.878Z</time></trkpt><trkpt lat="42.63518" lon="-8.01085"><ele>728.3333333333333</ele><time>2026-04-15T13:11:10.877Z</time></trkpt><trkpt lat="42.6351433" lon="-8.0111317"><ele>728.6666666666666</ele><time>2026-04-15T13:11:11.877Z</time></trkpt><trkpt lat="42.6351083" lon="-8.0114217"><ele>729.0</ele><time>2026-04-15T13:11:12.878Z</time></trkpt><trkpt lat="42.6350617" lon="-8.0117033"><ele>729.0</ele><time>2026-04-15T13:11:13.877Z</time></trkpt><trkpt lat="42.6350267" lon="-8.01198"><ele>729.0</ele><time>2026-04-15T13:11:14.877Z</time></trkpt><trkpt lat="42.6349883" lon="-8.012265"><ele>729.0</ele><time>2026-04-15T13:11:15.877Z</time></trkpt><trkpt lat="42.6349533" lon="-8.01255"><ele>729.3333333333334</ele><time>2026-04-15T13:11:16.878Z</time></trkpt><trkpt lat="42.634915" lon="-8.012835"><ele>729.6666666666667</ele><time>2026-04-15T13:11:17.877Z</time></trkpt><trkpt lat="42.6348783" lon="-8.0131217"><ele>730.0</ele><time>2026-04-15T13:11:18.878Z</time></trkpt><trkpt lat="42.634845" lon="-8.0134017"><ele>729.6666666666667</ele><time>2026-04-15T13:11:19.878Z</time></trkpt><trkpt lat="42.6348183" lon="-8.0136817"><ele>729.3333333333334</ele><time>2026-04-15T13:11:20.877Z</time></trkpt><trkpt lat="42.6347833" lon="-8.0139533"><ele>729.0</ele><time>2026-04-15T13:11:21.877Z</time></trkpt><trkpt lat="42.6347433" lon="-8.0142233"><ele>729.0</ele><time>2026-04-15T13:11:22.878Z</time></trkpt><trkpt lat="42.6347067" lon="-8.01449"><ele>729.0</ele><time>2026-04-15T13:11:23.877Z</time></trkpt><trkpt lat="42.63467" lon="-8.014755"><ele>729.0</ele><time>2026-04-15T13:11:24.877Z</time></trkpt><trkpt lat="42.6346333" lon="-8.0150183"><ele>729.0</ele><time>2026-04-15T13:11:25.878Z</time></trkpt><trkpt lat="42.6345867" lon="-8.0152733"><ele>729.0</ele><time>2026-04-15T13:11:26.878Z</time></trkpt><trkpt lat="42.6345433" lon="-8.01553"><ele>729.0</ele><time>2026-04-15T13:11:27.878Z</time></trkpt><trkpt lat="42.6344933" lon="-8.015785"><ele>733.6666666666666</ele><time>2026-04-15T13:11:28.877Z</time></trkpt><trkpt lat="42.634435" lon="-8.0160283"><ele>738.3333333333333</ele><time>2026-04-15T13:11:29.877Z</time></trkpt><trkpt lat="42.634365" lon="-8.0162667"><ele>743.0</ele><time>2026-04-15T13:11:30.878Z</time></trkpt><trkpt lat="42.6342817" lon="-8.016495"><ele>743.0</ele><time>2026-04-15T13:11:31.877Z</time></trkpt><trkpt lat="42.6341933" lon="-8.0167167"><ele>743.0</ele><time>2026-04-15T13:11:32.878Z</time></trkpt><trkpt lat="42.6341017" lon="-8.0169267"><ele>743.0</ele><time>2026-04-15T13:11:33.878Z</time></trkpt><trkpt lat="42.6340083" lon="-8.017125"><ele>743.0</ele><time>2026-04-15T13:11:34.877Z</time></trkpt><trkpt lat="42.6339133" lon="-8.0173333"><ele>743.0</ele><time>2026-04-15T13:11:35.878Z</time></trkpt><trkpt lat="42.63381" lon="-8.0175433"><ele>743.0</ele><time>2026-04-15T13:11:36.877Z</time></trkpt><trkpt lat="42.6336983" lon="-8.0177467"><ele>745.0</ele><time>2026-04-15T13:11:37.877Z</time></trkpt><trkpt lat="42.6335833" lon="-8.017955"><ele>747.0</ele><time>2026-04-15T13:11:38.877Z</time></trkpt><trkpt lat="42.6334717" lon="-8.018165"><ele>749.0</ele><time>2026-04-15T13:11:39.878Z</time></trkpt><trkpt lat="42.6333617" lon="-8.0183733"><ele>749.3333333333333</ele><time>2026-04-15T13:11:40.877Z</time></trkpt><trkpt lat="42.633245" lon="-8.0185867"><ele>749.6666666666666</ele><time>2026-04-15T13:11:41.878Z</time></trkpt><trkpt lat="42.633135" lon="-8.0188083"><ele>750.0</ele><time>2026-04-15T13:11:42.878Z</time></trkpt><trkpt lat="42.6330283" lon="-8.0190267"><ele>749.6666666666666</ele><time>2026-04-15T13:11:43.877Z</time></trkpt><trkpt lat="42.63292" lon="-8.0192567"><ele>749.3333333333333</ele><time>2026-04-15T13:11:44.878Z</time></trkpt><trkpt lat="42.6328183" lon="-8.019485"><ele>749.0</ele><time>2026-04-15T13:11:45.877Z</time></trkpt><trkpt lat="42.63272" lon="-8.0197133"><ele>751.3333333333333</ele><time>2026-04-15T13:11:46.877Z</time></trkpt><trkpt lat="42.632635" lon="-8.0199433"><ele>753.6666666666666</ele><time>2026-04-15T13:11:47.877Z</time></trkpt><trkpt lat="42.6325583" lon="-8.0201833"><ele>756.0</ele><time>2026-04-15T13:11:48.877Z</time></trkpt><trkpt lat="42.6324933" lon="-8.0204217"><ele>756.0</ele><time>2026-04-15T13:11:49.878Z</time></trkpt><trkpt lat="42.6324367" lon="-8.0206617"><ele>756.0</ele><time>2026-04-15T13:11:50.878Z</time></trkpt><trkpt lat="42.6323967" lon="-8.0209067"><ele>756.0</ele><time>2026-04-15T13:11:51.878Z</time></trkpt><trkpt lat="42.6323617" lon="-8.02115"><ele>756.6666666666666</ele><time>2026-04-15T13:11:52.877Z</time></trkpt><trkpt lat="42.6323367" lon="-8.0213983"><ele>757.3333333333333</ele><time>2026-04-15T13:11:53.877Z</time></trkpt><trkpt lat="42.6323167" lon="-8.0216483"><ele>758.0</ele><time>2026-04-15T13:11:54.877Z</time></trkpt><trkpt lat="42.632305" lon="-8.0219"><ele>759.3333333333333</ele><time>2026-04-15T13:11:55.877Z</time></trkpt><trkpt lat="42.6322967" lon="-8.0221433"><ele>760.6666666666666</ele><time>2026-04-15T13:11:56.877Z</time></trkpt><trkpt lat="42.63229" lon="-8.0223933"><ele>762.0</ele><time>2026-04-15T13:11:57.878Z</time></trkpt><trkpt lat="42.6322833" lon="-8.0226467"><ele>761.6666666666666</ele><time>2026-04-15T13:11:58.877Z</time></trkpt><trkpt lat="42.6322817" lon="-8.0229017"><ele>761.3333333333333</ele><time>2026-04-15T13:11:59.877Z</time></trkpt><trkpt lat="42.6322767" lon="-8.0231667"><ele>761.0</ele><time>2026-04-15T13:12:00.878Z</time></trkpt><trkpt lat="42.6322517" lon="-8.02342"><ele>761.0</ele><time>2026-04-15T13:12:01.878Z</time></trkpt><trkpt lat="42.63224" lon="-8.0236867"><ele>761.0</ele><time>2026-04-15T13:12:02.877Z</time></trkpt><trkpt lat="42.6322283" lon="-8.0239567"><ele>761.0</ele><time>2026-04-15T13:12:03.878Z</time></trkpt><trkpt lat="42.6322417" lon="-8.0242283"><ele>761.0</ele><time>2026-04-15T13:12:04.877Z</time></trkpt><trkpt lat="42.6322783" lon="-8.0244967"><ele>761.0</ele><time>2026-04-15T13:12:05.877Z</time></trkpt><trkpt lat="42.6323317" lon="-8.02477"><ele>761.0</ele><time>2026-04-15T13:12:06.878Z</time></trkpt><trkpt lat="42.6324" lon="-8.0250433"><ele>761.0</ele><time>2026-04-15T13:12:07.877Z</time></trkpt><trkpt lat="42.6324867" lon="-8.0253117"><ele>761.0</ele><time>2026-04-15T13:12:08.878Z</time></trkpt><trkpt lat="42.6325917" lon="-8.02556"><ele>761.0</ele><time>2026-04-15T13:12:09.878Z</time></trkpt><trkpt lat="42.6327067" lon="-8.025795"><ele>756.0</ele><time>2026-04-15T13:12:10.878Z</time></trkpt><trkpt lat="42.6328367" lon="-8.0260267"><ele>751.0</ele><time>2026-04-15T13:12:11.877Z</time></trkpt><trkpt lat="42.6329833" lon="-8.026245"><ele>746.0</ele><time>2026-04-15T13:12:12.878Z</time></trkpt><trkpt lat="42.63313" lon="-8.0264633"><ele>748.6666666666666</ele><time>2026-04-15T13:12:13.877Z</time></trkpt><trkpt lat="42.6332767" lon="-8.0266767"><ele>751.3333333333334</ele><time>2026-04-15T13:12:14.878Z</time></trkpt><trkpt lat="42.6334283" lon="-8.0268967"><ele>754.0</ele><time>2026-04-15T13:12:15.877Z</time></trkpt><trkpt lat="42.633575" lon="-8.0271"><ele>753.3333333333334</ele><time>2026-04-15T13:12:16.878Z</time></trkpt><trkpt lat="42.6337233" lon="-8.0273083"><ele>752.6666666666666</ele><time>2026-04-15T13:12:17.878Z</time></trkpt><trkpt lat="42.6338733" lon="-8.0275133"><ele>752.0</ele><time>2026-04-15T13:12:18.877Z</time></trkpt><trkpt lat="42.6340283" lon="-8.02772"><ele>752.0</ele><time>2026-04-15T13:12:19.877Z</time></trkpt><trkpt lat="42.6341767" lon="-8.027935"><ele>752.0</ele><time>2026-04-15T13:12:20.878Z</time></trkpt><trkpt lat="42.6343233" lon="-8.0281483"><ele>752.0</ele><time>2026-04-15T13:12:21.878Z</time></trkpt><trkpt lat="42.6344733" lon="-8.0283583"><ele>750.3333333333333</ele><time>2026-04-15T13:12:22.877Z</time></trkpt><trkpt lat="42.6346233" lon="-8.0285767"><ele>748.6666666666666</ele><time>2026-04-15T13:12:23.878Z</time></trkpt><trkpt lat="42.6347783" lon="-8.0287983"><ele>747.0</ele><time>2026-04-15T13:12:24.878Z</time></trkpt><trkpt lat="42.63493" lon="-8.0290167"><ele>744.6666666666666</ele><time>2026-04-15T13:12:25.877Z</time></trkpt><trkpt lat="42.6350783" lon="-8.02923"><ele>742.3333333333333</ele><time>2026-04-15T13:12:26.878Z</time></trkpt><trkpt lat="42.6352317" lon="-8.0294467"><ele>740.0</ele><time>2026-04-15T13:12:27.877Z</time></trkpt><trkpt lat="42.63538" lon="-8.0296683"><ele>738.0</ele><time>2026-04-15T13:12:28.878Z</time></trkpt><trkpt lat="42.6355283" lon="-8.0298833"><ele>736.0</ele><time>2026-04-15T13:12:29.877Z</time></trkpt><trkpt lat="42.6356817" lon="-8.0301017"><ele>734.0</ele><time>2026-04-15T13:12:30.877Z</time></trkpt><trkpt lat="42.6358367" lon="-8.030325"><ele>731.5</ele><time>2026-04-15T13:12:31.877Z</time></trkpt><trkpt lat="42.6359883" lon="-8.03056"><ele>729.0</ele><time>2026-04-15T13:12:32.877Z</time></trkpt><trkpt lat="42.6361483" lon="-8.0307833"><ele>726.0</ele><time>2026-04-15T13:12:33.877Z</time></trkpt><trkpt lat="42.6363033" lon="-8.0309967"><ele>723.0</ele><time>2026-04-15T13:12:34.877Z</time></trkpt><trkpt lat="42.6364567" lon="-8.031215"><ele>720.0</ele><time>2026-04-15T13:12:35.878Z</time></trkpt><trkpt lat="42.63661" lon="-8.03144"><ele>720.6666666666666</ele><time>2026-04-15T13:12:36.878Z</time></trkpt><trkpt lat="42.6367633" lon="-8.0316667"><ele>721.3333333333333</ele><time>2026-04-15T13:12:37.878Z</time></trkpt><trkpt lat="42.63691" lon="-8.0318933"><ele>722.0</ele><time>2026-04-15T13:12:38.878Z</time></trkpt><trkpt lat="42.637055" lon="-8.0321183"><ele>720.0</ele><time>2026-04-15T13:12:39.878Z</time></trkpt><trkpt lat="42.6372067" lon="-8.0323383"><ele>718.0</ele><time>2026-04-15T13:12:40.877Z</time></trkpt><trkpt lat="42.637365" lon="-8.0325533"><ele>716.0</ele><time>2026-04-15T13:12:41.878Z</time></trkpt><trkpt lat="42.63751" lon="-8.0327717"><ele>716.0</ele><time>2026-04-15T13:12:42.878Z</time></trkpt><trkpt lat="42.6376533" lon="-8.03298"><ele>716.0</ele><time>2026-04-15T13:12:43.877Z</time></trkpt><trkpt lat="42.6377967" lon="-8.0331967"><ele>716.0</ele><time>2026-04-15T13:12:44.878Z</time></trkpt><trkpt lat="42.637945" lon="-8.033415"><ele>714.3333333333333</ele><time>2026-04-15T13:12:45.877Z</time></trkpt><trkpt lat="42.6381033" lon="-8.0336267"><ele>712.6666666666666</ele><time>2026-04-15T13:12:46.877Z</time></trkpt><trkpt lat="42.6382567" lon="-8.0338333"><ele>711.0</ele><time>2026-04-15T13:12:47.877Z</time></trkpt><trkpt lat="42.6384117" lon="-8.0340467"><ele>711.3333333333334</ele><time>2026-04-15T13:12:48.877Z</time></trkpt><trkpt lat="42.6385667" lon="-8.0342667"><ele>711.6666666666667</ele><time>2026-04-15T13:12:49.878Z</time></trkpt><trkpt lat="42.6387167" lon="-8.0344783"><ele>712.0</ele><time>2026-04-15T13:12:50.878Z</time></trkpt><trkpt lat="42.63887" lon="-8.034695"><ele>710.6666666666667</ele><time>2026-04-15T13:12:51.878Z</time></trkpt><trkpt lat="42.6390183" lon="-8.034915"><ele>709.3333333333334</ele><time>2026-04-15T13:12:52.879Z</time></trkpt><trkpt lat="42.6391683" lon="-8.0351317"><ele>708.0</ele><time>2026-04-15T13:12:53.878Z</time></trkpt><trkpt lat="42.6393167" lon="-8.03535"><ele>707.3333333333334</ele><time>2026-04-15T13:12:54.879Z</time></trkpt><trkpt lat="42.6394617" lon="-8.0355717"><ele>706.6666666666667</ele><time>2026-04-15T13:12:55.878Z</time></trkpt><trkpt lat="42.6396" lon="-8.035805"><ele>706.0</ele><time>2026-04-15T13:12:56.878Z</time></trkpt><trkpt lat="42.6397383" lon="-8.036045"><ele>704.3333333333334</ele><time>2026-04-15T13:12:57.879Z</time></trkpt><trkpt lat="42.63987" lon="-8.0362917"><ele>702.6666666666666</ele><time>2026-04-15T13:12:58.878Z</time></trkpt><trkpt lat="42.6399917" lon="-8.0365383"><ele>701.0</ele><time>2026-04-15T13:12:59.878Z</time></trkpt><trkpt lat="42.640105" lon="-8.0367933"><ele>699.6666666666666</ele><time>2026-04-15T13:13:00.879Z</time></trkpt><trkpt lat="42.64022" lon="-8.03705"><ele>698.3333333333334</ele><time>2026-04-15T13:13:01.878Z</time></trkpt><trkpt lat="42.6403333" lon="-8.037305"><ele>697.0</ele><time>2026-04-15T13:13:02.878Z</time></trkpt><trkpt lat="42.640455" lon="-8.0375583"><ele>697.0</ele><time>2026-04-15T13:13:03.878Z</time></trkpt><trkpt lat="42.640585" lon="-8.0378133"><ele>697.0</ele><time>2026-04-15T13:13:04.879Z</time></trkpt><trkpt lat="42.6407233" lon="-8.038065"><ele>697.0</ele><time>2026-04-15T13:13:05.878Z</time></trkpt><trkpt lat="42.6408733" lon="-8.0382983"><ele>697.0</ele><time>2026-04-15T13:13:06.878Z</time></trkpt><trkpt lat="42.6410367" lon="-8.0385217"><ele>697.5</ele><time>2026-04-15T13:13:07.878Z</time></trkpt><trkpt lat="42.6412133" lon="-8.0387217"><ele>698.0</ele><time>2026-04-15T13:13:08.879Z</time></trkpt><trkpt lat="42.6413967" lon="-8.038905"><ele>698.0</ele><time>2026-04-15T13:13:09.878Z</time></trkpt><trkpt lat="42.6415883" lon="-8.0390717"><ele>698.0</ele><time>2026-04-15T13:13:10.879Z</time></trkpt><trkpt lat="42.6417883" lon="-8.0392133"><ele>695.0</ele><time>2026-04-15T13:13:11.878Z</time></trkpt><trkpt lat="42.6419983" lon="-8.0393383"><ele>692.0</ele><time>2026-04-15T13:13:12.878Z</time></trkpt><trkpt lat="42.6422117" lon="-8.0394483"><ele>692.0</ele><time>2026-04-15T13:13:13.878Z</time></trkpt><trkpt lat="42.6424283" lon="-8.03955"><ele>692.0</ele><time>2026-04-15T13:13:14.879Z</time></trkpt><trkpt lat="42.642645" lon="-8.03966"><ele>692.0</ele><time>2026-04-15T13:13:15.879Z</time></trkpt><trkpt lat="42.64286" lon="-8.0397733"><ele>692.0</ele><time>2026-04-15T13:13:16.879Z</time></trkpt><trkpt lat="42.6430733" lon="-8.03989"><ele>690.5</ele><time>2026-04-15T13:13:17.879Z</time></trkpt><trkpt lat="42.64328" lon="-8.04002"><ele>689.0</ele><time>2026-04-15T13:13:18.879Z</time></trkpt><trkpt lat="42.643485" lon="-8.0401717"><ele>689.0</ele><time>2026-04-15T13:13:19.878Z</time></trkpt><trkpt lat="42.6436833" lon="-8.040335"><ele>689.0</ele><time>2026-04-15T13:13:20.879Z</time></trkpt><trkpt lat="42.6438667" lon="-8.040505"><ele>689.0</ele><time>2026-04-15T13:13:21.879Z</time></trkpt><trkpt lat="42.644045" lon="-8.04069"><ele>689.0</ele><time>2026-04-15T13:13:22.878Z</time></trkpt><trkpt lat="42.64423" lon="-8.0408817"><ele>689.0</ele><time>2026-04-15T13:13:23.878Z</time></trkpt><trkpt lat="42.6444033" lon="-8.041095"><ele>689.0</ele><time>2026-04-15T13:13:24.879Z</time></trkpt><trkpt lat="42.644565" lon="-8.0413233"><ele>687.0</ele><time>2026-04-15T13:13:25.878Z</time></trkpt><trkpt lat="42.6447267" lon="-8.0415383"><ele>685.0</ele><time>2026-04-15T13:13:26.879Z</time></trkpt><trkpt lat="42.64488" lon="-8.04176"><ele>685.0</ele><time>2026-04-15T13:13:27.879Z</time></trkpt><trkpt lat="42.645035" lon="-8.0419867"><ele>685.0</ele><time>2026-04-15T13:13:28.878Z</time></trkpt><trkpt lat="42.6451983" lon="-8.0422017"><ele>682.0</ele><time>2026-04-15T13:13:29.879Z</time></trkpt><trkpt lat="42.6453533" lon="-8.0424317"><ele>679.0</ele><time>2026-04-15T13:13:30.878Z</time></trkpt><trkpt lat="42.645505" lon="-8.042655"><ele>679.0</ele><time>2026-04-15T13:13:31.878Z</time></trkpt><trkpt lat="42.6456467" lon="-8.0429017"><ele>679.0</ele><time>2026-04-15T13:13:32.879Z</time></trkpt><trkpt lat="42.6457667" lon="-8.0431633"><ele>681.0</ele><time>2026-04-15T13:13:33.878Z</time></trkpt><trkpt lat="42.6458783" lon="-8.0434233"><ele>683.0</ele><time>2026-04-15T13:13:34.878Z</time></trkpt><trkpt lat="42.6459817" lon="-8.0436783"><ele>685.0</ele><time>2026-04-15T13:13:35.878Z</time></trkpt><trkpt lat="42.6460717" lon="-8.0439617"><ele>681.0</ele><time>2026-04-15T13:13:36.878Z</time></trkpt><trkpt lat="42.6461483" lon="-8.0442467"><ele>677.0</ele><time>2026-04-15T13:13:37.878Z</time></trkpt><trkpt lat="42.6462133" lon="-8.044535"><ele>673.0</ele><time>2026-04-15T13:13:38.879Z</time></trkpt><trkpt lat="42.64627" lon="-8.0448267"><ele>674.0</ele><time>2026-04-15T13:13:39.879Z</time></trkpt><trkpt lat="42.6463233" lon="-8.0451183"><ele>675.0</ele><time>2026-04-15T13:13:40.879Z</time></trkpt><trkpt lat="42.6463633" lon="-8.04541"><ele>676.0</ele><time>2026-04-15T13:13:41.879Z</time></trkpt><trkpt lat="42.6464117" lon="-8.04571"><ele>676.3333333333334</ele><time>2026-04-15T13:13:42.878Z</time></trkpt><trkpt lat="42.6464583" lon="-8.0460067"><ele>676.6666666666666</ele><time>2026-04-15T13:13:43.879Z</time></trkpt><trkpt lat="42.6464983" lon="-8.0462933"><ele>677.0</ele><time>2026-04-15T13:13:44.878Z</time></trkpt><trkpt lat="42.6465483" lon="-8.0465833"><ele>677.6666666666666</ele><time>2026-04-15T13:13:45.878Z</time></trkpt><trkpt lat="42.64659" lon="-8.04687"><ele>678.3333333333334</ele><time>2026-04-15T13:13:46.878Z</time></trkpt><trkpt lat="42.6466467" lon="-8.0471717"><ele>679.0</ele><time>2026-04-15T13:13:47.879Z</time></trkpt><trkpt lat="42.6467017" lon="-8.047455"><ele>678.3333333333334</ele><time>2026-04-15T13:13:48.878Z</time></trkpt><trkpt lat="42.6467583" lon="-8.0477317"><ele>677.6666666666666</ele><time>2026-04-15T13:13:49.878Z</time></trkpt><trkpt lat="42.6468183" lon="-8.048005"><ele>677.0</ele><time>2026-04-15T13:13:50.879Z</time></trkpt><trkpt lat="42.6468783" lon="-8.048285"><ele>677.0</ele><time>2026-04-15T13:13:51.879Z</time></trkpt><trkpt lat="42.6469517" lon="-8.0485617"><ele>677.0</ele><time>2026-04-15T13:13:52.878Z</time></trkpt><trkpt lat="42.6470333" lon="-8.048825"><ele>677.0</ele><time>2026-04-15T13:13:53.878Z</time></trkpt><trkpt lat="42.647135" lon="-8.04906"><ele>677.3333333333333</ele><time>2026-04-15T13:13:54.879Z</time></trkpt><trkpt lat="42.6472467" lon="-8.04929"><ele>677.6666666666666</ele><time>2026-04-15T13:13:55.878Z</time></trkpt><trkpt lat="42.647375" lon="-8.0495017"><ele>678.0</ele><time>2026-04-15T13:13:56.878Z</time></trkpt><trkpt lat="42.6475233" lon="-8.0496983"><ele>678.0</ele><time>2026-04-15T13:13:57.878Z</time></trkpt><trkpt lat="42.6476817" lon="-8.049875"><ele>678.0</ele><time>2026-04-15T13:13:58.878Z</time></trkpt><trkpt lat="42.6478467" lon="-8.0500433"><ele>678.0</ele><time>2026-04-15T13:13:59.879Z</time></trkpt><trkpt lat="42.648015" lon="-8.0502133"><ele>678.3333333333334</ele><time>2026-04-15T13:14:00.878Z</time></trkpt><trkpt lat="42.6481833" lon="-8.0503833"><ele>678.6666666666667</ele><time>2026-04-15T13:14:01.878Z</time></trkpt><trkpt lat="42.64835" lon="-8.0505517"><ele>679.0</ele><time>2026-04-15T13:14:02.879Z</time></trkpt><trkpt lat="42.6485167" lon="-8.0507267"><ele>680.6666666666667</ele><time>2026-04-15T13:14:03.878Z</time></trkpt><trkpt lat="42.6486933" lon="-8.0509067"><ele>682.3333333333334</ele><time>2026-04-15T13:14:04.879Z</time></trkpt><trkpt lat="42.6488583" lon="-8.0510833"><ele>684.0</ele><time>2026-04-15T13:14:05.878Z</time></trkpt><trkpt lat="42.649015" lon="-8.0512783"><ele>684.0</ele><time>2026-04-15T13:14:06.878Z</time></trkpt><trkpt lat="42.64917" lon="-8.0514633"><ele>684.0</ele><time>2026-04-15T13:14:07.879Z</time></trkpt><trkpt lat="42.6493233" lon="-8.051665"><ele>684.0</ele><time>2026-04-15T13:14:08.879Z</time></trkpt><trkpt lat="42.6494583" lon="-8.0518767"><ele>684.0</ele><time>2026-04-15T13:14:09.879Z</time></trkpt><trkpt lat="42.6496017" lon="-8.0521033"><ele>684.0</ele><time>2026-04-15T13:14:10.878Z</time></trkpt><trkpt lat="42.6497217" lon="-8.052335"><ele>684.0</ele><time>2026-04-15T13:14:11.879Z</time></trkpt><trkpt lat="42.6498417" lon="-8.0525767"><ele>686.0</ele><time>2026-04-15T13:14:12.878Z</time></trkpt><trkpt lat="42.6499633" lon="-8.0528267"><ele>688.0</ele><time>2026-04-15T13:14:13.878Z</time></trkpt><trkpt lat="42.650085" lon="-8.0530683"><ele>690.0</ele><time>2026-04-15T13:14:14.878Z</time></trkpt><trkpt lat="42.650205" lon="-8.0533067"><ele>689.3333333333334</ele><time>2026-04-15T13:14:15.879Z</time></trkpt><trkpt lat="42.6503233" lon="-8.05355"><ele>688.6666666666667</ele><time>2026-04-15T13:14:16.878Z</time></trkpt><trkpt lat="42.6504433" lon="-8.05379"><ele>688.0</ele><time>2026-04-15T13:14:17.878Z</time></trkpt><trkpt lat="42.6505683" lon="-8.0540383"><ele>690.3333333333334</ele><time>2026-04-15T13:14:18.879Z</time></trkpt><trkpt lat="42.6506867" lon="-8.0542817"><ele>692.6666666666666</ele><time>2026-04-15T13:14:19.878Z</time></trkpt><trkpt lat="42.6508017" lon="-8.0545233"><ele>695.0</ele><time>2026-04-15T13:14:20.878Z</time></trkpt><trkpt lat="42.6509133" lon="-8.0547633"><ele>696.6666666666666</ele><time>2026-04-15T13:14:21.879Z</time></trkpt><trkpt lat="42.6510267" lon="-8.0549967"><ele>698.3333333333334</ele><time>2026-04-15T13:14:22.878Z</time></trkpt><trkpt lat="42.6511383" lon="-8.0552383"><ele>700.0</ele><time>2026-04-15T13:14:23.878Z</time></trkpt><trkpt lat="42.6512517" lon="-8.0554817"><ele>699.0</ele><time>2026-04-15T13:14:24.879Z</time></trkpt><trkpt lat="42.65137" lon="-8.0557267"><ele>698.0</ele><time>2026-04-15T13:14:25.878Z</time></trkpt><trkpt lat="42.6514833" lon="-8.0559783"><ele>697.0</ele><time>2026-04-15T13:14:26.878Z</time></trkpt><trkpt lat="42.6515783" lon="-8.0562417"><ele>697.0</ele><time>2026-04-15T13:14:27.878Z</time></trkpt><trkpt lat="42.651675" lon="-8.0565033"><ele>697.0</ele><time>2026-04-15T13:14:28.879Z</time></trkpt><trkpt lat="42.6517683" lon="-8.0567717"><ele>697.0</ele><time>2026-04-15T13:14:29.878Z</time></trkpt><trkpt lat="42.6518467" lon="-8.0570467"><ele>699.0</ele><time>2026-04-15T13:14:30.879Z</time></trkpt><trkpt lat="42.651925" lon="-8.0573267"><ele>701.0</ele><time>2026-04-15T13:14:31.879Z</time></trkpt><trkpt lat="42.652" lon="-8.0575983"><ele>703.0</ele><time>2026-04-15T13:14:32.879Z</time></trkpt><trkpt lat="42.6520767" lon="-8.0578733"><ele>704.0</ele><time>2026-04-15T13:14:33.879Z</time></trkpt><trkpt lat="42.6521433" lon="-8.0581517"><ele>705.0</ele><time>2026-04-15T13:14:34.878Z</time></trkpt><trkpt lat="42.6522017" lon="-8.058425"><ele>706.0</ele><time>2026-04-15T13:14:35.878Z</time></trkpt><trkpt lat="42.6522483" lon="-8.0587083"><ele>706.6666666666667</ele><time>2026-04-15T13:14:36.879Z</time></trkpt><trkpt lat="42.6522933" lon="-8.0589883"><ele>707.3333333333334</ele><time>2026-04-15T13:14:37.878Z</time></trkpt><trkpt lat="42.65233" lon="-8.0592733"><ele>708.0</ele><time>2026-04-15T13:14:38.878Z</time></trkpt><trkpt lat="42.65236" lon="-8.0595517"><ele>708.0</ele><time>2026-04-15T13:14:39.879Z</time></trkpt><trkpt lat="42.6523917" lon="-8.059835"><ele>708.0</ele><time>2026-04-15T13:14:40.879Z</time></trkpt><trkpt lat="42.6524083" lon="-8.0601233"><ele>708.0</ele><time>2026-04-15T13:14:41.879Z</time></trkpt><trkpt lat="42.65242" lon="-8.0604083"><ele>708.3333333333334</ele><time>2026-04-15T13:14:42.879Z</time></trkpt><trkpt lat="42.6524217" lon="-8.060695"><ele>708.6666666666667</ele><time>2026-04-15T13:14:43.878Z</time></trkpt><trkpt lat="42.65243" lon="-8.0609867"><ele>709.0</ele><time>2026-04-15T13:14:44.879Z</time></trkpt><trkpt lat="42.6524317" lon="-8.061275"><ele>709.6666666666667</ele><time>2026-04-15T13:14:45.879Z</time></trkpt><trkpt lat="42.652425" lon="-8.0615717"><ele>710.3333333333334</ele><time>2026-04-15T13:14:46.879Z</time></trkpt><trkpt lat="42.6524183" lon="-8.061865"><ele>711.0</ele><time>2026-04-15T13:14:47.878Z</time></trkpt><trkpt lat="42.6524133" lon="-8.062155"><ele>712.3333333333334</ele><time>2026-04-15T13:14:48.878Z</time></trkpt><trkpt lat="42.6524083" lon="-8.062445"><ele>713.6666666666667</ele><time>2026-04-15T13:14:49.879Z</time></trkpt><trkpt lat="42.65241" lon="-8.06274"><ele>715.0</ele><time>2026-04-15T13:14:50.878Z</time></trkpt><trkpt lat="42.65241" lon="-8.0630283"><ele>715.6666666666667</ele><time>2026-04-15T13:14:51.879Z</time></trkpt><trkpt lat="42.6523967" lon="-8.0633167"><ele>716.3333333333334</ele><time>2026-04-15T13:14:52.879Z</time></trkpt><trkpt lat="42.6523833" lon="-8.0636133"><ele>717.0</ele><time>2026-04-15T13:14:53.878Z</time></trkpt><trkpt lat="42.652365" lon="-8.0639067"><ele>716.3333333333334</ele><time>2026-04-15T13:14:54.878Z</time></trkpt><trkpt lat="42.652355" lon="-8.0641983"><ele>715.6666666666667</ele><time>2026-04-15T13:14:55.879Z</time></trkpt><trkpt lat="42.652355" lon="-8.0644933"><ele>715.0</ele><time>2026-04-15T13:14:56.879Z</time></trkpt><trkpt lat="42.6523567" lon="-8.0647767"><ele>714.3333333333334</ele><time>2026-04-15T13:14:57.878Z</time></trkpt><trkpt lat="42.652345" lon="-8.06507"><ele>713.6666666666666</ele><time>2026-04-15T13:14:58.878Z</time></trkpt><trkpt lat="42.6523333" lon="-8.0653583"><ele>713.0</ele><time>2026-04-15T13:14:59.879Z</time></trkpt><trkpt lat="42.6523217" lon="-8.0656467"><ele>713.0</ele><time>2026-04-15T13:15:00.879Z</time></trkpt><trkpt lat="42.6523117" lon="-8.0659333"><ele>713.0</ele><time>2026-04-15T13:15:01.878Z</time></trkpt><trkpt lat="42.6523067" lon="-8.0662167"><ele>713.0</ele><time>2026-04-15T13:15:02.878Z</time></trkpt><trkpt lat="42.652305" lon="-8.0665033"><ele>713.3333333333333</ele><time>2026-04-15T13:15:03.878Z</time></trkpt><trkpt lat="42.6523017" lon="-8.0667917"><ele>713.6666666666666</ele><time>2026-04-15T13:15:04.879Z</time></trkpt><trkpt lat="42.6522933" lon="-8.067075"><ele>714.0</ele><time>2026-04-15T13:15:05.878Z</time></trkpt><trkpt lat="42.6522767" lon="-8.067365"><ele>715.3333333333334</ele><time>2026-04-15T13:15:06.878Z</time></trkpt><trkpt lat="42.6522717" lon="-8.06765"><ele>716.6666666666667</ele><time>2026-04-15T13:15:07.878Z</time></trkpt><trkpt lat="42.6522683" lon="-8.067935"><ele>718.0</ele><time>2026-04-15T13:15:08.878Z</time></trkpt><trkpt lat="42.65226" lon="-8.0682233"><ele>718.3333333333334</ele><time>2026-04-15T13:15:09.878Z</time></trkpt><trkpt lat="42.6522533" lon="-8.06852"><ele>718.6666666666666</ele><time>2026-04-15T13:15:10.878Z</time></trkpt><trkpt lat="42.6522467" lon="-8.0688067"><ele>719.0</ele><time>2026-04-15T13:15:11.879Z</time></trkpt><trkpt lat="42.6522367" lon="-8.0690933"><ele>718.6666666666666</ele><time>2026-04-15T13:15:12.878Z</time></trkpt><trkpt lat="42.65223" lon="-8.0693817"><ele>718.3333333333334</ele><time>2026-04-15T13:15:13.878Z</time></trkpt><trkpt lat="42.6522217" lon="-8.0696683"><ele>718.0</ele><time>2026-04-15T13:15:14.878Z</time></trkpt><trkpt lat="42.6522217" lon="-8.0699517"><ele>718.0</ele><time>2026-04-15T13:15:15.879Z</time></trkpt><trkpt lat="42.6522233" lon="-8.0702317"><ele>718.0</ele><time>2026-04-15T13:15:16.878Z</time></trkpt><trkpt lat="42.6522467" lon="-8.0705117"><ele>718.0</ele><time>2026-04-15T13:15:17.878Z</time></trkpt><trkpt lat="42.6522783" lon="-8.0707867"><ele>718.0</ele><time>2026-04-15T13:15:18.878Z</time></trkpt><trkpt lat="42.652325" lon="-8.0710633"><ele>718.0</ele><time>2026-04-15T13:15:19.879Z</time></trkpt><trkpt lat="42.6523917" lon="-8.07134"><ele>718.0</ele><time>2026-04-15T13:15:20.879Z</time></trkpt><trkpt lat="42.6524667" lon="-8.0716033"><ele>717.0</ele><time>2026-04-15T13:15:21.878Z</time></trkpt><trkpt lat="42.6525633" lon="-8.0718583"><ele>716.0</ele><time>2026-04-15T13:15:22.879Z</time></trkpt><trkpt lat="42.6526783" lon="-8.0721117"><ele>715.0</ele><time>2026-04-15T13:15:23.878Z</time></trkpt><trkpt lat="42.65279" lon="-8.0723633"><ele>715.0</ele><time>2026-04-15T13:15:24.878Z</time></trkpt><trkpt lat="42.6529133" lon="-8.0726083"><ele>715.0</ele><time>2026-04-15T13:15:25.879Z</time></trkpt><trkpt lat="42.6530383" lon="-8.0728617"><ele>715.0</ele><time>2026-04-15T13:15:26.879Z</time></trkpt><trkpt lat="42.6531667" lon="-8.0731233"><ele>711.3333333333334</ele><time>2026-04-15T13:15:27.879Z</time></trkpt><trkpt lat="42.6532833" lon="-8.0733833"><ele>707.6666666666666</ele><time>2026-04-15T13:15:28.878Z</time></trkpt><trkpt lat="42.6534067" lon="-8.07364"><ele>704.0</ele><time>2026-04-15T13:15:29.879Z</time></trkpt><trkpt lat="42.65353" lon="-8.0738967"><ele>704.0</ele><time>2026-04-15T13:15:30.879Z</time></trkpt><trkpt lat="42.653655" lon="-8.0741483"><ele>704.0</ele><time>2026-04-15T13:15:31.878Z</time></trkpt><trkpt lat="42.65377" lon="-8.0744017"><ele>704.0</ele><time>2026-04-15T13:15:32.879Z</time></trkpt><trkpt lat="42.65389" lon="-8.0746483"><ele>704.0</ele><time>2026-04-15T13:15:33.879Z</time></trkpt><trkpt lat="42.65401" lon="-8.0749"><ele>704.0</ele><time>2026-04-15T13:15:34.879Z</time></trkpt><trkpt lat="42.6541267" lon="-8.0751467"><ele>704.0</ele><time>2026-04-15T13:15:35.878Z</time></trkpt><trkpt lat="42.654235" lon="-8.0753983"><ele>701.0</ele><time>2026-04-15T13:15:36.879Z</time></trkpt><trkpt lat="42.6543533" lon="-8.0756433"><ele>698.0</ele><time>2026-04-15T13:15:37.879Z</time></trkpt><trkpt lat="42.6544667" lon="-8.0758833"><ele>695.0</ele><time>2026-04-15T13:15:38.879Z</time></trkpt><trkpt lat="42.6545817" lon="-8.0761267"><ele>694.6666666666666</ele><time>2026-04-15T13:15:39.879Z</time></trkpt><trkpt lat="42.6546917" lon="-8.076365"><ele>694.3333333333334</ele><time>2026-04-15T13:15:40.878Z</time></trkpt><trkpt lat="42.6547933" lon="-8.0766067"><ele>694.0</ele><time>2026-04-15T13:15:41.878Z</time></trkpt><trkpt lat="42.6548867" lon="-8.0768583"><ele>690.3333333333334</ele><time>2026-04-15T13:15:42.879Z</time></trkpt><trkpt lat="42.65497" lon="-8.0771233"><ele>686.6666666666666</ele><time>2026-04-15T13:15:43.878Z</time></trkpt><trkpt lat="42.6550383" lon="-8.0773983"><ele>683.0</ele><time>2026-04-15T13:15:44.879Z</time></trkpt><trkpt lat="42.655085" lon="-8.0776817"><ele>680.6666666666666</ele><time>2026-04-15T13:15:45.878Z</time></trkpt><trkpt lat="42.6551133" lon="-8.077965"><ele>678.3333333333334</ele><time>2026-04-15T13:15:46.878Z</time></trkpt><trkpt lat="42.6551117" lon="-8.0782533"><ele>676.0</ele><time>2026-04-15T13:15:47.879Z</time></trkpt><trkpt lat="42.6551033" lon="-8.0785367"><ele>675.6666666666667</ele><time>2026-04-15T13:15:48.878Z</time></trkpt><trkpt lat="42.6550717" lon="-8.0788183"><ele>675.3333333333334</ele><time>2026-04-15T13:15:49.879Z</time></trkpt><trkpt lat="42.65502" lon="-8.079105"><ele>675.0</ele><time>2026-04-15T13:15:50.879Z</time></trkpt><trkpt lat="42.6549467" lon="-8.07937"><ele>675.0</ele><time>2026-04-15T13:15:51.878Z</time></trkpt><trkpt lat="42.654855" lon="-8.0796233"><ele>675.0</ele><time>2026-04-15T13:15:52.878Z</time></trkpt><trkpt lat="42.654755" lon="-8.0798733"><ele>675.0</ele><time>2026-04-15T13:15:53.878Z</time></trkpt><trkpt lat="42.6546633" lon="-8.0801167"><ele>675.3333333333334</ele><time>2026-04-15T13:15:54.878Z</time></trkpt><trkpt lat="42.6545683" lon="-8.0803567"><ele>675.6666666666667</ele><time>2026-04-15T13:15:55.878Z</time></trkpt><trkpt lat="42.6544683" lon="-8.0805917"><ele>676.0</ele><time>2026-04-15T13:15:56.879Z</time></trkpt><trkpt lat="42.654365" lon="-8.0808367"><ele>675.3333333333334</ele><time>2026-04-15T13:15:57.878Z</time></trkpt><trkpt lat="42.65426" lon="-8.0810833"><ele>674.6666666666666</ele><time>2026-04-15T13:15:58.879Z</time></trkpt><trkpt lat="42.6541533" lon="-8.081325"><ele>674.0</ele><time>2026-04-15T13:15:59.878Z</time></trkpt><trkpt lat="42.6540533" lon="-8.081565"><ele>675.3333333333333</ele><time>2026-04-15T13:16:00.878Z</time></trkpt><trkpt lat="42.65396" lon="-8.0818083"><ele>676.6666666666666</ele><time>2026-04-15T13:16:01.878Z</time></trkpt><trkpt lat="42.6538633" lon="-8.0820483"><ele>678.0</ele><time>2026-04-15T13:16:02.879Z</time></trkpt><trkpt lat="42.653765" lon="-8.0822867"><ele>678.6666666666666</ele><time>2026-04-15T13:16:03.879Z</time></trkpt><trkpt lat="42.653665" lon="-8.08252"><ele>679.3333333333333</ele><time>2026-04-15T13:16:04.879Z</time></trkpt><trkpt lat="42.6535783" lon="-8.082755"><ele>680.0</ele><time>2026-04-15T13:16:05.879Z</time></trkpt><trkpt lat="42.6534933" lon="-8.083"><ele>677.3333333333333</ele><time>2026-04-15T13:16:06.878Z</time></trkpt><trkpt lat="42.6534233" lon="-8.0832517"><ele>674.6666666666666</ele><time>2026-04-15T13:16:07.878Z</time></trkpt><trkpt lat="42.65337" lon="-8.0835167"><ele>672.0</ele><time>2026-04-15T13:16:08.878Z</time></trkpt><trkpt lat="42.6533317" lon="-8.083775"><ele>672.0</ele><time>2026-04-15T13:16:09.878Z</time></trkpt><trkpt lat="42.6533083" lon="-8.08405"><ele>672.0</ele><time>2026-04-15T13:16:10.878Z</time></trkpt><trkpt lat="42.6533033" lon="-8.084335"><ele>672.0</ele><time>2026-04-15T13:16:11.878Z</time></trkpt><trkpt lat="42.6533183" lon="-8.08462"><ele>672.0</ele><time>2026-04-15T13:16:12.878Z</time></trkpt><trkpt lat="42.6533517" lon="-8.0848983"><ele>672.0</ele><time>2026-04-15T13:16:13.879Z</time></trkpt><trkpt lat="42.6533983" lon="-8.085175"><ele>672.0</ele><time>2026-04-15T13:16:14.879Z</time></trkpt><trkpt lat="42.65347" lon="-8.0854483"><ele>671.3333333333334</ele><time>2026-04-15T13:16:15.879Z</time></trkpt><trkpt lat="42.653565" lon="-8.0857117"><ele>670.6666666666667</ele><time>2026-04-15T13:16:16.879Z</time></trkpt><trkpt lat="42.6536567" lon="-8.0859667"><ele>670.0</ele><time>2026-04-15T13:16:17.878Z</time></trkpt><trkpt lat="42.65376" lon="-8.086215"><ele>670.0</ele><time>2026-04-15T13:16:18.878Z</time></trkpt><trkpt lat="42.6538733" lon="-8.08646"><ele>670.0</ele><time>2026-04-15T13:16:19.878Z</time></trkpt><trkpt lat="42.6539833" lon="-8.0867067"><ele>670.0</ele><time>2026-04-15T13:16:20.878Z</time></trkpt><trkpt lat="42.65409" lon="-8.08696"><ele>668.5</ele><time>2026-04-15T13:16:21.879Z</time></trkpt><trkpt lat="42.6542017" lon="-8.0872233"><ele>667.0</ele><time>2026-04-15T13:16:22.878Z</time></trkpt><trkpt lat="42.654315" lon="-8.08749"><ele>666.0</ele><time>2026-04-15T13:16:23.878Z</time></trkpt><trkpt lat="42.654425" lon="-8.0877417"><ele>665.0</ele><time>2026-04-15T13:16:24.878Z</time></trkpt><trkpt lat="42.6545517" lon="-8.0879783"><ele>664.0</ele><time>2026-04-15T13:16:25.878Z</time></trkpt><trkpt lat="42.654675" lon="-8.0882033"><ele>661.6666666666667</ele><time>2026-04-15T13:16:26.879Z</time></trkpt><trkpt lat="42.6548167" lon="-8.0884033"><ele>659.3333333333334</ele><time>2026-04-15T13:16:27.879Z</time></trkpt><trkpt lat="42.6549717" lon="-8.0885933"><ele>657.0</ele><time>2026-04-15T13:16:28.878Z</time></trkpt><trkpt lat="42.65514" lon="-8.08876"><ele>657.6666666666666</ele><time>2026-04-15T13:16:29.878Z</time></trkpt><trkpt lat="42.655315" lon="-8.0888983"><ele>658.3333333333333</ele><time>2026-04-15T13:16:30.878Z</time></trkpt><trkpt lat="42.6555" lon="-8.0890283"><ele>659.0</ele><time>2026-04-15T13:16:31.879Z</time></trkpt><trkpt lat="42.6556883" lon="-8.08913"><ele>659.0</ele><time>2026-04-15T13:16:32.878Z</time></trkpt><trkpt lat="42.6558767" lon="-8.08923"><ele>659.0</ele><time>2026-04-15T13:16:33.878Z</time></trkpt><trkpt lat="42.6560517" lon="-8.089315"><ele>659.0</ele><time>2026-04-15T13:16:34.878Z</time></trkpt><trkpt lat="42.6562383" lon="-8.0894033"><ele>656.0</ele><time>2026-04-15T13:16:35.878Z</time></trkpt><trkpt lat="42.656425" lon="-8.0895"><ele>653.0</ele><time>2026-04-15T13:16:36.879Z</time></trkpt><trkpt lat="42.656605" lon="-8.08962"><ele>650.0</ele><time>2026-04-15T13:16:37.879Z</time></trkpt><trkpt lat="42.6567817" lon="-8.0897467"><ele>650.0</ele><time>2026-04-15T13:16:38.879Z</time></trkpt><trkpt lat="42.65695" lon="-8.0898967"><ele>650.0</ele><time>2026-04-15T13:16:39.879Z</time></trkpt><trkpt lat="42.65711" lon="-8.090055"><ele>650.0</ele><time>2026-04-15T13:16:40.878Z</time></trkpt><trkpt lat="42.6572667" lon="-8.090225"><ele>651.3333333333333</ele><time>2026-04-15T13:16:41.878Z</time></trkpt><trkpt lat="42.6574167" lon="-8.090405"><ele>652.6666666666666</ele><time>2026-04-15T13:16:42.878Z</time></trkpt><trkpt lat="42.6575617" lon="-8.090605"><ele>654.0</ele><time>2026-04-15T13:16:43.879Z</time></trkpt><trkpt lat="42.6576967" lon="-8.0908117"><ele>655.6666666666666</ele><time>2026-04-15T13:16:44.878Z</time></trkpt><trkpt lat="42.657825" lon="-8.0910117"><ele>657.3333333333333</ele><time>2026-04-15T13:16:45.878Z</time></trkpt><trkpt lat="42.6579517" lon="-8.0912167"><ele>659.0</ele><time>2026-04-15T13:16:46.879Z</time></trkpt><trkpt lat="42.658075" lon="-8.0914233"><ele>660.0</ele><time>2026-04-15T13:16:47.878Z</time></trkpt><trkpt lat="42.6582033" lon="-8.09164"><ele>661.0</ele><time>2026-04-15T13:16:48.878Z</time></trkpt><trkpt lat="42.6583317" lon="-8.0918617"><ele>662.0</ele><time>2026-04-15T13:16:49.878Z</time></trkpt><trkpt lat="42.6584633" lon="-8.0920883"><ele>662.0</ele><time>2026-04-15T13:16:50.879Z</time></trkpt><trkpt lat="42.6585983" lon="-8.09232"><ele>662.0</ele><time>2026-04-15T13:16:51.879Z</time></trkpt><trkpt lat="42.6587317" lon="-8.0925583"><ele>662.0</ele><time>2026-04-15T13:16:52.879Z</time></trkpt><trkpt lat="42.6588717" lon="-8.092795"><ele>659.3333333333333</ele><time>2026-04-15T13:16:53.879Z</time></trkpt><trkpt lat="42.6590067" lon="-8.0930267"><ele>656.6666666666666</ele><time>2026-04-15T13:16:54.879Z</time></trkpt><trkpt lat="42.659145" lon="-8.09325"><ele>654.0</ele><time>2026-04-15T13:16:55.878Z</time></trkpt><trkpt lat="42.65929" lon="-8.0934683"><ele>652.3333333333334</ele><time>2026-04-15T13:16:56.878Z</time></trkpt><trkpt lat="42.65944" lon="-8.0936733"><ele>650.6666666666667</ele><time>2026-04-15T13:16:57.879Z</time></trkpt><trkpt lat="42.6596033" lon="-8.0938633"><ele>649.0</ele><time>2026-04-15T13:16:58.879Z</time></trkpt><trkpt lat="42.6597717" lon="-8.0940417"><ele>645.6666666666667</ele><time>2026-04-15T13:16:59.878Z</time></trkpt><trkpt lat="42.65995" lon="-8.0942117"><ele>642.3333333333334</ele><time>2026-04-15T13:17:00.879Z</time></trkpt><trkpt lat="42.660135" lon="-8.0943733"><ele>639.0</ele><time>2026-04-15T13:17:01.878Z</time></trkpt><trkpt lat="42.6603183" lon="-8.0945317"><ele>636.6666666666666</ele><time>2026-04-15T13:17:02.878Z</time></trkpt><trkpt lat="42.6605067" lon="-8.0946917"><ele>634.3333333333333</ele><time>2026-04-15T13:17:03.878Z</time></trkpt><trkpt lat="42.6607017" lon="-8.0948467"><ele>632.0</ele><time>2026-04-15T13:17:04.879Z</time></trkpt><trkpt lat="42.6608817" lon="-8.095"><ele>632.0</ele><time>2026-04-15T13:17:05.879Z</time></trkpt><trkpt lat="42.66106" lon="-8.095165"><ele>632.0</ele><time>2026-04-15T13:17:06.879Z</time></trkpt><trkpt lat="42.66123" lon="-8.0953233"><ele>632.0</ele><time>2026-04-15T13:17:07.878Z</time></trkpt><trkpt lat="42.661395" lon="-8.0954867"><ele>629.6666666666666</ele><time>2026-04-15T13:17:08.878Z</time></trkpt><trkpt lat="42.6615633" lon="-8.0956383"><ele>627.3333333333334</ele><time>2026-04-15T13:17:09.878Z</time></trkpt><trkpt lat="42.6617333" lon="-8.0957833"><ele>625.0</ele><time>2026-04-15T13:17:10.878Z</time></trkpt><trkpt lat="42.6619033" lon="-8.0959117"><ele>621.3333333333334</ele><time>2026-04-15T13:17:11.878Z</time></trkpt><trkpt lat="42.6620767" lon="-8.09603"><ele>617.6666666666666</ele><time>2026-04-15T13:17:12.879Z</time></trkpt><trkpt lat="42.662245" lon="-8.096145"><ele>614.0</ele><time>2026-04-15T13:17:13.878Z</time></trkpt><trkpt lat="42.6624117" lon="-8.0962383"><ele>614.0</ele><time>2026-04-15T13:17:14.878Z</time></trkpt><trkpt lat="42.6625667" lon="-8.096335"><ele>614.0</ele><time>2026-04-15T13:17:15.878Z</time></trkpt><trkpt lat="42.6627167" lon="-8.0964233"><ele>614.0</ele><time>2026-04-15T13:17:16.879Z</time></trkpt><trkpt lat="42.6628583" lon="-8.0965117"><ele>612.25</ele><time>2026-04-15T13:17:17.879Z</time></trkpt><trkpt lat="42.66299" lon="-8.0965983"><ele>610.5</ele><time>2026-04-15T13:17:18.878Z</time></trkpt><trkpt lat="42.6631083" lon="-8.0966883"><ele>608.75</ele><time>2026-04-15T13:17:19.878Z</time></trkpt><trkpt lat="42.66321" lon="-8.0968067"><ele>607.0</ele><time>2026-04-15T13:17:20.878Z</time></trkpt><trkpt lat="42.66327" lon="-8.096965"><ele>607.0</ele><time>2026-04-15T13:17:21.878Z</time></trkpt><trkpt lat="42.6632933" lon="-8.097155"><ele>607.0</ele><time>2026-04-15T13:17:22.878Z</time></trkpt><trkpt lat="42.6632883" lon="-8.097365"><ele>607.0</ele><time>2026-04-15T13:17:23.879Z</time></trkpt><trkpt lat="42.663295" lon="-8.097585"><ele>606.75</ele><time>2026-04-15T13:17:24.879Z</time></trkpt><trkpt lat="42.6632983" lon="-8.097795"><ele>606.5</ele><time>2026-04-15T13:17:25.878Z</time></trkpt><trkpt lat="42.66331" lon="-8.0979967"><ele>606.25</ele><time>2026-04-15T13:17:26.878Z</time></trkpt><trkpt lat="42.66331" lon="-8.0981933"><ele>606.0</ele><time>2026-04-15T13:17:27.879Z</time></trkpt><trkpt lat="42.6632933" lon="-8.0984033"><ele>605.0</ele><time>2026-04-15T13:17:28.879Z</time></trkpt><trkpt lat="42.663245" lon="-8.0986117"><ele>604.0</ele><time>2026-04-15T13:17:29.878Z</time></trkpt><trkpt lat="42.6631717" lon="-8.09882"><ele>603.0</ele><time>2026-04-15T13:17:30.879Z</time></trkpt><trkpt lat="42.6630867" lon="-8.0990383"><ele>602.0</ele><time>2026-04-15T13:17:31.878Z</time></trkpt><trkpt lat="42.662995" lon="-8.099275"><ele>601.0</ele><time>2026-04-15T13:17:32.879Z</time></trkpt><trkpt lat="42.66289" lon="-8.0995183"><ele>600.0</ele><time>2026-04-15T13:17:33.878Z</time></trkpt><trkpt lat="42.6628017" lon="-8.0997667"><ele>600.0</ele><time>2026-04-15T13:17:34.878Z</time></trkpt><trkpt lat="42.6627267" lon="-8.1000167"><ele>600.0</ele><time>2026-04-15T13:17:35.878Z</time></trkpt><trkpt lat="42.6626467" lon="-8.10024"><ele>600.0</ele><time>2026-04-15T13:17:36.878Z</time></trkpt><trkpt lat="42.66256" lon="-8.1004433"><ele>600.0</ele><time>2026-04-15T13:17:37.878Z</time></trkpt><trkpt lat="42.6624617" lon="-8.1006283"><ele>600.0</ele><time>2026-04-15T13:17:38.879Z</time></trkpt><trkpt lat="42.6623333" lon="-8.100785"><ele>600.0</ele><time>2026-04-15T13:17:39.878Z</time></trkpt><trkpt lat="42.6621833" lon="-8.1009083"><ele>597.3333333333334</ele><time>2026-04-15T13:17:40.878Z</time></trkpt><trkpt lat="42.6620317" lon="-8.101005"><ele>594.6666666666667</ele><time>2026-04-15T13:17:41.879Z</time></trkpt><trkpt lat="42.66188" lon="-8.1010883"><ele>592.0</ele><time>2026-04-15T13:17:42.878Z</time></trkpt><trkpt lat="42.66174" lon="-8.101165"><ele>592.0</ele><time>2026-04-15T13:17:43.878Z</time></trkpt><trkpt lat="42.6615983" lon="-8.1012533"><ele>592.0</ele><time>2026-04-15T13:17:44.879Z</time></trkpt><trkpt lat="42.66147" lon="-8.1013583"><ele>592.0</ele><time>2026-04-15T13:17:45.878Z</time></trkpt><trkpt lat="42.6613817" lon="-8.1014967"><ele>592.0</ele><time>2026-04-15T13:17:46.878Z</time></trkpt><trkpt lat="42.6613433" lon="-8.1016883"><ele>590.3333333333334</ele><time>2026-04-15T13:17:47.879Z</time></trkpt><trkpt lat="42.661355" lon="-8.1018933"><ele>588.6666666666666</ele><time>2026-04-15T13:17:48.878Z</time></trkpt><trkpt lat="42.6614067" lon="-8.1020933"><ele>587.0</ele><time>2026-04-15T13:17:49.878Z</time></trkpt><trkpt lat="42.6614517" lon="-8.1023133"><ele>585.3333333333333</ele><time>2026-04-15T13:17:50.879Z</time></trkpt><trkpt lat="42.661495" lon="-8.1025517"><ele>583.6666666666666</ele><time>2026-04-15T13:17:51.878Z</time></trkpt><trkpt lat="42.6615333" lon="-8.1027917"><ele>582.0</ele><time>2026-04-15T13:17:52.879Z</time></trkpt><trkpt lat="42.6615783" lon="-8.1030283"><ele>581.3333333333334</ele><time>2026-04-15T13:17:53.878Z</time></trkpt><trkpt lat="42.66163" lon="-8.1032883"><ele>580.6666666666667</ele><time>2026-04-15T13:17:54.878Z</time></trkpt><trkpt lat="42.6616733" lon="-8.1035333"><ele>580.0</ele><time>2026-04-15T13:17:55.878Z</time></trkpt><trkpt lat="42.6617167" lon="-8.1037933"><ele>580.0</ele><time>2026-04-15T13:17:56.878Z</time></trkpt><trkpt lat="42.6617683" lon="-8.10404"><ele>580.0</ele><time>2026-04-15T13:17:57.879Z</time></trkpt><trkpt lat="42.6618133" lon="-8.1042783"><ele>580.0</ele><time>2026-04-15T13:17:58.878Z</time></trkpt><trkpt lat="42.6618317" lon="-8.104495"><ele>579.75</ele><time>2026-04-15T13:17:59.878Z</time></trkpt><trkpt lat="42.661845" lon="-8.1046933"><ele>579.5</ele><time>2026-04-15T13:18:00.878Z</time></trkpt><trkpt lat="42.661845" lon="-8.1048583"><ele>579.25</ele><time>2026-04-15T13:18:01.878Z</time></trkpt><trkpt lat="42.6618417" lon="-8.105005"><ele>579.0</ele><time>2026-04-15T13:18:02.879Z</time></trkpt><trkpt lat="42.661825" lon="-8.1051117"><ele>578.8</ele><time>2026-04-15T13:18:03.878Z</time></trkpt><trkpt lat="42.6617983" lon="-8.1052267"><ele>578.5999999999999</ele><time>2026-04-15T13:18:05.878Z</time></trkpt><trkpt lat="42.661835" lon="-8.105325"><ele>578.4</ele><time>2026-04-15T13:18:08.878Z</time></trkpt><trkpt lat="42.66194" lon="-8.1053967"><ele>578.1999999999999</ele><time>2026-04-15T13:18:10.878Z</time></trkpt><trkpt lat="42.662035" lon="-8.105405"><ele>578.0</ele><time>2026-04-15T13:18:11.879Z</time></trkpt><trkpt lat="42.662145" lon="-8.1053683"><ele>574.5</ele><time>2026-04-15T13:18:12.878Z</time></trkpt><trkpt lat="42.662265" lon="-8.1052967"><ele>571.0</ele><time>2026-04-15T13:18:13.878Z</time></trkpt><trkpt lat="42.66239" lon="-8.1052167"><ele>567.5</ele><time>2026-04-15T13:18:14.879Z</time></trkpt><trkpt lat="42.66252" lon="-8.1051233"><ele>564.0</ele><time>2026-04-15T13:18:15.879Z</time></trkpt><trkpt lat="42.6626567" lon="-8.10502"><ele>561.3333333333334</ele><time>2026-04-15T13:18:16.878Z</time></trkpt><trkpt lat="42.6627917" lon="-8.1049067"><ele>558.6666666666667</ele><time>2026-04-15T13:18:17.879Z</time></trkpt><trkpt lat="42.6629183" lon="-8.1047867"><ele>556.0</ele><time>2026-04-15T13:18:18.879Z</time></trkpt><trkpt lat="42.66304" lon="-8.104665"><ele>556.0</ele><time>2026-04-15T13:18:19.878Z</time></trkpt><trkpt lat="42.6631683" lon="-8.1045367"><ele>556.0</ele><time>2026-04-15T13:18:20.878Z</time></trkpt><trkpt lat="42.6633" lon="-8.1044133"><ele>556.0</ele><time>2026-04-15T13:18:21.878Z</time></trkpt><trkpt lat="42.66343" lon="-8.10429"><ele>556.0</ele><time>2026-04-15T13:18:22.879Z</time></trkpt><trkpt lat="42.66356" lon="-8.1041667"><ele>556.0</ele><time>2026-04-15T13:18:23.879Z</time></trkpt><trkpt lat="42.6636983" lon="-8.1040533"><ele>556.0</ele><time>2026-04-15T13:18:24.878Z</time></trkpt><trkpt lat="42.6638433" lon="-8.103935"><ele>556.3333333333334</ele><time>2026-04-15T13:18:25.879Z</time></trkpt><trkpt lat="42.6639917" lon="-8.103825"><ele>556.6666666666666</ele><time>2026-04-15T13:18:26.879Z</time></trkpt><trkpt lat="42.66415" lon="-8.103735"><ele>557.0</ele><time>2026-04-15T13:18:27.879Z</time></trkpt><trkpt lat="42.664315" lon="-8.1036533"><ele>556.3333333333333</ele><time>2026-04-15T13:18:28.879Z</time></trkpt><trkpt lat="42.66449" lon="-8.1035817"><ele>555.6666666666666</ele><time>2026-04-15T13:18:29.878Z</time></trkpt><trkpt lat="42.6646667" lon="-8.1035183"><ele>555.0</ele><time>2026-04-15T13:18:30.878Z</time></trkpt><trkpt lat="42.6648517" lon="-8.1034683"><ele>555.0</ele><time>2026-04-15T13:18:31.878Z</time></trkpt><trkpt lat="42.665035" lon="-8.103435"><ele>555.0</ele><time>2026-04-15T13:18:32.879Z</time></trkpt><trkpt lat="42.665225" lon="-8.1034233"><ele>555.0</ele><time>2026-04-15T13:18:33.879Z</time></trkpt><trkpt lat="42.665425" lon="-8.103425"><ele>555.3333333333334</ele><time>2026-04-15T13:18:34.879Z</time></trkpt><trkpt lat="42.66562" lon="-8.1034333"><ele>555.6666666666667</ele><time>2026-04-15T13:18:35.879Z</time></trkpt><trkpt lat="42.665805" lon="-8.1034433"><ele>556.0</ele><time>2026-04-15T13:18:36.879Z</time></trkpt><trkpt lat="42.66599" lon="-8.10348"><ele>555.3333333333334</ele><time>2026-04-15T13:18:37.879Z</time></trkpt><trkpt lat="42.66616" lon="-8.1035117"><ele>554.6666666666666</ele><time>2026-04-15T13:18:38.879Z</time></trkpt><trkpt lat="42.66631" lon="-8.1035433"><ele>554.0</ele><time>2026-04-15T13:18:39.878Z</time></trkpt><trkpt lat="42.6664533" lon="-8.10357"><ele>554.0</ele><time>2026-04-15T13:18:40.879Z</time></trkpt><trkpt lat="42.6665867" lon="-8.1036"><ele>554.0</ele><time>2026-04-15T13:18:41.878Z</time></trkpt><trkpt lat="42.6667167" lon="-8.1036267"><ele>554.0</ele><time>2026-04-15T13:18:42.878Z</time></trkpt><trkpt lat="42.6668317" lon="-8.10363"><ele>554.0</ele><time>2026-04-15T13:18:43.878Z</time></trkpt><trkpt lat="42.6669517" lon="-8.1036033"><ele>554.5</ele><time>2026-04-15T13:18:44.878Z</time></trkpt><trkpt lat="42.66706" lon="-8.1035683"><ele>555.0</ele><time>2026-04-15T13:18:45.879Z</time></trkpt><trkpt lat="42.6671717" lon="-8.103555"><ele>555.5</ele><time>2026-04-15T13:18:46.878Z</time></trkpt><trkpt lat="42.6672833" lon="-8.1035983"><ele>556.0</ele><time>2026-04-15T13:18:47.879Z</time></trkpt><trkpt lat="42.6674033" lon="-8.10367"><ele>556.0</ele><time>2026-04-15T13:18:48.878Z</time></trkpt><trkpt lat="42.6675367" lon="-8.1037417"><ele>556.0</ele><time>2026-04-15T13:18:49.878Z</time></trkpt><trkpt lat="42.6676883" lon="-8.10378"><ele>556.0</ele><time>2026-04-15T13:18:50.878Z</time></trkpt><trkpt lat="42.66785" lon="-8.10381"><ele>556.3333333333334</ele><time>2026-04-15T13:18:51.879Z</time></trkpt><trkpt lat="42.6680183" lon="-8.103855"><ele>556.6666666666666</ele><time>2026-04-15T13:18:52.879Z</time></trkpt><trkpt lat="42.6681883" lon="-8.1039183"><ele>557.0</ele><time>2026-04-15T13:18:53.878Z</time></trkpt><trkpt lat="42.66836" lon="-8.1040033"><ele>558.6666666666666</ele><time>2026-04-15T13:18:54.878Z</time></trkpt><trkpt lat="42.6685367" lon="-8.1041083"><ele>560.3333333333334</ele><time>2026-04-15T13:18:55.879Z</time></trkpt><trkpt lat="42.6687083" lon="-8.10422"><ele>562.0</ele><time>2026-04-15T13:18:56.879Z</time></trkpt><trkpt lat="42.6688767" lon="-8.1043483"><ele>565.0</ele><time>2026-04-15T13:18:57.878Z</time></trkpt><trkpt lat="42.6690417" lon="-8.10449"><ele>568.0</ele><time>2026-04-15T13:18:58.878Z</time></trkpt><trkpt lat="42.6691983" lon="-8.1046467"><ele>571.0</ele><time>2026-04-15T13:18:59.879Z</time></trkpt><trkpt lat="42.669345" lon="-8.104825"><ele>574.6666666666667</ele><time>2026-04-15T13:19:00.879Z</time></trkpt><trkpt lat="42.66948" lon="-8.1050183"><ele>578.3333333333334</ele><time>2026-04-15T13:19:01.878Z</time></trkpt><trkpt lat="42.6696117" lon="-8.1052133"><ele>582.0</ele><time>2026-04-15T13:19:02.878Z</time></trkpt><trkpt lat="42.6697317" lon="-8.1054133"><ele>582.0</ele><time>2026-04-15T13:19:03.878Z</time></trkpt><trkpt lat="42.669845" lon="-8.1056117"><ele>582.0</ele><time>2026-04-15T13:19:04.878Z</time></trkpt><trkpt lat="42.669955" lon="-8.1058"><ele>582.0</ele><time>2026-04-15T13:19:05.878Z</time></trkpt><trkpt lat="42.6700717" lon="-8.1059617"><ele>582.5</ele><time>2026-04-15T13:19:06.878Z</time></trkpt><trkpt lat="42.670205" lon="-8.1060833"><ele>583.0</ele><time>2026-04-15T13:19:07.879Z</time></trkpt><trkpt lat="42.67034" lon="-8.1061683"><ele>583.5</ele><time>2026-04-15T13:19:08.879Z</time></trkpt><trkpt lat="42.6704567" lon="-8.1062567"><ele>584.0</ele><time>2026-04-15T13:19:09.878Z</time></trkpt><trkpt lat="42.6705383" lon="-8.1063683"><ele>584.6</ele><time>2026-04-15T13:19:10.878Z</time></trkpt><trkpt lat="42.6705817" lon="-8.1065017"><ele>585.2</ele><time>2026-04-15T13:19:11.879Z</time></trkpt><trkpt lat="42.6705667" lon="-8.1066317"><ele>585.8000000000001</ele><time>2026-04-15T13:19:12.878Z</time></trkpt><trkpt lat="42.6705133" lon="-8.1067567"><ele>586.4</ele><time>2026-04-15T13:19:13.878Z</time></trkpt><trkpt lat="42.670425" lon="-8.1068733"><ele>587.0</ele><time>2026-04-15T13:19:14.879Z</time></trkpt><trkpt lat="42.6703417" lon="-8.1070133"><ele>586.6666666666666</ele><time>2026-04-15T13:19:15.878Z</time></trkpt><trkpt lat="42.6702717" lon="-8.1071817"><ele>586.3333333333334</ele><time>2026-04-15T13:19:16.879Z</time></trkpt><trkpt lat="42.6702233" lon="-8.1073783"><ele>586.0</ele><time>2026-04-15T13:19:17.878Z</time></trkpt><trkpt lat="42.6701833" lon="-8.1075917"><ele>586.3333333333334</ele><time>2026-04-15T13:19:18.879Z</time></trkpt><trkpt lat="42.6701467" lon="-8.1078267"><ele>586.6666666666666</ele><time>2026-04-15T13:19:19.878Z</time></trkpt><trkpt lat="42.670115" lon="-8.1080817"><ele>587.0</ele><time>2026-04-15T13:19:20.878Z</time></trkpt><trkpt lat="42.6700867" lon="-8.10836"><ele>587.0</ele><time>2026-04-15T13:19:21.879Z</time></trkpt><trkpt lat="42.6700433" lon="-8.1086583"><ele>587.0</ele><time>2026-04-15T13:19:22.878Z</time></trkpt><trkpt lat="42.6700233" lon="-8.10897"><ele>587.0</ele><time>2026-04-15T13:19:23.879Z</time></trkpt><trkpt lat="42.6699983" lon="-8.1092783"><ele>587.0</ele><time>2026-04-15T13:19:24.879Z</time></trkpt><trkpt lat="42.6699683" lon="-8.1095667"><ele>587.0</ele><time>2026-04-15T13:19:25.878Z</time></trkpt><trkpt lat="42.6699317" lon="-8.1098383"><ele>585.6666666666666</ele><time>2026-04-15T13:19:26.878Z</time></trkpt><trkpt lat="42.66988" lon="-8.11011"><ele>584.3333333333334</ele><time>2026-04-15T13:19:27.878Z</time></trkpt><trkpt lat="42.66984" lon="-8.11037"><ele>583.0</ele><time>2026-04-15T13:19:28.878Z</time></trkpt><trkpt lat="42.6697783" lon="-8.1106183"><ele>582.3333333333334</ele><time>2026-04-15T13:19:29.878Z</time></trkpt><trkpt lat="42.6697033" lon="-8.1108633"><ele>581.6666666666666</ele><time>2026-04-15T13:19:30.878Z</time></trkpt><trkpt lat="42.66963" lon="-8.1110967"><ele>581.0</ele><time>2026-04-15T13:19:31.878Z</time></trkpt><trkpt lat="42.6695717" lon="-8.1113083"><ele>581.0</ele><time>2026-04-15T13:19:32.878Z</time></trkpt><trkpt lat="42.6695" lon="-8.1115317"><ele>581.0</ele><time>2026-04-15T13:19:33.878Z</time></trkpt><trkpt lat="42.6694383" lon="-8.1117433"><ele>581.0</ele><time>2026-04-15T13:19:34.879Z</time></trkpt><trkpt lat="42.6693633" lon="-8.1119433"><ele>574.6666666666666</ele><time>2026-04-15T13:19:35.879Z</time></trkpt><trkpt lat="42.6692633" lon="-8.1121217"><ele>568.3333333333334</ele><time>2026-04-15T13:19:36.879Z</time></trkpt><trkpt lat="42.6691583" lon="-8.112315"><ele>562.0</ele><time>2026-04-15T13:19:37.878Z</time></trkpt><trkpt lat="42.669045" lon="-8.1125283"><ele>558.3333333333334</ele><time>2026-04-15T13:19:38.878Z</time></trkpt><trkpt lat="42.668945" lon="-8.11275"><ele>554.6666666666666</ele><time>2026-04-15T13:19:39.878Z</time></trkpt><trkpt lat="42.6688583" lon="-8.112985"><ele>551.0</ele><time>2026-04-15T13:19:40.878Z</time></trkpt><trkpt lat="42.6687783" lon="-8.1132267"><ele>549.3333333333333</ele><time>2026-04-15T13:19:41.878Z</time></trkpt><trkpt lat="42.66869" lon="-8.1134733"><ele>547.6666666666666</ele><time>2026-04-15T13:19:42.878Z</time></trkpt><trkpt lat="42.66862" lon="-8.1137283"><ele>546.0</ele><time>2026-04-15T13:19:43.878Z</time></trkpt><trkpt lat="42.6685667" lon="-8.1139883"><ele>540.6666666666666</ele><time>2026-04-15T13:19:44.878Z</time></trkpt><trkpt lat="42.66852" lon="-8.114255"><ele>535.3333333333333</ele><time>2026-04-15T13:19:45.879Z</time></trkpt><trkpt lat="42.6684867" lon="-8.1145217"><ele>530.0</ele><time>2026-04-15T13:19:46.879Z</time></trkpt><trkpt lat="42.6684683" lon="-8.114795"><ele>529.0</ele><time>2026-04-15T13:19:47.879Z</time></trkpt><trkpt lat="42.66846" lon="-8.1150617"><ele>528.0</ele><time>2026-04-15T13:19:48.879Z</time></trkpt><trkpt lat="42.6684517" lon="-8.1153417"><ele>527.0</ele><time>2026-04-15T13:19:49.879Z</time></trkpt><trkpt lat="42.6684317" lon="-8.1156133"><ele>529.0</ele><time>2026-04-15T13:19:50.878Z</time></trkpt><trkpt lat="42.6684133" lon="-8.1158817"><ele>531.0</ele><time>2026-04-15T13:19:51.879Z</time></trkpt><trkpt lat="42.6683983" lon="-8.116145"><ele>533.0</ele><time>2026-04-15T13:19:52.879Z</time></trkpt><trkpt lat="42.66838" lon="-8.1164083"><ele>534.3333333333333</ele><time>2026-04-15T13:19:53.878Z</time></trkpt><trkpt lat="42.6683667" lon="-8.1166717"><ele>535.6666666666666</ele><time>2026-04-15T13:19:54.878Z</time></trkpt><trkpt lat="42.66836" lon="-8.116935"><ele>537.0</ele><time>2026-04-15T13:19:55.878Z</time></trkpt><trkpt lat="42.66834" lon="-8.1171867"><ele>537.6666666666666</ele><time>2026-04-15T13:19:56.878Z</time></trkpt><trkpt lat="42.66831" lon="-8.1174333"><ele>538.3333333333333</ele><time>2026-04-15T13:19:57.879Z</time></trkpt><trkpt lat="42.668285" lon="-8.1176933"><ele>539.0</ele><time>2026-04-15T13:19:58.879Z</time></trkpt><trkpt lat="42.6682767" lon="-8.11793"><ele>539.0</ele><time>2026-04-15T13:19:59.879Z</time></trkpt><trkpt lat="42.66827" lon="-8.11815"><ele>539.0</ele><time>2026-04-15T13:20:00.879Z</time></trkpt><trkpt lat="42.6682717" lon="-8.11836"><ele>539.0</ele><time>2026-04-15T13:20:01.879Z</time></trkpt><trkpt lat="42.6682917" lon="-8.1185467"><ele>538.75</ele><time>2026-04-15T13:20:02.879Z</time></trkpt><trkpt lat="42.6683" lon="-8.118725"><ele>538.5</ele><time>2026-04-15T13:20:03.878Z</time></trkpt><trkpt lat="42.668285" lon="-8.118925"><ele>538.25</ele><time>2026-04-15T13:20:04.878Z</time></trkpt><trkpt lat="42.66824" lon="-8.1191333"><ele>538.0</ele><time>2026-04-15T13:20:05.878Z</time></trkpt><trkpt lat="42.6682067" lon="-8.1193467"><ele>538.0</ele><time>2026-04-15T13:20:06.878Z</time></trkpt><trkpt lat="42.6681933" lon="-8.119575"><ele>538.0</ele><time>2026-04-15T13:20:07.879Z</time></trkpt><trkpt lat="42.6681783" lon="-8.1198017"><ele>538.0</ele><time>2026-04-15T13:20:08.879Z</time></trkpt><trkpt lat="42.668155" lon="-8.120045"><ele>538.3333333333334</ele><time>2026-04-15T13:20:09.878Z</time></trkpt><trkpt lat="42.6681383" lon="-8.1202917"><ele>538.6666666666666</ele><time>2026-04-15T13:20:10.878Z</time></trkpt><trkpt lat="42.6681267" lon="-8.12054"><ele>539.0</ele><time>2026-04-15T13:20:11.878Z</time></trkpt><trkpt lat="42.6681117" lon="-8.120795"><ele>538.0</ele><time>2026-04-15T13:20:12.878Z</time></trkpt><trkpt lat="42.668095" lon="-8.12105"><ele>537.0</ele><time>2026-04-15T13:20:13.879Z</time></trkpt><trkpt lat="42.6680783" lon="-8.1213017"><ele>536.0</ele><time>2026-04-15T13:20:14.879Z</time></trkpt><trkpt lat="42.6680617" lon="-8.1215633"><ele>535.3333333333333</ele><time>2026-04-15T13:20:15.879Z</time></trkpt><trkpt lat="42.668045" lon="-8.12183"><ele>534.6666666666666</ele><time>2026-04-15T13:20:16.879Z</time></trkpt><trkpt lat="42.6680317" lon="-8.1220967"><ele>534.0</ele><time>2026-04-15T13:20:17.878Z</time></trkpt><trkpt lat="42.6680183" lon="-8.1223733"><ele>532.6666666666666</ele><time>2026-04-15T13:20:18.879Z</time></trkpt><trkpt lat="42.66801" lon="-8.1226617"><ele>531.3333333333333</ele><time>2026-04-15T13:20:19.878Z</time></trkpt><trkpt lat="42.6679983" lon="-8.1229383"><ele>530.0</ele><time>2026-04-15T13:20:20.879Z</time></trkpt><trkpt lat="42.6679817" lon="-8.12321"><ele>528.0</ele><time>2026-04-15T13:20:21.879Z</time></trkpt><trkpt lat="42.6679667" lon="-8.123485"><ele>526.0</ele><time>2026-04-15T13:20:22.878Z</time></trkpt><trkpt lat="42.6679517" lon="-8.1237533"><ele>524.0</ele><time>2026-04-15T13:20:23.878Z</time></trkpt><trkpt lat="42.6679333" lon="-8.12402"><ele>522.3333333333333</ele><time>2026-04-15T13:20:24.879Z</time></trkpt><trkpt lat="42.6679233" lon="-8.1242917"><ele>520.6666666666666</ele><time>2026-04-15T13:20:25.878Z</time></trkpt><trkpt lat="42.6679117" lon="-8.1245483"><ele>519.0</ele><time>2026-04-15T13:20:26.879Z</time></trkpt><trkpt lat="42.6678883" lon="-8.124785"><ele>518.6666666666666</ele><time>2026-04-15T13:20:27.878Z</time></trkpt><trkpt lat="42.6678733" lon="-8.12502"><ele>518.3333333333333</ele><time>2026-04-15T13:20:28.879Z</time></trkpt><trkpt lat="42.6678567" lon="-8.12525"><ele>518.0</ele><time>2026-04-15T13:20:29.878Z</time></trkpt><trkpt lat="42.667845" lon="-8.12547"><ele>518.0</ele><time>2026-04-15T13:20:30.878Z</time></trkpt><trkpt lat="42.6678167" lon="-8.1256833"><ele>518.0</ele><time>2026-04-15T13:20:31.879Z</time></trkpt><trkpt lat="42.667805" lon="-8.1259017"><ele>518.0</ele><time>2026-04-15T13:20:32.878Z</time></trkpt><trkpt lat="42.667795" lon="-8.1261017"><ele>516.5</ele><time>2026-04-15T13:20:33.879Z</time></trkpt><trkpt lat="42.6678" lon="-8.1262817"><ele>515.0</ele><time>2026-04-15T13:20:34.879Z</time></trkpt><trkpt lat="42.667835" lon="-8.126435"><ele>513.5</ele><time>2026-04-15T13:20:35.879Z</time></trkpt><trkpt lat="42.667895" lon="-8.1265717"><ele>512.0</ele><time>2026-04-15T13:20:36.879Z</time></trkpt><trkpt lat="42.66797" lon="-8.12671"><ele>511.25</ele><time>2026-04-15T13:20:37.879Z</time></trkpt><trkpt lat="42.6680267" lon="-8.1268733"><ele>510.5</ele><time>2026-04-15T13:20:38.878Z</time></trkpt><trkpt lat="42.6680767" lon="-8.12706"><ele>509.75</ele><time>2026-04-15T13:20:39.878Z</time></trkpt><trkpt lat="42.66812" lon="-8.1272633"><ele>509.0</ele><time>2026-04-15T13:20:40.879Z</time></trkpt><trkpt lat="42.6681817" lon="-8.1274733"><ele>509.0</ele><time>2026-04-15T13:20:41.879Z</time></trkpt><trkpt lat="42.6682483" lon="-8.1276883"><ele>509.0</ele><time>2026-04-15T13:20:42.878Z</time></trkpt><trkpt lat="42.6683233" lon="-8.1279067"><ele>509.0</ele><time>2026-04-15T13:20:43.879Z</time></trkpt><trkpt lat="42.6683983" lon="-8.1281233"><ele>508.3333333333333</ele><time>2026-04-15T13:20:44.878Z</time></trkpt><trkpt lat="42.66846" lon="-8.1283417"><ele>507.66666666666663</ele><time>2026-04-15T13:20:45.878Z</time></trkpt><trkpt lat="42.6685233" lon="-8.1285683"><ele>507.0</ele><time>2026-04-15T13:20:46.878Z</time></trkpt><trkpt lat="42.6685933" lon="-8.128795"><ele>507.0</ele><time>2026-04-15T13:20:47.878Z</time></trkpt><trkpt lat="42.66866" lon="-8.1290167"><ele>507.0</ele><time>2026-04-15T13:20:48.878Z</time></trkpt><trkpt lat="42.668735" lon="-8.1292567"><ele>507.0</ele><time>2026-04-15T13:20:49.878Z</time></trkpt><trkpt lat="42.66882" lon="-8.1294917"><ele>507.0</ele><time>2026-04-15T13:20:50.878Z</time></trkpt><trkpt lat="42.6689" lon="-8.1297333"><ele>507.0</ele><time>2026-04-15T13:20:51.879Z</time></trkpt><trkpt lat="42.6689783" lon="-8.1299783"><ele>507.0</ele><time>2026-04-15T13:20:52.878Z</time></trkpt><trkpt lat="42.66906" lon="-8.1302133"><ele>505.66666666666663</ele><time>2026-04-15T13:20:53.879Z</time></trkpt><trkpt lat="42.6691367" lon="-8.1304433"><ele>504.3333333333333</ele><time>2026-04-15T13:20:54.878Z</time></trkpt><trkpt lat="42.669215" lon="-8.1306817"><ele>503.0</ele><time>2026-04-15T13:20:55.879Z</time></trkpt><trkpt lat="42.6693017" lon="-8.13092"><ele>503.66666666666663</ele><time>2026-04-15T13:20:56.878Z</time></trkpt><trkpt lat="42.6693883" lon="-8.1311433"><ele>504.33333333333337</ele><time>2026-04-15T13:20:57.878Z</time></trkpt><trkpt lat="42.6694817" lon="-8.1313767"><ele>505.0</ele><time>2026-04-15T13:20:58.878Z</time></trkpt><trkpt lat="42.6695817" lon="-8.13161"><ele>503.33333333333337</ele><time>2026-04-15T13:20:59.879Z</time></trkpt><trkpt lat="42.6696783" lon="-8.131845"><ele>501.66666666666663</ele><time>2026-04-15T13:21:00.879Z</time></trkpt><trkpt lat="42.6697817" lon="-8.13208"><ele>500.0</ele><time>2026-04-15T13:21:01.878Z</time></trkpt><trkpt lat="42.6698867" lon="-8.1323167"><ele>498.0</ele><time>2026-04-15T13:21:02.879Z</time></trkpt><trkpt lat="42.6699883" lon="-8.13255"><ele>496.0</ele><time>2026-04-15T13:21:03.878Z</time></trkpt><trkpt lat="42.6700917" lon="-8.1327733"><ele>494.0</ele><time>2026-04-15T13:21:04.878Z</time></trkpt><trkpt lat="42.6701933" lon="-8.1329933"><ele>494.0</ele><time>2026-04-15T13:21:05.879Z</time></trkpt><trkpt lat="42.6702817" lon="-8.1332167"><ele>494.0</ele><time>2026-04-15T13:21:06.879Z</time></trkpt><trkpt lat="42.67037" lon="-8.1334483"><ele>494.0</ele><time>2026-04-15T13:21:07.879Z</time></trkpt><trkpt lat="42.6704533" lon="-8.1336783"><ele>494.0</ele><time>2026-04-15T13:21:08.878Z</time></trkpt><trkpt lat="42.670515" lon="-8.1339067"><ele>494.0</ele><time>2026-04-15T13:21:09.879Z</time></trkpt><trkpt lat="42.6705733" lon="-8.1341517"><ele>494.0</ele><time>2026-04-15T13:21:10.879Z</time></trkpt><trkpt lat="42.6706217" lon="-8.13441"><ele>493.0</ele><time>2026-04-15T13:21:11.878Z</time></trkpt><trkpt lat="42.6706517" lon="-8.13466"><ele>492.0</ele><time>2026-04-15T13:21:12.878Z</time></trkpt><trkpt lat="42.6706733" lon="-8.13491"><ele>491.0</ele><time>2026-04-15T13:21:13.879Z</time></trkpt><trkpt lat="42.6706817" lon="-8.1351683"><ele>491.0</ele><time>2026-04-15T13:21:14.878Z</time></trkpt><trkpt lat="42.67068" lon="-8.1354383"><ele>491.0</ele><time>2026-04-15T13:21:15.879Z</time></trkpt><trkpt lat="42.670665" lon="-8.1357017"><ele>491.0</ele><time>2026-04-15T13:21:16.878Z</time></trkpt><trkpt lat="42.6706367" lon="-8.135955"><ele>492.66666666666663</ele><time>2026-04-15T13:21:17.878Z</time></trkpt><trkpt lat="42.6705917" lon="-8.136205"><ele>494.33333333333337</ele><time>2026-04-15T13:21:18.879Z</time></trkpt><trkpt lat="42.670535" lon="-8.1364483"><ele>496.0</ele><time>2026-04-15T13:21:19.879Z</time></trkpt><trkpt lat="42.6704533" lon="-8.1366783"><ele>496.6666666666667</ele><time>2026-04-15T13:21:20.878Z</time></trkpt><trkpt lat="42.6703667" lon="-8.1369067"><ele>497.33333333333337</ele><time>2026-04-15T13:21:21.879Z</time></trkpt><trkpt lat="42.6702683" lon="-8.1371217"><ele>498.0</ele><time>2026-04-15T13:21:22.879Z</time></trkpt><trkpt lat="42.6701633" lon="-8.1373433"><ele>497.66666666666663</ele><time>2026-04-15T13:21:23.878Z</time></trkpt><trkpt lat="42.670045" lon="-8.1375467"><ele>497.3333333333333</ele><time>2026-04-15T13:21:24.878Z</time></trkpt><trkpt lat="42.6699283" lon="-8.1377483"><ele>497.0</ele><time>2026-04-15T13:21:25.879Z</time></trkpt><trkpt lat="42.669815" lon="-8.1379483"><ele>497.0</ele><time>2026-04-15T13:21:26.878Z</time></trkpt><trkpt lat="42.6697017" lon="-8.1381617"><ele>497.0</ele><time>2026-04-15T13:21:27.878Z</time></trkpt><trkpt lat="42.6695867" lon="-8.1383683"><ele>497.0</ele><time>2026-04-15T13:21:28.878Z</time></trkpt><trkpt lat="42.6694767" lon="-8.1385767"><ele>497.0</ele><time>2026-04-15T13:21:29.879Z</time></trkpt><trkpt lat="42.66937" lon="-8.1387783"><ele>497.0</ele><time>2026-04-15T13:21:30.879Z</time></trkpt><trkpt lat="42.6692617" lon="-8.138985"><ele>497.0</ele><time>2026-04-15T13:21:31.878Z</time></trkpt><trkpt lat="42.66915" lon="-8.1391867"><ele>499.66666666666663</ele><time>2026-04-15T13:21:32.878Z</time></trkpt><trkpt lat="42.6690367" lon="-8.1393917"><ele>502.33333333333337</ele><time>2026-04-15T13:21:33.878Z</time></trkpt><trkpt lat="42.6689133" lon="-8.139605"><ele>505.0</ele><time>2026-04-15T13:21:34.878Z</time></trkpt><trkpt lat="42.668795" lon="-8.1398283"><ele>503.6666666666667</ele><time>2026-04-15T13:21:35.878Z</time></trkpt><trkpt lat="42.6686733" lon="-8.14005"><ele>502.33333333333337</ele><time>2026-04-15T13:21:36.879Z</time></trkpt><trkpt lat="42.6685533" lon="-8.1402817"><ele>501.0</ele><time>2026-04-15T13:21:37.879Z</time></trkpt><trkpt lat="42.6684267" lon="-8.1405067"><ele>503.33333333333337</ele><time>2026-04-15T13:21:38.878Z</time></trkpt><trkpt lat="42.6683033" lon="-8.1407317"><ele>505.6666666666667</ele><time>2026-04-15T13:21:39.879Z</time></trkpt><trkpt lat="42.66819" lon="-8.1409667"><ele>508.0</ele><time>2026-04-15T13:21:40.878Z</time></trkpt><trkpt lat="42.6680833" lon="-8.1411983"><ele>508.0</ele><time>2026-04-15T13:21:41.879Z</time></trkpt><trkpt lat="42.6679817" lon="-8.14143"><ele>508.0</ele><time>2026-04-15T13:21:42.878Z</time></trkpt><trkpt lat="42.6679033" lon="-8.1416783"><ele>508.0</ele><time>2026-04-15T13:21:43.879Z</time></trkpt><trkpt lat="42.6678367" lon="-8.1419317"><ele>509.33333333333337</ele><time>2026-04-15T13:21:44.879Z</time></trkpt><trkpt lat="42.6677917" lon="-8.1421917"><ele>510.66666666666663</ele><time>2026-04-15T13:21:45.878Z</time></trkpt><trkpt lat="42.6677567" lon="-8.1424517"><ele>512.0</ele><time>2026-04-15T13:21:46.878Z</time></trkpt><trkpt lat="42.667755" lon="-8.14271"><ele>512.6666666666666</ele><time>2026-04-15T13:21:47.878Z</time></trkpt><trkpt lat="42.66777" lon="-8.142975"><ele>513.3333333333334</ele><time>2026-04-15T13:21:48.878Z</time></trkpt><trkpt lat="42.66782" lon="-8.1432233"><ele>514.0</ele><time>2026-04-15T13:21:49.878Z</time></trkpt><trkpt lat="42.6678833" lon="-8.1434633"><ele>512.6666666666667</ele><time>2026-04-15T13:21:50.879Z</time></trkpt><trkpt lat="42.6679617" lon="-8.1437117"><ele>511.33333333333337</ele><time>2026-04-15T13:21:51.879Z</time></trkpt><trkpt lat="42.6680583" lon="-8.1439317"><ele>510.0</ele><time>2026-04-15T13:21:52.879Z</time></trkpt><trkpt lat="42.6681733" lon="-8.1441467"><ele>510.0</ele><time>2026-04-15T13:21:53.878Z</time></trkpt><trkpt lat="42.6682983" lon="-8.1443633"><ele>510.0</ele><time>2026-04-15T13:21:54.879Z</time></trkpt><trkpt lat="42.6684367" lon="-8.1445667"><ele>510.0</ele><time>2026-04-15T13:21:55.879Z</time></trkpt><trkpt lat="42.6685783" lon="-8.1447717"><ele>509.33333333333337</ele><time>2026-04-15T13:21:56.878Z</time></trkpt><trkpt lat="42.6687217" lon="-8.14497"><ele>508.6666666666667</ele><time>2026-04-15T13:21:57.879Z</time></trkpt><trkpt lat="42.6688583" lon="-8.1451783"><ele>508.0</ele><time>2026-04-15T13:21:58.878Z</time></trkpt><trkpt lat="42.6690117" lon="-8.1453867"><ele>508.0</ele><time>2026-04-15T13:21:59.879Z</time></trkpt><trkpt lat="42.6691567" lon="-8.145595"><ele>508.0</ele><time>2026-04-15T13:22:00.879Z</time></trkpt><trkpt lat="42.6693067" lon="-8.1458"><ele>508.0</ele><time>2026-04-15T13:22:01.878Z</time></trkpt><trkpt lat="42.66946" lon="-8.1460017"><ele>507.6666666666667</ele><time>2026-04-15T13:22:02.878Z</time></trkpt><trkpt lat="42.669605" lon="-8.1462017"><ele>507.33333333333337</ele><time>2026-04-15T13:22:03.879Z</time></trkpt><trkpt lat="42.6697517" lon="-8.146405"><ele>507.0</ele><time>2026-04-15T13:22:04.879Z</time></trkpt><trkpt lat="42.6698917" lon="-8.1466033"><ele>505.66666666666663</ele><time>2026-04-15T13:22:05.878Z</time></trkpt><trkpt lat="42.670025" lon="-8.1467883"><ele>504.3333333333333</ele><time>2026-04-15T13:22:06.878Z</time></trkpt><trkpt lat="42.6701583" lon="-8.14698"><ele>503.0</ele><time>2026-04-15T13:22:07.878Z</time></trkpt><trkpt lat="42.67029" lon="-8.1471767"><ele>503.0</ele><time>2026-04-15T13:22:08.878Z</time></trkpt><trkpt lat="42.6704283" lon="-8.1473733"><ele>503.0</ele><time>2026-04-15T13:22:09.878Z</time></trkpt><trkpt lat="42.6705667" lon="-8.1475683"><ele>503.0</ele><time>2026-04-15T13:22:10.878Z</time></trkpt><trkpt lat="42.6707033" lon="-8.1477617"><ele>501.3333333333333</ele><time>2026-04-15T13:22:11.878Z</time></trkpt><trkpt lat="42.6708433" lon="-8.14796"><ele>499.66666666666663</ele><time>2026-04-15T13:22:12.879Z</time></trkpt><trkpt lat="42.670985" lon="-8.1481533"><ele>498.0</ele><time>2026-04-15T13:22:13.879Z</time></trkpt><trkpt lat="42.6711233" lon="-8.1483433"><ele>497.0</ele><time>2026-04-15T13:22:14.879Z</time></trkpt><trkpt lat="42.6712517" lon="-8.1485533"><ele>496.0</ele><time>2026-04-15T13:22:15.878Z</time></trkpt><trkpt lat="42.67138" lon="-8.1487617"><ele>495.0</ele><time>2026-04-15T13:22:16.878Z</time></trkpt><trkpt lat="42.6715133" lon="-8.1489733"><ele>494.33333333333337</ele><time>2026-04-15T13:22:17.878Z</time></trkpt><trkpt lat="42.6716333" lon="-8.1492"><ele>493.6666666666667</ele><time>2026-04-15T13:22:18.879Z</time></trkpt><trkpt lat="42.671735" lon="-8.14943"><ele>493.0</ele><time>2026-04-15T13:22:19.879Z</time></trkpt><trkpt lat="42.6718383" lon="-8.14966"><ele>492.6666666666667</ele><time>2026-04-15T13:22:20.879Z</time></trkpt><trkpt lat="42.67193" lon="-8.14988"><ele>492.33333333333337</ele><time>2026-04-15T13:22:21.879Z</time></trkpt><trkpt lat="42.6720083" lon="-8.1501083"><ele>492.0</ele><time>2026-04-15T13:22:22.878Z</time></trkpt><trkpt lat="42.6720917" lon="-8.1503433"><ele>494.66666666666663</ele><time>2026-04-15T13:22:23.878Z</time></trkpt><trkpt lat="42.672185" lon="-8.1505717"><ele>497.3333333333333</ele><time>2026-04-15T13:22:24.878Z</time></trkpt><trkpt lat="42.672265" lon="-8.15081"><ele>500.0</ele><time>2026-04-15T13:22:25.878Z</time></trkpt><trkpt lat="42.6723417" lon="-8.1510517"><ele>500.0</ele><time>2026-04-15T13:22:26.879Z</time></trkpt><trkpt lat="42.6724183" lon="-8.151285"><ele>500.0</ele><time>2026-04-15T13:22:27.878Z</time></trkpt><trkpt lat="42.6725017" lon="-8.15152"><ele>500.0</ele><time>2026-04-15T13:22:28.878Z</time></trkpt><trkpt lat="42.6725817" lon="-8.1517517"><ele>499.66666666666663</ele><time>2026-04-15T13:22:29.878Z</time></trkpt><trkpt lat="42.6726683" lon="-8.1519817"><ele>499.33333333333337</ele><time>2026-04-15T13:22:30.879Z</time></trkpt><trkpt lat="42.6727533" lon="-8.1522083"><ele>499.0</ele><time>2026-04-15T13:22:31.879Z</time></trkpt><trkpt lat="42.67284" lon="-8.1524467"><ele>499.0</ele><time>2026-04-15T13:22:32.879Z</time></trkpt><trkpt lat="42.67293" lon="-8.15269"><ele>499.0</ele><time>2026-04-15T13:22:33.878Z</time></trkpt><trkpt lat="42.6730183" lon="-8.1529233"><ele>499.0</ele><time>2026-04-15T13:22:34.879Z</time></trkpt><trkpt lat="42.6731167" lon="-8.153175"><ele>497.6666666666667</ele><time>2026-04-15T13:22:35.879Z</time></trkpt><trkpt lat="42.6732067" lon="-8.15344"><ele>496.33333333333337</ele><time>2026-04-15T13:22:36.878Z</time></trkpt><trkpt lat="42.6733" lon="-8.153705"><ele>495.0</ele><time>2026-04-15T13:22:37.878Z</time></trkpt><trkpt lat="42.6734017" lon="-8.1539583"><ele>495.33333333333337</ele><time>2026-04-15T13:22:38.878Z</time></trkpt><trkpt lat="42.6735" lon="-8.15422"><ele>495.6666666666667</ele><time>2026-04-15T13:22:39.878Z</time></trkpt><trkpt lat="42.67359" lon="-8.154475"><ele>496.0</ele><time>2026-04-15T13:22:40.879Z</time></trkpt><trkpt lat="42.6736767" lon="-8.154705"><ele>495.6666666666667</ele><time>2026-04-15T13:22:41.879Z</time></trkpt><trkpt lat="42.6737367" lon="-8.154935"><ele>495.33333333333337</ele><time>2026-04-15T13:22:42.878Z</time></trkpt><trkpt lat="42.67379" lon="-8.1551667"><ele>495.0</ele><time>2026-04-15T13:22:43.879Z</time></trkpt><trkpt lat="42.6738217" lon="-8.155415"><ele>495.0</ele><time>2026-04-15T13:22:44.878Z</time></trkpt><trkpt lat="42.6738417" lon="-8.1556783"><ele>495.0</ele><time>2026-04-15T13:22:45.879Z</time></trkpt><trkpt lat="42.6738317" lon="-8.1559333"><ele>495.0</ele><time>2026-04-15T13:22:46.879Z</time></trkpt><trkpt lat="42.6738283" lon="-8.1561917"><ele>494.66666666666663</ele><time>2026-04-15T13:22:47.878Z</time></trkpt><trkpt lat="42.673815" lon="-8.1564517"><ele>494.3333333333333</ele><time>2026-04-15T13:22:48.878Z</time></trkpt><trkpt lat="42.6738067" lon="-8.1567117"><ele>494.0</ele><time>2026-04-15T13:22:49.879Z</time></trkpt><trkpt lat="42.6737933" lon="-8.1569683"><ele>493.66666666666663</ele><time>2026-04-15T13:22:50.878Z</time></trkpt><trkpt lat="42.6737833" lon="-8.15722"><ele>493.33333333333337</ele><time>2026-04-15T13:22:51.878Z</time></trkpt><trkpt lat="42.67377" lon="-8.1574717"><ele>493.0</ele><time>2026-04-15T13:22:52.879Z</time></trkpt><trkpt lat="42.673755" lon="-8.1577117"><ele>492.6666666666667</ele><time>2026-04-15T13:22:53.879Z</time></trkpt><trkpt lat="42.6737333" lon="-8.1579333"><ele>492.33333333333337</ele><time>2026-04-15T13:22:54.879Z</time></trkpt><trkpt lat="42.673715" lon="-8.1581417"><ele>492.0</ele><time>2026-04-15T13:22:55.878Z</time></trkpt><trkpt lat="42.6736883" lon="-8.158335"><ele>492.0</ele><time>2026-04-15T13:22:56.879Z</time></trkpt><trkpt lat="42.6736683" lon="-8.1585117"><ele>492.0</ele><time>2026-04-15T13:22:57.878Z</time></trkpt><trkpt lat="42.673655" lon="-8.1586767"><ele>492.0</ele><time>2026-04-15T13:22:58.879Z</time></trkpt><trkpt lat="42.6736483" lon="-8.1588533"><ele>492.0</ele><time>2026-04-15T13:22:59.878Z</time></trkpt><trkpt lat="42.6736667" lon="-8.1590283"><ele>491.25</ele><time>2026-04-15T13:23:00.878Z</time></trkpt><trkpt lat="42.6736867" lon="-8.1592067"><ele>490.5</ele><time>2026-04-15T13:23:01.878Z</time></trkpt><trkpt lat="42.6736917" lon="-8.1593933"><ele>489.75</ele><time>2026-04-15T13:23:02.879Z</time></trkpt><trkpt lat="42.6736683" lon="-8.1595783"><ele>489.0</ele><time>2026-04-15T13:23:03.878Z</time></trkpt><trkpt lat="42.6736117" lon="-8.15976"><ele>490.0</ele><time>2026-04-15T13:23:04.879Z</time></trkpt><trkpt lat="42.6735583" lon="-8.159935"><ele>491.0</ele><time>2026-04-15T13:23:05.879Z</time></trkpt><trkpt lat="42.6735383" lon="-8.16013"><ele>492.0</ele><time>2026-04-15T13:23:06.878Z</time></trkpt><trkpt lat="42.6735333" lon="-8.160325"><ele>493.0</ele><time>2026-04-15T13:23:07.878Z</time></trkpt><trkpt lat="42.6735467" lon="-8.160525"><ele>493.0</ele><time>2026-04-15T13:23:08.878Z</time></trkpt><trkpt lat="42.6735667" lon="-8.16069"><ele>492.99999999999994</ele><time>2026-04-15T13:23:09.879Z</time></trkpt><trkpt lat="42.6735883" lon="-8.1608467"><ele>492.99999999999994</ele><time>2026-04-15T13:23:10.879Z</time></trkpt><trkpt lat="42.6736167" lon="-8.160975"><ele>493.0</ele><time>2026-04-15T13:23:11.878Z</time></trkpt><trkpt lat="42.6736633" lon="-8.161085"><ele>493.0</ele><time>2026-04-15T13:23:12.879Z</time></trkpt><trkpt lat="42.6737333" lon="-8.161175"><ele>490.79999999999995</ele><time>2026-04-15T13:23:13.879Z</time></trkpt><trkpt lat="42.67381" lon="-8.1612683"><ele>488.59999999999997</ele><time>2026-04-15T13:23:14.879Z</time></trkpt><trkpt lat="42.6738717" lon="-8.16139"><ele>486.40000000000003</ele><time>2026-04-15T13:23:15.878Z</time></trkpt><trkpt lat="42.6738967" lon="-8.1615333"><ele>484.20000000000005</ele><time>2026-04-15T13:23:16.878Z</time></trkpt><trkpt lat="42.67389" lon="-8.1616817"><ele>482.0</ele><time>2026-04-15T13:23:17.878Z</time></trkpt><trkpt lat="42.673875" lon="-8.1618317"><ele>482.0</ele><time>2026-04-15T13:23:18.879Z</time></trkpt><trkpt lat="42.6738733" lon="-8.16197"><ele>482.0</ele><time>2026-04-15T13:23:19.879Z</time></trkpt><trkpt lat="42.6738917" lon="-8.1621133"><ele>482.0</ele><time>2026-04-15T13:23:20.879Z</time></trkpt><trkpt lat="42.67394" lon="-8.16226"><ele>482.0</ele><time>2026-04-15T13:23:21.878Z</time></trkpt><trkpt lat="42.673995" lon="-8.16242"><ele>481.66666666666663</ele><time>2026-04-15T13:23:22.878Z</time></trkpt><trkpt lat="42.674075" lon="-8.162585"><ele>481.33333333333337</ele><time>2026-04-15T13:23:23.878Z</time></trkpt><trkpt lat="42.6741667" lon="-8.1627683"><ele>481.0</ele><time>2026-04-15T13:23:24.879Z</time></trkpt><trkpt lat="42.6742833" lon="-8.162955"><ele>481.0</ele><time>2026-04-15T13:23:25.879Z</time></trkpt><trkpt lat="42.6743983" lon="-8.1631433"><ele>481.0</ele><time>2026-04-15T13:23:26.879Z</time></trkpt><trkpt lat="42.67452" lon="-8.1633283"><ele>481.0</ele><time>2026-04-15T13:23:27.879Z</time></trkpt><trkpt lat="42.6746483" lon="-8.1635233"><ele>479.0</ele><time>2026-04-15T13:23:28.879Z</time></trkpt><trkpt lat="42.6747833" lon="-8.1636983"><ele>477.0</ele><time>2026-04-15T13:23:29.878Z</time></trkpt><trkpt lat="42.674935" lon="-8.1638633"><ele>475.0</ele><time>2026-04-15T13:23:30.878Z</time></trkpt><trkpt lat="42.6750917" lon="-8.1640133"><ele>474.0</ele><time>2026-04-15T13:23:31.878Z</time></trkpt><trkpt lat="42.6752433" lon="-8.164165"><ele>473.0</ele><time>2026-04-15T13:23:32.879Z</time></trkpt><trkpt lat="42.6754033" lon="-8.1643033"><ele>472.0</ele><time>2026-04-15T13:23:33.878Z</time></trkpt><trkpt lat="42.6755583" lon="-8.1644317"><ele>472.0</ele><time>2026-04-15T13:23:34.879Z</time></trkpt><trkpt lat="42.67572" lon="-8.16455"><ele>472.0</ele><time>2026-04-15T13:23:35.878Z</time></trkpt><trkpt lat="42.67589" lon="-8.1646417"><ele>472.0</ele><time>2026-04-15T13:23:36.879Z</time></trkpt><trkpt lat="42.6760533" lon="-8.1647217"><ele>472.33333333333337</ele><time>2026-04-15T13:23:37.878Z</time></trkpt><trkpt lat="42.6762267" lon="-8.1647933"><ele>472.66666666666663</ele><time>2026-04-15T13:23:38.878Z</time></trkpt><trkpt lat="42.6764017" lon="-8.164875"><ele>473.0</ele><time>2026-04-15T13:23:39.879Z</time></trkpt><trkpt lat="42.6765767" lon="-8.164965"><ele>474.0</ele><time>2026-04-15T13:23:40.879Z</time></trkpt><trkpt lat="42.6767517" lon="-8.1650417"><ele>475.0</ele><time>2026-04-15T13:23:41.878Z</time></trkpt><trkpt lat="42.6769383" lon="-8.1651283"><ele>476.0</ele><time>2026-04-15T13:23:42.878Z</time></trkpt><trkpt lat="42.67713" lon="-8.1652183"><ele>478.3333333333333</ele><time>2026-04-15T13:23:43.878Z</time></trkpt><trkpt lat="42.677325" lon="-8.165305"><ele>480.66666666666663</ele><time>2026-04-15T13:23:44.879Z</time></trkpt><trkpt lat="42.6775117" lon="-8.1653917"><ele>483.0</ele><time>2026-04-15T13:23:45.879Z</time></trkpt><trkpt lat="42.6777017" lon="-8.16548"><ele>484.66666666666663</ele><time>2026-04-15T13:23:46.879Z</time></trkpt><trkpt lat="42.6778933" lon="-8.1655733"><ele>486.3333333333333</ele><time>2026-04-15T13:23:47.879Z</time></trkpt><trkpt lat="42.6780817" lon="-8.165665"><ele>488.0</ele><time>2026-04-15T13:23:48.879Z</time></trkpt><trkpt lat="42.67827" lon="-8.1657483"><ele>488.3333333333333</ele><time>2026-04-15T13:23:49.878Z</time></trkpt><trkpt lat="42.67845" lon="-8.1658367"><ele>488.66666666666663</ele><time>2026-04-15T13:23:50.878Z</time></trkpt><trkpt lat="42.67863" lon="-8.165925"><ele>489.0</ele><time>2026-04-15T13:23:51.878Z</time></trkpt><trkpt lat="42.6788133" lon="-8.1660083"><ele>489.66666666666663</ele><time>2026-04-15T13:23:52.878Z</time></trkpt><trkpt lat="42.6789983" lon="-8.1660917"><ele>490.3333333333333</ele><time>2026-04-15T13:23:53.878Z</time></trkpt><trkpt lat="42.679185" lon="-8.16617"><ele>491.0</ele><time>2026-04-15T13:23:54.878Z</time></trkpt><trkpt lat="42.679375" lon="-8.166245"><ele>492.3333333333333</ele><time>2026-04-15T13:23:55.879Z</time></trkpt><trkpt lat="42.6795633" lon="-8.1663283"><ele>493.66666666666663</ele><time>2026-04-15T13:23:56.879Z</time></trkpt><trkpt lat="42.6797533" lon="-8.1664067"><ele>495.0</ele><time>2026-04-15T13:23:57.879Z</time></trkpt><trkpt lat="42.6799417" lon="-8.1664783"><ele>494.0</ele><time>2026-04-15T13:23:58.879Z</time></trkpt><trkpt lat="42.680125" lon="-8.1665417"><ele>493.0</ele><time>2026-04-15T13:23:59.878Z</time></trkpt><trkpt lat="42.680315" lon="-8.1666167"><ele>492.0</ele><time>2026-04-15T13:24:00.878Z</time></trkpt><trkpt lat="42.680505" lon="-8.1666933"><ele>492.0</ele><time>2026-04-15T13:24:01.878Z</time></trkpt><trkpt lat="42.6807033" lon="-8.1667617"><ele>492.0</ele><time>2026-04-15T13:24:02.879Z</time></trkpt><trkpt lat="42.6808933" lon="-8.16683"><ele>492.0</ele><time>2026-04-15T13:24:03.878Z</time></trkpt><trkpt lat="42.6810817" lon="-8.166895"><ele>492.0</ele><time>2026-04-15T13:24:04.879Z</time></trkpt><trkpt lat="42.6812567" lon="-8.1669683"><ele>492.0</ele><time>2026-04-15T13:24:05.878Z</time></trkpt><trkpt lat="42.6814333" lon="-8.16708"><ele>492.0</ele><time>2026-04-15T13:24:06.879Z</time></trkpt><trkpt lat="42.6816067" lon="-8.1672117"><ele>489.0</ele><time>2026-04-15T13:24:07.878Z</time></trkpt><trkpt lat="42.68178" lon="-8.1673633"><ele>486.0</ele><time>2026-04-15T13:24:08.878Z</time></trkpt><trkpt lat="42.6819283" lon="-8.1675217"><ele>483.0</ele><time>2026-04-15T13:24:09.878Z</time></trkpt><trkpt lat="42.682075" lon="-8.1676867"><ele>482.33333333333337</ele><time>2026-04-15T13:24:10.879Z</time></trkpt><trkpt lat="42.682205" lon="-8.1678767"><ele>481.6666666666667</ele><time>2026-04-15T13:24:11.878Z</time></trkpt><trkpt lat="42.6823267" lon="-8.168085"><ele>481.0</ele><time>2026-04-15T13:24:12.879Z</time></trkpt><trkpt lat="42.68243" lon="-8.1683017"><ele>479.33333333333337</ele><time>2026-04-15T13:24:13.878Z</time></trkpt><trkpt lat="42.682515" lon="-8.168525"><ele>477.66666666666663</ele><time>2026-04-15T13:24:14.878Z</time></trkpt><trkpt lat="42.6825833" lon="-8.1687683"><ele>476.0</ele><time>2026-04-15T13:24:15.879Z</time></trkpt><trkpt lat="42.6826483" lon="-8.16902"><ele>475.0</ele><time>2026-04-15T13:24:16.879Z</time></trkpt><trkpt lat="42.6827" lon="-8.16928"><ele>474.0</ele><time>2026-04-15T13:24:17.879Z</time></trkpt><trkpt lat="42.6827283" lon="-8.1695467"><ele>473.0</ele><time>2026-04-15T13:24:18.878Z</time></trkpt><trkpt lat="42.6827317" lon="-8.169815"><ele>473.66666666666663</ele><time>2026-04-15T13:24:19.878Z</time></trkpt><trkpt lat="42.6827233" lon="-8.1700833"><ele>474.33333333333337</ele><time>2026-04-15T13:24:20.878Z</time></trkpt><trkpt lat="42.682705" lon="-8.1703483"><ele>475.0</ele><time>2026-04-15T13:24:21.878Z</time></trkpt><trkpt lat="42.6826667" lon="-8.1706133"><ele>475.6666666666667</ele><time>2026-04-15T13:24:22.878Z</time></trkpt><trkpt lat="42.682615" lon="-8.170865"><ele>476.33333333333337</ele><time>2026-04-15T13:24:23.879Z</time></trkpt><trkpt lat="42.6825533" lon="-8.1711133"><ele>477.0</ele><time>2026-04-15T13:24:24.878Z</time></trkpt><trkpt lat="42.6824817" lon="-8.1713667"><ele>478.66666666666663</ele><time>2026-04-15T13:24:25.878Z</time></trkpt><trkpt lat="42.6824083" lon="-8.17162"><ele>480.3333333333333</ele><time>2026-04-15T13:24:26.879Z</time></trkpt><trkpt lat="42.6823367" lon="-8.1718817"><ele>482.0</ele><time>2026-04-15T13:24:27.879Z</time></trkpt><trkpt lat="42.68227" lon="-8.1721367"><ele>483.66666666666663</ele><time>2026-04-15T13:24:28.879Z</time></trkpt><trkpt lat="42.6822067" lon="-8.1724"><ele>485.33333333333337</ele><time>2026-04-15T13:24:29.879Z</time></trkpt><trkpt lat="42.68213" lon="-8.1726617"><ele>487.0</ele><time>2026-04-15T13:24:30.878Z</time></trkpt><trkpt lat="42.6820583" lon="-8.1729283"><ele>487.6666666666667</ele><time>2026-04-15T13:24:31.878Z</time></trkpt><trkpt lat="42.6819933" lon="-8.1731917"><ele>488.33333333333337</ele><time>2026-04-15T13:24:32.879Z</time></trkpt><trkpt lat="42.681935" lon="-8.17346"><ele>489.0</ele><time>2026-04-15T13:24:33.879Z</time></trkpt><trkpt lat="42.6818933" lon="-8.17373"><ele>484.33333333333337</ele><time>2026-04-15T13:24:34.879Z</time></trkpt><trkpt lat="42.6818533" lon="-8.1739983"><ele>479.6666666666667</ele><time>2026-04-15T13:24:35.878Z</time></trkpt><trkpt lat="42.6818267" lon="-8.1742667"><ele>475.0</ele><time>2026-04-15T13:24:36.878Z</time></trkpt><trkpt lat="42.6818033" lon="-8.1745333"><ele>474.6666666666667</ele><time>2026-04-15T13:24:37.879Z</time></trkpt><trkpt lat="42.6817783" lon="-8.174815"><ele>474.33333333333337</ele><time>2026-04-15T13:24:38.878Z</time></trkpt><trkpt lat="42.68175" lon="-8.1750933"><ele>474.0</ele><time>2026-04-15T13:24:39.879Z</time></trkpt><trkpt lat="42.6817217" lon="-8.1753717"><ele>474.33333333333337</ele><time>2026-04-15T13:24:40.878Z</time></trkpt><trkpt lat="42.6816883" lon="-8.1756417"><ele>474.6666666666667</ele><time>2026-04-15T13:24:41.878Z</time></trkpt><trkpt lat="42.681655" lon="-8.1759133"><ele>475.0</ele><time>2026-04-15T13:24:42.879Z</time></trkpt><trkpt lat="42.681635" lon="-8.1761617"><ele>475.0</ele><time>2026-04-15T13:24:43.879Z</time></trkpt><trkpt lat="42.6816183" lon="-8.1764183"><ele>475.0</ele><time>2026-04-15T13:24:44.879Z</time></trkpt><trkpt lat="42.6815917" lon="-8.1766833"><ele>475.0</ele><time>2026-04-15T13:24:45.878Z</time></trkpt><trkpt lat="42.6815683" lon="-8.1769467"><ele>474.33333333333337</ele><time>2026-04-15T13:24:46.878Z</time></trkpt><trkpt lat="42.6815567" lon="-8.1772183"><ele>473.66666666666663</ele><time>2026-04-15T13:24:47.878Z</time></trkpt><trkpt lat="42.6815617" lon="-8.1774967"><ele>473.0</ele><time>2026-04-15T13:24:48.878Z</time></trkpt><trkpt lat="42.6815817" lon="-8.1777783"><ele>472.3333333333333</ele><time>2026-04-15T13:24:49.879Z</time></trkpt><trkpt lat="42.681615" lon="-8.17806"><ele>471.66666666666663</ele><time>2026-04-15T13:24:50.879Z</time></trkpt><trkpt lat="42.6816683" lon="-8.1783467"><ele>471.0</ele><time>2026-04-15T13:24:51.879Z</time></trkpt><trkpt lat="42.68173" lon="-8.1786317"><ele>470.33333333333337</ele><time>2026-04-15T13:24:52.878Z</time></trkpt><trkpt lat="42.6817933" lon="-8.178905"><ele>469.6666666666667</ele><time>2026-04-15T13:24:53.878Z</time></trkpt><trkpt lat="42.6818667" lon="-8.179175"><ele>469.0</ele><time>2026-04-15T13:24:54.878Z</time></trkpt><trkpt lat="42.6819433" lon="-8.1794533"><ele>469.0</ele><time>2026-04-15T13:24:55.878Z</time></trkpt><trkpt lat="42.6820217" lon="-8.1797333"><ele>469.0</ele><time>2026-04-15T13:24:56.879Z</time></trkpt><trkpt lat="42.6821" lon="-8.1800133"><ele>469.0</ele><time>2026-04-15T13:24:57.878Z</time></trkpt><trkpt lat="42.68218" lon="-8.1802983"><ele>467.33333333333337</ele><time>2026-04-15T13:24:58.879Z</time></trkpt><trkpt lat="42.682245" lon="-8.18058"><ele>465.66666666666663</ele><time>2026-04-15T13:24:59.878Z</time></trkpt><trkpt lat="42.6823217" lon="-8.1808517"><ele>464.0</ele><time>2026-04-15T13:25:00.878Z</time></trkpt><trkpt lat="42.6823933" lon="-8.1811283"><ele>462.3333333333333</ele><time>2026-04-15T13:25:01.879Z</time></trkpt><trkpt lat="42.6824617" lon="-8.1813983"><ele>460.66666666666663</ele><time>2026-04-15T13:25:02.879Z</time></trkpt><trkpt lat="42.6825433" lon="-8.18166"><ele>459.0</ele><time>2026-04-15T13:25:03.879Z</time></trkpt><trkpt lat="42.6826167" lon="-8.18193"><ele>457.33333333333337</ele><time>2026-04-15T13:25:04.878Z</time></trkpt><trkpt lat="42.682695" lon="-8.1821933"><ele>455.6666666666667</ele><time>2026-04-15T13:25:05.879Z</time></trkpt><trkpt lat="42.682775" lon="-8.18246"><ele>454.0</ele><time>2026-04-15T13:25:06.879Z</time></trkpt><trkpt lat="42.6828583" lon="-8.1827233"><ele>454.0</ele><time>2026-04-15T13:25:07.879Z</time></trkpt><trkpt lat="42.6829317" lon="-8.1829833"><ele>454.0</ele><time>2026-04-15T13:25:08.879Z</time></trkpt><trkpt lat="42.6829967" lon="-8.1832433"><ele>454.0</ele><time>2026-04-15T13:25:09.879Z</time></trkpt><trkpt lat="42.6830617" lon="-8.1834917"><ele>453.6666666666667</ele><time>2026-04-15T13:25:10.879Z</time></trkpt><trkpt lat="42.6831217" lon="-8.1837367"><ele>453.33333333333337</ele><time>2026-04-15T13:25:11.879Z</time></trkpt><trkpt lat="42.68319" lon="-8.1839817"><ele>453.0</ele><time>2026-04-15T13:25:12.878Z</time></trkpt><trkpt lat="42.6832517" lon="-8.1842117"><ele>451.33333333333337</ele><time>2026-04-15T13:25:13.878Z</time></trkpt><trkpt lat="42.6833083" lon="-8.1844317"><ele>449.6666666666667</ele><time>2026-04-15T13:25:14.878Z</time></trkpt><trkpt lat="42.6833583" lon="-8.1846517"><ele>448.0</ele><time>2026-04-15T13:25:15.878Z</time></trkpt><trkpt lat="42.6834" lon="-8.1848667"><ele>447.0</ele><time>2026-04-15T13:25:16.878Z</time></trkpt><trkpt lat="42.6834417" lon="-8.1850817"><ele>446.0</ele><time>2026-04-15T13:25:17.878Z</time></trkpt><trkpt lat="42.68349" lon="-8.1852967"><ele>445.0</ele><time>2026-04-15T13:25:18.879Z</time></trkpt><trkpt lat="42.6835333" lon="-8.1855133"><ele>444.0</ele><time>2026-04-15T13:25:19.879Z</time></trkpt><trkpt lat="42.6835667" lon="-8.18574"><ele>443.0</ele><time>2026-04-15T13:25:20.878Z</time></trkpt><trkpt lat="42.6836067" lon="-8.1859533"><ele>442.0</ele><time>2026-04-15T13:25:21.878Z</time></trkpt><trkpt lat="42.6836383" lon="-8.1861633"><ele>442.0</ele><time>2026-04-15T13:25:22.879Z</time></trkpt><trkpt lat="42.6836733" lon="-8.1863817"><ele>442.0</ele><time>2026-04-15T13:25:23.878Z</time></trkpt><trkpt lat="42.6837083" lon="-8.186595"><ele>442.0</ele><time>2026-04-15T13:25:24.878Z</time></trkpt><trkpt lat="42.6837417" lon="-8.1868017"><ele>440.75</ele><time>2026-04-15T13:25:25.879Z</time></trkpt><trkpt lat="42.6837767" lon="-8.1869983"><ele>439.5</ele><time>2026-04-15T13:25:26.878Z</time></trkpt><trkpt lat="42.683805" lon="-8.1871983"><ele>438.25</ele><time>2026-04-15T13:25:27.878Z</time></trkpt><trkpt lat="42.6838433" lon="-8.187395"><ele>437.0</ele><time>2026-04-15T13:25:28.878Z</time></trkpt><trkpt lat="42.6838733" lon="-8.1875817"><ele>436.25</ele><time>2026-04-15T13:25:29.878Z</time></trkpt><trkpt lat="42.6838933" lon="-8.187765"><ele>435.5</ele><time>2026-04-15T13:25:30.878Z</time></trkpt><trkpt lat="42.6839" lon="-8.18794"><ele>434.75</ele><time>2026-04-15T13:25:31.879Z</time></trkpt><trkpt lat="42.6839033" lon="-8.1881067"><ele>434.0</ele><time>2026-04-15T13:25:32.878Z</time></trkpt><trkpt lat="42.6839017" lon="-8.188295"><ele>433.0</ele><time>2026-04-15T13:25:33.879Z</time></trkpt><trkpt lat="42.6838983" lon="-8.1884933"><ele>432.0</ele><time>2026-04-15T13:25:34.879Z</time></trkpt><trkpt lat="42.6838883" lon="-8.18871"><ele>431.0</ele><time>2026-04-15T13:25:35.879Z</time></trkpt><trkpt lat="42.6838667" lon="-8.1889533"><ele>431.0</ele><time>2026-04-15T13:25:36.879Z</time></trkpt><trkpt lat="42.6838483" lon="-8.1892133"><ele>431.0</ele><time>2026-04-15T13:25:37.879Z</time></trkpt><trkpt lat="42.683825" lon="-8.1894717"><ele>431.0</ele><time>2026-04-15T13:25:38.878Z</time></trkpt><trkpt lat="42.6837983" lon="-8.1897017"><ele>431.3333333333333</ele><time>2026-04-15T13:25:39.879Z</time></trkpt><trkpt lat="42.683775" lon="-8.18992"><ele>431.66666666666663</ele><time>2026-04-15T13:25:40.88Z</time></trkpt><trkpt lat="42.68375" lon="-8.1901233"><ele>432.0</ele><time>2026-04-15T13:25:41.879Z</time></trkpt><trkpt lat="42.6837333" lon="-8.1903117"><ele>432.0</ele><time>2026-04-15T13:25:42.879Z</time></trkpt><trkpt lat="42.683715" lon="-8.1904933"><ele>432.0</ele><time>2026-04-15T13:25:43.879Z</time></trkpt><trkpt lat="42.6837" lon="-8.1906583"><ele>432.0</ele><time>2026-04-15T13:25:44.879Z</time></trkpt><trkpt lat="42.68368" lon="-8.190825"><ele>432.0</ele><time>2026-04-15T13:25:45.88Z</time></trkpt><trkpt lat="42.683665" lon="-8.1910017"><ele>433.0</ele><time>2026-04-15T13:25:46.88Z</time></trkpt><trkpt lat="42.6836433" lon="-8.1911883"><ele>434.0</ele><time>2026-04-15T13:25:47.88Z</time></trkpt><trkpt lat="42.68362" lon="-8.1913983"><ele>435.0</ele><time>2026-04-15T13:25:48.88Z</time></trkpt><trkpt lat="42.68361" lon="-8.19162"><ele>434.33333333333337</ele><time>2026-04-15T13:25:49.879Z</time></trkpt><trkpt lat="42.683595" lon="-8.1918583"><ele>433.6666666666667</ele><time>2026-04-15T13:25:50.879Z</time></trkpt><trkpt lat="42.6835783" lon="-8.1920967"><ele>433.0</ele><time>2026-04-15T13:25:51.879Z</time></trkpt><trkpt lat="42.6835567" lon="-8.1923417"><ele>433.0</ele><time>2026-04-15T13:25:52.88Z</time></trkpt><trkpt lat="42.6835367" lon="-8.1925933"><ele>433.0</ele><time>2026-04-15T13:25:53.879Z</time></trkpt><trkpt lat="42.6835117" lon="-8.192855"><ele>433.0</ele><time>2026-04-15T13:25:54.88Z</time></trkpt><trkpt lat="42.68349" lon="-8.1931183"><ele>431.6666666666667</ele><time>2026-04-15T13:25:55.88Z</time></trkpt><trkpt lat="42.683465" lon="-8.19339"><ele>430.33333333333337</ele><time>2026-04-15T13:25:56.88Z</time></trkpt><trkpt lat="42.683445" lon="-8.1936567"><ele>429.0</ele><time>2026-04-15T13:25:57.879Z</time></trkpt><trkpt lat="42.6834217" lon="-8.193925"><ele>428.33333333333337</ele><time>2026-04-15T13:25:58.88Z</time></trkpt><trkpt lat="42.6834033" lon="-8.1942017"><ele>427.6666666666667</ele><time>2026-04-15T13:25:59.88Z</time></trkpt><trkpt lat="42.683395" lon="-8.1944817"><ele>427.0</ele><time>2026-04-15T13:26:00.879Z</time></trkpt><trkpt lat="42.6833983" lon="-8.19476"><ele>426.6666666666667</ele><time>2026-04-15T13:26:01.879Z</time></trkpt><trkpt lat="42.6834067" lon="-8.1950333"><ele>426.33333333333337</ele><time>2026-04-15T13:26:02.879Z</time></trkpt><trkpt lat="42.6834233" lon="-8.195305"><ele>426.0</ele><time>2026-04-15T13:26:03.88Z</time></trkpt><trkpt lat="42.6834467" lon="-8.1955817"><ele>424.66666666666663</ele><time>2026-04-15T13:26:04.88Z</time></trkpt><trkpt lat="42.6834767" lon="-8.195855"><ele>423.3333333333333</ele><time>2026-04-15T13:26:05.879Z</time></trkpt><trkpt lat="42.6835217" lon="-8.1961283"><ele>422.0</ele><time>2026-04-15T13:26:06.88Z</time></trkpt><trkpt lat="42.6835767" lon="-8.1963933"><ele>418.3333333333333</ele><time>2026-04-15T13:26:07.879Z</time></trkpt><trkpt lat="42.6836483" lon="-8.1966617"><ele>414.66666666666663</ele><time>2026-04-15T13:26:08.88Z</time></trkpt><trkpt lat="42.683725" lon="-8.1969183"><ele>411.0</ele><time>2026-04-15T13:26:09.88Z</time></trkpt><trkpt lat="42.6838217" lon="-8.1971733"><ele>410.0</ele><time>2026-04-15T13:26:10.879Z</time></trkpt><trkpt lat="42.6839167" lon="-8.1974283"><ele>409.0</ele><time>2026-04-15T13:26:11.879Z</time></trkpt><trkpt lat="42.6840183" lon="-8.1976717"><ele>408.0</ele><time>2026-04-15T13:26:12.88Z</time></trkpt><trkpt lat="42.68412" lon="-8.1979217"><ele>408.0</ele><time>2026-04-15T13:26:13.88Z</time></trkpt><trkpt lat="42.68422" lon="-8.1981667"><ele>408.0</ele><time>2026-04-15T13:26:14.879Z</time></trkpt><trkpt lat="42.6843167" lon="-8.198425"><ele>408.0</ele><time>2026-04-15T13:26:15.879Z</time></trkpt><trkpt lat="42.6844217" lon="-8.1986717"><ele>397.0</ele><time>2026-04-15T13:26:16.879Z</time></trkpt><trkpt lat="42.6845217" lon="-8.1989183"><ele>386.0</ele><time>2026-04-15T13:26:17.88Z</time></trkpt><trkpt lat="42.6846283" lon="-8.1991567"><ele>375.0</ele><time>2026-04-15T13:26:18.88Z</time></trkpt><trkpt lat="42.684735" lon="-8.1993917"><ele>371.0</ele><time>2026-04-15T13:26:19.88Z</time></trkpt><trkpt lat="42.6848367" lon="-8.1996383"><ele>367.0</ele><time>2026-04-15T13:26:20.879Z</time></trkpt><trkpt lat="42.68494" lon="-8.1998867"><ele>363.0</ele><time>2026-04-15T13:26:21.88Z</time></trkpt><trkpt lat="42.68504" lon="-8.200135"><ele>363.0</ele><time>2026-04-15T13:26:22.879Z</time></trkpt><trkpt lat="42.6851367" lon="-8.2003767"><ele>363.0</ele><time>2026-04-15T13:26:23.879Z</time></trkpt><trkpt lat="42.6852367" lon="-8.2006167"><ele>363.0</ele><time>2026-04-15T13:26:24.879Z</time></trkpt><trkpt lat="42.6853367" lon="-8.2008533"><ele>373.33333333333337</ele><time>2026-04-15T13:26:25.879Z</time></trkpt><trkpt lat="42.685435" lon="-8.2010967"><ele>383.6666666666667</ele><time>2026-04-15T13:26:26.88Z</time></trkpt><trkpt lat="42.685535" lon="-8.2013367"><ele>394.0</ele><time>2026-04-15T13:26:27.88Z</time></trkpt><trkpt lat="42.6856383" lon="-8.201585"><ele>395.33333333333337</ele><time>2026-04-15T13:26:28.879Z</time></trkpt><trkpt lat="42.68574" lon="-8.2018317"><ele>396.66666666666663</ele><time>2026-04-15T13:26:29.879Z</time></trkpt><trkpt lat="42.6858467" lon="-8.2020783"><ele>398.0</ele><time>2026-04-15T13:26:30.88Z</time></trkpt><trkpt lat="42.6859417" lon="-8.2023183"><ele>397.0</ele><time>2026-04-15T13:26:31.88Z</time></trkpt><trkpt lat="42.6860433" lon="-8.20257"><ele>396.0</ele><time>2026-04-15T13:26:32.879Z</time></trkpt><trkpt lat="42.6861467" lon="-8.2028233"><ele>395.0</ele><time>2026-04-15T13:26:33.88Z</time></trkpt><trkpt lat="42.68625" lon="-8.2030683"><ele>399.3333333333333</ele><time>2026-04-15T13:26:34.88Z</time></trkpt><trkpt lat="42.686355" lon="-8.2033267"><ele>403.66666666666663</ele><time>2026-04-15T13:26:35.879Z</time></trkpt><trkpt lat="42.6864617" lon="-8.2035717"><ele>408.0</ele><time>2026-04-15T13:26:36.879Z</time></trkpt><trkpt lat="42.6865533" lon="-8.20382"><ele>404.33333333333337</ele><time>2026-04-15T13:26:37.879Z</time></trkpt><trkpt lat="42.6866433" lon="-8.204075"><ele>400.6666666666667</ele><time>2026-04-15T13:26:38.88Z</time></trkpt><trkpt lat="42.68672" lon="-8.2043383"><ele>397.0</ele><time>2026-04-15T13:26:39.879Z</time></trkpt><trkpt lat="42.686795" lon="-8.2046033"><ele>396.6666666666667</ele><time>2026-04-15T13:26:40.879Z</time></trkpt><trkpt lat="42.686845" lon="-8.2048783"><ele>396.33333333333337</ele><time>2026-04-15T13:26:41.879Z</time></trkpt><trkpt lat="42.6869033" lon="-8.20515"><ele>396.0</ele><time>2026-04-15T13:26:42.879Z</time></trkpt><trkpt lat="42.6869433" lon="-8.205415"><ele>397.66666666666663</ele><time>2026-04-15T13:26:43.88Z</time></trkpt><trkpt lat="42.6869733" lon="-8.2056933"><ele>399.3333333333333</ele><time>2026-04-15T13:26:44.88Z</time></trkpt><trkpt lat="42.68699" lon="-8.2059617"><ele>401.0</ele><time>2026-04-15T13:26:45.879Z</time></trkpt><trkpt lat="42.687005" lon="-8.2062417"><ele>402.0</ele><time>2026-04-15T13:26:46.88Z</time></trkpt><trkpt lat="42.6870067" lon="-8.2065233"><ele>403.0</ele><time>2026-04-15T13:26:47.88Z</time></trkpt><trkpt lat="42.68699" lon="-8.206805"><ele>404.0</ele><time>2026-04-15T13:26:48.88Z</time></trkpt><trkpt lat="42.6869733" lon="-8.2070883"><ele>404.0</ele><time>2026-04-15T13:26:49.88Z</time></trkpt><trkpt lat="42.6869467" lon="-8.2073783"><ele>404.0</ele><time>2026-04-15T13:26:50.879Z</time></trkpt><trkpt lat="42.6869133" lon="-8.2076683"><ele>404.0</ele><time>2026-04-15T13:26:51.879Z</time></trkpt><trkpt lat="42.6868817" lon="-8.2079533"><ele>405.3333333333333</ele><time>2026-04-15T13:26:52.88Z</time></trkpt><trkpt lat="42.6868483" lon="-8.2082333"><ele>406.66666666666663</ele><time>2026-04-15T13:26:53.88Z</time></trkpt><trkpt lat="42.686815" lon="-8.20851"><ele>408.0</ele><time>2026-04-15T13:26:54.88Z</time></trkpt><trkpt lat="42.6867833" lon="-8.2087867"><ele>408.66666666666663</ele><time>2026-04-15T13:26:55.88Z</time></trkpt><trkpt lat="42.6867533" lon="-8.20907"><ele>409.3333333333333</ele><time>2026-04-15T13:26:56.88Z</time></trkpt><trkpt lat="42.6867233" lon="-8.2093483"><ele>410.0</ele><time>2026-04-15T13:26:57.879Z</time></trkpt><trkpt lat="42.6866933" lon="-8.2096267"><ele>410.3333333333333</ele><time>2026-04-15T13:26:58.88Z</time></trkpt><trkpt lat="42.6866617" lon="-8.209905"><ele>410.66666666666663</ele><time>2026-04-15T13:26:59.88Z</time></trkpt><trkpt lat="42.6866317" lon="-8.21018"><ele>411.0</ele><time>2026-04-15T13:27:00.88Z</time></trkpt><trkpt lat="42.6866017" lon="-8.210455"><ele>412.0</ele><time>2026-04-15T13:27:01.88Z</time></trkpt><trkpt lat="42.686575" lon="-8.2107283"><ele>413.0</ele><time>2026-04-15T13:27:02.88Z</time></trkpt><trkpt lat="42.6865483" lon="-8.2110067"><ele>414.0</ele><time>2026-04-15T13:27:03.879Z</time></trkpt><trkpt lat="42.6865167" lon="-8.2112867"><ele>415.0</ele><time>2026-04-15T13:27:04.879Z</time></trkpt><trkpt lat="42.68649" lon="-8.2115633"><ele>416.0</ele><time>2026-04-15T13:27:05.88Z</time></trkpt><trkpt lat="42.68646" lon="-8.211845"><ele>417.0</ele><time>2026-04-15T13:27:06.88Z</time></trkpt><trkpt lat="42.686425" lon="-8.2121233"><ele>418.33333333333337</ele><time>2026-04-15T13:27:07.879Z</time></trkpt><trkpt lat="42.6863933" lon="-8.2123983"><ele>419.6666666666667</ele><time>2026-04-15T13:27:08.879Z</time></trkpt><trkpt lat="42.6863667" lon="-8.2126717"><ele>421.0</ele><time>2026-04-15T13:27:09.88Z</time></trkpt><trkpt lat="42.68634" lon="-8.2129467"><ele>422.0</ele><time>2026-04-15T13:27:10.88Z</time></trkpt><trkpt lat="42.6863133" lon="-8.2132267"><ele>423.0</ele><time>2026-04-15T13:27:11.879Z</time></trkpt><trkpt lat="42.68628" lon="-8.2135017"><ele>424.0</ele><time>2026-04-15T13:27:12.88Z</time></trkpt><trkpt lat="42.6862467" lon="-8.2137783"><ele>425.0</ele><time>2026-04-15T13:27:13.88Z</time></trkpt><trkpt lat="42.68621" lon="-8.2140567"><ele>426.0</ele><time>2026-04-15T13:27:14.879Z</time></trkpt><trkpt lat="42.686175" lon="-8.214335"><ele>427.0</ele><time>2026-04-15T13:27:15.879Z</time></trkpt><trkpt lat="42.6861383" lon="-8.2146067"><ele>427.6666666666667</ele><time>2026-04-15T13:27:16.879Z</time></trkpt><trkpt lat="42.6861183" lon="-8.2148833"><ele>428.33333333333337</ele><time>2026-04-15T13:27:17.879Z</time></trkpt><trkpt lat="42.6860867" lon="-8.215155"><ele>429.0</ele><time>2026-04-15T13:27:18.88Z</time></trkpt><trkpt lat="42.686055" lon="-8.2154267"><ele>429.66666666666663</ele><time>2026-04-15T13:27:19.88Z</time></trkpt><trkpt lat="42.68604" lon="-8.2156983"><ele>430.3333333333333</ele><time>2026-04-15T13:27:20.879Z</time></trkpt><trkpt lat="42.68602" lon="-8.2159717"><ele>431.0</ele><time>2026-04-15T13:27:21.88Z</time></trkpt><trkpt lat="42.68602" lon="-8.2162467"><ele>432.3333333333333</ele><time>2026-04-15T13:27:22.879Z</time></trkpt><trkpt lat="42.6860367" lon="-8.216515"><ele>433.66666666666663</ele><time>2026-04-15T13:27:23.879Z</time></trkpt><trkpt lat="42.6860617" lon="-8.2167783"><ele>435.0</ele><time>2026-04-15T13:27:24.879Z</time></trkpt><trkpt lat="42.6861033" lon="-8.2170483"><ele>438.0</ele><time>2026-04-15T13:27:25.879Z</time></trkpt><trkpt lat="42.6861517" lon="-8.21732"><ele>441.0</ele><time>2026-04-15T13:27:26.879Z</time></trkpt><trkpt lat="42.6862117" lon="-8.21758"><ele>444.0</ele><time>2026-04-15T13:27:27.88Z</time></trkpt><trkpt lat="42.6862767" lon="-8.2178383"><ele>444.0</ele><time>2026-04-15T13:27:28.879Z</time></trkpt><trkpt lat="42.6863617" lon="-8.2180867"><ele>444.0</ele><time>2026-04-15T13:27:29.88Z</time></trkpt><trkpt lat="42.686455" lon="-8.218325"><ele>444.0</ele><time>2026-04-15T13:27:30.88Z</time></trkpt><trkpt lat="42.6865617" lon="-8.2185567"><ele>443.33333333333337</ele><time>2026-04-15T13:27:31.879Z</time></trkpt><trkpt lat="42.6866867" lon="-8.2187767"><ele>442.6666666666667</ele><time>2026-04-15T13:27:32.879Z</time></trkpt><trkpt lat="42.6868183" lon="-8.2189833"><ele>442.0</ele><time>2026-04-15T13:27:33.88Z</time></trkpt><trkpt lat="42.6869667" lon="-8.219185"><ele>442.0</ele><time>2026-04-15T13:27:34.879Z</time></trkpt><trkpt lat="42.6871183" lon="-8.2193733"><ele>442.0</ele><time>2026-04-15T13:27:35.879Z</time></trkpt><trkpt lat="42.68728" lon="-8.2195467"><ele>442.0</ele><time>2026-04-15T13:27:36.88Z</time></trkpt><trkpt lat="42.6874517" lon="-8.219705"><ele>442.33333333333337</ele><time>2026-04-15T13:27:37.88Z</time></trkpt><trkpt lat="42.6876317" lon="-8.2198483"><ele>442.66666666666663</ele><time>2026-04-15T13:27:38.88Z</time></trkpt><trkpt lat="42.687815" lon="-8.219985"><ele>443.0</ele><time>2026-04-15T13:27:39.88Z</time></trkpt><trkpt lat="42.6880017" lon="-8.2201117"><ele>443.0</ele><time>2026-04-15T13:27:40.88Z</time></trkpt><trkpt lat="42.6881933" lon="-8.2202317"><ele>443.0</ele><time>2026-04-15T13:27:41.879Z</time></trkpt><trkpt lat="42.6883867" lon="-8.220355"><ele>443.0</ele><time>2026-04-15T13:27:42.879Z</time></trkpt><trkpt lat="42.688575" lon="-8.2204717"><ele>443.0</ele><time>2026-04-15T13:27:43.879Z</time></trkpt><trkpt lat="42.6887717" lon="-8.2205967"><ele>443.0</ele><time>2026-04-15T13:27:44.88Z</time></trkpt><trkpt lat="42.6889667" lon="-8.2207"><ele>443.0</ele><time>2026-04-15T13:27:45.88Z</time></trkpt><trkpt lat="42.6891633" lon="-8.2208083"><ele>444.3333333333333</ele><time>2026-04-15T13:27:46.879Z</time></trkpt><trkpt lat="42.6893567" lon="-8.22092"><ele>445.66666666666663</ele><time>2026-04-15T13:27:47.879Z</time></trkpt><trkpt lat="42.6895483" lon="-8.22104"><ele>447.0</ele><time>2026-04-15T13:27:48.879Z</time></trkpt><trkpt lat="42.6897417" lon="-8.2211717"><ele>447.0</ele><time>2026-04-15T13:27:49.88Z</time></trkpt><trkpt lat="42.6899183" lon="-8.2213117"><ele>447.0</ele><time>2026-04-15T13:27:50.879Z</time></trkpt><trkpt lat="42.6900867" lon="-8.221485"><ele>447.0</ele><time>2026-04-15T13:27:51.879Z</time></trkpt><trkpt lat="42.690245" lon="-8.221665"><ele>446.33333333333337</ele><time>2026-04-15T13:27:52.879Z</time></trkpt><trkpt lat="42.6903883" lon="-8.221855"><ele>445.6666666666667</ele><time>2026-04-15T13:27:53.88Z</time></trkpt><trkpt lat="42.690525" lon="-8.2220483"><ele>445.0</ele><time>2026-04-15T13:27:54.88Z</time></trkpt><trkpt lat="42.690665" lon="-8.2222483"><ele>447.0</ele><time>2026-04-15T13:27:55.879Z</time></trkpt><trkpt lat="42.6908" lon="-8.2224667"><ele>449.0</ele><time>2026-04-15T13:27:56.88Z</time></trkpt><trkpt lat="42.6909333" lon="-8.222665"><ele>451.0</ele><time>2026-04-15T13:27:57.879Z</time></trkpt><trkpt lat="42.69107" lon="-8.2228633"><ele>450.0</ele><time>2026-04-15T13:27:58.88Z</time></trkpt><trkpt lat="42.6912083" lon="-8.2230617"><ele>449.0</ele><time>2026-04-15T13:27:59.88Z</time></trkpt><trkpt lat="42.6913467" lon="-8.2232483"><ele>448.0</ele><time>2026-04-15T13:28:00.88Z</time></trkpt><trkpt lat="42.6914833" lon="-8.22344"><ele>451.0</ele><time>2026-04-15T13:28:01.879Z</time></trkpt><trkpt lat="42.6916167" lon="-8.22364"><ele>454.0</ele><time>2026-04-15T13:28:02.879Z</time></trkpt><trkpt lat="42.6917533" lon="-8.22384"><ele>457.0</ele><time>2026-04-15T13:28:03.88Z</time></trkpt><trkpt lat="42.6918883" lon="-8.224045"><ele>458.33333333333337</ele><time>2026-04-15T13:28:04.88Z</time></trkpt><trkpt lat="42.69202" lon="-8.2242583"><ele>459.66666666666663</ele><time>2026-04-15T13:28:05.879Z</time></trkpt><trkpt lat="42.6921617" lon="-8.2244633"><ele>461.0</ele><time>2026-04-15T13:28:06.879Z</time></trkpt><trkpt lat="42.6923017" lon="-8.224675"><ele>461.66666666666663</ele><time>2026-04-15T13:28:07.879Z</time></trkpt><trkpt lat="42.6924433" lon="-8.2248833"><ele>462.33333333333337</ele><time>2026-04-15T13:28:08.88Z</time></trkpt><trkpt lat="42.6925917" lon="-8.2250883"><ele>463.0</ele><time>2026-04-15T13:28:09.88Z</time></trkpt><trkpt lat="42.69274" lon="-8.225295"><ele>463.33333333333337</ele><time>2026-04-15T13:28:10.879Z</time></trkpt><trkpt lat="42.6928833" lon="-8.2255"><ele>463.66666666666663</ele><time>2026-04-15T13:28:11.88Z</time></trkpt><trkpt lat="42.6930183" lon="-8.225705"><ele>464.0</ele><time>2026-04-15T13:28:12.879Z</time></trkpt><trkpt lat="42.6931583" lon="-8.2259133"><ele>463.3333333333333</ele><time>2026-04-15T13:28:13.88Z</time></trkpt><trkpt lat="42.69329" lon="-8.226125"><ele>462.66666666666663</ele><time>2026-04-15T13:28:14.879Z</time></trkpt><trkpt lat="42.6934033" lon="-8.2263367"><ele>462.0</ele><time>2026-04-15T13:28:15.879Z</time></trkpt><trkpt lat="42.693505" lon="-8.226555"><ele>461.0</ele><time>2026-04-15T13:28:16.88Z</time></trkpt><trkpt lat="42.693605" lon="-8.2267817"><ele>460.0</ele><time>2026-04-15T13:28:17.879Z</time></trkpt><trkpt lat="42.6936883" lon="-8.22703"><ele>459.0</ele><time>2026-04-15T13:28:18.88Z</time></trkpt><trkpt lat="42.6937583" lon="-8.2272833"><ele>458.0</ele><time>2026-04-15T13:28:19.88Z</time></trkpt><trkpt lat="42.693815" lon="-8.22754"><ele>457.0</ele><time>2026-04-15T13:28:20.879Z</time></trkpt><trkpt lat="42.6938583" lon="-8.2277983"><ele>456.0</ele><time>2026-04-15T13:28:21.88Z</time></trkpt><trkpt lat="42.6938933" lon="-8.2280567"><ele>454.33333333333337</ele><time>2026-04-15T13:28:22.879Z</time></trkpt><trkpt lat="42.6939233" lon="-8.2283033"><ele>452.6666666666667</ele><time>2026-04-15T13:28:23.88Z</time></trkpt><trkpt lat="42.6939617" lon="-8.2285333"><ele>451.0</ele><time>2026-04-15T13:28:24.88Z</time></trkpt><trkpt lat="42.6939883" lon="-8.2287617"><ele>449.33333333333337</ele><time>2026-04-15T13:28:25.879Z</time></trkpt><trkpt lat="42.694025" lon="-8.2289833"><ele>447.66666666666663</ele><time>2026-04-15T13:28:26.88Z</time></trkpt><trkpt lat="42.6940617" lon="-8.2292033"><ele>446.0</ele><time>2026-04-15T13:28:27.879Z</time></trkpt><trkpt lat="42.6941083" lon="-8.2294167"><ele>446.0</ele><time>2026-04-15T13:28:28.879Z</time></trkpt><trkpt lat="42.69414" lon="-8.2296317"><ele>446.0</ele><time>2026-04-15T13:28:29.88Z</time></trkpt><trkpt lat="42.6941717" lon="-8.2298383"><ele>446.0</ele><time>2026-04-15T13:28:30.88Z</time></trkpt><trkpt lat="42.6942033" lon="-8.230045"><ele>444.0</ele><time>2026-04-15T13:28:31.88Z</time></trkpt><trkpt lat="42.69424" lon="-8.230255"><ele>442.0</ele><time>2026-04-15T13:28:32.879Z</time></trkpt><trkpt lat="42.6942783" lon="-8.23046"><ele>440.0</ele><time>2026-04-15T13:28:33.879Z</time></trkpt><trkpt lat="42.6943233" lon="-8.23066"><ele>439.3333333333333</ele><time>2026-04-15T13:28:34.879Z</time></trkpt><trkpt lat="42.6943717" lon="-8.2308667"><ele>438.66666666666663</ele><time>2026-04-15T13:28:35.879Z</time></trkpt><trkpt lat="42.6944067" lon="-8.2310767"><ele>438.0</ele><time>2026-04-15T13:28:36.879Z</time></trkpt><trkpt lat="42.6944367" lon="-8.2312967"><ele>439.33333333333337</ele><time>2026-04-15T13:28:37.88Z</time></trkpt><trkpt lat="42.694465" lon="-8.231515"><ele>440.6666666666667</ele><time>2026-04-15T13:28:38.879Z</time></trkpt><trkpt lat="42.6944983" lon="-8.2317367"><ele>442.0</ele><time>2026-04-15T13:28:39.879Z</time></trkpt><trkpt lat="42.69453" lon="-8.2319533"><ele>442.0</ele><time>2026-04-15T13:28:40.879Z</time></trkpt><trkpt lat="42.6945617" lon="-8.2321833"><ele>442.0</ele><time>2026-04-15T13:28:41.879Z</time></trkpt><trkpt lat="42.694595" lon="-8.2324183"><ele>442.0</ele><time>2026-04-15T13:28:42.879Z</time></trkpt><trkpt lat="42.694635" lon="-8.2326583"><ele>443.33333333333337</ele><time>2026-04-15T13:28:43.88Z</time></trkpt><trkpt lat="42.6946767" lon="-8.2328967"><ele>444.66666666666663</ele><time>2026-04-15T13:28:44.88Z</time></trkpt><trkpt lat="42.6947117" lon="-8.2331367"><ele>446.0</ele><time>2026-04-15T13:28:45.879Z</time></trkpt><trkpt lat="42.6947567" lon="-8.2333717"><ele>446.3333333333333</ele><time>2026-04-15T13:28:46.879Z</time></trkpt><trkpt lat="42.6947967" lon="-8.2336183"><ele>446.66666666666663</ele><time>2026-04-15T13:28:47.879Z</time></trkpt><trkpt lat="42.694835" lon="-8.2338667"><ele>447.0</ele><time>2026-04-15T13:28:48.879Z</time></trkpt><trkpt lat="42.6948767" lon="-8.2341133"><ele>448.0</ele><time>2026-04-15T13:28:49.879Z</time></trkpt><trkpt lat="42.6949233" lon="-8.2343617"><ele>449.0</ele><time>2026-04-15T13:28:50.879Z</time></trkpt><trkpt lat="42.6949667" lon="-8.2345983"><ele>450.0</ele><time>2026-04-15T13:28:51.879Z</time></trkpt><trkpt lat="42.69499" lon="-8.234845"><ele>452.0</ele><time>2026-04-15T13:28:52.879Z</time></trkpt><trkpt lat="42.69502" lon="-8.2350883"><ele>454.0</ele><time>2026-04-15T13:28:53.879Z</time></trkpt><trkpt lat="42.6950517" lon="-8.23534"><ele>456.0</ele><time>2026-04-15T13:28:54.88Z</time></trkpt><trkpt lat="42.6950833" lon="-8.2355883"><ele>456.66666666666663</ele><time>2026-04-15T13:28:55.88Z</time></trkpt><trkpt lat="42.6951233" lon="-8.2358333"><ele>457.3333333333333</ele><time>2026-04-15T13:28:56.879Z</time></trkpt><trkpt lat="42.6951583" lon="-8.236065"><ele>458.0</ele><time>2026-04-15T13:28:57.88Z</time></trkpt><trkpt lat="42.6951917" lon="-8.2363017"><ele>458.0</ele><time>2026-04-15T13:28:58.88Z</time></trkpt><trkpt lat="42.6952233" lon="-8.2365333"><ele>458.0</ele><time>2026-04-15T13:28:59.88Z</time></trkpt><trkpt lat="42.6952517" lon="-8.2367667"><ele>458.0</ele><time>2026-04-15T13:29:00.88Z</time></trkpt><trkpt lat="42.695285" lon="-8.2370033"><ele>458.0</ele><time>2026-04-15T13:29:01.88Z</time></trkpt><trkpt lat="42.6953117" lon="-8.2372267"><ele>458.0</ele><time>2026-04-15T13:29:02.88Z</time></trkpt><trkpt lat="42.6953367" lon="-8.2374567"><ele>458.0</ele><time>2026-04-15T13:29:03.88Z</time></trkpt><trkpt lat="42.69536" lon="-8.23768"><ele>458.66666666666663</ele><time>2026-04-15T13:29:04.88Z</time></trkpt><trkpt lat="42.6953917" lon="-8.2379"><ele>459.33333333333337</ele><time>2026-04-15T13:29:05.879Z</time></trkpt><trkpt lat="42.6954217" lon="-8.23813"><ele>460.0</ele><time>2026-04-15T13:29:06.879Z</time></trkpt><trkpt lat="42.69545" lon="-8.238355"><ele>462.0</ele><time>2026-04-15T13:29:07.879Z</time></trkpt><trkpt lat="42.6954767" lon="-8.238585"><ele>464.0</ele><time>2026-04-15T13:29:08.879Z</time></trkpt><trkpt lat="42.6955067" lon="-8.2387983"><ele>466.0</ele><time>2026-04-15T13:29:09.879Z</time></trkpt><trkpt lat="42.695525" lon="-8.2389917"><ele>466.75</ele><time>2026-04-15T13:29:10.88Z</time></trkpt><trkpt lat="42.6955433" lon="-8.2391667"><ele>467.5</ele><time>2026-04-15T13:29:11.879Z</time></trkpt><trkpt lat="42.6955667" lon="-8.23933"><ele>468.25</ele><time>2026-04-15T13:29:12.88Z</time></trkpt><trkpt lat="42.6955917" lon="-8.2394883"><ele>469.0</ele><time>2026-04-15T13:29:13.879Z</time></trkpt><trkpt lat="42.6956317" lon="-8.2396133"><ele>469.0</ele><time>2026-04-15T13:29:14.879Z</time></trkpt><trkpt lat="42.6956967" lon="-8.239725"><ele>469.0</ele><time>2026-04-15T13:29:15.88Z</time></trkpt><trkpt lat="42.69575" lon="-8.2398333"><ele>469.0</ele><time>2026-04-15T13:29:16.88Z</time></trkpt><trkpt lat="42.695785" lon="-8.2399433"><ele>469.0</ele><time>2026-04-15T13:29:17.88Z</time></trkpt><trkpt lat="42.69579" lon="-8.2400633"><ele>469.0</ele><time>2026-04-15T13:29:18.879Z</time></trkpt><trkpt lat="42.6957667" lon="-8.240195"><ele>468.79999999999995</ele><time>2026-04-15T13:29:19.879Z</time></trkpt><trkpt lat="42.6957317" lon="-8.2403267"><ele>468.59999999999997</ele><time>2026-04-15T13:29:20.879Z</time></trkpt><trkpt lat="42.6957133" lon="-8.2404683"><ele>468.4</ele><time>2026-04-15T13:29:21.88Z</time></trkpt><trkpt lat="42.69571" lon="-8.2406233"><ele>468.2</ele><time>2026-04-15T13:29:22.88Z</time></trkpt><trkpt lat="42.695715" lon="-8.24079"><ele>468.0</ele><time>2026-04-15T13:29:23.879Z</time></trkpt><trkpt lat="42.6957283" lon="-8.2409783"><ele>469.0</ele><time>2026-04-15T13:29:24.879Z</time></trkpt><trkpt lat="42.6957467" lon="-8.24118"><ele>470.0</ele><time>2026-04-15T13:29:25.879Z</time></trkpt><trkpt lat="42.695775" lon="-8.2413917"><ele>471.0</ele><time>2026-04-15T13:29:26.879Z</time></trkpt><trkpt lat="42.6958067" lon="-8.24161"><ele>472.66666666666663</ele><time>2026-04-15T13:29:27.88Z</time></trkpt><trkpt lat="42.695845" lon="-8.241825"><ele>474.3333333333333</ele><time>2026-04-15T13:29:28.879Z</time></trkpt><trkpt lat="42.69588" lon="-8.24204"><ele>476.0</ele><time>2026-04-15T13:29:29.879Z</time></trkpt><trkpt lat="42.6959167" lon="-8.242245"><ele>477.3333333333333</ele><time>2026-04-15T13:29:30.88Z</time></trkpt><trkpt lat="42.695945" lon="-8.24245"><ele>478.66666666666663</ele><time>2026-04-15T13:29:31.88Z</time></trkpt><trkpt lat="42.6959917" lon="-8.242645"><ele>480.0</ele><time>2026-04-15T13:29:32.879Z</time></trkpt><trkpt lat="42.69605" lon="-8.24284"><ele>479.66666666666663</ele><time>2026-04-15T13:29:33.88Z</time></trkpt><trkpt lat="42.69612" lon="-8.2430267"><ele>479.3333333333333</ele><time>2026-04-15T13:29:34.879Z</time></trkpt><trkpt lat="42.6961933" lon="-8.2432117"><ele>479.0</ele><time>2026-04-15T13:29:35.879Z</time></trkpt><trkpt lat="42.6962917" lon="-8.2434"><ele>479.0</ele><time>2026-04-15T13:29:36.879Z</time></trkpt><trkpt lat="42.6964017" lon="-8.2435583"><ele>479.0</ele><time>2026-04-15T13:29:37.879Z</time></trkpt><trkpt lat="42.6965267" lon="-8.2436983"><ele>479.0</ele><time>2026-04-15T13:29:38.88Z</time></trkpt><trkpt lat="42.6966517" lon="-8.2438333"><ele>479.0</ele><time>2026-04-15T13:29:39.88Z</time></trkpt><trkpt lat="42.69677" lon="-8.24394"><ele>479.0</ele><time>2026-04-15T13:29:40.879Z</time></trkpt><trkpt lat="42.6968883" lon="-8.2440383"><ele>479.0</ele><time>2026-04-15T13:29:41.88Z</time></trkpt><trkpt lat="42.697" lon="-8.2441317"><ele>479.0</ele><time>2026-04-15T13:29:42.88Z</time></trkpt><trkpt lat="42.6970917" lon="-8.2442317"><ele>480.2</ele><time>2026-04-15T13:29:43.88Z</time></trkpt><trkpt lat="42.697155" lon="-8.24435"><ele>481.4</ele><time>2026-04-15T13:29:44.88Z</time></trkpt><trkpt lat="42.6971967" lon="-8.24448"><ele>482.6</ele><time>2026-04-15T13:29:45.879Z</time></trkpt><trkpt lat="42.697225" lon="-8.2446133"><ele>483.8</ele><time>2026-04-15T13:29:46.879Z</time></trkpt><trkpt lat="42.6972433" lon="-8.24474"><ele>485.0</ele><time>2026-04-15T13:29:47.879Z</time></trkpt><trkpt lat="42.697265" lon="-8.2448567"><ele>486.2</ele><time>2026-04-15T13:29:48.879Z</time></trkpt><trkpt lat="42.6972817" lon="-8.2449583"><ele>487.4</ele><time>2026-04-15T13:29:49.88Z</time></trkpt><trkpt lat="42.6973083" lon="-8.2451017"><ele>488.6</ele><time>2026-04-15T13:29:51.879Z</time></trkpt><trkpt lat="42.6973217" lon="-8.2452483"><ele>489.8</ele><time>2026-04-15T13:30:27.879Z</time></trkpt><trkpt lat="42.6973267" lon="-8.24535"><ele>491.0</ele><time>2026-04-15T13:30:28.879Z</time></trkpt><trkpt lat="42.6973417" lon="-8.2454733"><ele>491.0</ele><time>2026-04-15T13:30:29.879Z</time></trkpt><trkpt lat="42.6973517" lon="-8.2456283"><ele>491.0</ele><time>2026-04-15T13:30:30.88Z</time></trkpt><trkpt lat="42.6973567" lon="-8.245805"><ele>491.0</ele><time>2026-04-15T13:30:31.88Z</time></trkpt><trkpt lat="42.69737" lon="-8.2459917"><ele>491.0</ele><time>2026-04-15T13:30:32.88Z</time></trkpt><trkpt lat="42.6973867" lon="-8.246185"><ele>491.0</ele><time>2026-04-15T13:30:33.879Z</time></trkpt><trkpt lat="42.6974017" lon="-8.2463883"><ele>491.0</ele><time>2026-04-15T13:30:34.879Z</time></trkpt><trkpt lat="42.6974017" lon="-8.2465867"><ele>491.0</ele><time>2026-04-15T13:30:35.879Z</time></trkpt><trkpt lat="42.6974083" lon="-8.24677"><ele>491.0</ele><time>2026-04-15T13:30:36.879Z</time></trkpt><trkpt lat="42.6974133" lon="-8.2469417"><ele>491.0</ele><time>2026-04-15T13:30:37.879Z</time></trkpt><trkpt lat="42.6974217" lon="-8.2470983"><ele>491.0</ele><time>2026-04-15T13:30:38.879Z</time></trkpt><trkpt lat="42.6974333" lon="-8.247255"><ele>491.0</ele><time>2026-04-15T13:30:39.88Z</time></trkpt><trkpt lat="42.6974467" lon="-8.2474033"><ele>491.0</ele><time>2026-04-15T13:30:40.88Z</time></trkpt><trkpt lat="42.6974667" lon="-8.247555"><ele>490.75</ele><time>2026-04-15T13:30:41.879Z</time></trkpt><trkpt lat="42.6974783" lon="-8.2477067"><ele>490.5</ele><time>2026-04-15T13:30:42.879Z</time></trkpt><trkpt lat="42.6974967" lon="-8.2478683"><ele>490.25</ele><time>2026-04-15T13:30:43.88Z</time></trkpt><trkpt lat="42.6975183" lon="-8.248025"><ele>490.0</ele><time>2026-04-15T13:30:44.88Z</time></trkpt><trkpt lat="42.6975483" lon="-8.2481783"><ele>489.0</ele><time>2026-04-15T13:30:45.879Z</time></trkpt><trkpt lat="42.69758" lon="-8.24832"><ele>488.0</ele><time>2026-04-15T13:30:46.879Z</time></trkpt><trkpt lat="42.6976383" lon="-8.2484433"><ele>487.0</ele><time>2026-04-15T13:30:47.88Z</time></trkpt><trkpt lat="42.6977267" lon="-8.2485433"><ele>486.0</ele><time>2026-04-15T13:30:48.879Z</time></trkpt><trkpt lat="42.6978333" lon="-8.2486283"><ele>485.5</ele><time>2026-04-15T13:30:49.879Z</time></trkpt><trkpt lat="42.69795" lon="-8.24872"><ele>485.0</ele><time>2026-04-15T13:30:50.879Z</time></trkpt><trkpt lat="42.6980783" lon="-8.2488133"><ele>484.5</ele><time>2026-04-15T13:30:51.88Z</time></trkpt><trkpt lat="42.6982183" lon="-8.2488983"><ele>484.0</ele><time>2026-04-15T13:30:52.879Z</time></trkpt><trkpt lat="42.698355" lon="-8.2489917"><ele>482.33333333333337</ele><time>2026-04-15T13:30:53.879Z</time></trkpt><trkpt lat="42.698485" lon="-8.2490917"><ele>480.66666666666663</ele><time>2026-04-15T13:30:54.88Z</time></trkpt><trkpt lat="42.698615" lon="-8.2491917"><ele>479.0</ele><time>2026-04-15T13:30:55.88Z</time></trkpt><trkpt lat="42.6987533" lon="-8.2492867"><ele>479.0</ele><time>2026-04-15T13:30:56.88Z</time></trkpt><trkpt lat="42.69888" lon="-8.2494067"><ele>479.0</ele><time>2026-04-15T13:30:57.879Z</time></trkpt><trkpt lat="42.6989883" lon="-8.2495433"><ele>479.0</ele><time>2026-04-15T13:30:58.879Z</time></trkpt><trkpt lat="42.6990917" lon="-8.2496967"><ele>477.75</ele><time>2026-04-15T13:30:59.879Z</time></trkpt><trkpt lat="42.69918" lon="-8.2498617"><ele>476.5</ele><time>2026-04-15T13:31:00.879Z</time></trkpt><trkpt lat="42.6992583" lon="-8.2500283"><ele>475.25</ele><time>2026-04-15T13:31:01.879Z</time></trkpt><trkpt lat="42.6993183" lon="-8.2502133"><ele>474.0</ele><time>2026-04-15T13:31:02.879Z</time></trkpt><trkpt lat="42.6993567" lon="-8.250415"><ele>473.66666666666663</ele><time>2026-04-15T13:31:03.879Z</time></trkpt><trkpt lat="42.6993817" lon="-8.250635"><ele>473.3333333333333</ele><time>2026-04-15T13:31:04.879Z</time></trkpt><trkpt lat="42.69939" lon="-8.250845"><ele>473.0</ele><time>2026-04-15T13:31:05.88Z</time></trkpt><trkpt lat="42.6993817" lon="-8.251075"><ele>473.0</ele><time>2026-04-15T13:31:06.88Z</time></trkpt><trkpt lat="42.6993633" lon="-8.2513067"><ele>473.0</ele><time>2026-04-15T13:31:07.879Z</time></trkpt><trkpt lat="42.699345" lon="-8.2515367"><ele>473.0</ele><time>2026-04-15T13:31:08.88Z</time></trkpt><trkpt lat="42.699315" lon="-8.2517667"><ele>473.0</ele><time>2026-04-15T13:31:09.879Z</time></trkpt><trkpt lat="42.6993033" lon="-8.251985"><ele>473.0</ele><time>2026-04-15T13:31:10.879Z</time></trkpt><trkpt lat="42.6992917" lon="-8.252215"><ele>473.0</ele><time>2026-04-15T13:31:11.88Z</time></trkpt><trkpt lat="42.699285" lon="-8.25244"><ele>471.66666666666663</ele><time>2026-04-15T13:31:12.879Z</time></trkpt><trkpt lat="42.6992917" lon="-8.2526783"><ele>470.33333333333337</ele><time>2026-04-15T13:31:13.88Z</time></trkpt><trkpt lat="42.6993167" lon="-8.25291"><ele>469.0</ele><time>2026-04-15T13:31:14.88Z</time></trkpt><trkpt lat="42.699355" lon="-8.2531533"><ele>467.33333333333337</ele><time>2026-04-15T13:31:15.879Z</time></trkpt><trkpt lat="42.6994067" lon="-8.2533833"><ele>465.66666666666663</ele><time>2026-04-15T13:31:16.879Z</time></trkpt><trkpt lat="42.699475" lon="-8.2536083"><ele>464.0</ele><time>2026-04-15T13:31:17.88Z</time></trkpt><trkpt lat="42.6995667" lon="-8.2538133"><ele>465.3333333333333</ele><time>2026-04-15T13:31:18.879Z</time></trkpt><trkpt lat="42.6996717" lon="-8.2540067"><ele>466.66666666666663</ele><time>2026-04-15T13:31:19.88Z</time></trkpt><trkpt lat="42.6998017" lon="-8.2541683"><ele>468.0</ele><time>2026-04-15T13:31:20.88Z</time></trkpt><trkpt lat="42.6999367" lon="-8.254325"><ele>468.0</ele><time>2026-04-15T13:31:21.88Z</time></trkpt><trkpt lat="42.700095" lon="-8.25446"><ele>468.0</ele><time>2026-04-15T13:31:22.88Z</time></trkpt><trkpt lat="42.7002483" lon="-8.254585"><ele>468.0</ele><time>2026-04-15T13:31:23.879Z</time></trkpt><trkpt lat="42.700405" lon="-8.2546983"><ele>465.66666666666663</ele><time>2026-04-15T13:31:24.879Z</time></trkpt><trkpt lat="42.7005783" lon="-8.2547983"><ele>463.3333333333333</ele><time>2026-04-15T13:31:25.879Z</time></trkpt><trkpt lat="42.70074" lon="-8.254895"><ele>461.0</ele><time>2026-04-15T13:31:26.879Z</time></trkpt><trkpt lat="42.70089" lon="-8.255005"><ele>461.0</ele><time>2026-04-15T13:31:27.879Z</time></trkpt><trkpt lat="42.701045" lon="-8.2551233"><ele>461.0</ele><time>2026-04-15T13:31:28.879Z</time></trkpt><trkpt lat="42.701185" lon="-8.2552633"><ele>461.0</ele><time>2026-04-15T13:31:29.879Z</time></trkpt><trkpt lat="42.7013117" lon="-8.25543"><ele>461.66666666666663</ele><time>2026-04-15T13:31:30.879Z</time></trkpt><trkpt lat="42.7014167" lon="-8.255615"><ele>462.33333333333337</ele><time>2026-04-15T13:31:31.88Z</time></trkpt><trkpt lat="42.7015117" lon="-8.2558217"><ele>463.0</ele><time>2026-04-15T13:31:32.88Z</time></trkpt><trkpt lat="42.7015767" lon="-8.2560367"><ele>461.0</ele><time>2026-04-15T13:31:33.879Z</time></trkpt><trkpt lat="42.7016183" lon="-8.2562567"><ele>459.0</ele><time>2026-04-15T13:31:34.88Z</time></trkpt><trkpt lat="42.7016633" lon="-8.256495"><ele>457.0</ele><time>2026-04-15T13:31:35.88Z</time></trkpt><trkpt lat="42.70171" lon="-8.2567233"><ele>457.0</ele><time>2026-04-15T13:31:36.88Z</time></trkpt><trkpt lat="42.7017583" lon="-8.2569517"><ele>457.0</ele><time>2026-04-15T13:31:37.879Z</time></trkpt><trkpt lat="42.7017967" lon="-8.25718"><ele>457.0</ele><time>2026-04-15T13:31:38.88Z</time></trkpt><trkpt lat="42.7018433" lon="-8.2574117"><ele>455.6666666666667</ele><time>2026-04-15T13:31:39.879Z</time></trkpt><trkpt lat="42.7019017" lon="-8.257635"><ele>454.33333333333337</ele><time>2026-04-15T13:31:40.88Z</time></trkpt><trkpt lat="42.701985" lon="-8.2578483"><ele>453.0</ele><time>2026-04-15T13:31:41.88Z</time></trkpt><trkpt lat="42.70209" lon="-8.258035"><ele>455.0</ele><time>2026-04-15T13:31:42.88Z</time></trkpt><trkpt lat="42.7022233" lon="-8.258205"><ele>457.0</ele><time>2026-04-15T13:31:43.88Z</time></trkpt><trkpt lat="42.70236" lon="-8.2583633"><ele>459.0</ele><time>2026-04-15T13:31:44.88Z</time></trkpt><trkpt lat="42.7025133" lon="-8.2584983"><ele>459.0</ele><time>2026-04-15T13:31:45.88Z</time></trkpt><trkpt lat="42.70269" lon="-8.2586133"><ele>459.0</ele><time>2026-04-15T13:31:46.88Z</time></trkpt><trkpt lat="42.7028617" lon="-8.258695"><ele>459.0</ele><time>2026-04-15T13:31:47.88Z</time></trkpt><trkpt lat="42.7030367" lon="-8.2587283"><ele>458.0</ele><time>2026-04-15T13:31:48.879Z</time></trkpt><trkpt lat="42.7032167" lon="-8.2587383"><ele>457.0</ele><time>2026-04-15T13:31:49.879Z</time></trkpt><trkpt lat="42.7034017" lon="-8.2587283"><ele>456.0</ele><time>2026-04-15T13:31:50.879Z</time></trkpt><trkpt lat="42.7035883" lon="-8.25872"><ele>456.0</ele><time>2026-04-15T13:31:51.879Z</time></trkpt><trkpt lat="42.7037783" lon="-8.258715"><ele>456.0</ele><time>2026-04-15T13:31:52.879Z</time></trkpt><trkpt lat="42.7039667" lon="-8.2587067"><ele>456.0</ele><time>2026-04-15T13:31:53.88Z</time></trkpt><trkpt lat="42.7041533" lon="-8.258705"><ele>456.0</ele><time>2026-04-15T13:31:54.88Z</time></trkpt><trkpt lat="42.7043533" lon="-8.2587083"><ele>456.0</ele><time>2026-04-15T13:31:55.879Z</time></trkpt><trkpt lat="42.704545" lon="-8.258705"><ele>456.0</ele><time>2026-04-15T13:31:56.879Z</time></trkpt><trkpt lat="42.7047217" lon="-8.2587083"><ele>452.0</ele><time>2026-04-15T13:31:57.879Z</time></trkpt><trkpt lat="42.704895" lon="-8.2587267"><ele>448.0</ele><time>2026-04-15T13:31:58.88Z</time></trkpt><trkpt lat="42.7050683" lon="-8.2587617"><ele>444.0</ele><time>2026-04-15T13:31:59.88Z</time></trkpt><trkpt lat="42.7052433" lon="-8.25882"><ele>443.0</ele><time>2026-04-15T13:32:00.879Z</time></trkpt><trkpt lat="42.7054083" lon="-8.2589017"><ele>442.0</ele><time>2026-04-15T13:32:01.88Z</time></trkpt><trkpt lat="42.7055683" lon="-8.2590083"><ele>441.0</ele><time>2026-04-15T13:32:02.879Z</time></trkpt><trkpt lat="42.70572" lon="-8.259135"><ele>439.0</ele><time>2026-04-15T13:32:03.88Z</time></trkpt><trkpt lat="42.7058583" lon="-8.259285"><ele>437.0</ele><time>2026-04-15T13:32:04.879Z</time></trkpt><trkpt lat="42.70599" lon="-8.2594517"><ele>435.0</ele><time>2026-04-15T13:32:05.879Z</time></trkpt><trkpt lat="42.7061117" lon="-8.2596267"><ele>432.33333333333337</ele><time>2026-04-15T13:32:06.88Z</time></trkpt><trkpt lat="42.7062267" lon="-8.259815"><ele>429.6666666666667</ele><time>2026-04-15T13:32:07.879Z</time></trkpt><trkpt lat="42.7063217" lon="-8.2600283"><ele>427.0</ele><time>2026-04-15T13:32:08.88Z</time></trkpt><trkpt lat="42.7063983" lon="-8.2602567"><ele>427.0</ele><time>2026-04-15T13:32:09.879Z</time></trkpt><trkpt lat="42.7064633" lon="-8.2604867"><ele>427.0</ele><time>2026-04-15T13:32:10.88Z</time></trkpt><trkpt lat="42.7065033" lon="-8.2607233"><ele>427.0</ele><time>2026-04-15T13:32:11.88Z</time></trkpt><trkpt lat="42.7065267" lon="-8.2609683"><ele>427.0</ele><time>2026-04-15T13:32:12.879Z</time></trkpt><trkpt lat="42.7065317" lon="-8.2612183"><ele>427.0</ele><time>2026-04-15T13:32:13.88Z</time></trkpt><trkpt lat="42.706525" lon="-8.2614567"><ele>427.0</ele><time>2026-04-15T13:32:14.88Z</time></trkpt><trkpt lat="42.7065133" lon="-8.2617017"><ele>427.33333333333337</ele><time>2026-04-15T13:32:15.879Z</time></trkpt><trkpt lat="42.7064883" lon="-8.2619517"><ele>427.66666666666663</ele><time>2026-04-15T13:32:16.879Z</time></trkpt><trkpt lat="42.70647" lon="-8.2621983"><ele>428.0</ele><time>2026-04-15T13:32:17.879Z</time></trkpt><trkpt lat="42.7064517" lon="-8.262445"><ele>427.3333333333333</ele><time>2026-04-15T13:32:18.879Z</time></trkpt><trkpt lat="42.7064367" lon="-8.26269"><ele>426.66666666666663</ele><time>2026-04-15T13:32:19.879Z</time></trkpt><trkpt lat="42.7064267" lon="-8.262945"><ele>426.0</ele><time>2026-04-15T13:32:20.879Z</time></trkpt><trkpt lat="42.7064133" lon="-8.2632"><ele>425.0</ele><time>2026-04-15T13:32:21.879Z</time></trkpt><trkpt lat="42.7064183" lon="-8.2634433"><ele>424.0</ele><time>2026-04-15T13:32:22.879Z</time></trkpt><trkpt lat="42.706435" lon="-8.2636933"><ele>423.0</ele><time>2026-04-15T13:32:23.879Z</time></trkpt><trkpt lat="42.7064633" lon="-8.263935"><ele>421.33333333333337</ele><time>2026-04-15T13:32:24.88Z</time></trkpt><trkpt lat="42.7065083" lon="-8.26417"><ele>419.6666666666667</ele><time>2026-04-15T13:32:25.88Z</time></trkpt><trkpt lat="42.70657" lon="-8.2644017"><ele>418.0</ele><time>2026-04-15T13:32:26.88Z</time></trkpt><trkpt lat="42.7066467" lon="-8.2646217"><ele>418.33333333333337</ele><time>2026-04-15T13:32:27.879Z</time></trkpt><trkpt lat="42.706755" lon="-8.264865"><ele>418.66666666666663</ele><time>2026-04-15T13:32:28.879Z</time></trkpt><trkpt lat="42.7068483" lon="-8.2650783"><ele>419.0</ele><time>2026-04-15T13:32:29.879Z</time></trkpt><trkpt lat="42.706945" lon="-8.2652683"><ele>419.0</ele><time>2026-04-15T13:32:30.879Z</time></trkpt><trkpt lat="42.7070567" lon="-8.2654683"><ele>419.0</ele><time>2026-04-15T13:32:31.879Z</time></trkpt><trkpt lat="42.7071767" lon="-8.2656583"><ele>419.0</ele><time>2026-04-15T13:32:32.879Z</time></trkpt><trkpt lat="42.7072933" lon="-8.2658483"><ele>416.3333333333333</ele><time>2026-04-15T13:32:33.879Z</time></trkpt><trkpt lat="42.7073967" lon="-8.2660483"><ele>413.66666666666663</ele><time>2026-04-15T13:32:34.879Z</time></trkpt><trkpt lat="42.70749" lon="-8.266255"><ele>411.0</ele><time>2026-04-15T13:32:35.879Z</time></trkpt><trkpt lat="42.7075783" lon="-8.26646"><ele>410.0</ele><time>2026-04-15T13:32:36.88Z</time></trkpt><trkpt lat="42.707665" lon="-8.2666867"><ele>409.0</ele><time>2026-04-15T13:32:37.88Z</time></trkpt><trkpt lat="42.7077383" lon="-8.266915"><ele>408.0</ele><time>2026-04-15T13:32:38.88Z</time></trkpt><trkpt lat="42.7078133" lon="-8.2671267"><ele>407.0</ele><time>2026-04-15T13:32:39.879Z</time></trkpt><trkpt lat="42.7078917" lon="-8.26736"><ele>406.0</ele><time>2026-04-15T13:32:40.879Z</time></trkpt><trkpt lat="42.7079667" lon="-8.26757"><ele>405.0</ele><time>2026-04-15T13:32:41.879Z</time></trkpt><trkpt lat="42.7080517" lon="-8.26778"><ele>405.0</ele><time>2026-04-15T13:32:42.879Z</time></trkpt><trkpt lat="42.7081267" lon="-8.268"><ele>405.0</ele><time>2026-04-15T13:32:43.88Z</time></trkpt><trkpt lat="42.7082033" lon="-8.2682217"><ele>405.0</ele><time>2026-04-15T13:32:44.88Z</time></trkpt><trkpt lat="42.7082883" lon="-8.2684583"><ele>403.0</ele><time>2026-04-15T13:32:45.88Z</time></trkpt><trkpt lat="42.7083767" lon="-8.2686917"><ele>401.0</ele><time>2026-04-15T13:32:46.879Z</time></trkpt><trkpt lat="42.7084583" lon="-8.2689367"><ele>399.0</ele><time>2026-04-15T13:32:47.88Z</time></trkpt><trkpt lat="42.7085417" lon="-8.2691733"><ele>398.0</ele><time>2026-04-15T13:32:48.879Z</time></trkpt><trkpt lat="42.70863" lon="-8.2693983"><ele>397.0</ele><time>2026-04-15T13:32:49.88Z</time></trkpt><trkpt lat="42.7087183" lon="-8.2696317"><ele>396.0</ele><time>2026-04-15T13:32:50.879Z</time></trkpt><trkpt lat="42.7088083" lon="-8.2698633"><ele>394.33333333333337</ele><time>2026-04-15T13:32:51.88Z</time></trkpt><trkpt lat="42.7089067" lon="-8.27009"><ele>392.6666666666667</ele><time>2026-04-15T13:32:52.88Z</time></trkpt><trkpt lat="42.708995" lon="-8.2703233"><ele>391.0</ele><time>2026-04-15T13:32:53.879Z</time></trkpt><trkpt lat="42.70908" lon="-8.2705533"><ele>389.33333333333337</ele><time>2026-04-15T13:32:54.88Z</time></trkpt><trkpt lat="42.7091733" lon="-8.2707833"><ele>387.66666666666663</ele><time>2026-04-15T13:32:55.879Z</time></trkpt><trkpt lat="42.7092617" lon="-8.2710067"><ele>386.0</ele><time>2026-04-15T13:32:56.879Z</time></trkpt><trkpt lat="42.709335" lon="-8.2712417"><ele>387.3333333333333</ele><time>2026-04-15T13:32:57.88Z</time></trkpt><trkpt lat="42.70941" lon="-8.2714717"><ele>388.66666666666663</ele><time>2026-04-15T13:32:58.879Z</time></trkpt><trkpt lat="42.7094967" lon="-8.2717017"><ele>390.0</ele><time>2026-04-15T13:32:59.879Z</time></trkpt><trkpt lat="42.7095883" lon="-8.2719283"><ele>390.0</ele><time>2026-04-15T13:33:00.88Z</time></trkpt><trkpt lat="42.70968" lon="-8.2721533"><ele>390.0</ele><time>2026-04-15T13:33:01.88Z</time></trkpt><trkpt lat="42.70977" lon="-8.2723917"><ele>390.0</ele><time>2026-04-15T13:33:02.88Z</time></trkpt><trkpt lat="42.709865" lon="-8.2726267"><ele>389.0</ele><time>2026-04-15T13:33:03.88Z</time></trkpt><trkpt lat="42.709955" lon="-8.272855"><ele>388.0</ele><time>2026-04-15T13:33:04.879Z</time></trkpt><trkpt lat="42.71005" lon="-8.273075"><ele>387.0</ele><time>2026-04-15T13:33:05.879Z</time></trkpt><trkpt lat="42.7101467" lon="-8.2732983"><ele>385.0</ele><time>2026-04-15T13:33:06.88Z</time></trkpt><trkpt lat="42.7102417" lon="-8.273515"><ele>383.0</ele><time>2026-04-15T13:33:07.88Z</time></trkpt><trkpt lat="42.7103367" lon="-8.2737317"><ele>381.0</ele><time>2026-04-15T13:33:08.879Z</time></trkpt><trkpt lat="42.710445" lon="-8.2739583"><ele>378.3333333333333</ele><time>2026-04-15T13:33:09.88Z</time></trkpt><trkpt lat="42.710535" lon="-8.2741867"><ele>375.66666666666663</ele><time>2026-04-15T13:33:10.879Z</time></trkpt><trkpt lat="42.7106333" lon="-8.2744083"><ele>373.0</ele><time>2026-04-15T13:33:11.879Z</time></trkpt><trkpt lat="42.7107317" lon="-8.2746483"><ele>371.0</ele><time>2026-04-15T13:33:12.88Z</time></trkpt><trkpt lat="42.71083" lon="-8.274875"><ele>369.0</ele><time>2026-04-15T13:33:13.88Z</time></trkpt><trkpt lat="42.7109367" lon="-8.2750867"><ele>367.0</ele><time>2026-04-15T13:33:14.88Z</time></trkpt><trkpt lat="42.71104" lon="-8.2753083"><ele>366.66666666666663</ele><time>2026-04-15T13:33:15.88Z</time></trkpt><trkpt lat="42.7111417" lon="-8.2755267"><ele>366.3333333333333</ele><time>2026-04-15T13:33:16.88Z</time></trkpt><trkpt lat="42.7112433" lon="-8.27575"><ele>366.0</ele><time>2026-04-15T13:33:17.88Z</time></trkpt><trkpt lat="42.7113483" lon="-8.2759767"><ele>366.0</ele><time>2026-04-15T13:33:18.88Z</time></trkpt><trkpt lat="42.7114583" lon="-8.2761967"><ele>366.0</ele><time>2026-04-15T13:33:19.879Z</time></trkpt><trkpt lat="42.71157" lon="-8.27641"><ele>366.0</ele><time>2026-04-15T13:33:20.879Z</time></trkpt><trkpt lat="42.7116767" lon="-8.27663"><ele>364.6666666666667</ele><time>2026-04-15T13:33:21.88Z</time></trkpt><trkpt lat="42.7117767" lon="-8.27685"><ele>363.33333333333337</ele><time>2026-04-15T13:33:22.879Z</time></trkpt><trkpt lat="42.7118783" lon="-8.2770717"><ele>362.0</ele><time>2026-04-15T13:33:23.88Z</time></trkpt><trkpt lat="42.71199" lon="-8.2772933"><ele>360.33333333333337</ele><time>2026-04-15T13:33:24.88Z</time></trkpt><trkpt lat="42.712095" lon="-8.2775117"><ele>358.6666666666667</ele><time>2026-04-15T13:33:25.879Z</time></trkpt><trkpt lat="42.7122017" lon="-8.2777317"><ele>357.0</ele><time>2026-04-15T13:33:26.88Z</time></trkpt><trkpt lat="42.7123133" lon="-8.27795"><ele>356.0</ele><time>2026-04-15T13:33:27.879Z</time></trkpt><trkpt lat="42.71242" lon="-8.2781683"><ele>355.0</ele><time>2026-04-15T13:33:28.879Z</time></trkpt><trkpt lat="42.7125267" lon="-8.2783833"><ele>354.0</ele><time>2026-04-15T13:33:29.879Z</time></trkpt><trkpt lat="42.712635" lon="-8.2785983"><ele>354.6666666666667</ele><time>2026-04-15T13:33:30.879Z</time></trkpt><trkpt lat="42.7127433" lon="-8.2788133"><ele>355.33333333333337</ele><time>2026-04-15T13:33:31.88Z</time></trkpt><trkpt lat="42.7128567" lon="-8.279005"><ele>356.0</ele><time>2026-04-15T13:33:32.88Z</time></trkpt><trkpt lat="42.7129833" lon="-8.2791817"><ele>353.33333333333337</ele><time>2026-04-15T13:33:33.879Z</time></trkpt><trkpt lat="42.713115" lon="-8.2793417"><ele>350.6666666666667</ele><time>2026-04-15T13:33:34.88Z</time></trkpt><trkpt lat="42.7132533" lon="-8.2794833"><ele>348.0</ele><time>2026-04-15T13:33:35.879Z</time></trkpt><trkpt lat="42.7134083" lon="-8.2796033"><ele>348.0</ele><time>2026-04-15T13:33:36.88Z</time></trkpt><trkpt lat="42.713565" lon="-8.27971"><ele>348.0</ele><time>2026-04-15T13:33:37.879Z</time></trkpt><trkpt lat="42.71373" lon="-8.2797933"><ele>348.0</ele><time>2026-04-15T13:33:38.88Z</time></trkpt><trkpt lat="42.7139083" lon="-8.2798467"><ele>345.0</ele><time>2026-04-15T13:33:39.879Z</time></trkpt><trkpt lat="42.7140867" lon="-8.279885"><ele>342.0</ele><time>2026-04-15T13:33:40.88Z</time></trkpt><trkpt lat="42.7142633" lon="-8.2799033"><ele>339.0</ele><time>2026-04-15T13:33:41.88Z</time></trkpt><trkpt lat="42.714435" lon="-8.2799183"><ele>337.0</ele><time>2026-04-15T13:33:42.879Z</time></trkpt><trkpt lat="42.7146083" lon="-8.2799267"><ele>335.0</ele><time>2026-04-15T13:33:43.88Z</time></trkpt><trkpt lat="42.7147783" lon="-8.27994"><ele>333.0</ele><time>2026-04-15T13:33:44.879Z</time></trkpt><trkpt lat="42.7149467" lon="-8.27996"><ele>333.0</ele><time>2026-04-15T13:33:45.88Z</time></trkpt><trkpt lat="42.7151083" lon="-8.2800133"><ele>333.0</ele><time>2026-04-15T13:33:46.879Z</time></trkpt><trkpt lat="42.7152733" lon="-8.2800733"><ele>333.0</ele><time>2026-04-15T13:33:47.879Z</time></trkpt><trkpt lat="42.71543" lon="-8.280165"><ele>333.0</ele><time>2026-04-15T13:33:48.879Z</time></trkpt><trkpt lat="42.7155867" lon="-8.2802767"><ele>333.0</ele><time>2026-04-15T13:33:49.879Z</time></trkpt><trkpt lat="42.7157333" lon="-8.280425"><ele>333.0</ele><time>2026-04-15T13:33:50.879Z</time></trkpt><trkpt lat="42.7158683" lon="-8.2805917"><ele>333.0</ele><time>2026-04-15T13:33:51.88Z</time></trkpt><trkpt lat="42.7160017" lon="-8.2807667"><ele>333.0</ele><time>2026-04-15T13:33:52.88Z</time></trkpt><trkpt lat="42.716125" lon="-8.2809483"><ele>333.0</ele><time>2026-04-15T13:33:53.88Z</time></trkpt><trkpt lat="42.7162533" lon="-8.2811283"><ele>333.0</ele><time>2026-04-15T13:33:54.88Z</time></trkpt><trkpt lat="42.7163833" lon="-8.2813117"><ele>333.0</ele><time>2026-04-15T13:33:55.88Z</time></trkpt><trkpt lat="42.716515" lon="-8.2814967"><ele>333.0</ele><time>2026-04-15T13:33:56.879Z</time></trkpt><trkpt lat="42.7166367" lon="-8.281675"><ele>333.0</ele><time>2026-04-15T13:33:57.88Z</time></trkpt><trkpt lat="42.7167617" lon="-8.2818383"><ele>333.0</ele><time>2026-04-15T13:33:58.879Z</time></trkpt><trkpt lat="42.7168883" lon="-8.282025"><ele>333.0</ele><time>2026-04-15T13:33:59.879Z</time></trkpt><trkpt lat="42.7170183" lon="-8.282195"><ele>333.0</ele><time>2026-04-15T13:34:00.879Z</time></trkpt><trkpt lat="42.7171433" lon="-8.2823717"><ele>333.0</ele><time>2026-04-15T13:34:01.88Z</time></trkpt><trkpt lat="42.7172833" lon="-8.282525"><ele>333.0</ele><time>2026-04-15T13:34:02.88Z</time></trkpt><trkpt lat="42.71742" lon="-8.2826883"><ele>333.0</ele><time>2026-04-15T13:34:03.879Z</time></trkpt><trkpt lat="42.7175633" lon="-8.2828317"><ele>333.0</ele><time>2026-04-15T13:34:04.88Z</time></trkpt><trkpt lat="42.7177067" lon="-8.282965"><ele>333.0</ele><time>2026-04-15T13:34:05.879Z</time></trkpt><trkpt lat="42.71786" lon="-8.2831033"><ele>331.6666666666667</ele><time>2026-04-15T13:34:06.88Z</time></trkpt><trkpt lat="42.7180183" lon="-8.2832317"><ele>330.33333333333337</ele><time>2026-04-15T13:34:07.88Z</time></trkpt><trkpt lat="42.7181867" lon="-8.283345"><ele>329.0</ele><time>2026-04-15T13:34:08.88Z</time></trkpt><trkpt lat="42.718345" lon="-8.2834517"><ele>329.0</ele><time>2026-04-15T13:34:09.879Z</time></trkpt><trkpt lat="42.7184883" lon="-8.2835467"><ele>329.0</ele><time>2026-04-15T13:34:10.879Z</time></trkpt><trkpt lat="42.71863" lon="-8.2836067"><ele>329.0</ele><time>2026-04-15T13:34:11.88Z</time></trkpt><trkpt lat="42.71876" lon="-8.2836367"><ele>329.0</ele><time>2026-04-15T13:34:12.879Z</time></trkpt><trkpt lat="42.71889" lon="-8.283625"><ele>329.5</ele><time>2026-04-15T13:34:13.879Z</time></trkpt><trkpt lat="42.719015" lon="-8.2835583"><ele>330.0</ele><time>2026-04-15T13:34:14.88Z</time></trkpt><trkpt lat="42.7191167" lon="-8.283445"><ele>330.5</ele><time>2026-04-15T13:34:15.88Z</time></trkpt><trkpt lat="42.719185" lon="-8.28329"><ele>331.0</ele><time>2026-04-15T13:34:16.879Z</time></trkpt><trkpt lat="42.7192133" lon="-8.2830983"><ele>331.5</ele><time>2026-04-15T13:34:17.879Z</time></trkpt><trkpt lat="42.719205" lon="-8.282905"><ele>332.0</ele><time>2026-04-15T13:34:18.879Z</time></trkpt><trkpt lat="42.719145" lon="-8.2827283"><ele>332.5</ele><time>2026-04-15T13:34:19.879Z</time></trkpt><trkpt lat="42.7190417" lon="-8.2825883"><ele>333.0</ele><time>2026-04-15T13:34:20.879Z</time></trkpt><trkpt lat="42.7189083" lon="-8.282495"><ele>333.0</ele><time>2026-04-15T13:34:21.88Z</time></trkpt><trkpt lat="42.7187617" lon="-8.2824417"><ele>333.0</ele><time>2026-04-15T13:34:22.879Z</time></trkpt><trkpt lat="42.7186067" lon="-8.2824317"><ele>333.0</ele><time>2026-04-15T13:34:23.879Z</time></trkpt><trkpt lat="42.7184533" lon="-8.2824767"><ele>332.6666666666667</ele><time>2026-04-15T13:34:24.879Z</time></trkpt><trkpt lat="42.7183133" lon="-8.28257"><ele>332.33333333333337</ele><time>2026-04-15T13:34:25.879Z</time></trkpt><trkpt lat="42.7181967" lon="-8.2827033"><ele>332.0</ele><time>2026-04-15T13:34:26.879Z</time></trkpt><trkpt lat="42.7181083" lon="-8.2828767"><ele>332.0</ele><time>2026-04-15T13:34:27.88Z</time></trkpt><trkpt lat="42.7180367" lon="-8.2830767"><ele>332.0</ele><time>2026-04-15T13:34:28.879Z</time></trkpt><trkpt lat="42.717965" lon="-8.2832833"><ele>332.0</ele><time>2026-04-15T13:34:29.879Z</time></trkpt><trkpt lat="42.717895" lon="-8.2834883"><ele>332.0</ele><time>2026-04-15T13:34:30.88Z</time></trkpt><trkpt lat="42.71782" lon="-8.2836933"><ele>332.0</ele><time>2026-04-15T13:34:31.88Z</time></trkpt><trkpt lat="42.717735" lon="-8.2839117"><ele>332.0</ele><time>2026-04-15T13:34:32.879Z</time></trkpt><trkpt lat="42.7176683" lon="-8.28413"><ele>332.0</ele><time>2026-04-15T13:34:33.879Z</time></trkpt><trkpt lat="42.7176" lon="-8.284345"><ele>332.0</ele><time>2026-04-15T13:34:34.88Z</time></trkpt><trkpt lat="42.71753" lon="-8.2845667"><ele>332.0</ele><time>2026-04-15T13:34:35.879Z</time></trkpt><trkpt lat="42.7174517" lon="-8.2847733"><ele>332.33333333333337</ele><time>2026-04-15T13:34:36.88Z</time></trkpt><trkpt lat="42.717375" lon="-8.2850067"><ele>332.6666666666667</ele><time>2026-04-15T13:34:37.88Z</time></trkpt><trkpt lat="42.7173017" lon="-8.285225"><ele>333.0</ele><time>2026-04-15T13:34:38.88Z</time></trkpt><trkpt lat="42.7172183" lon="-8.2854267"><ele>334.3333333333333</ele><time>2026-04-15T13:34:39.879Z</time></trkpt><trkpt lat="42.7171317" lon="-8.2856267"><ele>335.66666666666663</ele><time>2026-04-15T13:34:40.88Z</time></trkpt><trkpt lat="42.7170567" lon="-8.285835"><ele>337.0</ele><time>2026-04-15T13:34:41.879Z</time></trkpt><trkpt lat="42.7169783" lon="-8.28605"><ele>338.3333333333333</ele><time>2026-04-15T13:34:42.88Z</time></trkpt><trkpt lat="42.7169017" lon="-8.286265"><ele>339.6666666666667</ele><time>2026-04-15T13:34:43.879Z</time></trkpt><trkpt lat="42.7168217" lon="-8.28648"><ele>341.0</ele><time>2026-04-15T13:34:44.879Z</time></trkpt><trkpt lat="42.71674" lon="-8.2866883"><ele>344.33333333333337</ele><time>2026-04-15T13:34:45.88Z</time></trkpt><trkpt lat="42.7166583" lon="-8.2868967"><ele>347.6666666666667</ele><time>2026-04-15T13:34:46.88Z</time></trkpt><trkpt lat="42.7165767" lon="-8.2871033"><ele>351.0</ele><time>2026-04-15T13:34:47.88Z</time></trkpt><trkpt lat="42.71649" lon="-8.287315"><ele>353.3333333333333</ele><time>2026-04-15T13:34:48.88Z</time></trkpt><trkpt lat="42.7164033" lon="-8.2875267"><ele>355.66666666666663</ele><time>2026-04-15T13:34:49.879Z</time></trkpt><trkpt lat="42.716315" lon="-8.2877367"><ele>358.0</ele><time>2026-04-15T13:34:50.879Z</time></trkpt><trkpt lat="42.7162333" lon="-8.2879467"><ele>359.3333333333333</ele><time>2026-04-15T13:34:51.879Z</time></trkpt><trkpt lat="42.7161467" lon="-8.2881667"><ele>360.6666666666667</ele><time>2026-04-15T13:34:52.88Z</time></trkpt><trkpt lat="42.7160533" lon="-8.2883817"><ele>362.0</ele><time>2026-04-15T13:34:53.879Z</time></trkpt><trkpt lat="42.71596" lon="-8.2886067"><ele>361.0</ele><time>2026-04-15T13:34:54.88Z</time></trkpt><trkpt lat="42.71587" lon="-8.2888317"><ele>360.0</ele><time>2026-04-15T13:34:55.879Z</time></trkpt><trkpt lat="42.715785" lon="-8.2890567"><ele>359.0</ele><time>2026-04-15T13:34:56.879Z</time></trkpt><trkpt lat="42.715695" lon="-8.2892767"><ele>359.0</ele><time>2026-04-15T13:34:57.879Z</time></trkpt><trkpt lat="42.7156033" lon="-8.2895083"><ele>359.0</ele><time>2026-04-15T13:34:58.88Z</time></trkpt><trkpt lat="42.7155033" lon="-8.2897483"><ele>359.0</ele><time>2026-04-15T13:34:59.88Z</time></trkpt><trkpt lat="42.7154033" lon="-8.2899833"><ele>359.0</ele><time>2026-04-15T13:35:00.879Z</time></trkpt><trkpt lat="42.7153017" lon="-8.29023"><ele>359.0</ele><time>2026-04-15T13:35:01.88Z</time></trkpt><trkpt lat="42.7151883" lon="-8.2904833"><ele>359.0</ele><time>2026-04-15T13:35:02.88Z</time></trkpt><trkpt lat="42.7150817" lon="-8.2907383"><ele>359.33333333333337</ele><time>2026-04-15T13:35:03.879Z</time></trkpt><trkpt lat="42.71497" lon="-8.2909917"><ele>359.6666666666667</ele><time>2026-04-15T13:35:04.88Z</time></trkpt><trkpt lat="42.7148733" lon="-8.2912433"><ele>360.0</ele><time>2026-04-15T13:35:05.88Z</time></trkpt><trkpt lat="42.714775" lon="-8.291485"><ele>360.6666666666667</ele><time>2026-04-15T13:35:06.88Z</time></trkpt><trkpt lat="42.714665" lon="-8.2917133"><ele>361.33333333333337</ele><time>2026-04-15T13:35:07.879Z</time></trkpt><trkpt lat="42.7145417" lon="-8.2919283"><ele>362.0</ele><time>2026-04-15T13:35:08.88Z</time></trkpt><trkpt lat="42.7144083" lon="-8.2921233"><ele>360.33333333333337</ele><time>2026-04-15T13:35:09.88Z</time></trkpt><trkpt lat="42.714275" lon="-8.2923267"><ele>358.6666666666667</ele><time>2026-04-15T13:35:10.879Z</time></trkpt><trkpt lat="42.7141233" lon="-8.2925133"><ele>357.0</ele><time>2026-04-15T13:35:11.879Z</time></trkpt><trkpt lat="42.7139617" lon="-8.2926817"><ele>357.0</ele><time>2026-04-15T13:35:12.879Z</time></trkpt><trkpt lat="42.71379" lon="-8.2928333"><ele>357.0</ele><time>2026-04-15T13:35:13.879Z</time></trkpt><trkpt lat="42.7136117" lon="-8.2929667"><ele>357.0</ele><time>2026-04-15T13:35:14.88Z</time></trkpt><trkpt lat="42.71343" lon="-8.2930833"><ele>358.3333333333333</ele><time>2026-04-15T13:35:15.88Z</time></trkpt><trkpt lat="42.7132433" lon="-8.2931833"><ele>359.66666666666663</ele><time>2026-04-15T13:35:16.88Z</time></trkpt><trkpt lat="42.7130583" lon="-8.293265"><ele>361.0</ele><time>2026-04-15T13:35:17.879Z</time></trkpt><trkpt lat="42.7128767" lon="-8.2933433"><ele>362.0</ele><time>2026-04-15T13:35:18.88Z</time></trkpt><trkpt lat="42.7126883" lon="-8.2934217"><ele>363.0</ele><time>2026-04-15T13:35:19.879Z</time></trkpt><trkpt lat="42.71251" lon="-8.2935083"><ele>364.0</ele><time>2026-04-15T13:35:20.879Z</time></trkpt><trkpt lat="42.712325" lon="-8.2935867"><ele>364.0</ele><time>2026-04-15T13:35:21.879Z</time></trkpt><trkpt lat="42.7121417" lon="-8.293675"><ele>364.0</ele><time>2026-04-15T13:35:22.879Z</time></trkpt><trkpt lat="42.7119583" lon="-8.2937583"><ele>364.0</ele><time>2026-04-15T13:35:23.879Z</time></trkpt><trkpt lat="42.711775" lon="-8.2938467"><ele>368.66666666666663</ele><time>2026-04-15T13:35:24.88Z</time></trkpt><trkpt lat="42.7115933" lon="-8.2939317"><ele>373.3333333333333</ele><time>2026-04-15T13:35:25.88Z</time></trkpt><trkpt lat="42.711415" lon="-8.2940083"><ele>378.0</ele><time>2026-04-15T13:35:26.88Z</time></trkpt><trkpt lat="42.71123" lon="-8.2941"><ele>377.6666666666667</ele><time>2026-04-15T13:35:27.879Z</time></trkpt><trkpt lat="42.71104" lon="-8.29418"><ele>377.33333333333337</ele><time>2026-04-15T13:35:28.88Z</time></trkpt><trkpt lat="42.7108533" lon="-8.29427"><ele>377.0</ele><time>2026-04-15T13:35:29.879Z</time></trkpt><trkpt lat="42.7106683" lon="-8.294355"><ele>377.0</ele><time>2026-04-15T13:35:30.88Z</time></trkpt><trkpt lat="42.7104833" lon="-8.29443"><ele>377.0</ele><time>2026-04-15T13:35:31.88Z</time></trkpt><trkpt lat="42.7102967" lon="-8.294515"><ele>377.0</ele><time>2026-04-15T13:35:32.88Z</time></trkpt><trkpt lat="42.7101017" lon="-8.2945967"><ele>376.33333333333337</ele><time>2026-04-15T13:35:33.88Z</time></trkpt><trkpt lat="42.7099133" lon="-8.2946933"><ele>375.6666666666667</ele><time>2026-04-15T13:35:34.88Z</time></trkpt><trkpt lat="42.7097267" lon="-8.2948"><ele>375.0</ele><time>2026-04-15T13:35:35.88Z</time></trkpt><trkpt lat="42.7095483" lon="-8.2949117"><ele>377.3333333333333</ele><time>2026-04-15T13:35:36.88Z</time></trkpt><trkpt lat="42.7093733" lon="-8.2950483"><ele>379.66666666666663</ele><time>2026-04-15T13:35:37.879Z</time></trkpt><trkpt lat="42.7092067" lon="-8.2951883"><ele>382.0</ele><time>2026-04-15T13:35:38.88Z</time></trkpt><trkpt lat="42.70904" lon="-8.2953417"><ele>382.0</ele><time>2026-04-15T13:35:39.879Z</time></trkpt><trkpt lat="42.7088783" lon="-8.2954983"><ele>382.0</ele><time>2026-04-15T13:35:40.88Z</time></trkpt><trkpt lat="42.7087233" lon="-8.2956783"><ele>382.0</ele><time>2026-04-15T13:35:41.879Z</time></trkpt><trkpt lat="42.7085717" lon="-8.29587"><ele>382.66666666666663</ele><time>2026-04-15T13:35:42.879Z</time></trkpt><trkpt lat="42.7084333" lon="-8.2960733"><ele>383.3333333333333</ele><time>2026-04-15T13:35:43.88Z</time></trkpt><trkpt lat="42.708305" lon="-8.29628"><ele>384.0</ele><time>2026-04-15T13:35:44.879Z</time></trkpt><trkpt lat="42.7081883" lon="-8.2965033"><ele>385.33333333333337</ele><time>2026-04-15T13:35:45.88Z</time></trkpt><trkpt lat="42.7080783" lon="-8.29673"><ele>386.6666666666667</ele><time>2026-04-15T13:35:46.879Z</time></trkpt><trkpt lat="42.7079717" lon="-8.2969617"><ele>388.0</ele><time>2026-04-15T13:35:47.879Z</time></trkpt><trkpt lat="42.70787" lon="-8.2971933"><ele>389.33333333333337</ele><time>2026-04-15T13:35:48.879Z</time></trkpt><trkpt lat="42.707775" lon="-8.2974267"><ele>390.66666666666663</ele><time>2026-04-15T13:35:49.879Z</time></trkpt><trkpt lat="42.7076933" lon="-8.2976733"><ele>392.0</ele><time>2026-04-15T13:35:50.88Z</time></trkpt><trkpt lat="42.7076133" lon="-8.2979317"><ele>392.3333333333333</ele><time>2026-04-15T13:35:51.88Z</time></trkpt><trkpt lat="42.70755" lon="-8.2981867"><ele>392.66666666666663</ele><time>2026-04-15T13:35:52.879Z</time></trkpt><trkpt lat="42.70749" lon="-8.2984433"><ele>393.0</ele><time>2026-04-15T13:35:53.879Z</time></trkpt><trkpt lat="42.7074283" lon="-8.2987"><ele>393.33333333333337</ele><time>2026-04-15T13:35:54.88Z</time></trkpt><trkpt lat="42.70737" lon="-8.2989617"><ele>393.6666666666667</ele><time>2026-04-15T13:35:55.879Z</time></trkpt><trkpt lat="42.707305" lon="-8.2992167"><ele>394.0</ele><time>2026-04-15T13:35:56.879Z</time></trkpt><trkpt lat="42.7072367" lon="-8.2994717"><ele>394.0</ele><time>2026-04-15T13:35:57.88Z</time></trkpt><trkpt lat="42.7071733" lon="-8.2997417"><ele>394.0</ele><time>2026-04-15T13:35:58.88Z</time></trkpt><trkpt lat="42.7071083" lon="-8.2999983"><ele>394.0</ele><time>2026-04-15T13:35:59.879Z</time></trkpt><trkpt lat="42.707045" lon="-8.30026"><ele>394.6666666666667</ele><time>2026-04-15T13:36:00.879Z</time></trkpt><trkpt lat="42.7069867" lon="-8.300525"><ele>395.33333333333337</ele><time>2026-04-15T13:36:01.879Z</time></trkpt><trkpt lat="42.70693" lon="-8.3008"><ele>396.0</ele><time>2026-04-15T13:36:02.88Z</time></trkpt><trkpt lat="42.70687" lon="-8.3010683"><ele>395.33333333333337</ele><time>2026-04-15T13:36:03.879Z</time></trkpt><trkpt lat="42.7068017" lon="-8.3013433"><ele>394.6666666666667</ele><time>2026-04-15T13:36:04.88Z</time></trkpt><trkpt lat="42.7067267" lon="-8.3016217"><ele>394.0</ele><time>2026-04-15T13:36:05.879Z</time></trkpt><trkpt lat="42.7066517" lon="-8.3018983"><ele>394.0</ele><time>2026-04-15T13:36:06.88Z</time></trkpt><trkpt lat="42.70658" lon="-8.3021717"><ele>394.0</ele><time>2026-04-15T13:36:07.88Z</time></trkpt><trkpt lat="42.7065183" lon="-8.3024517"><ele>394.0</ele><time>2026-04-15T13:36:08.879Z</time></trkpt><trkpt lat="42.7064467" lon="-8.3027167"><ele>394.33333333333337</ele><time>2026-04-15T13:36:09.88Z</time></trkpt><trkpt lat="42.70638" lon="-8.302995"><ele>394.66666666666663</ele><time>2026-04-15T13:36:10.88Z</time></trkpt><trkpt lat="42.70632" lon="-8.30326"><ele>395.0</ele><time>2026-04-15T13:36:11.88Z</time></trkpt><trkpt lat="42.7062633" lon="-8.3035283"><ele>396.0</ele><time>2026-04-15T13:36:12.88Z</time></trkpt><trkpt lat="42.7062017" lon="-8.303775"><ele>397.0</ele><time>2026-04-15T13:36:13.88Z</time></trkpt><trkpt lat="42.7061417" lon="-8.3040367"><ele>398.0</ele><time>2026-04-15T13:36:14.879Z</time></trkpt><trkpt lat="42.70608" lon="-8.3042967"><ele>398.66666666666663</ele><time>2026-04-15T13:36:15.879Z</time></trkpt><trkpt lat="42.706015" lon="-8.3045467"><ele>399.33333333333337</ele><time>2026-04-15T13:36:16.88Z</time></trkpt><trkpt lat="42.7059483" lon="-8.304805"><ele>400.0</ele><time>2026-04-15T13:36:17.88Z</time></trkpt><trkpt lat="42.7058883" lon="-8.3050667"><ele>401.33333333333337</ele><time>2026-04-15T13:36:18.879Z</time></trkpt><trkpt lat="42.7058233" lon="-8.3053283"><ele>402.66666666666663</ele><time>2026-04-15T13:36:19.88Z</time></trkpt><trkpt lat="42.70575" lon="-8.3055917"><ele>404.0</ele><time>2026-04-15T13:36:20.879Z</time></trkpt><trkpt lat="42.7056783" lon="-8.3058567"><ele>406.0</ele><time>2026-04-15T13:36:21.879Z</time></trkpt><trkpt lat="42.7056117" lon="-8.306125"><ele>408.0</ele><time>2026-04-15T13:36:22.88Z</time></trkpt><trkpt lat="42.7055467" lon="-8.30639"><ele>410.0</ele><time>2026-04-15T13:36:23.88Z</time></trkpt><trkpt lat="42.70549" lon="-8.30665"><ele>413.3333333333333</ele><time>2026-04-15T13:36:24.88Z</time></trkpt><trkpt lat="42.70543" lon="-8.30692"><ele>416.66666666666663</ele><time>2026-04-15T13:36:25.879Z</time></trkpt><trkpt lat="42.7053633" lon="-8.30719"><ele>420.0</ele><time>2026-04-15T13:36:26.879Z</time></trkpt><trkpt lat="42.7052883" lon="-8.3074633"><ele>420.0</ele><time>2026-04-15T13:36:27.879Z</time></trkpt><trkpt lat="42.705215" lon="-8.3077433"><ele>420.0</ele><time>2026-04-15T13:36:28.88Z</time></trkpt><trkpt lat="42.7051467" lon="-8.3080233"><ele>420.0</ele><time>2026-04-15T13:36:29.879Z</time></trkpt><trkpt lat="42.705075" lon="-8.3083033"><ele>422.33333333333337</ele><time>2026-04-15T13:36:30.879Z</time></trkpt><trkpt lat="42.705005" lon="-8.308585"><ele>424.6666666666667</ele><time>2026-04-15T13:36:31.88Z</time></trkpt><trkpt lat="42.7049283" lon="-8.30886"><ele>427.0</ele><time>2026-04-15T13:36:32.879Z</time></trkpt><trkpt lat="42.7048583" lon="-8.3091283"><ele>429.6666666666667</ele><time>2026-04-15T13:36:33.879Z</time></trkpt><trkpt lat="42.7047617" lon="-8.3093833"><ele>432.33333333333337</ele><time>2026-04-15T13:36:34.88Z</time></trkpt><trkpt lat="42.7046433" lon="-8.309615"><ele>435.0</ele><time>2026-04-15T13:36:35.88Z</time></trkpt><trkpt lat="42.7045133" lon="-8.3098317"><ele>435.0</ele><time>2026-04-15T13:36:36.879Z</time></trkpt><trkpt lat="42.7043633" lon="-8.310025"><ele>435.0</ele><time>2026-04-15T13:36:37.879Z</time></trkpt><trkpt lat="42.7041933" lon="-8.3102"><ele>435.0</ele><time>2026-04-15T13:36:38.88Z</time></trkpt><trkpt lat="42.7040167" lon="-8.3103517"><ele>435.0</ele><time>2026-04-15T13:36:39.88Z</time></trkpt><trkpt lat="42.703825" lon="-8.3104917"><ele>435.0</ele><time>2026-04-15T13:36:40.879Z</time></trkpt><trkpt lat="42.7036317" lon="-8.310605"><ele>435.0</ele><time>2026-04-15T13:36:41.879Z</time></trkpt><trkpt lat="42.7034283" lon="-8.3107067"><ele>438.0</ele><time>2026-04-15T13:36:42.879Z</time></trkpt><trkpt lat="42.703225" lon="-8.31081"><ele>441.0</ele><time>2026-04-15T13:36:43.88Z</time></trkpt><trkpt lat="42.70302" lon="-8.310905"><ele>444.0</ele><time>2026-04-15T13:36:44.88Z</time></trkpt><trkpt lat="42.7028183" lon="-8.31101"><ele>444.33333333333337</ele><time>2026-04-15T13:36:45.879Z</time></trkpt><trkpt lat="42.70262" lon="-8.31112"><ele>444.6666666666667</ele><time>2026-04-15T13:36:46.88Z</time></trkpt><trkpt lat="42.7024183" lon="-8.3112433"><ele>445.0</ele><time>2026-04-15T13:36:47.879Z</time></trkpt><trkpt lat="42.7022267" lon="-8.3113817"><ele>447.6666666666667</ele><time>2026-04-15T13:36:48.879Z</time></trkpt><trkpt lat="42.7020533" lon="-8.3115333"><ele>450.33333333333337</ele><time>2026-04-15T13:36:49.879Z</time></trkpt><trkpt lat="42.7018933" lon="-8.311715"><ele>453.0</ele><time>2026-04-15T13:36:50.879Z</time></trkpt><trkpt lat="42.7017517" lon="-8.31191"><ele>453.0</ele><time>2026-04-15T13:36:51.879Z</time></trkpt><trkpt lat="42.7016333" lon="-8.31214"><ele>453.0</ele><time>2026-04-15T13:36:52.879Z</time></trkpt><trkpt lat="42.701525" lon="-8.312385"><ele>453.0</ele><time>2026-04-15T13:36:53.879Z</time></trkpt><trkpt lat="42.7014433" lon="-8.31265"><ele>457.0</ele><time>2026-04-15T13:36:54.88Z</time></trkpt><trkpt lat="42.7013667" lon="-8.31291"><ele>461.0</ele><time>2026-04-15T13:36:55.88Z</time></trkpt><trkpt lat="42.7012983" lon="-8.3131733"><ele>465.0</ele><time>2026-04-15T13:36:56.879Z</time></trkpt><trkpt lat="42.7012167" lon="-8.313445"><ele>466.0</ele><time>2026-04-15T13:36:57.879Z</time></trkpt><trkpt lat="42.7011233" lon="-8.313715"><ele>467.0</ele><time>2026-04-15T13:36:58.88Z</time></trkpt><trkpt lat="42.7010133" lon="-8.3139717"><ele>468.0</ele><time>2026-04-15T13:36:59.88Z</time></trkpt><trkpt lat="42.70089" lon="-8.314215"><ele>468.0</ele><time>2026-04-15T13:37:00.879Z</time></trkpt><trkpt lat="42.70076" lon="-8.3144533"><ele>468.0</ele><time>2026-04-15T13:37:01.88Z</time></trkpt><trkpt lat="42.7006167" lon="-8.314675"><ele>468.0</ele><time>2026-04-15T13:37:02.879Z</time></trkpt><trkpt lat="42.70047" lon="-8.3148917"><ele>469.33333333333337</ele><time>2026-04-15T13:37:03.879Z</time></trkpt><trkpt lat="42.7003233" lon="-8.31511"><ele>470.6666666666667</ele><time>2026-04-15T13:37:04.88Z</time></trkpt><trkpt lat="42.70019" lon="-8.315335"><ele>472.0</ele><time>2026-04-15T13:37:05.88Z</time></trkpt><trkpt lat="42.700055" lon="-8.3155717"><ele>474.6666666666667</ele><time>2026-04-15T13:37:06.88Z</time></trkpt><trkpt lat="42.6999317" lon="-8.3158183"><ele>477.33333333333337</ele><time>2026-04-15T13:37:07.879Z</time></trkpt><trkpt lat="42.6998317" lon="-8.31607"><ele>480.0</ele><time>2026-04-15T13:37:08.88Z</time></trkpt><trkpt lat="42.6997517" lon="-8.3163283"><ele>483.0</ele><time>2026-04-15T13:37:09.879Z</time></trkpt><trkpt lat="42.6996717" lon="-8.316585"><ele>486.0</ele><time>2026-04-15T13:37:10.88Z</time></trkpt><trkpt lat="42.69959" lon="-8.316845"><ele>489.0</ele><time>2026-04-15T13:37:11.879Z</time></trkpt><trkpt lat="42.6995133" lon="-8.3171083"><ele>489.66666666666663</ele><time>2026-04-15T13:37:12.879Z</time></trkpt><trkpt lat="42.6994383" lon="-8.3173717"><ele>490.3333333333333</ele><time>2026-04-15T13:37:13.879Z</time></trkpt><trkpt lat="42.6993633" lon="-8.3176367"><ele>491.0</ele><time>2026-04-15T13:37:14.879Z</time></trkpt><trkpt lat="42.6992883" lon="-8.3179033"><ele>490.0</ele><time>2026-04-15T13:37:15.88Z</time></trkpt><trkpt lat="42.6992067" lon="-8.3181817"><ele>489.0</ele><time>2026-04-15T13:37:16.879Z</time></trkpt><trkpt lat="42.69912" lon="-8.3184783"><ele>489.0</ele><time>2026-04-15T13:37:17.88Z</time></trkpt><trkpt lat="42.6990167" lon="-8.3188017"><ele>489.0</ele><time>2026-04-15T13:37:18.879Z</time></trkpt><trkpt lat="42.6989167" lon="-8.3191333"><ele>490.0</ele><time>2026-04-15T13:37:19.88Z</time></trkpt><trkpt lat="42.6988383" lon="-8.3194483"><ele>491.0</ele><time>2026-04-15T13:37:20.879Z</time></trkpt><trkpt lat="42.6987633" lon="-8.3197617"><ele>494.5</ele><time>2026-04-15T13:37:21.879Z</time></trkpt><trkpt lat="42.6986967" lon="-8.320075"><ele>498.0</ele><time>2026-04-15T13:37:22.88Z</time></trkpt><trkpt lat="42.6986433" lon="-8.32039"><ele>499.0</ele><time>2026-04-15T13:37:23.879Z</time></trkpt><trkpt lat="42.698605" lon="-8.320695"><ele>500.0</ele><time>2026-04-15T13:37:24.879Z</time></trkpt><trkpt lat="42.6985833" lon="-8.321005"><ele>502.5</ele><time>2026-04-15T13:37:25.88Z</time></trkpt><trkpt lat="42.69857" lon="-8.32132"><ele>505.0</ele><time>2026-04-15T13:37:26.879Z</time></trkpt><trkpt lat="42.6985467" lon="-8.32163"><ele>507.5</ele><time>2026-04-15T13:37:27.879Z</time></trkpt><trkpt lat="42.6985067" lon="-8.321945"><ele>510.0</ele><time>2026-04-15T13:37:28.879Z</time></trkpt><trkpt lat="42.69845" lon="-8.3222583"><ele>514.0</ele><time>2026-04-15T13:37:29.88Z</time></trkpt><trkpt lat="42.698385" lon="-8.3225733"><ele>518.0</ele><time>2026-04-15T13:37:30.88Z</time></trkpt><trkpt lat="42.6982983" lon="-8.3228833"><ele>518.0</ele><time>2026-04-15T13:37:31.879Z</time></trkpt><trkpt lat="42.6981833" lon="-8.3231817"><ele>518.0</ele><time>2026-04-15T13:37:32.879Z</time></trkpt><trkpt lat="42.6980533" lon="-8.3234683"><ele>518.0</ele><time>2026-04-15T13:37:33.879Z</time></trkpt><trkpt lat="42.6979117" lon="-8.3237467"><ele>518.0</ele><time>2026-04-15T13:37:34.88Z</time></trkpt><trkpt lat="42.6977717" lon="-8.324015"><ele>522.0</ele><time>2026-04-15T13:37:35.88Z</time></trkpt><trkpt lat="42.6976433" lon="-8.3242883"><ele>526.0</ele><time>2026-04-15T13:37:36.879Z</time></trkpt><trkpt lat="42.6975183" lon="-8.3245667"><ele>527.0</ele><time>2026-04-15T13:37:37.88Z</time></trkpt><trkpt lat="42.697415" lon="-8.3248467"><ele>528.0</ele><time>2026-04-15T13:37:38.88Z</time></trkpt><trkpt lat="42.6973417" lon="-8.3251417"><ele>528.0</ele><time>2026-04-15T13:37:39.88Z</time></trkpt><trkpt lat="42.69729" lon="-8.3254467"><ele>528.0</ele><time>2026-04-15T13:37:40.88Z</time></trkpt><trkpt lat="42.6972567" lon="-8.3257567"><ele>532.0</ele><time>2026-04-15T13:37:41.879Z</time></trkpt><trkpt lat="42.697265" lon="-8.3260667"><ele>536.0</ele><time>2026-04-15T13:37:42.88Z</time></trkpt><trkpt lat="42.6973033" lon="-8.3263867"><ele>538.0</ele><time>2026-04-15T13:37:43.88Z</time></trkpt><trkpt lat="42.6973667" lon="-8.3267017"><ele>540.0</ele><time>2026-04-15T13:37:44.88Z</time></trkpt><trkpt lat="42.697445" lon="-8.32701"><ele>545.5</ele><time>2026-04-15T13:37:45.879Z</time></trkpt><trkpt lat="42.697535" lon="-8.3273133"><ele>551.0</ele><time>2026-04-15T13:37:46.88Z</time></trkpt><trkpt lat="42.697625" lon="-8.3276217"><ele>551.0</ele><time>2026-04-15T13:37:47.88Z</time></trkpt><trkpt lat="42.6977133" lon="-8.3279433"><ele>551.0</ele><time>2026-04-15T13:37:48.879Z</time></trkpt><trkpt lat="42.6977833" lon="-8.3282717"><ele>545.0</ele><time>2026-04-15T13:37:49.879Z</time></trkpt><trkpt lat="42.6978467" lon="-8.3286117"><ele>539.0</ele><time>2026-04-15T13:37:50.879Z</time></trkpt><trkpt lat="42.697885" lon="-8.3289433"><ele>539.0</ele><time>2026-04-15T13:37:51.879Z</time></trkpt><trkpt lat="42.6979067" lon="-8.329275"><ele>539.0</ele><time>2026-04-15T13:37:52.88Z</time></trkpt><trkpt lat="42.6979083" lon="-8.3295983"><ele>542.0</ele><time>2026-04-15T13:37:53.88Z</time></trkpt><trkpt lat="42.69789" lon="-8.3299183"><ele>545.0</ele><time>2026-04-15T13:37:54.879Z</time></trkpt><trkpt lat="42.6978783" lon="-8.3302333"><ele>545.0</ele><time>2026-04-15T13:37:55.88Z</time></trkpt><trkpt lat="42.697865" lon="-8.330545"><ele>545.0</ele><time>2026-04-15T13:37:56.879Z</time></trkpt><trkpt lat="42.6978683" lon="-8.3308517"><ele>548.5</ele><time>2026-04-15T13:37:57.879Z</time></trkpt><trkpt lat="42.69789" lon="-8.3311667"><ele>552.0</ele><time>2026-04-15T13:37:58.879Z</time></trkpt><trkpt lat="42.697925" lon="-8.3314783"><ele>558.0</ele><time>2026-04-15T13:37:59.88Z</time></trkpt><trkpt lat="42.6979983" lon="-8.3317667"><ele>564.0</ele><time>2026-04-15T13:38:00.88Z</time></trkpt><trkpt lat="42.6980933" lon="-8.3320567"><ele>569.5</ele><time>2026-04-15T13:38:01.88Z</time></trkpt><trkpt lat="42.6982033" lon="-8.33234"><ele>575.0</ele><time>2026-04-15T13:38:02.88Z</time></trkpt><trkpt lat="42.6983133" lon="-8.33261"><ele>575.0</ele><time>2026-04-15T13:38:03.88Z</time></trkpt><trkpt lat="42.6984183" lon="-8.3328883"><ele>575.0</ele><time>2026-04-15T13:38:04.88Z</time></trkpt><trkpt lat="42.6984933" lon="-8.333175"><ele>579.3333333333333</ele><time>2026-04-15T13:38:05.88Z</time></trkpt><trkpt lat="42.6985533" lon="-8.3334683"><ele>583.6666666666666</ele><time>2026-04-15T13:38:06.88Z</time></trkpt><trkpt lat="42.69858" lon="-8.333765"><ele>588.0</ele><time>2026-04-15T13:38:07.879Z</time></trkpt><trkpt lat="42.69858" lon="-8.33406"><ele>590.0</ele><time>2026-04-15T13:38:08.88Z</time></trkpt><trkpt lat="42.6985583" lon="-8.3343667"><ele>592.0</ele><time>2026-04-15T13:38:09.88Z</time></trkpt><trkpt lat="42.6985167" lon="-8.3346717"><ele>589.0</ele><time>2026-04-15T13:38:10.879Z</time></trkpt><trkpt lat="42.698455" lon="-8.3349683"><ele>586.0</ele><time>2026-04-15T13:38:11.88Z</time></trkpt><trkpt lat="42.6983817" lon="-8.3352633"><ele>586.0</ele><time>2026-04-15T13:38:12.88Z</time></trkpt><trkpt lat="42.6983133" lon="-8.3355433"><ele>586.0</ele><time>2026-04-15T13:38:13.879Z</time></trkpt><trkpt lat="42.6982517" lon="-8.3358233"><ele>586.0</ele><time>2026-04-15T13:38:14.879Z</time></trkpt><trkpt lat="42.698215" lon="-8.3360983"><ele>583.6666666666667</ele><time>2026-04-15T13:38:15.88Z</time></trkpt><trkpt lat="42.6982" lon="-8.3363767"><ele>581.3333333333334</ele><time>2026-04-15T13:38:16.879Z</time></trkpt><trkpt lat="42.6982017" lon="-8.3366633"><ele>579.0</ele><time>2026-04-15T13:38:17.88Z</time></trkpt><trkpt lat="42.698225" lon="-8.3369467"><ele>577.3333333333334</ele><time>2026-04-15T13:38:18.879Z</time></trkpt><trkpt lat="42.6982717" lon="-8.3372317"><ele>575.6666666666667</ele><time>2026-04-15T13:38:19.879Z</time></trkpt><trkpt lat="42.6983517" lon="-8.3375117"><ele>574.0</ele><time>2026-04-15T13:38:20.879Z</time></trkpt><trkpt lat="42.6984667" lon="-8.3377467"><ele>573.3333333333334</ele><time>2026-04-15T13:38:21.88Z</time></trkpt><trkpt lat="42.69859" lon="-8.3379733"><ele>572.6666666666666</ele><time>2026-04-15T13:38:22.88Z</time></trkpt><trkpt lat="42.6987333" lon="-8.3381767"><ele>572.0</ele><time>2026-04-15T13:38:23.88Z</time></trkpt><trkpt lat="42.6988967" lon="-8.3383583"><ele>575.6666666666666</ele><time>2026-04-15T13:38:24.88Z</time></trkpt><trkpt lat="42.699075" lon="-8.338515"><ele>579.3333333333334</ele><time>2026-04-15T13:38:25.88Z</time></trkpt><trkpt lat="42.69926" lon="-8.338645"><ele>583.0</ele><time>2026-04-15T13:38:26.879Z</time></trkpt><trkpt lat="42.6994583" lon="-8.3387583"><ele>583.0</ele><time>2026-04-15T13:38:27.879Z</time></trkpt><trkpt lat="42.699665" lon="-8.3388567"><ele>583.0</ele><time>2026-04-15T13:38:28.88Z</time></trkpt><trkpt lat="42.6998833" lon="-8.3389467"><ele>583.0</ele><time>2026-04-15T13:38:29.88Z</time></trkpt><trkpt lat="42.7000983" lon="-8.339065"><ele>586.5</ele><time>2026-04-15T13:38:30.879Z</time></trkpt><trkpt lat="42.7003133" lon="-8.3392033"><ele>590.0</ele><time>2026-04-15T13:38:31.88Z</time></trkpt><trkpt lat="42.7005167" lon="-8.3393667"><ele>590.0</ele><time>2026-04-15T13:38:32.879Z</time></trkpt><trkpt lat="42.7007167" lon="-8.3395467"><ele>590.0</ele><time>2026-04-15T13:38:33.88Z</time></trkpt><trkpt lat="42.700915" lon="-8.3397533"><ele>593.0</ele><time>2026-04-15T13:38:34.879Z</time></trkpt><trkpt lat="42.7011067" lon="-8.3399483"><ele>596.0</ele><time>2026-04-15T13:38:35.879Z</time></trkpt><trkpt lat="42.7012917" lon="-8.3401483"><ele>596.0</ele><time>2026-04-15T13:38:36.88Z</time></trkpt><trkpt lat="42.7014733" lon="-8.34034"><ele>596.0</ele><time>2026-04-15T13:38:37.88Z</time></trkpt><trkpt lat="42.7016633" lon="-8.3405333"><ele>601.0</ele><time>2026-04-15T13:38:38.88Z</time></trkpt><trkpt lat="42.7018533" lon="-8.3407317"><ele>606.0</ele><time>2026-04-15T13:38:39.879Z</time></trkpt><trkpt lat="42.702035" lon="-8.34092"><ele>606.0</ele><time>2026-04-15T13:38:40.88Z</time></trkpt><trkpt lat="42.702215" lon="-8.3410983"><ele>606.0</ele><time>2026-04-15T13:38:41.879Z</time></trkpt><trkpt lat="42.7023967" lon="-8.3412717"><ele>606.0</ele><time>2026-04-15T13:38:42.88Z</time></trkpt><trkpt lat="42.70257" lon="-8.341445"><ele>608.3333333333334</ele><time>2026-04-15T13:38:43.879Z</time></trkpt><trkpt lat="42.70274" lon="-8.3416167"><ele>610.6666666666667</ele><time>2026-04-15T13:38:44.879Z</time></trkpt><trkpt lat="42.7029033" lon="-8.3417933"><ele>613.0</ele><time>2026-04-15T13:38:45.879Z</time></trkpt><trkpt lat="42.703075" lon="-8.3419717"><ele>613.0</ele><time>2026-04-15T13:38:46.88Z</time></trkpt><trkpt lat="42.7032467" lon="-8.34214"><ele>613.0</ele><time>2026-04-15T13:38:47.88Z</time></trkpt><trkpt lat="42.7034217" lon="-8.34231"><ele>613.0</ele><time>2026-04-15T13:38:48.88Z</time></trkpt><trkpt lat="42.7036033" lon="-8.34249"><ele>614.3333333333334</ele><time>2026-04-15T13:38:49.879Z</time></trkpt><trkpt lat="42.7037767" lon="-8.3426683"><ele>615.6666666666666</ele><time>2026-04-15T13:38:50.88Z</time></trkpt><trkpt lat="42.7039533" lon="-8.3428633"><ele>617.0</ele><time>2026-04-15T13:38:51.88Z</time></trkpt><trkpt lat="42.7041317" lon="-8.3430467"><ele>617.0</ele><time>2026-04-15T13:38:52.88Z</time></trkpt><trkpt lat="42.704315" lon="-8.34323"><ele>617.0</ele><time>2026-04-15T13:38:53.879Z</time></trkpt><trkpt lat="42.7044983" lon="-8.343425"><ele>617.0</ele><time>2026-04-15T13:38:54.879Z</time></trkpt><trkpt lat="42.70467" lon="-8.3436117"><ele>617.0</ele><time>2026-04-15T13:38:55.88Z</time></trkpt><trkpt lat="42.7048467" lon="-8.3437933"><ele>617.0</ele><time>2026-04-15T13:38:56.879Z</time></trkpt><trkpt lat="42.7050217" lon="-8.3439733"><ele>617.6666666666666</ele><time>2026-04-15T13:38:57.879Z</time></trkpt><trkpt lat="42.7051967" lon="-8.344145"><ele>618.3333333333334</ele><time>2026-04-15T13:38:58.88Z</time></trkpt><trkpt lat="42.7053667" lon="-8.344325"><ele>619.0</ele><time>2026-04-15T13:38:59.88Z</time></trkpt><trkpt lat="42.7055433" lon="-8.344505"><ele>619.0</ele><time>2026-04-15T13:39:00.879Z</time></trkpt><trkpt lat="42.7057233" lon="-8.3446883"><ele>619.0</ele><time>2026-04-15T13:39:01.879Z</time></trkpt><trkpt lat="42.7059017" lon="-8.3448583"><ele>619.0</ele><time>2026-04-15T13:39:02.879Z</time></trkpt><trkpt lat="42.7060867" lon="-8.345045"><ele>618.6666666666667</ele><time>2026-04-15T13:39:03.88Z</time></trkpt><trkpt lat="42.7062617" lon="-8.3452333"><ele>618.3333333333334</ele><time>2026-04-15T13:39:04.879Z</time></trkpt><trkpt lat="42.7064283" lon="-8.345425"><ele>618.0</ele><time>2026-04-15T13:39:05.879Z</time></trkpt><trkpt lat="42.706605" lon="-8.3456183"><ele>619.6666666666666</ele><time>2026-04-15T13:39:06.88Z</time></trkpt><trkpt lat="42.7067733" lon="-8.3457983"><ele>621.3333333333333</ele><time>2026-04-15T13:39:07.88Z</time></trkpt><trkpt lat="42.70694" lon="-8.3459767"><ele>623.0</ele><time>2026-04-15T13:39:08.879Z</time></trkpt><trkpt lat="42.7071083" lon="-8.34616"><ele>623.0</ele><time>2026-04-15T13:39:09.88Z</time></trkpt><trkpt lat="42.7072833" lon="-8.346335"><ele>623.0</ele><time>2026-04-15T13:39:10.879Z</time></trkpt><trkpt lat="42.707455" lon="-8.3465167"><ele>623.0</ele><time>2026-04-15T13:39:11.879Z</time></trkpt><trkpt lat="42.7076217" lon="-8.3466883"><ele>623.0</ele><time>2026-04-15T13:39:12.879Z</time></trkpt><trkpt lat="42.7077917" lon="-8.34686"><ele>623.0</ele><time>2026-04-15T13:39:13.879Z</time></trkpt><trkpt lat="42.7079617" lon="-8.347035"><ele>623.0</ele><time>2026-04-15T13:39:14.88Z</time></trkpt><trkpt lat="42.7081217" lon="-8.3472117"><ele>621.6666666666666</ele><time>2026-04-15T13:39:15.879Z</time></trkpt><trkpt lat="42.7082867" lon="-8.347405"><ele>620.3333333333334</ele><time>2026-04-15T13:39:16.879Z</time></trkpt><trkpt lat="42.7084417" lon="-8.3476167"><ele>619.0</ele><time>2026-04-15T13:39:17.88Z</time></trkpt><trkpt lat="42.708585" lon="-8.347845"><ele>615.0</ele><time>2026-04-15T13:39:18.88Z</time></trkpt><trkpt lat="42.7087167" lon="-8.34809"><ele>611.0</ele><time>2026-04-15T13:39:19.879Z</time></trkpt><trkpt lat="42.708845" lon="-8.3483433"><ele>607.0</ele><time>2026-04-15T13:39:20.88Z</time></trkpt><trkpt lat="42.708945" lon="-8.34861"><ele>605.6666666666667</ele><time>2026-04-15T13:39:21.879Z</time></trkpt><trkpt lat="42.7090267" lon="-8.3488817"><ele>604.3333333333334</ele><time>2026-04-15T13:39:22.879Z</time></trkpt><trkpt lat="42.7091083" lon="-8.349165"><ele>603.0</ele><time>2026-04-15T13:39:23.88Z</time></trkpt><trkpt lat="42.709185" lon="-8.34944"><ele>603.3333333333334</ele><time>2026-04-15T13:39:24.879Z</time></trkpt><trkpt lat="42.70925" lon="-8.34973"><ele>603.6666666666667</ele><time>2026-04-15T13:39:25.88Z</time></trkpt><trkpt lat="42.709315" lon="-8.3499917"><ele>604.0</ele><time>2026-04-15T13:39:26.88Z</time></trkpt><trkpt lat="42.7093917" lon="-8.3502733"><ele>600.0</ele><time>2026-04-15T13:39:27.879Z</time></trkpt><trkpt lat="42.7094833" lon="-8.3505517"><ele>596.0</ele><time>2026-04-15T13:39:28.88Z</time></trkpt><trkpt lat="42.709565" lon="-8.3508567"><ele>596.0</ele><time>2026-04-15T13:39:29.879Z</time></trkpt><trkpt lat="42.7096417" lon="-8.3511517"><ele>596.0</ele><time>2026-04-15T13:39:30.88Z</time></trkpt><trkpt lat="42.709715" lon="-8.3514317"><ele>596.0</ele><time>2026-04-15T13:39:31.879Z</time></trkpt><trkpt lat="42.7097933" lon="-8.3517083"><ele>596.3333333333333</ele><time>2026-04-15T13:39:32.879Z</time></trkpt><trkpt lat="42.7098767" lon="-8.3519767"><ele>596.6666666666666</ele><time>2026-04-15T13:39:33.88Z</time></trkpt><trkpt lat="42.7099483" lon="-8.3522483"><ele>597.0</ele><time>2026-04-15T13:39:34.88Z</time></trkpt><trkpt lat="42.71002" lon="-8.35252"><ele>597.0</ele><time>2026-04-15T13:39:35.88Z</time></trkpt><trkpt lat="42.710095" lon="-8.3527833"><ele>597.0</ele><time>2026-04-15T13:39:36.881Z</time></trkpt><trkpt lat="42.710175" lon="-8.3530517"><ele>597.0</ele><time>2026-04-15T13:39:37.881Z</time></trkpt><trkpt lat="42.7102483" lon="-8.35332"><ele>595.6666666666666</ele><time>2026-04-15T13:39:38.881Z</time></trkpt><trkpt lat="42.710315" lon="-8.353585"><ele>594.3333333333333</ele><time>2026-04-15T13:39:39.88Z</time></trkpt><trkpt lat="42.7103917" lon="-8.3538567"><ele>593.0</ele><time>2026-04-15T13:39:40.88Z</time></trkpt><trkpt lat="42.71047" lon="-8.35412"><ele>593.0</ele><time>2026-04-15T13:39:41.88Z</time></trkpt><trkpt lat="42.710545" lon="-8.354395"><ele>593.0</ele><time>2026-04-15T13:39:42.881Z</time></trkpt><trkpt lat="42.7106117" lon="-8.3546817"><ele>593.0</ele><time>2026-04-15T13:39:43.88Z</time></trkpt><trkpt lat="42.7106783" lon="-8.35496"><ele>592.6666666666666</ele><time>2026-04-15T13:39:44.881Z</time></trkpt><trkpt lat="42.7107367" lon="-8.3552517"><ele>592.3333333333334</ele><time>2026-04-15T13:39:45.88Z</time></trkpt><trkpt lat="42.7107783" lon="-8.355545"><ele>592.0</ele><time>2026-04-15T13:39:46.88Z</time></trkpt><trkpt lat="42.71081" lon="-8.3558283"><ele>591.3333333333334</ele><time>2026-04-15T13:39:47.881Z</time></trkpt><trkpt lat="42.710825" lon="-8.3561133"><ele>590.6666666666666</ele><time>2026-04-15T13:39:48.881Z</time></trkpt><trkpt lat="42.710855" lon="-8.3564033"><ele>590.0</ele><time>2026-04-15T13:39:49.88Z</time></trkpt><trkpt lat="42.71089" lon="-8.3566983"><ele>589.6666666666666</ele><time>2026-04-15T13:39:50.88Z</time></trkpt><trkpt lat="42.7109417" lon="-8.35699"><ele>589.3333333333334</ele><time>2026-04-15T13:39:51.88Z</time></trkpt><trkpt lat="42.71101" lon="-8.357265"><ele>589.0</ele><time>2026-04-15T13:39:52.88Z</time></trkpt><trkpt lat="42.7110983" lon="-8.35753"><ele>586.0</ele><time>2026-04-15T13:39:53.881Z</time></trkpt><trkpt lat="42.71122" lon="-8.357775"><ele>583.0</ele><time>2026-04-15T13:39:54.881Z</time></trkpt><trkpt lat="42.7113517" lon="-8.3580033"><ele>580.0</ele><time>2026-04-15T13:39:55.88Z</time></trkpt><trkpt lat="42.7115083" lon="-8.358195"><ele>580.0</ele><time>2026-04-15T13:39:56.88Z</time></trkpt><trkpt lat="42.7116867" lon="-8.3583717"><ele>580.0</ele><time>2026-04-15T13:39:57.88Z</time></trkpt><trkpt lat="42.7118717" lon="-8.358525"><ele>580.0</ele><time>2026-04-15T13:39:58.881Z</time></trkpt><trkpt lat="42.7120633" lon="-8.3586467"><ele>580.3333333333334</ele><time>2026-04-15T13:39:59.881Z</time></trkpt><trkpt lat="42.7122583" lon="-8.3587467"><ele>580.6666666666666</ele><time>2026-04-15T13:40:00.881Z</time></trkpt><trkpt lat="42.7124633" lon="-8.3588333"><ele>581.0</ele><time>2026-04-15T13:40:01.88Z</time></trkpt><trkpt lat="42.7126683" lon="-8.3589217"><ele>577.3333333333333</ele><time>2026-04-15T13:40:02.881Z</time></trkpt><trkpt lat="42.7128683" lon="-8.3590067"><ele>573.6666666666666</ele><time>2026-04-15T13:40:03.88Z</time></trkpt><trkpt lat="42.713065" lon="-8.3591033"><ele>570.0</ele><time>2026-04-15T13:40:04.88Z</time></trkpt><trkpt lat="42.7132617" lon="-8.359195"><ele>570.0</ele><time>2026-04-15T13:40:05.88Z</time></trkpt><trkpt lat="42.7134567" lon="-8.3592883"><ele>570.0</ele><time>2026-04-15T13:40:06.881Z</time></trkpt><trkpt lat="42.7136433" lon="-8.3593933"><ele>570.0</ele><time>2026-04-15T13:40:07.88Z</time></trkpt><trkpt lat="42.7138233" lon="-8.3595267"><ele>568.6666666666666</ele><time>2026-04-15T13:40:08.88Z</time></trkpt><trkpt lat="42.713995" lon="-8.3596667"><ele>567.3333333333333</ele><time>2026-04-15T13:40:09.88Z</time></trkpt><trkpt lat="42.7141567" lon="-8.3598383"><ele>566.0</ele><time>2026-04-15T13:40:10.88Z</time></trkpt><trkpt lat="42.7143067" lon="-8.36004"><ele>560.0</ele><time>2026-04-15T13:40:11.88Z</time></trkpt><trkpt lat="42.714425" lon="-8.3602717"><ele>554.0</ele><time>2026-04-15T13:40:12.88Z</time></trkpt><trkpt lat="42.7145317" lon="-8.3605167"><ele>548.0</ele><time>2026-04-15T13:40:13.88Z</time></trkpt><trkpt lat="42.7146283" lon="-8.3607783"><ele>548.0</ele><time>2026-04-15T13:40:14.881Z</time></trkpt><trkpt lat="42.714715" lon="-8.3610467"><ele>548.0</ele><time>2026-04-15T13:40:15.88Z</time></trkpt><trkpt lat="42.7147933" lon="-8.3612983"><ele>548.0</ele><time>2026-04-15T13:40:16.88Z</time></trkpt><trkpt lat="42.714865" lon="-8.361555"><ele>550.0</ele><time>2026-04-15T13:40:17.88Z</time></trkpt><trkpt lat="42.7149283" lon="-8.3618033"><ele>552.0</ele><time>2026-04-15T13:40:18.88Z</time></trkpt><trkpt lat="42.7149783" lon="-8.36207"><ele>554.0</ele><time>2026-04-15T13:40:19.88Z</time></trkpt><trkpt lat="42.7150067" lon="-8.362335"><ele>554.0</ele><time>2026-04-15T13:40:20.88Z</time></trkpt><trkpt lat="42.7150267" lon="-8.3626"><ele>554.0</ele><time>2026-04-15T13:40:21.88Z</time></trkpt><trkpt lat="42.7150317" lon="-8.3628683"><ele>554.0</ele><time>2026-04-15T13:40:22.88Z</time></trkpt><trkpt lat="42.7150433" lon="-8.3631617"><ele>552.0</ele><time>2026-04-15T13:40:23.88Z</time></trkpt><trkpt lat="42.7150433" lon="-8.3634417"><ele>550.0</ele><time>2026-04-15T13:40:24.881Z</time></trkpt><trkpt lat="42.7150383" lon="-8.3637183"><ele>548.0</ele><time>2026-04-15T13:40:25.881Z</time></trkpt><trkpt lat="42.7150333" lon="-8.364005"><ele>546.6666666666666</ele><time>2026-04-15T13:40:26.88Z</time></trkpt><trkpt lat="42.715035" lon="-8.36429"><ele>545.3333333333334</ele><time>2026-04-15T13:40:27.88Z</time></trkpt><trkpt lat="42.71504" lon="-8.3645867"><ele>544.0</ele><time>2026-04-15T13:40:28.88Z</time></trkpt><trkpt lat="42.7150383" lon="-8.3648783"><ele>543.0</ele><time>2026-04-15T13:40:29.881Z</time></trkpt><trkpt lat="42.71503" lon="-8.3651667"><ele>542.0</ele><time>2026-04-15T13:40:30.88Z</time></trkpt><trkpt lat="42.7150267" lon="-8.365445"><ele>541.0</ele><time>2026-04-15T13:40:31.88Z</time></trkpt><trkpt lat="42.7150183" lon="-8.3657233"><ele>539.6666666666667</ele><time>2026-04-15T13:40:32.88Z</time></trkpt><trkpt lat="42.7149967" lon="-8.365995"><ele>538.3333333333334</ele><time>2026-04-15T13:40:33.881Z</time></trkpt><trkpt lat="42.7149533" lon="-8.3662633"><ele>537.0</ele><time>2026-04-15T13:40:34.88Z</time></trkpt><trkpt lat="42.714885" lon="-8.366515"><ele>536.3333333333334</ele><time>2026-04-15T13:40:35.881Z</time></trkpt><trkpt lat="42.7147983" lon="-8.366755"><ele>535.6666666666667</ele><time>2026-04-15T13:40:36.88Z</time></trkpt><trkpt lat="42.7146917" lon="-8.36698"><ele>535.0</ele><time>2026-04-15T13:40:37.88Z</time></trkpt><trkpt lat="42.7145667" lon="-8.3672"><ele>532.0</ele><time>2026-04-15T13:40:38.88Z</time></trkpt><trkpt lat="42.7144333" lon="-8.3674067"><ele>529.0</ele><time>2026-04-15T13:40:39.88Z</time></trkpt><trkpt lat="42.7142867" lon="-8.367605"><ele>526.0</ele><time>2026-04-15T13:40:40.88Z</time></trkpt><trkpt lat="42.71413" lon="-8.367795"><ele>526.0</ele><time>2026-04-15T13:40:41.88Z</time></trkpt><trkpt lat="42.7139817" lon="-8.3679883"><ele>526.0</ele><time>2026-04-15T13:40:42.881Z</time></trkpt><trkpt lat="42.7138367" lon="-8.3681817"><ele>526.0</ele><time>2026-04-15T13:40:43.881Z</time></trkpt><trkpt lat="42.7136933" lon="-8.3683867"><ele>525.3333333333334</ele><time>2026-04-15T13:40:44.881Z</time></trkpt><trkpt lat="42.7135483" lon="-8.36858"><ele>524.6666666666666</ele><time>2026-04-15T13:40:45.88Z</time></trkpt><trkpt lat="42.71341" lon="-8.3687917"><ele>524.0</ele><time>2026-04-15T13:40:46.88Z</time></trkpt><trkpt lat="42.7132783" lon="-8.36901"><ele>520.3333333333333</ele><time>2026-04-15T13:40:47.88Z</time></trkpt><trkpt lat="42.7131817" lon="-8.3692467"><ele>516.6666666666666</ele><time>2026-04-15T13:40:48.88Z</time></trkpt><trkpt lat="42.713105" lon="-8.3694983"><ele>513.0</ele><time>2026-04-15T13:40:49.881Z</time></trkpt><trkpt lat="42.7130433" lon="-8.36975"><ele>510.66666666666663</ele><time>2026-04-15T13:40:50.88Z</time></trkpt><trkpt lat="42.7130133" lon="-8.3700167"><ele>508.3333333333333</ele><time>2026-04-15T13:40:51.88Z</time></trkpt><trkpt lat="42.7130017" lon="-8.3702833"><ele>506.0</ele><time>2026-04-15T13:40:52.88Z</time></trkpt><trkpt lat="42.71301" lon="-8.3705533"><ele>506.0</ele><time>2026-04-15T13:40:53.88Z</time></trkpt><trkpt lat="42.7130433" lon="-8.3708217"><ele>506.0</ele><time>2026-04-15T13:40:54.881Z</time></trkpt><trkpt lat="42.7130983" lon="-8.3710783"><ele>506.0</ele><time>2026-04-15T13:40:55.881Z</time></trkpt><trkpt lat="42.7131667" lon="-8.3713283"><ele>507.0</ele><time>2026-04-15T13:40:56.88Z</time></trkpt><trkpt lat="42.7132467" lon="-8.3715733"><ele>508.0</ele><time>2026-04-15T13:40:57.881Z</time></trkpt><trkpt lat="42.7133483" lon="-8.3718033"><ele>509.0</ele><time>2026-04-15T13:40:58.881Z</time></trkpt><trkpt lat="42.7134683" lon="-8.3720133"><ele>505.66666666666663</ele><time>2026-04-15T13:40:59.881Z</time></trkpt><trkpt lat="42.7135917" lon="-8.3722183"><ele>502.33333333333337</ele><time>2026-04-15T13:41:00.88Z</time></trkpt><trkpt lat="42.7137383" lon="-8.3724133"><ele>499.0</ele><time>2026-04-15T13:41:01.88Z</time></trkpt><trkpt lat="42.71388" lon="-8.372615"><ele>499.0</ele><time>2026-04-15T13:41:02.88Z</time></trkpt><trkpt lat="42.714015" lon="-8.3728267"><ele>499.0</ele><time>2026-04-15T13:41:03.881Z</time></trkpt><trkpt lat="42.7141367" lon="-8.3730383"><ele>499.0</ele><time>2026-04-15T13:41:04.88Z</time></trkpt><trkpt lat="42.71423" lon="-8.373275"><ele>498.0</ele><time>2026-04-15T13:41:05.881Z</time></trkpt><trkpt lat="42.7143033" lon="-8.373525"><ele>497.0</ele><time>2026-04-15T13:41:06.881Z</time></trkpt><trkpt lat="42.7143617" lon="-8.3737683"><ele>496.0</ele><time>2026-04-15T13:41:07.881Z</time></trkpt><trkpt lat="42.7144017" lon="-8.3740333"><ele>495.0</ele><time>2026-04-15T13:41:08.88Z</time></trkpt><trkpt lat="42.7144283" lon="-8.3742983"><ele>494.0</ele><time>2026-04-15T13:41:09.881Z</time></trkpt><trkpt lat="42.7144217" lon="-8.3745617"><ele>493.0</ele><time>2026-04-15T13:41:10.88Z</time></trkpt><trkpt lat="42.714395" lon="-8.374815"><ele>493.0</ele><time>2026-04-15T13:41:11.881Z</time></trkpt><trkpt lat="42.7143417" lon="-8.3750567"><ele>493.0</ele><time>2026-04-15T13:41:12.881Z</time></trkpt><trkpt lat="42.7142767" lon="-8.3752967"><ele>493.0</ele><time>2026-04-15T13:41:13.881Z</time></trkpt><trkpt lat="42.7141933" lon="-8.375535"><ele>489.6666666666667</ele><time>2026-04-15T13:41:14.881Z</time></trkpt><trkpt lat="42.7140967" lon="-8.37576"><ele>486.33333333333337</ele><time>2026-04-15T13:41:15.88Z</time></trkpt><trkpt lat="42.7139933" lon="-8.3759883"><ele>483.0</ele><time>2026-04-15T13:41:16.881Z</time></trkpt><trkpt lat="42.713885" lon="-8.3762133"><ele>478.66666666666663</ele><time>2026-04-15T13:41:17.881Z</time></trkpt><trkpt lat="42.713785" lon="-8.3764417"><ele>474.3333333333333</ele><time>2026-04-15T13:41:18.881Z</time></trkpt><trkpt lat="42.7136917" lon="-8.376685"><ele>470.0</ele><time>2026-04-15T13:41:19.88Z</time></trkpt><trkpt lat="42.713615" lon="-8.3769367"><ele>474.3333333333333</ele><time>2026-04-15T13:41:20.88Z</time></trkpt><trkpt lat="42.71355" lon="-8.377195"><ele>478.66666666666663</ele><time>2026-04-15T13:41:21.88Z</time></trkpt><trkpt lat="42.7134917" lon="-8.3774583"><ele>483.0</ele><time>2026-04-15T13:41:22.881Z</time></trkpt><trkpt lat="42.7134433" lon="-8.3777417"><ele>483.0</ele><time>2026-04-15T13:41:23.881Z</time></trkpt><trkpt lat="42.71339" lon="-8.3780167"><ele>483.0</ele><time>2026-04-15T13:41:24.881Z</time></trkpt><trkpt lat="42.7133233" lon="-8.378275"><ele>483.0</ele><time>2026-04-15T13:41:25.881Z</time></trkpt><trkpt lat="42.71324" lon="-8.3785267"><ele>480.66666666666663</ele><time>2026-04-15T13:41:26.88Z</time></trkpt><trkpt lat="42.7131433" lon="-8.37877"><ele>478.3333333333333</ele><time>2026-04-15T13:41:27.88Z</time></trkpt><trkpt lat="42.71303" lon="-8.3790083"><ele>476.0</ele><time>2026-04-15T13:41:28.881Z</time></trkpt><trkpt lat="42.71292" lon="-8.3792467"><ele>475.0</ele><time>2026-04-15T13:41:29.881Z</time></trkpt><trkpt lat="42.7128" lon="-8.37948"><ele>474.0</ele><time>2026-04-15T13:41:30.881Z</time></trkpt><trkpt lat="42.7126933" lon="-8.3797217"><ele>473.0</ele><time>2026-04-15T13:41:31.88Z</time></trkpt><trkpt lat="42.712605" lon="-8.379975"><ele>473.0</ele><time>2026-04-15T13:41:32.88Z</time></trkpt><trkpt lat="42.7125267" lon="-8.3802317"><ele>473.0</ele><time>2026-04-15T13:41:33.881Z</time></trkpt><trkpt lat="42.712465" lon="-8.3804983"><ele>473.0</ele><time>2026-04-15T13:41:34.881Z</time></trkpt><trkpt lat="42.7124267" lon="-8.3807683"><ele>469.0</ele><time>2026-04-15T13:41:35.881Z</time></trkpt><trkpt lat="42.7123967" lon="-8.3810417"><ele>465.0</ele><time>2026-04-15T13:41:36.881Z</time></trkpt><trkpt lat="42.7123617" lon="-8.3813167"><ele>461.0</ele><time>2026-04-15T13:41:37.88Z</time></trkpt><trkpt lat="42.7123133" lon="-8.3815917"><ele>457.0</ele><time>2026-04-15T13:41:38.881Z</time></trkpt><trkpt lat="42.7122483" lon="-8.3818583"><ele>453.0</ele><time>2026-04-15T13:41:39.88Z</time></trkpt><trkpt lat="42.7121767" lon="-8.3821183"><ele>449.0</ele><time>2026-04-15T13:41:40.88Z</time></trkpt><trkpt lat="42.712085" lon="-8.3823717"><ele>449.0</ele><time>2026-04-15T13:41:41.881Z</time></trkpt><trkpt lat="42.711985" lon="-8.3826183"><ele>449.0</ele><time>2026-04-15T13:41:42.881Z</time></trkpt><trkpt lat="42.7118817" lon="-8.3828633"><ele>449.0</ele><time>2026-04-15T13:41:43.881Z</time></trkpt><trkpt lat="42.7117683" lon="-8.3830983"><ele>449.0</ele><time>2026-04-15T13:41:44.88Z</time></trkpt><trkpt lat="42.7116633" lon="-8.383335"><ele>449.0</ele><time>2026-04-15T13:41:45.881Z</time></trkpt><trkpt lat="42.71155" lon="-8.3835533"><ele>449.0</ele><time>2026-04-15T13:41:46.881Z</time></trkpt><trkpt lat="42.7114467" lon="-8.3837633"><ele>444.0</ele><time>2026-04-15T13:41:47.881Z</time></trkpt><trkpt lat="42.71133" lon="-8.3839633"><ele>439.0</ele><time>2026-04-15T13:41:48.881Z</time></trkpt><trkpt lat="42.7112167" lon="-8.3841683"><ele>434.0</ele><time>2026-04-15T13:41:49.88Z</time></trkpt><trkpt lat="42.711095" lon="-8.38437"><ele>434.3333333333333</ele><time>2026-04-15T13:41:50.881Z</time></trkpt><trkpt lat="42.7109467" lon="-8.3845467"><ele>434.66666666666663</ele><time>2026-04-15T13:41:51.881Z</time></trkpt><trkpt lat="42.7107917" lon="-8.3847183"><ele>435.0</ele><time>2026-04-15T13:41:52.881Z</time></trkpt><trkpt lat="42.710625" lon="-8.3848633"><ele>435.0</ele><time>2026-04-15T13:41:53.88Z</time></trkpt><trkpt lat="42.7104517" lon="-8.3849983"><ele>435.0</ele><time>2026-04-15T13:41:54.881Z</time></trkpt><trkpt lat="42.7102617" lon="-8.3851233"><ele>435.0</ele><time>2026-04-15T13:41:55.88Z</time></trkpt><trkpt lat="42.710075" lon="-8.3852433"><ele>434.66666666666663</ele><time>2026-04-15T13:41:56.88Z</time></trkpt><trkpt lat="42.70989" lon="-8.3853633"><ele>434.3333333333333</ele><time>2026-04-15T13:41:57.88Z</time></trkpt><trkpt lat="42.7097167" lon="-8.3854833"><ele>434.0</ele><time>2026-04-15T13:41:58.88Z</time></trkpt><trkpt lat="42.7095517" lon="-8.3856167"><ele>429.66666666666663</ele><time>2026-04-15T13:41:59.88Z</time></trkpt><trkpt lat="42.7094" lon="-8.3857733"><ele>425.33333333333337</ele><time>2026-04-15T13:42:00.881Z</time></trkpt><trkpt lat="42.709255" lon="-8.38596"><ele>421.0</ele><time>2026-04-15T13:42:01.88Z</time></trkpt><trkpt lat="42.7091417" lon="-8.38618"><ele>418.0</ele><time>2026-04-15T13:42:02.881Z</time></trkpt><trkpt lat="42.7090183" lon="-8.3864117"><ele>415.0</ele><time>2026-04-15T13:42:03.88Z</time></trkpt><trkpt lat="42.7089117" lon="-8.3866617"><ele>412.0</ele><time>2026-04-15T13:42:04.88Z</time></trkpt><trkpt lat="42.70884" lon="-8.3869433"><ele>410.33333333333337</ele><time>2026-04-15T13:42:05.88Z</time></trkpt><trkpt lat="42.7087967" lon="-8.3872367"><ele>408.66666666666663</ele><time>2026-04-15T13:42:06.88Z</time></trkpt><trkpt lat="42.7087767" lon="-8.387535"><ele>407.0</ele><time>2026-04-15T13:42:07.881Z</time></trkpt><trkpt lat="42.708775" lon="-8.387835"><ele>406.3333333333333</ele><time>2026-04-15T13:42:08.88Z</time></trkpt><trkpt lat="42.708775" lon="-8.38814"><ele>405.66666666666663</ele><time>2026-04-15T13:42:09.881Z</time></trkpt><trkpt lat="42.7087767" lon="-8.388445"><ele>405.0</ele><time>2026-04-15T13:42:10.88Z</time></trkpt><trkpt lat="42.7087733" lon="-8.3887433"><ele>403.66666666666663</ele><time>2026-04-15T13:42:11.88Z</time></trkpt><trkpt lat="42.7087583" lon="-8.38904"><ele>402.3333333333333</ele><time>2026-04-15T13:42:12.881Z</time></trkpt><trkpt lat="42.7087317" lon="-8.3893333"><ele>401.0</ele><time>2026-04-15T13:42:13.881Z</time></trkpt><trkpt lat="42.7086933" lon="-8.3896267"><ele>402.0</ele><time>2026-04-15T13:42:14.881Z</time></trkpt><trkpt lat="42.708645" lon="-8.3899217"><ele>403.0</ele><time>2026-04-15T13:42:15.88Z</time></trkpt><trkpt lat="42.7086133" lon="-8.3902033"><ele>404.0</ele><time>2026-04-15T13:42:16.881Z</time></trkpt><trkpt lat="42.7085667" lon="-8.3904967"><ele>401.66666666666663</ele><time>2026-04-15T13:42:17.88Z</time></trkpt><trkpt lat="42.7085383" lon="-8.390785"><ele>399.33333333333337</ele><time>2026-04-15T13:42:18.881Z</time></trkpt><trkpt lat="42.7084967" lon="-8.3910833"><ele>397.0</ele><time>2026-04-15T13:42:19.881Z</time></trkpt><trkpt lat="42.70845" lon="-8.391375"><ele>394.33333333333337</ele><time>2026-04-15T13:42:20.88Z</time></trkpt><trkpt lat="42.7084033" lon="-8.3916683"><ele>391.66666666666663</ele><time>2026-04-15T13:42:21.88Z</time></trkpt><trkpt lat="42.7083483" lon="-8.3919617"><ele>389.0</ele><time>2026-04-15T13:42:22.88Z</time></trkpt><trkpt lat="42.7083033" lon="-8.3922533"><ele>387.0</ele><time>2026-04-15T13:42:23.88Z</time></trkpt><trkpt lat="42.7082533" lon="-8.3925483"><ele>385.0</ele><time>2026-04-15T13:42:24.881Z</time></trkpt><trkpt lat="42.708195" lon="-8.3928467"><ele>383.0</ele><time>2026-04-15T13:42:25.881Z</time></trkpt><trkpt lat="42.7081383" lon="-8.3931267"><ele>382.0</ele><time>2026-04-15T13:42:26.88Z</time></trkpt><trkpt lat="42.7080867" lon="-8.393405"><ele>381.0</ele><time>2026-04-15T13:42:27.88Z</time></trkpt><trkpt lat="42.7080217" lon="-8.3936617"><ele>380.0</ele><time>2026-04-15T13:42:28.88Z</time></trkpt><trkpt lat="42.7079517" lon="-8.3939133"><ele>380.33333333333337</ele><time>2026-04-15T13:42:29.881Z</time></trkpt><trkpt lat="42.7078617" lon="-8.394165"><ele>380.6666666666667</ele><time>2026-04-15T13:42:30.88Z</time></trkpt><trkpt lat="42.7077467" lon="-8.3944067"><ele>381.0</ele><time>2026-04-15T13:42:31.88Z</time></trkpt><trkpt lat="42.7076283" lon="-8.3946333"><ele>377.6666666666667</ele><time>2026-04-15T13:42:32.881Z</time></trkpt><trkpt lat="42.707505" lon="-8.3948683"><ele>374.33333333333337</ele><time>2026-04-15T13:42:33.88Z</time></trkpt><trkpt lat="42.7073767" lon="-8.3950983"><ele>371.0</ele><time>2026-04-15T13:42:34.88Z</time></trkpt><trkpt lat="42.707255" lon="-8.3953317"><ele>372.33333333333337</ele><time>2026-04-15T13:42:35.88Z</time></trkpt><trkpt lat="42.70713" lon="-8.3955617"><ele>373.6666666666667</ele><time>2026-04-15T13:42:36.88Z</time></trkpt><trkpt lat="42.7070133" lon="-8.3957883"><ele>375.0</ele><time>2026-04-15T13:42:37.88Z</time></trkpt><trkpt lat="42.70689" lon="-8.396015"><ele>375.0</ele><time>2026-04-15T13:42:38.881Z</time></trkpt><trkpt lat="42.7067717" lon="-8.39625"><ele>375.0</ele><time>2026-04-15T13:42:39.88Z</time></trkpt><trkpt lat="42.7066633" lon="-8.396475"><ele>375.0</ele><time>2026-04-15T13:42:40.881Z</time></trkpt><trkpt lat="42.706555" lon="-8.3967017"><ele>372.6666666666667</ele><time>2026-04-15T13:42:41.88Z</time></trkpt><trkpt lat="42.706445" lon="-8.396925"><ele>370.33333333333337</ele><time>2026-04-15T13:42:42.88Z</time></trkpt><trkpt lat="42.7063333" lon="-8.3971433"><ele>368.0</ele><time>2026-04-15T13:42:43.88Z</time></trkpt><trkpt lat="42.70622" lon="-8.3973617"><ele>367.6666666666667</ele><time>2026-04-15T13:42:44.881Z</time></trkpt><trkpt lat="42.7061067" lon="-8.3975767"><ele>367.3333333333333</ele><time>2026-04-15T13:42:45.881Z</time></trkpt><trkpt lat="42.7059933" lon="-8.3977917"><ele>367.0</ele><time>2026-04-15T13:42:46.881Z</time></trkpt><trkpt lat="42.7058833" lon="-8.3980033"><ele>365.0</ele><time>2026-04-15T13:42:47.88Z</time></trkpt><trkpt lat="42.705785" lon="-8.3982133"><ele>363.0</ele><time>2026-04-15T13:42:48.881Z</time></trkpt><trkpt lat="42.7056917" lon="-8.3984217"><ele>361.0</ele><time>2026-04-15T13:42:49.88Z</time></trkpt><trkpt lat="42.705615" lon="-8.39863"><ele>359.0</ele><time>2026-04-15T13:42:50.881Z</time></trkpt><trkpt lat="42.705545" lon="-8.398855"><ele>357.0</ele><time>2026-04-15T13:42:51.881Z</time></trkpt><trkpt lat="42.7055133" lon="-8.3990767"><ele>355.0</ele><time>2026-04-15T13:42:52.88Z</time></trkpt><trkpt lat="42.705515" lon="-8.399305"><ele>355.0</ele><time>2026-04-15T13:42:53.88Z</time></trkpt><trkpt lat="42.7055333" lon="-8.399535"><ele>355.0</ele><time>2026-04-15T13:42:54.88Z</time></trkpt><trkpt lat="42.7055567" lon="-8.3997783"><ele>355.0</ele><time>2026-04-15T13:42:55.881Z</time></trkpt><trkpt lat="42.7055867" lon="-8.4000333"><ele>353.0</ele><time>2026-04-15T13:42:56.88Z</time></trkpt><trkpt lat="42.7056083" lon="-8.4002933"><ele>351.0</ele><time>2026-04-15T13:42:57.88Z</time></trkpt><trkpt lat="42.7056233" lon="-8.40056"><ele>349.0</ele><time>2026-04-15T13:42:58.88Z</time></trkpt><trkpt lat="42.7056383" lon="-8.40082"><ele>349.0</ele><time>2026-04-15T13:42:59.88Z</time></trkpt><trkpt lat="42.7056533" lon="-8.4010733"><ele>349.0</ele><time>2026-04-15T13:43:00.88Z</time></trkpt><trkpt lat="42.7056683" lon="-8.4013217"><ele>349.0</ele><time>2026-04-15T13:43:01.88Z</time></trkpt><trkpt lat="42.705685" lon="-8.4015683"><ele>349.0</ele><time>2026-04-15T13:43:02.881Z</time></trkpt><trkpt lat="42.7057033" lon="-8.4018183"><ele>349.0</ele><time>2026-04-15T13:43:03.881Z</time></trkpt><trkpt lat="42.70572" lon="-8.4020717"><ele>349.0</ele><time>2026-04-15T13:43:04.881Z</time></trkpt><trkpt lat="42.705735" lon="-8.4023217"><ele>349.66666666666663</ele><time>2026-04-15T13:43:05.881Z</time></trkpt><trkpt lat="42.70575" lon="-8.4025667"><ele>350.3333333333333</ele><time>2026-04-15T13:43:06.881Z</time></trkpt><trkpt lat="42.7057633" lon="-8.402815"><ele>351.0</ele><time>2026-04-15T13:43:07.88Z</time></trkpt><trkpt lat="42.705775" lon="-8.4030633"><ele>352.3333333333333</ele><time>2026-04-15T13:43:08.88Z</time></trkpt><trkpt lat="42.7057917" lon="-8.403305"><ele>353.66666666666663</ele><time>2026-04-15T13:43:09.88Z</time></trkpt><trkpt lat="42.7058083" lon="-8.4035433"><ele>355.0</ele><time>2026-04-15T13:43:10.881Z</time></trkpt><trkpt lat="42.7058217" lon="-8.40379"><ele>356.66666666666663</ele><time>2026-04-15T13:43:11.881Z</time></trkpt><trkpt lat="42.70583" lon="-8.4040417"><ele>358.3333333333333</ele><time>2026-04-15T13:43:12.881Z</time></trkpt><trkpt lat="42.7058433" lon="-8.4042883"><ele>360.0</ele><time>2026-04-15T13:43:13.881Z</time></trkpt><trkpt lat="42.7058567" lon="-8.4045367"><ele>361.3333333333333</ele><time>2026-04-15T13:43:14.881Z</time></trkpt><trkpt lat="42.705865" lon="-8.404785"><ele>362.66666666666663</ele><time>2026-04-15T13:43:15.88Z</time></trkpt><trkpt lat="42.7058733" lon="-8.4050333"><ele>364.0</ele><time>2026-04-15T13:43:16.88Z</time></trkpt><trkpt lat="42.7058933" lon="-8.4052783"><ele>364.3333333333333</ele><time>2026-04-15T13:43:17.88Z</time></trkpt><trkpt lat="42.7059117" lon="-8.4055233"><ele>364.6666666666667</ele><time>2026-04-15T13:43:18.88Z</time></trkpt><trkpt lat="42.7059383" lon="-8.40577"><ele>365.0</ele><time>2026-04-15T13:43:19.881Z</time></trkpt><trkpt lat="42.7059517" lon="-8.4060183"><ele>365.0</ele><time>2026-04-15T13:43:20.88Z</time></trkpt><trkpt lat="42.70598" lon="-8.406265"><ele>365.0</ele><time>2026-04-15T13:43:21.881Z</time></trkpt><trkpt lat="42.7060067" lon="-8.40651"><ele>365.0</ele><time>2026-04-15T13:43:22.881Z</time></trkpt><trkpt lat="42.7060383" lon="-8.406745"><ele>364.6666666666667</ele><time>2026-04-15T13:43:23.88Z</time></trkpt><trkpt lat="42.7060617" lon="-8.4069883"><ele>364.3333333333333</ele><time>2026-04-15T13:43:24.88Z</time></trkpt><trkpt lat="42.7060933" lon="-8.407215"><ele>364.0</ele><time>2026-04-15T13:43:25.88Z</time></trkpt><trkpt lat="42.70613" lon="-8.4074567"><ele>364.66666666666663</ele><time>2026-04-15T13:43:26.88Z</time></trkpt><trkpt lat="42.7061533" lon="-8.407715"><ele>365.3333333333333</ele><time>2026-04-15T13:43:27.88Z</time></trkpt><trkpt lat="42.7061867" lon="-8.4079667"><ele>366.0</ele><time>2026-04-15T13:43:28.881Z</time></trkpt><trkpt lat="42.7062167" lon="-8.4082217"><ele>366.0</ele><time>2026-04-15T13:43:29.88Z</time></trkpt><trkpt lat="42.7062517" lon="-8.4084533"><ele>366.0</ele><time>2026-04-15T13:43:30.88Z</time></trkpt><trkpt lat="42.70628" lon="-8.4086767"><ele>366.0</ele><time>2026-04-15T13:43:31.881Z</time></trkpt><trkpt lat="42.7063067" lon="-8.40892"><ele>365.3333333333333</ele><time>2026-04-15T13:43:32.881Z</time></trkpt><trkpt lat="42.70634" lon="-8.409145"><ele>364.66666666666663</ele><time>2026-04-15T13:43:33.881Z</time></trkpt><trkpt lat="42.7063733" lon="-8.4093917"><ele>364.0</ele><time>2026-04-15T13:43:34.88Z</time></trkpt><trkpt lat="42.7064033" lon="-8.4096483"><ele>363.66666666666663</ele><time>2026-04-15T13:43:35.881Z</time></trkpt><trkpt lat="42.7064367" lon="-8.4099133"><ele>363.3333333333333</ele><time>2026-04-15T13:43:36.88Z</time></trkpt><trkpt lat="42.706465" lon="-8.4101917"><ele>363.0</ele><time>2026-04-15T13:43:37.88Z</time></trkpt><trkpt lat="42.7065" lon="-8.410455"><ele>362.6666666666667</ele><time>2026-04-15T13:43:38.88Z</time></trkpt><trkpt lat="42.7065317" lon="-8.4107083"><ele>362.33333333333337</ele><time>2026-04-15T13:43:39.88Z</time></trkpt><trkpt lat="42.7065583" lon="-8.41095"><ele>362.0</ele><time>2026-04-15T13:43:40.88Z</time></trkpt><trkpt lat="42.70658" lon="-8.4112"><ele>361.0</ele><time>2026-04-15T13:43:41.88Z</time></trkpt><trkpt lat="42.7066017" lon="-8.4114883"><ele>360.0</ele><time>2026-04-15T13:43:42.881Z</time></trkpt><trkpt lat="42.7066383" lon="-8.4117817"><ele>359.0</ele><time>2026-04-15T13:43:43.881Z</time></trkpt><trkpt lat="42.7066817" lon="-8.4121067"><ele>357.0</ele><time>2026-04-15T13:43:44.881Z</time></trkpt><trkpt lat="42.7067167" lon="-8.4124183"><ele>355.0</ele><time>2026-04-15T13:43:45.88Z</time></trkpt><trkpt lat="42.7067467" lon="-8.41273"><ele>353.5</ele><time>2026-04-15T13:43:46.881Z</time></trkpt><trkpt lat="42.70677" lon="-8.4130533"><ele>352.0</ele><time>2026-04-15T13:43:47.88Z</time></trkpt><trkpt lat="42.70681" lon="-8.4133767"><ele>352.0</ele><time>2026-04-15T13:43:48.881Z</time></trkpt><trkpt lat="42.7068483" lon="-8.413685"><ele>352.0</ele><time>2026-04-15T13:43:49.881Z</time></trkpt><trkpt lat="42.7068783" lon="-8.4139867"><ele>350.0</ele><time>2026-04-15T13:43:50.881Z</time></trkpt><trkpt lat="42.70691" lon="-8.4142967"><ele>348.0</ele><time>2026-04-15T13:43:51.881Z</time></trkpt><trkpt lat="42.7069433" lon="-8.4145983"><ele>345.6666666666667</ele><time>2026-04-15T13:43:52.881Z</time></trkpt><trkpt lat="42.7069683" lon="-8.4148833"><ele>343.33333333333337</ele><time>2026-04-15T13:43:53.881Z</time></trkpt><trkpt lat="42.7070067" lon="-8.41517"><ele>341.0</ele><time>2026-04-15T13:43:54.88Z</time></trkpt><trkpt lat="42.70705" lon="-8.41546"><ele>341.0</ele><time>2026-04-15T13:43:55.881Z</time></trkpt><trkpt lat="42.70708" lon="-8.4157433"><ele>341.0</ele><time>2026-04-15T13:43:56.881Z</time></trkpt><trkpt lat="42.707115" lon="-8.4160183"><ele>341.0</ele><time>2026-04-15T13:43:57.88Z</time></trkpt><trkpt lat="42.7071467" lon="-8.41629"><ele>341.0</ele><time>2026-04-15T13:43:58.88Z</time></trkpt><trkpt lat="42.707185" lon="-8.4165717"><ele>341.0</ele><time>2026-04-15T13:43:59.88Z</time></trkpt><trkpt lat="42.70722" lon="-8.4168433"><ele>341.0</ele><time>2026-04-15T13:44:00.881Z</time></trkpt><trkpt lat="42.7072467" lon="-8.4171183"><ele>340.33333333333337</ele><time>2026-04-15T13:44:01.881Z</time></trkpt><trkpt lat="42.707265" lon="-8.41741"><ele>339.6666666666667</ele><time>2026-04-15T13:44:02.881Z</time></trkpt><trkpt lat="42.7072817" lon="-8.4176983"><ele>339.0</ele><time>2026-04-15T13:44:03.88Z</time></trkpt><trkpt lat="42.7073133" lon="-8.41797"><ele>337.6666666666667</ele><time>2026-04-15T13:44:04.881Z</time></trkpt><trkpt lat="42.7073433" lon="-8.4182483"><ele>336.33333333333337</ele><time>2026-04-15T13:44:05.881Z</time></trkpt><trkpt lat="42.707375" lon="-8.4185167"><ele>335.0</ele><time>2026-04-15T13:44:06.881Z</time></trkpt><trkpt lat="42.70741" lon="-8.4187733"><ele>333.6666666666667</ele><time>2026-04-15T13:44:07.88Z</time></trkpt><trkpt lat="42.70744" lon="-8.4190383"><ele>332.3333333333333</ele><time>2026-04-15T13:44:08.881Z</time></trkpt><trkpt lat="42.7074717" lon="-8.4193017"><ele>331.0</ele><time>2026-04-15T13:44:09.88Z</time></trkpt><trkpt lat="42.7074983" lon="-8.4195717"><ele>329.66666666666663</ele><time>2026-04-15T13:44:10.881Z</time></trkpt><trkpt lat="42.70751" lon="-8.4198233"><ele>328.3333333333333</ele><time>2026-04-15T13:44:11.881Z</time></trkpt><trkpt lat="42.7075" lon="-8.4200867"><ele>327.0</ele><time>2026-04-15T13:44:12.881Z</time></trkpt><trkpt lat="42.707455" lon="-8.4203467"><ele>327.3333333333333</ele><time>2026-04-15T13:44:13.881Z</time></trkpt><trkpt lat="42.707385" lon="-8.420595"><ele>327.66666666666663</ele><time>2026-04-15T13:44:14.88Z</time></trkpt><trkpt lat="42.7073017" lon="-8.4208483"><ele>328.0</ele><time>2026-04-15T13:44:15.88Z</time></trkpt><trkpt lat="42.7072133" lon="-8.4210783"><ele>328.0</ele><time>2026-04-15T13:44:16.88Z</time></trkpt><trkpt lat="42.70711" lon="-8.4212867"><ele>328.0</ele><time>2026-04-15T13:44:17.88Z</time></trkpt><trkpt lat="42.706985" lon="-8.4214817"><ele>328.0</ele><time>2026-04-15T13:44:18.881Z</time></trkpt><trkpt lat="42.70684" lon="-8.4216517"><ele>324.3333333333333</ele><time>2026-04-15T13:44:19.88Z</time></trkpt><trkpt lat="42.7066767" lon="-8.4218117"><ele>320.6666666666667</ele><time>2026-04-15T13:44:20.881Z</time></trkpt><trkpt lat="42.706515" lon="-8.42197"><ele>317.0</ele><time>2026-04-15T13:44:21.88Z</time></trkpt><trkpt lat="42.706345" lon="-8.422125"><ele>318.33333333333337</ele><time>2026-04-15T13:44:22.881Z</time></trkpt><trkpt lat="42.7061783" lon="-8.4222767"><ele>319.6666666666667</ele><time>2026-04-15T13:44:23.881Z</time></trkpt><trkpt lat="42.706015" lon="-8.422425"><ele>321.0</ele><time>2026-04-15T13:44:24.881Z</time></trkpt><trkpt lat="42.705855" lon="-8.42258"><ele>321.0</ele><time>2026-04-15T13:44:25.88Z</time></trkpt><trkpt lat="42.7056967" lon="-8.42272"><ele>321.0</ele><time>2026-04-15T13:44:26.881Z</time></trkpt><trkpt lat="42.7055433" lon="-8.4228567"><ele>321.0</ele><time>2026-04-15T13:44:27.88Z</time></trkpt><trkpt lat="42.705395" lon="-8.42299"><ele>319.0</ele><time>2026-04-15T13:44:28.881Z</time></trkpt><trkpt lat="42.705245" lon="-8.423125"><ele>317.0</ele><time>2026-04-15T13:44:29.881Z</time></trkpt><trkpt lat="42.7050933" lon="-8.4232567"><ele>315.0</ele><time>2026-04-15T13:44:30.881Z</time></trkpt><trkpt lat="42.7049433" lon="-8.4233967"><ele>315.0</ele><time>2026-04-15T13:44:31.88Z</time></trkpt><trkpt lat="42.7047917" lon="-8.42354"><ele>315.0</ele><time>2026-04-15T13:44:32.88Z</time></trkpt><trkpt lat="42.7046383" lon="-8.423685"><ele>315.0</ele><time>2026-04-15T13:44:33.88Z</time></trkpt><trkpt lat="42.7044867" lon="-8.423825"><ele>312.6666666666667</ele><time>2026-04-15T13:44:34.881Z</time></trkpt><trkpt lat="42.7043317" lon="-8.42396"><ele>310.33333333333337</ele><time>2026-04-15T13:44:35.88Z</time></trkpt><trkpt lat="42.7041683" lon="-8.4240967"><ele>308.0</ele><time>2026-04-15T13:44:36.88Z</time></trkpt><trkpt lat="42.7040117" lon="-8.42424"><ele>308.0</ele><time>2026-04-15T13:44:37.88Z</time></trkpt><trkpt lat="42.7038683" lon="-8.4243783"><ele>308.0</ele><time>2026-04-15T13:44:38.881Z</time></trkpt><trkpt lat="42.70373" lon="-8.4245117"><ele>308.0</ele><time>2026-04-15T13:44:39.881Z</time></trkpt><trkpt lat="42.7036117" lon="-8.4246183"><ele>307.75</ele><time>2026-04-15T13:44:40.88Z</time></trkpt><trkpt lat="42.703505" lon="-8.4247333"><ele>307.5</ele><time>2026-04-15T13:44:41.881Z</time></trkpt><trkpt lat="42.7033983" lon="-8.42483"><ele>307.25</ele><time>2026-04-15T13:44:42.88Z</time></trkpt><trkpt lat="42.7032917" lon="-8.42494"><ele>307.0</ele><time>2026-04-15T13:44:43.88Z</time></trkpt><trkpt lat="42.7031883" lon="-8.4250483"><ele>307.0</ele><time>2026-04-15T13:44:44.881Z</time></trkpt><trkpt lat="42.703075" lon="-8.425155"><ele>307.0</ele><time>2026-04-15T13:44:45.88Z</time></trkpt><trkpt lat="42.7029617" lon="-8.4252517"><ele>307.0</ele><time>2026-04-15T13:44:46.881Z</time></trkpt><trkpt lat="42.7028417" lon="-8.4253583"><ele>307.0</ele><time>2026-04-15T13:44:47.88Z</time></trkpt><trkpt lat="42.7027333" lon="-8.42547"><ele>306.25</ele><time>2026-04-15T13:44:48.881Z</time></trkpt><trkpt lat="42.702625" lon="-8.4255717"><ele>305.5</ele><time>2026-04-15T13:44:49.88Z</time></trkpt><trkpt lat="42.7025233" lon="-8.425665"><ele>304.75</ele><time>2026-04-15T13:44:50.88Z</time></trkpt><trkpt lat="42.7024167" lon="-8.42576"><ele>304.0</ele><time>2026-04-15T13:44:51.88Z</time></trkpt><trkpt lat="42.702315" lon="-8.4258583"><ele>304.0</ele><time>2026-04-15T13:44:52.88Z</time></trkpt><trkpt lat="42.7022167" lon="-8.4259517"><ele>304.0</ele><time>2026-04-15T13:44:53.88Z</time></trkpt><trkpt lat="42.7021083" lon="-8.426045"><ele>304.0</ele><time>2026-04-15T13:44:54.88Z</time></trkpt><trkpt lat="42.7020033" lon="-8.426145"><ele>304.0</ele><time>2026-04-15T13:44:55.881Z</time></trkpt><trkpt lat="42.7018867" lon="-8.426245"><ele>303.25</ele><time>2026-04-15T13:44:56.88Z</time></trkpt><trkpt lat="42.7017717" lon="-8.426355"><ele>302.5</ele><time>2026-04-15T13:44:57.881Z</time></trkpt><trkpt lat="42.70165" lon="-8.4264667"><ele>301.75</ele><time>2026-04-15T13:44:58.88Z</time></trkpt><trkpt lat="42.7015233" lon="-8.42659"><ele>301.0</ele><time>2026-04-15T13:44:59.881Z</time></trkpt><trkpt lat="42.7013883" lon="-8.4267133"><ele>301.0</ele><time>2026-04-15T13:45:00.881Z</time></trkpt><trkpt lat="42.70125" lon="-8.4268433"><ele>301.0</ele><time>2026-04-15T13:45:01.88Z</time></trkpt><trkpt lat="42.7011033" lon="-8.42698"><ele>301.0</ele><time>2026-04-15T13:45:02.881Z</time></trkpt><trkpt lat="42.7009467" lon="-8.42712"><ele>302.0</ele><time>2026-04-15T13:45:03.88Z</time></trkpt><trkpt lat="42.7007867" lon="-8.42727"><ele>303.0</ele><time>2026-04-15T13:45:04.88Z</time></trkpt><trkpt lat="42.7006233" lon="-8.42742"><ele>304.0</ele><time>2026-04-15T13:45:05.88Z</time></trkpt><trkpt lat="42.7004533" lon="-8.4275667"><ele>304.0</ele><time>2026-04-15T13:45:06.881Z</time></trkpt><trkpt lat="42.7002883" lon="-8.4277117"><ele>304.0</ele><time>2026-04-15T13:45:07.88Z</time></trkpt><trkpt lat="42.7001267" lon="-8.427865"><ele>304.0</ele><time>2026-04-15T13:45:08.88Z</time></trkpt><trkpt lat="42.6999617" lon="-8.4280217"><ele>301.66666666666663</ele><time>2026-04-15T13:45:09.88Z</time></trkpt><trkpt lat="42.6997983" lon="-8.42817"><ele>299.3333333333333</ele><time>2026-04-15T13:45:10.88Z</time></trkpt><trkpt lat="42.6996467" lon="-8.42832"><ele>297.0</ele><time>2026-04-15T13:45:11.881Z</time></trkpt><trkpt lat="42.6995033" lon="-8.4284783"><ele>294.6666666666667</ele><time>2026-04-15T13:45:12.881Z</time></trkpt><trkpt lat="42.6993533" lon="-8.4286417"><ele>292.33333333333337</ele><time>2026-04-15T13:45:13.881Z</time></trkpt><trkpt lat="42.6992117" lon="-8.4288183"><ele>290.0</ele><time>2026-04-15T13:45:14.881Z</time></trkpt><trkpt lat="42.699065" lon="-8.4289917"><ele>290.0</ele><time>2026-04-15T13:45:15.881Z</time></trkpt><trkpt lat="42.6989267" lon="-8.4291817"><ele>290.0</ele><time>2026-04-15T13:45:16.88Z</time></trkpt><trkpt lat="42.6987967" lon="-8.4293833"><ele>290.0</ele><time>2026-04-15T13:45:17.881Z</time></trkpt><trkpt lat="42.698675" lon="-8.4296033"><ele>287.0</ele><time>2026-04-15T13:45:18.881Z</time></trkpt><trkpt lat="42.6985683" lon="-8.4298233"><ele>284.0</ele><time>2026-04-15T13:45:19.88Z</time></trkpt><trkpt lat="42.6984633" lon="-8.4300533"><ele>281.0</ele><time>2026-04-15T13:45:20.88Z</time></trkpt><trkpt lat="42.6983717" lon="-8.430285"><ele>283.0</ele><time>2026-04-15T13:45:21.881Z</time></trkpt><trkpt lat="42.6982833" lon="-8.4305183"><ele>285.0</ele><time>2026-04-15T13:45:22.881Z</time></trkpt><trkpt lat="42.6981883" lon="-8.43076"><ele>287.0</ele><time>2026-04-15T13:45:23.88Z</time></trkpt><trkpt lat="42.6981183" lon="-8.431005"><ele>287.0</ele><time>2026-04-15T13:45:24.881Z</time></trkpt><trkpt lat="42.698045" lon="-8.43125"><ele>287.0</ele><time>2026-04-15T13:45:25.88Z</time></trkpt><trkpt lat="42.6979733" lon="-8.4314967"><ele>287.0</ele><time>2026-04-15T13:45:26.881Z</time></trkpt><trkpt lat="42.6979183" lon="-8.431755"><ele>287.6666666666667</ele><time>2026-04-15T13:45:27.881Z</time></trkpt><trkpt lat="42.6978717" lon="-8.4320067"><ele>288.3333333333333</ele><time>2026-04-15T13:45:28.88Z</time></trkpt><trkpt lat="42.6978283" lon="-8.4322683"><ele>289.0</ele><time>2026-04-15T13:45:29.88Z</time></trkpt><trkpt lat="42.6977967" lon="-8.432525"><ele>286.0</ele><time>2026-04-15T13:45:30.88Z</time></trkpt><trkpt lat="42.6977733" lon="-8.4327883"><ele>283.0</ele><time>2026-04-15T13:45:31.88Z</time></trkpt><trkpt lat="42.6977483" lon="-8.4330583"><ele>280.0</ele><time>2026-04-15T13:45:32.88Z</time></trkpt><trkpt lat="42.6977133" lon="-8.433345"><ele>274.3333333333333</ele><time>2026-04-15T13:45:33.881Z</time></trkpt><trkpt lat="42.6976867" lon="-8.433615"><ele>268.6666666666667</ele><time>2026-04-15T13:45:34.881Z</time></trkpt><trkpt lat="42.69766" lon="-8.4338817"><ele>263.0</ele><time>2026-04-15T13:45:35.88Z</time></trkpt><trkpt lat="42.697625" lon="-8.4341517"><ele>261.0</ele><time>2026-04-15T13:45:36.881Z</time></trkpt><trkpt lat="42.697605" lon="-8.43441"><ele>259.0</ele><time>2026-04-15T13:45:37.88Z</time></trkpt><trkpt lat="42.697615" lon="-8.4346533"><ele>257.0</ele><time>2026-04-15T13:45:38.88Z</time></trkpt><trkpt lat="42.6976317" lon="-8.434905"><ele>255.0</ele><time>2026-04-15T13:45:39.88Z</time></trkpt><trkpt lat="42.6976517" lon="-8.43518"><ele>253.0</ele><time>2026-04-15T13:45:40.88Z</time></trkpt><trkpt lat="42.6976983" lon="-8.4354883"><ele>251.0</ele><time>2026-04-15T13:45:41.881Z</time></trkpt><trkpt lat="42.69778" lon="-8.4358083"><ele>251.0</ele><time>2026-04-15T13:45:42.881Z</time></trkpt><trkpt lat="42.6979033" lon="-8.4361417"><ele>251.0</ele><time>2026-04-15T13:45:43.881Z</time></trkpt><trkpt lat="42.6980383" lon="-8.436485"><ele>249.5</ele><time>2026-04-15T13:45:44.88Z</time></trkpt><trkpt lat="42.6981767" lon="-8.4368633"><ele>248.0</ele><time>2026-04-15T13:45:45.881Z</time></trkpt><trkpt lat="42.69831" lon="-8.4372183"><ele>246.5</ele><time>2026-04-15T13:45:46.881Z</time></trkpt><trkpt lat="42.69843" lon="-8.4375283"><ele>245.0</ele><time>2026-04-15T13:45:47.881Z</time></trkpt><trkpt lat="42.6985433" lon="-8.4377967"><ele>245.0</ele><time>2026-04-15T13:45:48.88Z</time></trkpt><trkpt lat="42.6986417" lon="-8.4380417"><ele>245.0</ele><time>2026-04-15T13:45:49.88Z</time></trkpt><trkpt lat="42.6987417" lon="-8.4382683"><ele>245.0</ele><time>2026-04-15T13:45:50.88Z</time></trkpt><trkpt lat="42.6988583" lon="-8.4384817"><ele>245.0</ele><time>2026-04-15T13:45:51.88Z</time></trkpt><trkpt lat="42.69899" lon="-8.43868"><ele>245.0</ele><time>2026-04-15T13:45:52.88Z</time></trkpt><trkpt lat="42.6991367" lon="-8.43887"><ele>245.0</ele><time>2026-04-15T13:45:53.88Z</time></trkpt><trkpt lat="42.6993017" lon="-8.4390467"><ele>242.0</ele><time>2026-04-15T13:45:54.881Z</time></trkpt><trkpt lat="42.6994733" lon="-8.439205"><ele>239.0</ele><time>2026-04-15T13:45:55.881Z</time></trkpt><trkpt lat="42.6996517" lon="-8.43936"><ele>236.0</ele><time>2026-04-15T13:45:56.881Z</time></trkpt><trkpt lat="42.6998333" lon="-8.439495"><ele>235.0</ele><time>2026-04-15T13:45:57.88Z</time></trkpt><trkpt lat="42.7000167" lon="-8.4396367"><ele>234.0</ele><time>2026-04-15T13:45:58.881Z</time></trkpt><trkpt lat="42.7002067" lon="-8.439765"><ele>233.0</ele><time>2026-04-15T13:45:59.881Z</time></trkpt><trkpt lat="42.7004033" lon="-8.4399117"><ele>231.66666666666669</ele><time>2026-04-15T13:46:00.88Z</time></trkpt><trkpt lat="42.7005933" lon="-8.4400583"><ele>230.33333333333331</ele><time>2026-04-15T13:46:01.88Z</time></trkpt><trkpt lat="42.700785" lon="-8.4402017"><ele>229.0</ele><time>2026-04-15T13:46:02.88Z</time></trkpt><trkpt lat="42.7009717" lon="-8.44034"><ele>227.33333333333331</ele><time>2026-04-15T13:46:03.88Z</time></trkpt><trkpt lat="42.7011583" lon="-8.440475"><ele>225.66666666666669</ele><time>2026-04-15T13:46:04.881Z</time></trkpt><trkpt lat="42.70134" lon="-8.440605"><ele>224.0</ele><time>2026-04-15T13:46:05.88Z</time></trkpt><trkpt lat="42.701525" lon="-8.440745"><ele>224.0</ele><time>2026-04-15T13:46:06.88Z</time></trkpt><trkpt lat="42.7017017" lon="-8.440885"><ele>224.0</ele><time>2026-04-15T13:46:07.881Z</time></trkpt><trkpt lat="42.701875" lon="-8.44101"><ele>224.0</ele><time>2026-04-15T13:46:08.88Z</time></trkpt><trkpt lat="42.70205" lon="-8.4411383"><ele>225.0</ele><time>2026-04-15T13:46:09.881Z</time></trkpt><trkpt lat="42.7022117" lon="-8.4412917"><ele>226.0</ele><time>2026-04-15T13:46:10.881Z</time></trkpt><trkpt lat="42.702365" lon="-8.441465"><ele>227.0</ele><time>2026-04-15T13:46:11.88Z</time></trkpt><trkpt lat="42.70251" lon="-8.4416617"><ele>223.33333333333334</ele><time>2026-04-15T13:46:12.881Z</time></trkpt><trkpt lat="42.702635" lon="-8.4418867"><ele>219.66666666666669</ele><time>2026-04-15T13:46:13.88Z</time></trkpt><trkpt lat="42.7027517" lon="-8.4421217"><ele>216.0</ele><time>2026-04-15T13:46:14.88Z</time></trkpt><trkpt lat="42.7028467" lon="-8.4423683"><ele>216.0</ele><time>2026-04-15T13:46:15.88Z</time></trkpt><trkpt lat="42.7029167" lon="-8.4426367"><ele>216.0</ele><time>2026-04-15T13:46:16.881Z</time></trkpt><trkpt lat="42.70295" lon="-8.4429133"><ele>216.0</ele><time>2026-04-15T13:46:17.881Z</time></trkpt><trkpt lat="42.7029617" lon="-8.4432"><ele>214.66666666666669</ele><time>2026-04-15T13:46:18.88Z</time></trkpt><trkpt lat="42.70296" lon="-8.4434917"><ele>213.33333333333334</ele><time>2026-04-15T13:46:19.881Z</time></trkpt><trkpt lat="42.7029333" lon="-8.44378"><ele>212.0</ele><time>2026-04-15T13:46:20.881Z</time></trkpt><trkpt lat="42.7028817" lon="-8.4440583"><ele>208.33333333333334</ele><time>2026-04-15T13:46:21.881Z</time></trkpt><trkpt lat="42.70281" lon="-8.4443367"><ele>204.66666666666669</ele><time>2026-04-15T13:46:22.881Z</time></trkpt><trkpt lat="42.7027283" lon="-8.4446117"><ele>201.0</ele><time>2026-04-15T13:46:23.88Z</time></trkpt><trkpt lat="42.702645" lon="-8.4448783"><ele>200.33333333333331</ele><time>2026-04-15T13:46:24.881Z</time></trkpt><trkpt lat="42.702555" lon="-8.4451533"><ele>199.66666666666666</ele><time>2026-04-15T13:46:25.88Z</time></trkpt><trkpt lat="42.7024683" lon="-8.4454183"><ele>199.0</ele><time>2026-04-15T13:46:26.88Z</time></trkpt><trkpt lat="42.7023733" lon="-8.445685"><ele>201.33333333333331</ele><time>2026-04-15T13:46:27.881Z</time></trkpt><trkpt lat="42.7022833" lon="-8.4459467"><ele>203.66666666666669</ele><time>2026-04-15T13:46:28.88Z</time></trkpt><trkpt lat="42.7022017" lon="-8.4462067"><ele>206.0</ele><time>2026-04-15T13:46:29.88Z</time></trkpt><trkpt lat="42.7021183" lon="-8.4464767"><ele>205.0</ele><time>2026-04-15T13:46:30.881Z</time></trkpt><trkpt lat="42.702035" lon="-8.4467417"><ele>204.0</ele><time>2026-04-15T13:46:31.88Z</time></trkpt><trkpt lat="42.7019417" lon="-8.4470083"><ele>203.0</ele><time>2026-04-15T13:46:32.88Z</time></trkpt><trkpt lat="42.7018467" lon="-8.4472867"><ele>203.0</ele><time>2026-04-15T13:46:33.88Z</time></trkpt><trkpt lat="42.7017583" lon="-8.44756"><ele>203.0</ele><time>2026-04-15T13:46:34.88Z</time></trkpt><trkpt lat="42.70167" lon="-8.4478267"><ele>203.0</ele><time>2026-04-15T13:46:35.881Z</time></trkpt><trkpt lat="42.701585" lon="-8.4480917"><ele>203.33333333333334</ele><time>2026-04-15T13:46:36.881Z</time></trkpt><trkpt lat="42.7015" lon="-8.44836"><ele>203.66666666666669</ele><time>2026-04-15T13:46:37.88Z</time></trkpt><trkpt lat="42.7014183" lon="-8.4486233"><ele>204.0</ele><time>2026-04-15T13:46:38.881Z</time></trkpt><trkpt lat="42.7013417" lon="-8.4488733"><ele>204.0</ele><time>2026-04-15T13:46:39.88Z</time></trkpt><trkpt lat="42.7012733" lon="-8.44913"><ele>204.0</ele><time>2026-04-15T13:46:40.881Z</time></trkpt><trkpt lat="42.7011983" lon="-8.4493883"><ele>204.0</ele><time>2026-04-15T13:46:41.88Z</time></trkpt><trkpt lat="42.7011167" lon="-8.4496583"><ele>201.0</ele><time>2026-04-15T13:46:42.88Z</time></trkpt><trkpt lat="42.7010267" lon="-8.449925"><ele>198.0</ele><time>2026-04-15T13:46:43.881Z</time></trkpt><trkpt lat="42.7009367" lon="-8.4501817"><ele>195.0</ele><time>2026-04-15T13:46:44.881Z</time></trkpt><trkpt lat="42.700835" lon="-8.4504417"><ele>193.0</ele><time>2026-04-15T13:46:45.881Z</time></trkpt><trkpt lat="42.7007517" lon="-8.4507033"><ele>191.0</ele><time>2026-04-15T13:46:46.881Z</time></trkpt><trkpt lat="42.7006717" lon="-8.4509617"><ele>189.0</ele><time>2026-04-15T13:46:47.881Z</time></trkpt><trkpt lat="42.700595" lon="-8.4511983"><ele>187.66666666666666</ele><time>2026-04-15T13:46:48.88Z</time></trkpt><trkpt lat="42.700515" lon="-8.451435"><ele>186.33333333333331</ele><time>2026-04-15T13:46:49.88Z</time></trkpt><trkpt lat="42.7004367" lon="-8.4516717"><ele>185.0</ele><time>2026-04-15T13:46:50.881Z</time></trkpt><trkpt lat="42.7003533" lon="-8.451915"><ele>183.33333333333331</ele><time>2026-04-15T13:46:51.88Z</time></trkpt><trkpt lat="42.7002817" lon="-8.4521667"><ele>181.66666666666666</ele><time>2026-04-15T13:46:52.88Z</time></trkpt><trkpt lat="42.7002017" lon="-8.4524167"><ele>180.0</ele><time>2026-04-15T13:46:53.88Z</time></trkpt><trkpt lat="42.700105" lon="-8.4526667"><ele>180.0</ele><time>2026-04-15T13:46:54.881Z</time></trkpt><trkpt lat="42.6999867" lon="-8.4529067"><ele>180.0</ele><time>2026-04-15T13:46:55.881Z</time></trkpt><trkpt lat="42.6998583" lon="-8.453135"><ele>180.0</ele><time>2026-04-15T13:46:56.881Z</time></trkpt><trkpt lat="42.6997283" lon="-8.4533567"><ele>178.33333333333334</ele><time>2026-04-15T13:46:57.881Z</time></trkpt><trkpt lat="42.6996017" lon="-8.45357"><ele>176.66666666666669</ele><time>2026-04-15T13:46:58.88Z</time></trkpt><trkpt lat="42.69948" lon="-8.4537767"><ele>175.0</ele><time>2026-04-15T13:46:59.881Z</time></trkpt><trkpt lat="42.6993583" lon="-8.4539867"><ele>175.0</ele><time>2026-04-15T13:47:00.881Z</time></trkpt><trkpt lat="42.699255" lon="-8.4542067"><ele>175.0</ele><time>2026-04-15T13:47:01.88Z</time></trkpt><trkpt lat="42.6991517" lon="-8.45444"><ele>175.0</ele><time>2026-04-15T13:47:02.88Z</time></trkpt><trkpt lat="42.6990733" lon="-8.4546767"><ele>175.0</ele><time>2026-04-15T13:47:03.88Z</time></trkpt><trkpt lat="42.699005" lon="-8.4549267"><ele>175.0</ele><time>2026-04-15T13:47:04.881Z</time></trkpt><trkpt lat="42.6989633" lon="-8.4551917"><ele>175.0</ele><time>2026-04-15T13:47:05.881Z</time></trkpt><trkpt lat="42.6989267" lon="-8.4554633"><ele>176.66666666666669</ele><time>2026-04-15T13:47:06.881Z</time></trkpt><trkpt lat="42.698885" lon="-8.45573"><ele>178.33333333333334</ele><time>2026-04-15T13:47:07.881Z</time></trkpt><trkpt lat="42.69884" lon="-8.45599"><ele>180.0</ele><time>2026-04-15T13:47:08.88Z</time></trkpt><trkpt lat="42.698795" lon="-8.4562417"><ele>180.66666666666666</ele><time>2026-04-15T13:47:09.88Z</time></trkpt><trkpt lat="42.6987433" lon="-8.45648"><ele>181.33333333333331</ele><time>2026-04-15T13:47:10.88Z</time></trkpt><trkpt lat="42.69869" lon="-8.45672"><ele>182.0</ele><time>2026-04-15T13:47:11.88Z</time></trkpt><trkpt lat="42.6986467" lon="-8.456945"><ele>182.0</ele><time>2026-04-15T13:47:12.88Z</time></trkpt><trkpt lat="42.6985933" lon="-8.4571517"><ele>182.0</ele><time>2026-04-15T13:47:13.881Z</time></trkpt><trkpt lat="42.6985283" lon="-8.4573517"><ele>182.0</ele><time>2026-04-15T13:47:14.88Z</time></trkpt><trkpt lat="42.6984483" lon="-8.4575583"><ele>183.0</ele><time>2026-04-15T13:47:15.881Z</time></trkpt><trkpt lat="42.6983567" lon="-8.457775"><ele>184.0</ele><time>2026-04-15T13:47:16.881Z</time></trkpt><trkpt lat="42.698265" lon="-8.458"><ele>185.0</ele><time>2026-04-15T13:47:17.88Z</time></trkpt><trkpt lat="42.6981717" lon="-8.4582217"><ele>185.0</ele><time>2026-04-15T13:47:18.88Z</time></trkpt><trkpt lat="42.6980667" lon="-8.4584367"><ele>185.0</ele><time>2026-04-15T13:47:19.88Z</time></trkpt><trkpt lat="42.6979583" lon="-8.4586583"><ele>185.0</ele><time>2026-04-15T13:47:20.88Z</time></trkpt><trkpt lat="42.6978417" lon="-8.4588783"><ele>185.0</ele><time>2026-04-15T13:47:21.88Z</time></trkpt><trkpt lat="42.6977317" lon="-8.4591033"><ele>185.0</ele><time>2026-04-15T13:47:22.881Z</time></trkpt><trkpt lat="42.69763" lon="-8.45932"><ele>185.0</ele><time>2026-04-15T13:47:23.88Z</time></trkpt><trkpt lat="42.697525" lon="-8.459545"><ele>185.0</ele><time>2026-04-15T13:47:24.88Z</time></trkpt><trkpt lat="42.69742" lon="-8.4597767"><ele>185.0</ele><time>2026-04-15T13:47:25.881Z</time></trkpt><trkpt lat="42.6973067" lon="-8.4600017"><ele>185.0</ele><time>2026-04-15T13:47:26.88Z</time></trkpt><trkpt lat="42.6971933" lon="-8.4602167"><ele>185.0</ele><time>2026-04-15T13:47:27.88Z</time></trkpt><trkpt lat="42.6970883" lon="-8.4604317"><ele>185.0</ele><time>2026-04-15T13:47:28.881Z</time></trkpt><trkpt lat="42.696985" lon="-8.4606417"><ele>185.0</ele><time>2026-04-15T13:47:29.88Z</time></trkpt><trkpt lat="42.696885" lon="-8.4608633"><ele>186.0</ele><time>2026-04-15T13:47:30.88Z</time></trkpt><trkpt lat="42.6967817" lon="-8.4610633"><ele>187.0</ele><time>2026-04-15T13:47:31.881Z</time></trkpt><trkpt lat="42.696675" lon="-8.4612683"><ele>188.0</ele><time>2026-04-15T13:47:32.881Z</time></trkpt><trkpt lat="42.696565" lon="-8.4614767"><ele>189.33333333333331</ele><time>2026-04-15T13:47:33.88Z</time></trkpt><trkpt lat="42.6964467" lon="-8.4616867"><ele>190.66666666666666</ele><time>2026-04-15T13:47:34.88Z</time></trkpt><trkpt lat="42.6963433" lon="-8.4618917"><ele>192.0</ele><time>2026-04-15T13:47:35.88Z</time></trkpt><trkpt lat="42.696245" lon="-8.4621"><ele>194.33333333333331</ele><time>2026-04-15T13:47:36.881Z</time></trkpt><trkpt lat="42.696145" lon="-8.462305"><ele>196.66666666666666</ele><time>2026-04-15T13:47:37.88Z</time></trkpt><trkpt lat="42.696045" lon="-8.4625117"><ele>199.0</ele><time>2026-04-15T13:47:38.881Z</time></trkpt><trkpt lat="42.69595" lon="-8.4627267"><ele>201.0</ele><time>2026-04-15T13:47:39.881Z</time></trkpt><trkpt lat="42.6958483" lon="-8.462935"><ele>203.0</ele><time>2026-04-15T13:47:40.881Z</time></trkpt><trkpt lat="42.6957417" lon="-8.46315"><ele>205.0</ele><time>2026-04-15T13:47:41.881Z</time></trkpt><trkpt lat="42.6956317" lon="-8.463365"><ele>205.0</ele><time>2026-04-15T13:47:42.88Z</time></trkpt><trkpt lat="42.6955283" lon="-8.4635783"><ele>205.0</ele><time>2026-04-15T13:47:43.88Z</time></trkpt><trkpt lat="42.6954217" lon="-8.4637867"><ele>205.0</ele><time>2026-04-15T13:47:44.881Z</time></trkpt><trkpt lat="42.695315" lon="-8.4639967"><ele>205.0</ele><time>2026-04-15T13:47:45.881Z</time></trkpt><trkpt lat="42.695215" lon="-8.4642083"><ele>205.0</ele><time>2026-04-15T13:47:46.881Z</time></trkpt><trkpt lat="42.6951117" lon="-8.4644317"><ele>205.0</ele><time>2026-04-15T13:47:47.881Z</time></trkpt><trkpt lat="42.6950183" lon="-8.4646483"><ele>205.66666666666666</ele><time>2026-04-15T13:47:48.88Z</time></trkpt><trkpt lat="42.694915" lon="-8.464865"><ele>206.33333333333331</ele><time>2026-04-15T13:47:49.88Z</time></trkpt><trkpt lat="42.694805" lon="-8.4650833"><ele>207.0</ele><time>2026-04-15T13:47:50.881Z</time></trkpt><trkpt lat="42.6946883" lon="-8.4653117"><ele>207.66666666666669</ele><time>2026-04-15T13:47:51.88Z</time></trkpt><trkpt lat="42.694565" lon="-8.46552"><ele>208.33333333333334</ele><time>2026-04-15T13:47:52.88Z</time></trkpt><trkpt lat="42.694455" lon="-8.4657317"><ele>209.0</ele><time>2026-04-15T13:47:53.881Z</time></trkpt><trkpt lat="42.6943533" lon="-8.465945"><ele>210.66666666666669</ele><time>2026-04-15T13:47:54.881Z</time></trkpt><trkpt lat="42.6942483" lon="-8.4661567"><ele>212.33333333333331</ele><time>2026-04-15T13:47:55.881Z</time></trkpt><trkpt lat="42.6941383" lon="-8.4663683"><ele>214.0</ele><time>2026-04-15T13:47:56.881Z</time></trkpt><trkpt lat="42.694025" lon="-8.4665767"><ele>214.66666666666666</ele><time>2026-04-15T13:47:57.881Z</time></trkpt><trkpt lat="42.6939067" lon="-8.4667783"><ele>215.33333333333331</ele><time>2026-04-15T13:47:58.88Z</time></trkpt><trkpt lat="42.69378" lon="-8.466975"><ele>216.0</ele><time>2026-04-15T13:47:59.881Z</time></trkpt><trkpt lat="42.69365" lon="-8.4671733"><ele>218.33333333333331</ele><time>2026-04-15T13:48:00.881Z</time></trkpt><trkpt lat="42.693515" lon="-8.4673633"><ele>220.66666666666666</ele><time>2026-04-15T13:48:01.88Z</time></trkpt><trkpt lat="42.6933783" lon="-8.467555"><ele>223.0</ele><time>2026-04-15T13:48:02.881Z</time></trkpt><trkpt lat="42.6932417" lon="-8.4677467"><ele>223.0</ele><time>2026-04-15T13:48:03.88Z</time></trkpt><trkpt lat="42.6930967" lon="-8.4679383"><ele>223.0</ele><time>2026-04-15T13:48:04.88Z</time></trkpt><trkpt lat="42.6929533" lon="-8.4681367"><ele>223.0</ele><time>2026-04-15T13:48:05.881Z</time></trkpt><trkpt lat="42.692815" lon="-8.4683283"><ele>224.0</ele><time>2026-04-15T13:48:06.881Z</time></trkpt><trkpt lat="42.6926817" lon="-8.4685117"><ele>225.0</ele><time>2026-04-15T13:48:07.88Z</time></trkpt><trkpt lat="42.6925567" lon="-8.4686933"><ele>226.0</ele><time>2026-04-15T13:48:08.881Z</time></trkpt><trkpt lat="42.6924283" lon="-8.46887"><ele>226.0</ele><time>2026-04-15T13:48:09.881Z</time></trkpt><trkpt lat="42.6923033" lon="-8.4690517"><ele>226.0</ele><time>2026-04-15T13:48:10.88Z</time></trkpt><trkpt lat="42.6921717" lon="-8.4692333"><ele>226.0</ele><time>2026-04-15T13:48:11.88Z</time></trkpt><trkpt lat="42.6920367" lon="-8.46942"><ele>228.33333333333331</ele><time>2026-04-15T13:48:12.88Z</time></trkpt><trkpt lat="42.691905" lon="-8.4696067"><ele>230.66666666666669</ele><time>2026-04-15T13:48:13.88Z</time></trkpt><trkpt lat="42.6917717" lon="-8.4697867"><ele>233.0</ele><time>2026-04-15T13:48:14.881Z</time></trkpt><trkpt lat="42.6916367" lon="-8.469975"><ele>234.66666666666669</ele><time>2026-04-15T13:48:15.88Z</time></trkpt><trkpt lat="42.6915033" lon="-8.4701667"><ele>236.33333333333331</ele><time>2026-04-15T13:48:16.88Z</time></trkpt><trkpt lat="42.6913667" lon="-8.4703617"><ele>238.0</ele><time>2026-04-15T13:48:17.881Z</time></trkpt><trkpt lat="42.6912367" lon="-8.4705683"><ele>238.33333333333331</ele><time>2026-04-15T13:48:18.88Z</time></trkpt><trkpt lat="42.6911017" lon="-8.4707717"><ele>238.66666666666669</ele><time>2026-04-15T13:48:19.88Z</time></trkpt><trkpt lat="42.690975" lon="-8.47097"><ele>239.0</ele><time>2026-04-15T13:48:20.88Z</time></trkpt><trkpt lat="42.690855" lon="-8.4711617"><ele>242.33333333333334</ele><time>2026-04-15T13:48:21.88Z</time></trkpt><trkpt lat="42.6907417" lon="-8.47134"><ele>245.66666666666669</ele><time>2026-04-15T13:48:22.881Z</time></trkpt><trkpt lat="42.69063" lon="-8.4715117"><ele>249.0</ele><time>2026-04-15T13:48:23.88Z</time></trkpt><trkpt lat="42.6905333" lon="-8.4716733"><ele>249.0</ele><time>2026-04-15T13:48:24.881Z</time></trkpt><trkpt lat="42.6904467" lon="-8.4718283"><ele>249.0</ele><time>2026-04-15T13:48:25.881Z</time></trkpt><trkpt lat="42.6903717" lon="-8.4719817"><ele>249.0</ele><time>2026-04-15T13:48:26.881Z</time></trkpt><trkpt lat="42.6903067" lon="-8.4721383"><ele>249.0</ele><time>2026-04-15T13:48:27.881Z</time></trkpt><trkpt lat="42.6902267" lon="-8.47228"><ele>250.33333333333331</ele><time>2026-04-15T13:48:28.881Z</time></trkpt><trkpt lat="42.69012" lon="-8.4724167"><ele>251.66666666666666</ele><time>2026-04-15T13:48:29.88Z</time></trkpt><trkpt lat="42.6899983" lon="-8.4725417"><ele>253.0</ele><time>2026-04-15T13:48:30.88Z</time></trkpt><trkpt lat="42.68988" lon="-8.47267"><ele>253.0</ele><time>2026-04-15T13:48:31.881Z</time></trkpt><trkpt lat="42.689775" lon="-8.4728117"><ele>253.0</ele><time>2026-04-15T13:48:32.881Z</time></trkpt><trkpt lat="42.6896683" lon="-8.472965"><ele>253.0</ele><time>2026-04-15T13:48:33.88Z</time></trkpt><trkpt lat="42.6895617" lon="-8.4731233"><ele>254.0</ele><time>2026-04-15T13:48:34.88Z</time></trkpt><trkpt lat="42.6894533" lon="-8.4733033"><ele>255.0</ele><time>2026-04-15T13:48:35.88Z</time></trkpt><trkpt lat="42.6893467" lon="-8.47349"><ele>256.0</ele><time>2026-04-15T13:48:36.88Z</time></trkpt><trkpt lat="42.6892433" lon="-8.47368"><ele>257.66666666666663</ele><time>2026-04-15T13:48:37.881Z</time></trkpt><trkpt lat="42.689145" lon="-8.4738883"><ele>259.3333333333333</ele><time>2026-04-15T13:48:38.881Z</time></trkpt><trkpt lat="42.689055" lon="-8.4741017"><ele>261.0</ele><time>2026-04-15T13:48:39.88Z</time></trkpt><trkpt lat="42.6889667" lon="-8.47433"><ele>261.0</ele><time>2026-04-15T13:48:40.881Z</time></trkpt><trkpt lat="42.68889" lon="-8.474555"><ele>261.0</ele><time>2026-04-15T13:48:41.881Z</time></trkpt><trkpt lat="42.6888217" lon="-8.4747733"><ele>261.0</ele><time>2026-04-15T13:48:42.88Z</time></trkpt><trkpt lat="42.6887633" lon="-8.47498"><ele>262.0</ele><time>2026-04-15T13:48:43.88Z</time></trkpt><trkpt lat="42.6887083" lon="-8.4751967"><ele>263.0</ele><time>2026-04-15T13:48:44.88Z</time></trkpt><trkpt lat="42.6886617" lon="-8.4754167"><ele>264.0</ele><time>2026-04-15T13:48:45.88Z</time></trkpt><trkpt lat="42.6886133" lon="-8.4756533"><ele>263.6666666666667</ele><time>2026-04-15T13:48:46.88Z</time></trkpt><trkpt lat="42.6885783" lon="-8.475895"><ele>263.33333333333337</ele><time>2026-04-15T13:48:47.881Z</time></trkpt><trkpt lat="42.6885417" lon="-8.4761483"><ele>263.0</ele><time>2026-04-15T13:48:48.881Z</time></trkpt><trkpt lat="42.68853" lon="-8.4764167"><ele>263.0</ele><time>2026-04-15T13:48:49.88Z</time></trkpt><trkpt lat="42.6885283" lon="-8.47669"><ele>263.0</ele><time>2026-04-15T13:48:50.88Z</time></trkpt><trkpt lat="42.68853" lon="-8.4769633"><ele>263.0</ele><time>2026-04-15T13:48:51.881Z</time></trkpt><trkpt lat="42.6885217" lon="-8.47724"><ele>264.0</ele><time>2026-04-15T13:48:52.88Z</time></trkpt><trkpt lat="42.688505" lon="-8.4775267"><ele>265.0</ele><time>2026-04-15T13:48:53.881Z</time></trkpt><trkpt lat="42.6884917" lon="-8.4778033"><ele>266.0</ele><time>2026-04-15T13:48:54.881Z</time></trkpt><trkpt lat="42.6884833" lon="-8.4780667"><ele>267.33333333333337</ele><time>2026-04-15T13:48:55.88Z</time></trkpt><trkpt lat="42.688475" lon="-8.4783133"><ele>268.6666666666667</ele><time>2026-04-15T13:48:56.881Z</time></trkpt><trkpt lat="42.6884783" lon="-8.478575"><ele>270.0</ele><time>2026-04-15T13:48:57.88Z</time></trkpt><trkpt lat="42.6884683" lon="-8.4788483"><ele>271.6666666666667</ele><time>2026-04-15T13:48:58.881Z</time></trkpt><trkpt lat="42.6884633" lon="-8.4791317"><ele>273.33333333333337</ele><time>2026-04-15T13:48:59.881Z</time></trkpt><trkpt lat="42.68846" lon="-8.47942"><ele>275.0</ele><time>2026-04-15T13:49:00.881Z</time></trkpt><trkpt lat="42.688455" lon="-8.4797067"><ele>275.6666666666667</ele><time>2026-04-15T13:49:01.881Z</time></trkpt><trkpt lat="42.6884483" lon="-8.479975"><ele>276.3333333333333</ele><time>2026-04-15T13:49:02.88Z</time></trkpt><trkpt lat="42.6884433" lon="-8.4802367"><ele>277.0</ele><time>2026-04-15T13:49:03.88Z</time></trkpt><trkpt lat="42.6884367" lon="-8.4805017"><ele>278.66666666666663</ele><time>2026-04-15T13:49:04.88Z</time></trkpt><trkpt lat="42.6884333" lon="-8.4807767"><ele>280.3333333333333</ele><time>2026-04-15T13:49:05.881Z</time></trkpt><trkpt lat="42.68843" lon="-8.4810417"><ele>282.0</ele><time>2026-04-15T13:49:06.88Z</time></trkpt><trkpt lat="42.688435" lon="-8.4813183"><ele>283.6666666666667</ele><time>2026-04-15T13:49:07.88Z</time></trkpt><trkpt lat="42.688425" lon="-8.4815883"><ele>285.33333333333337</ele><time>2026-04-15T13:49:08.88Z</time></trkpt><trkpt lat="42.688415" lon="-8.4818517"><ele>287.0</ele><time>2026-04-15T13:49:09.88Z</time></trkpt><trkpt lat="42.6884183" lon="-8.4821117"><ele>287.6666666666667</ele><time>2026-04-15T13:49:10.881Z</time></trkpt><trkpt lat="42.6884183" lon="-8.4823583"><ele>288.3333333333333</ele><time>2026-04-15T13:49:11.881Z</time></trkpt><trkpt lat="42.68842" lon="-8.4825867"><ele>289.0</ele><time>2026-04-15T13:49:12.881Z</time></trkpt><trkpt lat="42.6884167" lon="-8.4827883"><ele>289.0</ele><time>2026-04-15T13:49:13.881Z</time></trkpt><trkpt lat="42.68841" lon="-8.4829817"><ele>289.0</ele><time>2026-04-15T13:49:14.88Z</time></trkpt><trkpt lat="42.6884117" lon="-8.483145"><ele>289.0</ele><time>2026-04-15T13:49:15.88Z</time></trkpt><trkpt lat="42.6884217" lon="-8.48331"><ele>289.0</ele><time>2026-04-15T13:49:16.881Z</time></trkpt><trkpt lat="42.68842" lon="-8.4834733"><ele>289.0</ele><time>2026-04-15T13:49:17.88Z</time></trkpt><trkpt lat="42.6884167" lon="-8.4836367"><ele>289.0</ele><time>2026-04-15T13:49:18.881Z</time></trkpt><trkpt lat="42.6884133" lon="-8.48379"><ele>289.0</ele><time>2026-04-15T13:49:19.88Z</time></trkpt><trkpt lat="42.6884117" lon="-8.4839333"><ele>289.0</ele><time>2026-04-15T13:49:20.88Z</time></trkpt><trkpt lat="42.6884" lon="-8.484065"><ele>289.0</ele><time>2026-04-15T13:49:21.881Z</time></trkpt><trkpt lat="42.6883933" lon="-8.48417"><ele>289.3333333333333</ele><time>2026-04-15T13:49:22.88Z</time></trkpt><trkpt lat="42.6883883" lon="-8.4842683"><ele>289.66666666666663</ele><time>2026-04-15T13:49:23.88Z</time></trkpt><trkpt lat="42.688395" lon="-8.4844017"><ele>290.0</ele><time>2026-04-15T13:49:25.88Z</time></trkpt><trkpt lat="42.6883983" lon="-8.4845233"><ele>290.3333333333333</ele><time>2026-04-15T13:49:27.88Z</time></trkpt><trkpt lat="42.6884" lon="-8.484615"><ele>290.6666666666667</ele><time>2026-04-15T13:49:29.88Z</time></trkpt><trkpt lat="42.688395" lon="-8.4847667"><ele>291.0</ele><time>2026-04-15T13:49:31.881Z</time></trkpt><trkpt lat="42.68839" lon="-8.4848617"><ele>291.40000000000003</ele><time>2026-04-15T13:49:32.881Z</time></trkpt><trkpt lat="42.6883867" lon="-8.4850333"><ele>291.8</ele><time>2026-04-15T13:49:34.88Z</time></trkpt><trkpt lat="42.68838" lon="-8.4851933"><ele>292.20000000000005</ele><time>2026-04-15T13:49:36.881Z</time></trkpt><trkpt lat="42.68838" lon="-8.4852817"><ele>292.6</ele><time>2026-04-15T13:49:37.881Z</time></trkpt><trkpt lat="42.68838" lon="-8.48538"><ele>293.0</ele><time>2026-04-15T13:49:38.881Z</time></trkpt><trkpt lat="42.68838" lon="-8.4854817"><ele>292.99999999999994</ele><time>2026-04-15T13:49:39.88Z</time></trkpt><trkpt lat="42.6883833" lon="-8.485585"><ele>293.0</ele><time>2026-04-15T13:49:40.88Z</time></trkpt><trkpt lat="42.688385" lon="-8.4856867"><ele>293.0</ele><time>2026-04-15T13:49:41.881Z</time></trkpt><trkpt lat="42.688385" lon="-8.485785"><ele>293.0</ele><time>2026-04-15T13:49:42.881Z</time></trkpt><trkpt lat="42.68838" lon="-8.4858783"><ele>293.0</ele><time>2026-04-15T13:49:43.88Z</time></trkpt><trkpt lat="42.688375" lon="-8.4859667"><ele>292.99999999999994</ele><time>2026-04-15T13:49:44.881Z</time></trkpt><trkpt lat="42.6883667" lon="-8.486055"><ele>293.0</ele><time>2026-04-15T13:49:45.88Z</time></trkpt><trkpt lat="42.68836" lon="-8.4861433"><ele>292.99999999999994</ele><time>2026-04-15T13:49:46.881Z</time></trkpt><trkpt lat="42.6883533" lon="-8.4862417"><ele>293.0</ele><time>2026-04-15T13:49:47.88Z</time></trkpt><trkpt lat="42.688345" lon="-8.48634"><ele>293.0</ele><time>2026-04-15T13:49:48.88Z</time></trkpt><trkpt lat="42.6883383" lon="-8.4864317"><ele>293.0</ele><time>2026-04-15T13:49:49.881Z</time></trkpt><trkpt lat="42.6883317" lon="-8.48653"><ele>293.0</ele><time>2026-04-15T13:49:50.881Z</time></trkpt><trkpt lat="42.6883367" lon="-8.4866283"><ele>292.99999999999994</ele><time>2026-04-15T13:49:51.881Z</time></trkpt><trkpt lat="42.6883417" lon="-8.4867317"><ele>293.0</ele><time>2026-04-15T13:49:52.88Z</time></trkpt><trkpt lat="42.6883417" lon="-8.4868417"><ele>293.6</ele><time>2026-04-15T13:49:53.88Z</time></trkpt><trkpt lat="42.6883417" lon="-8.486995"><ele>294.20000000000005</ele><time>2026-04-15T13:49:55.88Z</time></trkpt><trkpt lat="42.6883317" lon="-8.48709"><ele>294.8</ele><time>2026-04-15T13:49:57.881Z</time></trkpt><trkpt lat="42.6883383" lon="-8.4872617"><ele>295.40000000000003</ele><time>2026-04-15T13:50:07.88Z</time></trkpt><trkpt lat="42.6883383" lon="-8.4874033"><ele>296.0</ele><time>2026-04-15T13:50:08.881Z</time></trkpt><trkpt lat="42.6883333" lon="-8.4875567"><ele>296.2</ele><time>2026-04-15T13:50:09.881Z</time></trkpt><trkpt lat="42.688325" lon="-8.48772"><ele>296.40000000000003</ele><time>2026-04-15T13:50:10.88Z</time></trkpt><trkpt lat="42.6883133" lon="-8.4878717"><ele>296.6</ele><time>2026-04-15T13:50:11.88Z</time></trkpt><trkpt lat="42.6883083" lon="-8.4879967"><ele>296.8</ele><time>2026-04-15T13:50:12.88Z</time></trkpt><trkpt lat="42.6883017" lon="-8.4881033"><ele>297.0</ele><time>2026-04-15T13:50:13.88Z</time></trkpt><trkpt lat="42.6882633" lon="-8.4882417"><ele>297.4</ele><time>2026-04-15T13:50:15.88Z</time></trkpt><trkpt lat="42.6882283" lon="-8.4884017"><ele>297.79999999999995</ele><time>2026-04-15T13:50:17.88Z</time></trkpt><trkpt lat="42.688225" lon="-8.4885167"><ele>298.2</ele><time>2026-04-15T13:50:18.88Z</time></trkpt><trkpt lat="42.6882167" lon="-8.4886433"><ele>298.59999999999997</ele><time>2026-04-15T13:50:19.881Z</time></trkpt><trkpt lat="42.6882217" lon="-8.48878"><ele>299.0</ele><time>2026-04-15T13:50:20.88Z</time></trkpt><trkpt lat="42.6882267" lon="-8.4889217"><ele>299.0</ele><time>2026-04-15T13:50:21.881Z</time></trkpt><trkpt lat="42.6882267" lon="-8.4890733"><ele>299.0</ele><time>2026-04-15T13:50:22.881Z</time></trkpt><trkpt lat="42.688235" lon="-8.4892267"><ele>299.0</ele><time>2026-04-15T13:50:23.88Z</time></trkpt><trkpt lat="42.688245" lon="-8.489375"><ele>299.0</ele><time>2026-04-15T13:50:24.88Z</time></trkpt><trkpt lat="42.6882533" lon="-8.4895217"><ele>299.0</ele><time>2026-04-15T13:50:25.881Z</time></trkpt><trkpt lat="42.6882517" lon="-8.4896617"><ele>299.0</ele><time>2026-04-15T13:50:26.881Z</time></trkpt><trkpt lat="42.6882533" lon="-8.4898033"><ele>299.0</ele><time>2026-04-15T13:50:27.881Z</time></trkpt><trkpt lat="42.6882533" lon="-8.4899467"><ele>299.0</ele><time>2026-04-15T13:50:28.88Z</time></trkpt><trkpt lat="42.6882533" lon="-8.4900883"><ele>299.0</ele><time>2026-04-15T13:50:29.881Z</time></trkpt><trkpt lat="42.6882533" lon="-8.4902317"><ele>299.0</ele><time>2026-04-15T13:50:30.88Z</time></trkpt><trkpt lat="42.6882517" lon="-8.4903733"><ele>298.8</ele><time>2026-04-15T13:50:31.881Z</time></trkpt><trkpt lat="42.6882533" lon="-8.4905117"><ele>298.59999999999997</ele><time>2026-04-15T13:50:32.88Z</time></trkpt><trkpt lat="42.6882533" lon="-8.4906367"><ele>298.4</ele><time>2026-04-15T13:50:33.88Z</time></trkpt><trkpt lat="42.6882517" lon="-8.4907367"><ele>298.2</ele><time>2026-04-15T13:50:34.88Z</time></trkpt><trkpt lat="42.68826" lon="-8.4908633"><ele>298.0</ele><time>2026-04-15T13:50:36.881Z</time></trkpt><trkpt lat="42.688285" lon="-8.4910017"><ele>298.0</ele><time>2026-04-15T13:51:21.88Z</time></trkpt><trkpt lat="42.6882767" lon="-8.49112"><ele>298.0</ele><time>2026-04-15T13:51:22.88Z</time></trkpt><trkpt lat="42.6882683" lon="-8.4912867"><ele>298.0</ele><time>2026-04-15T13:51:23.88Z</time></trkpt><trkpt lat="42.688265" lon="-8.49144"><ele>298.0</ele><time>2026-04-15T13:51:24.881Z</time></trkpt><trkpt lat="42.68826" lon="-8.491585"><ele>298.0</ele><time>2026-04-15T13:51:25.881Z</time></trkpt><trkpt lat="42.6882583" lon="-8.4917283"><ele>298.6</ele><time>2026-04-15T13:51:26.881Z</time></trkpt><trkpt lat="42.68825" lon="-8.49187"><ele>299.20000000000005</ele><time>2026-04-15T13:51:27.88Z</time></trkpt><trkpt lat="42.6882433" lon="-8.4920083"><ele>299.8</ele><time>2026-04-15T13:51:28.881Z</time></trkpt><trkpt lat="42.6882367" lon="-8.4921483"><ele>300.40000000000003</ele><time>2026-04-15T13:51:29.88Z</time></trkpt><trkpt lat="42.6882317" lon="-8.4922883"><ele>301.0</ele><time>2026-04-15T13:51:30.88Z</time></trkpt><trkpt lat="42.6882267" lon="-8.492435"><ele>302.2</ele><time>2026-04-15T13:51:31.881Z</time></trkpt><trkpt lat="42.6882167" lon="-8.4925817"><ele>303.40000000000003</ele><time>2026-04-15T13:51:32.88Z</time></trkpt><trkpt lat="42.6882167" lon="-8.492725"><ele>304.6</ele><time>2026-04-15T13:51:33.88Z</time></trkpt><trkpt lat="42.6882233" lon="-8.4928667"><ele>305.8</ele><time>2026-04-15T13:51:34.88Z</time></trkpt><trkpt lat="42.6882317" lon="-8.4930067"><ele>307.0</ele><time>2026-04-15T13:51:35.88Z</time></trkpt><trkpt lat="42.68823" lon="-8.4931533"><ele>308.2</ele><time>2026-04-15T13:51:36.88Z</time></trkpt><trkpt lat="42.6882367" lon="-8.4932983"><ele>309.4</ele><time>2026-04-15T13:51:37.881Z</time></trkpt><trkpt lat="42.68824" lon="-8.4934433"><ele>310.6</ele><time>2026-04-15T13:51:38.88Z</time></trkpt><trkpt lat="42.6882417" lon="-8.4935933"><ele>311.8</ele><time>2026-04-15T13:51:39.88Z</time></trkpt><trkpt lat="42.6882433" lon="-8.4937433"><ele>313.0</ele><time>2026-04-15T13:51:40.88Z</time></trkpt><trkpt lat="42.6882417" lon="-8.4938967"><ele>313.0</ele><time>2026-04-15T13:51:41.88Z</time></trkpt><trkpt lat="42.6882367" lon="-8.4940517"><ele>313.0</ele><time>2026-04-15T13:51:42.881Z</time></trkpt><trkpt lat="42.6882367" lon="-8.4942067"><ele>313.0</ele><time>2026-04-15T13:51:43.881Z</time></trkpt><trkpt lat="42.6882333" lon="-8.4943383"><ele>313.0</ele><time>2026-04-15T13:51:44.881Z</time></trkpt><trkpt lat="42.6882317" lon="-8.4944467"><ele>313.0</ele><time>2026-04-15T13:51:45.881Z</time></trkpt><trkpt lat="42.68823" lon="-8.4945467"><ele>313.1428571428571</ele><time>2026-04-15T13:51:46.88Z</time></trkpt><trkpt lat="42.6882233" lon="-8.4946383"><ele>313.2857142857143</ele><time>2026-04-15T13:51:47.88Z</time></trkpt><trkpt lat="42.68822" lon="-8.4947333"><ele>313.42857142857144</ele><time>2026-04-15T13:51:48.881Z</time></trkpt><trkpt lat="42.68822" lon="-8.494825"><ele>313.57142857142856</ele><time>2026-04-15T13:51:49.881Z</time></trkpt><trkpt lat="42.6882183" lon="-8.494915"><ele>313.7142857142857</ele><time>2026-04-15T13:51:50.881Z</time></trkpt><trkpt lat="42.6882117" lon="-8.4950067"><ele>313.85714285714283</ele><time>2026-04-15T13:51:51.88Z</time></trkpt><trkpt lat="42.6882" lon="-8.495105"><ele>314.0</ele><time>2026-04-15T13:51:52.88Z</time></trkpt><trkpt lat="42.6881983" lon="-8.495205"><ele>314.0</ele><time>2026-04-15T13:51:53.88Z</time></trkpt><trkpt lat="42.6882" lon="-8.495295"><ele>314.0</ele><time>2026-04-15T13:51:54.881Z</time></trkpt><trkpt lat="42.68822" lon="-8.4954467"><ele>314.0</ele><time>2026-04-15T13:51:56.881Z</time></trkpt><trkpt lat="42.6882367" lon="-8.495545"><ele>314.0</ele><time>2026-04-15T13:51:59.88Z</time></trkpt><trkpt lat="42.6882433" lon="-8.495645"><ele>314.0</ele><time>2026-04-15T13:52:04.88Z</time></trkpt><trkpt lat="42.68825" lon="-8.4957583"><ele>314.0</ele><time>2026-04-15T13:52:05.88Z</time></trkpt><trkpt lat="42.6882517" lon="-8.4959067"><ele>313.75</ele><time>2026-04-15T13:52:06.88Z</time></trkpt><trkpt lat="42.68824" lon="-8.4960633"><ele>313.5</ele><time>2026-04-15T13:52:07.88Z</time></trkpt><trkpt lat="42.6882267" lon="-8.4962767"><ele>313.25</ele><time>2026-04-15T13:52:08.88Z</time></trkpt><trkpt lat="42.68822" lon="-8.4965017"><ele>313.0</ele><time>2026-04-15T13:52:09.88Z</time></trkpt><trkpt lat="42.6882133" lon="-8.496695"><ele>313.0</ele><time>2026-04-15T13:52:10.88Z</time></trkpt><trkpt lat="42.6881883" lon="-8.496875"><ele>313.0</ele><time>2026-04-15T13:52:11.88Z</time></trkpt><trkpt lat="42.688175" lon="-8.4970233"><ele>313.0</ele><time>2026-04-15T13:52:12.881Z</time></trkpt><trkpt lat="42.6881583" lon="-8.4971467"><ele>313.0</ele><time>2026-04-15T13:52:13.88Z</time></trkpt><trkpt lat="42.6881533" lon="-8.49726"><ele>313.0</ele><time>2026-04-15T13:52:14.881Z</time></trkpt><trkpt lat="42.6881517" lon="-8.4973817"><ele>312.4</ele><time>2026-04-15T13:52:15.881Z</time></trkpt><trkpt lat="42.6881483" lon="-8.4975083"><ele>311.8</ele><time>2026-04-15T13:52:16.88Z</time></trkpt><trkpt lat="42.6881267" lon="-8.497635"><ele>311.2</ele><time>2026-04-15T13:52:17.88Z</time></trkpt><trkpt lat="42.6881067" lon="-8.4977667"><ele>310.6</ele><time>2026-04-15T13:52:18.88Z</time></trkpt><trkpt lat="42.6880883" lon="-8.4979033"><ele>310.0</ele><time>2026-04-15T13:52:19.88Z</time></trkpt><trkpt lat="42.6880683" lon="-8.49803"><ele>309.4</ele><time>2026-04-15T13:52:20.88Z</time></trkpt><trkpt lat="42.6880433" lon="-8.49815"><ele>308.8</ele><time>2026-04-15T13:52:21.88Z</time></trkpt><trkpt lat="42.688025" lon="-8.4982683"><ele>308.2</ele><time>2026-04-15T13:52:22.881Z</time></trkpt><trkpt lat="42.6880217" lon="-8.49837"><ele>307.6</ele><time>2026-04-15T13:52:23.88Z</time></trkpt><trkpt lat="42.688025" lon="-8.4985183"><ele>307.0</ele><time>2026-04-15T13:52:25.88Z</time></trkpt><trkpt lat="42.68795" lon="-8.4986183"><ele>307.0</ele><time>2026-04-15T13:54:10.882Z</time></trkpt><trkpt lat="42.6878917" lon="-8.49867"><ele>307.0</ele><time>2026-04-15T13:54:11.882Z</time></trkpt><trkpt lat="42.6878333" lon="-8.498755"><ele>307.0</ele><time>2026-04-15T13:54:12.881Z</time></trkpt><trkpt lat="42.68778" lon="-8.498845"><ele>307.0</ele><time>2026-04-15T13:54:13.882Z</time></trkpt><trkpt lat="42.68772" lon="-8.4989483"><ele>307.0</ele><time>2026-04-15T13:54:14.882Z</time></trkpt><trkpt lat="42.6876717" lon="-8.4990567"><ele>307.0</ele><time>2026-04-15T13:54:15.881Z</time></trkpt><trkpt lat="42.6876183" lon="-8.4991767"><ele>307.5</ele><time>2026-04-15T13:54:16.882Z</time></trkpt><trkpt lat="42.6875583" lon="-8.4993033"><ele>308.0</ele><time>2026-04-15T13:54:17.882Z</time></trkpt><trkpt lat="42.6874933" lon="-8.4994367"><ele>308.5</ele><time>2026-04-15T13:54:18.881Z</time></trkpt><trkpt lat="42.6874317" lon="-8.499575"><ele>309.0</ele><time>2026-04-15T13:54:19.881Z</time></trkpt><trkpt lat="42.6873467" lon="-8.499735"><ele>307.25</ele><time>2026-04-15T13:54:20.881Z</time></trkpt><trkpt lat="42.6872667" lon="-8.4998967"><ele>305.5</ele><time>2026-04-15T13:54:21.882Z</time></trkpt><trkpt lat="42.687185" lon="-8.5000533"><ele>303.75</ele><time>2026-04-15T13:54:22.882Z</time></trkpt><trkpt lat="42.6871083" lon="-8.5002117"><ele>302.0</ele><time>2026-04-15T13:54:23.881Z</time></trkpt><trkpt lat="42.687025" lon="-8.5003817"><ele>301.5</ele><time>2026-04-15T13:54:24.882Z</time></trkpt><trkpt lat="42.686955" lon="-8.5005183"><ele>301.0</ele><time>2026-04-15T13:54:25.881Z</time></trkpt><trkpt lat="42.6868967" lon="-8.5006517"><ele>300.5</ele><time>2026-04-15T13:54:26.881Z</time></trkpt><trkpt lat="42.6868333" lon="-8.5007833"><ele>300.0</ele><time>2026-04-15T13:54:27.881Z</time></trkpt><trkpt lat="42.6867883" lon="-8.50092"><ele>300.2</ele><time>2026-04-15T13:54:28.882Z</time></trkpt><trkpt lat="42.6867483" lon="-8.5010517"><ele>300.4</ele><time>2026-04-15T13:54:29.882Z</time></trkpt><trkpt lat="42.6866933" lon="-8.5011667"><ele>300.6</ele><time>2026-04-15T13:54:30.882Z</time></trkpt><trkpt lat="42.6866283" lon="-8.501275"><ele>300.8</ele><time>2026-04-15T13:54:31.882Z</time></trkpt><trkpt lat="42.6865633" lon="-8.5013867"><ele>301.0</ele><time>2026-04-15T13:54:32.882Z</time></trkpt><trkpt lat="42.6864983" lon="-8.501505"><ele>301.0</ele><time>2026-04-15T13:54:33.881Z</time></trkpt><trkpt lat="42.686435" lon="-8.5016267"><ele>301.0</ele><time>2026-04-15T13:54:34.881Z</time></trkpt><trkpt lat="42.686375" lon="-8.5017483"><ele>301.0</ele><time>2026-04-15T13:54:35.881Z</time></trkpt><trkpt lat="42.6863183" lon="-8.5018717"><ele>301.0</ele><time>2026-04-15T13:54:36.882Z</time></trkpt><trkpt lat="42.6862567" lon="-8.501995"><ele>301.0</ele><time>2026-04-15T13:54:37.882Z</time></trkpt><trkpt lat="42.6862067" lon="-8.5021267"><ele>300.40000000000003</ele><time>2026-04-15T13:54:38.881Z</time></trkpt><trkpt lat="42.6861567" lon="-8.50225"><ele>299.8</ele><time>2026-04-15T13:54:39.881Z</time></trkpt><trkpt lat="42.6861" lon="-8.502375"><ele>299.20000000000005</ele><time>2026-04-15T13:54:40.881Z</time></trkpt><trkpt lat="42.6860517" lon="-8.5025"><ele>298.6</ele><time>2026-04-15T13:54:41.881Z</time></trkpt><trkpt lat="42.686" lon="-8.502625"><ele>298.0</ele><time>2026-04-15T13:54:42.881Z</time></trkpt><trkpt lat="42.6859517" lon="-8.5027533"><ele>299.0</ele><time>2026-04-15T13:54:43.881Z</time></trkpt><trkpt lat="42.6858983" lon="-8.50289"><ele>300.0</ele><time>2026-04-15T13:54:44.882Z</time></trkpt><trkpt lat="42.6858267" lon="-8.5030033"><ele>301.0</ele><time>2026-04-15T13:54:45.882Z</time></trkpt><trkpt lat="42.68576" lon="-8.5031067"><ele>302.0</ele><time>2026-04-15T13:54:46.882Z</time></trkpt><trkpt lat="42.6856967" lon="-8.50322"><ele>303.0</ele><time>2026-04-15T13:54:47.882Z</time></trkpt><trkpt lat="42.6856417" lon="-8.5033517"><ele>303.0</ele><time>2026-04-15T13:54:48.881Z</time></trkpt><trkpt lat="42.685585" lon="-8.503485"><ele>303.0</ele><time>2026-04-15T13:54:49.881Z</time></trkpt><trkpt lat="42.68552" lon="-8.5036183"><ele>303.0</ele><time>2026-04-15T13:54:50.881Z</time></trkpt><trkpt lat="42.6854517" lon="-8.503755"><ele>303.0</ele><time>2026-04-15T13:54:51.881Z</time></trkpt><trkpt lat="42.68539" lon="-8.5038883"><ele>303.25</ele><time>2026-04-15T13:54:52.881Z</time></trkpt><trkpt lat="42.6853283" lon="-8.50403"><ele>303.5</ele><time>2026-04-15T13:54:53.881Z</time></trkpt><trkpt lat="42.6852733" lon="-8.50417"><ele>303.75</ele><time>2026-04-15T13:54:54.881Z</time></trkpt><trkpt lat="42.6852183" lon="-8.5043117"><ele>304.0</ele><time>2026-04-15T13:54:55.881Z</time></trkpt><trkpt lat="42.685175" lon="-8.5044633"><ele>305.5</ele><time>2026-04-15T13:54:56.881Z</time></trkpt><trkpt lat="42.6851383" lon="-8.5046217"><ele>307.0</ele><time>2026-04-15T13:54:57.882Z</time></trkpt><trkpt lat="42.6851083" lon="-8.5047917"><ele>308.5</ele><time>2026-04-15T13:54:58.881Z</time></trkpt><trkpt lat="42.6850967" lon="-8.50496"><ele>310.0</ele><time>2026-04-15T13:54:59.882Z</time></trkpt><trkpt lat="42.6851017" lon="-8.5051167"><ele>310.0</ele><time>2026-04-15T13:55:00.881Z</time></trkpt><trkpt lat="42.6851167" lon="-8.50528"><ele>310.0</ele><time>2026-04-15T13:55:01.882Z</time></trkpt><trkpt lat="42.6851383" lon="-8.5054467"><ele>310.0</ele><time>2026-04-15T13:55:02.881Z</time></trkpt><trkpt lat="42.6851717" lon="-8.50561"><ele>310.0</ele><time>2026-04-15T13:55:03.881Z</time></trkpt><trkpt lat="42.6852117" lon="-8.5057733"><ele>310.25</ele><time>2026-04-15T13:55:04.881Z</time></trkpt><trkpt lat="42.6852617" lon="-8.505925"><ele>310.5</ele><time>2026-04-15T13:55:05.882Z</time></trkpt><trkpt lat="42.685325" lon="-8.506065"><ele>310.75</ele><time>2026-04-15T13:55:06.881Z</time></trkpt><trkpt lat="42.685405" lon="-8.5061917"><ele>311.0</ele><time>2026-04-15T13:55:07.881Z</time></trkpt><trkpt lat="42.6854933" lon="-8.5063183"><ele>311.0</ele><time>2026-04-15T13:55:08.882Z</time></trkpt><trkpt lat="42.6855917" lon="-8.50641"><ele>311.0</ele><time>2026-04-15T13:55:09.881Z</time></trkpt><trkpt lat="42.685695" lon="-8.5064983"><ele>311.0</ele><time>2026-04-15T13:55:10.882Z</time></trkpt><trkpt lat="42.6858033" lon="-8.5065683"><ele>311.0</ele><time>2026-04-15T13:55:11.881Z</time></trkpt><trkpt lat="42.685915" lon="-8.5066317"><ele>311.0</ele><time>2026-04-15T13:55:12.882Z</time></trkpt><trkpt lat="42.6860317" lon="-8.5066933"><ele>311.0</ele><time>2026-04-15T13:55:13.881Z</time></trkpt><trkpt lat="42.6861533" lon="-8.5067583"><ele>311.0</ele><time>2026-04-15T13:55:14.882Z</time></trkpt><trkpt lat="42.6862667" lon="-8.5068383"><ele>311.0</ele><time>2026-04-15T13:55:15.882Z</time></trkpt><trkpt lat="42.6863683" lon="-8.5069167"><ele>309.8</ele><time>2026-04-15T13:55:16.881Z</time></trkpt><trkpt lat="42.68647" lon="-8.50699"><ele>308.6</ele><time>2026-04-15T13:55:17.882Z</time></trkpt><trkpt lat="42.68657" lon="-8.50704"><ele>307.4</ele><time>2026-04-15T13:55:18.881Z</time></trkpt><trkpt lat="42.6866767" lon="-8.5070717"><ele>306.2</ele><time>2026-04-15T13:55:19.882Z</time></trkpt><trkpt lat="42.686785" lon="-8.507085"><ele>305.0</ele><time>2026-04-15T13:55:20.882Z</time></trkpt><trkpt lat="42.6869017" lon="-8.5070567"><ele>304.5</ele><time>2026-04-15T13:55:21.881Z</time></trkpt><trkpt lat="42.6870083" lon="-8.5070183"><ele>304.0</ele><time>2026-04-15T13:55:22.881Z</time></trkpt><trkpt lat="42.6871183" lon="-8.5069533"><ele>303.5</ele><time>2026-04-15T13:55:23.881Z</time></trkpt><trkpt lat="42.68723" lon="-8.5068817"><ele>303.0</ele><time>2026-04-15T13:55:24.881Z</time></trkpt><trkpt lat="42.68734" lon="-8.50682"><ele>303.0</ele><time>2026-04-15T13:55:25.881Z</time></trkpt><trkpt lat="42.6874517" lon="-8.5067633"><ele>303.0</ele><time>2026-04-15T13:55:26.881Z</time></trkpt><trkpt lat="42.687555" lon="-8.5067017"><ele>303.0</ele><time>2026-04-15T13:55:27.882Z</time></trkpt><trkpt lat="42.6876583" lon="-8.5066383"><ele>303.0</ele><time>2026-04-15T13:55:28.881Z</time></trkpt><trkpt lat="42.6877533" lon="-8.5065733"><ele>302.6</ele><time>2026-04-15T13:55:29.881Z</time></trkpt><trkpt lat="42.6878433" lon="-8.5065233"><ele>302.20000000000005</ele><time>2026-04-15T13:55:30.881Z</time></trkpt><trkpt lat="42.6879467" lon="-8.506455"><ele>301.8</ele><time>2026-04-15T13:55:31.881Z</time></trkpt><trkpt lat="42.6880517" lon="-8.5063933"><ele>301.40000000000003</ele><time>2026-04-15T13:55:32.882Z</time></trkpt><trkpt lat="42.688155" lon="-8.5063333"><ele>301.0</ele><time>2026-04-15T13:55:33.882Z</time></trkpt><trkpt lat="42.6882583" lon="-8.5062633"><ele>301.0</ele><time>2026-04-15T13:55:34.882Z</time></trkpt><trkpt lat="42.688355" lon="-8.50619"><ele>301.0</ele><time>2026-04-15T13:55:35.881Z</time></trkpt><trkpt lat="42.6884533" lon="-8.5061067"><ele>301.0</ele><time>2026-04-15T13:55:36.882Z</time></trkpt><trkpt lat="42.68856" lon="-8.506025"><ele>301.0</ele><time>2026-04-15T13:55:37.881Z</time></trkpt><trkpt lat="42.6886733" lon="-8.50595"><ele>299.75</ele><time>2026-04-15T13:55:38.881Z</time></trkpt><trkpt lat="42.68879" lon="-8.5058567"><ele>298.5</ele><time>2026-04-15T13:55:39.881Z</time></trkpt><trkpt lat="42.6889" lon="-8.5057667"><ele>297.25</ele><time>2026-04-15T13:55:40.882Z</time></trkpt><trkpt lat="42.6890067" lon="-8.5056817"><ele>296.0</ele><time>2026-04-15T13:55:41.882Z</time></trkpt><trkpt lat="42.689115" lon="-8.5056"><ele>296.0</ele><time>2026-04-15T13:55:42.881Z</time></trkpt><trkpt lat="42.689215" lon="-8.5055283"><ele>296.0</ele><time>2026-04-15T13:55:43.882Z</time></trkpt><trkpt lat="42.689305" lon="-8.5054483"><ele>296.0</ele><time>2026-04-15T13:55:44.881Z</time></trkpt><trkpt lat="42.6893983" lon="-8.5053717"><ele>296.0</ele><time>2026-04-15T13:55:45.882Z</time></trkpt><trkpt lat="42.6894817" lon="-8.5052917"><ele>296.0</ele><time>2026-04-15T13:55:46.881Z</time></trkpt><trkpt lat="42.689575" lon="-8.50521"><ele>293.5</ele><time>2026-04-15T13:55:47.881Z</time></trkpt><trkpt lat="42.6896717" lon="-8.505135"><ele>291.0</ele><time>2026-04-15T13:55:48.881Z</time></trkpt><trkpt lat="42.68977" lon="-8.5050583"><ele>288.5</ele><time>2026-04-15T13:55:49.882Z</time></trkpt><trkpt lat="42.6898717" lon="-8.5049783"><ele>286.0</ele><time>2026-04-15T13:55:50.882Z</time></trkpt><trkpt lat="42.6899683" lon="-8.5048967"><ele>286.0</ele><time>2026-04-15T13:55:51.881Z</time></trkpt><trkpt lat="42.6900633" lon="-8.5048133"><ele>286.0</ele><time>2026-04-15T13:55:52.881Z</time></trkpt><trkpt lat="42.6901517" lon="-8.5047367"><ele>286.0</ele><time>2026-04-15T13:55:53.882Z</time></trkpt><trkpt lat="42.6902417" lon="-8.5046683"><ele>286.0</ele><time>2026-04-15T13:55:54.882Z</time></trkpt><trkpt lat="42.69033" lon="-8.50464"><ele>286.0</ele><time>2026-04-15T13:55:55.881Z</time></trkpt><trkpt lat="42.6904017" lon="-8.504655"><ele>285.6</ele><time>2026-04-15T13:55:56.881Z</time></trkpt><trkpt lat="42.69048" lon="-8.5046967"><ele>285.20000000000005</ele><time>2026-04-15T13:55:57.882Z</time></trkpt><trkpt lat="42.6905583" lon="-8.5047817"><ele>284.79999999999995</ele><time>2026-04-15T13:55:58.881Z</time></trkpt><trkpt lat="42.69063" lon="-8.5049183"><ele>284.4</ele><time>2026-04-15T13:55:59.881Z</time></trkpt><trkpt lat="42.690695" lon="-8.5050667"><ele>284.0</ele><time>2026-04-15T13:56:00.881Z</time></trkpt><trkpt lat="42.6907567" lon="-8.5052067"><ele>284.0</ele><time>2026-04-15T13:56:01.882Z</time></trkpt><trkpt lat="42.6908233" lon="-8.5053417"><ele>284.0</ele><time>2026-04-15T13:56:02.882Z</time></trkpt><trkpt lat="42.690895" lon="-8.50547"><ele>284.0</ele><time>2026-04-15T13:56:03.881Z</time></trkpt><trkpt lat="42.6909567" lon="-8.5055917"><ele>284.0</ele><time>2026-04-15T13:56:04.882Z</time></trkpt><trkpt lat="42.6910117" lon="-8.5057"><ele>284.0</ele><time>2026-04-15T13:56:05.882Z</time></trkpt><trkpt lat="42.69107" lon="-8.5057933"><ele>283.4</ele><time>2026-04-15T13:56:06.882Z</time></trkpt><trkpt lat="42.69115" lon="-8.505865"><ele>282.79999999999995</ele><time>2026-04-15T13:56:07.882Z</time></trkpt><trkpt lat="42.6912467" lon="-8.505905"><ele>282.20000000000005</ele><time>2026-04-15T13:56:08.881Z</time></trkpt><trkpt lat="42.6913617" lon="-8.50593"><ele>281.6</ele><time>2026-04-15T13:56:09.882Z</time></trkpt><trkpt lat="42.691475" lon="-8.505955"><ele>281.0</ele><time>2026-04-15T13:56:10.882Z</time></trkpt><trkpt lat="42.6915817" lon="-8.5059817"><ele>281.0</ele><time>2026-04-15T13:56:11.881Z</time></trkpt><trkpt lat="42.6916917" lon="-8.5059967"><ele>281.0</ele><time>2026-04-15T13:56:12.881Z</time></trkpt><trkpt lat="42.6917967" lon="-8.5060183"><ele>281.0</ele><time>2026-04-15T13:56:13.882Z</time></trkpt><trkpt lat="42.6919" lon="-8.5060283"><ele>281.0</ele><time>2026-04-15T13:56:14.882Z</time></trkpt><trkpt lat="42.6920067" lon="-8.506"><ele>281.0</ele><time>2026-04-15T13:56:15.881Z</time></trkpt><trkpt lat="42.692115" lon="-8.50595"><ele>278.8</ele><time>2026-04-15T13:56:16.881Z</time></trkpt><trkpt lat="42.6922183" lon="-8.505925"><ele>276.6</ele><time>2026-04-15T13:56:17.881Z</time></trkpt><trkpt lat="42.6923217" lon="-8.5059267"><ele>274.4</ele><time>2026-04-15T13:56:18.882Z</time></trkpt><trkpt lat="42.692415" lon="-8.5059467"><ele>272.2</ele><time>2026-04-15T13:56:19.881Z</time></trkpt><trkpt lat="42.6925117" lon="-8.5059467"><ele>270.0</ele><time>2026-04-15T13:56:20.882Z</time></trkpt><trkpt lat="42.692625" lon="-8.505935"><ele>270.0</ele><time>2026-04-15T13:56:21.882Z</time></trkpt><trkpt lat="42.6927533" lon="-8.50592"><ele>270.0</ele><time>2026-04-15T13:56:22.881Z</time></trkpt><trkpt lat="42.692875" lon="-8.505885"><ele>270.0</ele><time>2026-04-15T13:56:23.881Z</time></trkpt><trkpt lat="42.6929933" lon="-8.5058417"><ele>270.0</ele><time>2026-04-15T13:56:24.881Z</time></trkpt><trkpt lat="42.693095" lon="-8.505775"><ele>268.0</ele><time>2026-04-15T13:56:25.882Z</time></trkpt><trkpt lat="42.69319" lon="-8.5057333"><ele>266.0</ele><time>2026-04-15T13:56:26.882Z</time></trkpt><trkpt lat="42.69328" lon="-8.5056917"><ele>264.0</ele><time>2026-04-15T13:56:27.882Z</time></trkpt><trkpt lat="42.69337" lon="-8.5056583"><ele>262.0</ele><time>2026-04-15T13:56:28.881Z</time></trkpt><trkpt lat="42.69345" lon="-8.50561"><ele>260.0</ele><time>2026-04-15T13:56:29.881Z</time></trkpt><trkpt lat="42.69352" lon="-8.5055567"><ele>260.0</ele><time>2026-04-15T13:56:30.882Z</time></trkpt><trkpt lat="42.6935867" lon="-8.5055017"><ele>260.0</ele><time>2026-04-15T13:56:31.881Z</time></trkpt><trkpt lat="42.6936467" lon="-8.5054717"><ele>260.0</ele><time>2026-04-15T13:56:32.882Z</time></trkpt><trkpt lat="42.6937533" lon="-8.5054483"><ele>260.0</ele><time>2026-04-15T13:56:34.882Z</time></trkpt><trkpt lat="42.6938267" lon="-8.5054533"><ele>260.0</ele><time>2026-04-15T13:56:37.881Z</time></trkpt><trkpt lat="42.69385" lon="-8.5053617"><ele>260.0</ele><time>2026-04-15T13:58:10.881Z</time></trkpt><trkpt lat="42.6939383" lon="-8.5052767"><ele>259.6666666666667</ele><time>2026-04-15T13:58:12.881Z</time></trkpt><trkpt lat="42.69404" lon="-8.5052617"><ele>259.33333333333337</ele><time>2026-04-15T13:58:14.881Z</time></trkpt><trkpt lat="42.6941033" lon="-8.505325"><ele>259.0</ele><time>2026-04-15T13:58:16.882Z</time></trkpt><trkpt lat="42.694145" lon="-8.50542"><ele>258.6666666666667</ele><time>2026-04-15T13:58:18.882Z</time></trkpt><trkpt lat="42.6941533" lon="-8.5055383"><ele>258.3333333333333</ele><time>2026-04-15T17:17:37.905Z</time></trkpt><trkpt lat="42.6942167" lon="-8.5056067"><ele>258.0</ele><time>2026-04-15T17:18:17.905Z</time></trkpt><trkpt lat="42.6941817" lon="-8.5055"><ele>257.99999999999994</ele><time>2026-04-15T17:18:24.905Z</time></trkpt><trkpt lat="42.6941383" lon="-8.505415"><ele>258.0</ele><time>2026-04-15T17:20:11.905Z</time></trkpt><trkpt lat="42.6940867" lon="-8.5053367"><ele>258.0</ele><time>2026-04-15T17:20:14.905Z</time></trkpt><trkpt lat="42.694025" lon="-8.5052583"><ele>258.0</ele><time>2026-04-15T17:20:17.905Z</time></trkpt><trkpt lat="42.69396" lon="-8.50526"><ele>258.0</ele><time>2026-04-15T17:20:20.905Z</time></trkpt><trkpt lat="42.6939017" lon="-8.505295"><ele>257.99999999999994</ele><time>2026-04-15T17:20:22.904Z</time></trkpt><trkpt lat="42.693845" lon="-8.5053483"><ele>258.0</ele><time>2026-04-15T17:20:24.904Z</time></trkpt><trkpt lat="42.6937733" lon="-8.5053767"><ele>257.8</ele><time>2026-04-15T17:21:25.905Z</time></trkpt><trkpt lat="42.6936767" lon="-8.5054133"><ele>257.6</ele><time>2026-04-15T17:21:27.905Z</time></trkpt><trkpt lat="42.6936183" lon="-8.5054467"><ele>257.4</ele><time>2026-04-15T17:21:28.905Z</time></trkpt><trkpt lat="42.69355" lon="-8.50551"><ele>257.2</ele><time>2026-04-15T17:21:29.904Z</time></trkpt><trkpt lat="42.6934683" lon="-8.5055867"><ele>257.0</ele><time>2026-04-15T17:21:30.904Z</time></trkpt><trkpt lat="42.6933733" lon="-8.5056667"><ele>257.75</ele><time>2026-04-15T17:21:31.904Z</time></trkpt><trkpt lat="42.6932617" lon="-8.5057217"><ele>258.5</ele><time>2026-04-15T17:21:32.904Z</time></trkpt><trkpt lat="42.6931417" lon="-8.505775"><ele>259.25</ele><time>2026-04-15T17:21:33.904Z</time></trkpt><trkpt lat="42.6930267" lon="-8.5058267"><ele>260.0</ele><time>2026-04-15T17:21:34.905Z</time></trkpt><trkpt lat="42.69293" lon="-8.5058633"><ele>260.0</ele><time>2026-04-15T17:21:35.905Z</time></trkpt><trkpt lat="42.6928233" lon="-8.505915"><ele>260.0</ele><time>2026-04-15T17:21:36.904Z</time></trkpt><trkpt lat="42.6927133" lon="-8.5059567"><ele>260.0</ele><time>2026-04-15T17:21:37.904Z</time></trkpt><trkpt lat="42.6925983" lon="-8.5059833"><ele>260.0</ele><time>2026-04-15T17:21:38.904Z</time></trkpt><trkpt lat="42.6925033" lon="-8.5060067"><ele>260.0</ele><time>2026-04-15T17:21:39.904Z</time></trkpt><trkpt lat="42.6924233" lon="-8.5060217"><ele>261.6666666666667</ele><time>2026-04-15T17:21:40.904Z</time></trkpt><trkpt lat="42.692355" lon="-8.5060467"><ele>263.33333333333337</ele><time>2026-04-15T17:21:41.904Z</time></trkpt><trkpt lat="42.6922833" lon="-8.506075"><ele>265.0</ele><time>2026-04-15T17:21:42.904Z</time></trkpt><trkpt lat="42.6922067" lon="-8.5061017"><ele>266.6666666666667</ele><time>2026-04-15T17:21:43.905Z</time></trkpt><trkpt lat="42.6921133" lon="-8.5061183"><ele>268.3333333333333</ele><time>2026-04-15T17:21:44.905Z</time></trkpt><trkpt lat="42.6920083" lon="-8.5061133"><ele>270.0</ele><time>2026-04-15T17:21:45.904Z</time></trkpt><trkpt lat="42.6918917" lon="-8.5060933"><ele>272.75</ele><time>2026-04-15T17:21:46.904Z</time></trkpt><trkpt lat="42.691775" lon="-8.5060783"><ele>275.5</ele><time>2026-04-15T17:21:47.905Z</time></trkpt><trkpt lat="42.6916617" lon="-8.506045"><ele>278.25</ele><time>2026-04-15T17:21:48.904Z</time></trkpt><trkpt lat="42.69155" lon="-8.5060217"><ele>281.0</ele><time>2026-04-15T17:21:49.905Z</time></trkpt><trkpt lat="42.69144" lon="-8.5059933"><ele>281.0</ele><time>2026-04-15T17:21:50.905Z</time></trkpt><trkpt lat="42.69132" lon="-8.5059567"><ele>281.0</ele><time>2026-04-15T17:21:51.904Z</time></trkpt><trkpt lat="42.6912083" lon="-8.5059117"><ele>281.0</ele><time>2026-04-15T17:21:52.904Z</time></trkpt><trkpt lat="42.6911033" lon="-8.5058667"><ele>281.0</ele><time>2026-04-15T17:21:53.905Z</time></trkpt><trkpt lat="42.691015" lon="-8.505815"><ele>281.0</ele><time>2026-04-15T17:21:54.904Z</time></trkpt><trkpt lat="42.6909483" lon="-8.5057367"><ele>281.6</ele><time>2026-04-15T17:21:55.904Z</time></trkpt><trkpt lat="42.6909067" lon="-8.5056383"><ele>282.20000000000005</ele><time>2026-04-15T17:21:56.905Z</time></trkpt><trkpt lat="42.69086" lon="-8.5055233"><ele>282.79999999999995</ele><time>2026-04-15T17:21:57.905Z</time></trkpt><trkpt lat="42.6908067" lon="-8.5054067"><ele>283.4</ele><time>2026-04-15T17:21:58.904Z</time></trkpt><trkpt lat="42.690745" lon="-8.5052917"><ele>284.0</ele><time>2026-04-15T17:21:59.905Z</time></trkpt><trkpt lat="42.6906867" lon="-8.5051683"><ele>284.0</ele><time>2026-04-15T17:22:00.904Z</time></trkpt><trkpt lat="42.690625" lon="-8.50505"><ele>284.0</ele><time>2026-04-15T17:22:01.904Z</time></trkpt><trkpt lat="42.69056" lon="-8.50495"><ele>284.0</ele><time>2026-04-15T17:22:02.905Z</time></trkpt><trkpt lat="42.6905117" lon="-8.5048567"><ele>284.0</ele><time>2026-04-15T17:22:03.905Z</time></trkpt><trkpt lat="42.6904717" lon="-8.504785"><ele>284.0</ele><time>2026-04-15T17:22:04.905Z</time></trkpt><trkpt lat="42.6904067" lon="-8.5046883"><ele>284.0</ele><time>2026-04-15T17:22:06.904Z</time></trkpt><trkpt lat="42.690335" lon="-8.50462"><ele>284.0</ele><time>2026-04-15T17:22:08.905Z</time></trkpt><trkpt lat="42.690245" lon="-8.5046317"><ele>284.0</ele><time>2026-04-15T17:22:10.905Z</time></trkpt><trkpt lat="42.690125" lon="-8.5047433"><ele>284.0</ele><time>2026-04-15T17:22:12.904Z</time></trkpt><trkpt lat="42.6900467" lon="-8.5048267"><ele>284.0</ele><time>2026-04-15T17:22:13.904Z</time></trkpt><trkpt lat="42.6899633" lon="-8.5049067"><ele>284.5</ele><time>2026-04-15T17:22:14.905Z</time></trkpt><trkpt lat="42.689875" lon="-8.5049833"><ele>285.0</ele><time>2026-04-15T17:22:15.904Z</time></trkpt><trkpt lat="42.689775" lon="-8.5050733"><ele>285.5</ele><time>2026-04-15T17:22:16.905Z</time></trkpt><trkpt lat="42.6896667" lon="-8.5051617"><ele>286.0</ele><time>2026-04-15T17:22:17.905Z</time></trkpt><trkpt lat="42.6895483" lon="-8.5052533"><ele>286.0</ele><time>2026-04-15T17:22:18.905Z</time></trkpt><trkpt lat="42.6894283" lon="-8.5053617"><ele>286.0</ele><time>2026-04-15T17:22:19.905Z</time></trkpt><trkpt lat="42.6893133" lon="-8.505455"><ele>286.0</ele><time>2026-04-15T17:22:20.904Z</time></trkpt><trkpt lat="42.689195" lon="-8.5055417"><ele>286.0</ele><time>2026-04-15T17:22:21.905Z</time></trkpt><trkpt lat="42.6890817" lon="-8.5056317"><ele>288.5</ele><time>2026-04-15T17:22:22.905Z</time></trkpt><trkpt lat="42.688965" lon="-8.5057283"><ele>291.0</ele><time>2026-04-15T17:22:23.905Z</time></trkpt><trkpt lat="42.688855" lon="-8.5058183"><ele>293.5</ele><time>2026-04-15T17:22:24.905Z</time></trkpt><trkpt lat="42.6887417" lon="-8.5059017"><ele>296.0</ele><time>2026-04-15T17:22:25.905Z</time></trkpt><trkpt lat="42.6886283" lon="-8.5059817"><ele>297.25</ele><time>2026-04-15T17:22:26.905Z</time></trkpt><trkpt lat="42.6885183" lon="-8.506075"><ele>298.5</ele><time>2026-04-15T17:22:27.905Z</time></trkpt><trkpt lat="42.688405" lon="-8.5061583"><ele>299.75</ele><time>2026-04-15T17:22:28.905Z</time></trkpt><trkpt lat="42.6882967" lon="-8.506235"><ele>301.0</ele><time>2026-04-15T17:22:29.905Z</time></trkpt><trkpt lat="42.6881867" lon="-8.5063083"><ele>301.0</ele><time>2026-04-15T17:22:30.904Z</time></trkpt><trkpt lat="42.68806" lon="-8.5063783"><ele>301.0</ele><time>2026-04-15T17:22:31.904Z</time></trkpt><trkpt lat="42.6879483" lon="-8.5064417"><ele>301.0</ele><time>2026-04-15T17:22:32.905Z</time></trkpt><trkpt lat="42.6878383" lon="-8.5065117"><ele>301.0</ele><time>2026-04-15T17:22:33.905Z</time></trkpt><trkpt lat="42.687725" lon="-8.5065817"><ele>301.5</ele><time>2026-04-15T17:22:34.904Z</time></trkpt><trkpt lat="42.6876133" lon="-8.5066433"><ele>302.0</ele><time>2026-04-15T17:22:35.904Z</time></trkpt><trkpt lat="42.6875033" lon="-8.50671"><ele>302.5</ele><time>2026-04-15T17:22:36.905Z</time></trkpt><trkpt lat="42.6873967" lon="-8.50678"><ele>303.0</ele><time>2026-04-15T17:22:37.905Z</time></trkpt><trkpt lat="42.6872917" lon="-8.5068383"><ele>303.0</ele><time>2026-04-15T17:22:38.904Z</time></trkpt><trkpt lat="42.687195" lon="-8.5068917"><ele>303.0</ele><time>2026-04-15T17:22:39.905Z</time></trkpt><trkpt lat="42.6871067" lon="-8.50693"><ele>303.0</ele><time>2026-04-15T17:22:40.905Z</time></trkpt><trkpt lat="42.6870283" lon="-8.5069617"><ele>303.0</ele><time>2026-04-15T17:22:41.905Z</time></trkpt><trkpt lat="42.6869583" lon="-8.5069883"><ele>303.0</ele><time>2026-04-15T17:22:42.905Z</time></trkpt><trkpt lat="42.6869" lon="-8.507025"><ele>303.0</ele><time>2026-04-15T17:22:43.904Z</time></trkpt><trkpt lat="42.68684" lon="-8.5071117"><ele>305.0</ele><time>2026-04-15T17:22:45.904Z</time></trkpt><trkpt lat="42.6868333" lon="-8.5072083"><ele>307.0</ele><time>2026-04-15T17:22:47.905Z</time></trkpt><trkpt lat="42.6868933" lon="-8.5073383"><ele>309.0</ele><time>2026-04-15T17:22:49.904Z</time></trkpt><trkpt lat="42.6869533" lon="-8.5074183"><ele>311.0</ele><time>2026-04-15T17:22:50.904Z</time></trkpt><trkpt lat="42.6870133" lon="-8.5075233"><ele>313.0</ele><time>2026-04-15T17:22:51.905Z</time></trkpt><trkpt lat="42.6870783" lon="-8.5076267"><ele>313.0</ele><time>2026-04-15T17:22:52.904Z</time></trkpt><trkpt lat="42.6871433" lon="-8.507725"><ele>313.0</ele><time>2026-04-15T17:22:53.905Z</time></trkpt><trkpt lat="42.6871983" lon="-8.5078267"><ele>313.0</ele><time>2026-04-15T17:22:54.905Z</time></trkpt><trkpt lat="42.6872617" lon="-8.507935"><ele>313.0</ele><time>2026-04-15T17:22:55.905Z</time></trkpt><trkpt lat="42.68733" lon="-8.5080483"><ele>313.0</ele><time>2026-04-15T17:22:56.905Z</time></trkpt><trkpt lat="42.6874083" lon="-8.5081617"><ele>313.75</ele><time>2026-04-15T17:22:57.904Z</time></trkpt><trkpt lat="42.68749" lon="-8.508265"><ele>314.5</ele><time>2026-04-15T17:22:58.905Z</time></trkpt><trkpt lat="42.6875783" lon="-8.5083717"><ele>315.25</ele><time>2026-04-15T17:22:59.905Z</time></trkpt><trkpt lat="42.6876767" lon="-8.5084733"><ele>316.0</ele><time>2026-04-15T17:23:00.904Z</time></trkpt><trkpt lat="42.687775" lon="-8.5085633"><ele>316.0</ele><time>2026-04-15T17:23:01.904Z</time></trkpt><trkpt lat="42.6878667" lon="-8.5086567"><ele>316.0</ele><time>2026-04-15T17:23:02.904Z</time></trkpt><trkpt lat="42.6879533" lon="-8.508765"><ele>316.0</ele><time>2026-04-15T17:23:03.904Z</time></trkpt><trkpt lat="42.6880317" lon="-8.5088767"><ele>316.0</ele><time>2026-04-15T17:23:04.904Z</time></trkpt><trkpt lat="42.6881" lon="-8.5089917"><ele>316.66666666666663</ele><time>2026-04-15T17:23:05.904Z</time></trkpt><trkpt lat="42.68815" lon="-8.50913"><ele>317.3333333333333</ele><time>2026-04-15T17:23:06.904Z</time></trkpt><trkpt lat="42.6881817" lon="-8.50925"><ele>318.0</ele><time>2026-04-15T17:23:07.904Z</time></trkpt><trkpt lat="42.6881967" lon="-8.50936"><ele>318.6666666666667</ele><time>2026-04-15T17:23:08.904Z</time></trkpt><trkpt lat="42.688215" lon="-8.50945"><ele>319.33333333333337</ele><time>2026-04-15T17:23:09.905Z</time></trkpt><trkpt lat="42.6882483" lon="-8.5095283"><ele>320.0</ele><time>2026-04-15T17:23:11.905Z</time></trkpt><trkpt lat="42.6882767" lon="-8.509635"><ele>320.0</ele><time>2026-04-15T17:23:40.905Z</time></trkpt><trkpt lat="42.6883417" lon="-8.5096533"><ele>320.0</ele><time>2026-04-15T17:23:43.905Z</time></trkpt><trkpt lat="42.6883917" lon="-8.5095717"><ele>320.0</ele><time>2026-04-15T17:23:46.904Z</time></trkpt><trkpt lat="42.6883717" lon="-8.509385"><ele>320.0</ele><time>2026-04-15T17:26:59.905Z</time></trkpt><trkpt lat="42.68846" lon="-8.5094317"><ele>320.0</ele><time>2026-04-15T17:31:41.906Z</time></trkpt><trkpt lat="42.6885394" lon="-8.509357"><ele>321.0</ele><time>2026-04-15T17:32:53.907Z</time></trkpt></trkseg></trk></gpx>